<?xml version="1.0" encoding="UTF-8" standalone="no" ?>
<gpx xmlns="http://www.topografix.com/GPX/1/1" xmlns:xsi="http://www.w3.org/2001/XMLSchema-instance" xsi:schemaLocation="http://www.topografix.com/GPX/1/1 http://www.topografix.com/GPX/1/1/gpx.xsd" version="1.1" creator="VisuGPX - https://www.visugpx.com">
  <metadata>
    <name>Moirax 10.3 km</name>
  </metadata>
  <trk>
    <name><![CDATA[2025 08 10 Moirax Pierre]]></name>
    <extensions>
      <line xmlns="http://www.topografix.com/GPX/gpx_style/0/2">
        <color>0000FF</color>
        <width>4</width>
      </line>
    </extensions>
    <trkseg>
      <trkpt lat="44.14145" lon="0.60983">
        <ele>131</ele>
        <time>2025-08-10T06:33:15.696Z</time>
      </trkpt>
      <trkpt lat="44.14144" lon="0.60982">
        <ele>131</ele>
        <time>2025-08-10T06:33:16.696Z</time>
      </trkpt>
      <trkpt lat="44.14143" lon="0.60985">
        <ele>133</ele>
        <time>2025-08-10T06:33:17.696Z</time>
      </trkpt>
      <trkpt lat="44.14145" lon="0.60984">
        <ele>135</ele>
        <time>2025-08-10T06:33:18.696Z</time>
      </trkpt>
      <trkpt lat="44.14141" lon="0.60981">
        <ele>137</ele>
        <time>2025-08-10T06:33:19.696Z</time>
      </trkpt>
      <trkpt lat="44.14141" lon="0.60981">
        <ele>139</ele>
        <time>2025-08-10T06:33:20.696Z</time>
      </trkpt>
      <trkpt lat="44.1414" lon="0.6098">
        <ele>141</ele>
        <time>2025-08-10T06:33:21.696Z</time>
      </trkpt>
      <trkpt lat="44.14135" lon="0.60978">
        <ele>143</ele>
        <time>2025-08-10T06:33:22.696Z</time>
      </trkpt>
      <trkpt lat="44.14133" lon="0.60977">
        <ele>144</ele>
        <time>2025-08-10T06:33:23.696Z</time>
      </trkpt>
      <trkpt lat="44.14131" lon="0.60975">
        <ele>145</ele>
        <time>2025-08-10T06:33:24.696Z</time>
      </trkpt>
      <trkpt lat="44.1413" lon="0.60974">
        <ele>146</ele>
        <time>2025-08-10T06:33:25.696Z</time>
      </trkpt>
      <trkpt lat="44.1413" lon="0.60973">
        <ele>147</ele>
        <time>2025-08-10T06:33:26.696Z</time>
      </trkpt>
      <trkpt lat="44.14129" lon="0.60972">
        <ele>148</ele>
        <time>2025-08-10T06:33:27.696Z</time>
      </trkpt>
      <trkpt lat="44.14129" lon="0.60971">
        <ele>149</ele>
        <time>2025-08-10T06:33:28.696Z</time>
      </trkpt>
      <trkpt lat="44.14129" lon="0.60969">
        <ele>149</ele>
        <time>2025-08-10T06:33:29.696Z</time>
      </trkpt>
      <trkpt lat="44.14128" lon="0.60968">
        <ele>150</ele>
        <time>2025-08-10T06:33:30.696Z</time>
      </trkpt>
      <trkpt lat="44.14127" lon="0.60966">
        <ele>150</ele>
        <time>2025-08-10T06:33:31.696Z</time>
      </trkpt>
      <trkpt lat="44.14126" lon="0.60965">
        <ele>151</ele>
        <time>2025-08-10T06:33:32.696Z</time>
      </trkpt>
      <trkpt lat="44.14127" lon="0.60963">
        <ele>151</ele>
        <time>2025-08-10T06:33:33.696Z</time>
      </trkpt>
      <trkpt lat="44.14129" lon="0.60962">
        <ele>151</ele>
        <time>2025-08-10T06:33:34.696Z</time>
      </trkpt>
      <trkpt lat="44.1413" lon="0.60961">
        <ele>151</ele>
        <time>2025-08-10T06:33:35.696Z</time>
      </trkpt>
      <trkpt lat="44.1413" lon="0.6096">
        <ele>151</ele>
        <time>2025-08-10T06:33:36.696Z</time>
      </trkpt>
      <trkpt lat="44.14131" lon="0.60959">
        <ele>151</ele>
        <time>2025-08-10T06:33:37.696Z</time>
      </trkpt>
      <trkpt lat="44.14131" lon="0.60958">
        <ele>151</ele>
        <time>2025-08-10T06:33:38.696Z</time>
      </trkpt>
      <trkpt lat="44.14131" lon="0.60957">
        <ele>151</ele>
        <time>2025-08-10T06:33:39.696Z</time>
      </trkpt>
      <trkpt lat="44.14132" lon="0.60955">
        <ele>151</ele>
        <time>2025-08-10T06:33:40.696Z</time>
      </trkpt>
      <trkpt lat="44.14132" lon="0.60954">
        <ele>150</ele>
        <time>2025-08-10T06:33:41.696Z</time>
      </trkpt>
      <trkpt lat="44.14133" lon="0.60952">
        <ele>150</ele>
        <time>2025-08-10T06:33:42.696Z</time>
      </trkpt>
      <trkpt lat="44.14133" lon="0.60952">
        <ele>149</ele>
        <time>2025-08-10T06:33:43.696Z</time>
      </trkpt>
      <trkpt lat="44.14134" lon="0.60952">
        <ele>149</ele>
        <time>2025-08-10T06:33:44.696Z</time>
      </trkpt>
      <trkpt lat="44.14134" lon="0.60952">
        <ele>149</ele>
        <time>2025-08-10T06:33:45.696Z</time>
      </trkpt>
      <trkpt lat="44.14134" lon="0.60952">
        <ele>148</ele>
        <time>2025-08-10T06:33:46.696Z</time>
      </trkpt>
      <trkpt lat="44.14134" lon="0.60952">
        <ele>148</ele>
        <time>2025-08-10T06:33:47.696Z</time>
      </trkpt>
      <trkpt lat="44.14135" lon="0.60952">
        <ele>148</ele>
        <time>2025-08-10T06:33:48.696Z</time>
      </trkpt>
      <trkpt lat="44.14135" lon="0.60953">
        <ele>148</ele>
        <time>2025-08-10T06:33:49.696Z</time>
      </trkpt>
      <trkpt lat="44.14135" lon="0.60953">
        <ele>148</ele>
        <time>2025-08-10T06:33:50.696Z</time>
      </trkpt>
      <trkpt lat="44.14135" lon="0.60953">
        <ele>148</ele>
        <time>2025-08-10T06:33:51.696Z</time>
      </trkpt>
      <trkpt lat="44.14135" lon="0.60952">
        <ele>149</ele>
        <time>2025-08-10T06:33:52.696Z</time>
      </trkpt>
      <trkpt lat="44.14135" lon="0.60951">
        <ele>149</ele>
        <time>2025-08-10T06:33:53.696Z</time>
      </trkpt>
      <trkpt lat="44.14135" lon="0.60949">
        <ele>149</ele>
        <time>2025-08-10T06:33:54.696Z</time>
      </trkpt>
      <trkpt lat="44.14135" lon="0.60948">
        <ele>149</ele>
        <time>2025-08-10T06:33:55.696Z</time>
      </trkpt>
      <trkpt lat="44.14136" lon="0.60946">
        <ele>149</ele>
        <time>2025-08-10T06:33:56.696Z</time>
      </trkpt>
      <trkpt lat="44.14135" lon="0.60944">
        <ele>149</ele>
        <time>2025-08-10T06:33:57.696Z</time>
      </trkpt>
      <trkpt lat="44.14135" lon="0.60942">
        <ele>149</ele>
        <time>2025-08-10T06:33:58.696Z</time>
      </trkpt>
      <trkpt lat="44.14136" lon="0.60941">
        <ele>148</ele>
        <time>2025-08-10T06:33:59.696Z</time>
      </trkpt>
      <trkpt lat="44.14135" lon="0.60939">
        <ele>148</ele>
        <time>2025-08-10T06:34:00.696Z</time>
      </trkpt>
      <trkpt lat="44.14136" lon="0.60937">
        <ele>148</ele>
        <time>2025-08-10T06:34:01.696Z</time>
      </trkpt>
      <trkpt lat="44.14136" lon="0.60936">
        <ele>148</ele>
        <time>2025-08-10T06:34:02.696Z</time>
      </trkpt>
      <trkpt lat="44.14135" lon="0.60935">
        <ele>149</ele>
        <time>2025-08-10T06:34:03.696Z</time>
      </trkpt>
      <trkpt lat="44.14136" lon="0.60933">
        <ele>149</ele>
        <time>2025-08-10T06:34:04.696Z</time>
      </trkpt>
      <trkpt lat="44.14136" lon="0.60932">
        <ele>149</ele>
        <time>2025-08-10T06:34:05.696Z</time>
      </trkpt>
      <trkpt lat="44.14136" lon="0.60931">
        <ele>149</ele>
        <time>2025-08-10T06:34:06.696Z</time>
      </trkpt>
      <trkpt lat="44.14136" lon="0.6093">
        <ele>149</ele>
        <time>2025-08-10T06:34:07.696Z</time>
      </trkpt>
      <trkpt lat="44.14136" lon="0.60929">
        <ele>149</ele>
        <time>2025-08-10T06:34:08.696Z</time>
      </trkpt>
      <trkpt lat="44.14136" lon="0.60927">
        <ele>149</ele>
        <time>2025-08-10T06:34:09.696Z</time>
      </trkpt>
      <trkpt lat="44.14136" lon="0.60926">
        <ele>149</ele>
        <time>2025-08-10T06:34:10.696Z</time>
      </trkpt>
      <trkpt lat="44.14136" lon="0.60925">
        <ele>149</ele>
        <time>2025-08-10T06:34:11.696Z</time>
      </trkpt>
      <trkpt lat="44.14136" lon="0.60923">
        <ele>149</ele>
        <time>2025-08-10T06:34:12.696Z</time>
      </trkpt>
      <trkpt lat="44.14136" lon="0.60921">
        <ele>149</ele>
        <time>2025-08-10T06:34:13.696Z</time>
      </trkpt>
      <trkpt lat="44.14136" lon="0.6092">
        <ele>149</ele>
        <time>2025-08-10T06:34:14.696Z</time>
      </trkpt>
      <trkpt lat="44.14135" lon="0.60918">
        <ele>150</ele>
        <time>2025-08-10T06:34:15.696Z</time>
      </trkpt>
      <trkpt lat="44.14135" lon="0.60917">
        <ele>150</ele>
        <time>2025-08-10T06:34:16.696Z</time>
      </trkpt>
      <trkpt lat="44.14135" lon="0.60915">
        <ele>150</ele>
        <time>2025-08-10T06:34:17.696Z</time>
      </trkpt>
      <trkpt lat="44.14135" lon="0.60914">
        <ele>151</ele>
        <time>2025-08-10T06:34:18.696Z</time>
      </trkpt>
      <trkpt lat="44.14136" lon="0.60913">
        <ele>151</ele>
        <time>2025-08-10T06:34:19.696Z</time>
      </trkpt>
      <trkpt lat="44.14136" lon="0.60912">
        <ele>151</ele>
        <time>2025-08-10T06:34:20.696Z</time>
      </trkpt>
      <trkpt lat="44.14136" lon="0.6091">
        <ele>151</ele>
        <time>2025-08-10T06:34:21.696Z</time>
      </trkpt>
      <trkpt lat="44.14136" lon="0.60909">
        <ele>151</ele>
        <time>2025-08-10T06:34:22.696Z</time>
      </trkpt>
      <trkpt lat="44.14136" lon="0.60908">
        <ele>151</ele>
        <time>2025-08-10T06:34:23.696Z</time>
      </trkpt>
      <trkpt lat="44.14136" lon="0.60906">
        <ele>152</ele>
        <time>2025-08-10T06:34:24.696Z</time>
      </trkpt>
      <trkpt lat="44.14137" lon="0.60904">
        <ele>151</ele>
        <time>2025-08-10T06:34:25.696Z</time>
      </trkpt>
      <trkpt lat="44.14138" lon="0.60903">
        <ele>152</ele>
        <time>2025-08-10T06:34:26.696Z</time>
      </trkpt>
      <trkpt lat="44.14138" lon="0.60902">
        <ele>152</ele>
        <time>2025-08-10T06:34:27.696Z</time>
      </trkpt>
      <trkpt lat="44.14139" lon="0.60901">
        <ele>151</ele>
        <time>2025-08-10T06:34:28.696Z</time>
      </trkpt>
      <trkpt lat="44.14141" lon="0.609">
        <ele>151</ele>
        <time>2025-08-10T06:34:29.696Z</time>
      </trkpt>
      <trkpt lat="44.14142" lon="0.60899">
        <ele>151</ele>
        <time>2025-08-10T06:34:30.697Z</time>
      </trkpt>
      <trkpt lat="44.14143" lon="0.60899">
        <ele>151</ele>
        <time>2025-08-10T06:34:31.696Z</time>
      </trkpt>
      <trkpt lat="44.14145" lon="0.60899">
        <ele>151</ele>
        <time>2025-08-10T06:34:32.696Z</time>
      </trkpt>
      <trkpt lat="44.14146" lon="0.60899">
        <ele>151</ele>
        <time>2025-08-10T06:34:33.696Z</time>
      </trkpt>
      <trkpt lat="44.14147" lon="0.609">
        <ele>151</ele>
        <time>2025-08-10T06:34:34.696Z</time>
      </trkpt>
      <trkpt lat="44.14148" lon="0.609">
        <ele>151</ele>
        <time>2025-08-10T06:34:35.697Z</time>
      </trkpt>
      <trkpt lat="44.14149" lon="0.60901">
        <ele>150</ele>
        <time>2025-08-10T06:34:36.696Z</time>
      </trkpt>
      <trkpt lat="44.1415" lon="0.60901">
        <ele>150</ele>
        <time>2025-08-10T06:34:37.696Z</time>
      </trkpt>
      <trkpt lat="44.14151" lon="0.60902">
        <ele>149</ele>
        <time>2025-08-10T06:34:38.696Z</time>
      </trkpt>
      <trkpt lat="44.14152" lon="0.60903">
        <ele>149</ele>
        <time>2025-08-10T06:34:39.696Z</time>
      </trkpt>
      <trkpt lat="44.14153" lon="0.60904">
        <ele>149</ele>
        <time>2025-08-10T06:34:40.696Z</time>
      </trkpt>
      <trkpt lat="44.14154" lon="0.60904">
        <ele>148</ele>
        <time>2025-08-10T06:34:41.696Z</time>
      </trkpt>
      <trkpt lat="44.14155" lon="0.60905">
        <ele>148</ele>
        <time>2025-08-10T06:34:42.696Z</time>
      </trkpt>
      <trkpt lat="44.14156" lon="0.60905">
        <ele>148</ele>
        <time>2025-08-10T06:34:43.696Z</time>
      </trkpt>
      <trkpt lat="44.14156" lon="0.60905">
        <ele>148</ele>
        <time>2025-08-10T06:34:44.696Z</time>
      </trkpt>
      <trkpt lat="44.14155" lon="0.60906">
        <ele>149</ele>
        <time>2025-08-10T06:34:45.696Z</time>
      </trkpt>
      <trkpt lat="44.14155" lon="0.60906">
        <ele>149</ele>
        <time>2025-08-10T06:34:46.696Z</time>
      </trkpt>
      <trkpt lat="44.14154" lon="0.60905">
        <ele>149</ele>
        <time>2025-08-10T06:34:47.696Z</time>
      </trkpt>
      <trkpt lat="44.14155" lon="0.60906">
        <ele>150</ele>
        <time>2025-08-10T06:34:48.696Z</time>
      </trkpt>
      <trkpt lat="44.14156" lon="0.60907">
        <ele>150</ele>
        <time>2025-08-10T06:34:49.696Z</time>
      </trkpt>
      <trkpt lat="44.14157" lon="0.60907">
        <ele>151</ele>
        <time>2025-08-10T06:34:50.696Z</time>
      </trkpt>
      <trkpt lat="44.14158" lon="0.60908">
        <ele>151</ele>
        <time>2025-08-10T06:34:51.696Z</time>
      </trkpt>
      <trkpt lat="44.14159" lon="0.60908">
        <ele>152</ele>
        <time>2025-08-10T06:34:52.696Z</time>
      </trkpt>
      <trkpt lat="44.1416" lon="0.60909">
        <ele>152</ele>
        <time>2025-08-10T06:34:53.696Z</time>
      </trkpt>
      <trkpt lat="44.14161" lon="0.6091">
        <ele>152</ele>
        <time>2025-08-10T06:34:54.696Z</time>
      </trkpt>
      <trkpt lat="44.14162" lon="0.6091">
        <ele>152</ele>
        <time>2025-08-10T06:34:55.696Z</time>
      </trkpt>
      <trkpt lat="44.14163" lon="0.60911">
        <ele>152</ele>
        <time>2025-08-10T06:34:56.696Z</time>
      </trkpt>
      <trkpt lat="44.14164" lon="0.60911">
        <ele>153</ele>
        <time>2025-08-10T06:34:57.696Z</time>
      </trkpt>
      <trkpt lat="44.14165" lon="0.60912">
        <ele>153</ele>
        <time>2025-08-10T06:34:58.696Z</time>
      </trkpt>
      <trkpt lat="44.14167" lon="0.60913">
        <ele>153</ele>
        <time>2025-08-10T06:34:59.696Z</time>
      </trkpt>
      <trkpt lat="44.14168" lon="0.60913">
        <ele>153</ele>
        <time>2025-08-10T06:35:00.696Z</time>
      </trkpt>
      <trkpt lat="44.14169" lon="0.60914">
        <ele>154</ele>
        <time>2025-08-10T06:35:01.696Z</time>
      </trkpt>
      <trkpt lat="44.1417" lon="0.60915">
        <ele>154</ele>
        <time>2025-08-10T06:35:02.696Z</time>
      </trkpt>
      <trkpt lat="44.14171" lon="0.60916">
        <ele>154</ele>
        <time>2025-08-10T06:35:03.696Z</time>
      </trkpt>
      <trkpt lat="44.14172" lon="0.60917">
        <ele>154</ele>
        <time>2025-08-10T06:35:04.696Z</time>
      </trkpt>
      <trkpt lat="44.14173" lon="0.60919">
        <ele>154</ele>
        <time>2025-08-10T06:35:05.696Z</time>
      </trkpt>
      <trkpt lat="44.14174" lon="0.60921">
        <ele>154</ele>
        <time>2025-08-10T06:35:06.696Z</time>
      </trkpt>
      <trkpt lat="44.14174" lon="0.60922">
        <ele>154</ele>
        <time>2025-08-10T06:35:07.696Z</time>
      </trkpt>
      <trkpt lat="44.14174" lon="0.60923">
        <ele>154</ele>
        <time>2025-08-10T06:35:08.697Z</time>
      </trkpt>
      <trkpt lat="44.14174" lon="0.60924">
        <ele>154</ele>
        <time>2025-08-10T06:35:09.696Z</time>
      </trkpt>
      <trkpt lat="44.14174" lon="0.60927">
        <ele>153</ele>
        <time>2025-08-10T06:35:10.696Z</time>
      </trkpt>
      <trkpt lat="44.14174" lon="0.60929">
        <ele>153</ele>
        <time>2025-08-10T06:35:11.696Z</time>
      </trkpt>
      <trkpt lat="44.14174" lon="0.60931">
        <ele>153</ele>
        <time>2025-08-10T06:35:12.696Z</time>
      </trkpt>
      <trkpt lat="44.14175" lon="0.60932">
        <ele>153</ele>
        <time>2025-08-10T06:35:13.696Z</time>
      </trkpt>
      <trkpt lat="44.14175" lon="0.60933">
        <ele>153</ele>
        <time>2025-08-10T06:35:14.696Z</time>
      </trkpt>
      <trkpt lat="44.14175" lon="0.60935">
        <ele>153</ele>
        <time>2025-08-10T06:35:15.696Z</time>
      </trkpt>
      <trkpt lat="44.14175" lon="0.60936">
        <ele>153</ele>
        <time>2025-08-10T06:35:16.696Z</time>
      </trkpt>
      <trkpt lat="44.14176" lon="0.60938">
        <ele>153</ele>
        <time>2025-08-10T06:35:17.696Z</time>
      </trkpt>
      <trkpt lat="44.14176" lon="0.6094">
        <ele>152</ele>
        <time>2025-08-10T06:35:18.696Z</time>
      </trkpt>
      <trkpt lat="44.14176" lon="0.60942">
        <ele>152</ele>
        <time>2025-08-10T06:35:19.696Z</time>
      </trkpt>
      <trkpt lat="44.14177" lon="0.60943">
        <ele>152</ele>
        <time>2025-08-10T06:35:20.696Z</time>
      </trkpt>
      <trkpt lat="44.14177" lon="0.60945">
        <ele>152</ele>
        <time>2025-08-10T06:35:21.696Z</time>
      </trkpt>
      <trkpt lat="44.14177" lon="0.60946">
        <ele>152</ele>
        <time>2025-08-10T06:35:22.696Z</time>
      </trkpt>
      <trkpt lat="44.14178" lon="0.60948">
        <ele>152</ele>
        <time>2025-08-10T06:35:23.696Z</time>
      </trkpt>
      <trkpt lat="44.14178" lon="0.60949">
        <ele>152</ele>
        <time>2025-08-10T06:35:24.696Z</time>
      </trkpt>
      <trkpt lat="44.14178" lon="0.6095">
        <ele>151</ele>
        <time>2025-08-10T06:35:25.697Z</time>
      </trkpt>
      <trkpt lat="44.14178" lon="0.60952">
        <ele>151</ele>
        <time>2025-08-10T06:35:26.696Z</time>
      </trkpt>
      <trkpt lat="44.14178" lon="0.60954">
        <ele>151</ele>
        <time>2025-08-10T06:35:27.696Z</time>
      </trkpt>
      <trkpt lat="44.14178" lon="0.60955">
        <ele>151</ele>
        <time>2025-08-10T06:35:28.696Z</time>
      </trkpt>
      <trkpt lat="44.14178" lon="0.60957">
        <ele>151</ele>
        <time>2025-08-10T06:35:29.696Z</time>
      </trkpt>
      <trkpt lat="44.14178" lon="0.60959">
        <ele>151</ele>
        <time>2025-08-10T06:35:30.696Z</time>
      </trkpt>
      <trkpt lat="44.14178" lon="0.6096">
        <ele>151</ele>
        <time>2025-08-10T06:35:31.696Z</time>
      </trkpt>
      <trkpt lat="44.14178" lon="0.60962">
        <ele>151</ele>
        <time>2025-08-10T06:35:32.696Z</time>
      </trkpt>
      <trkpt lat="44.14178" lon="0.60963">
        <ele>151</ele>
        <time>2025-08-10T06:35:33.696Z</time>
      </trkpt>
      <trkpt lat="44.14178" lon="0.60965">
        <ele>151</ele>
        <time>2025-08-10T06:35:34.696Z</time>
      </trkpt>
      <trkpt lat="44.14178" lon="0.60967">
        <ele>151</ele>
        <time>2025-08-10T06:35:35.696Z</time>
      </trkpt>
      <trkpt lat="44.14178" lon="0.60968">
        <ele>151</ele>
        <time>2025-08-10T06:35:36.696Z</time>
      </trkpt>
      <trkpt lat="44.14178" lon="0.6097">
        <ele>151</ele>
        <time>2025-08-10T06:35:37.696Z</time>
      </trkpt>
      <trkpt lat="44.14178" lon="0.60972">
        <ele>151</ele>
        <time>2025-08-10T06:35:38.696Z</time>
      </trkpt>
      <trkpt lat="44.14179" lon="0.60973">
        <ele>151</ele>
        <time>2025-08-10T06:35:39.696Z</time>
      </trkpt>
      <trkpt lat="44.14179" lon="0.60975">
        <ele>151</ele>
        <time>2025-08-10T06:35:40.696Z</time>
      </trkpt>
      <trkpt lat="44.14179" lon="0.60976">
        <ele>151</ele>
        <time>2025-08-10T06:35:41.696Z</time>
      </trkpt>
      <trkpt lat="44.14179" lon="0.60977">
        <ele>152</ele>
        <time>2025-08-10T06:35:42.696Z</time>
      </trkpt>
      <trkpt lat="44.14178" lon="0.60979">
        <ele>152</ele>
        <time>2025-08-10T06:35:43.696Z</time>
      </trkpt>
      <trkpt lat="44.14179" lon="0.6098">
        <ele>152</ele>
        <time>2025-08-10T06:35:44.696Z</time>
      </trkpt>
      <trkpt lat="44.14179" lon="0.60982">
        <ele>153</ele>
        <time>2025-08-10T06:35:45.696Z</time>
      </trkpt>
      <trkpt lat="44.14179" lon="0.60983">
        <ele>153</ele>
        <time>2025-08-10T06:35:46.696Z</time>
      </trkpt>
      <trkpt lat="44.14178" lon="0.60985">
        <ele>153</ele>
        <time>2025-08-10T06:35:47.696Z</time>
      </trkpt>
      <trkpt lat="44.14178" lon="0.60987">
        <ele>154</ele>
        <time>2025-08-10T06:35:48.696Z</time>
      </trkpt>
      <trkpt lat="44.14178" lon="0.60988">
        <ele>154</ele>
        <time>2025-08-10T06:35:49.696Z</time>
      </trkpt>
      <trkpt lat="44.14177" lon="0.6099">
        <ele>154</ele>
        <time>2025-08-10T06:35:50.696Z</time>
      </trkpt>
      <trkpt lat="44.14177" lon="0.60991">
        <ele>154</ele>
        <time>2025-08-10T06:35:51.696Z</time>
      </trkpt>
      <trkpt lat="44.14177" lon="0.60993">
        <ele>154</ele>
        <time>2025-08-10T06:35:52.696Z</time>
      </trkpt>
      <trkpt lat="44.14178" lon="0.60994">
        <ele>154</ele>
        <time>2025-08-10T06:35:53.696Z</time>
      </trkpt>
      <trkpt lat="44.14178" lon="0.60995">
        <ele>154</ele>
        <time>2025-08-10T06:35:54.696Z</time>
      </trkpt>
      <trkpt lat="44.14178" lon="0.60996">
        <ele>154</ele>
        <time>2025-08-10T06:35:55.696Z</time>
      </trkpt>
      <trkpt lat="44.14179" lon="0.60998">
        <ele>154</ele>
        <time>2025-08-10T06:35:56.696Z</time>
      </trkpt>
      <trkpt lat="44.14179" lon="0.61">
        <ele>154</ele>
        <time>2025-08-10T06:35:57.696Z</time>
      </trkpt>
      <trkpt lat="44.14179" lon="0.61001">
        <ele>154</ele>
        <time>2025-08-10T06:35:58.696Z</time>
      </trkpt>
      <trkpt lat="44.14179" lon="0.61003">
        <ele>153</ele>
        <time>2025-08-10T06:35:59.696Z</time>
      </trkpt>
      <trkpt lat="44.1418" lon="0.61005">
        <ele>153</ele>
        <time>2025-08-10T06:36:00.696Z</time>
      </trkpt>
      <trkpt lat="44.1418" lon="0.61008">
        <ele>153</ele>
        <time>2025-08-10T06:36:01.696Z</time>
      </trkpt>
      <trkpt lat="44.14181" lon="0.6101">
        <ele>153</ele>
        <time>2025-08-10T06:36:02.696Z</time>
      </trkpt>
      <trkpt lat="44.14181" lon="0.61011">
        <ele>153</ele>
        <time>2025-08-10T06:36:03.696Z</time>
      </trkpt>
      <trkpt lat="44.14181" lon="0.61013">
        <ele>153</ele>
        <time>2025-08-10T06:36:04.696Z</time>
      </trkpt>
      <trkpt lat="44.14181" lon="0.61015">
        <ele>153</ele>
        <time>2025-08-10T06:36:05.696Z</time>
      </trkpt>
      <trkpt lat="44.14181" lon="0.61017">
        <ele>153</ele>
        <time>2025-08-10T06:36:06.696Z</time>
      </trkpt>
      <trkpt lat="44.14181" lon="0.61019">
        <ele>153</ele>
        <time>2025-08-10T06:36:07.696Z</time>
      </trkpt>
      <trkpt lat="44.1418" lon="0.6102">
        <ele>152</ele>
        <time>2025-08-10T06:36:08.696Z</time>
      </trkpt>
      <trkpt lat="44.1418" lon="0.61022">
        <ele>152</ele>
        <time>2025-08-10T06:36:09.696Z</time>
      </trkpt>
      <trkpt lat="44.1418" lon="0.61023">
        <ele>152</ele>
        <time>2025-08-10T06:36:10.696Z</time>
      </trkpt>
      <trkpt lat="44.14179" lon="0.61025">
        <ele>152</ele>
        <time>2025-08-10T06:36:11.696Z</time>
      </trkpt>
      <trkpt lat="44.14179" lon="0.61026">
        <ele>152</ele>
        <time>2025-08-10T06:36:12.696Z</time>
      </trkpt>
      <trkpt lat="44.14179" lon="0.61028">
        <ele>152</ele>
        <time>2025-08-10T06:36:13.696Z</time>
      </trkpt>
      <trkpt lat="44.1418" lon="0.61029">
        <ele>152</ele>
        <time>2025-08-10T06:36:14.696Z</time>
      </trkpt>
      <trkpt lat="44.1418" lon="0.61031">
        <ele>152</ele>
        <time>2025-08-10T06:36:15.696Z</time>
      </trkpt>
      <trkpt lat="44.1418" lon="0.61032">
        <ele>152</ele>
        <time>2025-08-10T06:36:16.696Z</time>
      </trkpt>
      <trkpt lat="44.1418" lon="0.61034">
        <ele>152</ele>
        <time>2025-08-10T06:36:17.696Z</time>
      </trkpt>
      <trkpt lat="44.1418" lon="0.61035">
        <ele>151</ele>
        <time>2025-08-10T06:36:18.696Z</time>
      </trkpt>
      <trkpt lat="44.14181" lon="0.61037">
        <ele>151</ele>
        <time>2025-08-10T06:36:19.696Z</time>
      </trkpt>
      <trkpt lat="44.14181" lon="0.61039">
        <ele>151</ele>
        <time>2025-08-10T06:36:20.696Z</time>
      </trkpt>
      <trkpt lat="44.14181" lon="0.61041">
        <ele>150</ele>
        <time>2025-08-10T06:36:21.696Z</time>
      </trkpt>
      <trkpt lat="44.14181" lon="0.61042">
        <ele>150</ele>
        <time>2025-08-10T06:36:22.696Z</time>
      </trkpt>
      <trkpt lat="44.14181" lon="0.61044">
        <ele>150</ele>
        <time>2025-08-10T06:36:23.696Z</time>
      </trkpt>
      <trkpt lat="44.14181" lon="0.61046">
        <ele>150</ele>
        <time>2025-08-10T06:36:24.696Z</time>
      </trkpt>
      <trkpt lat="44.14181" lon="0.61048">
        <ele>149</ele>
        <time>2025-08-10T06:36:25.696Z</time>
      </trkpt>
      <trkpt lat="44.14181" lon="0.6105">
        <ele>149</ele>
        <time>2025-08-10T06:36:26.696Z</time>
      </trkpt>
      <trkpt lat="44.14181" lon="0.61051">
        <ele>149</ele>
        <time>2025-08-10T06:36:27.696Z</time>
      </trkpt>
      <trkpt lat="44.14181" lon="0.61053">
        <ele>149</ele>
        <time>2025-08-10T06:36:28.696Z</time>
      </trkpt>
      <trkpt lat="44.14181" lon="0.61055">
        <ele>149</ele>
        <time>2025-08-10T06:36:29.696Z</time>
      </trkpt>
      <trkpt lat="44.14181" lon="0.61056">
        <ele>149</ele>
        <time>2025-08-10T06:36:30.696Z</time>
      </trkpt>
      <trkpt lat="44.14181" lon="0.61058">
        <ele>149</ele>
        <time>2025-08-10T06:36:31.696Z</time>
      </trkpt>
      <trkpt lat="44.14181" lon="0.6106">
        <ele>149</ele>
        <time>2025-08-10T06:36:32.696Z</time>
      </trkpt>
      <trkpt lat="44.14181" lon="0.61061">
        <ele>149</ele>
        <time>2025-08-10T06:36:33.696Z</time>
      </trkpt>
      <trkpt lat="44.14181" lon="0.61063">
        <ele>149</ele>
        <time>2025-08-10T06:36:34.696Z</time>
      </trkpt>
      <trkpt lat="44.14181" lon="0.61065">
        <ele>149</ele>
        <time>2025-08-10T06:36:35.696Z</time>
      </trkpt>
      <trkpt lat="44.14182" lon="0.61067">
        <ele>149</ele>
        <time>2025-08-10T06:36:36.696Z</time>
      </trkpt>
      <trkpt lat="44.14181" lon="0.61068">
        <ele>149</ele>
        <time>2025-08-10T06:36:37.696Z</time>
      </trkpt>
      <trkpt lat="44.14182" lon="0.6107">
        <ele>149</ele>
        <time>2025-08-10T06:36:38.696Z</time>
      </trkpt>
      <trkpt lat="44.14181" lon="0.61071">
        <ele>149</ele>
        <time>2025-08-10T06:36:39.696Z</time>
      </trkpt>
      <trkpt lat="44.14181" lon="0.61073">
        <ele>149</ele>
        <time>2025-08-10T06:36:40.696Z</time>
      </trkpt>
      <trkpt lat="44.14181" lon="0.61074">
        <ele>149</ele>
        <time>2025-08-10T06:36:41.696Z</time>
      </trkpt>
      <trkpt lat="44.14181" lon="0.61076">
        <ele>149</ele>
        <time>2025-08-10T06:36:42.696Z</time>
      </trkpt>
      <trkpt lat="44.14181" lon="0.61078">
        <ele>149</ele>
        <time>2025-08-10T06:36:43.696Z</time>
      </trkpt>
      <trkpt lat="44.14181" lon="0.6108">
        <ele>150</ele>
        <time>2025-08-10T06:36:44.696Z</time>
      </trkpt>
      <trkpt lat="44.14181" lon="0.61082">
        <ele>150</ele>
        <time>2025-08-10T06:36:45.696Z</time>
      </trkpt>
      <trkpt lat="44.14182" lon="0.61084">
        <ele>151</ele>
        <time>2025-08-10T06:36:46.696Z</time>
      </trkpt>
      <trkpt lat="44.14182" lon="0.61086">
        <ele>151</ele>
        <time>2025-08-10T06:36:47.696Z</time>
      </trkpt>
      <trkpt lat="44.14182" lon="0.61088">
        <ele>151</ele>
        <time>2025-08-10T06:36:48.696Z</time>
      </trkpt>
      <trkpt lat="44.14182" lon="0.61089">
        <ele>151</ele>
        <time>2025-08-10T06:36:49.696Z</time>
      </trkpt>
      <trkpt lat="44.14182" lon="0.61091">
        <ele>151</ele>
        <time>2025-08-10T06:36:50.696Z</time>
      </trkpt>
      <trkpt lat="44.14182" lon="0.61092">
        <ele>151</ele>
        <time>2025-08-10T06:36:51.696Z</time>
      </trkpt>
      <trkpt lat="44.14183" lon="0.61094">
        <ele>151</ele>
        <time>2025-08-10T06:36:52.696Z</time>
      </trkpt>
      <trkpt lat="44.14183" lon="0.61096">
        <ele>151</ele>
        <time>2025-08-10T06:36:53.696Z</time>
      </trkpt>
      <trkpt lat="44.14183" lon="0.61098">
        <ele>151</ele>
        <time>2025-08-10T06:36:54.696Z</time>
      </trkpt>
      <trkpt lat="44.14183" lon="0.61099">
        <ele>151</ele>
        <time>2025-08-10T06:36:55.696Z</time>
      </trkpt>
      <trkpt lat="44.14183" lon="0.61101">
        <ele>151</ele>
        <time>2025-08-10T06:36:56.696Z</time>
      </trkpt>
      <trkpt lat="44.14183" lon="0.61103">
        <ele>150</ele>
        <time>2025-08-10T06:36:57.696Z</time>
      </trkpt>
      <trkpt lat="44.14183" lon="0.61105">
        <ele>150</ele>
        <time>2025-08-10T06:36:58.696Z</time>
      </trkpt>
      <trkpt lat="44.14184" lon="0.61106">
        <ele>150</ele>
        <time>2025-08-10T06:36:59.696Z</time>
      </trkpt>
      <trkpt lat="44.14184" lon="0.61108">
        <ele>150</ele>
        <time>2025-08-10T06:37:00.696Z</time>
      </trkpt>
      <trkpt lat="44.14184" lon="0.61109">
        <ele>150</ele>
        <time>2025-08-10T06:37:01.696Z</time>
      </trkpt>
      <trkpt lat="44.14184" lon="0.61111">
        <ele>150</ele>
        <time>2025-08-10T06:37:02.696Z</time>
      </trkpt>
      <trkpt lat="44.14184" lon="0.61113">
        <ele>149</ele>
        <time>2025-08-10T06:37:03.696Z</time>
      </trkpt>
      <trkpt lat="44.14184" lon="0.61115">
        <ele>149</ele>
        <time>2025-08-10T06:37:04.696Z</time>
      </trkpt>
      <trkpt lat="44.14184" lon="0.61116">
        <ele>149</ele>
        <time>2025-08-10T06:37:05.696Z</time>
      </trkpt>
      <trkpt lat="44.14184" lon="0.61118">
        <ele>148</ele>
        <time>2025-08-10T06:37:06.696Z</time>
      </trkpt>
      <trkpt lat="44.14184" lon="0.6112">
        <ele>148</ele>
        <time>2025-08-10T06:37:07.696Z</time>
      </trkpt>
      <trkpt lat="44.14184" lon="0.61122">
        <ele>148</ele>
        <time>2025-08-10T06:37:08.696Z</time>
      </trkpt>
      <trkpt lat="44.14185" lon="0.61124">
        <ele>148</ele>
        <time>2025-08-10T06:37:09.696Z</time>
      </trkpt>
      <trkpt lat="44.14185" lon="0.61126">
        <ele>148</ele>
        <time>2025-08-10T06:37:10.696Z</time>
      </trkpt>
      <trkpt lat="44.14185" lon="0.61127">
        <ele>148</ele>
        <time>2025-08-10T06:37:11.696Z</time>
      </trkpt>
      <trkpt lat="44.14186" lon="0.61129">
        <ele>148</ele>
        <time>2025-08-10T06:37:12.696Z</time>
      </trkpt>
      <trkpt lat="44.14186" lon="0.6113">
        <ele>148</ele>
        <time>2025-08-10T06:37:13.696Z</time>
      </trkpt>
      <trkpt lat="44.14186" lon="0.61132">
        <ele>147</ele>
        <time>2025-08-10T06:37:14.696Z</time>
      </trkpt>
      <trkpt lat="44.14186" lon="0.61133">
        <ele>147</ele>
        <time>2025-08-10T06:37:15.696Z</time>
      </trkpt>
      <trkpt lat="44.14186" lon="0.61135">
        <ele>147</ele>
        <time>2025-08-10T06:37:16.696Z</time>
      </trkpt>
      <trkpt lat="44.14186" lon="0.61137">
        <ele>147</ele>
        <time>2025-08-10T06:37:17.696Z</time>
      </trkpt>
      <trkpt lat="44.14186" lon="0.61139">
        <ele>147</ele>
        <time>2025-08-10T06:37:18.696Z</time>
      </trkpt>
      <trkpt lat="44.14186" lon="0.61141">
        <ele>147</ele>
        <time>2025-08-10T06:37:19.696Z</time>
      </trkpt>
      <trkpt lat="44.14186" lon="0.61142">
        <ele>147</ele>
        <time>2025-08-10T06:37:20.696Z</time>
      </trkpt>
      <trkpt lat="44.14187" lon="0.61144">
        <ele>147</ele>
        <time>2025-08-10T06:37:21.696Z</time>
      </trkpt>
      <trkpt lat="44.14187" lon="0.61146">
        <ele>147</ele>
        <time>2025-08-10T06:37:22.696Z</time>
      </trkpt>
      <trkpt lat="44.14187" lon="0.61147">
        <ele>147</ele>
        <time>2025-08-10T06:37:23.696Z</time>
      </trkpt>
      <trkpt lat="44.14187" lon="0.61149">
        <ele>147</ele>
        <time>2025-08-10T06:37:24.696Z</time>
      </trkpt>
      <trkpt lat="44.14188" lon="0.6115">
        <ele>147</ele>
        <time>2025-08-10T06:37:25.696Z</time>
      </trkpt>
      <trkpt lat="44.14188" lon="0.61152">
        <ele>147</ele>
        <time>2025-08-10T06:37:26.696Z</time>
      </trkpt>
      <trkpt lat="44.14189" lon="0.61153">
        <ele>147</ele>
        <time>2025-08-10T06:37:27.696Z</time>
      </trkpt>
      <trkpt lat="44.14189" lon="0.61154">
        <ele>147</ele>
        <time>2025-08-10T06:37:28.696Z</time>
      </trkpt>
      <trkpt lat="44.14189" lon="0.61156">
        <ele>147</ele>
        <time>2025-08-10T06:37:29.696Z</time>
      </trkpt>
      <trkpt lat="44.14189" lon="0.61158">
        <ele>147</ele>
        <time>2025-08-10T06:37:30.696Z</time>
      </trkpt>
      <trkpt lat="44.14189" lon="0.61159">
        <ele>147</ele>
        <time>2025-08-10T06:37:31.696Z</time>
      </trkpt>
      <trkpt lat="44.1419" lon="0.61161">
        <ele>147</ele>
        <time>2025-08-10T06:37:32.696Z</time>
      </trkpt>
      <trkpt lat="44.1419" lon="0.61163">
        <ele>147</ele>
        <time>2025-08-10T06:37:33.696Z</time>
      </trkpt>
      <trkpt lat="44.1419" lon="0.61165">
        <ele>147</ele>
        <time>2025-08-10T06:37:34.696Z</time>
      </trkpt>
      <trkpt lat="44.1419" lon="0.61167">
        <ele>147</ele>
        <time>2025-08-10T06:37:35.696Z</time>
      </trkpt>
      <trkpt lat="44.1419" lon="0.61168">
        <ele>147</ele>
        <time>2025-08-10T06:37:36.696Z</time>
      </trkpt>
      <trkpt lat="44.14191" lon="0.6117">
        <ele>146</ele>
        <time>2025-08-10T06:37:37.696Z</time>
      </trkpt>
      <trkpt lat="44.14191" lon="0.61172">
        <ele>146</ele>
        <time>2025-08-10T06:37:38.696Z</time>
      </trkpt>
      <trkpt lat="44.14191" lon="0.61173">
        <ele>145</ele>
        <time>2025-08-10T06:37:39.696Z</time>
      </trkpt>
      <trkpt lat="44.14191" lon="0.61175">
        <ele>145</ele>
        <time>2025-08-10T06:37:40.696Z</time>
      </trkpt>
      <trkpt lat="44.14191" lon="0.61176">
        <ele>145</ele>
        <time>2025-08-10T06:37:41.696Z</time>
      </trkpt>
      <trkpt lat="44.14191" lon="0.61177">
        <ele>145</ele>
        <time>2025-08-10T06:37:42.696Z</time>
      </trkpt>
      <trkpt lat="44.14191" lon="0.61179">
        <ele>145</ele>
        <time>2025-08-10T06:37:43.696Z</time>
      </trkpt>
      <trkpt lat="44.14191" lon="0.6118">
        <ele>145</ele>
        <time>2025-08-10T06:37:44.696Z</time>
      </trkpt>
      <trkpt lat="44.14191" lon="0.61182">
        <ele>145</ele>
        <time>2025-08-10T06:37:45.696Z</time>
      </trkpt>
      <trkpt lat="44.14191" lon="0.61184">
        <ele>145</ele>
        <time>2025-08-10T06:37:46.696Z</time>
      </trkpt>
      <trkpt lat="44.14191" lon="0.61186">
        <ele>145</ele>
        <time>2025-08-10T06:37:47.696Z</time>
      </trkpt>
      <trkpt lat="44.14192" lon="0.61187">
        <ele>145</ele>
        <time>2025-08-10T06:37:48.697Z</time>
      </trkpt>
      <trkpt lat="44.14192" lon="0.61189">
        <ele>146</ele>
        <time>2025-08-10T06:37:49.696Z</time>
      </trkpt>
      <trkpt lat="44.14192" lon="0.61191">
        <ele>145</ele>
        <time>2025-08-10T06:37:50.696Z</time>
      </trkpt>
      <trkpt lat="44.14193" lon="0.61193">
        <ele>145</ele>
        <time>2025-08-10T06:37:51.696Z</time>
      </trkpt>
      <trkpt lat="44.14193" lon="0.61195">
        <ele>145</ele>
        <time>2025-08-10T06:37:52.696Z</time>
      </trkpt>
      <trkpt lat="44.14194" lon="0.61197">
        <ele>145</ele>
        <time>2025-08-10T06:37:53.696Z</time>
      </trkpt>
      <trkpt lat="44.14194" lon="0.61198">
        <ele>145</ele>
        <time>2025-08-10T06:37:54.696Z</time>
      </trkpt>
      <trkpt lat="44.14194" lon="0.612">
        <ele>145</ele>
        <time>2025-08-10T06:37:55.696Z</time>
      </trkpt>
      <trkpt lat="44.14195" lon="0.61202">
        <ele>146</ele>
        <time>2025-08-10T06:37:56.697Z</time>
      </trkpt>
      <trkpt lat="44.14195" lon="0.61204">
        <ele>146</ele>
        <time>2025-08-10T06:37:57.696Z</time>
      </trkpt>
      <trkpt lat="44.14195" lon="0.61205">
        <ele>146</ele>
        <time>2025-08-10T06:37:58.696Z</time>
      </trkpt>
      <trkpt lat="44.14196" lon="0.61207">
        <ele>146</ele>
        <time>2025-08-10T06:37:59.696Z</time>
      </trkpt>
      <trkpt lat="44.14196" lon="0.61209">
        <ele>146</ele>
        <time>2025-08-10T06:38:00.696Z</time>
      </trkpt>
      <trkpt lat="44.14196" lon="0.61211">
        <ele>146</ele>
        <time>2025-08-10T06:38:01.696Z</time>
      </trkpt>
      <trkpt lat="44.14197" lon="0.61213">
        <ele>146</ele>
        <time>2025-08-10T06:38:02.696Z</time>
      </trkpt>
      <trkpt lat="44.14197" lon="0.61215">
        <ele>145</ele>
        <time>2025-08-10T06:38:03.696Z</time>
      </trkpt>
      <trkpt lat="44.14198" lon="0.61216">
        <ele>145</ele>
        <time>2025-08-10T06:38:04.697Z</time>
      </trkpt>
      <trkpt lat="44.14198" lon="0.61218">
        <ele>145</ele>
        <time>2025-08-10T06:38:05.696Z</time>
      </trkpt>
      <trkpt lat="44.14199" lon="0.6122">
        <ele>145</ele>
        <time>2025-08-10T06:38:06.696Z</time>
      </trkpt>
      <trkpt lat="44.14199" lon="0.61222">
        <ele>145</ele>
        <time>2025-08-10T06:38:07.696Z</time>
      </trkpt>
      <trkpt lat="44.14199" lon="0.61223">
        <ele>146</ele>
        <time>2025-08-10T06:38:08.696Z</time>
      </trkpt>
      <trkpt lat="44.142" lon="0.61225">
        <ele>146</ele>
        <time>2025-08-10T06:38:09.696Z</time>
      </trkpt>
      <trkpt lat="44.142" lon="0.61227">
        <ele>146</ele>
        <time>2025-08-10T06:38:10.696Z</time>
      </trkpt>
      <trkpt lat="44.14201" lon="0.61229">
        <ele>147</ele>
        <time>2025-08-10T06:38:11.696Z</time>
      </trkpt>
      <trkpt lat="44.14201" lon="0.61231">
        <ele>147</ele>
        <time>2025-08-10T06:38:12.696Z</time>
      </trkpt>
      <trkpt lat="44.14201" lon="0.61232">
        <ele>147</ele>
        <time>2025-08-10T06:38:13.696Z</time>
      </trkpt>
      <trkpt lat="44.14202" lon="0.61234">
        <ele>147</ele>
        <time>2025-08-10T06:38:14.696Z</time>
      </trkpt>
      <trkpt lat="44.14201" lon="0.61235">
        <ele>147</ele>
        <time>2025-08-10T06:38:15.696Z</time>
      </trkpt>
      <trkpt lat="44.14202" lon="0.61237">
        <ele>146</ele>
        <time>2025-08-10T06:38:16.696Z</time>
      </trkpt>
      <trkpt lat="44.14202" lon="0.61239">
        <ele>146</ele>
        <time>2025-08-10T06:38:17.696Z</time>
      </trkpt>
      <trkpt lat="44.14202" lon="0.6124">
        <ele>146</ele>
        <time>2025-08-10T06:38:18.696Z</time>
      </trkpt>
      <trkpt lat="44.14202" lon="0.61241">
        <ele>146</ele>
        <time>2025-08-10T06:38:19.696Z</time>
      </trkpt>
      <trkpt lat="44.14202" lon="0.61242">
        <ele>145</ele>
        <time>2025-08-10T06:38:20.696Z</time>
      </trkpt>
      <trkpt lat="44.14202" lon="0.61243">
        <ele>145</ele>
        <time>2025-08-10T06:38:21.696Z</time>
      </trkpt>
      <trkpt lat="44.14202" lon="0.61243">
        <ele>145</ele>
        <time>2025-08-10T06:38:22.696Z</time>
      </trkpt>
      <trkpt lat="44.14202" lon="0.61244">
        <ele>146</ele>
        <time>2025-08-10T06:38:23.696Z</time>
      </trkpt>
      <trkpt lat="44.14202" lon="0.61244">
        <ele>146</ele>
        <time>2025-08-10T06:38:24.696Z</time>
      </trkpt>
      <trkpt lat="44.14202" lon="0.61244">
        <ele>147</ele>
        <time>2025-08-10T06:38:25.696Z</time>
      </trkpt>
      <trkpt lat="44.14202" lon="0.61244">
        <ele>147</ele>
        <time>2025-08-10T06:38:26.696Z</time>
      </trkpt>
      <trkpt lat="44.14202" lon="0.61244">
        <ele>147</ele>
        <time>2025-08-10T06:38:27.696Z</time>
      </trkpt>
      <trkpt lat="44.14202" lon="0.61244">
        <ele>147</ele>
        <time>2025-08-10T06:38:28.696Z</time>
      </trkpt>
      <trkpt lat="44.14202" lon="0.61244">
        <ele>148</ele>
        <time>2025-08-10T06:38:29.696Z</time>
      </trkpt>
      <trkpt lat="44.14202" lon="0.61244">
        <ele>148</ele>
        <time>2025-08-10T06:38:30.696Z</time>
      </trkpt>
      <trkpt lat="44.14203" lon="0.61244">
        <ele>147</ele>
        <time>2025-08-10T06:38:31.696Z</time>
      </trkpt>
      <trkpt lat="44.14203" lon="0.61245">
        <ele>147</ele>
        <time>2025-08-10T06:38:32.696Z</time>
      </trkpt>
      <trkpt lat="44.14204" lon="0.61246">
        <ele>147</ele>
        <time>2025-08-10T06:38:33.696Z</time>
      </trkpt>
      <trkpt lat="44.14204" lon="0.61248">
        <ele>147</ele>
        <time>2025-08-10T06:38:34.696Z</time>
      </trkpt>
      <trkpt lat="44.14205" lon="0.61249">
        <ele>147</ele>
        <time>2025-08-10T06:38:35.696Z</time>
      </trkpt>
      <trkpt lat="44.14206" lon="0.61251">
        <ele>147</ele>
        <time>2025-08-10T06:38:36.696Z</time>
      </trkpt>
      <trkpt lat="44.14207" lon="0.61253">
        <ele>147</ele>
        <time>2025-08-10T06:38:37.696Z</time>
      </trkpt>
      <trkpt lat="44.14207" lon="0.61254">
        <ele>147</ele>
        <time>2025-08-10T06:38:38.696Z</time>
      </trkpt>
      <trkpt lat="44.14208" lon="0.61255">
        <ele>147</ele>
        <time>2025-08-10T06:38:39.696Z</time>
      </trkpt>
      <trkpt lat="44.14208" lon="0.61257">
        <ele>146</ele>
        <time>2025-08-10T06:38:40.696Z</time>
      </trkpt>
      <trkpt lat="44.14209" lon="0.61258">
        <ele>146</ele>
        <time>2025-08-10T06:38:41.696Z</time>
      </trkpt>
      <trkpt lat="44.1421" lon="0.6126">
        <ele>146</ele>
        <time>2025-08-10T06:38:42.696Z</time>
      </trkpt>
      <trkpt lat="44.14211" lon="0.61262">
        <ele>146</ele>
        <time>2025-08-10T06:38:43.696Z</time>
      </trkpt>
      <trkpt lat="44.14211" lon="0.61263">
        <ele>146</ele>
        <time>2025-08-10T06:38:44.696Z</time>
      </trkpt>
      <trkpt lat="44.14212" lon="0.61265">
        <ele>146</ele>
        <time>2025-08-10T06:38:45.696Z</time>
      </trkpt>
      <trkpt lat="44.14213" lon="0.61266">
        <ele>146</ele>
        <time>2025-08-10T06:38:46.696Z</time>
      </trkpt>
      <trkpt lat="44.14213" lon="0.61268">
        <ele>146</ele>
        <time>2025-08-10T06:38:47.696Z</time>
      </trkpt>
      <trkpt lat="44.14214" lon="0.61269">
        <ele>146</ele>
        <time>2025-08-10T06:38:48.696Z</time>
      </trkpt>
      <trkpt lat="44.14215" lon="0.6127">
        <ele>146</ele>
        <time>2025-08-10T06:38:49.696Z</time>
      </trkpt>
      <trkpt lat="44.14216" lon="0.61271">
        <ele>146</ele>
        <time>2025-08-10T06:38:50.696Z</time>
      </trkpt>
      <trkpt lat="44.14217" lon="0.61272">
        <ele>146</ele>
        <time>2025-08-10T06:38:51.696Z</time>
      </trkpt>
      <trkpt lat="44.14217" lon="0.61274">
        <ele>145</ele>
        <time>2025-08-10T06:38:52.696Z</time>
      </trkpt>
      <trkpt lat="44.14218" lon="0.61275">
        <ele>145</ele>
        <time>2025-08-10T06:38:53.696Z</time>
      </trkpt>
      <trkpt lat="44.14219" lon="0.61276">
        <ele>145</ele>
        <time>2025-08-10T06:38:54.696Z</time>
      </trkpt>
      <trkpt lat="44.14219" lon="0.61278">
        <ele>144</ele>
        <time>2025-08-10T06:38:55.696Z</time>
      </trkpt>
      <trkpt lat="44.1422" lon="0.61279">
        <ele>144</ele>
        <time>2025-08-10T06:38:56.696Z</time>
      </trkpt>
      <trkpt lat="44.14221" lon="0.6128">
        <ele>143</ele>
        <time>2025-08-10T06:38:57.696Z</time>
      </trkpt>
      <trkpt lat="44.14221" lon="0.61281">
        <ele>143</ele>
        <time>2025-08-10T06:38:58.696Z</time>
      </trkpt>
      <trkpt lat="44.14222" lon="0.61283">
        <ele>143</ele>
        <time>2025-08-10T06:38:59.696Z</time>
      </trkpt>
      <trkpt lat="44.14223" lon="0.61284">
        <ele>142</ele>
        <time>2025-08-10T06:39:00.696Z</time>
      </trkpt>
      <trkpt lat="44.14224" lon="0.61285">
        <ele>142</ele>
        <time>2025-08-10T06:39:01.696Z</time>
      </trkpt>
      <trkpt lat="44.14224" lon="0.61286">
        <ele>142</ele>
        <time>2025-08-10T06:39:02.696Z</time>
      </trkpt>
      <trkpt lat="44.14225" lon="0.61288">
        <ele>142</ele>
        <time>2025-08-10T06:39:03.696Z</time>
      </trkpt>
      <trkpt lat="44.14226" lon="0.61289">
        <ele>142</ele>
        <time>2025-08-10T06:39:04.696Z</time>
      </trkpt>
      <trkpt lat="44.14227" lon="0.6129">
        <ele>142</ele>
        <time>2025-08-10T06:39:05.696Z</time>
      </trkpt>
      <trkpt lat="44.14228" lon="0.61292">
        <ele>142</ele>
        <time>2025-08-10T06:39:06.696Z</time>
      </trkpt>
      <trkpt lat="44.14229" lon="0.61293">
        <ele>142</ele>
        <time>2025-08-10T06:39:07.696Z</time>
      </trkpt>
      <trkpt lat="44.1423" lon="0.61295">
        <ele>142</ele>
        <time>2025-08-10T06:39:08.696Z</time>
      </trkpt>
      <trkpt lat="44.14231" lon="0.61297">
        <ele>143</ele>
        <time>2025-08-10T06:39:09.696Z</time>
      </trkpt>
      <trkpt lat="44.14232" lon="0.61298">
        <ele>143</ele>
        <time>2025-08-10T06:39:10.696Z</time>
      </trkpt>
      <trkpt lat="44.14232" lon="0.613">
        <ele>144</ele>
        <time>2025-08-10T06:39:11.696Z</time>
      </trkpt>
      <trkpt lat="44.14233" lon="0.61301">
        <ele>144</ele>
        <time>2025-08-10T06:39:12.696Z</time>
      </trkpt>
      <trkpt lat="44.14234" lon="0.61302">
        <ele>144</ele>
        <time>2025-08-10T06:39:13.696Z</time>
      </trkpt>
      <trkpt lat="44.14235" lon="0.61303">
        <ele>144</ele>
        <time>2025-08-10T06:39:14.696Z</time>
      </trkpt>
      <trkpt lat="44.14236" lon="0.61305">
        <ele>144</ele>
        <time>2025-08-10T06:39:15.696Z</time>
      </trkpt>
      <trkpt lat="44.14237" lon="0.61306">
        <ele>144</ele>
        <time>2025-08-10T06:39:16.696Z</time>
      </trkpt>
      <trkpt lat="44.14237" lon="0.61308">
        <ele>144</ele>
        <time>2025-08-10T06:39:17.696Z</time>
      </trkpt>
      <trkpt lat="44.14238" lon="0.61309">
        <ele>145</ele>
        <time>2025-08-10T06:39:18.696Z</time>
      </trkpt>
      <trkpt lat="44.14239" lon="0.61311">
        <ele>145</ele>
        <time>2025-08-10T06:39:19.696Z</time>
      </trkpt>
      <trkpt lat="44.14239" lon="0.61313">
        <ele>145</ele>
        <time>2025-08-10T06:39:20.696Z</time>
      </trkpt>
      <trkpt lat="44.14239" lon="0.61314">
        <ele>145</ele>
        <time>2025-08-10T06:39:21.696Z</time>
      </trkpt>
      <trkpt lat="44.1424" lon="0.61316">
        <ele>145</ele>
        <time>2025-08-10T06:39:22.696Z</time>
      </trkpt>
      <trkpt lat="44.1424" lon="0.61318">
        <ele>145</ele>
        <time>2025-08-10T06:39:23.696Z</time>
      </trkpt>
      <trkpt lat="44.1424" lon="0.6132">
        <ele>145</ele>
        <time>2025-08-10T06:39:24.696Z</time>
      </trkpt>
      <trkpt lat="44.1424" lon="0.61322">
        <ele>145</ele>
        <time>2025-08-10T06:39:25.696Z</time>
      </trkpt>
      <trkpt lat="44.1424" lon="0.61324">
        <ele>144</ele>
        <time>2025-08-10T06:39:26.696Z</time>
      </trkpt>
      <trkpt lat="44.1424" lon="0.61326">
        <ele>144</ele>
        <time>2025-08-10T06:39:27.696Z</time>
      </trkpt>
      <trkpt lat="44.1424" lon="0.61329">
        <ele>144</ele>
        <time>2025-08-10T06:39:28.696Z</time>
      </trkpt>
      <trkpt lat="44.1424" lon="0.61331">
        <ele>144</ele>
        <time>2025-08-10T06:39:29.696Z</time>
      </trkpt>
      <trkpt lat="44.14239" lon="0.61333">
        <ele>144</ele>
        <time>2025-08-10T06:39:30.696Z</time>
      </trkpt>
      <trkpt lat="44.14239" lon="0.61335">
        <ele>144</ele>
        <time>2025-08-10T06:39:31.696Z</time>
      </trkpt>
      <trkpt lat="44.14239" lon="0.61337">
        <ele>145</ele>
        <time>2025-08-10T06:39:32.696Z</time>
      </trkpt>
      <trkpt lat="44.14239" lon="0.61339">
        <ele>145</ele>
        <time>2025-08-10T06:39:33.696Z</time>
      </trkpt>
      <trkpt lat="44.14238" lon="0.61341">
        <ele>144</ele>
        <time>2025-08-10T06:39:34.696Z</time>
      </trkpt>
      <trkpt lat="44.14238" lon="0.61343">
        <ele>144</ele>
        <time>2025-08-10T06:39:35.696Z</time>
      </trkpt>
      <trkpt lat="44.14238" lon="0.61345">
        <ele>144</ele>
        <time>2025-08-10T06:39:36.696Z</time>
      </trkpt>
      <trkpt lat="44.14238" lon="0.61346">
        <ele>143</ele>
        <time>2025-08-10T06:39:37.696Z</time>
      </trkpt>
      <trkpt lat="44.14238" lon="0.61348">
        <ele>143</ele>
        <time>2025-08-10T06:39:38.696Z</time>
      </trkpt>
      <trkpt lat="44.14238" lon="0.6135">
        <ele>143</ele>
        <time>2025-08-10T06:39:39.696Z</time>
      </trkpt>
      <trkpt lat="44.14237" lon="0.61352">
        <ele>143</ele>
        <time>2025-08-10T06:39:40.696Z</time>
      </trkpt>
      <trkpt lat="44.14237" lon="0.61354">
        <ele>143</ele>
        <time>2025-08-10T06:39:41.696Z</time>
      </trkpt>
      <trkpt lat="44.14237" lon="0.61355">
        <ele>143</ele>
        <time>2025-08-10T06:39:42.696Z</time>
      </trkpt>
      <trkpt lat="44.14237" lon="0.61357">
        <ele>143</ele>
        <time>2025-08-10T06:39:43.696Z</time>
      </trkpt>
      <trkpt lat="44.14237" lon="0.61358">
        <ele>143</ele>
        <time>2025-08-10T06:39:44.696Z</time>
      </trkpt>
      <trkpt lat="44.14236" lon="0.6136">
        <ele>143</ele>
        <time>2025-08-10T06:39:45.696Z</time>
      </trkpt>
      <trkpt lat="44.14236" lon="0.61361">
        <ele>143</ele>
        <time>2025-08-10T06:39:46.696Z</time>
      </trkpt>
      <trkpt lat="44.14235" lon="0.61363">
        <ele>144</ele>
        <time>2025-08-10T06:39:47.696Z</time>
      </trkpt>
      <trkpt lat="44.14235" lon="0.61365">
        <ele>144</ele>
        <time>2025-08-10T06:39:48.696Z</time>
      </trkpt>
      <trkpt lat="44.14235" lon="0.61366">
        <ele>144</ele>
        <time>2025-08-10T06:39:49.696Z</time>
      </trkpt>
      <trkpt lat="44.14235" lon="0.61368">
        <ele>144</ele>
        <time>2025-08-10T06:39:50.696Z</time>
      </trkpt>
      <trkpt lat="44.14234" lon="0.61369">
        <ele>144</ele>
        <time>2025-08-10T06:39:51.696Z</time>
      </trkpt>
      <trkpt lat="44.14234" lon="0.61371">
        <ele>144</ele>
        <time>2025-08-10T06:39:52.696Z</time>
      </trkpt>
      <trkpt lat="44.14234" lon="0.61372">
        <ele>144</ele>
        <time>2025-08-10T06:39:53.696Z</time>
      </trkpt>
      <trkpt lat="44.14233" lon="0.61374">
        <ele>145</ele>
        <time>2025-08-10T06:39:54.696Z</time>
      </trkpt>
      <trkpt lat="44.14233" lon="0.61375">
        <ele>145</ele>
        <time>2025-08-10T06:39:55.696Z</time>
      </trkpt>
      <trkpt lat="44.14233" lon="0.61377">
        <ele>145</ele>
        <time>2025-08-10T06:39:56.696Z</time>
      </trkpt>
      <trkpt lat="44.14234" lon="0.61378">
        <ele>145</ele>
        <time>2025-08-10T06:39:57.696Z</time>
      </trkpt>
      <trkpt lat="44.14235" lon="0.6138">
        <ele>145</ele>
        <time>2025-08-10T06:39:58.696Z</time>
      </trkpt>
      <trkpt lat="44.14236" lon="0.61381">
        <ele>145</ele>
        <time>2025-08-10T06:39:59.696Z</time>
      </trkpt>
      <trkpt lat="44.14237" lon="0.61383">
        <ele>145</ele>
        <time>2025-08-10T06:40:00.696Z</time>
      </trkpt>
      <trkpt lat="44.14238" lon="0.61384">
        <ele>144</ele>
        <time>2025-08-10T06:40:01.696Z</time>
      </trkpt>
      <trkpt lat="44.1424" lon="0.61385">
        <ele>144</ele>
        <time>2025-08-10T06:40:02.696Z</time>
      </trkpt>
      <trkpt lat="44.14241" lon="0.61386">
        <ele>144</ele>
        <time>2025-08-10T06:40:03.696Z</time>
      </trkpt>
      <trkpt lat="44.14242" lon="0.61387">
        <ele>144</ele>
        <time>2025-08-10T06:40:04.696Z</time>
      </trkpt>
      <trkpt lat="44.14243" lon="0.61387">
        <ele>143</ele>
        <time>2025-08-10T06:40:05.696Z</time>
      </trkpt>
      <trkpt lat="44.14244" lon="0.61388">
        <ele>143</ele>
        <time>2025-08-10T06:40:06.696Z</time>
      </trkpt>
      <trkpt lat="44.14245" lon="0.61388">
        <ele>144</ele>
        <time>2025-08-10T06:40:07.696Z</time>
      </trkpt>
      <trkpt lat="44.14246" lon="0.61389">
        <ele>144</ele>
        <time>2025-08-10T06:40:08.696Z</time>
      </trkpt>
      <trkpt lat="44.14247" lon="0.61389">
        <ele>144</ele>
        <time>2025-08-10T06:40:09.696Z</time>
      </trkpt>
      <trkpt lat="44.14248" lon="0.6139">
        <ele>144</ele>
        <time>2025-08-10T06:40:10.696Z</time>
      </trkpt>
      <trkpt lat="44.1425" lon="0.6139">
        <ele>144</ele>
        <time>2025-08-10T06:40:11.696Z</time>
      </trkpt>
      <trkpt lat="44.14251" lon="0.6139">
        <ele>144</ele>
        <time>2025-08-10T06:40:12.696Z</time>
      </trkpt>
      <trkpt lat="44.14253" lon="0.61391">
        <ele>144</ele>
        <time>2025-08-10T06:40:13.696Z</time>
      </trkpt>
      <trkpt lat="44.14254" lon="0.61391">
        <ele>144</ele>
        <time>2025-08-10T06:40:14.696Z</time>
      </trkpt>
      <trkpt lat="44.14255" lon="0.61391">
        <ele>144</ele>
        <time>2025-08-10T06:40:15.696Z</time>
      </trkpt>
      <trkpt lat="44.14257" lon="0.61391">
        <ele>145</ele>
        <time>2025-08-10T06:40:16.696Z</time>
      </trkpt>
      <trkpt lat="44.14258" lon="0.61392">
        <ele>145</ele>
        <time>2025-08-10T06:40:17.696Z</time>
      </trkpt>
      <trkpt lat="44.14259" lon="0.61392">
        <ele>145</ele>
        <time>2025-08-10T06:40:18.696Z</time>
      </trkpt>
      <trkpt lat="44.1426" lon="0.61393">
        <ele>145</ele>
        <time>2025-08-10T06:40:19.696Z</time>
      </trkpt>
      <trkpt lat="44.14261" lon="0.61393">
        <ele>145</ele>
        <time>2025-08-10T06:40:20.696Z</time>
      </trkpt>
      <trkpt lat="44.14262" lon="0.61393">
        <ele>145</ele>
        <time>2025-08-10T06:40:21.696Z</time>
      </trkpt>
      <trkpt lat="44.14263" lon="0.61394">
        <ele>145</ele>
        <time>2025-08-10T06:40:22.696Z</time>
      </trkpt>
      <trkpt lat="44.14265" lon="0.61394">
        <ele>144</ele>
        <time>2025-08-10T06:40:23.696Z</time>
      </trkpt>
      <trkpt lat="44.14266" lon="0.61395">
        <ele>144</ele>
        <time>2025-08-10T06:40:24.696Z</time>
      </trkpt>
      <trkpt lat="44.14267" lon="0.61395">
        <ele>145</ele>
        <time>2025-08-10T06:40:25.696Z</time>
      </trkpt>
      <trkpt lat="44.14269" lon="0.61395">
        <ele>145</ele>
        <time>2025-08-10T06:40:26.696Z</time>
      </trkpt>
      <trkpt lat="44.14271" lon="0.61396">
        <ele>145</ele>
        <time>2025-08-10T06:40:27.696Z</time>
      </trkpt>
      <trkpt lat="44.14272" lon="0.61396">
        <ele>145</ele>
        <time>2025-08-10T06:40:28.696Z</time>
      </trkpt>
      <trkpt lat="44.14273" lon="0.61397">
        <ele>145</ele>
        <time>2025-08-10T06:40:29.696Z</time>
      </trkpt>
      <trkpt lat="44.14274" lon="0.61397">
        <ele>145</ele>
        <time>2025-08-10T06:40:30.696Z</time>
      </trkpt>
      <trkpt lat="44.14275" lon="0.61397">
        <ele>145</ele>
        <time>2025-08-10T06:40:31.696Z</time>
      </trkpt>
      <trkpt lat="44.14276" lon="0.61397">
        <ele>145</ele>
        <time>2025-08-10T06:40:32.696Z</time>
      </trkpt>
      <trkpt lat="44.14278" lon="0.61398">
        <ele>145</ele>
        <time>2025-08-10T06:40:33.696Z</time>
      </trkpt>
      <trkpt lat="44.14279" lon="0.61398">
        <ele>145</ele>
        <time>2025-08-10T06:40:34.696Z</time>
      </trkpt>
      <trkpt lat="44.1428" lon="0.61399">
        <ele>145</ele>
        <time>2025-08-10T06:40:35.696Z</time>
      </trkpt>
      <trkpt lat="44.14281" lon="0.61399">
        <ele>145</ele>
        <time>2025-08-10T06:40:36.696Z</time>
      </trkpt>
      <trkpt lat="44.14283" lon="0.61399">
        <ele>146</ele>
        <time>2025-08-10T06:40:37.696Z</time>
      </trkpt>
      <trkpt lat="44.14284" lon="0.614">
        <ele>146</ele>
        <time>2025-08-10T06:40:38.696Z</time>
      </trkpt>
      <trkpt lat="44.14285" lon="0.614">
        <ele>146</ele>
        <time>2025-08-10T06:40:39.696Z</time>
      </trkpt>
      <trkpt lat="44.14287" lon="0.61401">
        <ele>147</ele>
        <time>2025-08-10T06:40:40.696Z</time>
      </trkpt>
      <trkpt lat="44.14288" lon="0.61401">
        <ele>146</ele>
        <time>2025-08-10T06:40:41.696Z</time>
      </trkpt>
      <trkpt lat="44.14289" lon="0.61401">
        <ele>146</ele>
        <time>2025-08-10T06:40:42.696Z</time>
      </trkpt>
      <trkpt lat="44.1429" lon="0.61402">
        <ele>147</ele>
        <time>2025-08-10T06:40:43.696Z</time>
      </trkpt>
      <trkpt lat="44.14291" lon="0.61402">
        <ele>147</ele>
        <time>2025-08-10T06:40:44.696Z</time>
      </trkpt>
      <trkpt lat="44.14293" lon="0.61402">
        <ele>147</ele>
        <time>2025-08-10T06:40:45.696Z</time>
      </trkpt>
      <trkpt lat="44.14294" lon="0.61402">
        <ele>148</ele>
        <time>2025-08-10T06:40:46.696Z</time>
      </trkpt>
      <trkpt lat="44.14296" lon="0.61403">
        <ele>148</ele>
        <time>2025-08-10T06:40:47.696Z</time>
      </trkpt>
      <trkpt lat="44.14297" lon="0.61403">
        <ele>148</ele>
        <time>2025-08-10T06:40:48.696Z</time>
      </trkpt>
      <trkpt lat="44.14298" lon="0.61404">
        <ele>148</ele>
        <time>2025-08-10T06:40:49.696Z</time>
      </trkpt>
      <trkpt lat="44.14299" lon="0.61404">
        <ele>148</ele>
        <time>2025-08-10T06:40:50.696Z</time>
      </trkpt>
      <trkpt lat="44.14301" lon="0.61405">
        <ele>149</ele>
        <time>2025-08-10T06:40:51.696Z</time>
      </trkpt>
      <trkpt lat="44.14302" lon="0.61405">
        <ele>149</ele>
        <time>2025-08-10T06:40:52.696Z</time>
      </trkpt>
      <trkpt lat="44.14303" lon="0.61406">
        <ele>150</ele>
        <time>2025-08-10T06:40:53.696Z</time>
      </trkpt>
      <trkpt lat="44.14304" lon="0.61406">
        <ele>150</ele>
        <time>2025-08-10T06:40:54.696Z</time>
      </trkpt>
      <trkpt lat="44.14304" lon="0.61407">
        <ele>150</ele>
        <time>2025-08-10T06:40:55.696Z</time>
      </trkpt>
      <trkpt lat="44.14306" lon="0.61408">
        <ele>150</ele>
        <time>2025-08-10T06:40:56.696Z</time>
      </trkpt>
      <trkpt lat="44.14307" lon="0.61409">
        <ele>150</ele>
        <time>2025-08-10T06:40:57.696Z</time>
      </trkpt>
      <trkpt lat="44.14308" lon="0.6141">
        <ele>150</ele>
        <time>2025-08-10T06:40:58.696Z</time>
      </trkpt>
      <trkpt lat="44.1431" lon="0.6141">
        <ele>150</ele>
        <time>2025-08-10T06:40:59.696Z</time>
      </trkpt>
      <trkpt lat="44.14311" lon="0.61412">
        <ele>150</ele>
        <time>2025-08-10T06:41:00.696Z</time>
      </trkpt>
      <trkpt lat="44.14312" lon="0.61413">
        <ele>151</ele>
        <time>2025-08-10T06:41:01.696Z</time>
      </trkpt>
      <trkpt lat="44.14313" lon="0.61415">
        <ele>151</ele>
        <time>2025-08-10T06:41:02.696Z</time>
      </trkpt>
      <trkpt lat="44.14314" lon="0.61416">
        <ele>150</ele>
        <time>2025-08-10T06:41:03.696Z</time>
      </trkpt>
      <trkpt lat="44.14314" lon="0.61418">
        <ele>150</ele>
        <time>2025-08-10T06:41:04.696Z</time>
      </trkpt>
      <trkpt lat="44.14315" lon="0.61419">
        <ele>150</ele>
        <time>2025-08-10T06:41:05.696Z</time>
      </trkpt>
      <trkpt lat="44.14315" lon="0.61421">
        <ele>151</ele>
        <time>2025-08-10T06:41:06.696Z</time>
      </trkpt>
      <trkpt lat="44.14316" lon="0.61422">
        <ele>151</ele>
        <time>2025-08-10T06:41:07.696Z</time>
      </trkpt>
      <trkpt lat="44.14316" lon="0.61424">
        <ele>151</ele>
        <time>2025-08-10T06:41:08.696Z</time>
      </trkpt>
      <trkpt lat="44.14317" lon="0.61426">
        <ele>151</ele>
        <time>2025-08-10T06:41:09.696Z</time>
      </trkpt>
      <trkpt lat="44.14318" lon="0.61427">
        <ele>150</ele>
        <time>2025-08-10T06:41:10.696Z</time>
      </trkpt>
      <trkpt lat="44.14319" lon="0.61429">
        <ele>150</ele>
        <time>2025-08-10T06:41:11.696Z</time>
      </trkpt>
      <trkpt lat="44.14319" lon="0.6143">
        <ele>149</ele>
        <time>2025-08-10T06:41:12.696Z</time>
      </trkpt>
      <trkpt lat="44.1432" lon="0.61432">
        <ele>149</ele>
        <time>2025-08-10T06:41:13.696Z</time>
      </trkpt>
      <trkpt lat="44.14321" lon="0.61433">
        <ele>149</ele>
        <time>2025-08-10T06:41:14.696Z</time>
      </trkpt>
      <trkpt lat="44.14322" lon="0.61434">
        <ele>149</ele>
        <time>2025-08-10T06:41:15.696Z</time>
      </trkpt>
      <trkpt lat="44.14323" lon="0.61434">
        <ele>149</ele>
        <time>2025-08-10T06:41:16.696Z</time>
      </trkpt>
      <trkpt lat="44.14324" lon="0.61435">
        <ele>149</ele>
        <time>2025-08-10T06:41:17.696Z</time>
      </trkpt>
      <trkpt lat="44.14325" lon="0.61435">
        <ele>149</ele>
        <time>2025-08-10T06:41:18.696Z</time>
      </trkpt>
      <trkpt lat="44.14326" lon="0.61436">
        <ele>149</ele>
        <time>2025-08-10T06:41:19.696Z</time>
      </trkpt>
      <trkpt lat="44.14327" lon="0.61436">
        <ele>149</ele>
        <time>2025-08-10T06:41:20.696Z</time>
      </trkpt>
      <trkpt lat="44.14328" lon="0.61436">
        <ele>149</ele>
        <time>2025-08-10T06:41:21.696Z</time>
      </trkpt>
      <trkpt lat="44.1433" lon="0.61437">
        <ele>149</ele>
        <time>2025-08-10T06:41:22.696Z</time>
      </trkpt>
      <trkpt lat="44.14331" lon="0.61437">
        <ele>149</ele>
        <time>2025-08-10T06:41:23.696Z</time>
      </trkpt>
      <trkpt lat="44.14332" lon="0.61438">
        <ele>148</ele>
        <time>2025-08-10T06:41:24.696Z</time>
      </trkpt>
      <trkpt lat="44.14333" lon="0.61438">
        <ele>148</ele>
        <time>2025-08-10T06:41:25.696Z</time>
      </trkpt>
      <trkpt lat="44.14335" lon="0.61438">
        <ele>148</ele>
        <time>2025-08-10T06:41:26.697Z</time>
      </trkpt>
      <trkpt lat="44.14336" lon="0.61438">
        <ele>148</ele>
        <time>2025-08-10T06:41:27.696Z</time>
      </trkpt>
      <trkpt lat="44.14337" lon="0.61438">
        <ele>148</ele>
        <time>2025-08-10T06:41:28.696Z</time>
      </trkpt>
      <trkpt lat="44.14338" lon="0.61438">
        <ele>149</ele>
        <time>2025-08-10T06:41:29.696Z</time>
      </trkpt>
      <trkpt lat="44.14339" lon="0.61438">
        <ele>148</ele>
        <time>2025-08-10T06:41:30.696Z</time>
      </trkpt>
      <trkpt lat="44.1434" lon="0.61438">
        <ele>148</ele>
        <time>2025-08-10T06:41:31.696Z</time>
      </trkpt>
      <trkpt lat="44.14342" lon="0.61438">
        <ele>148</ele>
        <time>2025-08-10T06:41:32.696Z</time>
      </trkpt>
      <trkpt lat="44.14343" lon="0.61438">
        <ele>148</ele>
        <time>2025-08-10T06:41:33.696Z</time>
      </trkpt>
      <trkpt lat="44.14344" lon="0.61438">
        <ele>148</ele>
        <time>2025-08-10T06:41:34.696Z</time>
      </trkpt>
      <trkpt lat="44.14345" lon="0.61438">
        <ele>148</ele>
        <time>2025-08-10T06:41:35.696Z</time>
      </trkpt>
      <trkpt lat="44.14346" lon="0.61437">
        <ele>148</ele>
        <time>2025-08-10T06:41:36.696Z</time>
      </trkpt>
      <trkpt lat="44.14347" lon="0.61437">
        <ele>148</ele>
        <time>2025-08-10T06:41:37.696Z</time>
      </trkpt>
      <trkpt lat="44.14348" lon="0.61437">
        <ele>148</ele>
        <time>2025-08-10T06:41:38.696Z</time>
      </trkpt>
      <trkpt lat="44.14349" lon="0.61437">
        <ele>148</ele>
        <time>2025-08-10T06:41:39.696Z</time>
      </trkpt>
      <trkpt lat="44.14351" lon="0.61437">
        <ele>148</ele>
        <time>2025-08-10T06:41:40.696Z</time>
      </trkpt>
      <trkpt lat="44.14352" lon="0.61437">
        <ele>148</ele>
        <time>2025-08-10T06:41:41.696Z</time>
      </trkpt>
      <trkpt lat="44.14354" lon="0.61437">
        <ele>147</ele>
        <time>2025-08-10T06:41:42.696Z</time>
      </trkpt>
      <trkpt lat="44.14355" lon="0.61437">
        <ele>147</ele>
        <time>2025-08-10T06:41:43.696Z</time>
      </trkpt>
      <trkpt lat="44.14356" lon="0.61437">
        <ele>147</ele>
        <time>2025-08-10T06:41:44.696Z</time>
      </trkpt>
      <trkpt lat="44.14357" lon="0.61437">
        <ele>147</ele>
        <time>2025-08-10T06:41:45.696Z</time>
      </trkpt>
      <trkpt lat="44.14358" lon="0.61437">
        <ele>147</ele>
        <time>2025-08-10T06:41:46.696Z</time>
      </trkpt>
      <trkpt lat="44.14359" lon="0.61437">
        <ele>147</ele>
        <time>2025-08-10T06:41:47.696Z</time>
      </trkpt>
      <trkpt lat="44.1436" lon="0.61437">
        <ele>147</ele>
        <time>2025-08-10T06:41:48.696Z</time>
      </trkpt>
      <trkpt lat="44.14361" lon="0.61437">
        <ele>147</ele>
        <time>2025-08-10T06:41:49.696Z</time>
      </trkpt>
      <trkpt lat="44.14362" lon="0.61437">
        <ele>147</ele>
        <time>2025-08-10T06:41:50.696Z</time>
      </trkpt>
      <trkpt lat="44.14363" lon="0.61437">
        <ele>147</ele>
        <time>2025-08-10T06:41:51.696Z</time>
      </trkpt>
      <trkpt lat="44.14365" lon="0.61437">
        <ele>147</ele>
        <time>2025-08-10T06:41:52.696Z</time>
      </trkpt>
      <trkpt lat="44.14366" lon="0.61437">
        <ele>147</ele>
        <time>2025-08-10T06:41:53.696Z</time>
      </trkpt>
      <trkpt lat="44.14368" lon="0.61437">
        <ele>146</ele>
        <time>2025-08-10T06:41:54.696Z</time>
      </trkpt>
      <trkpt lat="44.14369" lon="0.61437">
        <ele>146</ele>
        <time>2025-08-10T06:41:55.696Z</time>
      </trkpt>
      <trkpt lat="44.1437" lon="0.61437">
        <ele>146</ele>
        <time>2025-08-10T06:41:56.696Z</time>
      </trkpt>
      <trkpt lat="44.1437" lon="0.61437">
        <ele>146</ele>
        <time>2025-08-10T06:41:57.696Z</time>
      </trkpt>
      <trkpt lat="44.14371" lon="0.61437">
        <ele>146</ele>
        <time>2025-08-10T06:41:58.696Z</time>
      </trkpt>
      <trkpt lat="44.14372" lon="0.61437">
        <ele>146</ele>
        <time>2025-08-10T06:41:59.696Z</time>
      </trkpt>
      <trkpt lat="44.14373" lon="0.61436">
        <ele>146</ele>
        <time>2025-08-10T06:42:00.696Z</time>
      </trkpt>
      <trkpt lat="44.14374" lon="0.61436">
        <ele>146</ele>
        <time>2025-08-10T06:42:01.696Z</time>
      </trkpt>
      <trkpt lat="44.14375" lon="0.61436">
        <ele>146</ele>
        <time>2025-08-10T06:42:02.696Z</time>
      </trkpt>
      <trkpt lat="44.14377" lon="0.61436">
        <ele>146</ele>
        <time>2025-08-10T06:42:03.696Z</time>
      </trkpt>
      <trkpt lat="44.14378" lon="0.61436">
        <ele>146</ele>
        <time>2025-08-10T06:42:04.696Z</time>
      </trkpt>
      <trkpt lat="44.14379" lon="0.61436">
        <ele>146</ele>
        <time>2025-08-10T06:42:05.696Z</time>
      </trkpt>
      <trkpt lat="44.1438" lon="0.61436">
        <ele>147</ele>
        <time>2025-08-10T06:42:06.696Z</time>
      </trkpt>
      <trkpt lat="44.14381" lon="0.61435">
        <ele>147</ele>
        <time>2025-08-10T06:42:07.696Z</time>
      </trkpt>
      <trkpt lat="44.14382" lon="0.61435">
        <ele>147</ele>
        <time>2025-08-10T06:42:08.696Z</time>
      </trkpt>
      <trkpt lat="44.14383" lon="0.61435">
        <ele>147</ele>
        <time>2025-08-10T06:42:09.696Z</time>
      </trkpt>
      <trkpt lat="44.14385" lon="0.61434">
        <ele>147</ele>
        <time>2025-08-10T06:42:10.696Z</time>
      </trkpt>
      <trkpt lat="44.14386" lon="0.61434">
        <ele>147</ele>
        <time>2025-08-10T06:42:11.696Z</time>
      </trkpt>
      <trkpt lat="44.14387" lon="0.61434">
        <ele>147</ele>
        <time>2025-08-10T06:42:12.696Z</time>
      </trkpt>
      <trkpt lat="44.14388" lon="0.61434">
        <ele>147</ele>
        <time>2025-08-10T06:42:13.696Z</time>
      </trkpt>
      <trkpt lat="44.14389" lon="0.61434">
        <ele>147</ele>
        <time>2025-08-10T06:42:14.696Z</time>
      </trkpt>
      <trkpt lat="44.14391" lon="0.61434">
        <ele>147</ele>
        <time>2025-08-10T06:42:15.696Z</time>
      </trkpt>
      <trkpt lat="44.14393" lon="0.61434">
        <ele>146</ele>
        <time>2025-08-10T06:42:16.696Z</time>
      </trkpt>
      <trkpt lat="44.14394" lon="0.61434">
        <ele>146</ele>
        <time>2025-08-10T06:42:17.696Z</time>
      </trkpt>
      <trkpt lat="44.14396" lon="0.61435">
        <ele>145</ele>
        <time>2025-08-10T06:42:18.696Z</time>
      </trkpt>
      <trkpt lat="44.14397" lon="0.61435">
        <ele>145</ele>
        <time>2025-08-10T06:42:19.696Z</time>
      </trkpt>
      <trkpt lat="44.14399" lon="0.61435">
        <ele>144</ele>
        <time>2025-08-10T06:42:20.696Z</time>
      </trkpt>
      <trkpt lat="44.144" lon="0.61435">
        <ele>144</ele>
        <time>2025-08-10T06:42:21.696Z</time>
      </trkpt>
      <trkpt lat="44.14401" lon="0.61435">
        <ele>144</ele>
        <time>2025-08-10T06:42:22.696Z</time>
      </trkpt>
      <trkpt lat="44.14403" lon="0.61435">
        <ele>144</ele>
        <time>2025-08-10T06:42:23.696Z</time>
      </trkpt>
      <trkpt lat="44.14404" lon="0.61436">
        <ele>144</ele>
        <time>2025-08-10T06:42:24.696Z</time>
      </trkpt>
      <trkpt lat="44.14405" lon="0.61436">
        <ele>143</ele>
        <time>2025-08-10T06:42:25.696Z</time>
      </trkpt>
      <trkpt lat="44.14406" lon="0.61436">
        <ele>143</ele>
        <time>2025-08-10T06:42:26.696Z</time>
      </trkpt>
      <trkpt lat="44.14408" lon="0.61436">
        <ele>142</ele>
        <time>2025-08-10T06:42:27.696Z</time>
      </trkpt>
      <trkpt lat="44.14409" lon="0.61436">
        <ele>142</ele>
        <time>2025-08-10T06:42:28.696Z</time>
      </trkpt>
      <trkpt lat="44.14411" lon="0.61436">
        <ele>142</ele>
        <time>2025-08-10T06:42:29.696Z</time>
      </trkpt>
      <trkpt lat="44.14412" lon="0.61437">
        <ele>143</ele>
        <time>2025-08-10T06:42:30.696Z</time>
      </trkpt>
      <trkpt lat="44.14414" lon="0.61436">
        <ele>143</ele>
        <time>2025-08-10T06:42:31.696Z</time>
      </trkpt>
      <trkpt lat="44.14415" lon="0.61436">
        <ele>143</ele>
        <time>2025-08-10T06:42:32.696Z</time>
      </trkpt>
      <trkpt lat="44.14416" lon="0.61437">
        <ele>143</ele>
        <time>2025-08-10T06:42:33.696Z</time>
      </trkpt>
      <trkpt lat="44.14418" lon="0.61437">
        <ele>143</ele>
        <time>2025-08-10T06:42:34.696Z</time>
      </trkpt>
      <trkpt lat="44.14419" lon="0.61438">
        <ele>143</ele>
        <time>2025-08-10T06:42:35.696Z</time>
      </trkpt>
      <trkpt lat="44.1442" lon="0.61438">
        <ele>143</ele>
        <time>2025-08-10T06:42:36.696Z</time>
      </trkpt>
      <trkpt lat="44.14421" lon="0.61438">
        <ele>143</ele>
        <time>2025-08-10T06:42:37.696Z</time>
      </trkpt>
      <trkpt lat="44.14422" lon="0.61438">
        <ele>143</ele>
        <time>2025-08-10T06:42:38.696Z</time>
      </trkpt>
      <trkpt lat="44.14424" lon="0.61439">
        <ele>143</ele>
        <time>2025-08-10T06:42:39.696Z</time>
      </trkpt>
      <trkpt lat="44.14425" lon="0.61439">
        <ele>143</ele>
        <time>2025-08-10T06:42:40.696Z</time>
      </trkpt>
      <trkpt lat="44.14426" lon="0.61439">
        <ele>143</ele>
        <time>2025-08-10T06:42:41.696Z</time>
      </trkpt>
      <trkpt lat="44.14428" lon="0.6144">
        <ele>143</ele>
        <time>2025-08-10T06:42:42.696Z</time>
      </trkpt>
      <trkpt lat="44.14429" lon="0.6144">
        <ele>143</ele>
        <time>2025-08-10T06:42:43.696Z</time>
      </trkpt>
      <trkpt lat="44.1443" lon="0.6144">
        <ele>143</ele>
        <time>2025-08-10T06:42:44.696Z</time>
      </trkpt>
      <trkpt lat="44.14431" lon="0.61441">
        <ele>143</ele>
        <time>2025-08-10T06:42:45.696Z</time>
      </trkpt>
      <trkpt lat="44.14432" lon="0.61441">
        <ele>143</ele>
        <time>2025-08-10T06:42:46.696Z</time>
      </trkpt>
      <trkpt lat="44.14434" lon="0.61441">
        <ele>144</ele>
        <time>2025-08-10T06:42:47.696Z</time>
      </trkpt>
      <trkpt lat="44.14435" lon="0.61442">
        <ele>144</ele>
        <time>2025-08-10T06:42:48.696Z</time>
      </trkpt>
      <trkpt lat="44.14436" lon="0.61442">
        <ele>144</ele>
        <time>2025-08-10T06:42:49.696Z</time>
      </trkpt>
      <trkpt lat="44.14437" lon="0.61442">
        <ele>145</ele>
        <time>2025-08-10T06:42:50.696Z</time>
      </trkpt>
      <trkpt lat="44.14439" lon="0.61442">
        <ele>145</ele>
        <time>2025-08-10T06:42:51.696Z</time>
      </trkpt>
      <trkpt lat="44.1444" lon="0.61443">
        <ele>145</ele>
        <time>2025-08-10T06:42:52.696Z</time>
      </trkpt>
      <trkpt lat="44.14441" lon="0.61443">
        <ele>144</ele>
        <time>2025-08-10T06:42:53.696Z</time>
      </trkpt>
      <trkpt lat="44.14442" lon="0.61443">
        <ele>144</ele>
        <time>2025-08-10T06:42:54.696Z</time>
      </trkpt>
      <trkpt lat="44.14443" lon="0.61443">
        <ele>144</ele>
        <time>2025-08-10T06:42:55.696Z</time>
      </trkpt>
      <trkpt lat="44.14444" lon="0.61444">
        <ele>144</ele>
        <time>2025-08-10T06:42:56.696Z</time>
      </trkpt>
      <trkpt lat="44.14446" lon="0.61444">
        <ele>144</ele>
        <time>2025-08-10T06:42:57.696Z</time>
      </trkpt>
      <trkpt lat="44.14447" lon="0.61444">
        <ele>143</ele>
        <time>2025-08-10T06:42:58.696Z</time>
      </trkpt>
      <trkpt lat="44.14448" lon="0.61444">
        <ele>144</ele>
        <time>2025-08-10T06:42:59.696Z</time>
      </trkpt>
      <trkpt lat="44.14449" lon="0.61444">
        <ele>144</ele>
        <time>2025-08-10T06:43:00.696Z</time>
      </trkpt>
      <trkpt lat="44.14451" lon="0.61445">
        <ele>144</ele>
        <time>2025-08-10T06:43:01.696Z</time>
      </trkpt>
      <trkpt lat="44.14452" lon="0.61445">
        <ele>143</ele>
        <time>2025-08-10T06:43:02.696Z</time>
      </trkpt>
      <trkpt lat="44.14453" lon="0.61445">
        <ele>143</ele>
        <time>2025-08-10T06:43:03.697Z</time>
      </trkpt>
      <trkpt lat="44.14455" lon="0.61446">
        <ele>143</ele>
        <time>2025-08-10T06:43:04.697Z</time>
      </trkpt>
      <trkpt lat="44.14456" lon="0.61446">
        <ele>142</ele>
        <time>2025-08-10T06:43:05.696Z</time>
      </trkpt>
      <trkpt lat="44.14457" lon="0.61447">
        <ele>142</ele>
        <time>2025-08-10T06:43:06.696Z</time>
      </trkpt>
      <trkpt lat="44.14458" lon="0.61447">
        <ele>141</ele>
        <time>2025-08-10T06:43:07.696Z</time>
      </trkpt>
      <trkpt lat="44.14459" lon="0.61448">
        <ele>141</ele>
        <time>2025-08-10T06:43:08.696Z</time>
      </trkpt>
      <trkpt lat="44.1446" lon="0.61448">
        <ele>141</ele>
        <time>2025-08-10T06:43:09.696Z</time>
      </trkpt>
      <trkpt lat="44.14462" lon="0.61448">
        <ele>141</ele>
        <time>2025-08-10T06:43:10.696Z</time>
      </trkpt>
      <trkpt lat="44.14463" lon="0.61449">
        <ele>141</ele>
        <time>2025-08-10T06:43:11.696Z</time>
      </trkpt>
      <trkpt lat="44.14465" lon="0.61449">
        <ele>141</ele>
        <time>2025-08-10T06:43:12.696Z</time>
      </trkpt>
      <trkpt lat="44.14466" lon="0.6145">
        <ele>141</ele>
        <time>2025-08-10T06:43:13.696Z</time>
      </trkpt>
      <trkpt lat="44.14468" lon="0.6145">
        <ele>141</ele>
        <time>2025-08-10T06:43:14.696Z</time>
      </trkpt>
      <trkpt lat="44.14469" lon="0.6145">
        <ele>141</ele>
        <time>2025-08-10T06:43:15.696Z</time>
      </trkpt>
      <trkpt lat="44.1447" lon="0.61451">
        <ele>141</ele>
        <time>2025-08-10T06:43:16.696Z</time>
      </trkpt>
      <trkpt lat="44.14471" lon="0.61451">
        <ele>141</ele>
        <time>2025-08-10T06:43:17.696Z</time>
      </trkpt>
      <trkpt lat="44.14472" lon="0.61452">
        <ele>141</ele>
        <time>2025-08-10T06:43:18.696Z</time>
      </trkpt>
      <trkpt lat="44.14474" lon="0.61452">
        <ele>141</ele>
        <time>2025-08-10T06:43:19.696Z</time>
      </trkpt>
      <trkpt lat="44.14475" lon="0.61453">
        <ele>141</ele>
        <time>2025-08-10T06:43:20.696Z</time>
      </trkpt>
      <trkpt lat="44.14476" lon="0.61454">
        <ele>141</ele>
        <time>2025-08-10T06:43:21.696Z</time>
      </trkpt>
      <trkpt lat="44.14477" lon="0.61455">
        <ele>140</ele>
        <time>2025-08-10T06:43:22.696Z</time>
      </trkpt>
      <trkpt lat="44.14479" lon="0.61456">
        <ele>140</ele>
        <time>2025-08-10T06:43:23.696Z</time>
      </trkpt>
      <trkpt lat="44.1448" lon="0.61456">
        <ele>140</ele>
        <time>2025-08-10T06:43:24.696Z</time>
      </trkpt>
      <trkpt lat="44.1448" lon="0.61457">
        <ele>140</ele>
        <time>2025-08-10T06:43:25.696Z</time>
      </trkpt>
      <trkpt lat="44.14482" lon="0.61457">
        <ele>141</ele>
        <time>2025-08-10T06:43:26.696Z</time>
      </trkpt>
      <trkpt lat="44.14482" lon="0.61458">
        <ele>141</ele>
        <time>2025-08-10T06:43:27.696Z</time>
      </trkpt>
      <trkpt lat="44.14484" lon="0.61458">
        <ele>141</ele>
        <time>2025-08-10T06:43:28.696Z</time>
      </trkpt>
      <trkpt lat="44.14484" lon="0.61459">
        <ele>142</ele>
        <time>2025-08-10T06:43:29.696Z</time>
      </trkpt>
      <trkpt lat="44.14486" lon="0.61459">
        <ele>142</ele>
        <time>2025-08-10T06:43:30.696Z</time>
      </trkpt>
      <trkpt lat="44.14487" lon="0.6146">
        <ele>142</ele>
        <time>2025-08-10T06:43:31.696Z</time>
      </trkpt>
      <trkpt lat="44.14488" lon="0.61461">
        <ele>143</ele>
        <time>2025-08-10T06:43:32.696Z</time>
      </trkpt>
      <trkpt lat="44.1449" lon="0.61461">
        <ele>143</ele>
        <time>2025-08-10T06:43:33.696Z</time>
      </trkpt>
      <trkpt lat="44.14491" lon="0.61462">
        <ele>143</ele>
        <time>2025-08-10T06:43:34.696Z</time>
      </trkpt>
      <trkpt lat="44.14492" lon="0.61462">
        <ele>143</ele>
        <time>2025-08-10T06:43:35.696Z</time>
      </trkpt>
      <trkpt lat="44.14493" lon="0.61463">
        <ele>143</ele>
        <time>2025-08-10T06:43:36.697Z</time>
      </trkpt>
      <trkpt lat="44.14494" lon="0.61464">
        <ele>143</ele>
        <time>2025-08-10T06:43:37.696Z</time>
      </trkpt>
      <trkpt lat="44.14496" lon="0.61464">
        <ele>143</ele>
        <time>2025-08-10T06:43:38.696Z</time>
      </trkpt>
      <trkpt lat="44.14497" lon="0.61465">
        <ele>144</ele>
        <time>2025-08-10T06:43:39.696Z</time>
      </trkpt>
      <trkpt lat="44.14498" lon="0.61465">
        <ele>144</ele>
        <time>2025-08-10T06:43:40.696Z</time>
      </trkpt>
      <trkpt lat="44.14498" lon="0.61466">
        <ele>144</ele>
        <time>2025-08-10T06:43:41.696Z</time>
      </trkpt>
      <trkpt lat="44.14499" lon="0.61466">
        <ele>144</ele>
        <time>2025-08-10T06:43:42.696Z</time>
      </trkpt>
      <trkpt lat="44.145" lon="0.61467">
        <ele>144</ele>
        <time>2025-08-10T06:43:43.696Z</time>
      </trkpt>
      <trkpt lat="44.14502" lon="0.61468">
        <ele>144</ele>
        <time>2025-08-10T06:43:44.697Z</time>
      </trkpt>
      <trkpt lat="44.14503" lon="0.61468">
        <ele>144</ele>
        <time>2025-08-10T06:43:45.696Z</time>
      </trkpt>
      <trkpt lat="44.14504" lon="0.61468">
        <ele>144</ele>
        <time>2025-08-10T06:43:46.696Z</time>
      </trkpt>
      <trkpt lat="44.14506" lon="0.61469">
        <ele>144</ele>
        <time>2025-08-10T06:43:47.696Z</time>
      </trkpt>
      <trkpt lat="44.14507" lon="0.6147">
        <ele>144</ele>
        <time>2025-08-10T06:43:48.696Z</time>
      </trkpt>
      <trkpt lat="44.14508" lon="0.6147">
        <ele>144</ele>
        <time>2025-08-10T06:43:49.696Z</time>
      </trkpt>
      <trkpt lat="44.1451" lon="0.61471">
        <ele>144</ele>
        <time>2025-08-10T06:43:50.696Z</time>
      </trkpt>
      <trkpt lat="44.14511" lon="0.61472">
        <ele>144</ele>
        <time>2025-08-10T06:43:51.696Z</time>
      </trkpt>
      <trkpt lat="44.14512" lon="0.61474">
        <ele>144</ele>
        <time>2025-08-10T06:43:52.696Z</time>
      </trkpt>
      <trkpt lat="44.14513" lon="0.61475">
        <ele>143</ele>
        <time>2025-08-10T06:43:53.696Z</time>
      </trkpt>
      <trkpt lat="44.14514" lon="0.61476">
        <ele>143</ele>
        <time>2025-08-10T06:43:54.696Z</time>
      </trkpt>
      <trkpt lat="44.14515" lon="0.61476">
        <ele>143</ele>
        <time>2025-08-10T06:43:55.696Z</time>
      </trkpt>
      <trkpt lat="44.14516" lon="0.61477">
        <ele>143</ele>
        <time>2025-08-10T06:43:56.696Z</time>
      </trkpt>
      <trkpt lat="44.14517" lon="0.61478">
        <ele>143</ele>
        <time>2025-08-10T06:43:57.696Z</time>
      </trkpt>
      <trkpt lat="44.14518" lon="0.61479">
        <ele>142</ele>
        <time>2025-08-10T06:43:58.696Z</time>
      </trkpt>
      <trkpt lat="44.1452" lon="0.6148">
        <ele>142</ele>
        <time>2025-08-10T06:43:59.696Z</time>
      </trkpt>
      <trkpt lat="44.14521" lon="0.61481">
        <ele>142</ele>
        <time>2025-08-10T06:44:00.696Z</time>
      </trkpt>
      <trkpt lat="44.14522" lon="0.61482">
        <ele>142</ele>
        <time>2025-08-10T06:44:01.696Z</time>
      </trkpt>
      <trkpt lat="44.14523" lon="0.61483">
        <ele>141</ele>
        <time>2025-08-10T06:44:02.696Z</time>
      </trkpt>
      <trkpt lat="44.14524" lon="0.61485">
        <ele>141</ele>
        <time>2025-08-10T06:44:03.696Z</time>
      </trkpt>
      <trkpt lat="44.14525" lon="0.61486">
        <ele>141</ele>
        <time>2025-08-10T06:44:04.696Z</time>
      </trkpt>
      <trkpt lat="44.14526" lon="0.61487">
        <ele>140</ele>
        <time>2025-08-10T06:44:05.696Z</time>
      </trkpt>
      <trkpt lat="44.14527" lon="0.61488">
        <ele>140</ele>
        <time>2025-08-10T06:44:06.696Z</time>
      </trkpt>
      <trkpt lat="44.14527" lon="0.6149">
        <ele>140</ele>
        <time>2025-08-10T06:44:07.696Z</time>
      </trkpt>
      <trkpt lat="44.14528" lon="0.61491">
        <ele>139</ele>
        <time>2025-08-10T06:44:08.696Z</time>
      </trkpt>
      <trkpt lat="44.14529" lon="0.61492">
        <ele>139</ele>
        <time>2025-08-10T06:44:09.696Z</time>
      </trkpt>
      <trkpt lat="44.14529" lon="0.61494">
        <ele>139</ele>
        <time>2025-08-10T06:44:10.696Z</time>
      </trkpt>
      <trkpt lat="44.1453" lon="0.61495">
        <ele>140</ele>
        <time>2025-08-10T06:44:11.696Z</time>
      </trkpt>
      <trkpt lat="44.14531" lon="0.61497">
        <ele>140</ele>
        <time>2025-08-10T06:44:12.696Z</time>
      </trkpt>
      <trkpt lat="44.14532" lon="0.61498">
        <ele>140</ele>
        <time>2025-08-10T06:44:13.696Z</time>
      </trkpt>
      <trkpt lat="44.14533" lon="0.61499">
        <ele>140</ele>
        <time>2025-08-10T06:44:14.696Z</time>
      </trkpt>
      <trkpt lat="44.14534" lon="0.61501">
        <ele>140</ele>
        <time>2025-08-10T06:44:15.696Z</time>
      </trkpt>
      <trkpt lat="44.14534" lon="0.61502">
        <ele>140</ele>
        <time>2025-08-10T06:44:16.696Z</time>
      </trkpt>
      <trkpt lat="44.14535" lon="0.61503">
        <ele>140</ele>
        <time>2025-08-10T06:44:17.696Z</time>
      </trkpt>
      <trkpt lat="44.14536" lon="0.61505">
        <ele>141</ele>
        <time>2025-08-10T06:44:18.696Z</time>
      </trkpt>
      <trkpt lat="44.14536" lon="0.61506">
        <ele>140</ele>
        <time>2025-08-10T06:44:19.696Z</time>
      </trkpt>
      <trkpt lat="44.14537" lon="0.61507">
        <ele>140</ele>
        <time>2025-08-10T06:44:20.696Z</time>
      </trkpt>
      <trkpt lat="44.14538" lon="0.61509">
        <ele>140</ele>
        <time>2025-08-10T06:44:21.696Z</time>
      </trkpt>
      <trkpt lat="44.14539" lon="0.61511">
        <ele>140</ele>
        <time>2025-08-10T06:44:22.696Z</time>
      </trkpt>
      <trkpt lat="44.1454" lon="0.61512">
        <ele>140</ele>
        <time>2025-08-10T06:44:23.696Z</time>
      </trkpt>
      <trkpt lat="44.14541" lon="0.61514">
        <ele>140</ele>
        <time>2025-08-10T06:44:24.696Z</time>
      </trkpt>
      <trkpt lat="44.14542" lon="0.61515">
        <ele>140</ele>
        <time>2025-08-10T06:44:25.696Z</time>
      </trkpt>
      <trkpt lat="44.14542" lon="0.61517">
        <ele>140</ele>
        <time>2025-08-10T06:44:26.696Z</time>
      </trkpt>
      <trkpt lat="44.14543" lon="0.61518">
        <ele>140</ele>
        <time>2025-08-10T06:44:27.696Z</time>
      </trkpt>
      <trkpt lat="44.14543" lon="0.6152">
        <ele>140</ele>
        <time>2025-08-10T06:44:28.696Z</time>
      </trkpt>
      <trkpt lat="44.14544" lon="0.61521">
        <ele>141</ele>
        <time>2025-08-10T06:44:29.696Z</time>
      </trkpt>
      <trkpt lat="44.14545" lon="0.61522">
        <ele>141</ele>
        <time>2025-08-10T06:44:30.696Z</time>
      </trkpt>
      <trkpt lat="44.14546" lon="0.61523">
        <ele>141</ele>
        <time>2025-08-10T06:44:31.696Z</time>
      </trkpt>
      <trkpt lat="44.14547" lon="0.61525">
        <ele>142</ele>
        <time>2025-08-10T06:44:32.696Z</time>
      </trkpt>
      <trkpt lat="44.14548" lon="0.61526">
        <ele>142</ele>
        <time>2025-08-10T06:44:33.696Z</time>
      </trkpt>
      <trkpt lat="44.14548" lon="0.61528">
        <ele>142</ele>
        <time>2025-08-10T06:44:34.697Z</time>
      </trkpt>
      <trkpt lat="44.14549" lon="0.61529">
        <ele>142</ele>
        <time>2025-08-10T06:44:35.696Z</time>
      </trkpt>
      <trkpt lat="44.14549" lon="0.61531">
        <ele>141</ele>
        <time>2025-08-10T06:44:36.696Z</time>
      </trkpt>
      <trkpt lat="44.1455" lon="0.61532">
        <ele>141</ele>
        <time>2025-08-10T06:44:37.697Z</time>
      </trkpt>
      <trkpt lat="44.1455" lon="0.61534">
        <ele>141</ele>
        <time>2025-08-10T06:44:38.696Z</time>
      </trkpt>
      <trkpt lat="44.14551" lon="0.61535">
        <ele>141</ele>
        <time>2025-08-10T06:44:39.696Z</time>
      </trkpt>
      <trkpt lat="44.14551" lon="0.61537">
        <ele>142</ele>
        <time>2025-08-10T06:44:40.696Z</time>
      </trkpt>
      <trkpt lat="44.14552" lon="0.61539">
        <ele>142</ele>
        <time>2025-08-10T06:44:41.696Z</time>
      </trkpt>
      <trkpt lat="44.14553" lon="0.61541">
        <ele>142</ele>
        <time>2025-08-10T06:44:42.696Z</time>
      </trkpt>
      <trkpt lat="44.14553" lon="0.61542">
        <ele>142</ele>
        <time>2025-08-10T06:44:43.696Z</time>
      </trkpt>
      <trkpt lat="44.14554" lon="0.61543">
        <ele>142</ele>
        <time>2025-08-10T06:44:44.696Z</time>
      </trkpt>
      <trkpt lat="44.14554" lon="0.61545">
        <ele>142</ele>
        <time>2025-08-10T06:44:45.696Z</time>
      </trkpt>
      <trkpt lat="44.14555" lon="0.61547">
        <ele>142</ele>
        <time>2025-08-10T06:44:46.696Z</time>
      </trkpt>
      <trkpt lat="44.14555" lon="0.61548">
        <ele>142</ele>
        <time>2025-08-10T06:44:47.696Z</time>
      </trkpt>
      <trkpt lat="44.14556" lon="0.61549">
        <ele>142</ele>
        <time>2025-08-10T06:44:48.696Z</time>
      </trkpt>
      <trkpt lat="44.14557" lon="0.61551">
        <ele>142</ele>
        <time>2025-08-10T06:44:49.696Z</time>
      </trkpt>
      <trkpt lat="44.14557" lon="0.61553">
        <ele>142</ele>
        <time>2025-08-10T06:44:50.696Z</time>
      </trkpt>
      <trkpt lat="44.14558" lon="0.61555">
        <ele>142</ele>
        <time>2025-08-10T06:44:51.696Z</time>
      </trkpt>
      <trkpt lat="44.14558" lon="0.61556">
        <ele>142</ele>
        <time>2025-08-10T06:44:52.696Z</time>
      </trkpt>
      <trkpt lat="44.14559" lon="0.61558">
        <ele>142</ele>
        <time>2025-08-10T06:44:53.696Z</time>
      </trkpt>
      <trkpt lat="44.14559" lon="0.6156">
        <ele>142</ele>
        <time>2025-08-10T06:44:54.696Z</time>
      </trkpt>
      <trkpt lat="44.1456" lon="0.61561">
        <ele>142</ele>
        <time>2025-08-10T06:44:55.696Z</time>
      </trkpt>
      <trkpt lat="44.14561" lon="0.61563">
        <ele>142</ele>
        <time>2025-08-10T06:44:56.696Z</time>
      </trkpt>
      <trkpt lat="44.14562" lon="0.61564">
        <ele>142</ele>
        <time>2025-08-10T06:44:57.696Z</time>
      </trkpt>
      <trkpt lat="44.14562" lon="0.61566">
        <ele>142</ele>
        <time>2025-08-10T06:44:58.696Z</time>
      </trkpt>
      <trkpt lat="44.14563" lon="0.61567">
        <ele>142</ele>
        <time>2025-08-10T06:44:59.696Z</time>
      </trkpt>
      <trkpt lat="44.14563" lon="0.61568">
        <ele>142</ele>
        <time>2025-08-10T06:45:00.696Z</time>
      </trkpt>
      <trkpt lat="44.14564" lon="0.6157">
        <ele>142</ele>
        <time>2025-08-10T06:45:01.696Z</time>
      </trkpt>
      <trkpt lat="44.14565" lon="0.61571">
        <ele>142</ele>
        <time>2025-08-10T06:45:02.696Z</time>
      </trkpt>
      <trkpt lat="44.14566" lon="0.61573">
        <ele>143</ele>
        <time>2025-08-10T06:45:03.696Z</time>
      </trkpt>
      <trkpt lat="44.14566" lon="0.61574">
        <ele>142</ele>
        <time>2025-08-10T06:45:04.696Z</time>
      </trkpt>
      <trkpt lat="44.14567" lon="0.61576">
        <ele>142</ele>
        <time>2025-08-10T06:45:05.696Z</time>
      </trkpt>
      <trkpt lat="44.14568" lon="0.61577">
        <ele>142</ele>
        <time>2025-08-10T06:45:06.696Z</time>
      </trkpt>
      <trkpt lat="44.14568" lon="0.61579">
        <ele>142</ele>
        <time>2025-08-10T06:45:07.696Z</time>
      </trkpt>
      <trkpt lat="44.14569" lon="0.6158">
        <ele>141</ele>
        <time>2025-08-10T06:45:08.696Z</time>
      </trkpt>
      <trkpt lat="44.14569" lon="0.61581">
        <ele>142</ele>
        <time>2025-08-10T06:45:09.696Z</time>
      </trkpt>
      <trkpt lat="44.1457" lon="0.61583">
        <ele>142</ele>
        <time>2025-08-10T06:45:10.696Z</time>
      </trkpt>
      <trkpt lat="44.14571" lon="0.61584">
        <ele>141</ele>
        <time>2025-08-10T06:45:11.696Z</time>
      </trkpt>
      <trkpt lat="44.14571" lon="0.61585">
        <ele>141</ele>
        <time>2025-08-10T06:45:12.696Z</time>
      </trkpt>
      <trkpt lat="44.14571" lon="0.61586">
        <ele>141</ele>
        <time>2025-08-10T06:45:13.696Z</time>
      </trkpt>
      <trkpt lat="44.14571" lon="0.61587">
        <ele>141</ele>
        <time>2025-08-10T06:45:14.696Z</time>
      </trkpt>
      <trkpt lat="44.14571" lon="0.61588">
        <ele>141</ele>
        <time>2025-08-10T06:45:15.696Z</time>
      </trkpt>
      <trkpt lat="44.14572" lon="0.61589">
        <ele>141</ele>
        <time>2025-08-10T06:45:16.696Z</time>
      </trkpt>
      <trkpt lat="44.14572" lon="0.61589">
        <ele>140</ele>
        <time>2025-08-10T06:45:17.696Z</time>
      </trkpt>
      <trkpt lat="44.14572" lon="0.6159">
        <ele>140</ele>
        <time>2025-08-10T06:45:18.696Z</time>
      </trkpt>
      <trkpt lat="44.14572" lon="0.6159">
        <ele>140</ele>
        <time>2025-08-10T06:45:19.696Z</time>
      </trkpt>
      <trkpt lat="44.14572" lon="0.61591">
        <ele>140</ele>
        <time>2025-08-10T06:45:20.696Z</time>
      </trkpt>
      <trkpt lat="44.14573" lon="0.61592">
        <ele>140</ele>
        <time>2025-08-10T06:45:21.696Z</time>
      </trkpt>
      <trkpt lat="44.14573" lon="0.61592">
        <ele>140</ele>
        <time>2025-08-10T06:45:22.696Z</time>
      </trkpt>
      <trkpt lat="44.14574" lon="0.61593">
        <ele>140</ele>
        <time>2025-08-10T06:45:23.696Z</time>
      </trkpt>
      <trkpt lat="44.14575" lon="0.61594">
        <ele>140</ele>
        <time>2025-08-10T06:45:24.696Z</time>
      </trkpt>
      <trkpt lat="44.14575" lon="0.61595">
        <ele>140</ele>
        <time>2025-08-10T06:45:25.696Z</time>
      </trkpt>
      <trkpt lat="44.14576" lon="0.61597">
        <ele>140</ele>
        <time>2025-08-10T06:45:26.696Z</time>
      </trkpt>
      <trkpt lat="44.14577" lon="0.61598">
        <ele>140</ele>
        <time>2025-08-10T06:45:27.696Z</time>
      </trkpt>
      <trkpt lat="44.14577" lon="0.61599">
        <ele>140</ele>
        <time>2025-08-10T06:45:28.696Z</time>
      </trkpt>
      <trkpt lat="44.14578" lon="0.616">
        <ele>140</ele>
        <time>2025-08-10T06:45:29.696Z</time>
      </trkpt>
      <trkpt lat="44.14578" lon="0.61602">
        <ele>140</ele>
        <time>2025-08-10T06:45:30.696Z</time>
      </trkpt>
      <trkpt lat="44.14578" lon="0.61603">
        <ele>140</ele>
        <time>2025-08-10T06:45:31.696Z</time>
      </trkpt>
      <trkpt lat="44.14579" lon="0.61604">
        <ele>140</ele>
        <time>2025-08-10T06:45:32.696Z</time>
      </trkpt>
      <trkpt lat="44.14579" lon="0.61606">
        <ele>140</ele>
        <time>2025-08-10T06:45:33.696Z</time>
      </trkpt>
      <trkpt lat="44.1458" lon="0.61607">
        <ele>140</ele>
        <time>2025-08-10T06:45:34.696Z</time>
      </trkpt>
      <trkpt lat="44.1458" lon="0.61608">
        <ele>140</ele>
        <time>2025-08-10T06:45:35.696Z</time>
      </trkpt>
      <trkpt lat="44.14581" lon="0.6161">
        <ele>140</ele>
        <time>2025-08-10T06:45:36.696Z</time>
      </trkpt>
      <trkpt lat="44.14581" lon="0.61612">
        <ele>140</ele>
        <time>2025-08-10T06:45:37.696Z</time>
      </trkpt>
      <trkpt lat="44.14582" lon="0.61613">
        <ele>140</ele>
        <time>2025-08-10T06:45:38.696Z</time>
      </trkpt>
      <trkpt lat="44.14582" lon="0.61614">
        <ele>140</ele>
        <time>2025-08-10T06:45:39.696Z</time>
      </trkpt>
      <trkpt lat="44.14583" lon="0.61615">
        <ele>139</ele>
        <time>2025-08-10T06:45:40.696Z</time>
      </trkpt>
      <trkpt lat="44.14583" lon="0.61617">
        <ele>139</ele>
        <time>2025-08-10T06:45:41.696Z</time>
      </trkpt>
      <trkpt lat="44.14584" lon="0.61618">
        <ele>138</ele>
        <time>2025-08-10T06:45:42.696Z</time>
      </trkpt>
      <trkpt lat="44.14584" lon="0.6162">
        <ele>138</ele>
        <time>2025-08-10T06:45:43.697Z</time>
      </trkpt>
      <trkpt lat="44.14585" lon="0.61622">
        <ele>137</ele>
        <time>2025-08-10T06:45:44.696Z</time>
      </trkpt>
      <trkpt lat="44.14586" lon="0.61623">
        <ele>137</ele>
        <time>2025-08-10T06:45:45.696Z</time>
      </trkpt>
      <trkpt lat="44.14586" lon="0.61624">
        <ele>137</ele>
        <time>2025-08-10T06:45:46.696Z</time>
      </trkpt>
      <trkpt lat="44.14587" lon="0.61625">
        <ele>137</ele>
        <time>2025-08-10T06:45:47.696Z</time>
      </trkpt>
      <trkpt lat="44.14587" lon="0.61626">
        <ele>137</ele>
        <time>2025-08-10T06:45:48.696Z</time>
      </trkpt>
      <trkpt lat="44.14587" lon="0.61627">
        <ele>136</ele>
        <time>2025-08-10T06:45:49.696Z</time>
      </trkpt>
      <trkpt lat="44.14589" lon="0.61628">
        <ele>136</ele>
        <time>2025-08-10T06:45:50.696Z</time>
      </trkpt>
      <trkpt lat="44.14589" lon="0.61629">
        <ele>137</ele>
        <time>2025-08-10T06:45:51.696Z</time>
      </trkpt>
      <trkpt lat="44.1459" lon="0.61631">
        <ele>137</ele>
        <time>2025-08-10T06:45:52.696Z</time>
      </trkpt>
      <trkpt lat="44.1459" lon="0.61632">
        <ele>137</ele>
        <time>2025-08-10T06:45:53.696Z</time>
      </trkpt>
      <trkpt lat="44.14591" lon="0.61634">
        <ele>137</ele>
        <time>2025-08-10T06:45:54.696Z</time>
      </trkpt>
      <trkpt lat="44.14591" lon="0.61635">
        <ele>137</ele>
        <time>2025-08-10T06:45:55.696Z</time>
      </trkpt>
      <trkpt lat="44.14592" lon="0.61636">
        <ele>138</ele>
        <time>2025-08-10T06:45:56.696Z</time>
      </trkpt>
      <trkpt lat="44.14592" lon="0.61637">
        <ele>138</ele>
        <time>2025-08-10T06:45:57.696Z</time>
      </trkpt>
      <trkpt lat="44.14592" lon="0.61638">
        <ele>138</ele>
        <time>2025-08-10T06:45:58.696Z</time>
      </trkpt>
      <trkpt lat="44.14593" lon="0.6164">
        <ele>138</ele>
        <time>2025-08-10T06:45:59.696Z</time>
      </trkpt>
      <trkpt lat="44.14593" lon="0.61641">
        <ele>138</ele>
        <time>2025-08-10T06:46:00.696Z</time>
      </trkpt>
      <trkpt lat="44.14594" lon="0.61643">
        <ele>138</ele>
        <time>2025-08-10T06:46:01.696Z</time>
      </trkpt>
      <trkpt lat="44.14595" lon="0.61644">
        <ele>138</ele>
        <time>2025-08-10T06:46:02.696Z</time>
      </trkpt>
      <trkpt lat="44.14596" lon="0.61645">
        <ele>138</ele>
        <time>2025-08-10T06:46:03.696Z</time>
      </trkpt>
      <trkpt lat="44.14597" lon="0.61646">
        <ele>138</ele>
        <time>2025-08-10T06:46:04.696Z</time>
      </trkpt>
      <trkpt lat="44.14597" lon="0.61647">
        <ele>138</ele>
        <time>2025-08-10T06:46:05.696Z</time>
      </trkpt>
      <trkpt lat="44.14598" lon="0.61649">
        <ele>138</ele>
        <time>2025-08-10T06:46:06.696Z</time>
      </trkpt>
      <trkpt lat="44.14598" lon="0.6165">
        <ele>138</ele>
        <time>2025-08-10T06:46:07.696Z</time>
      </trkpt>
      <trkpt lat="44.14599" lon="0.61651">
        <ele>138</ele>
        <time>2025-08-10T06:46:08.696Z</time>
      </trkpt>
      <trkpt lat="44.146" lon="0.61652">
        <ele>138</ele>
        <time>2025-08-10T06:46:09.696Z</time>
      </trkpt>
      <trkpt lat="44.146" lon="0.61654">
        <ele>138</ele>
        <time>2025-08-10T06:46:10.696Z</time>
      </trkpt>
      <trkpt lat="44.14601" lon="0.61655">
        <ele>138</ele>
        <time>2025-08-10T06:46:11.696Z</time>
      </trkpt>
      <trkpt lat="44.14601" lon="0.61657">
        <ele>138</ele>
        <time>2025-08-10T06:46:12.696Z</time>
      </trkpt>
      <trkpt lat="44.14602" lon="0.61658">
        <ele>138</ele>
        <time>2025-08-10T06:46:13.696Z</time>
      </trkpt>
      <trkpt lat="44.14602" lon="0.6166">
        <ele>138</ele>
        <time>2025-08-10T06:46:14.696Z</time>
      </trkpt>
      <trkpt lat="44.14602" lon="0.61661">
        <ele>138</ele>
        <time>2025-08-10T06:46:15.696Z</time>
      </trkpt>
      <trkpt lat="44.14602" lon="0.61663">
        <ele>138</ele>
        <time>2025-08-10T06:46:16.696Z</time>
      </trkpt>
      <trkpt lat="44.14603" lon="0.61664">
        <ele>138</ele>
        <time>2025-08-10T06:46:17.696Z</time>
      </trkpt>
      <trkpt lat="44.14604" lon="0.61665">
        <ele>138</ele>
        <time>2025-08-10T06:46:18.696Z</time>
      </trkpt>
      <trkpt lat="44.14604" lon="0.61667">
        <ele>138</ele>
        <time>2025-08-10T06:46:19.696Z</time>
      </trkpt>
      <trkpt lat="44.14605" lon="0.61668">
        <ele>138</ele>
        <time>2025-08-10T06:46:20.696Z</time>
      </trkpt>
      <trkpt lat="44.14606" lon="0.61669">
        <ele>137</ele>
        <time>2025-08-10T06:46:21.696Z</time>
      </trkpt>
      <trkpt lat="44.14606" lon="0.6167">
        <ele>137</ele>
        <time>2025-08-10T06:46:22.696Z</time>
      </trkpt>
      <trkpt lat="44.14606" lon="0.61672">
        <ele>137</ele>
        <time>2025-08-10T06:46:23.696Z</time>
      </trkpt>
      <trkpt lat="44.14607" lon="0.61673">
        <ele>136</ele>
        <time>2025-08-10T06:46:24.696Z</time>
      </trkpt>
      <trkpt lat="44.14607" lon="0.61674">
        <ele>136</ele>
        <time>2025-08-10T06:46:25.696Z</time>
      </trkpt>
      <trkpt lat="44.14607" lon="0.61674">
        <ele>136</ele>
        <time>2025-08-10T06:46:26.696Z</time>
      </trkpt>
      <trkpt lat="44.14607" lon="0.61676">
        <ele>136</ele>
        <time>2025-08-10T06:46:27.696Z</time>
      </trkpt>
      <trkpt lat="44.14607" lon="0.61677">
        <ele>136</ele>
        <time>2025-08-10T06:46:28.696Z</time>
      </trkpt>
      <trkpt lat="44.14608" lon="0.61678">
        <ele>136</ele>
        <time>2025-08-10T06:46:29.696Z</time>
      </trkpt>
      <trkpt lat="44.14608" lon="0.61679">
        <ele>136</ele>
        <time>2025-08-10T06:46:30.696Z</time>
      </trkpt>
      <trkpt lat="44.14608" lon="0.61679">
        <ele>136</ele>
        <time>2025-08-10T06:46:31.696Z</time>
      </trkpt>
      <trkpt lat="44.14609" lon="0.6168">
        <ele>136</ele>
        <time>2025-08-10T06:46:32.696Z</time>
      </trkpt>
      <trkpt lat="44.14609" lon="0.61681">
        <ele>136</ele>
        <time>2025-08-10T06:46:33.696Z</time>
      </trkpt>
      <trkpt lat="44.1461" lon="0.61682">
        <ele>136</ele>
        <time>2025-08-10T06:46:34.696Z</time>
      </trkpt>
      <trkpt lat="44.1461" lon="0.61684">
        <ele>136</ele>
        <time>2025-08-10T06:46:35.696Z</time>
      </trkpt>
      <trkpt lat="44.1461" lon="0.61685">
        <ele>135</ele>
        <time>2025-08-10T06:46:36.696Z</time>
      </trkpt>
      <trkpt lat="44.1461" lon="0.61686">
        <ele>135</ele>
        <time>2025-08-10T06:46:37.696Z</time>
      </trkpt>
      <trkpt lat="44.14611" lon="0.61687">
        <ele>134</ele>
        <time>2025-08-10T06:46:38.696Z</time>
      </trkpt>
      <trkpt lat="44.14612" lon="0.61688">
        <ele>134</ele>
        <time>2025-08-10T06:46:39.696Z</time>
      </trkpt>
      <trkpt lat="44.14612" lon="0.61689">
        <ele>134</ele>
        <time>2025-08-10T06:46:40.696Z</time>
      </trkpt>
      <trkpt lat="44.14613" lon="0.61691">
        <ele>134</ele>
        <time>2025-08-10T06:46:41.696Z</time>
      </trkpt>
      <trkpt lat="44.14613" lon="0.61692">
        <ele>133</ele>
        <time>2025-08-10T06:46:42.696Z</time>
      </trkpt>
      <trkpt lat="44.14614" lon="0.61693">
        <ele>133</ele>
        <time>2025-08-10T06:46:43.696Z</time>
      </trkpt>
      <trkpt lat="44.14615" lon="0.61694">
        <ele>133</ele>
        <time>2025-08-10T06:46:44.696Z</time>
      </trkpt>
      <trkpt lat="44.14615" lon="0.61696">
        <ele>133</ele>
        <time>2025-08-10T06:46:45.696Z</time>
      </trkpt>
      <trkpt lat="44.14615" lon="0.61697">
        <ele>132</ele>
        <time>2025-08-10T06:46:46.696Z</time>
      </trkpt>
      <trkpt lat="44.14616" lon="0.61698">
        <ele>132</ele>
        <time>2025-08-10T06:46:47.696Z</time>
      </trkpt>
      <trkpt lat="44.14616" lon="0.61699">
        <ele>132</ele>
        <time>2025-08-10T06:46:48.696Z</time>
      </trkpt>
      <trkpt lat="44.14617" lon="0.617">
        <ele>132</ele>
        <time>2025-08-10T06:46:49.696Z</time>
      </trkpt>
      <trkpt lat="44.14618" lon="0.61701">
        <ele>132</ele>
        <time>2025-08-10T06:46:50.696Z</time>
      </trkpt>
      <trkpt lat="44.14618" lon="0.61702">
        <ele>131</ele>
        <time>2025-08-10T06:46:51.696Z</time>
      </trkpt>
      <trkpt lat="44.14619" lon="0.61704">
        <ele>131</ele>
        <time>2025-08-10T06:46:52.696Z</time>
      </trkpt>
      <trkpt lat="44.14619" lon="0.61705">
        <ele>131</ele>
        <time>2025-08-10T06:46:53.696Z</time>
      </trkpt>
      <trkpt lat="44.1462" lon="0.61706">
        <ele>131</ele>
        <time>2025-08-10T06:46:54.696Z</time>
      </trkpt>
      <trkpt lat="44.1462" lon="0.61707">
        <ele>131</ele>
        <time>2025-08-10T06:46:55.696Z</time>
      </trkpt>
      <trkpt lat="44.1462" lon="0.61708">
        <ele>131</ele>
        <time>2025-08-10T06:46:56.696Z</time>
      </trkpt>
      <trkpt lat="44.14621" lon="0.6171">
        <ele>131</ele>
        <time>2025-08-10T06:46:57.696Z</time>
      </trkpt>
      <trkpt lat="44.14621" lon="0.61711">
        <ele>131</ele>
        <time>2025-08-10T06:46:58.696Z</time>
      </trkpt>
      <trkpt lat="44.14622" lon="0.61712">
        <ele>131</ele>
        <time>2025-08-10T06:46:59.696Z</time>
      </trkpt>
      <trkpt lat="44.14623" lon="0.61714">
        <ele>131</ele>
        <time>2025-08-10T06:47:00.696Z</time>
      </trkpt>
      <trkpt lat="44.14623" lon="0.61715">
        <ele>131</ele>
        <time>2025-08-10T06:47:01.696Z</time>
      </trkpt>
      <trkpt lat="44.14623" lon="0.61716">
        <ele>131</ele>
        <time>2025-08-10T06:47:02.696Z</time>
      </trkpt>
      <trkpt lat="44.14624" lon="0.61718">
        <ele>130</ele>
        <time>2025-08-10T06:47:03.696Z</time>
      </trkpt>
      <trkpt lat="44.14624" lon="0.61719">
        <ele>130</ele>
        <time>2025-08-10T06:47:04.696Z</time>
      </trkpt>
      <trkpt lat="44.14624" lon="0.6172">
        <ele>130</ele>
        <time>2025-08-10T06:47:05.696Z</time>
      </trkpt>
      <trkpt lat="44.14625" lon="0.61721">
        <ele>129</ele>
        <time>2025-08-10T06:47:06.696Z</time>
      </trkpt>
      <trkpt lat="44.14625" lon="0.61723">
        <ele>129</ele>
        <time>2025-08-10T06:47:07.696Z</time>
      </trkpt>
      <trkpt lat="44.14626" lon="0.61724">
        <ele>129</ele>
        <time>2025-08-10T06:47:08.696Z</time>
      </trkpt>
      <trkpt lat="44.14627" lon="0.61725">
        <ele>129</ele>
        <time>2025-08-10T06:47:09.696Z</time>
      </trkpt>
      <trkpt lat="44.14627" lon="0.61727">
        <ele>129</ele>
        <time>2025-08-10T06:47:10.696Z</time>
      </trkpt>
      <trkpt lat="44.14628" lon="0.61727">
        <ele>129</ele>
        <time>2025-08-10T06:47:11.696Z</time>
      </trkpt>
      <trkpt lat="44.14628" lon="0.61728">
        <ele>129</ele>
        <time>2025-08-10T06:47:12.696Z</time>
      </trkpt>
      <trkpt lat="44.14629" lon="0.61729">
        <ele>129</ele>
        <time>2025-08-10T06:47:13.696Z</time>
      </trkpt>
      <trkpt lat="44.14629" lon="0.6173">
        <ele>129</ele>
        <time>2025-08-10T06:47:14.696Z</time>
      </trkpt>
      <trkpt lat="44.1463" lon="0.61731">
        <ele>129</ele>
        <time>2025-08-10T06:47:15.696Z</time>
      </trkpt>
      <trkpt lat="44.1463" lon="0.61732">
        <ele>129</ele>
        <time>2025-08-10T06:47:16.696Z</time>
      </trkpt>
      <trkpt lat="44.1463" lon="0.61733">
        <ele>129</ele>
        <time>2025-08-10T06:47:17.696Z</time>
      </trkpt>
      <trkpt lat="44.14631" lon="0.61734">
        <ele>129</ele>
        <time>2025-08-10T06:47:18.696Z</time>
      </trkpt>
      <trkpt lat="44.14631" lon="0.61735">
        <ele>129</ele>
        <time>2025-08-10T06:47:19.696Z</time>
      </trkpt>
      <trkpt lat="44.14632" lon="0.61736">
        <ele>129</ele>
        <time>2025-08-10T06:47:20.696Z</time>
      </trkpt>
      <trkpt lat="44.14633" lon="0.61737">
        <ele>129</ele>
        <time>2025-08-10T06:47:21.696Z</time>
      </trkpt>
      <trkpt lat="44.14633" lon="0.61738">
        <ele>129</ele>
        <time>2025-08-10T06:47:22.696Z</time>
      </trkpt>
      <trkpt lat="44.14634" lon="0.61739">
        <ele>129</ele>
        <time>2025-08-10T06:47:23.696Z</time>
      </trkpt>
      <trkpt lat="44.14634" lon="0.6174">
        <ele>129</ele>
        <time>2025-08-10T06:47:24.696Z</time>
      </trkpt>
      <trkpt lat="44.14634" lon="0.61741">
        <ele>129</ele>
        <time>2025-08-10T06:47:25.696Z</time>
      </trkpt>
      <trkpt lat="44.14635" lon="0.61742">
        <ele>128</ele>
        <time>2025-08-10T06:47:26.696Z</time>
      </trkpt>
      <trkpt lat="44.14635" lon="0.61744">
        <ele>128</ele>
        <time>2025-08-10T06:47:27.696Z</time>
      </trkpt>
      <trkpt lat="44.14636" lon="0.61745">
        <ele>128</ele>
        <time>2025-08-10T06:47:28.696Z</time>
      </trkpt>
      <trkpt lat="44.14637" lon="0.61747">
        <ele>128</ele>
        <time>2025-08-10T06:47:29.696Z</time>
      </trkpt>
      <trkpt lat="44.14637" lon="0.61748">
        <ele>127</ele>
        <time>2025-08-10T06:47:30.696Z</time>
      </trkpt>
      <trkpt lat="44.14638" lon="0.61749">
        <ele>127</ele>
        <time>2025-08-10T06:47:31.696Z</time>
      </trkpt>
      <trkpt lat="44.14638" lon="0.6175">
        <ele>127</ele>
        <time>2025-08-10T06:47:32.696Z</time>
      </trkpt>
      <trkpt lat="44.14638" lon="0.61751">
        <ele>127</ele>
        <time>2025-08-10T06:47:33.696Z</time>
      </trkpt>
      <trkpt lat="44.14639" lon="0.61752">
        <ele>127</ele>
        <time>2025-08-10T06:47:34.696Z</time>
      </trkpt>
      <trkpt lat="44.14639" lon="0.61754">
        <ele>127</ele>
        <time>2025-08-10T06:47:35.696Z</time>
      </trkpt>
      <trkpt lat="44.1464" lon="0.61755">
        <ele>127</ele>
        <time>2025-08-10T06:47:36.696Z</time>
      </trkpt>
      <trkpt lat="44.1464" lon="0.61756">
        <ele>127</ele>
        <time>2025-08-10T06:47:37.696Z</time>
      </trkpt>
      <trkpt lat="44.14641" lon="0.61757">
        <ele>127</ele>
        <time>2025-08-10T06:47:38.696Z</time>
      </trkpt>
      <trkpt lat="44.14641" lon="0.61758">
        <ele>127</ele>
        <time>2025-08-10T06:47:39.696Z</time>
      </trkpt>
      <trkpt lat="44.14642" lon="0.61759">
        <ele>127</ele>
        <time>2025-08-10T06:47:40.696Z</time>
      </trkpt>
      <trkpt lat="44.14642" lon="0.6176">
        <ele>126</ele>
        <time>2025-08-10T06:47:41.696Z</time>
      </trkpt>
      <trkpt lat="44.14642" lon="0.61761">
        <ele>126</ele>
        <time>2025-08-10T06:47:42.696Z</time>
      </trkpt>
      <trkpt lat="44.14643" lon="0.61763">
        <ele>126</ele>
        <time>2025-08-10T06:47:43.696Z</time>
      </trkpt>
      <trkpt lat="44.14643" lon="0.61763">
        <ele>126</ele>
        <time>2025-08-10T06:47:44.696Z</time>
      </trkpt>
      <trkpt lat="44.14643" lon="0.61765">
        <ele>126</ele>
        <time>2025-08-10T06:47:45.696Z</time>
      </trkpt>
      <trkpt lat="44.14644" lon="0.61766">
        <ele>126</ele>
        <time>2025-08-10T06:47:46.696Z</time>
      </trkpt>
      <trkpt lat="44.14644" lon="0.61767">
        <ele>125</ele>
        <time>2025-08-10T06:47:47.696Z</time>
      </trkpt>
      <trkpt lat="44.14645" lon="0.61768">
        <ele>125</ele>
        <time>2025-08-10T06:47:48.696Z</time>
      </trkpt>
      <trkpt lat="44.14646" lon="0.6177">
        <ele>125</ele>
        <time>2025-08-10T06:47:49.696Z</time>
      </trkpt>
      <trkpt lat="44.14646" lon="0.61771">
        <ele>125</ele>
        <time>2025-08-10T06:47:50.696Z</time>
      </trkpt>
      <trkpt lat="44.14647" lon="0.61772">
        <ele>125</ele>
        <time>2025-08-10T06:47:51.696Z</time>
      </trkpt>
      <trkpt lat="44.14648" lon="0.61773">
        <ele>124</ele>
        <time>2025-08-10T06:47:52.696Z</time>
      </trkpt>
      <trkpt lat="44.14648" lon="0.61774">
        <ele>124</ele>
        <time>2025-08-10T06:47:53.696Z</time>
      </trkpt>
      <trkpt lat="44.14649" lon="0.61775">
        <ele>124</ele>
        <time>2025-08-10T06:47:54.696Z</time>
      </trkpt>
      <trkpt lat="44.14649" lon="0.61776">
        <ele>124</ele>
        <time>2025-08-10T06:47:55.696Z</time>
      </trkpt>
      <trkpt lat="44.1465" lon="0.61778">
        <ele>123</ele>
        <time>2025-08-10T06:47:56.696Z</time>
      </trkpt>
      <trkpt lat="44.1465" lon="0.61779">
        <ele>123</ele>
        <time>2025-08-10T06:47:57.696Z</time>
      </trkpt>
      <trkpt lat="44.14651" lon="0.6178">
        <ele>123</ele>
        <time>2025-08-10T06:47:58.696Z</time>
      </trkpt>
      <trkpt lat="44.14651" lon="0.61781">
        <ele>123</ele>
        <time>2025-08-10T06:47:59.696Z</time>
      </trkpt>
      <trkpt lat="44.14652" lon="0.61783">
        <ele>123</ele>
        <time>2025-08-10T06:48:00.696Z</time>
      </trkpt>
      <trkpt lat="44.14653" lon="0.61784">
        <ele>123</ele>
        <time>2025-08-10T06:48:01.696Z</time>
      </trkpt>
      <trkpt lat="44.14653" lon="0.61785">
        <ele>123</ele>
        <time>2025-08-10T06:48:02.696Z</time>
      </trkpt>
      <trkpt lat="44.14654" lon="0.61786">
        <ele>122</ele>
        <time>2025-08-10T06:48:03.697Z</time>
      </trkpt>
      <trkpt lat="44.14654" lon="0.61787">
        <ele>122</ele>
        <time>2025-08-10T06:48:04.696Z</time>
      </trkpt>
      <trkpt lat="44.14655" lon="0.61788">
        <ele>122</ele>
        <time>2025-08-10T06:48:05.696Z</time>
      </trkpt>
      <trkpt lat="44.14655" lon="0.61789">
        <ele>121</ele>
        <time>2025-08-10T06:48:06.696Z</time>
      </trkpt>
      <trkpt lat="44.14656" lon="0.61791">
        <ele>121</ele>
        <time>2025-08-10T06:48:07.696Z</time>
      </trkpt>
      <trkpt lat="44.14657" lon="0.61792">
        <ele>120</ele>
        <time>2025-08-10T06:48:08.696Z</time>
      </trkpt>
      <trkpt lat="44.14657" lon="0.61793">
        <ele>120</ele>
        <time>2025-08-10T06:48:09.696Z</time>
      </trkpt>
      <trkpt lat="44.14658" lon="0.61794">
        <ele>120</ele>
        <time>2025-08-10T06:48:10.696Z</time>
      </trkpt>
      <trkpt lat="44.14658" lon="0.61796">
        <ele>120</ele>
        <time>2025-08-10T06:48:11.696Z</time>
      </trkpt>
      <trkpt lat="44.14659" lon="0.61797">
        <ele>120</ele>
        <time>2025-08-10T06:48:12.696Z</time>
      </trkpt>
      <trkpt lat="44.14659" lon="0.61798">
        <ele>119</ele>
        <time>2025-08-10T06:48:13.696Z</time>
      </trkpt>
      <trkpt lat="44.14659" lon="0.61799">
        <ele>119</ele>
        <time>2025-08-10T06:48:14.696Z</time>
      </trkpt>
      <trkpt lat="44.1466" lon="0.618">
        <ele>119</ele>
        <time>2025-08-10T06:48:15.696Z</time>
      </trkpt>
      <trkpt lat="44.1466" lon="0.61802">
        <ele>119</ele>
        <time>2025-08-10T06:48:16.696Z</time>
      </trkpt>
      <trkpt lat="44.14661" lon="0.61803">
        <ele>119</ele>
        <time>2025-08-10T06:48:17.696Z</time>
      </trkpt>
      <trkpt lat="44.14662" lon="0.61804">
        <ele>119</ele>
        <time>2025-08-10T06:48:18.696Z</time>
      </trkpt>
      <trkpt lat="44.14662" lon="0.61805">
        <ele>119</ele>
        <time>2025-08-10T06:48:19.696Z</time>
      </trkpt>
      <trkpt lat="44.14663" lon="0.61806">
        <ele>119</ele>
        <time>2025-08-10T06:48:20.696Z</time>
      </trkpt>
      <trkpt lat="44.14664" lon="0.61807">
        <ele>119</ele>
        <time>2025-08-10T06:48:21.696Z</time>
      </trkpt>
      <trkpt lat="44.14665" lon="0.61808">
        <ele>119</ele>
        <time>2025-08-10T06:48:22.696Z</time>
      </trkpt>
      <trkpt lat="44.14666" lon="0.61809">
        <ele>120</ele>
        <time>2025-08-10T06:48:23.696Z</time>
      </trkpt>
      <trkpt lat="44.14666" lon="0.6181">
        <ele>120</ele>
        <time>2025-08-10T06:48:24.696Z</time>
      </trkpt>
      <trkpt lat="44.14666" lon="0.61811">
        <ele>120</ele>
        <time>2025-08-10T06:48:25.696Z</time>
      </trkpt>
      <trkpt lat="44.14667" lon="0.61812">
        <ele>120</ele>
        <time>2025-08-10T06:48:26.696Z</time>
      </trkpt>
      <trkpt lat="44.14667" lon="0.61813">
        <ele>119</ele>
        <time>2025-08-10T06:48:27.696Z</time>
      </trkpt>
      <trkpt lat="44.14668" lon="0.61815">
        <ele>119</ele>
        <time>2025-08-10T06:48:28.696Z</time>
      </trkpt>
      <trkpt lat="44.14669" lon="0.61815">
        <ele>119</ele>
        <time>2025-08-10T06:48:29.696Z</time>
      </trkpt>
      <trkpt lat="44.1467" lon="0.61816">
        <ele>119</ele>
        <time>2025-08-10T06:48:30.696Z</time>
      </trkpt>
      <trkpt lat="44.14671" lon="0.61816">
        <ele>119</ele>
        <time>2025-08-10T06:48:31.696Z</time>
      </trkpt>
      <trkpt lat="44.14672" lon="0.61817">
        <ele>118</ele>
        <time>2025-08-10T06:48:32.696Z</time>
      </trkpt>
      <trkpt lat="44.14672" lon="0.61819">
        <ele>118</ele>
        <time>2025-08-10T06:48:33.696Z</time>
      </trkpt>
      <trkpt lat="44.14673" lon="0.61819">
        <ele>118</ele>
        <time>2025-08-10T06:48:34.696Z</time>
      </trkpt>
      <trkpt lat="44.14674" lon="0.6182">
        <ele>118</ele>
        <time>2025-08-10T06:48:35.696Z</time>
      </trkpt>
      <trkpt lat="44.14674" lon="0.61821">
        <ele>118</ele>
        <time>2025-08-10T06:48:36.696Z</time>
      </trkpt>
      <trkpt lat="44.14675" lon="0.61822">
        <ele>118</ele>
        <time>2025-08-10T06:48:37.696Z</time>
      </trkpt>
      <trkpt lat="44.14675" lon="0.61823">
        <ele>117</ele>
        <time>2025-08-10T06:48:38.696Z</time>
      </trkpt>
      <trkpt lat="44.14675" lon="0.61825">
        <ele>117</ele>
        <time>2025-08-10T06:48:39.696Z</time>
      </trkpt>
      <trkpt lat="44.14676" lon="0.61825">
        <ele>117</ele>
        <time>2025-08-10T06:48:40.696Z</time>
      </trkpt>
      <trkpt lat="44.14676" lon="0.61826">
        <ele>117</ele>
        <time>2025-08-10T06:48:41.696Z</time>
      </trkpt>
      <trkpt lat="44.14677" lon="0.61828">
        <ele>117</ele>
        <time>2025-08-10T06:48:42.696Z</time>
      </trkpt>
      <trkpt lat="44.14678" lon="0.61829">
        <ele>117</ele>
        <time>2025-08-10T06:48:43.696Z</time>
      </trkpt>
      <trkpt lat="44.14678" lon="0.6183">
        <ele>117</ele>
        <time>2025-08-10T06:48:44.696Z</time>
      </trkpt>
      <trkpt lat="44.14679" lon="0.61831">
        <ele>117</ele>
        <time>2025-08-10T06:48:45.696Z</time>
      </trkpt>
      <trkpt lat="44.1468" lon="0.61832">
        <ele>117</ele>
        <time>2025-08-10T06:48:46.696Z</time>
      </trkpt>
      <trkpt lat="44.1468" lon="0.61834">
        <ele>117</ele>
        <time>2025-08-10T06:48:47.696Z</time>
      </trkpt>
      <trkpt lat="44.14681" lon="0.61835">
        <ele>116</ele>
        <time>2025-08-10T06:48:48.696Z</time>
      </trkpt>
      <trkpt lat="44.14682" lon="0.61836">
        <ele>116</ele>
        <time>2025-08-10T06:48:49.696Z</time>
      </trkpt>
      <trkpt lat="44.14682" lon="0.61837">
        <ele>116</ele>
        <time>2025-08-10T06:48:50.696Z</time>
      </trkpt>
      <trkpt lat="44.14683" lon="0.61838">
        <ele>115</ele>
        <time>2025-08-10T06:48:51.696Z</time>
      </trkpt>
      <trkpt lat="44.14684" lon="0.61839">
        <ele>115</ele>
        <time>2025-08-10T06:48:52.696Z</time>
      </trkpt>
      <trkpt lat="44.14684" lon="0.6184">
        <ele>115</ele>
        <time>2025-08-10T06:48:53.696Z</time>
      </trkpt>
      <trkpt lat="44.14685" lon="0.61841">
        <ele>115</ele>
        <time>2025-08-10T06:48:54.696Z</time>
      </trkpt>
      <trkpt lat="44.14685" lon="0.61842">
        <ele>115</ele>
        <time>2025-08-10T06:48:55.696Z</time>
      </trkpt>
      <trkpt lat="44.14686" lon="0.61843">
        <ele>115</ele>
        <time>2025-08-10T06:48:56.696Z</time>
      </trkpt>
      <trkpt lat="44.14686" lon="0.61844">
        <ele>116</ele>
        <time>2025-08-10T06:48:57.696Z</time>
      </trkpt>
      <trkpt lat="44.14687" lon="0.61845">
        <ele>116</ele>
        <time>2025-08-10T06:48:58.696Z</time>
      </trkpt>
      <trkpt lat="44.14688" lon="0.61845">
        <ele>116</ele>
        <time>2025-08-10T06:48:59.696Z</time>
      </trkpt>
      <trkpt lat="44.14688" lon="0.61846">
        <ele>117</ele>
        <time>2025-08-10T06:49:00.696Z</time>
      </trkpt>
      <trkpt lat="44.14689" lon="0.61847">
        <ele>117</ele>
        <time>2025-08-10T06:49:01.696Z</time>
      </trkpt>
      <trkpt lat="44.14689" lon="0.61847">
        <ele>117</ele>
        <time>2025-08-10T06:49:02.696Z</time>
      </trkpt>
      <trkpt lat="44.1469" lon="0.61848">
        <ele>118</ele>
        <time>2025-08-10T06:49:03.696Z</time>
      </trkpt>
      <trkpt lat="44.14691" lon="0.61848">
        <ele>118</ele>
        <time>2025-08-10T06:49:04.696Z</time>
      </trkpt>
      <trkpt lat="44.14691" lon="0.61849">
        <ele>118</ele>
        <time>2025-08-10T06:49:05.696Z</time>
      </trkpt>
      <trkpt lat="44.14692" lon="0.6185">
        <ele>118</ele>
        <time>2025-08-10T06:49:06.696Z</time>
      </trkpt>
      <trkpt lat="44.14692" lon="0.61851">
        <ele>118</ele>
        <time>2025-08-10T06:49:07.697Z</time>
      </trkpt>
      <trkpt lat="44.14692" lon="0.61851">
        <ele>118</ele>
        <time>2025-08-10T06:49:08.696Z</time>
      </trkpt>
      <trkpt lat="44.14693" lon="0.61853">
        <ele>118</ele>
        <time>2025-08-10T06:49:09.696Z</time>
      </trkpt>
      <trkpt lat="44.14694" lon="0.61854">
        <ele>118</ele>
        <time>2025-08-10T06:49:10.696Z</time>
      </trkpt>
      <trkpt lat="44.14694" lon="0.61855">
        <ele>117</ele>
        <time>2025-08-10T06:49:11.696Z</time>
      </trkpt>
      <trkpt lat="44.14695" lon="0.61856">
        <ele>117</ele>
        <time>2025-08-10T06:49:12.696Z</time>
      </trkpt>
      <trkpt lat="44.14696" lon="0.61857">
        <ele>116</ele>
        <time>2025-08-10T06:49:13.696Z</time>
      </trkpt>
      <trkpt lat="44.14696" lon="0.61858">
        <ele>116</ele>
        <time>2025-08-10T06:49:14.696Z</time>
      </trkpt>
      <trkpt lat="44.14697" lon="0.61859">
        <ele>115</ele>
        <time>2025-08-10T06:49:15.696Z</time>
      </trkpt>
      <trkpt lat="44.14698" lon="0.6186">
        <ele>115</ele>
        <time>2025-08-10T06:49:16.696Z</time>
      </trkpt>
      <trkpt lat="44.14698" lon="0.6186">
        <ele>115</ele>
        <time>2025-08-10T06:49:17.696Z</time>
      </trkpt>
      <trkpt lat="44.14699" lon="0.61861">
        <ele>114</ele>
        <time>2025-08-10T06:49:18.696Z</time>
      </trkpt>
      <trkpt lat="44.14699" lon="0.61862">
        <ele>114</ele>
        <time>2025-08-10T06:49:19.696Z</time>
      </trkpt>
      <trkpt lat="44.147" lon="0.61863">
        <ele>114</ele>
        <time>2025-08-10T06:49:20.696Z</time>
      </trkpt>
      <trkpt lat="44.147" lon="0.61863">
        <ele>114</ele>
        <time>2025-08-10T06:49:21.696Z</time>
      </trkpt>
      <trkpt lat="44.14701" lon="0.61864">
        <ele>113</ele>
        <time>2025-08-10T06:49:22.696Z</time>
      </trkpt>
      <trkpt lat="44.14702" lon="0.61865">
        <ele>113</ele>
        <time>2025-08-10T06:49:23.696Z</time>
      </trkpt>
      <trkpt lat="44.14702" lon="0.61866">
        <ele>113</ele>
        <time>2025-08-10T06:49:24.696Z</time>
      </trkpt>
      <trkpt lat="44.14702" lon="0.61867">
        <ele>112</ele>
        <time>2025-08-10T06:49:25.696Z</time>
      </trkpt>
      <trkpt lat="44.14703" lon="0.61868">
        <ele>112</ele>
        <time>2025-08-10T06:49:26.696Z</time>
      </trkpt>
      <trkpt lat="44.14703" lon="0.61868">
        <ele>112</ele>
        <time>2025-08-10T06:49:27.696Z</time>
      </trkpt>
      <trkpt lat="44.14704" lon="0.61869">
        <ele>112</ele>
        <time>2025-08-10T06:49:28.696Z</time>
      </trkpt>
      <trkpt lat="44.14704" lon="0.6187">
        <ele>112</ele>
        <time>2025-08-10T06:49:29.696Z</time>
      </trkpt>
      <trkpt lat="44.14705" lon="0.6187">
        <ele>112</ele>
        <time>2025-08-10T06:49:30.696Z</time>
      </trkpt>
      <trkpt lat="44.14706" lon="0.61871">
        <ele>112</ele>
        <time>2025-08-10T06:49:31.696Z</time>
      </trkpt>
      <trkpt lat="44.14706" lon="0.61872">
        <ele>112</ele>
        <time>2025-08-10T06:49:32.696Z</time>
      </trkpt>
      <trkpt lat="44.14707" lon="0.61872">
        <ele>112</ele>
        <time>2025-08-10T06:49:33.696Z</time>
      </trkpt>
      <trkpt lat="44.14707" lon="0.61873">
        <ele>112</ele>
        <time>2025-08-10T06:49:34.696Z</time>
      </trkpt>
      <trkpt lat="44.14708" lon="0.61874">
        <ele>111</ele>
        <time>2025-08-10T06:49:35.696Z</time>
      </trkpt>
      <trkpt lat="44.14708" lon="0.61874">
        <ele>111</ele>
        <time>2025-08-10T06:49:36.696Z</time>
      </trkpt>
      <trkpt lat="44.14708" lon="0.61875">
        <ele>111</ele>
        <time>2025-08-10T06:49:37.696Z</time>
      </trkpt>
      <trkpt lat="44.14709" lon="0.61876">
        <ele>111</ele>
        <time>2025-08-10T06:49:38.696Z</time>
      </trkpt>
      <trkpt lat="44.14709" lon="0.61877">
        <ele>110</ele>
        <time>2025-08-10T06:49:39.696Z</time>
      </trkpt>
      <trkpt lat="44.1471" lon="0.61878">
        <ele>110</ele>
        <time>2025-08-10T06:49:40.696Z</time>
      </trkpt>
      <trkpt lat="44.1471" lon="0.61879">
        <ele>110</ele>
        <time>2025-08-10T06:49:41.696Z</time>
      </trkpt>
      <trkpt lat="44.1471" lon="0.6188">
        <ele>110</ele>
        <time>2025-08-10T06:49:42.696Z</time>
      </trkpt>
      <trkpt lat="44.14711" lon="0.61881">
        <ele>110</ele>
        <time>2025-08-10T06:49:43.696Z</time>
      </trkpt>
      <trkpt lat="44.14711" lon="0.61882">
        <ele>110</ele>
        <time>2025-08-10T06:49:44.696Z</time>
      </trkpt>
      <trkpt lat="44.14711" lon="0.61882">
        <ele>110</ele>
        <time>2025-08-10T06:49:45.696Z</time>
      </trkpt>
      <trkpt lat="44.14712" lon="0.61883">
        <ele>111</ele>
        <time>2025-08-10T06:49:46.696Z</time>
      </trkpt>
      <trkpt lat="44.14712" lon="0.61884">
        <ele>111</ele>
        <time>2025-08-10T06:49:47.696Z</time>
      </trkpt>
      <trkpt lat="44.14713" lon="0.61885">
        <ele>111</ele>
        <time>2025-08-10T06:49:48.696Z</time>
      </trkpt>
      <trkpt lat="44.14713" lon="0.61886">
        <ele>111</ele>
        <time>2025-08-10T06:49:49.696Z</time>
      </trkpt>
      <trkpt lat="44.14713" lon="0.61887">
        <ele>111</ele>
        <time>2025-08-10T06:49:50.696Z</time>
      </trkpt>
      <trkpt lat="44.14714" lon="0.61888">
        <ele>111</ele>
        <time>2025-08-10T06:49:51.696Z</time>
      </trkpt>
      <trkpt lat="44.14714" lon="0.61889">
        <ele>111</ele>
        <time>2025-08-10T06:49:52.696Z</time>
      </trkpt>
      <trkpt lat="44.14715" lon="0.61889">
        <ele>111</ele>
        <time>2025-08-10T06:49:53.696Z</time>
      </trkpt>
      <trkpt lat="44.14715" lon="0.6189">
        <ele>111</ele>
        <time>2025-08-10T06:49:54.696Z</time>
      </trkpt>
      <trkpt lat="44.14715" lon="0.61891">
        <ele>111</ele>
        <time>2025-08-10T06:49:55.696Z</time>
      </trkpt>
      <trkpt lat="44.14715" lon="0.61891">
        <ele>110</ele>
        <time>2025-08-10T06:49:56.696Z</time>
      </trkpt>
      <trkpt lat="44.14715" lon="0.61891">
        <ele>109</ele>
        <time>2025-08-10T06:49:57.696Z</time>
      </trkpt>
      <trkpt lat="44.14715" lon="0.61891">
        <ele>109</ele>
        <time>2025-08-10T06:49:58.696Z</time>
      </trkpt>
      <trkpt lat="44.14715" lon="0.61891">
        <ele>109</ele>
        <time>2025-08-10T06:49:59.696Z</time>
      </trkpt>
      <trkpt lat="44.14715" lon="0.61891">
        <ele>109</ele>
        <time>2025-08-10T06:50:00.696Z</time>
      </trkpt>
      <trkpt lat="44.14715" lon="0.61891">
        <ele>108</ele>
        <time>2025-08-10T06:50:01.696Z</time>
      </trkpt>
      <trkpt lat="44.14715" lon="0.61891">
        <ele>108</ele>
        <time>2025-08-10T06:50:02.696Z</time>
      </trkpt>
      <trkpt lat="44.14715" lon="0.61891">
        <ele>107</ele>
        <time>2025-08-10T06:50:03.696Z</time>
      </trkpt>
      <trkpt lat="44.14715" lon="0.61891">
        <ele>106</ele>
        <time>2025-08-10T06:50:04.696Z</time>
      </trkpt>
      <trkpt lat="44.14715" lon="0.61891">
        <ele>106</ele>
        <time>2025-08-10T06:50:05.696Z</time>
      </trkpt>
      <trkpt lat="44.14715" lon="0.61891">
        <ele>106</ele>
        <time>2025-08-10T06:50:06.696Z</time>
      </trkpt>
      <trkpt lat="44.14715" lon="0.61891">
        <ele>107</ele>
        <time>2025-08-10T06:50:07.696Z</time>
      </trkpt>
      <trkpt lat="44.14715" lon="0.61891">
        <ele>107</ele>
        <time>2025-08-10T06:50:08.696Z</time>
      </trkpt>
      <trkpt lat="44.14715" lon="0.61891">
        <ele>108</ele>
        <time>2025-08-10T06:50:09.696Z</time>
      </trkpt>
      <trkpt lat="44.14715" lon="0.61891">
        <ele>109</ele>
        <time>2025-08-10T06:50:10.696Z</time>
      </trkpt>
      <trkpt lat="44.14715" lon="0.61891">
        <ele>110</ele>
        <time>2025-08-10T06:50:11.696Z</time>
      </trkpt>
      <trkpt lat="44.14715" lon="0.61891">
        <ele>111</ele>
        <time>2025-08-10T06:50:12.696Z</time>
      </trkpt>
      <trkpt lat="44.14715" lon="0.61891">
        <ele>112</ele>
        <time>2025-08-10T06:50:13.696Z</time>
      </trkpt>
      <trkpt lat="44.14715" lon="0.61891">
        <ele>113</ele>
        <time>2025-08-10T06:50:14.696Z</time>
      </trkpt>
      <trkpt lat="44.14715" lon="0.61891">
        <ele>114</ele>
        <time>2025-08-10T06:50:15.697Z</time>
      </trkpt>
      <trkpt lat="44.14715" lon="0.61891">
        <ele>115</ele>
        <time>2025-08-10T06:50:16.697Z</time>
      </trkpt>
      <trkpt lat="44.14715" lon="0.61892">
        <ele>116</ele>
        <time>2025-08-10T06:50:17.696Z</time>
      </trkpt>
      <trkpt lat="44.14715" lon="0.61893">
        <ele>116</ele>
        <time>2025-08-10T06:50:18.696Z</time>
      </trkpt>
      <trkpt lat="44.14715" lon="0.61893">
        <ele>116</ele>
        <time>2025-08-10T06:50:19.696Z</time>
      </trkpt>
      <trkpt lat="44.14715" lon="0.61894">
        <ele>117</ele>
        <time>2025-08-10T06:50:20.696Z</time>
      </trkpt>
      <trkpt lat="44.14716" lon="0.61895">
        <ele>116</ele>
        <time>2025-08-10T06:50:21.696Z</time>
      </trkpt>
      <trkpt lat="44.14716" lon="0.61896">
        <ele>116</ele>
        <time>2025-08-10T06:50:22.696Z</time>
      </trkpt>
      <trkpt lat="44.14717" lon="0.61897">
        <ele>116</ele>
        <time>2025-08-10T06:50:23.696Z</time>
      </trkpt>
      <trkpt lat="44.14717" lon="0.61899">
        <ele>116</ele>
        <time>2025-08-10T06:50:24.696Z</time>
      </trkpt>
      <trkpt lat="44.14718" lon="0.619">
        <ele>115</ele>
        <time>2025-08-10T06:50:25.696Z</time>
      </trkpt>
      <trkpt lat="44.14718" lon="0.619">
        <ele>115</ele>
        <time>2025-08-10T06:50:26.696Z</time>
      </trkpt>
      <trkpt lat="44.14719" lon="0.61901">
        <ele>115</ele>
        <time>2025-08-10T06:50:27.696Z</time>
      </trkpt>
      <trkpt lat="44.14719" lon="0.61902">
        <ele>114</ele>
        <time>2025-08-10T06:50:28.696Z</time>
      </trkpt>
      <trkpt lat="44.14719" lon="0.61903">
        <ele>113</ele>
        <time>2025-08-10T06:50:29.696Z</time>
      </trkpt>
      <trkpt lat="44.1472" lon="0.61904">
        <ele>113</ele>
        <time>2025-08-10T06:50:30.696Z</time>
      </trkpt>
      <trkpt lat="44.14721" lon="0.61905">
        <ele>112</ele>
        <time>2025-08-10T06:50:31.696Z</time>
      </trkpt>
      <trkpt lat="44.14722" lon="0.61906">
        <ele>112</ele>
        <time>2025-08-10T06:50:32.696Z</time>
      </trkpt>
      <trkpt lat="44.14722" lon="0.61906">
        <ele>112</ele>
        <time>2025-08-10T06:50:33.696Z</time>
      </trkpt>
      <trkpt lat="44.14723" lon="0.61907">
        <ele>111</ele>
        <time>2025-08-10T06:50:34.696Z</time>
      </trkpt>
      <trkpt lat="44.14724" lon="0.61907">
        <ele>111</ele>
        <time>2025-08-10T06:50:35.696Z</time>
      </trkpt>
      <trkpt lat="44.14724" lon="0.61908">
        <ele>111</ele>
        <time>2025-08-10T06:50:36.696Z</time>
      </trkpt>
      <trkpt lat="44.14725" lon="0.61908">
        <ele>110</ele>
        <time>2025-08-10T06:50:37.696Z</time>
      </trkpt>
      <trkpt lat="44.14726" lon="0.61909">
        <ele>110</ele>
        <time>2025-08-10T06:50:38.696Z</time>
      </trkpt>
      <trkpt lat="44.14726" lon="0.61909">
        <ele>110</ele>
        <time>2025-08-10T06:50:39.696Z</time>
      </trkpt>
      <trkpt lat="44.14727" lon="0.6191">
        <ele>109</ele>
        <time>2025-08-10T06:50:40.696Z</time>
      </trkpt>
      <trkpt lat="44.14727" lon="0.61911">
        <ele>109</ele>
        <time>2025-08-10T06:50:41.696Z</time>
      </trkpt>
      <trkpt lat="44.14728" lon="0.61911">
        <ele>108</ele>
        <time>2025-08-10T06:50:42.696Z</time>
      </trkpt>
      <trkpt lat="44.1473" lon="0.61912">
        <ele>108</ele>
        <time>2025-08-10T06:50:43.696Z</time>
      </trkpt>
      <trkpt lat="44.1473" lon="0.61912">
        <ele>108</ele>
        <time>2025-08-10T06:50:44.696Z</time>
      </trkpt>
      <trkpt lat="44.14731" lon="0.61913">
        <ele>108</ele>
        <time>2025-08-10T06:50:45.696Z</time>
      </trkpt>
      <trkpt lat="44.14732" lon="0.61914">
        <ele>107</ele>
        <time>2025-08-10T06:50:46.696Z</time>
      </trkpt>
      <trkpt lat="44.14732" lon="0.61915">
        <ele>107</ele>
        <time>2025-08-10T06:50:47.696Z</time>
      </trkpt>
      <trkpt lat="44.14732" lon="0.61916">
        <ele>107</ele>
        <time>2025-08-10T06:50:48.696Z</time>
      </trkpt>
      <trkpt lat="44.14733" lon="0.61917">
        <ele>106</ele>
        <time>2025-08-10T06:50:49.696Z</time>
      </trkpt>
      <trkpt lat="44.14733" lon="0.61917">
        <ele>106</ele>
        <time>2025-08-10T06:50:50.696Z</time>
      </trkpt>
      <trkpt lat="44.14732" lon="0.61918">
        <ele>105</ele>
        <time>2025-08-10T06:50:51.696Z</time>
      </trkpt>
      <trkpt lat="44.14732" lon="0.61919">
        <ele>105</ele>
        <time>2025-08-10T06:50:52.696Z</time>
      </trkpt>
      <trkpt lat="44.14733" lon="0.6192">
        <ele>104</ele>
        <time>2025-08-10T06:50:53.696Z</time>
      </trkpt>
      <trkpt lat="44.14733" lon="0.61922">
        <ele>103</ele>
        <time>2025-08-10T06:50:54.696Z</time>
      </trkpt>
      <trkpt lat="44.14733" lon="0.61923">
        <ele>103</ele>
        <time>2025-08-10T06:50:55.696Z</time>
      </trkpt>
      <trkpt lat="44.14734" lon="0.61923">
        <ele>103</ele>
        <time>2025-08-10T06:50:56.696Z</time>
      </trkpt>
      <trkpt lat="44.14733" lon="0.61924">
        <ele>102</ele>
        <time>2025-08-10T06:50:57.696Z</time>
      </trkpt>
      <trkpt lat="44.14734" lon="0.61925">
        <ele>102</ele>
        <time>2025-08-10T06:50:58.696Z</time>
      </trkpt>
      <trkpt lat="44.14733" lon="0.61927">
        <ele>101</ele>
        <time>2025-08-10T06:50:59.696Z</time>
      </trkpt>
      <trkpt lat="44.14733" lon="0.61928">
        <ele>101</ele>
        <time>2025-08-10T06:51:00.696Z</time>
      </trkpt>
      <trkpt lat="44.14734" lon="0.61929">
        <ele>101</ele>
        <time>2025-08-10T06:51:01.696Z</time>
      </trkpt>
      <trkpt lat="44.14734" lon="0.6193">
        <ele>101</ele>
        <time>2025-08-10T06:51:02.696Z</time>
      </trkpt>
      <trkpt lat="44.14735" lon="0.61931">
        <ele>100</ele>
        <time>2025-08-10T06:51:03.696Z</time>
      </trkpt>
      <trkpt lat="44.14735" lon="0.61933">
        <ele>100</ele>
        <time>2025-08-10T06:51:04.696Z</time>
      </trkpt>
      <trkpt lat="44.14735" lon="0.61934">
        <ele>100</ele>
        <time>2025-08-10T06:51:05.696Z</time>
      </trkpt>
      <trkpt lat="44.14734" lon="0.61935">
        <ele>99</ele>
        <time>2025-08-10T06:51:06.696Z</time>
      </trkpt>
      <trkpt lat="44.14734" lon="0.61936">
        <ele>99</ele>
        <time>2025-08-10T06:51:07.696Z</time>
      </trkpt>
      <trkpt lat="44.14734" lon="0.61937">
        <ele>99</ele>
        <time>2025-08-10T06:51:08.696Z</time>
      </trkpt>
      <trkpt lat="44.14734" lon="0.61938">
        <ele>98</ele>
        <time>2025-08-10T06:51:09.696Z</time>
      </trkpt>
      <trkpt lat="44.14734" lon="0.61938">
        <ele>98</ele>
        <time>2025-08-10T06:51:10.696Z</time>
      </trkpt>
      <trkpt lat="44.14734" lon="0.61938">
        <ele>98</ele>
        <time>2025-08-10T06:51:11.696Z</time>
      </trkpt>
      <trkpt lat="44.14734" lon="0.61939">
        <ele>98</ele>
        <time>2025-08-10T06:51:12.696Z</time>
      </trkpt>
      <trkpt lat="44.14734" lon="0.61939">
        <ele>98</ele>
        <time>2025-08-10T06:51:13.696Z</time>
      </trkpt>
      <trkpt lat="44.14733" lon="0.61939">
        <ele>98</ele>
        <time>2025-08-10T06:51:14.696Z</time>
      </trkpt>
      <trkpt lat="44.14733" lon="0.61939">
        <ele>97</ele>
        <time>2025-08-10T06:51:15.696Z</time>
      </trkpt>
      <trkpt lat="44.14733" lon="0.61939">
        <ele>97</ele>
        <time>2025-08-10T06:51:16.696Z</time>
      </trkpt>
      <trkpt lat="44.14733" lon="0.61939">
        <ele>97</ele>
        <time>2025-08-10T06:51:17.696Z</time>
      </trkpt>
      <trkpt lat="44.14733" lon="0.61939">
        <ele>97</ele>
        <time>2025-08-10T06:51:18.696Z</time>
      </trkpt>
      <trkpt lat="44.14733" lon="0.61939">
        <ele>97</ele>
        <time>2025-08-10T06:51:19.696Z</time>
      </trkpt>
      <trkpt lat="44.14733" lon="0.61939">
        <ele>97</ele>
        <time>2025-08-10T06:51:20.696Z</time>
      </trkpt>
      <trkpt lat="44.14733" lon="0.61939">
        <ele>98</ele>
        <time>2025-08-10T06:51:21.697Z</time>
      </trkpt>
      <trkpt lat="44.14733" lon="0.61939">
        <ele>98</ele>
        <time>2025-08-10T06:51:22.696Z</time>
      </trkpt>
      <trkpt lat="44.14733" lon="0.61939">
        <ele>98</ele>
        <time>2025-08-10T06:51:23.696Z</time>
      </trkpt>
      <trkpt lat="44.14733" lon="0.61939">
        <ele>98</ele>
        <time>2025-08-10T06:51:24.696Z</time>
      </trkpt>
      <trkpt lat="44.14733" lon="0.61939">
        <ele>99</ele>
        <time>2025-08-10T06:51:25.696Z</time>
      </trkpt>
      <trkpt lat="44.14733" lon="0.61939">
        <ele>99</ele>
        <time>2025-08-10T06:51:26.696Z</time>
      </trkpt>
      <trkpt lat="44.14733" lon="0.61939">
        <ele>99</ele>
        <time>2025-08-10T06:51:27.696Z</time>
      </trkpt>
      <trkpt lat="44.14733" lon="0.61939">
        <ele>99</ele>
        <time>2025-08-10T06:51:28.696Z</time>
      </trkpt>
      <trkpt lat="44.14734" lon="0.61939">
        <ele>99</ele>
        <time>2025-08-10T06:51:29.696Z</time>
      </trkpt>
      <trkpt lat="44.14735" lon="0.6194">
        <ele>99</ele>
        <time>2025-08-10T06:51:30.696Z</time>
      </trkpt>
      <trkpt lat="44.14735" lon="0.6194">
        <ele>100</ele>
        <time>2025-08-10T06:51:31.696Z</time>
      </trkpt>
      <trkpt lat="44.14736" lon="0.61941">
        <ele>99</ele>
        <time>2025-08-10T06:51:32.696Z</time>
      </trkpt>
      <trkpt lat="44.14736" lon="0.61942">
        <ele>99</ele>
        <time>2025-08-10T06:51:33.696Z</time>
      </trkpt>
      <trkpt lat="44.14736" lon="0.61943">
        <ele>99</ele>
        <time>2025-08-10T06:51:34.696Z</time>
      </trkpt>
      <trkpt lat="44.14736" lon="0.61943">
        <ele>99</ele>
        <time>2025-08-10T06:51:35.696Z</time>
      </trkpt>
      <trkpt lat="44.14736" lon="0.61943">
        <ele>99</ele>
        <time>2025-08-10T06:51:36.696Z</time>
      </trkpt>
      <trkpt lat="44.14736" lon="0.61943">
        <ele>100</ele>
        <time>2025-08-10T06:51:37.696Z</time>
      </trkpt>
      <trkpt lat="44.14736" lon="0.61943">
        <ele>100</ele>
        <time>2025-08-10T06:51:38.696Z</time>
      </trkpt>
      <trkpt lat="44.14736" lon="0.61943">
        <ele>101</ele>
        <time>2025-08-10T06:51:39.696Z</time>
      </trkpt>
      <trkpt lat="44.14736" lon="0.61944">
        <ele>101</ele>
        <time>2025-08-10T06:51:40.696Z</time>
      </trkpt>
      <trkpt lat="44.14736" lon="0.61944">
        <ele>101</ele>
        <time>2025-08-10T06:51:41.696Z</time>
      </trkpt>
      <trkpt lat="44.14737" lon="0.61945">
        <ele>101</ele>
        <time>2025-08-10T06:51:42.696Z</time>
      </trkpt>
      <trkpt lat="44.14737" lon="0.61946">
        <ele>100</ele>
        <time>2025-08-10T06:51:43.696Z</time>
      </trkpt>
      <trkpt lat="44.14737" lon="0.61947">
        <ele>100</ele>
        <time>2025-08-10T06:51:44.696Z</time>
      </trkpt>
      <trkpt lat="44.14738" lon="0.61948">
        <ele>99</ele>
        <time>2025-08-10T06:51:45.696Z</time>
      </trkpt>
      <trkpt lat="44.14738" lon="0.61949">
        <ele>99</ele>
        <time>2025-08-10T06:51:46.696Z</time>
      </trkpt>
      <trkpt lat="44.14737" lon="0.6195">
        <ele>98</ele>
        <time>2025-08-10T06:51:47.696Z</time>
      </trkpt>
      <trkpt lat="44.14737" lon="0.6195">
        <ele>98</ele>
        <time>2025-08-10T06:51:48.696Z</time>
      </trkpt>
      <trkpt lat="44.14738" lon="0.6195">
        <ele>98</ele>
        <time>2025-08-10T06:51:49.696Z</time>
      </trkpt>
      <trkpt lat="44.14738" lon="0.61951">
        <ele>98</ele>
        <time>2025-08-10T06:51:50.696Z</time>
      </trkpt>
      <trkpt lat="44.14738" lon="0.61952">
        <ele>97</ele>
        <time>2025-08-10T06:51:51.696Z</time>
      </trkpt>
      <trkpt lat="44.14739" lon="0.61953">
        <ele>97</ele>
        <time>2025-08-10T06:51:52.696Z</time>
      </trkpt>
      <trkpt lat="44.14739" lon="0.61955">
        <ele>96</ele>
        <time>2025-08-10T06:51:53.696Z</time>
      </trkpt>
      <trkpt lat="44.14739" lon="0.61956">
        <ele>96</ele>
        <time>2025-08-10T06:51:54.696Z</time>
      </trkpt>
      <trkpt lat="44.1474" lon="0.61958">
        <ele>96</ele>
        <time>2025-08-10T06:51:55.696Z</time>
      </trkpt>
      <trkpt lat="44.1474" lon="0.61959">
        <ele>96</ele>
        <time>2025-08-10T06:51:56.696Z</time>
      </trkpt>
      <trkpt lat="44.14741" lon="0.61961">
        <ele>96</ele>
        <time>2025-08-10T06:51:57.696Z</time>
      </trkpt>
      <trkpt lat="44.14741" lon="0.61963">
        <ele>96</ele>
        <time>2025-08-10T06:51:58.696Z</time>
      </trkpt>
      <trkpt lat="44.14741" lon="0.61964">
        <ele>95</ele>
        <time>2025-08-10T06:51:59.696Z</time>
      </trkpt>
      <trkpt lat="44.14742" lon="0.61966">
        <ele>95</ele>
        <time>2025-08-10T06:52:00.696Z</time>
      </trkpt>
      <trkpt lat="44.14742" lon="0.61967">
        <ele>94</ele>
        <time>2025-08-10T06:52:01.696Z</time>
      </trkpt>
      <trkpt lat="44.14743" lon="0.61969">
        <ele>94</ele>
        <time>2025-08-10T06:52:02.696Z</time>
      </trkpt>
      <trkpt lat="44.14743" lon="0.6197">
        <ele>94</ele>
        <time>2025-08-10T06:52:03.696Z</time>
      </trkpt>
      <trkpt lat="44.14743" lon="0.61972">
        <ele>93</ele>
        <time>2025-08-10T06:52:04.696Z</time>
      </trkpt>
      <trkpt lat="44.14744" lon="0.61974">
        <ele>93</ele>
        <time>2025-08-10T06:52:05.696Z</time>
      </trkpt>
      <trkpt lat="44.14744" lon="0.61975">
        <ele>92</ele>
        <time>2025-08-10T06:52:06.696Z</time>
      </trkpt>
      <trkpt lat="44.14744" lon="0.61977">
        <ele>92</ele>
        <time>2025-08-10T06:52:07.696Z</time>
      </trkpt>
      <trkpt lat="44.14745" lon="0.61978">
        <ele>92</ele>
        <time>2025-08-10T06:52:08.696Z</time>
      </trkpt>
      <trkpt lat="44.14745" lon="0.6198">
        <ele>92</ele>
        <time>2025-08-10T06:52:09.696Z</time>
      </trkpt>
      <trkpt lat="44.14745" lon="0.61982">
        <ele>92</ele>
        <time>2025-08-10T06:52:10.696Z</time>
      </trkpt>
      <trkpt lat="44.14746" lon="0.61983">
        <ele>92</ele>
        <time>2025-08-10T06:52:11.696Z</time>
      </trkpt>
      <trkpt lat="44.14746" lon="0.61985">
        <ele>91</ele>
        <time>2025-08-10T06:52:12.696Z</time>
      </trkpt>
      <trkpt lat="44.14747" lon="0.61987">
        <ele>91</ele>
        <time>2025-08-10T06:52:13.696Z</time>
      </trkpt>
      <trkpt lat="44.14747" lon="0.61988">
        <ele>91</ele>
        <time>2025-08-10T06:52:14.696Z</time>
      </trkpt>
      <trkpt lat="44.14748" lon="0.6199">
        <ele>90</ele>
        <time>2025-08-10T06:52:15.696Z</time>
      </trkpt>
      <trkpt lat="44.14748" lon="0.61992">
        <ele>90</ele>
        <time>2025-08-10T06:52:16.696Z</time>
      </trkpt>
      <trkpt lat="44.14749" lon="0.61993">
        <ele>90</ele>
        <time>2025-08-10T06:52:17.696Z</time>
      </trkpt>
      <trkpt lat="44.14749" lon="0.61995">
        <ele>89</ele>
        <time>2025-08-10T06:52:18.696Z</time>
      </trkpt>
      <trkpt lat="44.1475" lon="0.61996">
        <ele>89</ele>
        <time>2025-08-10T06:52:19.696Z</time>
      </trkpt>
      <trkpt lat="44.1475" lon="0.61998">
        <ele>89</ele>
        <time>2025-08-10T06:52:20.696Z</time>
      </trkpt>
      <trkpt lat="44.14751" lon="0.61999">
        <ele>89</ele>
        <time>2025-08-10T06:52:21.696Z</time>
      </trkpt>
      <trkpt lat="44.14751" lon="0.62001">
        <ele>89</ele>
        <time>2025-08-10T06:52:22.696Z</time>
      </trkpt>
      <trkpt lat="44.14752" lon="0.62002">
        <ele>89</ele>
        <time>2025-08-10T06:52:23.696Z</time>
      </trkpt>
      <trkpt lat="44.14752" lon="0.62004">
        <ele>89</ele>
        <time>2025-08-10T06:52:24.696Z</time>
      </trkpt>
      <trkpt lat="44.14752" lon="0.62006">
        <ele>88</ele>
        <time>2025-08-10T06:52:25.696Z</time>
      </trkpt>
      <trkpt lat="44.14753" lon="0.62008">
        <ele>88</ele>
        <time>2025-08-10T06:52:26.696Z</time>
      </trkpt>
      <trkpt lat="44.14753" lon="0.62009">
        <ele>88</ele>
        <time>2025-08-10T06:52:27.696Z</time>
      </trkpt>
      <trkpt lat="44.14754" lon="0.62011">
        <ele>87</ele>
        <time>2025-08-10T06:52:28.696Z</time>
      </trkpt>
      <trkpt lat="44.14754" lon="0.62013">
        <ele>87</ele>
        <time>2025-08-10T06:52:29.696Z</time>
      </trkpt>
      <trkpt lat="44.14755" lon="0.62015">
        <ele>87</ele>
        <time>2025-08-10T06:52:30.696Z</time>
      </trkpt>
      <trkpt lat="44.14755" lon="0.62016">
        <ele>87</ele>
        <time>2025-08-10T06:52:31.696Z</time>
      </trkpt>
      <trkpt lat="44.14756" lon="0.62018">
        <ele>87</ele>
        <time>2025-08-10T06:52:32.696Z</time>
      </trkpt>
      <trkpt lat="44.14756" lon="0.6202">
        <ele>87</ele>
        <time>2025-08-10T06:52:33.696Z</time>
      </trkpt>
      <trkpt lat="44.14757" lon="0.62021">
        <ele>87</ele>
        <time>2025-08-10T06:52:34.696Z</time>
      </trkpt>
      <trkpt lat="44.14757" lon="0.62023">
        <ele>87</ele>
        <time>2025-08-10T06:52:35.696Z</time>
      </trkpt>
      <trkpt lat="44.14758" lon="0.62024">
        <ele>87</ele>
        <time>2025-08-10T06:52:36.696Z</time>
      </trkpt>
      <trkpt lat="44.14759" lon="0.62026">
        <ele>87</ele>
        <time>2025-08-10T06:52:37.696Z</time>
      </trkpt>
      <trkpt lat="44.14759" lon="0.62027">
        <ele>87</ele>
        <time>2025-08-10T06:52:38.696Z</time>
      </trkpt>
      <trkpt lat="44.14759" lon="0.62029">
        <ele>87</ele>
        <time>2025-08-10T06:52:39.696Z</time>
      </trkpt>
      <trkpt lat="44.1476" lon="0.6203">
        <ele>87</ele>
        <time>2025-08-10T06:52:40.696Z</time>
      </trkpt>
      <trkpt lat="44.1476" lon="0.62032">
        <ele>86</ele>
        <time>2025-08-10T06:52:41.696Z</time>
      </trkpt>
      <trkpt lat="44.1476" lon="0.62034">
        <ele>86</ele>
        <time>2025-08-10T06:52:42.696Z</time>
      </trkpt>
      <trkpt lat="44.1476" lon="0.62035">
        <ele>86</ele>
        <time>2025-08-10T06:52:43.696Z</time>
      </trkpt>
      <trkpt lat="44.1476" lon="0.62037">
        <ele>86</ele>
        <time>2025-08-10T06:52:44.696Z</time>
      </trkpt>
      <trkpt lat="44.14761" lon="0.62039">
        <ele>86</ele>
        <time>2025-08-10T06:52:45.696Z</time>
      </trkpt>
      <trkpt lat="44.14761" lon="0.62041">
        <ele>86</ele>
        <time>2025-08-10T06:52:46.696Z</time>
      </trkpt>
      <trkpt lat="44.14762" lon="0.62043">
        <ele>86</ele>
        <time>2025-08-10T06:52:47.696Z</time>
      </trkpt>
      <trkpt lat="44.14762" lon="0.62044">
        <ele>86</ele>
        <time>2025-08-10T06:52:48.696Z</time>
      </trkpt>
      <trkpt lat="44.14762" lon="0.62045">
        <ele>86</ele>
        <time>2025-08-10T06:52:49.696Z</time>
      </trkpt>
      <trkpt lat="44.14762" lon="0.62047">
        <ele>85</ele>
        <time>2025-08-10T06:52:50.696Z</time>
      </trkpt>
      <trkpt lat="44.14762" lon="0.62048">
        <ele>85</ele>
        <time>2025-08-10T06:52:51.696Z</time>
      </trkpt>
      <trkpt lat="44.14763" lon="0.6205">
        <ele>85</ele>
        <time>2025-08-10T06:52:52.696Z</time>
      </trkpt>
      <trkpt lat="44.14763" lon="0.62052">
        <ele>85</ele>
        <time>2025-08-10T06:52:53.696Z</time>
      </trkpt>
      <trkpt lat="44.14763" lon="0.62053">
        <ele>85</ele>
        <time>2025-08-10T06:52:54.696Z</time>
      </trkpt>
      <trkpt lat="44.14763" lon="0.62055">
        <ele>85</ele>
        <time>2025-08-10T06:52:55.696Z</time>
      </trkpt>
      <trkpt lat="44.14764" lon="0.62057">
        <ele>85</ele>
        <time>2025-08-10T06:52:56.696Z</time>
      </trkpt>
      <trkpt lat="44.14765" lon="0.62058">
        <ele>85</ele>
        <time>2025-08-10T06:52:57.696Z</time>
      </trkpt>
      <trkpt lat="44.14766" lon="0.62059">
        <ele>85</ele>
        <time>2025-08-10T06:52:58.696Z</time>
      </trkpt>
      <trkpt lat="44.14767" lon="0.6206">
        <ele>85</ele>
        <time>2025-08-10T06:52:59.696Z</time>
      </trkpt>
      <trkpt lat="44.14768" lon="0.6206">
        <ele>85</ele>
        <time>2025-08-10T06:53:00.697Z</time>
      </trkpt>
      <trkpt lat="44.14769" lon="0.6206">
        <ele>85</ele>
        <time>2025-08-10T06:53:01.696Z</time>
      </trkpt>
      <trkpt lat="44.1477" lon="0.62061">
        <ele>85</ele>
        <time>2025-08-10T06:53:02.696Z</time>
      </trkpt>
      <trkpt lat="44.14771" lon="0.62061">
        <ele>84</ele>
        <time>2025-08-10T06:53:03.696Z</time>
      </trkpt>
      <trkpt lat="44.14772" lon="0.62061">
        <ele>84</ele>
        <time>2025-08-10T06:53:04.696Z</time>
      </trkpt>
      <trkpt lat="44.14773" lon="0.62061">
        <ele>84</ele>
        <time>2025-08-10T06:53:05.696Z</time>
      </trkpt>
      <trkpt lat="44.14774" lon="0.62061">
        <ele>84</ele>
        <time>2025-08-10T06:53:06.696Z</time>
      </trkpt>
      <trkpt lat="44.14776" lon="0.62061">
        <ele>84</ele>
        <time>2025-08-10T06:53:07.696Z</time>
      </trkpt>
      <trkpt lat="44.14777" lon="0.62061">
        <ele>84</ele>
        <time>2025-08-10T06:53:08.696Z</time>
      </trkpt>
      <trkpt lat="44.14778" lon="0.62061">
        <ele>84</ele>
        <time>2025-08-10T06:53:09.696Z</time>
      </trkpt>
      <trkpt lat="44.14779" lon="0.6206">
        <ele>83</ele>
        <time>2025-08-10T06:53:10.696Z</time>
      </trkpt>
      <trkpt lat="44.14781" lon="0.6206">
        <ele>83</ele>
        <time>2025-08-10T06:53:11.696Z</time>
      </trkpt>
      <trkpt lat="44.14782" lon="0.6206">
        <ele>83</ele>
        <time>2025-08-10T06:53:12.696Z</time>
      </trkpt>
      <trkpt lat="44.14783" lon="0.62059">
        <ele>83</ele>
        <time>2025-08-10T06:53:13.696Z</time>
      </trkpt>
      <trkpt lat="44.14784" lon="0.62059">
        <ele>82</ele>
        <time>2025-08-10T06:53:14.696Z</time>
      </trkpt>
      <trkpt lat="44.14785" lon="0.62058">
        <ele>82</ele>
        <time>2025-08-10T06:53:15.696Z</time>
      </trkpt>
      <trkpt lat="44.14786" lon="0.62058">
        <ele>82</ele>
        <time>2025-08-10T06:53:16.696Z</time>
      </trkpt>
      <trkpt lat="44.14787" lon="0.62057">
        <ele>82</ele>
        <time>2025-08-10T06:53:17.696Z</time>
      </trkpt>
      <trkpt lat="44.14788" lon="0.62056">
        <ele>82</ele>
        <time>2025-08-10T06:53:18.696Z</time>
      </trkpt>
      <trkpt lat="44.14789" lon="0.62056">
        <ele>82</ele>
        <time>2025-08-10T06:53:19.696Z</time>
      </trkpt>
      <trkpt lat="44.1479" lon="0.62055">
        <ele>81</ele>
        <time>2025-08-10T06:53:20.696Z</time>
      </trkpt>
      <trkpt lat="44.14791" lon="0.62055">
        <ele>81</ele>
        <time>2025-08-10T06:53:21.696Z</time>
      </trkpt>
      <trkpt lat="44.14792" lon="0.62055">
        <ele>81</ele>
        <time>2025-08-10T06:53:22.697Z</time>
      </trkpt>
      <trkpt lat="44.14793" lon="0.62054">
        <ele>81</ele>
        <time>2025-08-10T06:53:23.696Z</time>
      </trkpt>
      <trkpt lat="44.14794" lon="0.62054">
        <ele>81</ele>
        <time>2025-08-10T06:53:24.696Z</time>
      </trkpt>
      <trkpt lat="44.14795" lon="0.62054">
        <ele>81</ele>
        <time>2025-08-10T06:53:25.696Z</time>
      </trkpt>
      <trkpt lat="44.14796" lon="0.62054">
        <ele>81</ele>
        <time>2025-08-10T06:53:26.696Z</time>
      </trkpt>
      <trkpt lat="44.14797" lon="0.62053">
        <ele>82</ele>
        <time>2025-08-10T06:53:27.696Z</time>
      </trkpt>
      <trkpt lat="44.14798" lon="0.62053">
        <ele>82</ele>
        <time>2025-08-10T06:53:28.696Z</time>
      </trkpt>
      <trkpt lat="44.14799" lon="0.62052">
        <ele>82</ele>
        <time>2025-08-10T06:53:29.696Z</time>
      </trkpt>
      <trkpt lat="44.148" lon="0.62052">
        <ele>82</ele>
        <time>2025-08-10T06:53:30.696Z</time>
      </trkpt>
      <trkpt lat="44.14801" lon="0.62051">
        <ele>82</ele>
        <time>2025-08-10T06:53:31.696Z</time>
      </trkpt>
      <trkpt lat="44.14802" lon="0.62051">
        <ele>82</ele>
        <time>2025-08-10T06:53:32.696Z</time>
      </trkpt>
      <trkpt lat="44.14803" lon="0.6205">
        <ele>82</ele>
        <time>2025-08-10T06:53:33.696Z</time>
      </trkpt>
      <trkpt lat="44.14804" lon="0.6205">
        <ele>82</ele>
        <time>2025-08-10T06:53:34.696Z</time>
      </trkpt>
      <trkpt lat="44.14805" lon="0.6205">
        <ele>82</ele>
        <time>2025-08-10T06:53:35.696Z</time>
      </trkpt>
      <trkpt lat="44.14806" lon="0.62049">
        <ele>82</ele>
        <time>2025-08-10T06:53:36.696Z</time>
      </trkpt>
      <trkpt lat="44.14807" lon="0.62049">
        <ele>82</ele>
        <time>2025-08-10T06:53:37.696Z</time>
      </trkpt>
      <trkpt lat="44.14808" lon="0.62048">
        <ele>82</ele>
        <time>2025-08-10T06:53:38.696Z</time>
      </trkpt>
      <trkpt lat="44.1481" lon="0.62048">
        <ele>82</ele>
        <time>2025-08-10T06:53:39.696Z</time>
      </trkpt>
      <trkpt lat="44.14811" lon="0.62049">
        <ele>82</ele>
        <time>2025-08-10T06:53:40.696Z</time>
      </trkpt>
      <trkpt lat="44.14812" lon="0.62049">
        <ele>82</ele>
        <time>2025-08-10T06:53:41.696Z</time>
      </trkpt>
      <trkpt lat="44.14813" lon="0.6205">
        <ele>83</ele>
        <time>2025-08-10T06:53:42.696Z</time>
      </trkpt>
      <trkpt lat="44.14813" lon="0.62051">
        <ele>82</ele>
        <time>2025-08-10T06:53:43.696Z</time>
      </trkpt>
      <trkpt lat="44.14814" lon="0.62052">
        <ele>82</ele>
        <time>2025-08-10T06:53:44.696Z</time>
      </trkpt>
      <trkpt lat="44.14814" lon="0.62053">
        <ele>82</ele>
        <time>2025-08-10T06:53:45.696Z</time>
      </trkpt>
      <trkpt lat="44.14814" lon="0.62054">
        <ele>82</ele>
        <time>2025-08-10T06:53:46.696Z</time>
      </trkpt>
      <trkpt lat="44.14815" lon="0.62055">
        <ele>82</ele>
        <time>2025-08-10T06:53:47.696Z</time>
      </trkpt>
      <trkpt lat="44.14814" lon="0.62056">
        <ele>82</ele>
        <time>2025-08-10T06:53:48.696Z</time>
      </trkpt>
      <trkpt lat="44.14814" lon="0.62058">
        <ele>82</ele>
        <time>2025-08-10T06:53:49.696Z</time>
      </trkpt>
      <trkpt lat="44.14815" lon="0.62059">
        <ele>82</ele>
        <time>2025-08-10T06:53:50.696Z</time>
      </trkpt>
      <trkpt lat="44.14815" lon="0.62061">
        <ele>83</ele>
        <time>2025-08-10T06:53:51.696Z</time>
      </trkpt>
      <trkpt lat="44.14816" lon="0.62062">
        <ele>83</ele>
        <time>2025-08-10T06:53:52.696Z</time>
      </trkpt>
      <trkpt lat="44.14816" lon="0.62064">
        <ele>83</ele>
        <time>2025-08-10T06:53:53.696Z</time>
      </trkpt>
      <trkpt lat="44.14817" lon="0.62065">
        <ele>83</ele>
        <time>2025-08-10T06:53:54.696Z</time>
      </trkpt>
      <trkpt lat="44.14817" lon="0.62067">
        <ele>83</ele>
        <time>2025-08-10T06:53:55.696Z</time>
      </trkpt>
      <trkpt lat="44.14817" lon="0.62068">
        <ele>83</ele>
        <time>2025-08-10T06:53:56.696Z</time>
      </trkpt>
      <trkpt lat="44.14817" lon="0.6207">
        <ele>83</ele>
        <time>2025-08-10T06:53:57.696Z</time>
      </trkpt>
      <trkpt lat="44.14818" lon="0.62072">
        <ele>83</ele>
        <time>2025-08-10T06:53:58.697Z</time>
      </trkpt>
      <trkpt lat="44.14818" lon="0.62074">
        <ele>83</ele>
        <time>2025-08-10T06:53:59.696Z</time>
      </trkpt>
      <trkpt lat="44.14818" lon="0.62075">
        <ele>83</ele>
        <time>2025-08-10T06:54:00.696Z</time>
      </trkpt>
      <trkpt lat="44.14819" lon="0.62077">
        <ele>84</ele>
        <time>2025-08-10T06:54:01.696Z</time>
      </trkpt>
      <trkpt lat="44.14819" lon="0.62079">
        <ele>84</ele>
        <time>2025-08-10T06:54:02.696Z</time>
      </trkpt>
      <trkpt lat="44.14819" lon="0.6208">
        <ele>84</ele>
        <time>2025-08-10T06:54:03.696Z</time>
      </trkpt>
      <trkpt lat="44.1482" lon="0.62082">
        <ele>84</ele>
        <time>2025-08-10T06:54:04.696Z</time>
      </trkpt>
      <trkpt lat="44.1482" lon="0.62083">
        <ele>85</ele>
        <time>2025-08-10T06:54:05.696Z</time>
      </trkpt>
      <trkpt lat="44.1482" lon="0.62085">
        <ele>85</ele>
        <time>2025-08-10T06:54:06.696Z</time>
      </trkpt>
      <trkpt lat="44.1482" lon="0.62087">
        <ele>85</ele>
        <time>2025-08-10T06:54:07.696Z</time>
      </trkpt>
      <trkpt lat="44.1482" lon="0.62089">
        <ele>85</ele>
        <time>2025-08-10T06:54:08.696Z</time>
      </trkpt>
      <trkpt lat="44.14821" lon="0.6209">
        <ele>84</ele>
        <time>2025-08-10T06:54:09.696Z</time>
      </trkpt>
      <trkpt lat="44.14821" lon="0.62092">
        <ele>84</ele>
        <time>2025-08-10T06:54:10.696Z</time>
      </trkpt>
      <trkpt lat="44.14821" lon="0.62094">
        <ele>84</ele>
        <time>2025-08-10T06:54:11.697Z</time>
      </trkpt>
      <trkpt lat="44.14822" lon="0.62096">
        <ele>84</ele>
        <time>2025-08-10T06:54:12.696Z</time>
      </trkpt>
      <trkpt lat="44.14821" lon="0.62097">
        <ele>83</ele>
        <time>2025-08-10T06:54:13.696Z</time>
      </trkpt>
      <trkpt lat="44.14821" lon="0.62099">
        <ele>83</ele>
        <time>2025-08-10T06:54:14.696Z</time>
      </trkpt>
      <trkpt lat="44.14821" lon="0.62101">
        <ele>82</ele>
        <time>2025-08-10T06:54:15.696Z</time>
      </trkpt>
      <trkpt lat="44.14822" lon="0.62102">
        <ele>82</ele>
        <time>2025-08-10T06:54:16.696Z</time>
      </trkpt>
      <trkpt lat="44.14822" lon="0.62103">
        <ele>82</ele>
        <time>2025-08-10T06:54:17.696Z</time>
      </trkpt>
      <trkpt lat="44.14822" lon="0.62105">
        <ele>82</ele>
        <time>2025-08-10T06:54:18.696Z</time>
      </trkpt>
      <trkpt lat="44.14822" lon="0.62106">
        <ele>82</ele>
        <time>2025-08-10T06:54:19.696Z</time>
      </trkpt>
      <trkpt lat="44.14822" lon="0.62108">
        <ele>81</ele>
        <time>2025-08-10T06:54:20.696Z</time>
      </trkpt>
      <trkpt lat="44.14823" lon="0.62109">
        <ele>81</ele>
        <time>2025-08-10T06:54:21.696Z</time>
      </trkpt>
      <trkpt lat="44.14823" lon="0.62111">
        <ele>81</ele>
        <time>2025-08-10T06:54:22.696Z</time>
      </trkpt>
      <trkpt lat="44.14824" lon="0.62113">
        <ele>81</ele>
        <time>2025-08-10T06:54:23.696Z</time>
      </trkpt>
      <trkpt lat="44.14824" lon="0.62115">
        <ele>81</ele>
        <time>2025-08-10T06:54:24.696Z</time>
      </trkpt>
      <trkpt lat="44.14825" lon="0.62116">
        <ele>80</ele>
        <time>2025-08-10T06:54:25.696Z</time>
      </trkpt>
      <trkpt lat="44.14825" lon="0.62118">
        <ele>80</ele>
        <time>2025-08-10T06:54:26.696Z</time>
      </trkpt>
      <trkpt lat="44.14824" lon="0.62119">
        <ele>80</ele>
        <time>2025-08-10T06:54:27.696Z</time>
      </trkpt>
      <trkpt lat="44.14824" lon="0.6212">
        <ele>80</ele>
        <time>2025-08-10T06:54:28.697Z</time>
      </trkpt>
      <trkpt lat="44.14825" lon="0.62121">
        <ele>80</ele>
        <time>2025-08-10T06:54:29.696Z</time>
      </trkpt>
      <trkpt lat="44.14825" lon="0.62123">
        <ele>79</ele>
        <time>2025-08-10T06:54:30.696Z</time>
      </trkpt>
      <trkpt lat="44.14825" lon="0.62125">
        <ele>79</ele>
        <time>2025-08-10T06:54:31.696Z</time>
      </trkpt>
      <trkpt lat="44.14826" lon="0.62126">
        <ele>79</ele>
        <time>2025-08-10T06:54:32.696Z</time>
      </trkpt>
      <trkpt lat="44.14826" lon="0.62128">
        <ele>78</ele>
        <time>2025-08-10T06:54:33.696Z</time>
      </trkpt>
      <trkpt lat="44.14827" lon="0.62129">
        <ele>78</ele>
        <time>2025-08-10T06:54:34.696Z</time>
      </trkpt>
      <trkpt lat="44.14828" lon="0.62131">
        <ele>79</ele>
        <time>2025-08-10T06:54:35.696Z</time>
      </trkpt>
      <trkpt lat="44.14828" lon="0.62133">
        <ele>79</ele>
        <time>2025-08-10T06:54:36.696Z</time>
      </trkpt>
      <trkpt lat="44.14828" lon="0.62135">
        <ele>79</ele>
        <time>2025-08-10T06:54:37.696Z</time>
      </trkpt>
      <trkpt lat="44.14828" lon="0.62136">
        <ele>78</ele>
        <time>2025-08-10T06:54:38.696Z</time>
      </trkpt>
      <trkpt lat="44.14828" lon="0.62137">
        <ele>78</ele>
        <time>2025-08-10T06:54:39.696Z</time>
      </trkpt>
      <trkpt lat="44.14829" lon="0.62139">
        <ele>78</ele>
        <time>2025-08-10T06:54:40.696Z</time>
      </trkpt>
      <trkpt lat="44.14829" lon="0.6214">
        <ele>78</ele>
        <time>2025-08-10T06:54:41.696Z</time>
      </trkpt>
      <trkpt lat="44.14829" lon="0.62141">
        <ele>77</ele>
        <time>2025-08-10T06:54:42.696Z</time>
      </trkpt>
      <trkpt lat="44.14829" lon="0.62143">
        <ele>77</ele>
        <time>2025-08-10T06:54:43.696Z</time>
      </trkpt>
      <trkpt lat="44.14829" lon="0.62144">
        <ele>77</ele>
        <time>2025-08-10T06:54:44.696Z</time>
      </trkpt>
      <trkpt lat="44.1483" lon="0.62146">
        <ele>77</ele>
        <time>2025-08-10T06:54:45.696Z</time>
      </trkpt>
      <trkpt lat="44.1483" lon="0.62147">
        <ele>77</ele>
        <time>2025-08-10T06:54:46.696Z</time>
      </trkpt>
      <trkpt lat="44.14831" lon="0.62148">
        <ele>77</ele>
        <time>2025-08-10T06:54:47.696Z</time>
      </trkpt>
      <trkpt lat="44.14831" lon="0.6215">
        <ele>77</ele>
        <time>2025-08-10T06:54:48.696Z</time>
      </trkpt>
      <trkpt lat="44.14831" lon="0.62151">
        <ele>78</ele>
        <time>2025-08-10T06:54:49.696Z</time>
      </trkpt>
      <trkpt lat="44.14831" lon="0.62153">
        <ele>78</ele>
        <time>2025-08-10T06:54:50.696Z</time>
      </trkpt>
      <trkpt lat="44.14831" lon="0.62154">
        <ele>78</ele>
        <time>2025-08-10T06:54:51.696Z</time>
      </trkpt>
      <trkpt lat="44.1483" lon="0.62156">
        <ele>77</ele>
        <time>2025-08-10T06:54:52.696Z</time>
      </trkpt>
      <trkpt lat="44.1483" lon="0.62157">
        <ele>77</ele>
        <time>2025-08-10T06:54:53.696Z</time>
      </trkpt>
      <trkpt lat="44.14829" lon="0.62158">
        <ele>77</ele>
        <time>2025-08-10T06:54:54.696Z</time>
      </trkpt>
      <trkpt lat="44.14828" lon="0.62159">
        <ele>77</ele>
        <time>2025-08-10T06:54:55.696Z</time>
      </trkpt>
      <trkpt lat="44.14828" lon="0.62161">
        <ele>77</ele>
        <time>2025-08-10T06:54:56.696Z</time>
      </trkpt>
      <trkpt lat="44.14827" lon="0.62162">
        <ele>77</ele>
        <time>2025-08-10T06:54:57.696Z</time>
      </trkpt>
      <trkpt lat="44.14826" lon="0.62163">
        <ele>77</ele>
        <time>2025-08-10T06:54:58.696Z</time>
      </trkpt>
      <trkpt lat="44.14825" lon="0.62164">
        <ele>77</ele>
        <time>2025-08-10T06:54:59.696Z</time>
      </trkpt>
      <trkpt lat="44.14824" lon="0.62165">
        <ele>77</ele>
        <time>2025-08-10T06:55:00.696Z</time>
      </trkpt>
      <trkpt lat="44.14823" lon="0.62166">
        <ele>77</ele>
        <time>2025-08-10T06:55:01.696Z</time>
      </trkpt>
      <trkpt lat="44.14822" lon="0.62166">
        <ele>77</ele>
        <time>2025-08-10T06:55:02.696Z</time>
      </trkpt>
      <trkpt lat="44.14821" lon="0.62167">
        <ele>78</ele>
        <time>2025-08-10T06:55:03.696Z</time>
      </trkpt>
      <trkpt lat="44.1482" lon="0.62168">
        <ele>78</ele>
        <time>2025-08-10T06:55:04.696Z</time>
      </trkpt>
      <trkpt lat="44.14819" lon="0.62169">
        <ele>78</ele>
        <time>2025-08-10T06:55:05.696Z</time>
      </trkpt>
      <trkpt lat="44.14818" lon="0.6217">
        <ele>79</ele>
        <time>2025-08-10T06:55:06.696Z</time>
      </trkpt>
      <trkpt lat="44.14817" lon="0.62171">
        <ele>79</ele>
        <time>2025-08-10T06:55:07.696Z</time>
      </trkpt>
      <trkpt lat="44.14816" lon="0.62173">
        <ele>80</ele>
        <time>2025-08-10T06:55:08.696Z</time>
      </trkpt>
      <trkpt lat="44.14815" lon="0.62174">
        <ele>80</ele>
        <time>2025-08-10T06:55:09.696Z</time>
      </trkpt>
      <trkpt lat="44.14814" lon="0.62175">
        <ele>80</ele>
        <time>2025-08-10T06:55:10.696Z</time>
      </trkpt>
      <trkpt lat="44.14813" lon="0.62175">
        <ele>81</ele>
        <time>2025-08-10T06:55:11.696Z</time>
      </trkpt>
      <trkpt lat="44.14812" lon="0.62176">
        <ele>81</ele>
        <time>2025-08-10T06:55:12.696Z</time>
      </trkpt>
      <trkpt lat="44.14811" lon="0.62177">
        <ele>80</ele>
        <time>2025-08-10T06:55:13.696Z</time>
      </trkpt>
      <trkpt lat="44.14809" lon="0.62177">
        <ele>80</ele>
        <time>2025-08-10T06:55:14.696Z</time>
      </trkpt>
      <trkpt lat="44.14808" lon="0.62178">
        <ele>80</ele>
        <time>2025-08-10T06:55:15.696Z</time>
      </trkpt>
      <trkpt lat="44.14807" lon="0.62179">
        <ele>80</ele>
        <time>2025-08-10T06:55:16.696Z</time>
      </trkpt>
      <trkpt lat="44.14806" lon="0.6218">
        <ele>80</ele>
        <time>2025-08-10T06:55:17.696Z</time>
      </trkpt>
      <trkpt lat="44.14805" lon="0.62181">
        <ele>80</ele>
        <time>2025-08-10T06:55:18.696Z</time>
      </trkpt>
      <trkpt lat="44.14804" lon="0.62183">
        <ele>80</ele>
        <time>2025-08-10T06:55:19.697Z</time>
      </trkpt>
      <trkpt lat="44.14803" lon="0.62185">
        <ele>80</ele>
        <time>2025-08-10T06:55:20.696Z</time>
      </trkpt>
      <trkpt lat="44.14802" lon="0.62186">
        <ele>80</ele>
        <time>2025-08-10T06:55:21.696Z</time>
      </trkpt>
      <trkpt lat="44.14801" lon="0.62188">
        <ele>80</ele>
        <time>2025-08-10T06:55:22.696Z</time>
      </trkpt>
      <trkpt lat="44.148" lon="0.62189">
        <ele>80</ele>
        <time>2025-08-10T06:55:23.696Z</time>
      </trkpt>
      <trkpt lat="44.14799" lon="0.6219">
        <ele>80</ele>
        <time>2025-08-10T06:55:24.696Z</time>
      </trkpt>
      <trkpt lat="44.14799" lon="0.62191">
        <ele>80</ele>
        <time>2025-08-10T06:55:25.696Z</time>
      </trkpt>
      <trkpt lat="44.14798" lon="0.62191">
        <ele>80</ele>
        <time>2025-08-10T06:55:26.696Z</time>
      </trkpt>
      <trkpt lat="44.14797" lon="0.62192">
        <ele>80</ele>
        <time>2025-08-10T06:55:27.696Z</time>
      </trkpt>
      <trkpt lat="44.14796" lon="0.62192">
        <ele>80</ele>
        <time>2025-08-10T06:55:28.697Z</time>
      </trkpt>
      <trkpt lat="44.14795" lon="0.62193">
        <ele>80</ele>
        <time>2025-08-10T06:55:29.696Z</time>
      </trkpt>
      <trkpt lat="44.14794" lon="0.62194">
        <ele>80</ele>
        <time>2025-08-10T06:55:30.696Z</time>
      </trkpt>
      <trkpt lat="44.14793" lon="0.62195">
        <ele>80</ele>
        <time>2025-08-10T06:55:31.696Z</time>
      </trkpt>
      <trkpt lat="44.14792" lon="0.62196">
        <ele>79</ele>
        <time>2025-08-10T06:55:32.696Z</time>
      </trkpt>
      <trkpt lat="44.14791" lon="0.62197">
        <ele>79</ele>
        <time>2025-08-10T06:55:33.696Z</time>
      </trkpt>
      <trkpt lat="44.14789" lon="0.62197">
        <ele>79</ele>
        <time>2025-08-10T06:55:34.696Z</time>
      </trkpt>
      <trkpt lat="44.14788" lon="0.62198">
        <ele>78</ele>
        <time>2025-08-10T06:55:35.696Z</time>
      </trkpt>
      <trkpt lat="44.14787" lon="0.62199">
        <ele>78</ele>
        <time>2025-08-10T06:55:36.696Z</time>
      </trkpt>
      <trkpt lat="44.14786" lon="0.62201">
        <ele>78</ele>
        <time>2025-08-10T06:55:37.696Z</time>
      </trkpt>
      <trkpt lat="44.14785" lon="0.62202">
        <ele>78</ele>
        <time>2025-08-10T06:55:38.696Z</time>
      </trkpt>
      <trkpt lat="44.14784" lon="0.62203">
        <ele>78</ele>
        <time>2025-08-10T06:55:39.696Z</time>
      </trkpt>
      <trkpt lat="44.14783" lon="0.62203">
        <ele>78</ele>
        <time>2025-08-10T06:55:40.696Z</time>
      </trkpt>
      <trkpt lat="44.14782" lon="0.62205">
        <ele>78</ele>
        <time>2025-08-10T06:55:41.696Z</time>
      </trkpt>
      <trkpt lat="44.14781" lon="0.62205">
        <ele>78</ele>
        <time>2025-08-10T06:55:42.696Z</time>
      </trkpt>
      <trkpt lat="44.1478" lon="0.62206">
        <ele>78</ele>
        <time>2025-08-10T06:55:43.696Z</time>
      </trkpt>
      <trkpt lat="44.14779" lon="0.62207">
        <ele>77</ele>
        <time>2025-08-10T06:55:44.696Z</time>
      </trkpt>
      <trkpt lat="44.14778" lon="0.62208">
        <ele>77</ele>
        <time>2025-08-10T06:55:45.696Z</time>
      </trkpt>
      <trkpt lat="44.14777" lon="0.62209">
        <ele>77</ele>
        <time>2025-08-10T06:55:46.696Z</time>
      </trkpt>
      <trkpt lat="44.14775" lon="0.6221">
        <ele>77</ele>
        <time>2025-08-10T06:55:47.696Z</time>
      </trkpt>
      <trkpt lat="44.14774" lon="0.6221">
        <ele>77</ele>
        <time>2025-08-10T06:55:48.696Z</time>
      </trkpt>
      <trkpt lat="44.14773" lon="0.62211">
        <ele>77</ele>
        <time>2025-08-10T06:55:49.696Z</time>
      </trkpt>
      <trkpt lat="44.14772" lon="0.62212">
        <ele>77</ele>
        <time>2025-08-10T06:55:50.696Z</time>
      </trkpt>
      <trkpt lat="44.14771" lon="0.62212">
        <ele>77</ele>
        <time>2025-08-10T06:55:51.696Z</time>
      </trkpt>
      <trkpt lat="44.14771" lon="0.62213">
        <ele>77</ele>
        <time>2025-08-10T06:55:52.696Z</time>
      </trkpt>
      <trkpt lat="44.1477" lon="0.62214">
        <ele>77</ele>
        <time>2025-08-10T06:55:53.696Z</time>
      </trkpt>
      <trkpt lat="44.14769" lon="0.62215">
        <ele>77</ele>
        <time>2025-08-10T06:55:54.696Z</time>
      </trkpt>
      <trkpt lat="44.14768" lon="0.62217">
        <ele>77</ele>
        <time>2025-08-10T06:55:55.696Z</time>
      </trkpt>
      <trkpt lat="44.14767" lon="0.62218">
        <ele>77</ele>
        <time>2025-08-10T06:55:56.696Z</time>
      </trkpt>
      <trkpt lat="44.14766" lon="0.62218">
        <ele>77</ele>
        <time>2025-08-10T06:55:57.696Z</time>
      </trkpt>
      <trkpt lat="44.14765" lon="0.62219">
        <ele>77</ele>
        <time>2025-08-10T06:55:58.696Z</time>
      </trkpt>
      <trkpt lat="44.14764" lon="0.6222">
        <ele>78</ele>
        <time>2025-08-10T06:55:59.696Z</time>
      </trkpt>
      <trkpt lat="44.14764" lon="0.6222">
        <ele>78</ele>
        <time>2025-08-10T06:56:00.696Z</time>
      </trkpt>
      <trkpt lat="44.14763" lon="0.62221">
        <ele>78</ele>
        <time>2025-08-10T06:56:01.696Z</time>
      </trkpt>
      <trkpt lat="44.14762" lon="0.62222">
        <ele>78</ele>
        <time>2025-08-10T06:56:02.696Z</time>
      </trkpt>
      <trkpt lat="44.1476" lon="0.62223">
        <ele>78</ele>
        <time>2025-08-10T06:56:03.696Z</time>
      </trkpt>
      <trkpt lat="44.14759" lon="0.62224">
        <ele>78</ele>
        <time>2025-08-10T06:56:04.696Z</time>
      </trkpt>
      <trkpt lat="44.14758" lon="0.62226">
        <ele>78</ele>
        <time>2025-08-10T06:56:05.696Z</time>
      </trkpt>
      <trkpt lat="44.14757" lon="0.62226">
        <ele>78</ele>
        <time>2025-08-10T06:56:06.696Z</time>
      </trkpt>
      <trkpt lat="44.14756" lon="0.62228">
        <ele>77</ele>
        <time>2025-08-10T06:56:07.696Z</time>
      </trkpt>
      <trkpt lat="44.14755" lon="0.62229">
        <ele>76</ele>
        <time>2025-08-10T06:56:08.696Z</time>
      </trkpt>
      <trkpt lat="44.14755" lon="0.6223">
        <ele>76</ele>
        <time>2025-08-10T06:56:09.696Z</time>
      </trkpt>
      <trkpt lat="44.14754" lon="0.62231">
        <ele>76</ele>
        <time>2025-08-10T06:56:10.696Z</time>
      </trkpt>
      <trkpt lat="44.14753" lon="0.62232">
        <ele>76</ele>
        <time>2025-08-10T06:56:11.696Z</time>
      </trkpt>
      <trkpt lat="44.14752" lon="0.62233">
        <ele>75</ele>
        <time>2025-08-10T06:56:12.696Z</time>
      </trkpt>
      <trkpt lat="44.14752" lon="0.62234">
        <ele>75</ele>
        <time>2025-08-10T06:56:13.696Z</time>
      </trkpt>
      <trkpt lat="44.14751" lon="0.62236">
        <ele>75</ele>
        <time>2025-08-10T06:56:14.696Z</time>
      </trkpt>
      <trkpt lat="44.1475" lon="0.62237">
        <ele>75</ele>
        <time>2025-08-10T06:56:15.696Z</time>
      </trkpt>
      <trkpt lat="44.14749" lon="0.62238">
        <ele>75</ele>
        <time>2025-08-10T06:56:16.696Z</time>
      </trkpt>
      <trkpt lat="44.14749" lon="0.62239">
        <ele>75</ele>
        <time>2025-08-10T06:56:17.696Z</time>
      </trkpt>
      <trkpt lat="44.14748" lon="0.6224">
        <ele>74</ele>
        <time>2025-08-10T06:56:18.696Z</time>
      </trkpt>
      <trkpt lat="44.14747" lon="0.62241">
        <ele>74</ele>
        <time>2025-08-10T06:56:19.696Z</time>
      </trkpt>
      <trkpt lat="44.14747" lon="0.62242">
        <ele>74</ele>
        <time>2025-08-10T06:56:20.696Z</time>
      </trkpt>
      <trkpt lat="44.14746" lon="0.62243">
        <ele>74</ele>
        <time>2025-08-10T06:56:21.696Z</time>
      </trkpt>
      <trkpt lat="44.14745" lon="0.62244">
        <ele>74</ele>
        <time>2025-08-10T06:56:22.696Z</time>
      </trkpt>
      <trkpt lat="44.14744" lon="0.62245">
        <ele>73</ele>
        <time>2025-08-10T06:56:23.696Z</time>
      </trkpt>
      <trkpt lat="44.14743" lon="0.62246">
        <ele>74</ele>
        <time>2025-08-10T06:56:24.696Z</time>
      </trkpt>
      <trkpt lat="44.14743" lon="0.62247">
        <ele>74</ele>
        <time>2025-08-10T06:56:25.696Z</time>
      </trkpt>
      <trkpt lat="44.14741" lon="0.62249">
        <ele>74</ele>
        <time>2025-08-10T06:56:26.696Z</time>
      </trkpt>
      <trkpt lat="44.1474" lon="0.6225">
        <ele>75</ele>
        <time>2025-08-10T06:56:27.696Z</time>
      </trkpt>
      <trkpt lat="44.14739" lon="0.62251">
        <ele>75</ele>
        <time>2025-08-10T06:56:28.696Z</time>
      </trkpt>
      <trkpt lat="44.14738" lon="0.62252">
        <ele>75</ele>
        <time>2025-08-10T06:56:29.696Z</time>
      </trkpt>
      <trkpt lat="44.14737" lon="0.62253">
        <ele>76</ele>
        <time>2025-08-10T06:56:30.696Z</time>
      </trkpt>
      <trkpt lat="44.14736" lon="0.62253">
        <ele>76</ele>
        <time>2025-08-10T06:56:31.696Z</time>
      </trkpt>
      <trkpt lat="44.14735" lon="0.62254">
        <ele>76</ele>
        <time>2025-08-10T06:56:32.696Z</time>
      </trkpt>
      <trkpt lat="44.14734" lon="0.62255">
        <ele>76</ele>
        <time>2025-08-10T06:56:33.696Z</time>
      </trkpt>
      <trkpt lat="44.14733" lon="0.62257">
        <ele>75</ele>
        <time>2025-08-10T06:56:34.696Z</time>
      </trkpt>
      <trkpt lat="44.14732" lon="0.62258">
        <ele>75</ele>
        <time>2025-08-10T06:56:35.696Z</time>
      </trkpt>
      <trkpt lat="44.14732" lon="0.62259">
        <ele>75</ele>
        <time>2025-08-10T06:56:36.696Z</time>
      </trkpt>
      <trkpt lat="44.14731" lon="0.6226">
        <ele>75</ele>
        <time>2025-08-10T06:56:37.696Z</time>
      </trkpt>
      <trkpt lat="44.1473" lon="0.62261">
        <ele>75</ele>
        <time>2025-08-10T06:56:38.696Z</time>
      </trkpt>
      <trkpt lat="44.14729" lon="0.62262">
        <ele>75</ele>
        <time>2025-08-10T06:56:39.696Z</time>
      </trkpt>
      <trkpt lat="44.14728" lon="0.62263">
        <ele>75</ele>
        <time>2025-08-10T06:56:40.696Z</time>
      </trkpt>
      <trkpt lat="44.14727" lon="0.62264">
        <ele>75</ele>
        <time>2025-08-10T06:56:41.696Z</time>
      </trkpt>
      <trkpt lat="44.14726" lon="0.62264">
        <ele>75</ele>
        <time>2025-08-10T06:56:42.696Z</time>
      </trkpt>
      <trkpt lat="44.14726" lon="0.62266">
        <ele>75</ele>
        <time>2025-08-10T06:56:43.696Z</time>
      </trkpt>
      <trkpt lat="44.14725" lon="0.62267">
        <ele>75</ele>
        <time>2025-08-10T06:56:44.696Z</time>
      </trkpt>
      <trkpt lat="44.14724" lon="0.62267">
        <ele>75</ele>
        <time>2025-08-10T06:56:45.696Z</time>
      </trkpt>
      <trkpt lat="44.14723" lon="0.62269">
        <ele>75</ele>
        <time>2025-08-10T06:56:46.696Z</time>
      </trkpt>
      <trkpt lat="44.14723" lon="0.6227">
        <ele>75</ele>
        <time>2025-08-10T06:56:47.696Z</time>
      </trkpt>
      <trkpt lat="44.14721" lon="0.62271">
        <ele>75</ele>
        <time>2025-08-10T06:56:48.696Z</time>
      </trkpt>
      <trkpt lat="44.1472" lon="0.62273">
        <ele>75</ele>
        <time>2025-08-10T06:56:49.696Z</time>
      </trkpt>
      <trkpt lat="44.14719" lon="0.62274">
        <ele>75</ele>
        <time>2025-08-10T06:56:50.696Z</time>
      </trkpt>
      <trkpt lat="44.14719" lon="0.62275">
        <ele>75</ele>
        <time>2025-08-10T06:56:51.696Z</time>
      </trkpt>
      <trkpt lat="44.14718" lon="0.62276">
        <ele>75</ele>
        <time>2025-08-10T06:56:52.696Z</time>
      </trkpt>
      <trkpt lat="44.14717" lon="0.62277">
        <ele>75</ele>
        <time>2025-08-10T06:56:53.696Z</time>
      </trkpt>
      <trkpt lat="44.14716" lon="0.62279">
        <ele>76</ele>
        <time>2025-08-10T06:56:54.696Z</time>
      </trkpt>
      <trkpt lat="44.14715" lon="0.6228">
        <ele>76</ele>
        <time>2025-08-10T06:56:55.696Z</time>
      </trkpt>
      <trkpt lat="44.14714" lon="0.62281">
        <ele>76</ele>
        <time>2025-08-10T06:56:56.696Z</time>
      </trkpt>
      <trkpt lat="44.14713" lon="0.62282">
        <ele>76</ele>
        <time>2025-08-10T06:56:57.696Z</time>
      </trkpt>
      <trkpt lat="44.14713" lon="0.62283">
        <ele>76</ele>
        <time>2025-08-10T06:56:58.696Z</time>
      </trkpt>
      <trkpt lat="44.14712" lon="0.62284">
        <ele>75</ele>
        <time>2025-08-10T06:56:59.697Z</time>
      </trkpt>
      <trkpt lat="44.14711" lon="0.62285">
        <ele>75</ele>
        <time>2025-08-10T06:57:00.697Z</time>
      </trkpt>
      <trkpt lat="44.1471" lon="0.62286">
        <ele>74</ele>
        <time>2025-08-10T06:57:01.696Z</time>
      </trkpt>
      <trkpt lat="44.14709" lon="0.62286">
        <ele>74</ele>
        <time>2025-08-10T06:57:02.696Z</time>
      </trkpt>
      <trkpt lat="44.14709" lon="0.62287">
        <ele>73</ele>
        <time>2025-08-10T06:57:03.696Z</time>
      </trkpt>
      <trkpt lat="44.14708" lon="0.62288">
        <ele>73</ele>
        <time>2025-08-10T06:57:04.696Z</time>
      </trkpt>
      <trkpt lat="44.14707" lon="0.62289">
        <ele>72</ele>
        <time>2025-08-10T06:57:05.696Z</time>
      </trkpt>
      <trkpt lat="44.14706" lon="0.6229">
        <ele>72</ele>
        <time>2025-08-10T06:57:06.696Z</time>
      </trkpt>
      <trkpt lat="44.14705" lon="0.62291">
        <ele>71</ele>
        <time>2025-08-10T06:57:07.696Z</time>
      </trkpt>
      <trkpt lat="44.14704" lon="0.62292">
        <ele>71</ele>
        <time>2025-08-10T06:57:08.696Z</time>
      </trkpt>
      <trkpt lat="44.14703" lon="0.62293">
        <ele>70</ele>
        <time>2025-08-10T06:57:09.696Z</time>
      </trkpt>
      <trkpt lat="44.14702" lon="0.62294">
        <ele>70</ele>
        <time>2025-08-10T06:57:10.696Z</time>
      </trkpt>
      <trkpt lat="44.14702" lon="0.62294">
        <ele>70</ele>
        <time>2025-08-10T06:57:11.696Z</time>
      </trkpt>
      <trkpt lat="44.14701" lon="0.62295">
        <ele>70</ele>
        <time>2025-08-10T06:57:12.696Z</time>
      </trkpt>
      <trkpt lat="44.147" lon="0.62296">
        <ele>70</ele>
        <time>2025-08-10T06:57:13.696Z</time>
      </trkpt>
      <trkpt lat="44.14699" lon="0.62297">
        <ele>70</ele>
        <time>2025-08-10T06:57:14.696Z</time>
      </trkpt>
      <trkpt lat="44.14698" lon="0.62298">
        <ele>69</ele>
        <time>2025-08-10T06:57:15.696Z</time>
      </trkpt>
      <trkpt lat="44.14697" lon="0.62299">
        <ele>69</ele>
        <time>2025-08-10T06:57:16.696Z</time>
      </trkpt>
      <trkpt lat="44.14696" lon="0.623">
        <ele>68</ele>
        <time>2025-08-10T06:57:17.696Z</time>
      </trkpt>
      <trkpt lat="44.14695" lon="0.62301">
        <ele>68</ele>
        <time>2025-08-10T06:57:18.696Z</time>
      </trkpt>
      <trkpt lat="44.14695" lon="0.62302">
        <ele>68</ele>
        <time>2025-08-10T06:57:19.696Z</time>
      </trkpt>
      <trkpt lat="44.14694" lon="0.62302">
        <ele>68</ele>
        <time>2025-08-10T06:57:20.696Z</time>
      </trkpt>
      <trkpt lat="44.14693" lon="0.62303">
        <ele>68</ele>
        <time>2025-08-10T06:57:21.696Z</time>
      </trkpt>
      <trkpt lat="44.14692" lon="0.62305">
        <ele>69</ele>
        <time>2025-08-10T06:57:22.696Z</time>
      </trkpt>
      <trkpt lat="44.14691" lon="0.62306">
        <ele>69</ele>
        <time>2025-08-10T06:57:23.696Z</time>
      </trkpt>
      <trkpt lat="44.14691" lon="0.62307">
        <ele>68</ele>
        <time>2025-08-10T06:57:24.696Z</time>
      </trkpt>
      <trkpt lat="44.1469" lon="0.62307">
        <ele>68</ele>
        <time>2025-08-10T06:57:25.696Z</time>
      </trkpt>
      <trkpt lat="44.14689" lon="0.62308">
        <ele>68</ele>
        <time>2025-08-10T06:57:26.696Z</time>
      </trkpt>
      <trkpt lat="44.14688" lon="0.62308">
        <ele>67</ele>
        <time>2025-08-10T06:57:27.696Z</time>
      </trkpt>
      <trkpt lat="44.14688" lon="0.62309">
        <ele>67</ele>
        <time>2025-08-10T06:57:28.696Z</time>
      </trkpt>
      <trkpt lat="44.14687" lon="0.6231">
        <ele>67</ele>
        <time>2025-08-10T06:57:29.696Z</time>
      </trkpt>
      <trkpt lat="44.14687" lon="0.6231">
        <ele>66</ele>
        <time>2025-08-10T06:57:30.696Z</time>
      </trkpt>
      <trkpt lat="44.14686" lon="0.62311">
        <ele>66</ele>
        <time>2025-08-10T06:57:31.696Z</time>
      </trkpt>
      <trkpt lat="44.14686" lon="0.62312">
        <ele>66</ele>
        <time>2025-08-10T06:57:32.697Z</time>
      </trkpt>
      <trkpt lat="44.14685" lon="0.62312">
        <ele>66</ele>
        <time>2025-08-10T06:57:33.696Z</time>
      </trkpt>
      <trkpt lat="44.14685" lon="0.62313">
        <ele>66</ele>
        <time>2025-08-10T06:57:34.696Z</time>
      </trkpt>
      <trkpt lat="44.14684" lon="0.62314">
        <ele>66</ele>
        <time>2025-08-10T06:57:35.696Z</time>
      </trkpt>
      <trkpt lat="44.14683" lon="0.62315">
        <ele>67</ele>
        <time>2025-08-10T06:57:36.696Z</time>
      </trkpt>
      <trkpt lat="44.14682" lon="0.62316">
        <ele>68</ele>
        <time>2025-08-10T06:57:37.696Z</time>
      </trkpt>
      <trkpt lat="44.14682" lon="0.62318">
        <ele>68</ele>
        <time>2025-08-10T06:57:38.696Z</time>
      </trkpt>
      <trkpt lat="44.14681" lon="0.62319">
        <ele>69</ele>
        <time>2025-08-10T06:57:39.697Z</time>
      </trkpt>
      <trkpt lat="44.1468" lon="0.6232">
        <ele>69</ele>
        <time>2025-08-10T06:57:40.696Z</time>
      </trkpt>
      <trkpt lat="44.14679" lon="0.62321">
        <ele>69</ele>
        <time>2025-08-10T06:57:41.696Z</time>
      </trkpt>
      <trkpt lat="44.14678" lon="0.62322">
        <ele>69</ele>
        <time>2025-08-10T06:57:42.696Z</time>
      </trkpt>
      <trkpt lat="44.14677" lon="0.62323">
        <ele>69</ele>
        <time>2025-08-10T06:57:43.696Z</time>
      </trkpt>
      <trkpt lat="44.14676" lon="0.62324">
        <ele>69</ele>
        <time>2025-08-10T06:57:44.696Z</time>
      </trkpt>
      <trkpt lat="44.14676" lon="0.62325">
        <ele>69</ele>
        <time>2025-08-10T06:57:45.696Z</time>
      </trkpt>
      <trkpt lat="44.14675" lon="0.62325">
        <ele>69</ele>
        <time>2025-08-10T06:57:46.696Z</time>
      </trkpt>
      <trkpt lat="44.14675" lon="0.62325">
        <ele>68</ele>
        <time>2025-08-10T06:57:47.696Z</time>
      </trkpt>
      <trkpt lat="44.14675" lon="0.62325">
        <ele>68</ele>
        <time>2025-08-10T06:57:48.696Z</time>
      </trkpt>
      <trkpt lat="44.14675" lon="0.62325">
        <ele>67</ele>
        <time>2025-08-10T06:57:49.696Z</time>
      </trkpt>
      <trkpt lat="44.14675" lon="0.62326">
        <ele>66</ele>
        <time>2025-08-10T06:57:50.696Z</time>
      </trkpt>
      <trkpt lat="44.14675" lon="0.62326">
        <ele>65</ele>
        <time>2025-08-10T06:57:51.696Z</time>
      </trkpt>
      <trkpt lat="44.14675" lon="0.62326">
        <ele>65</ele>
        <time>2025-08-10T06:57:52.696Z</time>
      </trkpt>
      <trkpt lat="44.14675" lon="0.62326">
        <ele>65</ele>
        <time>2025-08-10T06:57:53.696Z</time>
      </trkpt>
      <trkpt lat="44.14676" lon="0.62326">
        <ele>64</ele>
        <time>2025-08-10T06:57:54.696Z</time>
      </trkpt>
      <trkpt lat="44.14675" lon="0.62326">
        <ele>64</ele>
        <time>2025-08-10T06:57:55.696Z</time>
      </trkpt>
      <trkpt lat="44.14675" lon="0.62326">
        <ele>65</ele>
        <time>2025-08-10T06:57:56.696Z</time>
      </trkpt>
      <trkpt lat="44.14675" lon="0.62327">
        <ele>65</ele>
        <time>2025-08-10T06:57:57.696Z</time>
      </trkpt>
      <trkpt lat="44.14674" lon="0.62328">
        <ele>65</ele>
        <time>2025-08-10T06:57:58.696Z</time>
      </trkpt>
      <trkpt lat="44.14673" lon="0.62328">
        <ele>65</ele>
        <time>2025-08-10T06:57:59.696Z</time>
      </trkpt>
      <trkpt lat="44.14672" lon="0.62329">
        <ele>65</ele>
        <time>2025-08-10T06:58:00.696Z</time>
      </trkpt>
      <trkpt lat="44.14671" lon="0.6233">
        <ele>64</ele>
        <time>2025-08-10T06:58:01.696Z</time>
      </trkpt>
      <trkpt lat="44.1467" lon="0.6233">
        <ele>64</ele>
        <time>2025-08-10T06:58:02.696Z</time>
      </trkpt>
      <trkpt lat="44.14669" lon="0.62331">
        <ele>63</ele>
        <time>2025-08-10T06:58:03.696Z</time>
      </trkpt>
      <trkpt lat="44.14668" lon="0.62332">
        <ele>63</ele>
        <time>2025-08-10T06:58:04.696Z</time>
      </trkpt>
      <trkpt lat="44.14667" lon="0.62333">
        <ele>63</ele>
        <time>2025-08-10T06:58:05.696Z</time>
      </trkpt>
      <trkpt lat="44.14666" lon="0.62334">
        <ele>63</ele>
        <time>2025-08-10T06:58:06.696Z</time>
      </trkpt>
      <trkpt lat="44.14665" lon="0.62335">
        <ele>63</ele>
        <time>2025-08-10T06:58:07.696Z</time>
      </trkpt>
      <trkpt lat="44.14664" lon="0.62336">
        <ele>63</ele>
        <time>2025-08-10T06:58:08.696Z</time>
      </trkpt>
      <trkpt lat="44.14664" lon="0.62337">
        <ele>62</ele>
        <time>2025-08-10T06:58:09.696Z</time>
      </trkpt>
      <trkpt lat="44.14663" lon="0.62338">
        <ele>62</ele>
        <time>2025-08-10T06:58:10.696Z</time>
      </trkpt>
      <trkpt lat="44.14662" lon="0.62339">
        <ele>62</ele>
        <time>2025-08-10T06:58:11.696Z</time>
      </trkpt>
      <trkpt lat="44.14661" lon="0.62339">
        <ele>62</ele>
        <time>2025-08-10T06:58:12.696Z</time>
      </trkpt>
      <trkpt lat="44.1466" lon="0.6234">
        <ele>62</ele>
        <time>2025-08-10T06:58:13.696Z</time>
      </trkpt>
      <trkpt lat="44.1466" lon="0.62341">
        <ele>62</ele>
        <time>2025-08-10T06:58:14.696Z</time>
      </trkpt>
      <trkpt lat="44.14659" lon="0.62342">
        <ele>62</ele>
        <time>2025-08-10T06:58:15.696Z</time>
      </trkpt>
      <trkpt lat="44.14658" lon="0.62343">
        <ele>62</ele>
        <time>2025-08-10T06:58:16.696Z</time>
      </trkpt>
      <trkpt lat="44.14657" lon="0.62345">
        <ele>62</ele>
        <time>2025-08-10T06:58:17.696Z</time>
      </trkpt>
      <trkpt lat="44.14656" lon="0.62345">
        <ele>62</ele>
        <time>2025-08-10T06:58:18.696Z</time>
      </trkpt>
      <trkpt lat="44.14655" lon="0.62346">
        <ele>62</ele>
        <time>2025-08-10T06:58:19.696Z</time>
      </trkpt>
      <trkpt lat="44.14654" lon="0.62347">
        <ele>63</ele>
        <time>2025-08-10T06:58:20.697Z</time>
      </trkpt>
      <trkpt lat="44.14653" lon="0.62348">
        <ele>63</ele>
        <time>2025-08-10T06:58:21.696Z</time>
      </trkpt>
      <trkpt lat="44.14652" lon="0.62349">
        <ele>63</ele>
        <time>2025-08-10T06:58:22.696Z</time>
      </trkpt>
      <trkpt lat="44.14651" lon="0.6235">
        <ele>62</ele>
        <time>2025-08-10T06:58:23.696Z</time>
      </trkpt>
      <trkpt lat="44.1465" lon="0.62351">
        <ele>63</ele>
        <time>2025-08-10T06:58:24.696Z</time>
      </trkpt>
      <trkpt lat="44.14649" lon="0.62352">
        <ele>63</ele>
        <time>2025-08-10T06:58:25.696Z</time>
      </trkpt>
      <trkpt lat="44.14649" lon="0.62353">
        <ele>63</ele>
        <time>2025-08-10T06:58:26.696Z</time>
      </trkpt>
      <trkpt lat="44.14648" lon="0.62355">
        <ele>64</ele>
        <time>2025-08-10T06:58:27.696Z</time>
      </trkpt>
      <trkpt lat="44.14646" lon="0.62355">
        <ele>64</ele>
        <time>2025-08-10T06:58:28.696Z</time>
      </trkpt>
      <trkpt lat="44.14645" lon="0.62357">
        <ele>64</ele>
        <time>2025-08-10T06:58:29.696Z</time>
      </trkpt>
      <trkpt lat="44.14644" lon="0.62358">
        <ele>65</ele>
        <time>2025-08-10T06:58:30.696Z</time>
      </trkpt>
      <trkpt lat="44.14643" lon="0.62359">
        <ele>65</ele>
        <time>2025-08-10T06:58:31.696Z</time>
      </trkpt>
      <trkpt lat="44.14642" lon="0.62361">
        <ele>64</ele>
        <time>2025-08-10T06:58:32.696Z</time>
      </trkpt>
      <trkpt lat="44.14641" lon="0.62361">
        <ele>64</ele>
        <time>2025-08-10T06:58:33.696Z</time>
      </trkpt>
      <trkpt lat="44.14641" lon="0.62362">
        <ele>64</ele>
        <time>2025-08-10T06:58:34.696Z</time>
      </trkpt>
      <trkpt lat="44.1464" lon="0.62363">
        <ele>64</ele>
        <time>2025-08-10T06:58:35.696Z</time>
      </trkpt>
      <trkpt lat="44.14639" lon="0.62364">
        <ele>64</ele>
        <time>2025-08-10T06:58:36.696Z</time>
      </trkpt>
      <trkpt lat="44.14638" lon="0.62365">
        <ele>63</ele>
        <time>2025-08-10T06:58:37.696Z</time>
      </trkpt>
      <trkpt lat="44.14637" lon="0.62366">
        <ele>63</ele>
        <time>2025-08-10T06:58:38.696Z</time>
      </trkpt>
      <trkpt lat="44.14636" lon="0.62367">
        <ele>63</ele>
        <time>2025-08-10T06:58:39.696Z</time>
      </trkpt>
      <trkpt lat="44.14636" lon="0.62368">
        <ele>63</ele>
        <time>2025-08-10T06:58:40.696Z</time>
      </trkpt>
      <trkpt lat="44.14635" lon="0.62369">
        <ele>63</ele>
        <time>2025-08-10T06:58:41.696Z</time>
      </trkpt>
      <trkpt lat="44.14634" lon="0.62369">
        <ele>63</ele>
        <time>2025-08-10T06:58:42.696Z</time>
      </trkpt>
      <trkpt lat="44.14633" lon="0.6237">
        <ele>62</ele>
        <time>2025-08-10T06:58:43.696Z</time>
      </trkpt>
      <trkpt lat="44.14632" lon="0.62371">
        <ele>62</ele>
        <time>2025-08-10T06:58:44.696Z</time>
      </trkpt>
      <trkpt lat="44.14631" lon="0.62372">
        <ele>62</ele>
        <time>2025-08-10T06:58:45.696Z</time>
      </trkpt>
      <trkpt lat="44.1463" lon="0.62373">
        <ele>62</ele>
        <time>2025-08-10T06:58:46.696Z</time>
      </trkpt>
      <trkpt lat="44.14629" lon="0.62373">
        <ele>62</ele>
        <time>2025-08-10T06:58:47.696Z</time>
      </trkpt>
      <trkpt lat="44.14628" lon="0.62374">
        <ele>62</ele>
        <time>2025-08-10T06:58:48.696Z</time>
      </trkpt>
      <trkpt lat="44.14627" lon="0.62374">
        <ele>62</ele>
        <time>2025-08-10T06:58:49.696Z</time>
      </trkpt>
      <trkpt lat="44.14626" lon="0.62375">
        <ele>62</ele>
        <time>2025-08-10T06:58:50.696Z</time>
      </trkpt>
      <trkpt lat="44.14625" lon="0.62375">
        <ele>62</ele>
        <time>2025-08-10T06:58:51.696Z</time>
      </trkpt>
      <trkpt lat="44.14624" lon="0.62376">
        <ele>62</ele>
        <time>2025-08-10T06:58:52.696Z</time>
      </trkpt>
      <trkpt lat="44.14623" lon="0.62376">
        <ele>62</ele>
        <time>2025-08-10T06:58:53.696Z</time>
      </trkpt>
      <trkpt lat="44.14622" lon="0.62376">
        <ele>62</ele>
        <time>2025-08-10T06:58:54.696Z</time>
      </trkpt>
      <trkpt lat="44.14621" lon="0.62376">
        <ele>62</ele>
        <time>2025-08-10T06:58:55.696Z</time>
      </trkpt>
      <trkpt lat="44.14621" lon="0.62376">
        <ele>63</ele>
        <time>2025-08-10T06:58:56.696Z</time>
      </trkpt>
      <trkpt lat="44.1462" lon="0.62377">
        <ele>63</ele>
        <time>2025-08-10T06:58:57.696Z</time>
      </trkpt>
      <trkpt lat="44.14619" lon="0.62378">
        <ele>63</ele>
        <time>2025-08-10T06:58:58.696Z</time>
      </trkpt>
      <trkpt lat="44.14618" lon="0.62379">
        <ele>63</ele>
        <time>2025-08-10T06:58:59.696Z</time>
      </trkpt>
      <trkpt lat="44.14618" lon="0.62379">
        <ele>63</ele>
        <time>2025-08-10T06:59:00.696Z</time>
      </trkpt>
      <trkpt lat="44.14616" lon="0.6238">
        <ele>64</ele>
        <time>2025-08-10T06:59:01.696Z</time>
      </trkpt>
      <trkpt lat="44.14615" lon="0.62382">
        <ele>65</ele>
        <time>2025-08-10T06:59:02.696Z</time>
      </trkpt>
      <trkpt lat="44.14614" lon="0.62383">
        <ele>65</ele>
        <time>2025-08-10T06:59:03.696Z</time>
      </trkpt>
      <trkpt lat="44.14613" lon="0.62384">
        <ele>66</ele>
        <time>2025-08-10T06:59:04.696Z</time>
      </trkpt>
      <trkpt lat="44.14612" lon="0.62385">
        <ele>66</ele>
        <time>2025-08-10T06:59:05.696Z</time>
      </trkpt>
      <trkpt lat="44.14611" lon="0.62387">
        <ele>67</ele>
        <time>2025-08-10T06:59:06.696Z</time>
      </trkpt>
      <trkpt lat="44.1461" lon="0.6239">
        <ele>67</ele>
        <time>2025-08-10T06:59:07.696Z</time>
      </trkpt>
      <trkpt lat="44.14609" lon="0.62392">
        <ele>68</ele>
        <time>2025-08-10T06:59:08.696Z</time>
      </trkpt>
      <trkpt lat="44.1461" lon="0.62393">
        <ele>68</ele>
        <time>2025-08-10T06:59:09.696Z</time>
      </trkpt>
      <trkpt lat="44.1461" lon="0.62394">
        <ele>68</ele>
        <time>2025-08-10T06:59:10.696Z</time>
      </trkpt>
      <trkpt lat="44.14609" lon="0.62396">
        <ele>69</ele>
        <time>2025-08-10T06:59:11.696Z</time>
      </trkpt>
      <trkpt lat="44.14609" lon="0.62396">
        <ele>69</ele>
        <time>2025-08-10T06:59:12.696Z</time>
      </trkpt>
      <trkpt lat="44.14608" lon="0.62397">
        <ele>69</ele>
        <time>2025-08-10T06:59:13.696Z</time>
      </trkpt>
      <trkpt lat="44.14608" lon="0.62398">
        <ele>69</ele>
        <time>2025-08-10T06:59:14.696Z</time>
      </trkpt>
      <trkpt lat="44.14607" lon="0.62399">
        <ele>70</ele>
        <time>2025-08-10T06:59:15.696Z</time>
      </trkpt>
      <trkpt lat="44.14607" lon="0.62401">
        <ele>70</ele>
        <time>2025-08-10T06:59:16.696Z</time>
      </trkpt>
      <trkpt lat="44.14607" lon="0.62402">
        <ele>70</ele>
        <time>2025-08-10T06:59:17.696Z</time>
      </trkpt>
      <trkpt lat="44.14606" lon="0.62403">
        <ele>70</ele>
        <time>2025-08-10T06:59:18.696Z</time>
      </trkpt>
      <trkpt lat="44.14605" lon="0.62404">
        <ele>70</ele>
        <time>2025-08-10T06:59:19.696Z</time>
      </trkpt>
      <trkpt lat="44.14605" lon="0.62405">
        <ele>69</ele>
        <time>2025-08-10T06:59:20.696Z</time>
      </trkpt>
      <trkpt lat="44.14604" lon="0.62406">
        <ele>69</ele>
        <time>2025-08-10T06:59:21.696Z</time>
      </trkpt>
      <trkpt lat="44.14604" lon="0.62407">
        <ele>69</ele>
        <time>2025-08-10T06:59:22.696Z</time>
      </trkpt>
      <trkpt lat="44.14603" lon="0.62409">
        <ele>68</ele>
        <time>2025-08-10T06:59:23.696Z</time>
      </trkpt>
      <trkpt lat="44.14602" lon="0.6241">
        <ele>68</ele>
        <time>2025-08-10T06:59:24.696Z</time>
      </trkpt>
      <trkpt lat="44.14601" lon="0.62412">
        <ele>67</ele>
        <time>2025-08-10T06:59:25.696Z</time>
      </trkpt>
      <trkpt lat="44.14601" lon="0.62412">
        <ele>67</ele>
        <time>2025-08-10T06:59:26.696Z</time>
      </trkpt>
      <trkpt lat="44.146" lon="0.62414">
        <ele>66</ele>
        <time>2025-08-10T06:59:27.696Z</time>
      </trkpt>
      <trkpt lat="44.14599" lon="0.62415">
        <ele>65</ele>
        <time>2025-08-10T06:59:28.696Z</time>
      </trkpt>
      <trkpt lat="44.14598" lon="0.62417">
        <ele>64</ele>
        <time>2025-08-10T06:59:29.696Z</time>
      </trkpt>
      <trkpt lat="44.14597" lon="0.62418">
        <ele>64</ele>
        <time>2025-08-10T06:59:30.696Z</time>
      </trkpt>
      <trkpt lat="44.14596" lon="0.62419">
        <ele>63</ele>
        <time>2025-08-10T06:59:31.696Z</time>
      </trkpt>
      <trkpt lat="44.14597" lon="0.6242">
        <ele>63</ele>
        <time>2025-08-10T06:59:32.696Z</time>
      </trkpt>
      <trkpt lat="44.14596" lon="0.62421">
        <ele>62</ele>
        <time>2025-08-10T06:59:33.696Z</time>
      </trkpt>
      <trkpt lat="44.14596" lon="0.62423">
        <ele>62</ele>
        <time>2025-08-10T06:59:34.696Z</time>
      </trkpt>
      <trkpt lat="44.14595" lon="0.62424">
        <ele>61</ele>
        <time>2025-08-10T06:59:35.696Z</time>
      </trkpt>
      <trkpt lat="44.14595" lon="0.62426">
        <ele>61</ele>
        <time>2025-08-10T06:59:36.696Z</time>
      </trkpt>
      <trkpt lat="44.14594" lon="0.62426">
        <ele>60</ele>
        <time>2025-08-10T06:59:37.696Z</time>
      </trkpt>
      <trkpt lat="44.14594" lon="0.62427">
        <ele>59</ele>
        <time>2025-08-10T06:59:38.696Z</time>
      </trkpt>
      <trkpt lat="44.14594" lon="0.62428">
        <ele>58</ele>
        <time>2025-08-10T06:59:39.696Z</time>
      </trkpt>
      <trkpt lat="44.14593" lon="0.62429">
        <ele>58</ele>
        <time>2025-08-10T06:59:40.696Z</time>
      </trkpt>
      <trkpt lat="44.14593" lon="0.6243">
        <ele>57</ele>
        <time>2025-08-10T06:59:41.696Z</time>
      </trkpt>
      <trkpt lat="44.14594" lon="0.62431">
        <ele>57</ele>
        <time>2025-08-10T06:59:42.696Z</time>
      </trkpt>
      <trkpt lat="44.14594" lon="0.62432">
        <ele>57</ele>
        <time>2025-08-10T06:59:43.696Z</time>
      </trkpt>
      <trkpt lat="44.14594" lon="0.62434">
        <ele>57</ele>
        <time>2025-08-10T06:59:44.696Z</time>
      </trkpt>
      <trkpt lat="44.14593" lon="0.62434">
        <ele>57</ele>
        <time>2025-08-10T06:59:45.696Z</time>
      </trkpt>
      <trkpt lat="44.14593" lon="0.62435">
        <ele>57</ele>
        <time>2025-08-10T06:59:46.696Z</time>
      </trkpt>
      <trkpt lat="44.14593" lon="0.62435">
        <ele>57</ele>
        <time>2025-08-10T06:59:47.696Z</time>
      </trkpt>
      <trkpt lat="44.14593" lon="0.62436">
        <ele>57</ele>
        <time>2025-08-10T06:59:48.696Z</time>
      </trkpt>
      <trkpt lat="44.14593" lon="0.62437">
        <ele>57</ele>
        <time>2025-08-10T06:59:49.696Z</time>
      </trkpt>
      <trkpt lat="44.14594" lon="0.62438">
        <ele>57</ele>
        <time>2025-08-10T06:59:50.696Z</time>
      </trkpt>
      <trkpt lat="44.14594" lon="0.6244">
        <ele>56</ele>
        <time>2025-08-10T06:59:51.696Z</time>
      </trkpt>
      <trkpt lat="44.14594" lon="0.62441">
        <ele>56</ele>
        <time>2025-08-10T06:59:52.696Z</time>
      </trkpt>
      <trkpt lat="44.14593" lon="0.62442">
        <ele>56</ele>
        <time>2025-08-10T06:59:53.696Z</time>
      </trkpt>
      <trkpt lat="44.14592" lon="0.62443">
        <ele>56</ele>
        <time>2025-08-10T06:59:54.696Z</time>
      </trkpt>
      <trkpt lat="44.14592" lon="0.62444">
        <ele>57</ele>
        <time>2025-08-10T06:59:55.696Z</time>
      </trkpt>
      <trkpt lat="44.14591" lon="0.62444">
        <ele>57</ele>
        <time>2025-08-10T06:59:56.696Z</time>
      </trkpt>
      <trkpt lat="44.14591" lon="0.62446">
        <ele>57</ele>
        <time>2025-08-10T06:59:57.696Z</time>
      </trkpt>
      <trkpt lat="44.14591" lon="0.62447">
        <ele>57</ele>
        <time>2025-08-10T06:59:58.696Z</time>
      </trkpt>
      <trkpt lat="44.14591" lon="0.62448">
        <ele>57</ele>
        <time>2025-08-10T06:59:59.696Z</time>
      </trkpt>
      <trkpt lat="44.14591" lon="0.62449">
        <ele>57</ele>
        <time>2025-08-10T07:00:00.696Z</time>
      </trkpt>
      <trkpt lat="44.1459" lon="0.62451">
        <ele>57</ele>
        <time>2025-08-10T07:00:01.696Z</time>
      </trkpt>
      <trkpt lat="44.1459" lon="0.62454">
        <ele>57</ele>
        <time>2025-08-10T07:00:02.696Z</time>
      </trkpt>
      <trkpt lat="44.1459" lon="0.62456">
        <ele>57</ele>
        <time>2025-08-10T07:00:03.696Z</time>
      </trkpt>
      <trkpt lat="44.1459" lon="0.62458">
        <ele>57</ele>
        <time>2025-08-10T07:00:04.696Z</time>
      </trkpt>
      <trkpt lat="44.1459" lon="0.62459">
        <ele>57</ele>
        <time>2025-08-10T07:00:05.696Z</time>
      </trkpt>
      <trkpt lat="44.1459" lon="0.6246">
        <ele>57</ele>
        <time>2025-08-10T07:00:06.696Z</time>
      </trkpt>
      <trkpt lat="44.1459" lon="0.62462">
        <ele>57</ele>
        <time>2025-08-10T07:00:07.696Z</time>
      </trkpt>
      <trkpt lat="44.1459" lon="0.62463">
        <ele>56</ele>
        <time>2025-08-10T07:00:08.696Z</time>
      </trkpt>
      <trkpt lat="44.1459" lon="0.62464">
        <ele>56</ele>
        <time>2025-08-10T07:00:09.696Z</time>
      </trkpt>
      <trkpt lat="44.1459" lon="0.62465">
        <ele>55</ele>
        <time>2025-08-10T07:00:10.696Z</time>
      </trkpt>
      <trkpt lat="44.14591" lon="0.62466">
        <ele>55</ele>
        <time>2025-08-10T07:00:11.696Z</time>
      </trkpt>
      <trkpt lat="44.14592" lon="0.62467">
        <ele>55</ele>
        <time>2025-08-10T07:00:12.696Z</time>
      </trkpt>
      <trkpt lat="44.14592" lon="0.62468">
        <ele>55</ele>
        <time>2025-08-10T07:00:13.696Z</time>
      </trkpt>
      <trkpt lat="44.14591" lon="0.6247">
        <ele>55</ele>
        <time>2025-08-10T07:00:14.696Z</time>
      </trkpt>
      <trkpt lat="44.14591" lon="0.62471">
        <ele>54</ele>
        <time>2025-08-10T07:00:15.696Z</time>
      </trkpt>
      <trkpt lat="44.14591" lon="0.62472">
        <ele>54</ele>
        <time>2025-08-10T07:00:16.696Z</time>
      </trkpt>
      <trkpt lat="44.14591" lon="0.62473">
        <ele>54</ele>
        <time>2025-08-10T07:00:17.696Z</time>
      </trkpt>
      <trkpt lat="44.14591" lon="0.62475">
        <ele>55</ele>
        <time>2025-08-10T07:00:18.696Z</time>
      </trkpt>
      <trkpt lat="44.14591" lon="0.62477">
        <ele>56</ele>
        <time>2025-08-10T07:00:19.696Z</time>
      </trkpt>
      <trkpt lat="44.1459" lon="0.62479">
        <ele>56</ele>
        <time>2025-08-10T07:00:20.696Z</time>
      </trkpt>
      <trkpt lat="44.14589" lon="0.62482">
        <ele>57</ele>
        <time>2025-08-10T07:00:21.696Z</time>
      </trkpt>
      <trkpt lat="44.14589" lon="0.62484">
        <ele>57</ele>
        <time>2025-08-10T07:00:22.696Z</time>
      </trkpt>
      <trkpt lat="44.14588" lon="0.62485">
        <ele>58</ele>
        <time>2025-08-10T07:00:23.696Z</time>
      </trkpt>
      <trkpt lat="44.14588" lon="0.62486">
        <ele>58</ele>
        <time>2025-08-10T07:00:24.696Z</time>
      </trkpt>
      <trkpt lat="44.14588" lon="0.62488">
        <ele>59</ele>
        <time>2025-08-10T07:00:25.696Z</time>
      </trkpt>
      <trkpt lat="44.14588" lon="0.62489">
        <ele>59</ele>
        <time>2025-08-10T07:00:26.696Z</time>
      </trkpt>
      <trkpt lat="44.14587" lon="0.6249">
        <ele>59</ele>
        <time>2025-08-10T07:00:27.696Z</time>
      </trkpt>
      <trkpt lat="44.14587" lon="0.62491">
        <ele>59</ele>
        <time>2025-08-10T07:00:28.696Z</time>
      </trkpt>
      <trkpt lat="44.14587" lon="0.62493">
        <ele>59</ele>
        <time>2025-08-10T07:00:29.696Z</time>
      </trkpt>
      <trkpt lat="44.14587" lon="0.62494">
        <ele>59</ele>
        <time>2025-08-10T07:00:30.696Z</time>
      </trkpt>
      <trkpt lat="44.14586" lon="0.62495">
        <ele>59</ele>
        <time>2025-08-10T07:00:31.696Z</time>
      </trkpt>
      <trkpt lat="44.14586" lon="0.62496">
        <ele>59</ele>
        <time>2025-08-10T07:00:32.696Z</time>
      </trkpt>
      <trkpt lat="44.14586" lon="0.62497">
        <ele>60</ele>
        <time>2025-08-10T07:00:33.696Z</time>
      </trkpt>
      <trkpt lat="44.14586" lon="0.62498">
        <ele>60</ele>
        <time>2025-08-10T07:00:34.696Z</time>
      </trkpt>
      <trkpt lat="44.14586" lon="0.62499">
        <ele>60</ele>
        <time>2025-08-10T07:00:35.696Z</time>
      </trkpt>
      <trkpt lat="44.14585" lon="0.625">
        <ele>60</ele>
        <time>2025-08-10T07:00:36.696Z</time>
      </trkpt>
      <trkpt lat="44.14584" lon="0.62501">
        <ele>60</ele>
        <time>2025-08-10T07:00:37.696Z</time>
      </trkpt>
      <trkpt lat="44.14584" lon="0.62501">
        <ele>60</ele>
        <time>2025-08-10T07:00:38.696Z</time>
      </trkpt>
      <trkpt lat="44.14584" lon="0.62502">
        <ele>59</ele>
        <time>2025-08-10T07:00:39.696Z</time>
      </trkpt>
      <trkpt lat="44.14584" lon="0.62503">
        <ele>59</ele>
        <time>2025-08-10T07:00:40.696Z</time>
      </trkpt>
      <trkpt lat="44.14584" lon="0.62504">
        <ele>59</ele>
        <time>2025-08-10T07:00:41.696Z</time>
      </trkpt>
      <trkpt lat="44.14584" lon="0.62506">
        <ele>59</ele>
        <time>2025-08-10T07:00:42.696Z</time>
      </trkpt>
      <trkpt lat="44.14583" lon="0.62507">
        <ele>59</ele>
        <time>2025-08-10T07:00:43.696Z</time>
      </trkpt>
      <trkpt lat="44.14583" lon="0.62508">
        <ele>59</ele>
        <time>2025-08-10T07:00:44.696Z</time>
      </trkpt>
      <trkpt lat="44.14584" lon="0.62509">
        <ele>59</ele>
        <time>2025-08-10T07:00:45.696Z</time>
      </trkpt>
      <trkpt lat="44.14584" lon="0.6251">
        <ele>59</ele>
        <time>2025-08-10T07:00:46.696Z</time>
      </trkpt>
      <trkpt lat="44.14584" lon="0.62511">
        <ele>60</ele>
        <time>2025-08-10T07:00:47.696Z</time>
      </trkpt>
      <trkpt lat="44.14583" lon="0.62511">
        <ele>60</ele>
        <time>2025-08-10T07:00:48.696Z</time>
      </trkpt>
      <trkpt lat="44.14584" lon="0.62512">
        <ele>60</ele>
        <time>2025-08-10T07:00:49.696Z</time>
      </trkpt>
      <trkpt lat="44.14585" lon="0.62513">
        <ele>61</ele>
        <time>2025-08-10T07:00:50.696Z</time>
      </trkpt>
      <trkpt lat="44.14585" lon="0.62514">
        <ele>62</ele>
        <time>2025-08-10T07:00:51.696Z</time>
      </trkpt>
      <trkpt lat="44.14586" lon="0.62515">
        <ele>62</ele>
        <time>2025-08-10T07:00:52.696Z</time>
      </trkpt>
      <trkpt lat="44.14587" lon="0.62516">
        <ele>63</ele>
        <time>2025-08-10T07:00:53.696Z</time>
      </trkpt>
      <trkpt lat="44.14587" lon="0.62517">
        <ele>64</ele>
        <time>2025-08-10T07:00:54.696Z</time>
      </trkpt>
      <trkpt lat="44.14588" lon="0.62518">
        <ele>64</ele>
        <time>2025-08-10T07:00:55.696Z</time>
      </trkpt>
      <trkpt lat="44.14589" lon="0.62519">
        <ele>64</ele>
        <time>2025-08-10T07:00:56.696Z</time>
      </trkpt>
      <trkpt lat="44.14589" lon="0.6252">
        <ele>65</ele>
        <time>2025-08-10T07:00:57.696Z</time>
      </trkpt>
      <trkpt lat="44.14589" lon="0.62521">
        <ele>65</ele>
        <time>2025-08-10T07:00:58.696Z</time>
      </trkpt>
      <trkpt lat="44.14589" lon="0.62522">
        <ele>65</ele>
        <time>2025-08-10T07:00:59.696Z</time>
      </trkpt>
      <trkpt lat="44.14589" lon="0.62522">
        <ele>65</ele>
        <time>2025-08-10T07:01:00.696Z</time>
      </trkpt>
      <trkpt lat="44.14589" lon="0.62522">
        <ele>66</ele>
        <time>2025-08-10T07:01:01.696Z</time>
      </trkpt>
      <trkpt lat="44.14591" lon="0.62523">
        <ele>66</ele>
        <time>2025-08-10T07:01:02.696Z</time>
      </trkpt>
      <trkpt lat="44.14591" lon="0.62524">
        <ele>66</ele>
        <time>2025-08-10T07:01:03.696Z</time>
      </trkpt>
      <trkpt lat="44.14591" lon="0.62525">
        <ele>66</ele>
        <time>2025-08-10T07:01:04.696Z</time>
      </trkpt>
      <trkpt lat="44.14591" lon="0.62525">
        <ele>67</ele>
        <time>2025-08-10T07:01:05.696Z</time>
      </trkpt>
      <trkpt lat="44.14591" lon="0.62526">
        <ele>67</ele>
        <time>2025-08-10T07:01:06.696Z</time>
      </trkpt>
      <trkpt lat="44.1459" lon="0.62527">
        <ele>67</ele>
        <time>2025-08-10T07:01:07.696Z</time>
      </trkpt>
      <trkpt lat="44.1459" lon="0.62528">
        <ele>67</ele>
        <time>2025-08-10T07:01:08.696Z</time>
      </trkpt>
      <trkpt lat="44.1459" lon="0.62529">
        <ele>67</ele>
        <time>2025-08-10T07:01:09.696Z</time>
      </trkpt>
      <trkpt lat="44.1459" lon="0.6253">
        <ele>67</ele>
        <time>2025-08-10T07:01:10.696Z</time>
      </trkpt>
      <trkpt lat="44.1459" lon="0.62531">
        <ele>67</ele>
        <time>2025-08-10T07:01:11.696Z</time>
      </trkpt>
      <trkpt lat="44.1459" lon="0.62532">
        <ele>67</ele>
        <time>2025-08-10T07:01:12.696Z</time>
      </trkpt>
      <trkpt lat="44.1459" lon="0.62533">
        <ele>66</ele>
        <time>2025-08-10T07:01:13.696Z</time>
      </trkpt>
      <trkpt lat="44.1459" lon="0.62534">
        <ele>66</ele>
        <time>2025-08-10T07:01:14.696Z</time>
      </trkpt>
      <trkpt lat="44.1459" lon="0.62535">
        <ele>65</ele>
        <time>2025-08-10T07:01:15.696Z</time>
      </trkpt>
      <trkpt lat="44.14591" lon="0.62535">
        <ele>65</ele>
        <time>2025-08-10T07:01:16.696Z</time>
      </trkpt>
      <trkpt lat="44.14591" lon="0.62536">
        <ele>65</ele>
        <time>2025-08-10T07:01:17.697Z</time>
      </trkpt>
      <trkpt lat="44.14591" lon="0.62536">
        <ele>65</ele>
        <time>2025-08-10T07:01:18.696Z</time>
      </trkpt>
      <trkpt lat="44.14591" lon="0.62537">
        <ele>65</ele>
        <time>2025-08-10T07:01:19.696Z</time>
      </trkpt>
      <trkpt lat="44.14591" lon="0.62538">
        <ele>65</ele>
        <time>2025-08-10T07:01:20.696Z</time>
      </trkpt>
      <trkpt lat="44.14591" lon="0.62539">
        <ele>64</ele>
        <time>2025-08-10T07:01:21.696Z</time>
      </trkpt>
      <trkpt lat="44.14591" lon="0.6254">
        <ele>64</ele>
        <time>2025-08-10T07:01:22.696Z</time>
      </trkpt>
      <trkpt lat="44.14591" lon="0.62541">
        <ele>65</ele>
        <time>2025-08-10T07:01:23.696Z</time>
      </trkpt>
      <trkpt lat="44.14591" lon="0.62541">
        <ele>65</ele>
        <time>2025-08-10T07:01:24.696Z</time>
      </trkpt>
      <trkpt lat="44.1459" lon="0.62543">
        <ele>65</ele>
        <time>2025-08-10T07:01:25.696Z</time>
      </trkpt>
      <trkpt lat="44.1459" lon="0.62543">
        <ele>65</ele>
        <time>2025-08-10T07:01:26.697Z</time>
      </trkpt>
      <trkpt lat="44.1459" lon="0.62543">
        <ele>66</ele>
        <time>2025-08-10T07:01:27.696Z</time>
      </trkpt>
      <trkpt lat="44.1459" lon="0.62545">
        <ele>67</ele>
        <time>2025-08-10T07:01:28.696Z</time>
      </trkpt>
      <trkpt lat="44.14589" lon="0.62545">
        <ele>68</ele>
        <time>2025-08-10T07:01:29.696Z</time>
      </trkpt>
      <trkpt lat="44.14589" lon="0.62546">
        <ele>68</ele>
        <time>2025-08-10T07:01:30.696Z</time>
      </trkpt>
      <trkpt lat="44.14588" lon="0.62547">
        <ele>69</ele>
        <time>2025-08-10T07:01:31.696Z</time>
      </trkpt>
      <trkpt lat="44.14588" lon="0.62548">
        <ele>69</ele>
        <time>2025-08-10T07:01:32.696Z</time>
      </trkpt>
      <trkpt lat="44.14588" lon="0.62548">
        <ele>70</ele>
        <time>2025-08-10T07:01:33.696Z</time>
      </trkpt>
      <trkpt lat="44.14587" lon="0.62548">
        <ele>70</ele>
        <time>2025-08-10T07:01:34.696Z</time>
      </trkpt>
      <trkpt lat="44.14587" lon="0.62548">
        <ele>70</ele>
        <time>2025-08-10T07:01:35.696Z</time>
      </trkpt>
      <trkpt lat="44.14587" lon="0.62548">
        <ele>70</ele>
        <time>2025-08-10T07:01:36.696Z</time>
      </trkpt>
      <trkpt lat="44.14586" lon="0.62547">
        <ele>70</ele>
        <time>2025-08-10T07:01:37.696Z</time>
      </trkpt>
      <trkpt lat="44.14586" lon="0.62547">
        <ele>70</ele>
        <time>2025-08-10T07:01:38.697Z</time>
      </trkpt>
      <trkpt lat="44.14586" lon="0.62547">
        <ele>69</ele>
        <time>2025-08-10T07:01:39.696Z</time>
      </trkpt>
      <trkpt lat="44.14586" lon="0.62547">
        <ele>68</ele>
        <time>2025-08-10T07:01:40.697Z</time>
      </trkpt>
      <trkpt lat="44.14586" lon="0.62547">
        <ele>68</ele>
        <time>2025-08-10T07:01:41.696Z</time>
      </trkpt>
      <trkpt lat="44.14586" lon="0.62547">
        <ele>67</ele>
        <time>2025-08-10T07:01:42.696Z</time>
      </trkpt>
      <trkpt lat="44.14585" lon="0.62547">
        <ele>67</ele>
        <time>2025-08-10T07:01:43.696Z</time>
      </trkpt>
      <trkpt lat="44.14584" lon="0.62548">
        <ele>67</ele>
        <time>2025-08-10T07:01:44.696Z</time>
      </trkpt>
      <trkpt lat="44.14584" lon="0.62548">
        <ele>67</ele>
        <time>2025-08-10T07:01:45.696Z</time>
      </trkpt>
      <trkpt lat="44.14583" lon="0.62548">
        <ele>67</ele>
        <time>2025-08-10T07:01:46.696Z</time>
      </trkpt>
      <trkpt lat="44.14582" lon="0.62548">
        <ele>67</ele>
        <time>2025-08-10T07:01:47.696Z</time>
      </trkpt>
      <trkpt lat="44.14581" lon="0.62548">
        <ele>67</ele>
        <time>2025-08-10T07:01:48.696Z</time>
      </trkpt>
      <trkpt lat="44.14579" lon="0.62548">
        <ele>67</ele>
        <time>2025-08-10T07:01:49.697Z</time>
      </trkpt>
      <trkpt lat="44.14578" lon="0.62548">
        <ele>67</ele>
        <time>2025-08-10T07:01:50.696Z</time>
      </trkpt>
      <trkpt lat="44.14577" lon="0.62548">
        <ele>68</ele>
        <time>2025-08-10T07:01:51.696Z</time>
      </trkpt>
      <trkpt lat="44.14577" lon="0.62548">
        <ele>68</ele>
        <time>2025-08-10T07:01:52.696Z</time>
      </trkpt>
      <trkpt lat="44.14576" lon="0.62549">
        <ele>69</ele>
        <time>2025-08-10T07:01:53.696Z</time>
      </trkpt>
      <trkpt lat="44.14575" lon="0.62549">
        <ele>70</ele>
        <time>2025-08-10T07:01:54.696Z</time>
      </trkpt>
      <trkpt lat="44.14574" lon="0.62549">
        <ele>70</ele>
        <time>2025-08-10T07:01:55.696Z</time>
      </trkpt>
      <trkpt lat="44.14573" lon="0.62549">
        <ele>71</ele>
        <time>2025-08-10T07:01:56.696Z</time>
      </trkpt>
      <trkpt lat="44.14572" lon="0.62549">
        <ele>71</ele>
        <time>2025-08-10T07:01:57.696Z</time>
      </trkpt>
      <trkpt lat="44.14571" lon="0.62549">
        <ele>72</ele>
        <time>2025-08-10T07:01:58.696Z</time>
      </trkpt>
      <trkpt lat="44.1457" lon="0.62549">
        <ele>72</ele>
        <time>2025-08-10T07:01:59.696Z</time>
      </trkpt>
      <trkpt lat="44.14568" lon="0.62549">
        <ele>73</ele>
        <time>2025-08-10T07:02:00.696Z</time>
      </trkpt>
      <trkpt lat="44.14567" lon="0.62549">
        <ele>73</ele>
        <time>2025-08-10T07:02:01.696Z</time>
      </trkpt>
      <trkpt lat="44.14566" lon="0.62549">
        <ele>73</ele>
        <time>2025-08-10T07:02:02.696Z</time>
      </trkpt>
      <trkpt lat="44.14565" lon="0.62549">
        <ele>74</ele>
        <time>2025-08-10T07:02:03.696Z</time>
      </trkpt>
      <trkpt lat="44.14564" lon="0.62549">
        <ele>74</ele>
        <time>2025-08-10T07:02:04.696Z</time>
      </trkpt>
      <trkpt lat="44.14563" lon="0.62549">
        <ele>74</ele>
        <time>2025-08-10T07:02:05.696Z</time>
      </trkpt>
      <trkpt lat="44.14562" lon="0.62549">
        <ele>74</ele>
        <time>2025-08-10T07:02:06.696Z</time>
      </trkpt>
      <trkpt lat="44.14561" lon="0.62549">
        <ele>74</ele>
        <time>2025-08-10T07:02:07.696Z</time>
      </trkpt>
      <trkpt lat="44.1456" lon="0.62549">
        <ele>74</ele>
        <time>2025-08-10T07:02:08.696Z</time>
      </trkpt>
      <trkpt lat="44.14559" lon="0.62549">
        <ele>75</ele>
        <time>2025-08-10T07:02:09.696Z</time>
      </trkpt>
      <trkpt lat="44.14558" lon="0.62549">
        <ele>75</ele>
        <time>2025-08-10T07:02:10.696Z</time>
      </trkpt>
      <trkpt lat="44.14557" lon="0.62548">
        <ele>75</ele>
        <time>2025-08-10T07:02:11.696Z</time>
      </trkpt>
      <trkpt lat="44.14556" lon="0.62547">
        <ele>75</ele>
        <time>2025-08-10T07:02:12.696Z</time>
      </trkpt>
      <trkpt lat="44.14555" lon="0.62547">
        <ele>76</ele>
        <time>2025-08-10T07:02:13.696Z</time>
      </trkpt>
      <trkpt lat="44.14554" lon="0.62547">
        <ele>76</ele>
        <time>2025-08-10T07:02:14.696Z</time>
      </trkpt>
      <trkpt lat="44.14553" lon="0.62547">
        <ele>76</ele>
        <time>2025-08-10T07:02:15.696Z</time>
      </trkpt>
      <trkpt lat="44.14552" lon="0.62547">
        <ele>76</ele>
        <time>2025-08-10T07:02:16.696Z</time>
      </trkpt>
      <trkpt lat="44.14552" lon="0.62547">
        <ele>77</ele>
        <time>2025-08-10T07:02:17.696Z</time>
      </trkpt>
      <trkpt lat="44.1455" lon="0.62547">
        <ele>77</ele>
        <time>2025-08-10T07:02:18.696Z</time>
      </trkpt>
      <trkpt lat="44.14549" lon="0.62547">
        <ele>77</ele>
        <time>2025-08-10T07:02:19.696Z</time>
      </trkpt>
      <trkpt lat="44.14549" lon="0.62548">
        <ele>77</ele>
        <time>2025-08-10T07:02:20.696Z</time>
      </trkpt>
      <trkpt lat="44.14548" lon="0.62547">
        <ele>78</ele>
        <time>2025-08-10T07:02:21.696Z</time>
      </trkpt>
      <trkpt lat="44.14547" lon="0.62547">
        <ele>78</ele>
        <time>2025-08-10T07:02:22.696Z</time>
      </trkpt>
      <trkpt lat="44.14546" lon="0.62547">
        <ele>78</ele>
        <time>2025-08-10T07:02:23.696Z</time>
      </trkpt>
      <trkpt lat="44.14545" lon="0.62547">
        <ele>78</ele>
        <time>2025-08-10T07:02:24.696Z</time>
      </trkpt>
      <trkpt lat="44.14544" lon="0.62547">
        <ele>78</ele>
        <time>2025-08-10T07:02:25.696Z</time>
      </trkpt>
      <trkpt lat="44.14543" lon="0.62547">
        <ele>78</ele>
        <time>2025-08-10T07:02:26.696Z</time>
      </trkpt>
      <trkpt lat="44.14542" lon="0.62547">
        <ele>78</ele>
        <time>2025-08-10T07:02:27.696Z</time>
      </trkpt>
      <trkpt lat="44.14541" lon="0.62547">
        <ele>78</ele>
        <time>2025-08-10T07:02:28.696Z</time>
      </trkpt>
      <trkpt lat="44.1454" lon="0.62547">
        <ele>78</ele>
        <time>2025-08-10T07:02:29.696Z</time>
      </trkpt>
      <trkpt lat="44.14539" lon="0.62547">
        <ele>78</ele>
        <time>2025-08-10T07:02:30.696Z</time>
      </trkpt>
      <trkpt lat="44.14538" lon="0.62547">
        <ele>78</ele>
        <time>2025-08-10T07:02:31.696Z</time>
      </trkpt>
      <trkpt lat="44.14537" lon="0.62547">
        <ele>79</ele>
        <time>2025-08-10T07:02:32.696Z</time>
      </trkpt>
      <trkpt lat="44.14536" lon="0.62547">
        <ele>79</ele>
        <time>2025-08-10T07:02:33.696Z</time>
      </trkpt>
      <trkpt lat="44.14536" lon="0.62548">
        <ele>79</ele>
        <time>2025-08-10T07:02:34.696Z</time>
      </trkpt>
      <trkpt lat="44.14536" lon="0.62547">
        <ele>79</ele>
        <time>2025-08-10T07:02:35.696Z</time>
      </trkpt>
      <trkpt lat="44.14535" lon="0.62547">
        <ele>78</ele>
        <time>2025-08-10T07:02:36.696Z</time>
      </trkpt>
      <trkpt lat="44.14534" lon="0.62547">
        <ele>78</ele>
        <time>2025-08-10T07:02:37.696Z</time>
      </trkpt>
      <trkpt lat="44.14533" lon="0.62547">
        <ele>78</ele>
        <time>2025-08-10T07:02:38.696Z</time>
      </trkpt>
      <trkpt lat="44.14532" lon="0.62547">
        <ele>78</ele>
        <time>2025-08-10T07:02:39.696Z</time>
      </trkpt>
      <trkpt lat="44.14531" lon="0.62547">
        <ele>77</ele>
        <time>2025-08-10T07:02:40.696Z</time>
      </trkpt>
      <trkpt lat="44.1453" lon="0.62547">
        <ele>77</ele>
        <time>2025-08-10T07:02:41.696Z</time>
      </trkpt>
      <trkpt lat="44.14529" lon="0.62548">
        <ele>77</ele>
        <time>2025-08-10T07:02:42.696Z</time>
      </trkpt>
      <trkpt lat="44.14528" lon="0.62549">
        <ele>77</ele>
        <time>2025-08-10T07:02:43.696Z</time>
      </trkpt>
      <trkpt lat="44.14527" lon="0.62549">
        <ele>77</ele>
        <time>2025-08-10T07:02:44.696Z</time>
      </trkpt>
      <trkpt lat="44.14526" lon="0.62549">
        <ele>77</ele>
        <time>2025-08-10T07:02:45.696Z</time>
      </trkpt>
      <trkpt lat="44.14525" lon="0.62549">
        <ele>77</ele>
        <time>2025-08-10T07:02:46.696Z</time>
      </trkpt>
      <trkpt lat="44.14524" lon="0.62549">
        <ele>76</ele>
        <time>2025-08-10T07:02:47.696Z</time>
      </trkpt>
      <trkpt lat="44.14523" lon="0.62549">
        <ele>76</ele>
        <time>2025-08-10T07:02:48.696Z</time>
      </trkpt>
      <trkpt lat="44.14522" lon="0.62549">
        <ele>77</ele>
        <time>2025-08-10T07:02:49.696Z</time>
      </trkpt>
      <trkpt lat="44.14521" lon="0.62549">
        <ele>77</ele>
        <time>2025-08-10T07:02:50.696Z</time>
      </trkpt>
      <trkpt lat="44.14519" lon="0.62549">
        <ele>77</ele>
        <time>2025-08-10T07:02:51.696Z</time>
      </trkpt>
      <trkpt lat="44.14518" lon="0.6255">
        <ele>77</ele>
        <time>2025-08-10T07:02:52.696Z</time>
      </trkpt>
      <trkpt lat="44.14517" lon="0.6255">
        <ele>78</ele>
        <time>2025-08-10T07:02:53.696Z</time>
      </trkpt>
      <trkpt lat="44.14516" lon="0.62551">
        <ele>78</ele>
        <time>2025-08-10T07:02:54.696Z</time>
      </trkpt>
      <trkpt lat="44.14515" lon="0.62551">
        <ele>79</ele>
        <time>2025-08-10T07:02:55.696Z</time>
      </trkpt>
      <trkpt lat="44.14514" lon="0.62551">
        <ele>79</ele>
        <time>2025-08-10T07:02:56.696Z</time>
      </trkpt>
      <trkpt lat="44.14513" lon="0.62551">
        <ele>80</ele>
        <time>2025-08-10T07:02:57.696Z</time>
      </trkpt>
      <trkpt lat="44.14511" lon="0.62551">
        <ele>80</ele>
        <time>2025-08-10T07:02:58.696Z</time>
      </trkpt>
      <trkpt lat="44.14511" lon="0.62551">
        <ele>80</ele>
        <time>2025-08-10T07:02:59.696Z</time>
      </trkpt>
      <trkpt lat="44.1451" lon="0.6255">
        <ele>80</ele>
        <time>2025-08-10T07:03:00.696Z</time>
      </trkpt>
      <trkpt lat="44.14508" lon="0.6255">
        <ele>80</ele>
        <time>2025-08-10T07:03:01.696Z</time>
      </trkpt>
      <trkpt lat="44.14507" lon="0.62549">
        <ele>80</ele>
        <time>2025-08-10T07:03:02.696Z</time>
      </trkpt>
      <trkpt lat="44.14506" lon="0.62549">
        <ele>80</ele>
        <time>2025-08-10T07:03:03.696Z</time>
      </trkpt>
      <trkpt lat="44.14505" lon="0.62549">
        <ele>80</ele>
        <time>2025-08-10T07:03:04.696Z</time>
      </trkpt>
      <trkpt lat="44.14504" lon="0.62548">
        <ele>80</ele>
        <time>2025-08-10T07:03:05.696Z</time>
      </trkpt>
      <trkpt lat="44.14503" lon="0.62548">
        <ele>80</ele>
        <time>2025-08-10T07:03:06.696Z</time>
      </trkpt>
      <trkpt lat="44.14502" lon="0.62547">
        <ele>80</ele>
        <time>2025-08-10T07:03:07.696Z</time>
      </trkpt>
      <trkpt lat="44.14502" lon="0.62547">
        <ele>80</ele>
        <time>2025-08-10T07:03:08.696Z</time>
      </trkpt>
      <trkpt lat="44.14501" lon="0.62547">
        <ele>80</ele>
        <time>2025-08-10T07:03:09.696Z</time>
      </trkpt>
      <trkpt lat="44.145" lon="0.62547">
        <ele>80</ele>
        <time>2025-08-10T07:03:10.696Z</time>
      </trkpt>
      <trkpt lat="44.14499" lon="0.62546">
        <ele>80</ele>
        <time>2025-08-10T07:03:11.696Z</time>
      </trkpt>
      <trkpt lat="44.14498" lon="0.62546">
        <ele>80</ele>
        <time>2025-08-10T07:03:12.696Z</time>
      </trkpt>
      <trkpt lat="44.14497" lon="0.62546">
        <ele>80</ele>
        <time>2025-08-10T07:03:13.696Z</time>
      </trkpt>
      <trkpt lat="44.14496" lon="0.62546">
        <ele>80</ele>
        <time>2025-08-10T07:03:14.696Z</time>
      </trkpt>
      <trkpt lat="44.14495" lon="0.62546">
        <ele>80</ele>
        <time>2025-08-10T07:03:15.696Z</time>
      </trkpt>
      <trkpt lat="44.14494" lon="0.62546">
        <ele>80</ele>
        <time>2025-08-10T07:03:16.696Z</time>
      </trkpt>
      <trkpt lat="44.14493" lon="0.62546">
        <ele>80</ele>
        <time>2025-08-10T07:03:17.696Z</time>
      </trkpt>
      <trkpt lat="44.14492" lon="0.62546">
        <ele>80</ele>
        <time>2025-08-10T07:03:18.696Z</time>
      </trkpt>
      <trkpt lat="44.14491" lon="0.62545">
        <ele>80</ele>
        <time>2025-08-10T07:03:19.696Z</time>
      </trkpt>
      <trkpt lat="44.1449" lon="0.62545">
        <ele>80</ele>
        <time>2025-08-10T07:03:20.696Z</time>
      </trkpt>
      <trkpt lat="44.1449" lon="0.62545">
        <ele>80</ele>
        <time>2025-08-10T07:03:21.696Z</time>
      </trkpt>
      <trkpt lat="44.14489" lon="0.62545">
        <ele>80</ele>
        <time>2025-08-10T07:03:22.696Z</time>
      </trkpt>
      <trkpt lat="44.14488" lon="0.62546">
        <ele>80</ele>
        <time>2025-08-10T07:03:23.696Z</time>
      </trkpt>
      <trkpt lat="44.14487" lon="0.62546">
        <ele>80</ele>
        <time>2025-08-10T07:03:24.696Z</time>
      </trkpt>
      <trkpt lat="44.14486" lon="0.62546">
        <ele>80</ele>
        <time>2025-08-10T07:03:25.696Z</time>
      </trkpt>
      <trkpt lat="44.14485" lon="0.62546">
        <ele>80</ele>
        <time>2025-08-10T07:03:26.696Z</time>
      </trkpt>
      <trkpt lat="44.14484" lon="0.62546">
        <ele>80</ele>
        <time>2025-08-10T07:03:27.696Z</time>
      </trkpt>
      <trkpt lat="44.14482" lon="0.62546">
        <ele>80</ele>
        <time>2025-08-10T07:03:28.696Z</time>
      </trkpt>
      <trkpt lat="44.14481" lon="0.62546">
        <ele>80</ele>
        <time>2025-08-10T07:03:29.696Z</time>
      </trkpt>
      <trkpt lat="44.1448" lon="0.62546">
        <ele>80</ele>
        <time>2025-08-10T07:03:30.696Z</time>
      </trkpt>
      <trkpt lat="44.14479" lon="0.62546">
        <ele>80</ele>
        <time>2025-08-10T07:03:31.696Z</time>
      </trkpt>
      <trkpt lat="44.14478" lon="0.62546">
        <ele>80</ele>
        <time>2025-08-10T07:03:32.696Z</time>
      </trkpt>
      <trkpt lat="44.14477" lon="0.62546">
        <ele>79</ele>
        <time>2025-08-10T07:03:33.696Z</time>
      </trkpt>
      <trkpt lat="44.14476" lon="0.62545">
        <ele>79</ele>
        <time>2025-08-10T07:03:34.696Z</time>
      </trkpt>
      <trkpt lat="44.14475" lon="0.62545">
        <ele>79</ele>
        <time>2025-08-10T07:03:35.696Z</time>
      </trkpt>
      <trkpt lat="44.14474" lon="0.62545">
        <ele>79</ele>
        <time>2025-08-10T07:03:36.696Z</time>
      </trkpt>
      <trkpt lat="44.14473" lon="0.62545">
        <ele>79</ele>
        <time>2025-08-10T07:03:37.696Z</time>
      </trkpt>
      <trkpt lat="44.14472" lon="0.62545">
        <ele>79</ele>
        <time>2025-08-10T07:03:38.696Z</time>
      </trkpt>
      <trkpt lat="44.1447" lon="0.62545">
        <ele>79</ele>
        <time>2025-08-10T07:03:39.696Z</time>
      </trkpt>
      <trkpt lat="44.14469" lon="0.62545">
        <ele>79</ele>
        <time>2025-08-10T07:03:40.696Z</time>
      </trkpt>
      <trkpt lat="44.14468" lon="0.62545">
        <ele>79</ele>
        <time>2025-08-10T07:03:41.696Z</time>
      </trkpt>
      <trkpt lat="44.14467" lon="0.62545">
        <ele>79</ele>
        <time>2025-08-10T07:03:42.696Z</time>
      </trkpt>
      <trkpt lat="44.14467" lon="0.62545">
        <ele>79</ele>
        <time>2025-08-10T07:03:43.696Z</time>
      </trkpt>
      <trkpt lat="44.14466" lon="0.62545">
        <ele>79</ele>
        <time>2025-08-10T07:03:44.696Z</time>
      </trkpt>
      <trkpt lat="44.14465" lon="0.62544">
        <ele>80</ele>
        <time>2025-08-10T07:03:45.696Z</time>
      </trkpt>
      <trkpt lat="44.14465" lon="0.62544">
        <ele>80</ele>
        <time>2025-08-10T07:03:46.696Z</time>
      </trkpt>
      <trkpt lat="44.14464" lon="0.62544">
        <ele>81</ele>
        <time>2025-08-10T07:03:47.696Z</time>
      </trkpt>
      <trkpt lat="44.14463" lon="0.62545">
        <ele>81</ele>
        <time>2025-08-10T07:03:48.696Z</time>
      </trkpt>
      <trkpt lat="44.14461" lon="0.62545">
        <ele>82</ele>
        <time>2025-08-10T07:03:49.696Z</time>
      </trkpt>
      <trkpt lat="44.1446" lon="0.62544">
        <ele>82</ele>
        <time>2025-08-10T07:03:50.696Z</time>
      </trkpt>
      <trkpt lat="44.14458" lon="0.62545">
        <ele>82</ele>
        <time>2025-08-10T07:03:51.696Z</time>
      </trkpt>
      <trkpt lat="44.14457" lon="0.62545">
        <ele>82</ele>
        <time>2025-08-10T07:03:52.696Z</time>
      </trkpt>
      <trkpt lat="44.14456" lon="0.62545">
        <ele>83</ele>
        <time>2025-08-10T07:03:53.696Z</time>
      </trkpt>
      <trkpt lat="44.14454" lon="0.62544">
        <ele>83</ele>
        <time>2025-08-10T07:03:54.696Z</time>
      </trkpt>
      <trkpt lat="44.14453" lon="0.62544">
        <ele>83</ele>
        <time>2025-08-10T07:03:55.696Z</time>
      </trkpt>
      <trkpt lat="44.14452" lon="0.62544">
        <ele>83</ele>
        <time>2025-08-10T07:03:56.696Z</time>
      </trkpt>
      <trkpt lat="44.1445" lon="0.62544">
        <ele>83</ele>
        <time>2025-08-10T07:03:57.696Z</time>
      </trkpt>
      <trkpt lat="44.14449" lon="0.62543">
        <ele>83</ele>
        <time>2025-08-10T07:03:58.696Z</time>
      </trkpt>
      <trkpt lat="44.14448" lon="0.62543">
        <ele>83</ele>
        <time>2025-08-10T07:03:59.696Z</time>
      </trkpt>
      <trkpt lat="44.14448" lon="0.62541">
        <ele>83</ele>
        <time>2025-08-10T07:04:00.696Z</time>
      </trkpt>
      <trkpt lat="44.14447" lon="0.6254">
        <ele>83</ele>
        <time>2025-08-10T07:04:01.696Z</time>
      </trkpt>
      <trkpt lat="44.14446" lon="0.6254">
        <ele>82</ele>
        <time>2025-08-10T07:04:02.696Z</time>
      </trkpt>
      <trkpt lat="44.14445" lon="0.62539">
        <ele>82</ele>
        <time>2025-08-10T07:04:03.696Z</time>
      </trkpt>
      <trkpt lat="44.14444" lon="0.62538">
        <ele>82</ele>
        <time>2025-08-10T07:04:04.696Z</time>
      </trkpt>
      <trkpt lat="44.14444" lon="0.62537">
        <ele>82</ele>
        <time>2025-08-10T07:04:05.696Z</time>
      </trkpt>
      <trkpt lat="44.14443" lon="0.62536">
        <ele>83</ele>
        <time>2025-08-10T07:04:06.696Z</time>
      </trkpt>
      <trkpt lat="44.14442" lon="0.62535">
        <ele>83</ele>
        <time>2025-08-10T07:04:07.696Z</time>
      </trkpt>
      <trkpt lat="44.14441" lon="0.62534">
        <ele>83</ele>
        <time>2025-08-10T07:04:08.696Z</time>
      </trkpt>
      <trkpt lat="44.1444" lon="0.62533">
        <ele>83</ele>
        <time>2025-08-10T07:04:09.696Z</time>
      </trkpt>
      <trkpt lat="44.14439" lon="0.62532">
        <ele>83</ele>
        <time>2025-08-10T07:04:10.696Z</time>
      </trkpt>
      <trkpt lat="44.14438" lon="0.62532">
        <ele>83</ele>
        <time>2025-08-10T07:04:11.696Z</time>
      </trkpt>
      <trkpt lat="44.14437" lon="0.62531">
        <ele>82</ele>
        <time>2025-08-10T07:04:12.696Z</time>
      </trkpt>
      <trkpt lat="44.14436" lon="0.6253">
        <ele>82</ele>
        <time>2025-08-10T07:04:13.696Z</time>
      </trkpt>
      <trkpt lat="44.14436" lon="0.62529">
        <ele>82</ele>
        <time>2025-08-10T07:04:14.696Z</time>
      </trkpt>
      <trkpt lat="44.14435" lon="0.62529">
        <ele>81</ele>
        <time>2025-08-10T07:04:15.696Z</time>
      </trkpt>
      <trkpt lat="44.14435" lon="0.62529">
        <ele>82</ele>
        <time>2025-08-10T07:04:16.696Z</time>
      </trkpt>
      <trkpt lat="44.14435" lon="0.62529">
        <ele>82</ele>
        <time>2025-08-10T07:04:17.696Z</time>
      </trkpt>
      <trkpt lat="44.14434" lon="0.62529">
        <ele>82</ele>
        <time>2025-08-10T07:04:18.696Z</time>
      </trkpt>
      <trkpt lat="44.14434" lon="0.62529">
        <ele>82</ele>
        <time>2025-08-10T07:04:19.696Z</time>
      </trkpt>
      <trkpt lat="44.14434" lon="0.62529">
        <ele>82</ele>
        <time>2025-08-10T07:04:20.696Z</time>
      </trkpt>
      <trkpt lat="44.14433" lon="0.62529">
        <ele>81</ele>
        <time>2025-08-10T07:04:21.696Z</time>
      </trkpt>
      <trkpt lat="44.14434" lon="0.62528">
        <ele>81</ele>
        <time>2025-08-10T07:04:22.696Z</time>
      </trkpt>
      <trkpt lat="44.14433" lon="0.62528">
        <ele>81</ele>
        <time>2025-08-10T07:04:23.696Z</time>
      </trkpt>
      <trkpt lat="44.14433" lon="0.62528">
        <ele>81</ele>
        <time>2025-08-10T07:04:24.696Z</time>
      </trkpt>
      <trkpt lat="44.14433" lon="0.62528">
        <ele>81</ele>
        <time>2025-08-10T07:04:25.696Z</time>
      </trkpt>
      <trkpt lat="44.14433" lon="0.62528">
        <ele>81</ele>
        <time>2025-08-10T07:04:26.696Z</time>
      </trkpt>
      <trkpt lat="44.14433" lon="0.62528">
        <ele>81</ele>
        <time>2025-08-10T07:04:27.696Z</time>
      </trkpt>
      <trkpt lat="44.14433" lon="0.62528">
        <ele>81</ele>
        <time>2025-08-10T07:04:28.696Z</time>
      </trkpt>
      <trkpt lat="44.14433" lon="0.62528">
        <ele>81</ele>
        <time>2025-08-10T07:04:29.696Z</time>
      </trkpt>
      <trkpt lat="44.14433" lon="0.62528">
        <ele>82</ele>
        <time>2025-08-10T07:04:30.696Z</time>
      </trkpt>
      <trkpt lat="44.14433" lon="0.62528">
        <ele>83</ele>
        <time>2025-08-10T07:04:31.696Z</time>
      </trkpt>
      <trkpt lat="44.14433" lon="0.62528">
        <ele>83</ele>
        <time>2025-08-10T07:04:32.696Z</time>
      </trkpt>
      <trkpt lat="44.14432" lon="0.62528">
        <ele>83</ele>
        <time>2025-08-10T07:04:33.696Z</time>
      </trkpt>
      <trkpt lat="44.14432" lon="0.62527">
        <ele>83</ele>
        <time>2025-08-10T07:04:34.696Z</time>
      </trkpt>
      <trkpt lat="44.14432" lon="0.62527">
        <ele>83</ele>
        <time>2025-08-10T07:04:35.696Z</time>
      </trkpt>
      <trkpt lat="44.14431" lon="0.62527">
        <ele>82</ele>
        <time>2025-08-10T07:04:36.696Z</time>
      </trkpt>
      <trkpt lat="44.14431" lon="0.62527">
        <ele>82</ele>
        <time>2025-08-10T07:04:37.696Z</time>
      </trkpt>
      <trkpt lat="44.1443" lon="0.62527">
        <ele>82</ele>
        <time>2025-08-10T07:04:38.696Z</time>
      </trkpt>
      <trkpt lat="44.1443" lon="0.62526">
        <ele>82</ele>
        <time>2025-08-10T07:04:39.696Z</time>
      </trkpt>
      <trkpt lat="44.14429" lon="0.62526">
        <ele>82</ele>
        <time>2025-08-10T07:04:40.696Z</time>
      </trkpt>
      <trkpt lat="44.14428" lon="0.62526">
        <ele>82</ele>
        <time>2025-08-10T07:04:41.696Z</time>
      </trkpt>
      <trkpt lat="44.14427" lon="0.62525">
        <ele>82</ele>
        <time>2025-08-10T07:04:42.696Z</time>
      </trkpt>
      <trkpt lat="44.14427" lon="0.62524">
        <ele>81</ele>
        <time>2025-08-10T07:04:43.696Z</time>
      </trkpt>
      <trkpt lat="44.14426" lon="0.62523">
        <ele>80</ele>
        <time>2025-08-10T07:04:44.696Z</time>
      </trkpt>
      <trkpt lat="44.14426" lon="0.62522">
        <ele>79</ele>
        <time>2025-08-10T07:04:45.696Z</time>
      </trkpt>
      <trkpt lat="44.14425" lon="0.62521">
        <ele>78</ele>
        <time>2025-08-10T07:04:46.696Z</time>
      </trkpt>
      <trkpt lat="44.14424" lon="0.62521">
        <ele>77</ele>
        <time>2025-08-10T07:04:47.696Z</time>
      </trkpt>
      <trkpt lat="44.14423" lon="0.62521">
        <ele>77</ele>
        <time>2025-08-10T07:04:48.696Z</time>
      </trkpt>
      <trkpt lat="44.14423" lon="0.62521">
        <ele>76</ele>
        <time>2025-08-10T07:04:49.696Z</time>
      </trkpt>
      <trkpt lat="44.14422" lon="0.6252">
        <ele>76</ele>
        <time>2025-08-10T07:04:50.696Z</time>
      </trkpt>
      <trkpt lat="44.14422" lon="0.62519">
        <ele>75</ele>
        <time>2025-08-10T07:04:51.696Z</time>
      </trkpt>
      <trkpt lat="44.14421" lon="0.62519">
        <ele>75</ele>
        <time>2025-08-10T07:04:52.696Z</time>
      </trkpt>
      <trkpt lat="44.1442" lon="0.62518">
        <ele>75</ele>
        <time>2025-08-10T07:04:53.696Z</time>
      </trkpt>
      <trkpt lat="44.14419" lon="0.62518">
        <ele>74</ele>
        <time>2025-08-10T07:04:54.696Z</time>
      </trkpt>
      <trkpt lat="44.14417" lon="0.62517">
        <ele>74</ele>
        <time>2025-08-10T07:04:55.696Z</time>
      </trkpt>
      <trkpt lat="44.14416" lon="0.62516">
        <ele>74</ele>
        <time>2025-08-10T07:04:56.696Z</time>
      </trkpt>
      <trkpt lat="44.14415" lon="0.62516">
        <ele>74</ele>
        <time>2025-08-10T07:04:57.697Z</time>
      </trkpt>
      <trkpt lat="44.14415" lon="0.62516">
        <ele>73</ele>
        <time>2025-08-10T07:04:58.696Z</time>
      </trkpt>
      <trkpt lat="44.14414" lon="0.62516">
        <ele>73</ele>
        <time>2025-08-10T07:04:59.696Z</time>
      </trkpt>
      <trkpt lat="44.14413" lon="0.62516">
        <ele>73</ele>
        <time>2025-08-10T07:05:00.696Z</time>
      </trkpt>
      <trkpt lat="44.14413" lon="0.62516">
        <ele>73</ele>
        <time>2025-08-10T07:05:01.696Z</time>
      </trkpt>
      <trkpt lat="44.14412" lon="0.62515">
        <ele>73</ele>
        <time>2025-08-10T07:05:02.696Z</time>
      </trkpt>
      <trkpt lat="44.1441" lon="0.62515">
        <ele>73</ele>
        <time>2025-08-10T07:05:03.696Z</time>
      </trkpt>
      <trkpt lat="44.14409" lon="0.62514">
        <ele>73</ele>
        <time>2025-08-10T07:05:04.696Z</time>
      </trkpt>
      <trkpt lat="44.14408" lon="0.62514">
        <ele>73</ele>
        <time>2025-08-10T07:05:05.696Z</time>
      </trkpt>
      <trkpt lat="44.14407" lon="0.62514">
        <ele>73</ele>
        <time>2025-08-10T07:05:06.696Z</time>
      </trkpt>
      <trkpt lat="44.14406" lon="0.62514">
        <ele>73</ele>
        <time>2025-08-10T07:05:07.696Z</time>
      </trkpt>
      <trkpt lat="44.14405" lon="0.62513">
        <ele>74</ele>
        <time>2025-08-10T07:05:08.696Z</time>
      </trkpt>
      <trkpt lat="44.14404" lon="0.62513">
        <ele>74</ele>
        <time>2025-08-10T07:05:09.696Z</time>
      </trkpt>
      <trkpt lat="44.14403" lon="0.62513">
        <ele>74</ele>
        <time>2025-08-10T07:05:10.696Z</time>
      </trkpt>
      <trkpt lat="44.14402" lon="0.62513">
        <ele>74</ele>
        <time>2025-08-10T07:05:11.696Z</time>
      </trkpt>
      <trkpt lat="44.14401" lon="0.62514">
        <ele>74</ele>
        <time>2025-08-10T07:05:12.696Z</time>
      </trkpt>
      <trkpt lat="44.144" lon="0.62514">
        <ele>74</ele>
        <time>2025-08-10T07:05:13.696Z</time>
      </trkpt>
      <trkpt lat="44.144" lon="0.62514">
        <ele>75</ele>
        <time>2025-08-10T07:05:14.696Z</time>
      </trkpt>
      <trkpt lat="44.14399" lon="0.62513">
        <ele>75</ele>
        <time>2025-08-10T07:05:15.696Z</time>
      </trkpt>
      <trkpt lat="44.14397" lon="0.62513">
        <ele>74</ele>
        <time>2025-08-10T07:05:16.696Z</time>
      </trkpt>
      <trkpt lat="44.14396" lon="0.62513">
        <ele>74</ele>
        <time>2025-08-10T07:05:17.696Z</time>
      </trkpt>
      <trkpt lat="44.14395" lon="0.62512">
        <ele>74</ele>
        <time>2025-08-10T07:05:18.696Z</time>
      </trkpt>
      <trkpt lat="44.14395" lon="0.62512">
        <ele>74</ele>
        <time>2025-08-10T07:05:19.696Z</time>
      </trkpt>
      <trkpt lat="44.14394" lon="0.62512">
        <ele>74</ele>
        <time>2025-08-10T07:05:20.696Z</time>
      </trkpt>
      <trkpt lat="44.14393" lon="0.62512">
        <ele>74</ele>
        <time>2025-08-10T07:05:21.696Z</time>
      </trkpt>
      <trkpt lat="44.14392" lon="0.62512">
        <ele>74</ele>
        <time>2025-08-10T07:05:22.696Z</time>
      </trkpt>
      <trkpt lat="44.14391" lon="0.62512">
        <ele>73</ele>
        <time>2025-08-10T07:05:23.696Z</time>
      </trkpt>
      <trkpt lat="44.1439" lon="0.62511">
        <ele>73</ele>
        <time>2025-08-10T07:05:24.696Z</time>
      </trkpt>
      <trkpt lat="44.14389" lon="0.62511">
        <ele>73</ele>
        <time>2025-08-10T07:05:25.696Z</time>
      </trkpt>
      <trkpt lat="44.14389" lon="0.62511">
        <ele>73</ele>
        <time>2025-08-10T07:05:26.696Z</time>
      </trkpt>
      <trkpt lat="44.14388" lon="0.62511">
        <ele>73</ele>
        <time>2025-08-10T07:05:27.696Z</time>
      </trkpt>
      <trkpt lat="44.14387" lon="0.62511">
        <ele>73</ele>
        <time>2025-08-10T07:05:28.696Z</time>
      </trkpt>
      <trkpt lat="44.14386" lon="0.62511">
        <ele>73</ele>
        <time>2025-08-10T07:05:29.696Z</time>
      </trkpt>
      <trkpt lat="44.14385" lon="0.62511">
        <ele>73</ele>
        <time>2025-08-10T07:05:30.696Z</time>
      </trkpt>
      <trkpt lat="44.14384" lon="0.62511">
        <ele>73</ele>
        <time>2025-08-10T07:05:31.696Z</time>
      </trkpt>
      <trkpt lat="44.14384" lon="0.62511">
        <ele>73</ele>
        <time>2025-08-10T07:05:32.696Z</time>
      </trkpt>
      <trkpt lat="44.14383" lon="0.62511">
        <ele>73</ele>
        <time>2025-08-10T07:05:33.696Z</time>
      </trkpt>
      <trkpt lat="44.14382" lon="0.62511">
        <ele>73</ele>
        <time>2025-08-10T07:05:34.696Z</time>
      </trkpt>
      <trkpt lat="44.14381" lon="0.62511">
        <ele>73</ele>
        <time>2025-08-10T07:05:35.696Z</time>
      </trkpt>
      <trkpt lat="44.1438" lon="0.62511">
        <ele>72</ele>
        <time>2025-08-10T07:05:36.696Z</time>
      </trkpt>
      <trkpt lat="44.14379" lon="0.62511">
        <ele>72</ele>
        <time>2025-08-10T07:05:37.696Z</time>
      </trkpt>
      <trkpt lat="44.14379" lon="0.62512">
        <ele>72</ele>
        <time>2025-08-10T07:05:38.696Z</time>
      </trkpt>
      <trkpt lat="44.14378" lon="0.62511">
        <ele>72</ele>
        <time>2025-08-10T07:05:39.696Z</time>
      </trkpt>
      <trkpt lat="44.14377" lon="0.62511">
        <ele>73</ele>
        <time>2025-08-10T07:05:40.696Z</time>
      </trkpt>
      <trkpt lat="44.14376" lon="0.62512">
        <ele>73</ele>
        <time>2025-08-10T07:05:41.696Z</time>
      </trkpt>
      <trkpt lat="44.14376" lon="0.62512">
        <ele>74</ele>
        <time>2025-08-10T07:05:42.696Z</time>
      </trkpt>
      <trkpt lat="44.14375" lon="0.62511">
        <ele>74</ele>
        <time>2025-08-10T07:05:43.696Z</time>
      </trkpt>
      <trkpt lat="44.14374" lon="0.62511">
        <ele>74</ele>
        <time>2025-08-10T07:05:44.696Z</time>
      </trkpt>
      <trkpt lat="44.14373" lon="0.62511">
        <ele>74</ele>
        <time>2025-08-10T07:05:45.696Z</time>
      </trkpt>
      <trkpt lat="44.14372" lon="0.62511">
        <ele>74</ele>
        <time>2025-08-10T07:05:46.696Z</time>
      </trkpt>
      <trkpt lat="44.14371" lon="0.6251">
        <ele>74</ele>
        <time>2025-08-10T07:05:47.696Z</time>
      </trkpt>
      <trkpt lat="44.1437" lon="0.62511">
        <ele>74</ele>
        <time>2025-08-10T07:05:48.696Z</time>
      </trkpt>
      <trkpt lat="44.1437" lon="0.62511">
        <ele>74</ele>
        <time>2025-08-10T07:05:49.696Z</time>
      </trkpt>
      <trkpt lat="44.14369" lon="0.62511">
        <ele>74</ele>
        <time>2025-08-10T07:05:50.696Z</time>
      </trkpt>
      <trkpt lat="44.14368" lon="0.62511">
        <ele>75</ele>
        <time>2025-08-10T07:05:51.696Z</time>
      </trkpt>
      <trkpt lat="44.14367" lon="0.62512">
        <ele>75</ele>
        <time>2025-08-10T07:05:52.696Z</time>
      </trkpt>
      <trkpt lat="44.14366" lon="0.62512">
        <ele>75</ele>
        <time>2025-08-10T07:05:53.696Z</time>
      </trkpt>
      <trkpt lat="44.14365" lon="0.62512">
        <ele>75</ele>
        <time>2025-08-10T07:05:54.696Z</time>
      </trkpt>
      <trkpt lat="44.14363" lon="0.62513">
        <ele>75</ele>
        <time>2025-08-10T07:05:55.696Z</time>
      </trkpt>
      <trkpt lat="44.14362" lon="0.62513">
        <ele>75</ele>
        <time>2025-08-10T07:05:56.696Z</time>
      </trkpt>
      <trkpt lat="44.14361" lon="0.62512">
        <ele>75</ele>
        <time>2025-08-10T07:05:57.696Z</time>
      </trkpt>
      <trkpt lat="44.1436" lon="0.62512">
        <ele>75</ele>
        <time>2025-08-10T07:05:58.696Z</time>
      </trkpt>
      <trkpt lat="44.14359" lon="0.62512">
        <ele>75</ele>
        <time>2025-08-10T07:05:59.696Z</time>
      </trkpt>
      <trkpt lat="44.14358" lon="0.62512">
        <ele>75</ele>
        <time>2025-08-10T07:06:00.696Z</time>
      </trkpt>
      <trkpt lat="44.14356" lon="0.62511">
        <ele>75</ele>
        <time>2025-08-10T07:06:01.696Z</time>
      </trkpt>
      <trkpt lat="44.14355" lon="0.62511">
        <ele>75</ele>
        <time>2025-08-10T07:06:02.696Z</time>
      </trkpt>
      <trkpt lat="44.14354" lon="0.62511">
        <ele>76</ele>
        <time>2025-08-10T07:06:03.696Z</time>
      </trkpt>
      <trkpt lat="44.14352" lon="0.62511">
        <ele>76</ele>
        <time>2025-08-10T07:06:04.696Z</time>
      </trkpt>
      <trkpt lat="44.14351" lon="0.6251">
        <ele>76</ele>
        <time>2025-08-10T07:06:05.696Z</time>
      </trkpt>
      <trkpt lat="44.1435" lon="0.6251">
        <ele>76</ele>
        <time>2025-08-10T07:06:06.696Z</time>
      </trkpt>
      <trkpt lat="44.14348" lon="0.62509">
        <ele>76</ele>
        <time>2025-08-10T07:06:07.696Z</time>
      </trkpt>
      <trkpt lat="44.14346" lon="0.62507">
        <ele>76</ele>
        <time>2025-08-10T07:06:08.696Z</time>
      </trkpt>
      <trkpt lat="44.14343" lon="0.62506">
        <ele>76</ele>
        <time>2025-08-10T07:06:09.696Z</time>
      </trkpt>
      <trkpt lat="44.14343" lon="0.62507">
        <ele>76</ele>
        <time>2025-08-10T07:06:10.696Z</time>
      </trkpt>
      <trkpt lat="44.14342" lon="0.62507">
        <ele>75</ele>
        <time>2025-08-10T07:06:11.696Z</time>
      </trkpt>
      <trkpt lat="44.14341" lon="0.62508">
        <ele>75</ele>
        <time>2025-08-10T07:06:12.696Z</time>
      </trkpt>
      <trkpt lat="44.1434" lon="0.62508">
        <ele>75</ele>
        <time>2025-08-10T07:06:13.696Z</time>
      </trkpt>
      <trkpt lat="44.14339" lon="0.62509">
        <ele>75</ele>
        <time>2025-08-10T07:06:14.696Z</time>
      </trkpt>
      <trkpt lat="44.14338" lon="0.62509">
        <ele>75</ele>
        <time>2025-08-10T07:06:15.696Z</time>
      </trkpt>
      <trkpt lat="44.14337" lon="0.6251">
        <ele>75</ele>
        <time>2025-08-10T07:06:16.696Z</time>
      </trkpt>
      <trkpt lat="44.14336" lon="0.6251">
        <ele>75</ele>
        <time>2025-08-10T07:06:17.696Z</time>
      </trkpt>
      <trkpt lat="44.14335" lon="0.6251">
        <ele>75</ele>
        <time>2025-08-10T07:06:18.696Z</time>
      </trkpt>
      <trkpt lat="44.14334" lon="0.62511">
        <ele>74</ele>
        <time>2025-08-10T07:06:19.696Z</time>
      </trkpt>
      <trkpt lat="44.14333" lon="0.62512">
        <ele>74</ele>
        <time>2025-08-10T07:06:20.696Z</time>
      </trkpt>
      <trkpt lat="44.14332" lon="0.62513">
        <ele>74</ele>
        <time>2025-08-10T07:06:21.696Z</time>
      </trkpt>
      <trkpt lat="44.14331" lon="0.62513">
        <ele>74</ele>
        <time>2025-08-10T07:06:22.696Z</time>
      </trkpt>
      <trkpt lat="44.1433" lon="0.62513">
        <ele>74</ele>
        <time>2025-08-10T07:06:23.696Z</time>
      </trkpt>
      <trkpt lat="44.14328" lon="0.62514">
        <ele>74</ele>
        <time>2025-08-10T07:06:24.696Z</time>
      </trkpt>
      <trkpt lat="44.14327" lon="0.62513">
        <ele>74</ele>
        <time>2025-08-10T07:06:25.696Z</time>
      </trkpt>
      <trkpt lat="44.14326" lon="0.62514">
        <ele>74</ele>
        <time>2025-08-10T07:06:26.696Z</time>
      </trkpt>
      <trkpt lat="44.14325" lon="0.62515">
        <ele>74</ele>
        <time>2025-08-10T07:06:27.696Z</time>
      </trkpt>
      <trkpt lat="44.14324" lon="0.62515">
        <ele>74</ele>
        <time>2025-08-10T07:06:28.696Z</time>
      </trkpt>
      <trkpt lat="44.14322" lon="0.62516">
        <ele>75</ele>
        <time>2025-08-10T07:06:29.696Z</time>
      </trkpt>
      <trkpt lat="44.14321" lon="0.62516">
        <ele>75</ele>
        <time>2025-08-10T07:06:30.696Z</time>
      </trkpt>
      <trkpt lat="44.1432" lon="0.62516">
        <ele>75</ele>
        <time>2025-08-10T07:06:31.696Z</time>
      </trkpt>
      <trkpt lat="44.14318" lon="0.62516">
        <ele>74</ele>
        <time>2025-08-10T07:06:32.696Z</time>
      </trkpt>
      <trkpt lat="44.14317" lon="0.62516">
        <ele>74</ele>
        <time>2025-08-10T07:06:33.696Z</time>
      </trkpt>
      <trkpt lat="44.14316" lon="0.62517">
        <ele>74</ele>
        <time>2025-08-10T07:06:34.696Z</time>
      </trkpt>
      <trkpt lat="44.14315" lon="0.62517">
        <ele>74</ele>
        <time>2025-08-10T07:06:35.696Z</time>
      </trkpt>
      <trkpt lat="44.14314" lon="0.62518">
        <ele>75</ele>
        <time>2025-08-10T07:06:36.696Z</time>
      </trkpt>
      <trkpt lat="44.14313" lon="0.62518">
        <ele>75</ele>
        <time>2025-08-10T07:06:37.696Z</time>
      </trkpt>
      <trkpt lat="44.14312" lon="0.62518">
        <ele>75</ele>
        <time>2025-08-10T07:06:38.696Z</time>
      </trkpt>
      <trkpt lat="44.14312" lon="0.62519">
        <ele>75</ele>
        <time>2025-08-10T07:06:39.696Z</time>
      </trkpt>
      <trkpt lat="44.14311" lon="0.62519">
        <ele>75</ele>
        <time>2025-08-10T07:06:40.696Z</time>
      </trkpt>
      <trkpt lat="44.14309" lon="0.62519">
        <ele>76</ele>
        <time>2025-08-10T07:06:41.696Z</time>
      </trkpt>
      <trkpt lat="44.14309" lon="0.62519">
        <ele>76</ele>
        <time>2025-08-10T07:06:42.696Z</time>
      </trkpt>
      <trkpt lat="44.14307" lon="0.62519">
        <ele>77</ele>
        <time>2025-08-10T07:06:43.696Z</time>
      </trkpt>
      <trkpt lat="44.14306" lon="0.62519">
        <ele>77</ele>
        <time>2025-08-10T07:06:44.696Z</time>
      </trkpt>
      <trkpt lat="44.14305" lon="0.6252">
        <ele>77</ele>
        <time>2025-08-10T07:06:45.696Z</time>
      </trkpt>
      <trkpt lat="44.14305" lon="0.6252">
        <ele>77</ele>
        <time>2025-08-10T07:06:46.696Z</time>
      </trkpt>
      <trkpt lat="44.14304" lon="0.6252">
        <ele>78</ele>
        <time>2025-08-10T07:06:47.696Z</time>
      </trkpt>
      <trkpt lat="44.14304" lon="0.6252">
        <ele>78</ele>
        <time>2025-08-10T07:06:48.696Z</time>
      </trkpt>
      <trkpt lat="44.14302" lon="0.62519">
        <ele>77</ele>
        <time>2025-08-10T07:06:49.696Z</time>
      </trkpt>
      <trkpt lat="44.14301" lon="0.62519">
        <ele>77</ele>
        <time>2025-08-10T07:06:50.696Z</time>
      </trkpt>
      <trkpt lat="44.143" lon="0.62519">
        <ele>76</ele>
        <time>2025-08-10T07:06:51.696Z</time>
      </trkpt>
      <trkpt lat="44.14299" lon="0.62519">
        <ele>76</ele>
        <time>2025-08-10T07:06:52.696Z</time>
      </trkpt>
      <trkpt lat="44.14297" lon="0.62518">
        <ele>76</ele>
        <time>2025-08-10T07:06:53.696Z</time>
      </trkpt>
      <trkpt lat="44.14296" lon="0.62518">
        <ele>76</ele>
        <time>2025-08-10T07:06:54.696Z</time>
      </trkpt>
      <trkpt lat="44.14295" lon="0.62518">
        <ele>76</ele>
        <time>2025-08-10T07:06:55.696Z</time>
      </trkpt>
      <trkpt lat="44.14295" lon="0.62518">
        <ele>76</ele>
        <time>2025-08-10T07:06:56.696Z</time>
      </trkpt>
      <trkpt lat="44.14294" lon="0.62519">
        <ele>76</ele>
        <time>2025-08-10T07:06:57.696Z</time>
      </trkpt>
      <trkpt lat="44.14293" lon="0.62519">
        <ele>76</ele>
        <time>2025-08-10T07:06:58.696Z</time>
      </trkpt>
      <trkpt lat="44.14292" lon="0.62519">
        <ele>76</ele>
        <time>2025-08-10T07:06:59.696Z</time>
      </trkpt>
      <trkpt lat="44.1429" lon="0.62519">
        <ele>76</ele>
        <time>2025-08-10T07:07:00.696Z</time>
      </trkpt>
      <trkpt lat="44.14289" lon="0.62518">
        <ele>75</ele>
        <time>2025-08-10T07:07:01.696Z</time>
      </trkpt>
      <trkpt lat="44.14289" lon="0.62518">
        <ele>75</ele>
        <time>2025-08-10T07:07:02.696Z</time>
      </trkpt>
      <trkpt lat="44.14288" lon="0.62518">
        <ele>75</ele>
        <time>2025-08-10T07:07:03.696Z</time>
      </trkpt>
      <trkpt lat="44.14287" lon="0.62518">
        <ele>75</ele>
        <time>2025-08-10T07:07:04.696Z</time>
      </trkpt>
      <trkpt lat="44.14287" lon="0.62518">
        <ele>75</ele>
        <time>2025-08-10T07:07:05.696Z</time>
      </trkpt>
      <trkpt lat="44.14286" lon="0.62519">
        <ele>75</ele>
        <time>2025-08-10T07:07:06.696Z</time>
      </trkpt>
      <trkpt lat="44.14285" lon="0.62519">
        <ele>75</ele>
        <time>2025-08-10T07:07:07.696Z</time>
      </trkpt>
      <trkpt lat="44.14285" lon="0.6252">
        <ele>75</ele>
        <time>2025-08-10T07:07:08.696Z</time>
      </trkpt>
      <trkpt lat="44.14284" lon="0.6252">
        <ele>74</ele>
        <time>2025-08-10T07:07:09.696Z</time>
      </trkpt>
      <trkpt lat="44.14282" lon="0.62521">
        <ele>74</ele>
        <time>2025-08-10T07:07:10.696Z</time>
      </trkpt>
      <trkpt lat="44.14281" lon="0.62521">
        <ele>74</ele>
        <time>2025-08-10T07:07:11.696Z</time>
      </trkpt>
      <trkpt lat="44.1428" lon="0.62522">
        <ele>74</ele>
        <time>2025-08-10T07:07:12.696Z</time>
      </trkpt>
      <trkpt lat="44.14278" lon="0.62523">
        <ele>74</ele>
        <time>2025-08-10T07:07:13.696Z</time>
      </trkpt>
      <trkpt lat="44.14277" lon="0.62523">
        <ele>73</ele>
        <time>2025-08-10T07:07:14.696Z</time>
      </trkpt>
      <trkpt lat="44.14276" lon="0.62523">
        <ele>73</ele>
        <time>2025-08-10T07:07:15.696Z</time>
      </trkpt>
      <trkpt lat="44.14275" lon="0.62523">
        <ele>73</ele>
        <time>2025-08-10T07:07:16.696Z</time>
      </trkpt>
      <trkpt lat="44.14274" lon="0.62523">
        <ele>72</ele>
        <time>2025-08-10T07:07:17.696Z</time>
      </trkpt>
      <trkpt lat="44.14273" lon="0.62524">
        <ele>72</ele>
        <time>2025-08-10T07:07:18.696Z</time>
      </trkpt>
      <trkpt lat="44.14272" lon="0.62524">
        <ele>72</ele>
        <time>2025-08-10T07:07:19.696Z</time>
      </trkpt>
      <trkpt lat="44.14271" lon="0.62525">
        <ele>72</ele>
        <time>2025-08-10T07:07:20.696Z</time>
      </trkpt>
      <trkpt lat="44.1427" lon="0.62525">
        <ele>72</ele>
        <time>2025-08-10T07:07:21.696Z</time>
      </trkpt>
      <trkpt lat="44.14269" lon="0.62525">
        <ele>73</ele>
        <time>2025-08-10T07:07:22.696Z</time>
      </trkpt>
      <trkpt lat="44.14268" lon="0.62525">
        <ele>73</ele>
        <time>2025-08-10T07:07:23.696Z</time>
      </trkpt>
      <trkpt lat="44.14267" lon="0.62526">
        <ele>73</ele>
        <time>2025-08-10T07:07:24.696Z</time>
      </trkpt>
      <trkpt lat="44.14266" lon="0.62527">
        <ele>73</ele>
        <time>2025-08-10T07:07:25.696Z</time>
      </trkpt>
      <trkpt lat="44.14265" lon="0.62527">
        <ele>73</ele>
        <time>2025-08-10T07:07:26.696Z</time>
      </trkpt>
      <trkpt lat="44.14264" lon="0.62527">
        <ele>73</ele>
        <time>2025-08-10T07:07:27.696Z</time>
      </trkpt>
      <trkpt lat="44.14263" lon="0.62527">
        <ele>73</ele>
        <time>2025-08-10T07:07:28.696Z</time>
      </trkpt>
      <trkpt lat="44.14262" lon="0.62528">
        <ele>73</ele>
        <time>2025-08-10T07:07:29.696Z</time>
      </trkpt>
      <trkpt lat="44.1426" lon="0.62528">
        <ele>73</ele>
        <time>2025-08-10T07:07:30.696Z</time>
      </trkpt>
      <trkpt lat="44.14259" lon="0.62529">
        <ele>73</ele>
        <time>2025-08-10T07:07:31.696Z</time>
      </trkpt>
      <trkpt lat="44.14258" lon="0.62529">
        <ele>73</ele>
        <time>2025-08-10T07:07:32.696Z</time>
      </trkpt>
      <trkpt lat="44.14257" lon="0.6253">
        <ele>73</ele>
        <time>2025-08-10T07:07:33.696Z</time>
      </trkpt>
      <trkpt lat="44.14256" lon="0.6253">
        <ele>73</ele>
        <time>2025-08-10T07:07:34.696Z</time>
      </trkpt>
      <trkpt lat="44.14256" lon="0.6253">
        <ele>73</ele>
        <time>2025-08-10T07:07:35.696Z</time>
      </trkpt>
      <trkpt lat="44.14254" lon="0.6253">
        <ele>73</ele>
        <time>2025-08-10T07:07:36.696Z</time>
      </trkpt>
      <trkpt lat="44.14253" lon="0.6253">
        <ele>73</ele>
        <time>2025-08-10T07:07:37.696Z</time>
      </trkpt>
      <trkpt lat="44.14252" lon="0.6253">
        <ele>73</ele>
        <time>2025-08-10T07:07:38.696Z</time>
      </trkpt>
      <trkpt lat="44.14251" lon="0.6253">
        <ele>73</ele>
        <time>2025-08-10T07:07:39.696Z</time>
      </trkpt>
      <trkpt lat="44.1425" lon="0.6253">
        <ele>73</ele>
        <time>2025-08-10T07:07:40.696Z</time>
      </trkpt>
      <trkpt lat="44.14249" lon="0.6253">
        <ele>73</ele>
        <time>2025-08-10T07:07:41.696Z</time>
      </trkpt>
      <trkpt lat="44.14247" lon="0.6253">
        <ele>73</ele>
        <time>2025-08-10T07:07:42.696Z</time>
      </trkpt>
      <trkpt lat="44.14246" lon="0.6253">
        <ele>73</ele>
        <time>2025-08-10T07:07:43.696Z</time>
      </trkpt>
      <trkpt lat="44.14245" lon="0.6253">
        <ele>73</ele>
        <time>2025-08-10T07:07:44.696Z</time>
      </trkpt>
      <trkpt lat="44.14243" lon="0.6253">
        <ele>74</ele>
        <time>2025-08-10T07:07:45.696Z</time>
      </trkpt>
      <trkpt lat="44.14242" lon="0.62531">
        <ele>74</ele>
        <time>2025-08-10T07:07:46.696Z</time>
      </trkpt>
      <trkpt lat="44.14241" lon="0.62531">
        <ele>74</ele>
        <time>2025-08-10T07:07:47.696Z</time>
      </trkpt>
      <trkpt lat="44.14239" lon="0.62531">
        <ele>75</ele>
        <time>2025-08-10T07:07:48.696Z</time>
      </trkpt>
      <trkpt lat="44.14238" lon="0.62532">
        <ele>75</ele>
        <time>2025-08-10T07:07:49.696Z</time>
      </trkpt>
      <trkpt lat="44.14237" lon="0.62532">
        <ele>75</ele>
        <time>2025-08-10T07:07:50.696Z</time>
      </trkpt>
      <trkpt lat="44.14236" lon="0.62532">
        <ele>75</ele>
        <time>2025-08-10T07:07:51.696Z</time>
      </trkpt>
      <trkpt lat="44.14235" lon="0.62532">
        <ele>75</ele>
        <time>2025-08-10T07:07:52.696Z</time>
      </trkpt>
      <trkpt lat="44.14234" lon="0.62531">
        <ele>74</ele>
        <time>2025-08-10T07:07:53.696Z</time>
      </trkpt>
      <trkpt lat="44.14232" lon="0.62531">
        <ele>74</ele>
        <time>2025-08-10T07:07:54.696Z</time>
      </trkpt>
      <trkpt lat="44.1423" lon="0.62532">
        <ele>73</ele>
        <time>2025-08-10T07:07:55.697Z</time>
      </trkpt>
      <trkpt lat="44.14229" lon="0.62532">
        <ele>73</ele>
        <time>2025-08-10T07:07:56.696Z</time>
      </trkpt>
      <trkpt lat="44.14228" lon="0.62532">
        <ele>72</ele>
        <time>2025-08-10T07:07:57.696Z</time>
      </trkpt>
      <trkpt lat="44.14227" lon="0.62532">
        <ele>72</ele>
        <time>2025-08-10T07:07:58.696Z</time>
      </trkpt>
      <trkpt lat="44.14226" lon="0.62532">
        <ele>72</ele>
        <time>2025-08-10T07:07:59.696Z</time>
      </trkpt>
      <trkpt lat="44.14225" lon="0.62533">
        <ele>72</ele>
        <time>2025-08-10T07:08:00.696Z</time>
      </trkpt>
      <trkpt lat="44.14224" lon="0.62533">
        <ele>72</ele>
        <time>2025-08-10T07:08:01.696Z</time>
      </trkpt>
      <trkpt lat="44.14223" lon="0.62534">
        <ele>72</ele>
        <time>2025-08-10T07:08:02.696Z</time>
      </trkpt>
      <trkpt lat="44.14222" lon="0.62535">
        <ele>72</ele>
        <time>2025-08-10T07:08:03.696Z</time>
      </trkpt>
      <trkpt lat="44.14222" lon="0.62536">
        <ele>72</ele>
        <time>2025-08-10T07:08:04.696Z</time>
      </trkpt>
      <trkpt lat="44.1422" lon="0.62536">
        <ele>73</ele>
        <time>2025-08-10T07:08:05.696Z</time>
      </trkpt>
      <trkpt lat="44.14219" lon="0.62537">
        <ele>73</ele>
        <time>2025-08-10T07:08:06.696Z</time>
      </trkpt>
      <trkpt lat="44.14218" lon="0.62537">
        <ele>73</ele>
        <time>2025-08-10T07:08:07.696Z</time>
      </trkpt>
      <trkpt lat="44.14217" lon="0.62538">
        <ele>73</ele>
        <time>2025-08-10T07:08:08.696Z</time>
      </trkpt>
      <trkpt lat="44.14216" lon="0.62538">
        <ele>73</ele>
        <time>2025-08-10T07:08:09.696Z</time>
      </trkpt>
      <trkpt lat="44.14216" lon="0.62537">
        <ele>73</ele>
        <time>2025-08-10T07:08:10.696Z</time>
      </trkpt>
      <trkpt lat="44.14215" lon="0.62538">
        <ele>73</ele>
        <time>2025-08-10T07:08:11.696Z</time>
      </trkpt>
      <trkpt lat="44.14214" lon="0.62538">
        <ele>73</ele>
        <time>2025-08-10T07:08:12.696Z</time>
      </trkpt>
      <trkpt lat="44.14213" lon="0.62539">
        <ele>72</ele>
        <time>2025-08-10T07:08:13.696Z</time>
      </trkpt>
      <trkpt lat="44.14212" lon="0.62539">
        <ele>72</ele>
        <time>2025-08-10T07:08:14.696Z</time>
      </trkpt>
      <trkpt lat="44.14211" lon="0.6254">
        <ele>72</ele>
        <time>2025-08-10T07:08:15.696Z</time>
      </trkpt>
      <trkpt lat="44.1421" lon="0.6254">
        <ele>71</ele>
        <time>2025-08-10T07:08:16.696Z</time>
      </trkpt>
      <trkpt lat="44.1421" lon="0.62541">
        <ele>71</ele>
        <time>2025-08-10T07:08:17.696Z</time>
      </trkpt>
      <trkpt lat="44.14208" lon="0.62542">
        <ele>70</ele>
        <time>2025-08-10T07:08:18.696Z</time>
      </trkpt>
      <trkpt lat="44.14207" lon="0.62543">
        <ele>70</ele>
        <time>2025-08-10T07:08:19.697Z</time>
      </trkpt>
      <trkpt lat="44.14207" lon="0.62544">
        <ele>70</ele>
        <time>2025-08-10T07:08:20.697Z</time>
      </trkpt>
      <trkpt lat="44.14206" lon="0.62544">
        <ele>70</ele>
        <time>2025-08-10T07:08:21.696Z</time>
      </trkpt>
      <trkpt lat="44.14205" lon="0.62545">
        <ele>70</ele>
        <time>2025-08-10T07:08:22.696Z</time>
      </trkpt>
      <trkpt lat="44.14204" lon="0.62545">
        <ele>70</ele>
        <time>2025-08-10T07:08:23.696Z</time>
      </trkpt>
      <trkpt lat="44.14204" lon="0.62546">
        <ele>70</ele>
        <time>2025-08-10T07:08:24.696Z</time>
      </trkpt>
      <trkpt lat="44.14203" lon="0.62546">
        <ele>70</ele>
        <time>2025-08-10T07:08:25.696Z</time>
      </trkpt>
      <trkpt lat="44.14203" lon="0.62546">
        <ele>70</ele>
        <time>2025-08-10T07:08:26.696Z</time>
      </trkpt>
      <trkpt lat="44.14203" lon="0.62547">
        <ele>70</ele>
        <time>2025-08-10T07:08:27.696Z</time>
      </trkpt>
      <trkpt lat="44.14202" lon="0.62548">
        <ele>70</ele>
        <time>2025-08-10T07:08:28.696Z</time>
      </trkpt>
      <trkpt lat="44.14201" lon="0.62548">
        <ele>70</ele>
        <time>2025-08-10T07:08:29.696Z</time>
      </trkpt>
      <trkpt lat="44.142" lon="0.62549">
        <ele>71</ele>
        <time>2025-08-10T07:08:30.696Z</time>
      </trkpt>
      <trkpt lat="44.142" lon="0.62549">
        <ele>71</ele>
        <time>2025-08-10T07:08:31.696Z</time>
      </trkpt>
      <trkpt lat="44.14199" lon="0.6255">
        <ele>71</ele>
        <time>2025-08-10T07:08:32.696Z</time>
      </trkpt>
      <trkpt lat="44.14198" lon="0.62551">
        <ele>72</ele>
        <time>2025-08-10T07:08:33.696Z</time>
      </trkpt>
      <trkpt lat="44.14197" lon="0.62551">
        <ele>72</ele>
        <time>2025-08-10T07:08:34.696Z</time>
      </trkpt>
      <trkpt lat="44.14196" lon="0.62552">
        <ele>72</ele>
        <time>2025-08-10T07:08:35.696Z</time>
      </trkpt>
      <trkpt lat="44.14195" lon="0.62552">
        <ele>72</ele>
        <time>2025-08-10T07:08:36.696Z</time>
      </trkpt>
      <trkpt lat="44.14195" lon="0.62552">
        <ele>72</ele>
        <time>2025-08-10T07:08:37.696Z</time>
      </trkpt>
      <trkpt lat="44.14194" lon="0.62553">
        <ele>72</ele>
        <time>2025-08-10T07:08:38.696Z</time>
      </trkpt>
      <trkpt lat="44.14193" lon="0.62553">
        <ele>73</ele>
        <time>2025-08-10T07:08:39.696Z</time>
      </trkpt>
      <trkpt lat="44.14191" lon="0.62554">
        <ele>73</ele>
        <time>2025-08-10T07:08:40.696Z</time>
      </trkpt>
      <trkpt lat="44.1419" lon="0.62554">
        <ele>73</ele>
        <time>2025-08-10T07:08:41.696Z</time>
      </trkpt>
      <trkpt lat="44.14189" lon="0.62555">
        <ele>74</ele>
        <time>2025-08-10T07:08:42.696Z</time>
      </trkpt>
      <trkpt lat="44.14188" lon="0.62555">
        <ele>74</ele>
        <time>2025-08-10T07:08:43.696Z</time>
      </trkpt>
      <trkpt lat="44.14187" lon="0.62555">
        <ele>74</ele>
        <time>2025-08-10T07:08:44.696Z</time>
      </trkpt>
      <trkpt lat="44.14185" lon="0.62555">
        <ele>74</ele>
        <time>2025-08-10T07:08:45.696Z</time>
      </trkpt>
      <trkpt lat="44.14184" lon="0.62555">
        <ele>73</ele>
        <time>2025-08-10T07:08:46.696Z</time>
      </trkpt>
      <trkpt lat="44.14183" lon="0.62555">
        <ele>73</ele>
        <time>2025-08-10T07:08:47.696Z</time>
      </trkpt>
      <trkpt lat="44.14182" lon="0.62555">
        <ele>73</ele>
        <time>2025-08-10T07:08:48.696Z</time>
      </trkpt>
      <trkpt lat="44.14181" lon="0.62555">
        <ele>73</ele>
        <time>2025-08-10T07:08:49.696Z</time>
      </trkpt>
      <trkpt lat="44.1418" lon="0.62555">
        <ele>72</ele>
        <time>2025-08-10T07:08:50.696Z</time>
      </trkpt>
      <trkpt lat="44.14179" lon="0.62555">
        <ele>72</ele>
        <time>2025-08-10T07:08:51.696Z</time>
      </trkpt>
      <trkpt lat="44.14178" lon="0.62555">
        <ele>72</ele>
        <time>2025-08-10T07:08:52.696Z</time>
      </trkpt>
      <trkpt lat="44.14177" lon="0.62554">
        <ele>71</ele>
        <time>2025-08-10T07:08:53.696Z</time>
      </trkpt>
      <trkpt lat="44.14176" lon="0.62554">
        <ele>71</ele>
        <time>2025-08-10T07:08:54.696Z</time>
      </trkpt>
      <trkpt lat="44.14174" lon="0.62554">
        <ele>70</ele>
        <time>2025-08-10T07:08:55.696Z</time>
      </trkpt>
      <trkpt lat="44.14173" lon="0.62554">
        <ele>70</ele>
        <time>2025-08-10T07:08:56.696Z</time>
      </trkpt>
      <trkpt lat="44.14173" lon="0.62554">
        <ele>70</ele>
        <time>2025-08-10T07:08:57.696Z</time>
      </trkpt>
      <trkpt lat="44.14172" lon="0.62554">
        <ele>70</ele>
        <time>2025-08-10T07:08:58.696Z</time>
      </trkpt>
      <trkpt lat="44.14172" lon="0.62554">
        <ele>70</ele>
        <time>2025-08-10T07:08:59.696Z</time>
      </trkpt>
      <trkpt lat="44.14172" lon="0.62554">
        <ele>70</ele>
        <time>2025-08-10T07:09:00.696Z</time>
      </trkpt>
      <trkpt lat="44.14172" lon="0.62554">
        <ele>71</ele>
        <time>2025-08-10T07:09:01.696Z</time>
      </trkpt>
      <trkpt lat="44.14172" lon="0.62554">
        <ele>71</ele>
        <time>2025-08-10T07:09:02.696Z</time>
      </trkpt>
      <trkpt lat="44.14172" lon="0.62553">
        <ele>71</ele>
        <time>2025-08-10T07:09:03.696Z</time>
      </trkpt>
      <trkpt lat="44.14171" lon="0.62553">
        <ele>71</ele>
        <time>2025-08-10T07:09:04.696Z</time>
      </trkpt>
      <trkpt lat="44.14171" lon="0.62553">
        <ele>71</ele>
        <time>2025-08-10T07:09:05.696Z</time>
      </trkpt>
      <trkpt lat="44.14171" lon="0.62553">
        <ele>71</ele>
        <time>2025-08-10T07:09:06.696Z</time>
      </trkpt>
      <trkpt lat="44.1417" lon="0.62553">
        <ele>72</ele>
        <time>2025-08-10T07:09:07.696Z</time>
      </trkpt>
      <trkpt lat="44.14169" lon="0.62553">
        <ele>72</ele>
        <time>2025-08-10T07:09:08.696Z</time>
      </trkpt>
      <trkpt lat="44.14168" lon="0.62553">
        <ele>72</ele>
        <time>2025-08-10T07:09:09.696Z</time>
      </trkpt>
      <trkpt lat="44.14168" lon="0.62553">
        <ele>71</ele>
        <time>2025-08-10T07:09:10.696Z</time>
      </trkpt>
      <trkpt lat="44.14167" lon="0.62553">
        <ele>71</ele>
        <time>2025-08-10T07:09:11.696Z</time>
      </trkpt>
      <trkpt lat="44.14166" lon="0.62552">
        <ele>70</ele>
        <time>2025-08-10T07:09:12.696Z</time>
      </trkpt>
      <trkpt lat="44.14165" lon="0.62552">
        <ele>70</ele>
        <time>2025-08-10T07:09:13.696Z</time>
      </trkpt>
      <trkpt lat="44.14164" lon="0.62552">
        <ele>70</ele>
        <time>2025-08-10T07:09:14.696Z</time>
      </trkpt>
      <trkpt lat="44.14163" lon="0.62552">
        <ele>70</ele>
        <time>2025-08-10T07:09:15.696Z</time>
      </trkpt>
      <trkpt lat="44.14162" lon="0.62552">
        <ele>70</ele>
        <time>2025-08-10T07:09:16.696Z</time>
      </trkpt>
      <trkpt lat="44.14161" lon="0.62552">
        <ele>70</ele>
        <time>2025-08-10T07:09:17.696Z</time>
      </trkpt>
      <trkpt lat="44.1416" lon="0.62552">
        <ele>70</ele>
        <time>2025-08-10T07:09:18.696Z</time>
      </trkpt>
      <trkpt lat="44.14159" lon="0.62552">
        <ele>70</ele>
        <time>2025-08-10T07:09:19.696Z</time>
      </trkpt>
      <trkpt lat="44.14158" lon="0.62552">
        <ele>70</ele>
        <time>2025-08-10T07:09:20.696Z</time>
      </trkpt>
      <trkpt lat="44.14157" lon="0.62552">
        <ele>70</ele>
        <time>2025-08-10T07:09:21.696Z</time>
      </trkpt>
      <trkpt lat="44.14157" lon="0.62551">
        <ele>70</ele>
        <time>2025-08-10T07:09:22.696Z</time>
      </trkpt>
      <trkpt lat="44.14156" lon="0.62551">
        <ele>70</ele>
        <time>2025-08-10T07:09:23.696Z</time>
      </trkpt>
      <trkpt lat="44.14155" lon="0.6255">
        <ele>70</ele>
        <time>2025-08-10T07:09:24.696Z</time>
      </trkpt>
      <trkpt lat="44.14154" lon="0.6255">
        <ele>70</ele>
        <time>2025-08-10T07:09:25.696Z</time>
      </trkpt>
      <trkpt lat="44.14153" lon="0.62549">
        <ele>71</ele>
        <time>2025-08-10T07:09:26.696Z</time>
      </trkpt>
      <trkpt lat="44.14153" lon="0.62549">
        <ele>71</ele>
        <time>2025-08-10T07:09:27.696Z</time>
      </trkpt>
      <trkpt lat="44.14152" lon="0.62549">
        <ele>71</ele>
        <time>2025-08-10T07:09:28.696Z</time>
      </trkpt>
      <trkpt lat="44.14151" lon="0.6255">
        <ele>72</ele>
        <time>2025-08-10T07:09:29.696Z</time>
      </trkpt>
      <trkpt lat="44.14151" lon="0.6255">
        <ele>72</ele>
        <time>2025-08-10T07:09:30.696Z</time>
      </trkpt>
      <trkpt lat="44.1415" lon="0.6255">
        <ele>72</ele>
        <time>2025-08-10T07:09:31.696Z</time>
      </trkpt>
      <trkpt lat="44.14149" lon="0.6255">
        <ele>72</ele>
        <time>2025-08-10T07:09:32.696Z</time>
      </trkpt>
      <trkpt lat="44.14149" lon="0.62549">
        <ele>73</ele>
        <time>2025-08-10T07:09:33.696Z</time>
      </trkpt>
      <trkpt lat="44.14149" lon="0.62549">
        <ele>73</ele>
        <time>2025-08-10T07:09:34.696Z</time>
      </trkpt>
      <trkpt lat="44.14148" lon="0.62549">
        <ele>73</ele>
        <time>2025-08-10T07:09:35.696Z</time>
      </trkpt>
      <trkpt lat="44.14147" lon="0.62548">
        <ele>73</ele>
        <time>2025-08-10T07:09:36.696Z</time>
      </trkpt>
      <trkpt lat="44.14144" lon="0.62549">
        <ele>74</ele>
        <time>2025-08-10T07:09:37.696Z</time>
      </trkpt>
      <trkpt lat="44.14143" lon="0.62549">
        <ele>74</ele>
        <time>2025-08-10T07:09:38.696Z</time>
      </trkpt>
      <trkpt lat="44.14142" lon="0.62549">
        <ele>74</ele>
        <time>2025-08-10T07:09:39.696Z</time>
      </trkpt>
      <trkpt lat="44.14141" lon="0.62549">
        <ele>74</ele>
        <time>2025-08-10T07:09:40.696Z</time>
      </trkpt>
      <trkpt lat="44.1414" lon="0.62549">
        <ele>75</ele>
        <time>2025-08-10T07:09:41.696Z</time>
      </trkpt>
      <trkpt lat="44.14139" lon="0.6255">
        <ele>75</ele>
        <time>2025-08-10T07:09:42.696Z</time>
      </trkpt>
      <trkpt lat="44.14138" lon="0.6255">
        <ele>75</ele>
        <time>2025-08-10T07:09:43.696Z</time>
      </trkpt>
      <trkpt lat="44.14137" lon="0.6255">
        <ele>76</ele>
        <time>2025-08-10T07:09:44.696Z</time>
      </trkpt>
      <trkpt lat="44.14135" lon="0.62549">
        <ele>76</ele>
        <time>2025-08-10T07:09:45.696Z</time>
      </trkpt>
      <trkpt lat="44.14134" lon="0.62548">
        <ele>76</ele>
        <time>2025-08-10T07:09:46.696Z</time>
      </trkpt>
      <trkpt lat="44.14133" lon="0.62547">
        <ele>76</ele>
        <time>2025-08-10T07:09:47.696Z</time>
      </trkpt>
      <trkpt lat="44.14133" lon="0.62546">
        <ele>76</ele>
        <time>2025-08-10T07:09:48.696Z</time>
      </trkpt>
      <trkpt lat="44.14132" lon="0.62545">
        <ele>76</ele>
        <time>2025-08-10T07:09:49.696Z</time>
      </trkpt>
      <trkpt lat="44.14131" lon="0.62544">
        <ele>75</ele>
        <time>2025-08-10T07:09:50.696Z</time>
      </trkpt>
      <trkpt lat="44.1413" lon="0.62543">
        <ele>75</ele>
        <time>2025-08-10T07:09:51.696Z</time>
      </trkpt>
      <trkpt lat="44.14129" lon="0.62541">
        <ele>74</ele>
        <time>2025-08-10T07:09:52.696Z</time>
      </trkpt>
      <trkpt lat="44.14128" lon="0.62539">
        <ele>74</ele>
        <time>2025-08-10T07:09:53.696Z</time>
      </trkpt>
      <trkpt lat="44.14127" lon="0.62539">
        <ele>73</ele>
        <time>2025-08-10T07:09:54.696Z</time>
      </trkpt>
      <trkpt lat="44.14127" lon="0.62539">
        <ele>72</ele>
        <time>2025-08-10T07:09:55.696Z</time>
      </trkpt>
      <trkpt lat="44.14127" lon="0.62537">
        <ele>71</ele>
        <time>2025-08-10T07:09:56.696Z</time>
      </trkpt>
      <trkpt lat="44.14126" lon="0.62536">
        <ele>71</ele>
        <time>2025-08-10T07:09:57.696Z</time>
      </trkpt>
      <trkpt lat="44.14125" lon="0.62536">
        <ele>71</ele>
        <time>2025-08-10T07:09:58.696Z</time>
      </trkpt>
      <trkpt lat="44.14125" lon="0.62535">
        <ele>71</ele>
        <time>2025-08-10T07:09:59.696Z</time>
      </trkpt>
      <trkpt lat="44.14124" lon="0.62535">
        <ele>71</ele>
        <time>2025-08-10T07:10:00.696Z</time>
      </trkpt>
      <trkpt lat="44.14123" lon="0.62535">
        <ele>71</ele>
        <time>2025-08-10T07:10:01.696Z</time>
      </trkpt>
      <trkpt lat="44.14122" lon="0.62534">
        <ele>71</ele>
        <time>2025-08-10T07:10:02.696Z</time>
      </trkpt>
      <trkpt lat="44.14121" lon="0.62533">
        <ele>71</ele>
        <time>2025-08-10T07:10:03.696Z</time>
      </trkpt>
      <trkpt lat="44.1412" lon="0.62532">
        <ele>71</ele>
        <time>2025-08-10T07:10:04.696Z</time>
      </trkpt>
      <trkpt lat="44.14119" lon="0.62532">
        <ele>71</ele>
        <time>2025-08-10T07:10:05.696Z</time>
      </trkpt>
      <trkpt lat="44.14119" lon="0.62531">
        <ele>71</ele>
        <time>2025-08-10T07:10:06.697Z</time>
      </trkpt>
      <trkpt lat="44.14118" lon="0.62531">
        <ele>71</ele>
        <time>2025-08-10T07:10:07.696Z</time>
      </trkpt>
      <trkpt lat="44.14117" lon="0.6253">
        <ele>71</ele>
        <time>2025-08-10T07:10:08.696Z</time>
      </trkpt>
      <trkpt lat="44.14116" lon="0.6253">
        <ele>71</ele>
        <time>2025-08-10T07:10:09.696Z</time>
      </trkpt>
      <trkpt lat="44.14115" lon="0.62529">
        <ele>71</ele>
        <time>2025-08-10T07:10:10.696Z</time>
      </trkpt>
      <trkpt lat="44.14115" lon="0.62528">
        <ele>71</ele>
        <time>2025-08-10T07:10:11.696Z</time>
      </trkpt>
      <trkpt lat="44.14114" lon="0.62528">
        <ele>71</ele>
        <time>2025-08-10T07:10:12.696Z</time>
      </trkpt>
      <trkpt lat="44.14113" lon="0.62528">
        <ele>71</ele>
        <time>2025-08-10T07:10:13.696Z</time>
      </trkpt>
      <trkpt lat="44.14112" lon="0.62527">
        <ele>71</ele>
        <time>2025-08-10T07:10:14.696Z</time>
      </trkpt>
      <trkpt lat="44.14111" lon="0.62527">
        <ele>70</ele>
        <time>2025-08-10T07:10:15.696Z</time>
      </trkpt>
      <trkpt lat="44.1411" lon="0.62527">
        <ele>70</ele>
        <time>2025-08-10T07:10:16.696Z</time>
      </trkpt>
      <trkpt lat="44.14109" lon="0.62526">
        <ele>70</ele>
        <time>2025-08-10T07:10:17.696Z</time>
      </trkpt>
      <trkpt lat="44.14108" lon="0.62525">
        <ele>70</ele>
        <time>2025-08-10T07:10:18.696Z</time>
      </trkpt>
      <trkpt lat="44.14107" lon="0.62524">
        <ele>70</ele>
        <time>2025-08-10T07:10:19.696Z</time>
      </trkpt>
      <trkpt lat="44.14106" lon="0.62523">
        <ele>70</ele>
        <time>2025-08-10T07:10:20.696Z</time>
      </trkpt>
      <trkpt lat="44.14106" lon="0.62523">
        <ele>69</ele>
        <time>2025-08-10T07:10:21.696Z</time>
      </trkpt>
      <trkpt lat="44.14105" lon="0.62522">
        <ele>69</ele>
        <time>2025-08-10T07:10:22.696Z</time>
      </trkpt>
      <trkpt lat="44.14104" lon="0.62521">
        <ele>69</ele>
        <time>2025-08-10T07:10:23.696Z</time>
      </trkpt>
      <trkpt lat="44.14103" lon="0.6252">
        <ele>69</ele>
        <time>2025-08-10T07:10:24.696Z</time>
      </trkpt>
      <trkpt lat="44.14102" lon="0.6252">
        <ele>69</ele>
        <time>2025-08-10T07:10:25.696Z</time>
      </trkpt>
      <trkpt lat="44.14101" lon="0.62519">
        <ele>68</ele>
        <time>2025-08-10T07:10:26.696Z</time>
      </trkpt>
      <trkpt lat="44.14101" lon="0.62519">
        <ele>68</ele>
        <time>2025-08-10T07:10:27.696Z</time>
      </trkpt>
      <trkpt lat="44.141" lon="0.62519">
        <ele>68</ele>
        <time>2025-08-10T07:10:28.696Z</time>
      </trkpt>
      <trkpt lat="44.14099" lon="0.62518">
        <ele>68</ele>
        <time>2025-08-10T07:10:29.696Z</time>
      </trkpt>
      <trkpt lat="44.14099" lon="0.62517">
        <ele>68</ele>
        <time>2025-08-10T07:10:30.696Z</time>
      </trkpt>
      <trkpt lat="44.14098" lon="0.62516">
        <ele>68</ele>
        <time>2025-08-10T07:10:31.696Z</time>
      </trkpt>
      <trkpt lat="44.14097" lon="0.62515">
        <ele>68</ele>
        <time>2025-08-10T07:10:32.696Z</time>
      </trkpt>
      <trkpt lat="44.14096" lon="0.62514">
        <ele>68</ele>
        <time>2025-08-10T07:10:33.696Z</time>
      </trkpt>
      <trkpt lat="44.14095" lon="0.62513">
        <ele>68</ele>
        <time>2025-08-10T07:10:34.696Z</time>
      </trkpt>
      <trkpt lat="44.14095" lon="0.62512">
        <ele>68</ele>
        <time>2025-08-10T07:10:35.696Z</time>
      </trkpt>
      <trkpt lat="44.14094" lon="0.62511">
        <ele>68</ele>
        <time>2025-08-10T07:10:36.696Z</time>
      </trkpt>
      <trkpt lat="44.14093" lon="0.62511">
        <ele>67</ele>
        <time>2025-08-10T07:10:37.696Z</time>
      </trkpt>
      <trkpt lat="44.14093" lon="0.6251">
        <ele>67</ele>
        <time>2025-08-10T07:10:38.696Z</time>
      </trkpt>
      <trkpt lat="44.14092" lon="0.62509">
        <ele>66</ele>
        <time>2025-08-10T07:10:39.696Z</time>
      </trkpt>
      <trkpt lat="44.14092" lon="0.62508">
        <ele>66</ele>
        <time>2025-08-10T07:10:40.696Z</time>
      </trkpt>
      <trkpt lat="44.14091" lon="0.62507">
        <ele>65</ele>
        <time>2025-08-10T07:10:41.696Z</time>
      </trkpt>
      <trkpt lat="44.14091" lon="0.62506">
        <ele>65</ele>
        <time>2025-08-10T07:10:42.696Z</time>
      </trkpt>
      <trkpt lat="44.1409" lon="0.62505">
        <ele>64</ele>
        <time>2025-08-10T07:10:43.696Z</time>
      </trkpt>
      <trkpt lat="44.1409" lon="0.62504">
        <ele>64</ele>
        <time>2025-08-10T07:10:44.696Z</time>
      </trkpt>
      <trkpt lat="44.14089" lon="0.62503">
        <ele>63</ele>
        <time>2025-08-10T07:10:45.696Z</time>
      </trkpt>
      <trkpt lat="44.14088" lon="0.62502">
        <ele>63</ele>
        <time>2025-08-10T07:10:46.696Z</time>
      </trkpt>
      <trkpt lat="44.14087" lon="0.62501">
        <ele>63</ele>
        <time>2025-08-10T07:10:47.696Z</time>
      </trkpt>
      <trkpt lat="44.14087" lon="0.625">
        <ele>63</ele>
        <time>2025-08-10T07:10:48.696Z</time>
      </trkpt>
      <trkpt lat="44.14086" lon="0.62499">
        <ele>63</ele>
        <time>2025-08-10T07:10:49.696Z</time>
      </trkpt>
      <trkpt lat="44.14086" lon="0.62498">
        <ele>63</ele>
        <time>2025-08-10T07:10:50.696Z</time>
      </trkpt>
      <trkpt lat="44.14085" lon="0.62496">
        <ele>63</ele>
        <time>2025-08-10T07:10:51.696Z</time>
      </trkpt>
      <trkpt lat="44.14084" lon="0.62495">
        <ele>63</ele>
        <time>2025-08-10T07:10:52.696Z</time>
      </trkpt>
      <trkpt lat="44.14084" lon="0.62494">
        <ele>63</ele>
        <time>2025-08-10T07:10:53.696Z</time>
      </trkpt>
      <trkpt lat="44.14083" lon="0.62493">
        <ele>63</ele>
        <time>2025-08-10T07:10:54.696Z</time>
      </trkpt>
      <trkpt lat="44.14082" lon="0.62492">
        <ele>63</ele>
        <time>2025-08-10T07:10:55.696Z</time>
      </trkpt>
      <trkpt lat="44.14082" lon="0.62491">
        <ele>63</ele>
        <time>2025-08-10T07:10:56.696Z</time>
      </trkpt>
      <trkpt lat="44.14082" lon="0.62489">
        <ele>63</ele>
        <time>2025-08-10T07:10:57.696Z</time>
      </trkpt>
      <trkpt lat="44.14082" lon="0.62487">
        <ele>63</ele>
        <time>2025-08-10T07:10:58.696Z</time>
      </trkpt>
      <trkpt lat="44.14082" lon="0.62487">
        <ele>63</ele>
        <time>2025-08-10T07:10:59.696Z</time>
      </trkpt>
      <trkpt lat="44.14082" lon="0.62486">
        <ele>62</ele>
        <time>2025-08-10T07:11:00.696Z</time>
      </trkpt>
      <trkpt lat="44.14082" lon="0.62486">
        <ele>62</ele>
        <time>2025-08-10T07:11:01.696Z</time>
      </trkpt>
      <trkpt lat="44.14082" lon="0.62486">
        <ele>62</ele>
        <time>2025-08-10T07:11:02.696Z</time>
      </trkpt>
      <trkpt lat="44.14082" lon="0.62486">
        <ele>62</ele>
        <time>2025-08-10T07:11:03.697Z</time>
      </trkpt>
      <trkpt lat="44.14082" lon="0.62486">
        <ele>63</ele>
        <time>2025-08-10T07:11:04.696Z</time>
      </trkpt>
      <trkpt lat="44.14082" lon="0.62486">
        <ele>63</ele>
        <time>2025-08-10T07:11:05.696Z</time>
      </trkpt>
      <trkpt lat="44.14082" lon="0.62486">
        <ele>63</ele>
        <time>2025-08-10T07:11:06.696Z</time>
      </trkpt>
      <trkpt lat="44.14082" lon="0.62485">
        <ele>64</ele>
        <time>2025-08-10T07:11:07.696Z</time>
      </trkpt>
      <trkpt lat="44.1408" lon="0.62485">
        <ele>64</ele>
        <time>2025-08-10T07:11:08.696Z</time>
      </trkpt>
      <trkpt lat="44.1408" lon="0.62484">
        <ele>64</ele>
        <time>2025-08-10T07:11:09.696Z</time>
      </trkpt>
      <trkpt lat="44.1408" lon="0.62484">
        <ele>64</ele>
        <time>2025-08-10T07:11:10.696Z</time>
      </trkpt>
      <trkpt lat="44.14079" lon="0.62484">
        <ele>64</ele>
        <time>2025-08-10T07:11:11.696Z</time>
      </trkpt>
      <trkpt lat="44.14079" lon="0.62484">
        <ele>64</ele>
        <time>2025-08-10T07:11:12.696Z</time>
      </trkpt>
      <trkpt lat="44.14079" lon="0.62484">
        <ele>63</ele>
        <time>2025-08-10T07:11:13.696Z</time>
      </trkpt>
      <trkpt lat="44.14079" lon="0.62484">
        <ele>63</ele>
        <time>2025-08-10T07:11:14.696Z</time>
      </trkpt>
      <trkpt lat="44.14078" lon="0.62484">
        <ele>63</ele>
        <time>2025-08-10T07:11:15.696Z</time>
      </trkpt>
      <trkpt lat="44.14078" lon="0.62484">
        <ele>62</ele>
        <time>2025-08-10T07:11:16.696Z</time>
      </trkpt>
      <trkpt lat="44.14078" lon="0.62484">
        <ele>62</ele>
        <time>2025-08-10T07:11:17.696Z</time>
      </trkpt>
      <trkpt lat="44.14078" lon="0.62484">
        <ele>62</ele>
        <time>2025-08-10T07:11:18.696Z</time>
      </trkpt>
      <trkpt lat="44.14079" lon="0.62484">
        <ele>62</ele>
        <time>2025-08-10T07:11:19.696Z</time>
      </trkpt>
      <trkpt lat="44.14079" lon="0.62484">
        <ele>61</ele>
        <time>2025-08-10T07:11:20.696Z</time>
      </trkpt>
      <trkpt lat="44.14079" lon="0.62484">
        <ele>61</ele>
        <time>2025-08-10T07:11:21.696Z</time>
      </trkpt>
      <trkpt lat="44.14079" lon="0.62484">
        <ele>61</ele>
        <time>2025-08-10T07:11:22.696Z</time>
      </trkpt>
      <trkpt lat="44.14078" lon="0.62483">
        <ele>61</ele>
        <time>2025-08-10T07:11:23.696Z</time>
      </trkpt>
      <trkpt lat="44.14078" lon="0.62482">
        <ele>61</ele>
        <time>2025-08-10T07:11:24.696Z</time>
      </trkpt>
      <trkpt lat="44.14078" lon="0.62482">
        <ele>61</ele>
        <time>2025-08-10T07:11:25.696Z</time>
      </trkpt>
      <trkpt lat="44.14077" lon="0.62481">
        <ele>61</ele>
        <time>2025-08-10T07:11:26.696Z</time>
      </trkpt>
      <trkpt lat="44.14076" lon="0.62481">
        <ele>62</ele>
        <time>2025-08-10T07:11:27.696Z</time>
      </trkpt>
      <trkpt lat="44.14075" lon="0.6248">
        <ele>62</ele>
        <time>2025-08-10T07:11:28.696Z</time>
      </trkpt>
      <trkpt lat="44.14074" lon="0.62479">
        <ele>62</ele>
        <time>2025-08-10T07:11:29.696Z</time>
      </trkpt>
      <trkpt lat="44.14073" lon="0.62477">
        <ele>63</ele>
        <time>2025-08-10T07:11:30.696Z</time>
      </trkpt>
      <trkpt lat="44.14073" lon="0.62476">
        <ele>63</ele>
        <time>2025-08-10T07:11:31.696Z</time>
      </trkpt>
      <trkpt lat="44.14073" lon="0.62475">
        <ele>63</ele>
        <time>2025-08-10T07:11:32.696Z</time>
      </trkpt>
      <trkpt lat="44.14073" lon="0.62475">
        <ele>63</ele>
        <time>2025-08-10T07:11:33.696Z</time>
      </trkpt>
      <trkpt lat="44.14073" lon="0.62474">
        <ele>63</ele>
        <time>2025-08-10T07:11:34.696Z</time>
      </trkpt>
      <trkpt lat="44.14073" lon="0.62473">
        <ele>63</ele>
        <time>2025-08-10T07:11:35.696Z</time>
      </trkpt>
      <trkpt lat="44.14072" lon="0.62472">
        <ele>64</ele>
        <time>2025-08-10T07:11:36.696Z</time>
      </trkpt>
      <trkpt lat="44.14072" lon="0.62471">
        <ele>64</ele>
        <time>2025-08-10T07:11:37.696Z</time>
      </trkpt>
      <trkpt lat="44.14072" lon="0.6247">
        <ele>64</ele>
        <time>2025-08-10T07:11:38.696Z</time>
      </trkpt>
      <trkpt lat="44.14072" lon="0.6247">
        <ele>65</ele>
        <time>2025-08-10T07:11:39.696Z</time>
      </trkpt>
      <trkpt lat="44.14072" lon="0.62469">
        <ele>65</ele>
        <time>2025-08-10T07:11:40.696Z</time>
      </trkpt>
      <trkpt lat="44.14071" lon="0.62468">
        <ele>65</ele>
        <time>2025-08-10T07:11:41.696Z</time>
      </trkpt>
      <trkpt lat="44.1407" lon="0.62466">
        <ele>66</ele>
        <time>2025-08-10T07:11:42.696Z</time>
      </trkpt>
      <trkpt lat="44.14069" lon="0.62465">
        <ele>66</ele>
        <time>2025-08-10T07:11:43.696Z</time>
      </trkpt>
      <trkpt lat="44.14069" lon="0.62464">
        <ele>66</ele>
        <time>2025-08-10T07:11:44.696Z</time>
      </trkpt>
      <trkpt lat="44.14068" lon="0.62464">
        <ele>66</ele>
        <time>2025-08-10T07:11:45.696Z</time>
      </trkpt>
      <trkpt lat="44.14067" lon="0.62463">
        <ele>66</ele>
        <time>2025-08-10T07:11:46.696Z</time>
      </trkpt>
      <trkpt lat="44.14067" lon="0.62462">
        <ele>66</ele>
        <time>2025-08-10T07:11:47.696Z</time>
      </trkpt>
      <trkpt lat="44.14067" lon="0.62461">
        <ele>66</ele>
        <time>2025-08-10T07:11:48.696Z</time>
      </trkpt>
      <trkpt lat="44.14066" lon="0.6246">
        <ele>66</ele>
        <time>2025-08-10T07:11:49.696Z</time>
      </trkpt>
      <trkpt lat="44.14065" lon="0.62459">
        <ele>65</ele>
        <time>2025-08-10T07:11:50.696Z</time>
      </trkpt>
      <trkpt lat="44.14064" lon="0.62458">
        <ele>65</ele>
        <time>2025-08-10T07:11:51.696Z</time>
      </trkpt>
      <trkpt lat="44.14064" lon="0.62458">
        <ele>65</ele>
        <time>2025-08-10T07:11:52.696Z</time>
      </trkpt>
      <trkpt lat="44.14063" lon="0.62457">
        <ele>65</ele>
        <time>2025-08-10T07:11:53.696Z</time>
      </trkpt>
      <trkpt lat="44.14063" lon="0.62456">
        <ele>65</ele>
        <time>2025-08-10T07:11:54.696Z</time>
      </trkpt>
      <trkpt lat="44.14062" lon="0.62455">
        <ele>65</ele>
        <time>2025-08-10T07:11:55.696Z</time>
      </trkpt>
      <trkpt lat="44.14062" lon="0.62453">
        <ele>65</ele>
        <time>2025-08-10T07:11:56.696Z</time>
      </trkpt>
      <trkpt lat="44.14061" lon="0.62452">
        <ele>65</ele>
        <time>2025-08-10T07:11:57.696Z</time>
      </trkpt>
      <trkpt lat="44.14061" lon="0.6245">
        <ele>65</ele>
        <time>2025-08-10T07:11:58.696Z</time>
      </trkpt>
      <trkpt lat="44.1406" lon="0.62449">
        <ele>65</ele>
        <time>2025-08-10T07:11:59.696Z</time>
      </trkpt>
      <trkpt lat="44.1406" lon="0.62448">
        <ele>64</ele>
        <time>2025-08-10T07:12:00.696Z</time>
      </trkpt>
      <trkpt lat="44.14059" lon="0.62447">
        <ele>64</ele>
        <time>2025-08-10T07:12:01.696Z</time>
      </trkpt>
      <trkpt lat="44.14058" lon="0.62446">
        <ele>64</ele>
        <time>2025-08-10T07:12:02.696Z</time>
      </trkpt>
      <trkpt lat="44.14058" lon="0.62445">
        <ele>64</ele>
        <time>2025-08-10T07:12:03.696Z</time>
      </trkpt>
      <trkpt lat="44.14057" lon="0.62444">
        <ele>63</ele>
        <time>2025-08-10T07:12:04.696Z</time>
      </trkpt>
      <trkpt lat="44.14057" lon="0.62442">
        <ele>63</ele>
        <time>2025-08-10T07:12:05.696Z</time>
      </trkpt>
      <trkpt lat="44.14057" lon="0.62441">
        <ele>63</ele>
        <time>2025-08-10T07:12:06.696Z</time>
      </trkpt>
      <trkpt lat="44.14057" lon="0.62441">
        <ele>63</ele>
        <time>2025-08-10T07:12:07.696Z</time>
      </trkpt>
      <trkpt lat="44.14057" lon="0.6244">
        <ele>63</ele>
        <time>2025-08-10T07:12:08.696Z</time>
      </trkpt>
      <trkpt lat="44.14056" lon="0.62439">
        <ele>63</ele>
        <time>2025-08-10T07:12:09.696Z</time>
      </trkpt>
      <trkpt lat="44.14055" lon="0.62438">
        <ele>63</ele>
        <time>2025-08-10T07:12:10.696Z</time>
      </trkpt>
      <trkpt lat="44.14054" lon="0.62436">
        <ele>63</ele>
        <time>2025-08-10T07:12:11.696Z</time>
      </trkpt>
      <trkpt lat="44.14053" lon="0.62434">
        <ele>63</ele>
        <time>2025-08-10T07:12:12.696Z</time>
      </trkpt>
      <trkpt lat="44.14053" lon="0.62433">
        <ele>63</ele>
        <time>2025-08-10T07:12:13.696Z</time>
      </trkpt>
      <trkpt lat="44.14053" lon="0.62432">
        <ele>63</ele>
        <time>2025-08-10T07:12:14.696Z</time>
      </trkpt>
      <trkpt lat="44.14052" lon="0.62431">
        <ele>64</ele>
        <time>2025-08-10T07:12:15.696Z</time>
      </trkpt>
      <trkpt lat="44.14052" lon="0.6243">
        <ele>65</ele>
        <time>2025-08-10T07:12:16.696Z</time>
      </trkpt>
      <trkpt lat="44.14051" lon="0.62429">
        <ele>65</ele>
        <time>2025-08-10T07:12:17.697Z</time>
      </trkpt>
      <trkpt lat="44.14051" lon="0.62428">
        <ele>66</ele>
        <time>2025-08-10T07:12:18.696Z</time>
      </trkpt>
      <trkpt lat="44.1405" lon="0.62427">
        <ele>66</ele>
        <time>2025-08-10T07:12:19.696Z</time>
      </trkpt>
      <trkpt lat="44.14049" lon="0.62425">
        <ele>66</ele>
        <time>2025-08-10T07:12:20.696Z</time>
      </trkpt>
      <trkpt lat="44.14048" lon="0.62424">
        <ele>66</ele>
        <time>2025-08-10T07:12:21.696Z</time>
      </trkpt>
      <trkpt lat="44.14047" lon="0.62423">
        <ele>66</ele>
        <time>2025-08-10T07:12:22.696Z</time>
      </trkpt>
      <trkpt lat="44.14046" lon="0.62422">
        <ele>66</ele>
        <time>2025-08-10T07:12:23.696Z</time>
      </trkpt>
      <trkpt lat="44.14046" lon="0.62421">
        <ele>66</ele>
        <time>2025-08-10T07:12:24.696Z</time>
      </trkpt>
      <trkpt lat="44.14045" lon="0.62421">
        <ele>66</ele>
        <time>2025-08-10T07:12:25.696Z</time>
      </trkpt>
      <trkpt lat="44.14044" lon="0.6242">
        <ele>66</ele>
        <time>2025-08-10T07:12:26.696Z</time>
      </trkpt>
      <trkpt lat="44.14043" lon="0.62419">
        <ele>66</ele>
        <time>2025-08-10T07:12:27.696Z</time>
      </trkpt>
      <trkpt lat="44.14042" lon="0.62418">
        <ele>66</ele>
        <time>2025-08-10T07:12:28.696Z</time>
      </trkpt>
      <trkpt lat="44.14041" lon="0.62417">
        <ele>66</ele>
        <time>2025-08-10T07:12:29.696Z</time>
      </trkpt>
      <trkpt lat="44.1404" lon="0.62417">
        <ele>66</ele>
        <time>2025-08-10T07:12:30.696Z</time>
      </trkpt>
      <trkpt lat="44.1404" lon="0.62416">
        <ele>67</ele>
        <time>2025-08-10T07:12:31.696Z</time>
      </trkpt>
      <trkpt lat="44.14039" lon="0.62416">
        <ele>67</ele>
        <time>2025-08-10T07:12:32.696Z</time>
      </trkpt>
      <trkpt lat="44.14039" lon="0.62415">
        <ele>67</ele>
        <time>2025-08-10T07:12:33.697Z</time>
      </trkpt>
      <trkpt lat="44.14038" lon="0.62414">
        <ele>67</ele>
        <time>2025-08-10T07:12:34.696Z</time>
      </trkpt>
      <trkpt lat="44.14037" lon="0.62414">
        <ele>68</ele>
        <time>2025-08-10T07:12:35.696Z</time>
      </trkpt>
      <trkpt lat="44.14036" lon="0.62413">
        <ele>68</ele>
        <time>2025-08-10T07:12:36.696Z</time>
      </trkpt>
      <trkpt lat="44.14035" lon="0.62413">
        <ele>68</ele>
        <time>2025-08-10T07:12:37.696Z</time>
      </trkpt>
      <trkpt lat="44.14034" lon="0.62411">
        <ele>68</ele>
        <time>2025-08-10T07:12:38.696Z</time>
      </trkpt>
      <trkpt lat="44.14033" lon="0.62409">
        <ele>68</ele>
        <time>2025-08-10T07:12:39.696Z</time>
      </trkpt>
      <trkpt lat="44.14031" lon="0.62407">
        <ele>68</ele>
        <time>2025-08-10T07:12:40.696Z</time>
      </trkpt>
      <trkpt lat="44.1403" lon="0.62407">
        <ele>68</ele>
        <time>2025-08-10T07:12:41.696Z</time>
      </trkpt>
      <trkpt lat="44.14029" lon="0.62406">
        <ele>68</ele>
        <time>2025-08-10T07:12:42.696Z</time>
      </trkpt>
      <trkpt lat="44.14027" lon="0.62405">
        <ele>68</ele>
        <time>2025-08-10T07:12:43.696Z</time>
      </trkpt>
      <trkpt lat="44.14026" lon="0.62403">
        <ele>69</ele>
        <time>2025-08-10T07:12:44.696Z</time>
      </trkpt>
      <trkpt lat="44.14025" lon="0.62403">
        <ele>69</ele>
        <time>2025-08-10T07:12:45.696Z</time>
      </trkpt>
      <trkpt lat="44.14025" lon="0.62401">
        <ele>69</ele>
        <time>2025-08-10T07:12:46.696Z</time>
      </trkpt>
      <trkpt lat="44.14025" lon="0.62401">
        <ele>69</ele>
        <time>2025-08-10T07:12:47.696Z</time>
      </trkpt>
      <trkpt lat="44.14025" lon="0.62401">
        <ele>70</ele>
        <time>2025-08-10T07:12:48.696Z</time>
      </trkpt>
      <trkpt lat="44.14024" lon="0.624">
        <ele>70</ele>
        <time>2025-08-10T07:12:49.696Z</time>
      </trkpt>
      <trkpt lat="44.14023" lon="0.62399">
        <ele>71</ele>
        <time>2025-08-10T07:12:50.696Z</time>
      </trkpt>
      <trkpt lat="44.14023" lon="0.62398">
        <ele>71</ele>
        <time>2025-08-10T07:12:51.696Z</time>
      </trkpt>
      <trkpt lat="44.14022" lon="0.62397">
        <ele>70</ele>
        <time>2025-08-10T07:12:52.696Z</time>
      </trkpt>
      <trkpt lat="44.14022" lon="0.62395">
        <ele>70</ele>
        <time>2025-08-10T07:12:53.696Z</time>
      </trkpt>
      <trkpt lat="44.14022" lon="0.62394">
        <ele>70</ele>
        <time>2025-08-10T07:12:54.696Z</time>
      </trkpt>
      <trkpt lat="44.1402" lon="0.62394">
        <ele>69</ele>
        <time>2025-08-10T07:12:55.696Z</time>
      </trkpt>
      <trkpt lat="44.14017" lon="0.62395">
        <ele>69</ele>
        <time>2025-08-10T07:12:56.696Z</time>
      </trkpt>
      <trkpt lat="44.14016" lon="0.62394">
        <ele>70</ele>
        <time>2025-08-10T07:12:57.696Z</time>
      </trkpt>
      <trkpt lat="44.14016" lon="0.62395">
        <ele>70</ele>
        <time>2025-08-10T07:12:58.696Z</time>
      </trkpt>
      <trkpt lat="44.14015" lon="0.62395">
        <ele>70</ele>
        <time>2025-08-10T07:12:59.696Z</time>
      </trkpt>
      <trkpt lat="44.14013" lon="0.62394">
        <ele>70</ele>
        <time>2025-08-10T07:13:00.696Z</time>
      </trkpt>
      <trkpt lat="44.14012" lon="0.62394">
        <ele>70</ele>
        <time>2025-08-10T07:13:01.696Z</time>
      </trkpt>
      <trkpt lat="44.14011" lon="0.62393">
        <ele>70</ele>
        <time>2025-08-10T07:13:02.696Z</time>
      </trkpt>
      <trkpt lat="44.1401" lon="0.62392">
        <ele>70</ele>
        <time>2025-08-10T07:13:03.696Z</time>
      </trkpt>
      <trkpt lat="44.1401" lon="0.62391">
        <ele>70</ele>
        <time>2025-08-10T07:13:04.696Z</time>
      </trkpt>
      <trkpt lat="44.14008" lon="0.6239">
        <ele>70</ele>
        <time>2025-08-10T07:13:05.696Z</time>
      </trkpt>
      <trkpt lat="44.14008" lon="0.6239">
        <ele>70</ele>
        <time>2025-08-10T07:13:06.696Z</time>
      </trkpt>
      <trkpt lat="44.14006" lon="0.62389">
        <ele>71</ele>
        <time>2025-08-10T07:13:07.696Z</time>
      </trkpt>
      <trkpt lat="44.14005" lon="0.62388">
        <ele>71</ele>
        <time>2025-08-10T07:13:08.696Z</time>
      </trkpt>
      <trkpt lat="44.14005" lon="0.62387">
        <ele>71</ele>
        <time>2025-08-10T07:13:09.696Z</time>
      </trkpt>
      <trkpt lat="44.14004" lon="0.62386">
        <ele>71</ele>
        <time>2025-08-10T07:13:10.696Z</time>
      </trkpt>
      <trkpt lat="44.14003" lon="0.62385">
        <ele>71</ele>
        <time>2025-08-10T07:13:11.696Z</time>
      </trkpt>
      <trkpt lat="44.14003" lon="0.62385">
        <ele>71</ele>
        <time>2025-08-10T07:13:12.696Z</time>
      </trkpt>
      <trkpt lat="44.14002" lon="0.62384">
        <ele>71</ele>
        <time>2025-08-10T07:13:13.696Z</time>
      </trkpt>
      <trkpt lat="44.14001" lon="0.62384">
        <ele>71</ele>
        <time>2025-08-10T07:13:14.696Z</time>
      </trkpt>
      <trkpt lat="44.14" lon="0.62383">
        <ele>71</ele>
        <time>2025-08-10T07:13:15.696Z</time>
      </trkpt>
      <trkpt lat="44.13999" lon="0.62382">
        <ele>71</ele>
        <time>2025-08-10T07:13:16.697Z</time>
      </trkpt>
      <trkpt lat="44.13999" lon="0.62382">
        <ele>72</ele>
        <time>2025-08-10T07:13:17.696Z</time>
      </trkpt>
      <trkpt lat="44.13999" lon="0.62381">
        <ele>72</ele>
        <time>2025-08-10T07:13:18.696Z</time>
      </trkpt>
      <trkpt lat="44.13998" lon="0.62381">
        <ele>72</ele>
        <time>2025-08-10T07:13:19.696Z</time>
      </trkpt>
      <trkpt lat="44.13998" lon="0.62381">
        <ele>72</ele>
        <time>2025-08-10T07:13:20.696Z</time>
      </trkpt>
      <trkpt lat="44.13998" lon="0.6238">
        <ele>72</ele>
        <time>2025-08-10T07:13:21.696Z</time>
      </trkpt>
      <trkpt lat="44.13997" lon="0.6238">
        <ele>71</ele>
        <time>2025-08-10T07:13:22.696Z</time>
      </trkpt>
      <trkpt lat="44.13995" lon="0.6238">
        <ele>71</ele>
        <time>2025-08-10T07:13:23.696Z</time>
      </trkpt>
      <trkpt lat="44.13994" lon="0.62379">
        <ele>71</ele>
        <time>2025-08-10T07:13:24.696Z</time>
      </trkpt>
      <trkpt lat="44.13992" lon="0.62379">
        <ele>71</ele>
        <time>2025-08-10T07:13:25.696Z</time>
      </trkpt>
      <trkpt lat="44.1399" lon="0.62379">
        <ele>71</ele>
        <time>2025-08-10T07:13:26.696Z</time>
      </trkpt>
      <trkpt lat="44.13989" lon="0.62379">
        <ele>71</ele>
        <time>2025-08-10T07:13:27.696Z</time>
      </trkpt>
      <trkpt lat="44.13988" lon="0.6238">
        <ele>72</ele>
        <time>2025-08-10T07:13:28.696Z</time>
      </trkpt>
      <trkpt lat="44.13988" lon="0.62381">
        <ele>72</ele>
        <time>2025-08-10T07:13:29.696Z</time>
      </trkpt>
      <trkpt lat="44.13987" lon="0.62382">
        <ele>73</ele>
        <time>2025-08-10T07:13:30.696Z</time>
      </trkpt>
      <trkpt lat="44.13986" lon="0.62383">
        <ele>73</ele>
        <time>2025-08-10T07:13:31.696Z</time>
      </trkpt>
      <trkpt lat="44.13986" lon="0.62384">
        <ele>74</ele>
        <time>2025-08-10T07:13:32.696Z</time>
      </trkpt>
      <trkpt lat="44.13986" lon="0.62385">
        <ele>74</ele>
        <time>2025-08-10T07:13:33.696Z</time>
      </trkpt>
      <trkpt lat="44.13985" lon="0.62387">
        <ele>75</ele>
        <time>2025-08-10T07:13:34.696Z</time>
      </trkpt>
      <trkpt lat="44.13984" lon="0.62388">
        <ele>75</ele>
        <time>2025-08-10T07:13:35.696Z</time>
      </trkpt>
      <trkpt lat="44.13983" lon="0.62389">
        <ele>76</ele>
        <time>2025-08-10T07:13:36.696Z</time>
      </trkpt>
      <trkpt lat="44.13983" lon="0.62389">
        <ele>76</ele>
        <time>2025-08-10T07:13:37.696Z</time>
      </trkpt>
      <trkpt lat="44.13982" lon="0.6239">
        <ele>76</ele>
        <time>2025-08-10T07:13:38.696Z</time>
      </trkpt>
      <trkpt lat="44.13982" lon="0.62391">
        <ele>76</ele>
        <time>2025-08-10T07:13:39.696Z</time>
      </trkpt>
      <trkpt lat="44.13982" lon="0.62391">
        <ele>76</ele>
        <time>2025-08-10T07:13:40.696Z</time>
      </trkpt>
      <trkpt lat="44.13982" lon="0.62392">
        <ele>76</ele>
        <time>2025-08-10T07:13:41.696Z</time>
      </trkpt>
      <trkpt lat="44.13983" lon="0.62393">
        <ele>75</ele>
        <time>2025-08-10T07:13:42.696Z</time>
      </trkpt>
      <trkpt lat="44.13984" lon="0.62393">
        <ele>75</ele>
        <time>2025-08-10T07:13:43.696Z</time>
      </trkpt>
      <trkpt lat="44.13985" lon="0.62392">
        <ele>74</ele>
        <time>2025-08-10T07:13:44.696Z</time>
      </trkpt>
      <trkpt lat="44.13987" lon="0.62393">
        <ele>73</ele>
        <time>2025-08-10T07:13:45.696Z</time>
      </trkpt>
      <trkpt lat="44.13989" lon="0.62392">
        <ele>72</ele>
        <time>2025-08-10T07:13:46.696Z</time>
      </trkpt>
      <trkpt lat="44.1399" lon="0.62392">
        <ele>72</ele>
        <time>2025-08-10T07:13:47.696Z</time>
      </trkpt>
      <trkpt lat="44.13992" lon="0.62392">
        <ele>71</ele>
        <time>2025-08-10T07:13:48.696Z</time>
      </trkpt>
      <trkpt lat="44.13994" lon="0.62392">
        <ele>71</ele>
        <time>2025-08-10T07:13:49.696Z</time>
      </trkpt>
      <trkpt lat="44.13995" lon="0.62392">
        <ele>70</ele>
        <time>2025-08-10T07:13:50.696Z</time>
      </trkpt>
      <trkpt lat="44.13996" lon="0.62392">
        <ele>70</ele>
        <time>2025-08-10T07:13:51.696Z</time>
      </trkpt>
      <trkpt lat="44.13997" lon="0.62392">
        <ele>70</ele>
        <time>2025-08-10T07:13:52.696Z</time>
      </trkpt>
      <trkpt lat="44.13998" lon="0.62392">
        <ele>69</ele>
        <time>2025-08-10T07:13:53.696Z</time>
      </trkpt>
      <trkpt lat="44.13998" lon="0.62392">
        <ele>69</ele>
        <time>2025-08-10T07:13:54.696Z</time>
      </trkpt>
      <trkpt lat="44.14" lon="0.62392">
        <ele>68</ele>
        <time>2025-08-10T07:13:55.696Z</time>
      </trkpt>
      <trkpt lat="44.14" lon="0.62393">
        <ele>68</ele>
        <time>2025-08-10T07:13:56.696Z</time>
      </trkpt>
      <trkpt lat="44.14001" lon="0.62394">
        <ele>68</ele>
        <time>2025-08-10T07:13:57.696Z</time>
      </trkpt>
      <trkpt lat="44.14002" lon="0.62394">
        <ele>67</ele>
        <time>2025-08-10T07:13:58.696Z</time>
      </trkpt>
      <trkpt lat="44.14002" lon="0.62395">
        <ele>67</ele>
        <time>2025-08-10T07:13:59.696Z</time>
      </trkpt>
      <trkpt lat="44.14003" lon="0.62394">
        <ele>68</ele>
        <time>2025-08-10T07:14:00.696Z</time>
      </trkpt>
      <trkpt lat="44.14003" lon="0.62395">
        <ele>68</ele>
        <time>2025-08-10T07:14:01.696Z</time>
      </trkpt>
      <trkpt lat="44.14005" lon="0.62397">
        <ele>68</ele>
        <time>2025-08-10T07:14:02.696Z</time>
      </trkpt>
      <trkpt lat="44.14007" lon="0.62399">
        <ele>69</ele>
        <time>2025-08-10T07:14:03.696Z</time>
      </trkpt>
      <trkpt lat="44.14008" lon="0.624">
        <ele>69</ele>
        <time>2025-08-10T07:14:04.696Z</time>
      </trkpt>
      <trkpt lat="44.14009" lon="0.62401">
        <ele>70</ele>
        <time>2025-08-10T07:14:05.696Z</time>
      </trkpt>
      <trkpt lat="44.14009" lon="0.62401">
        <ele>70</ele>
        <time>2025-08-10T07:14:06.696Z</time>
      </trkpt>
      <trkpt lat="44.1401" lon="0.62402">
        <ele>70</ele>
        <time>2025-08-10T07:14:07.696Z</time>
      </trkpt>
      <trkpt lat="44.14011" lon="0.62402">
        <ele>69</ele>
        <time>2025-08-10T07:14:08.696Z</time>
      </trkpt>
      <trkpt lat="44.14012" lon="0.62403">
        <ele>69</ele>
        <time>2025-08-10T07:14:09.696Z</time>
      </trkpt>
      <trkpt lat="44.14013" lon="0.62404">
        <ele>69</ele>
        <time>2025-08-10T07:14:10.696Z</time>
      </trkpt>
      <trkpt lat="44.14012" lon="0.62404">
        <ele>69</ele>
        <time>2025-08-10T07:14:11.696Z</time>
      </trkpt>
      <trkpt lat="44.14013" lon="0.62406">
        <ele>69</ele>
        <time>2025-08-10T07:14:12.696Z</time>
      </trkpt>
      <trkpt lat="44.14015" lon="0.62407">
        <ele>69</ele>
        <time>2025-08-10T07:14:13.696Z</time>
      </trkpt>
      <trkpt lat="44.14016" lon="0.62407">
        <ele>69</ele>
        <time>2025-08-10T07:14:14.696Z</time>
      </trkpt>
      <trkpt lat="44.14017" lon="0.62408">
        <ele>69</ele>
        <time>2025-08-10T07:14:15.696Z</time>
      </trkpt>
      <trkpt lat="44.14018" lon="0.62409">
        <ele>69</ele>
        <time>2025-08-10T07:14:16.696Z</time>
      </trkpt>
      <trkpt lat="44.14018" lon="0.6241">
        <ele>69</ele>
        <time>2025-08-10T07:14:17.696Z</time>
      </trkpt>
      <trkpt lat="44.14019" lon="0.62411">
        <ele>68</ele>
        <time>2025-08-10T07:14:18.696Z</time>
      </trkpt>
      <trkpt lat="44.1402" lon="0.62412">
        <ele>68</ele>
        <time>2025-08-10T07:14:19.696Z</time>
      </trkpt>
      <trkpt lat="44.1402" lon="0.62413">
        <ele>68</ele>
        <time>2025-08-10T07:14:20.696Z</time>
      </trkpt>
      <trkpt lat="44.14021" lon="0.62415">
        <ele>68</ele>
        <time>2025-08-10T07:14:21.696Z</time>
      </trkpt>
      <trkpt lat="44.14022" lon="0.62416">
        <ele>68</ele>
        <time>2025-08-10T07:14:22.696Z</time>
      </trkpt>
      <trkpt lat="44.14023" lon="0.62418">
        <ele>68</ele>
        <time>2025-08-10T07:14:23.696Z</time>
      </trkpt>
      <trkpt lat="44.14024" lon="0.6242">
        <ele>69</ele>
        <time>2025-08-10T07:14:24.696Z</time>
      </trkpt>
      <trkpt lat="44.14025" lon="0.6242">
        <ele>69</ele>
        <time>2025-08-10T07:14:25.696Z</time>
      </trkpt>
      <trkpt lat="44.14025" lon="0.62422">
        <ele>69</ele>
        <time>2025-08-10T07:14:26.696Z</time>
      </trkpt>
      <trkpt lat="44.14025" lon="0.62423">
        <ele>69</ele>
        <time>2025-08-10T07:14:27.696Z</time>
      </trkpt>
      <trkpt lat="44.14026" lon="0.62423">
        <ele>69</ele>
        <time>2025-08-10T07:14:28.696Z</time>
      </trkpt>
      <trkpt lat="44.14026" lon="0.62425">
        <ele>69</ele>
        <time>2025-08-10T07:14:29.696Z</time>
      </trkpt>
      <trkpt lat="44.14026" lon="0.62426">
        <ele>69</ele>
        <time>2025-08-10T07:14:30.696Z</time>
      </trkpt>
      <trkpt lat="44.14027" lon="0.62428">
        <ele>69</ele>
        <time>2025-08-10T07:14:31.696Z</time>
      </trkpt>
      <trkpt lat="44.14027" lon="0.62429">
        <ele>70</ele>
        <time>2025-08-10T07:14:32.696Z</time>
      </trkpt>
      <trkpt lat="44.14028" lon="0.6243">
        <ele>70</ele>
        <time>2025-08-10T07:14:33.696Z</time>
      </trkpt>
      <trkpt lat="44.14028" lon="0.62432">
        <ele>71</ele>
        <time>2025-08-10T07:14:34.696Z</time>
      </trkpt>
      <trkpt lat="44.14028" lon="0.62433">
        <ele>71</ele>
        <time>2025-08-10T07:14:35.696Z</time>
      </trkpt>
      <trkpt lat="44.14028" lon="0.62435">
        <ele>71</ele>
        <time>2025-08-10T07:14:36.696Z</time>
      </trkpt>
      <trkpt lat="44.14028" lon="0.62436">
        <ele>72</ele>
        <time>2025-08-10T07:14:37.696Z</time>
      </trkpt>
      <trkpt lat="44.14029" lon="0.62438">
        <ele>72</ele>
        <time>2025-08-10T07:14:38.696Z</time>
      </trkpt>
      <trkpt lat="44.14029" lon="0.62439">
        <ele>72</ele>
        <time>2025-08-10T07:14:39.696Z</time>
      </trkpt>
      <trkpt lat="44.14029" lon="0.6244">
        <ele>73</ele>
        <time>2025-08-10T07:14:40.696Z</time>
      </trkpt>
      <trkpt lat="44.14029" lon="0.62442">
        <ele>73</ele>
        <time>2025-08-10T07:14:41.696Z</time>
      </trkpt>
      <trkpt lat="44.14029" lon="0.62444">
        <ele>73</ele>
        <time>2025-08-10T07:14:42.696Z</time>
      </trkpt>
      <trkpt lat="44.14029" lon="0.62445">
        <ele>73</ele>
        <time>2025-08-10T07:14:43.696Z</time>
      </trkpt>
      <trkpt lat="44.1403" lon="0.62447">
        <ele>74</ele>
        <time>2025-08-10T07:14:44.696Z</time>
      </trkpt>
      <trkpt lat="44.1403" lon="0.62449">
        <ele>74</ele>
        <time>2025-08-10T07:14:45.696Z</time>
      </trkpt>
      <trkpt lat="44.1403" lon="0.6245">
        <ele>74</ele>
        <time>2025-08-10T07:14:46.696Z</time>
      </trkpt>
      <trkpt lat="44.1403" lon="0.62451">
        <ele>74</ele>
        <time>2025-08-10T07:14:47.696Z</time>
      </trkpt>
      <trkpt lat="44.14029" lon="0.62454">
        <ele>74</ele>
        <time>2025-08-10T07:14:48.696Z</time>
      </trkpt>
      <trkpt lat="44.14029" lon="0.62455">
        <ele>75</ele>
        <time>2025-08-10T07:14:49.696Z</time>
      </trkpt>
      <trkpt lat="44.14029" lon="0.62457">
        <ele>75</ele>
        <time>2025-08-10T07:14:50.696Z</time>
      </trkpt>
      <trkpt lat="44.14029" lon="0.62459">
        <ele>75</ele>
        <time>2025-08-10T07:14:51.696Z</time>
      </trkpt>
      <trkpt lat="44.14028" lon="0.6246">
        <ele>75</ele>
        <time>2025-08-10T07:14:52.696Z</time>
      </trkpt>
      <trkpt lat="44.14028" lon="0.62461">
        <ele>74</ele>
        <time>2025-08-10T07:14:53.696Z</time>
      </trkpt>
      <trkpt lat="44.14028" lon="0.62463">
        <ele>74</ele>
        <time>2025-08-10T07:14:54.696Z</time>
      </trkpt>
      <trkpt lat="44.14028" lon="0.62464">
        <ele>74</ele>
        <time>2025-08-10T07:14:55.696Z</time>
      </trkpt>
      <trkpt lat="44.14028" lon="0.62466">
        <ele>74</ele>
        <time>2025-08-10T07:14:56.696Z</time>
      </trkpt>
      <trkpt lat="44.14028" lon="0.62468">
        <ele>74</ele>
        <time>2025-08-10T07:14:57.696Z</time>
      </trkpt>
      <trkpt lat="44.14028" lon="0.6247">
        <ele>74</ele>
        <time>2025-08-10T07:14:58.696Z</time>
      </trkpt>
      <trkpt lat="44.14028" lon="0.62472">
        <ele>75</ele>
        <time>2025-08-10T07:14:59.696Z</time>
      </trkpt>
      <trkpt lat="44.14027" lon="0.62474">
        <ele>75</ele>
        <time>2025-08-10T07:15:00.696Z</time>
      </trkpt>
      <trkpt lat="44.14027" lon="0.62476">
        <ele>75</ele>
        <time>2025-08-10T07:15:01.696Z</time>
      </trkpt>
      <trkpt lat="44.14027" lon="0.62478">
        <ele>75</ele>
        <time>2025-08-10T07:15:02.696Z</time>
      </trkpt>
      <trkpt lat="44.14028" lon="0.6248">
        <ele>75</ele>
        <time>2025-08-10T07:15:03.696Z</time>
      </trkpt>
      <trkpt lat="44.14028" lon="0.62482">
        <ele>76</ele>
        <time>2025-08-10T07:15:04.696Z</time>
      </trkpt>
      <trkpt lat="44.14028" lon="0.62483">
        <ele>76</ele>
        <time>2025-08-10T07:15:05.696Z</time>
      </trkpt>
      <trkpt lat="44.14028" lon="0.62485">
        <ele>76</ele>
        <time>2025-08-10T07:15:06.696Z</time>
      </trkpt>
      <trkpt lat="44.14027" lon="0.62486">
        <ele>76</ele>
        <time>2025-08-10T07:15:07.696Z</time>
      </trkpt>
      <trkpt lat="44.14027" lon="0.62487">
        <ele>76</ele>
        <time>2025-08-10T07:15:08.696Z</time>
      </trkpt>
      <trkpt lat="44.14027" lon="0.62489">
        <ele>76</ele>
        <time>2025-08-10T07:15:09.696Z</time>
      </trkpt>
      <trkpt lat="44.14028" lon="0.62491">
        <ele>76</ele>
        <time>2025-08-10T07:15:10.696Z</time>
      </trkpt>
      <trkpt lat="44.14028" lon="0.62493">
        <ele>76</ele>
        <time>2025-08-10T07:15:11.696Z</time>
      </trkpt>
      <trkpt lat="44.14028" lon="0.62494">
        <ele>76</ele>
        <time>2025-08-10T07:15:12.696Z</time>
      </trkpt>
      <trkpt lat="44.14028" lon="0.62495">
        <ele>77</ele>
        <time>2025-08-10T07:15:13.696Z</time>
      </trkpt>
      <trkpt lat="44.14028" lon="0.62497">
        <ele>77</ele>
        <time>2025-08-10T07:15:14.696Z</time>
      </trkpt>
      <trkpt lat="44.14028" lon="0.62498">
        <ele>77</ele>
        <time>2025-08-10T07:15:15.696Z</time>
      </trkpt>
      <trkpt lat="44.14028" lon="0.625">
        <ele>77</ele>
        <time>2025-08-10T07:15:16.696Z</time>
      </trkpt>
      <trkpt lat="44.14028" lon="0.62502">
        <ele>78</ele>
        <time>2025-08-10T07:15:17.696Z</time>
      </trkpt>
      <trkpt lat="44.14028" lon="0.62503">
        <ele>78</ele>
        <time>2025-08-10T07:15:18.696Z</time>
      </trkpt>
      <trkpt lat="44.14028" lon="0.62504">
        <ele>79</ele>
        <time>2025-08-10T07:15:19.696Z</time>
      </trkpt>
      <trkpt lat="44.14028" lon="0.62506">
        <ele>79</ele>
        <time>2025-08-10T07:15:20.696Z</time>
      </trkpt>
      <trkpt lat="44.14028" lon="0.62507">
        <ele>79</ele>
        <time>2025-08-10T07:15:21.696Z</time>
      </trkpt>
      <trkpt lat="44.14028" lon="0.62509">
        <ele>80</ele>
        <time>2025-08-10T07:15:22.696Z</time>
      </trkpt>
      <trkpt lat="44.14028" lon="0.6251">
        <ele>80</ele>
        <time>2025-08-10T07:15:23.696Z</time>
      </trkpt>
      <trkpt lat="44.14028" lon="0.62512">
        <ele>80</ele>
        <time>2025-08-10T07:15:24.696Z</time>
      </trkpt>
      <trkpt lat="44.14028" lon="0.62513">
        <ele>79</ele>
        <time>2025-08-10T07:15:25.696Z</time>
      </trkpt>
      <trkpt lat="44.14028" lon="0.62514">
        <ele>79</ele>
        <time>2025-08-10T07:15:26.696Z</time>
      </trkpt>
      <trkpt lat="44.14028" lon="0.62516">
        <ele>79</ele>
        <time>2025-08-10T07:15:27.696Z</time>
      </trkpt>
      <trkpt lat="44.14028" lon="0.62517">
        <ele>79</ele>
        <time>2025-08-10T07:15:28.696Z</time>
      </trkpt>
      <trkpt lat="44.14028" lon="0.62519">
        <ele>79</ele>
        <time>2025-08-10T07:15:29.696Z</time>
      </trkpt>
      <trkpt lat="44.14029" lon="0.6252">
        <ele>79</ele>
        <time>2025-08-10T07:15:30.696Z</time>
      </trkpt>
      <trkpt lat="44.14029" lon="0.62522">
        <ele>79</ele>
        <time>2025-08-10T07:15:31.696Z</time>
      </trkpt>
      <trkpt lat="44.1403" lon="0.62523">
        <ele>79</ele>
        <time>2025-08-10T07:15:32.696Z</time>
      </trkpt>
      <trkpt lat="44.1403" lon="0.62524">
        <ele>79</ele>
        <time>2025-08-10T07:15:33.696Z</time>
      </trkpt>
      <trkpt lat="44.1403" lon="0.62525">
        <ele>79</ele>
        <time>2025-08-10T07:15:34.696Z</time>
      </trkpt>
      <trkpt lat="44.1403" lon="0.62527">
        <ele>79</ele>
        <time>2025-08-10T07:15:35.696Z</time>
      </trkpt>
      <trkpt lat="44.1403" lon="0.62528">
        <ele>80</ele>
        <time>2025-08-10T07:15:36.696Z</time>
      </trkpt>
      <trkpt lat="44.1403" lon="0.6253">
        <ele>80</ele>
        <time>2025-08-10T07:15:37.696Z</time>
      </trkpt>
      <trkpt lat="44.1403" lon="0.62531">
        <ele>80</ele>
        <time>2025-08-10T07:15:38.696Z</time>
      </trkpt>
      <trkpt lat="44.1403" lon="0.62532">
        <ele>81</ele>
        <time>2025-08-10T07:15:39.696Z</time>
      </trkpt>
      <trkpt lat="44.1403" lon="0.62534">
        <ele>81</ele>
        <time>2025-08-10T07:15:40.696Z</time>
      </trkpt>
      <trkpt lat="44.1403" lon="0.62535">
        <ele>81</ele>
        <time>2025-08-10T07:15:41.696Z</time>
      </trkpt>
      <trkpt lat="44.1403" lon="0.62537">
        <ele>81</ele>
        <time>2025-08-10T07:15:42.696Z</time>
      </trkpt>
      <trkpt lat="44.1403" lon="0.62538">
        <ele>81</ele>
        <time>2025-08-10T07:15:43.696Z</time>
      </trkpt>
      <trkpt lat="44.1403" lon="0.62539">
        <ele>81</ele>
        <time>2025-08-10T07:15:44.696Z</time>
      </trkpt>
      <trkpt lat="44.1403" lon="0.62541">
        <ele>81</ele>
        <time>2025-08-10T07:15:45.696Z</time>
      </trkpt>
      <trkpt lat="44.14031" lon="0.62542">
        <ele>81</ele>
        <time>2025-08-10T07:15:46.696Z</time>
      </trkpt>
      <trkpt lat="44.14031" lon="0.62544">
        <ele>81</ele>
        <time>2025-08-10T07:15:47.696Z</time>
      </trkpt>
      <trkpt lat="44.14031" lon="0.62545">
        <ele>81</ele>
        <time>2025-08-10T07:15:48.696Z</time>
      </trkpt>
      <trkpt lat="44.14031" lon="0.62546">
        <ele>81</ele>
        <time>2025-08-10T07:15:49.696Z</time>
      </trkpt>
      <trkpt lat="44.14031" lon="0.62548">
        <ele>80</ele>
        <time>2025-08-10T07:15:50.696Z</time>
      </trkpt>
      <trkpt lat="44.14031" lon="0.62549">
        <ele>80</ele>
        <time>2025-08-10T07:15:51.696Z</time>
      </trkpt>
      <trkpt lat="44.14031" lon="0.6255">
        <ele>80</ele>
        <time>2025-08-10T07:15:52.696Z</time>
      </trkpt>
      <trkpt lat="44.14031" lon="0.62552">
        <ele>80</ele>
        <time>2025-08-10T07:15:53.696Z</time>
      </trkpt>
      <trkpt lat="44.14031" lon="0.62553">
        <ele>80</ele>
        <time>2025-08-10T07:15:54.696Z</time>
      </trkpt>
      <trkpt lat="44.14031" lon="0.62554">
        <ele>80</ele>
        <time>2025-08-10T07:15:55.696Z</time>
      </trkpt>
      <trkpt lat="44.14031" lon="0.62556">
        <ele>80</ele>
        <time>2025-08-10T07:15:56.696Z</time>
      </trkpt>
      <trkpt lat="44.14031" lon="0.62557">
        <ele>81</ele>
        <time>2025-08-10T07:15:57.696Z</time>
      </trkpt>
      <trkpt lat="44.14031" lon="0.62559">
        <ele>81</ele>
        <time>2025-08-10T07:15:58.696Z</time>
      </trkpt>
      <trkpt lat="44.14031" lon="0.6256">
        <ele>82</ele>
        <time>2025-08-10T07:15:59.696Z</time>
      </trkpt>
      <trkpt lat="44.14031" lon="0.62562">
        <ele>82</ele>
        <time>2025-08-10T07:16:00.696Z</time>
      </trkpt>
      <trkpt lat="44.14031" lon="0.62563">
        <ele>83</ele>
        <time>2025-08-10T07:16:01.696Z</time>
      </trkpt>
      <trkpt lat="44.14032" lon="0.62564">
        <ele>83</ele>
        <time>2025-08-10T07:16:02.696Z</time>
      </trkpt>
      <trkpt lat="44.14032" lon="0.62566">
        <ele>83</ele>
        <time>2025-08-10T07:16:03.696Z</time>
      </trkpt>
      <trkpt lat="44.14032" lon="0.62567">
        <ele>83</ele>
        <time>2025-08-10T07:16:04.696Z</time>
      </trkpt>
      <trkpt lat="44.14032" lon="0.62569">
        <ele>83</ele>
        <time>2025-08-10T07:16:05.696Z</time>
      </trkpt>
      <trkpt lat="44.14032" lon="0.62571">
        <ele>83</ele>
        <time>2025-08-10T07:16:06.696Z</time>
      </trkpt>
      <trkpt lat="44.14031" lon="0.62572">
        <ele>82</ele>
        <time>2025-08-10T07:16:07.696Z</time>
      </trkpt>
      <trkpt lat="44.14031" lon="0.62574">
        <ele>82</ele>
        <time>2025-08-10T07:16:08.696Z</time>
      </trkpt>
      <trkpt lat="44.14032" lon="0.62575">
        <ele>82</ele>
        <time>2025-08-10T07:16:09.696Z</time>
      </trkpt>
      <trkpt lat="44.14032" lon="0.62577">
        <ele>82</ele>
        <time>2025-08-10T07:16:10.696Z</time>
      </trkpt>
      <trkpt lat="44.14032" lon="0.62579">
        <ele>82</ele>
        <time>2025-08-10T07:16:11.696Z</time>
      </trkpt>
      <trkpt lat="44.14033" lon="0.6258">
        <ele>82</ele>
        <time>2025-08-10T07:16:12.696Z</time>
      </trkpt>
      <trkpt lat="44.14033" lon="0.62582">
        <ele>82</ele>
        <time>2025-08-10T07:16:13.696Z</time>
      </trkpt>
      <trkpt lat="44.14033" lon="0.62584">
        <ele>82</ele>
        <time>2025-08-10T07:16:14.696Z</time>
      </trkpt>
      <trkpt lat="44.14033" lon="0.62585">
        <ele>82</ele>
        <time>2025-08-10T07:16:15.696Z</time>
      </trkpt>
      <trkpt lat="44.14033" lon="0.62586">
        <ele>83</ele>
        <time>2025-08-10T07:16:16.696Z</time>
      </trkpt>
      <trkpt lat="44.14034" lon="0.62587">
        <ele>83</ele>
        <time>2025-08-10T07:16:17.696Z</time>
      </trkpt>
      <trkpt lat="44.14034" lon="0.62589">
        <ele>83</ele>
        <time>2025-08-10T07:16:18.696Z</time>
      </trkpt>
      <trkpt lat="44.14034" lon="0.6259">
        <ele>83</ele>
        <time>2025-08-10T07:16:19.696Z</time>
      </trkpt>
      <trkpt lat="44.14034" lon="0.62592">
        <ele>83</ele>
        <time>2025-08-10T07:16:20.696Z</time>
      </trkpt>
      <trkpt lat="44.14035" lon="0.62593">
        <ele>83</ele>
        <time>2025-08-10T07:16:21.696Z</time>
      </trkpt>
      <trkpt lat="44.14035" lon="0.62594">
        <ele>83</ele>
        <time>2025-08-10T07:16:22.696Z</time>
      </trkpt>
      <trkpt lat="44.14035" lon="0.62595">
        <ele>83</ele>
        <time>2025-08-10T07:16:23.696Z</time>
      </trkpt>
      <trkpt lat="44.14035" lon="0.62597">
        <ele>83</ele>
        <time>2025-08-10T07:16:24.696Z</time>
      </trkpt>
      <trkpt lat="44.14035" lon="0.62599">
        <ele>83</ele>
        <time>2025-08-10T07:16:25.696Z</time>
      </trkpt>
      <trkpt lat="44.14035" lon="0.626">
        <ele>83</ele>
        <time>2025-08-10T07:16:26.696Z</time>
      </trkpt>
      <trkpt lat="44.14035" lon="0.62602">
        <ele>84</ele>
        <time>2025-08-10T07:16:27.696Z</time>
      </trkpt>
      <trkpt lat="44.14034" lon="0.62603">
        <ele>84</ele>
        <time>2025-08-10T07:16:28.696Z</time>
      </trkpt>
      <trkpt lat="44.14034" lon="0.62604">
        <ele>84</ele>
        <time>2025-08-10T07:16:29.696Z</time>
      </trkpt>
      <trkpt lat="44.14034" lon="0.62606">
        <ele>85</ele>
        <time>2025-08-10T07:16:30.696Z</time>
      </trkpt>
      <trkpt lat="44.14034" lon="0.62607">
        <ele>85</ele>
        <time>2025-08-10T07:16:31.696Z</time>
      </trkpt>
      <trkpt lat="44.14033" lon="0.62608">
        <ele>85</ele>
        <time>2025-08-10T07:16:32.696Z</time>
      </trkpt>
      <trkpt lat="44.14033" lon="0.6261">
        <ele>85</ele>
        <time>2025-08-10T07:16:33.696Z</time>
      </trkpt>
      <trkpt lat="44.14033" lon="0.62611">
        <ele>86</ele>
        <time>2025-08-10T07:16:34.696Z</time>
      </trkpt>
      <trkpt lat="44.14032" lon="0.62612">
        <ele>86</ele>
        <time>2025-08-10T07:16:35.696Z</time>
      </trkpt>
      <trkpt lat="44.14032" lon="0.62614">
        <ele>86</ele>
        <time>2025-08-10T07:16:36.696Z</time>
      </trkpt>
      <trkpt lat="44.14032" lon="0.62615">
        <ele>86</ele>
        <time>2025-08-10T07:16:37.696Z</time>
      </trkpt>
      <trkpt lat="44.14032" lon="0.62617">
        <ele>86</ele>
        <time>2025-08-10T07:16:38.696Z</time>
      </trkpt>
      <trkpt lat="44.14032" lon="0.62618">
        <ele>87</ele>
        <time>2025-08-10T07:16:39.696Z</time>
      </trkpt>
      <trkpt lat="44.14032" lon="0.6262">
        <ele>88</ele>
        <time>2025-08-10T07:16:40.696Z</time>
      </trkpt>
      <trkpt lat="44.14032" lon="0.62621">
        <ele>88</ele>
        <time>2025-08-10T07:16:41.696Z</time>
      </trkpt>
      <trkpt lat="44.14031" lon="0.62623">
        <ele>89</ele>
        <time>2025-08-10T07:16:42.696Z</time>
      </trkpt>
      <trkpt lat="44.14031" lon="0.62624">
        <ele>89</ele>
        <time>2025-08-10T07:16:43.696Z</time>
      </trkpt>
      <trkpt lat="44.1403" lon="0.62626">
        <ele>90</ele>
        <time>2025-08-10T07:16:44.696Z</time>
      </trkpt>
      <trkpt lat="44.1403" lon="0.62627">
        <ele>90</ele>
        <time>2025-08-10T07:16:45.696Z</time>
      </trkpt>
      <trkpt lat="44.14029" lon="0.62628">
        <ele>90</ele>
        <time>2025-08-10T07:16:46.696Z</time>
      </trkpt>
      <trkpt lat="44.14029" lon="0.6263">
        <ele>90</ele>
        <time>2025-08-10T07:16:47.696Z</time>
      </trkpt>
      <trkpt lat="44.14028" lon="0.62631">
        <ele>91</ele>
        <time>2025-08-10T07:16:48.696Z</time>
      </trkpt>
      <trkpt lat="44.14028" lon="0.62633">
        <ele>91</ele>
        <time>2025-08-10T07:16:49.696Z</time>
      </trkpt>
      <trkpt lat="44.14027" lon="0.62634">
        <ele>92</ele>
        <time>2025-08-10T07:16:50.696Z</time>
      </trkpt>
      <trkpt lat="44.14027" lon="0.62636">
        <ele>93</ele>
        <time>2025-08-10T07:16:51.696Z</time>
      </trkpt>
      <trkpt lat="44.14026" lon="0.62638">
        <ele>93</ele>
        <time>2025-08-10T07:16:52.696Z</time>
      </trkpt>
      <trkpt lat="44.14026" lon="0.62639">
        <ele>93</ele>
        <time>2025-08-10T07:16:53.696Z</time>
      </trkpt>
      <trkpt lat="44.14025" lon="0.6264">
        <ele>93</ele>
        <time>2025-08-10T07:16:54.697Z</time>
      </trkpt>
      <trkpt lat="44.14024" lon="0.62642">
        <ele>93</ele>
        <time>2025-08-10T07:16:55.696Z</time>
      </trkpt>
      <trkpt lat="44.14023" lon="0.62643">
        <ele>93</ele>
        <time>2025-08-10T07:16:56.696Z</time>
      </trkpt>
      <trkpt lat="44.14023" lon="0.62645">
        <ele>93</ele>
        <time>2025-08-10T07:16:57.696Z</time>
      </trkpt>
      <trkpt lat="44.14023" lon="0.62646">
        <ele>92</ele>
        <time>2025-08-10T07:16:58.696Z</time>
      </trkpt>
      <trkpt lat="44.14023" lon="0.62648">
        <ele>92</ele>
        <time>2025-08-10T07:16:59.696Z</time>
      </trkpt>
      <trkpt lat="44.14022" lon="0.62649">
        <ele>92</ele>
        <time>2025-08-10T07:17:00.696Z</time>
      </trkpt>
      <trkpt lat="44.14022" lon="0.62651">
        <ele>92</ele>
        <time>2025-08-10T07:17:01.696Z</time>
      </trkpt>
      <trkpt lat="44.14022" lon="0.62652">
        <ele>92</ele>
        <time>2025-08-10T07:17:02.696Z</time>
      </trkpt>
      <trkpt lat="44.14021" lon="0.62654">
        <ele>92</ele>
        <time>2025-08-10T07:17:03.696Z</time>
      </trkpt>
      <trkpt lat="44.14021" lon="0.62655">
        <ele>92</ele>
        <time>2025-08-10T07:17:04.696Z</time>
      </trkpt>
      <trkpt lat="44.14021" lon="0.62656">
        <ele>92</ele>
        <time>2025-08-10T07:17:05.696Z</time>
      </trkpt>
      <trkpt lat="44.1402" lon="0.62657">
        <ele>93</ele>
        <time>2025-08-10T07:17:06.696Z</time>
      </trkpt>
      <trkpt lat="44.1402" lon="0.62658">
        <ele>93</ele>
        <time>2025-08-10T07:17:07.696Z</time>
      </trkpt>
      <trkpt lat="44.1402" lon="0.62658">
        <ele>93</ele>
        <time>2025-08-10T07:17:08.696Z</time>
      </trkpt>
      <trkpt lat="44.14019" lon="0.62661">
        <ele>94</ele>
        <time>2025-08-10T07:17:09.697Z</time>
      </trkpt>
      <trkpt lat="44.14019" lon="0.62662">
        <ele>94</ele>
        <time>2025-08-10T07:17:10.696Z</time>
      </trkpt>
      <trkpt lat="44.14018" lon="0.62663">
        <ele>95</ele>
        <time>2025-08-10T07:17:11.696Z</time>
      </trkpt>
      <trkpt lat="44.14018" lon="0.62663">
        <ele>95</ele>
        <time>2025-08-10T07:17:12.696Z</time>
      </trkpt>
      <trkpt lat="44.14018" lon="0.62664">
        <ele>95</ele>
        <time>2025-08-10T07:17:13.696Z</time>
      </trkpt>
      <trkpt lat="44.14017" lon="0.62665">
        <ele>95</ele>
        <time>2025-08-10T07:17:14.696Z</time>
      </trkpt>
      <trkpt lat="44.14017" lon="0.62666">
        <ele>95</ele>
        <time>2025-08-10T07:17:15.696Z</time>
      </trkpt>
      <trkpt lat="44.14017" lon="0.62667">
        <ele>95</ele>
        <time>2025-08-10T07:17:16.696Z</time>
      </trkpt>
      <trkpt lat="44.14016" lon="0.62668">
        <ele>95</ele>
        <time>2025-08-10T07:17:17.696Z</time>
      </trkpt>
      <trkpt lat="44.14016" lon="0.6267">
        <ele>95</ele>
        <time>2025-08-10T07:17:18.696Z</time>
      </trkpt>
      <trkpt lat="44.14016" lon="0.62671">
        <ele>95</ele>
        <time>2025-08-10T07:17:19.696Z</time>
      </trkpt>
      <trkpt lat="44.14015" lon="0.62672">
        <ele>95</ele>
        <time>2025-08-10T07:17:20.696Z</time>
      </trkpt>
      <trkpt lat="44.14015" lon="0.62673">
        <ele>95</ele>
        <time>2025-08-10T07:17:21.696Z</time>
      </trkpt>
      <trkpt lat="44.14015" lon="0.62674">
        <ele>95</ele>
        <time>2025-08-10T07:17:22.696Z</time>
      </trkpt>
      <trkpt lat="44.14014" lon="0.62675">
        <ele>96</ele>
        <time>2025-08-10T07:17:23.696Z</time>
      </trkpt>
      <trkpt lat="44.14015" lon="0.62675">
        <ele>96</ele>
        <time>2025-08-10T07:17:24.696Z</time>
      </trkpt>
      <trkpt lat="44.14015" lon="0.62675">
        <ele>96</ele>
        <time>2025-08-10T07:17:25.696Z</time>
      </trkpt>
      <trkpt lat="44.14015" lon="0.62675">
        <ele>96</ele>
        <time>2025-08-10T07:17:26.696Z</time>
      </trkpt>
      <trkpt lat="44.14015" lon="0.62676">
        <ele>96</ele>
        <time>2025-08-10T07:17:27.696Z</time>
      </trkpt>
      <trkpt lat="44.14015" lon="0.62676">
        <ele>96</ele>
        <time>2025-08-10T07:17:28.696Z</time>
      </trkpt>
      <trkpt lat="44.14015" lon="0.62676">
        <ele>96</ele>
        <time>2025-08-10T07:17:29.696Z</time>
      </trkpt>
      <trkpt lat="44.14015" lon="0.62676">
        <ele>96</ele>
        <time>2025-08-10T07:17:30.696Z</time>
      </trkpt>
      <trkpt lat="44.14015" lon="0.62676">
        <ele>96</ele>
        <time>2025-08-10T07:17:31.696Z</time>
      </trkpt>
      <trkpt lat="44.14015" lon="0.62676">
        <ele>96</ele>
        <time>2025-08-10T07:17:32.696Z</time>
      </trkpt>
      <trkpt lat="44.14015" lon="0.62677">
        <ele>96</ele>
        <time>2025-08-10T07:17:33.696Z</time>
      </trkpt>
      <trkpt lat="44.14015" lon="0.62678">
        <ele>96</ele>
        <time>2025-08-10T07:17:34.696Z</time>
      </trkpt>
      <trkpt lat="44.14015" lon="0.62679">
        <ele>96</ele>
        <time>2025-08-10T07:17:35.696Z</time>
      </trkpt>
      <trkpt lat="44.14014" lon="0.62681">
        <ele>96</ele>
        <time>2025-08-10T07:17:36.696Z</time>
      </trkpt>
      <trkpt lat="44.14014" lon="0.62682">
        <ele>96</ele>
        <time>2025-08-10T07:17:37.696Z</time>
      </trkpt>
      <trkpt lat="44.14013" lon="0.62683">
        <ele>96</ele>
        <time>2025-08-10T07:17:38.696Z</time>
      </trkpt>
      <trkpt lat="44.14012" lon="0.62684">
        <ele>96</ele>
        <time>2025-08-10T07:17:39.696Z</time>
      </trkpt>
      <trkpt lat="44.14011" lon="0.62685">
        <ele>96</ele>
        <time>2025-08-10T07:17:40.696Z</time>
      </trkpt>
      <trkpt lat="44.1401" lon="0.62687">
        <ele>96</ele>
        <time>2025-08-10T07:17:41.696Z</time>
      </trkpt>
      <trkpt lat="44.1401" lon="0.62688">
        <ele>97</ele>
        <time>2025-08-10T07:17:42.696Z</time>
      </trkpt>
      <trkpt lat="44.14009" lon="0.62689">
        <ele>97</ele>
        <time>2025-08-10T07:17:43.696Z</time>
      </trkpt>
      <trkpt lat="44.14009" lon="0.6269">
        <ele>98</ele>
        <time>2025-08-10T07:17:44.696Z</time>
      </trkpt>
      <trkpt lat="44.14008" lon="0.62692">
        <ele>98</ele>
        <time>2025-08-10T07:17:45.696Z</time>
      </trkpt>
      <trkpt lat="44.14007" lon="0.62694">
        <ele>99</ele>
        <time>2025-08-10T07:17:46.696Z</time>
      </trkpt>
      <trkpt lat="44.14007" lon="0.62695">
        <ele>99</ele>
        <time>2025-08-10T07:17:47.696Z</time>
      </trkpt>
      <trkpt lat="44.14006" lon="0.62697">
        <ele>100</ele>
        <time>2025-08-10T07:17:48.696Z</time>
      </trkpt>
      <trkpt lat="44.14006" lon="0.62698">
        <ele>100</ele>
        <time>2025-08-10T07:17:49.696Z</time>
      </trkpt>
      <trkpt lat="44.14005" lon="0.627">
        <ele>100</ele>
        <time>2025-08-10T07:17:50.696Z</time>
      </trkpt>
      <trkpt lat="44.14005" lon="0.62701">
        <ele>100</ele>
        <time>2025-08-10T07:17:51.696Z</time>
      </trkpt>
      <trkpt lat="44.14005" lon="0.62703">
        <ele>101</ele>
        <time>2025-08-10T07:17:52.696Z</time>
      </trkpt>
      <trkpt lat="44.14004" lon="0.62704">
        <ele>101</ele>
        <time>2025-08-10T07:17:53.696Z</time>
      </trkpt>
      <trkpt lat="44.14004" lon="0.62706">
        <ele>101</ele>
        <time>2025-08-10T07:17:54.696Z</time>
      </trkpt>
      <trkpt lat="44.14003" lon="0.62707">
        <ele>102</ele>
        <time>2025-08-10T07:17:55.696Z</time>
      </trkpt>
      <trkpt lat="44.14002" lon="0.62708">
        <ele>102</ele>
        <time>2025-08-10T07:17:56.696Z</time>
      </trkpt>
      <trkpt lat="44.14002" lon="0.62709">
        <ele>102</ele>
        <time>2025-08-10T07:17:57.696Z</time>
      </trkpt>
      <trkpt lat="44.14001" lon="0.62711">
        <ele>102</ele>
        <time>2025-08-10T07:17:58.696Z</time>
      </trkpt>
      <trkpt lat="44.14001" lon="0.62712">
        <ele>102</ele>
        <time>2025-08-10T07:17:59.696Z</time>
      </trkpt>
      <trkpt lat="44.14001" lon="0.62713">
        <ele>102</ele>
        <time>2025-08-10T07:18:00.696Z</time>
      </trkpt>
      <trkpt lat="44.14" lon="0.62715">
        <ele>101</ele>
        <time>2025-08-10T07:18:01.696Z</time>
      </trkpt>
      <trkpt lat="44.14" lon="0.62716">
        <ele>101</ele>
        <time>2025-08-10T07:18:02.696Z</time>
      </trkpt>
      <trkpt lat="44.13999" lon="0.62718">
        <ele>101</ele>
        <time>2025-08-10T07:18:03.696Z</time>
      </trkpt>
      <trkpt lat="44.13999" lon="0.62719">
        <ele>100</ele>
        <time>2025-08-10T07:18:04.696Z</time>
      </trkpt>
      <trkpt lat="44.13999" lon="0.62721">
        <ele>100</ele>
        <time>2025-08-10T07:18:05.696Z</time>
      </trkpt>
      <trkpt lat="44.13998" lon="0.62723">
        <ele>100</ele>
        <time>2025-08-10T07:18:06.696Z</time>
      </trkpt>
      <trkpt lat="44.13998" lon="0.62724">
        <ele>99</ele>
        <time>2025-08-10T07:18:07.696Z</time>
      </trkpt>
      <trkpt lat="44.13997" lon="0.62726">
        <ele>99</ele>
        <time>2025-08-10T07:18:08.696Z</time>
      </trkpt>
      <trkpt lat="44.13997" lon="0.62727">
        <ele>99</ele>
        <time>2025-08-10T07:18:09.696Z</time>
      </trkpt>
      <trkpt lat="44.13996" lon="0.62728">
        <ele>99</ele>
        <time>2025-08-10T07:18:10.696Z</time>
      </trkpt>
      <trkpt lat="44.13996" lon="0.6273">
        <ele>98</ele>
        <time>2025-08-10T07:18:11.696Z</time>
      </trkpt>
      <trkpt lat="44.13996" lon="0.62731">
        <ele>98</ele>
        <time>2025-08-10T07:18:12.696Z</time>
      </trkpt>
      <trkpt lat="44.13996" lon="0.62732">
        <ele>99</ele>
        <time>2025-08-10T07:18:13.697Z</time>
      </trkpt>
      <trkpt lat="44.13995" lon="0.62732">
        <ele>99</ele>
        <time>2025-08-10T07:18:14.696Z</time>
      </trkpt>
      <trkpt lat="44.13996" lon="0.62734">
        <ele>99</ele>
        <time>2025-08-10T07:18:15.696Z</time>
      </trkpt>
      <trkpt lat="44.13995" lon="0.62735">
        <ele>100</ele>
        <time>2025-08-10T07:18:16.696Z</time>
      </trkpt>
      <trkpt lat="44.13995" lon="0.62737">
        <ele>100</ele>
        <time>2025-08-10T07:18:17.696Z</time>
      </trkpt>
      <trkpt lat="44.13995" lon="0.62739">
        <ele>101</ele>
        <time>2025-08-10T07:18:18.696Z</time>
      </trkpt>
      <trkpt lat="44.13996" lon="0.6274">
        <ele>101</ele>
        <time>2025-08-10T07:18:19.696Z</time>
      </trkpt>
      <trkpt lat="44.13996" lon="0.62742">
        <ele>102</ele>
        <time>2025-08-10T07:18:20.696Z</time>
      </trkpt>
      <trkpt lat="44.13996" lon="0.62743">
        <ele>102</ele>
        <time>2025-08-10T07:18:21.696Z</time>
      </trkpt>
      <trkpt lat="44.13996" lon="0.62744">
        <ele>102</ele>
        <time>2025-08-10T07:18:22.696Z</time>
      </trkpt>
      <trkpt lat="44.13996" lon="0.62745">
        <ele>103</ele>
        <time>2025-08-10T07:18:23.696Z</time>
      </trkpt>
      <trkpt lat="44.13996" lon="0.62746">
        <ele>103</ele>
        <time>2025-08-10T07:18:24.696Z</time>
      </trkpt>
      <trkpt lat="44.13997" lon="0.62747">
        <ele>104</ele>
        <time>2025-08-10T07:18:25.696Z</time>
      </trkpt>
      <trkpt lat="44.13997" lon="0.62748">
        <ele>104</ele>
        <time>2025-08-10T07:18:26.696Z</time>
      </trkpt>
      <trkpt lat="44.13997" lon="0.62749">
        <ele>105</ele>
        <time>2025-08-10T07:18:27.696Z</time>
      </trkpt>
      <trkpt lat="44.13998" lon="0.62751">
        <ele>105</ele>
        <time>2025-08-10T07:18:28.696Z</time>
      </trkpt>
      <trkpt lat="44.13998" lon="0.62752">
        <ele>105</ele>
        <time>2025-08-10T07:18:29.696Z</time>
      </trkpt>
      <trkpt lat="44.13998" lon="0.62753">
        <ele>105</ele>
        <time>2025-08-10T07:18:30.696Z</time>
      </trkpt>
      <trkpt lat="44.13999" lon="0.62754">
        <ele>105</ele>
        <time>2025-08-10T07:18:31.696Z</time>
      </trkpt>
      <trkpt lat="44.14" lon="0.62755">
        <ele>105</ele>
        <time>2025-08-10T07:18:32.696Z</time>
      </trkpt>
      <trkpt lat="44.14" lon="0.62757">
        <ele>105</ele>
        <time>2025-08-10T07:18:33.696Z</time>
      </trkpt>
      <trkpt lat="44.14" lon="0.62758">
        <ele>104</ele>
        <time>2025-08-10T07:18:34.696Z</time>
      </trkpt>
      <trkpt lat="44.14001" lon="0.62759">
        <ele>105</ele>
        <time>2025-08-10T07:18:35.696Z</time>
      </trkpt>
      <trkpt lat="44.14002" lon="0.62761">
        <ele>105</ele>
        <time>2025-08-10T07:18:36.696Z</time>
      </trkpt>
      <trkpt lat="44.14003" lon="0.62762">
        <ele>105</ele>
        <time>2025-08-10T07:18:37.696Z</time>
      </trkpt>
      <trkpt lat="44.14003" lon="0.62762">
        <ele>105</ele>
        <time>2025-08-10T07:18:38.696Z</time>
      </trkpt>
      <trkpt lat="44.14004" lon="0.62763">
        <ele>105</ele>
        <time>2025-08-10T07:18:39.696Z</time>
      </trkpt>
      <trkpt lat="44.14005" lon="0.62764">
        <ele>106</ele>
        <time>2025-08-10T07:18:40.696Z</time>
      </trkpt>
      <trkpt lat="44.14006" lon="0.62764">
        <ele>106</ele>
        <time>2025-08-10T07:18:41.696Z</time>
      </trkpt>
      <trkpt lat="44.14006" lon="0.62765">
        <ele>107</ele>
        <time>2025-08-10T07:18:42.696Z</time>
      </trkpt>
      <trkpt lat="44.14006" lon="0.62767">
        <ele>107</ele>
        <time>2025-08-10T07:18:43.696Z</time>
      </trkpt>
      <trkpt lat="44.14007" lon="0.62768">
        <ele>107</ele>
        <time>2025-08-10T07:18:44.696Z</time>
      </trkpt>
      <trkpt lat="44.14007" lon="0.62771">
        <ele>108</ele>
        <time>2025-08-10T07:18:45.696Z</time>
      </trkpt>
      <trkpt lat="44.14007" lon="0.62771">
        <ele>108</ele>
        <time>2025-08-10T07:18:46.696Z</time>
      </trkpt>
      <trkpt lat="44.14007" lon="0.62773">
        <ele>108</ele>
        <time>2025-08-10T07:18:47.696Z</time>
      </trkpt>
      <trkpt lat="44.14008" lon="0.62774">
        <ele>108</ele>
        <time>2025-08-10T07:18:48.696Z</time>
      </trkpt>
      <trkpt lat="44.14008" lon="0.62775">
        <ele>108</ele>
        <time>2025-08-10T07:18:49.696Z</time>
      </trkpt>
      <trkpt lat="44.14009" lon="0.62776">
        <ele>108</ele>
        <time>2025-08-10T07:18:50.696Z</time>
      </trkpt>
      <trkpt lat="44.1401" lon="0.62777">
        <ele>107</ele>
        <time>2025-08-10T07:18:51.696Z</time>
      </trkpt>
      <trkpt lat="44.1401" lon="0.62778">
        <ele>106</ele>
        <time>2025-08-10T07:18:52.697Z</time>
      </trkpt>
      <trkpt lat="44.1401" lon="0.62779">
        <ele>106</ele>
        <time>2025-08-10T07:18:53.696Z</time>
      </trkpt>
      <trkpt lat="44.14011" lon="0.62781">
        <ele>105</ele>
        <time>2025-08-10T07:18:54.696Z</time>
      </trkpt>
      <trkpt lat="44.14011" lon="0.62782">
        <ele>105</ele>
        <time>2025-08-10T07:18:55.696Z</time>
      </trkpt>
      <trkpt lat="44.14011" lon="0.62783">
        <ele>105</ele>
        <time>2025-08-10T07:18:56.697Z</time>
      </trkpt>
      <trkpt lat="44.14012" lon="0.62784">
        <ele>105</ele>
        <time>2025-08-10T07:18:57.696Z</time>
      </trkpt>
      <trkpt lat="44.14013" lon="0.62785">
        <ele>105</ele>
        <time>2025-08-10T07:18:58.696Z</time>
      </trkpt>
      <trkpt lat="44.14013" lon="0.62786">
        <ele>105</ele>
        <time>2025-08-10T07:18:59.696Z</time>
      </trkpt>
      <trkpt lat="44.14013" lon="0.62787">
        <ele>106</ele>
        <time>2025-08-10T07:19:00.696Z</time>
      </trkpt>
      <trkpt lat="44.14014" lon="0.62789">
        <ele>105</ele>
        <time>2025-08-10T07:19:01.696Z</time>
      </trkpt>
      <trkpt lat="44.14014" lon="0.6279">
        <ele>105</ele>
        <time>2025-08-10T07:19:02.696Z</time>
      </trkpt>
      <trkpt lat="44.14015" lon="0.62792">
        <ele>106</ele>
        <time>2025-08-10T07:19:03.696Z</time>
      </trkpt>
      <trkpt lat="44.14016" lon="0.62794">
        <ele>106</ele>
        <time>2025-08-10T07:19:04.696Z</time>
      </trkpt>
      <trkpt lat="44.14017" lon="0.62796">
        <ele>106</ele>
        <time>2025-08-10T07:19:05.696Z</time>
      </trkpt>
      <trkpt lat="44.14017" lon="0.62797">
        <ele>106</ele>
        <time>2025-08-10T07:19:06.696Z</time>
      </trkpt>
      <trkpt lat="44.14017" lon="0.62798">
        <ele>105</ele>
        <time>2025-08-10T07:19:07.696Z</time>
      </trkpt>
      <trkpt lat="44.14017" lon="0.62799">
        <ele>105</ele>
        <time>2025-08-10T07:19:08.696Z</time>
      </trkpt>
      <trkpt lat="44.14016" lon="0.628">
        <ele>105</ele>
        <time>2025-08-10T07:19:09.696Z</time>
      </trkpt>
      <trkpt lat="44.14016" lon="0.62802">
        <ele>105</ele>
        <time>2025-08-10T07:19:10.696Z</time>
      </trkpt>
      <trkpt lat="44.14016" lon="0.62803">
        <ele>105</ele>
        <time>2025-08-10T07:19:11.696Z</time>
      </trkpt>
      <trkpt lat="44.14016" lon="0.62804">
        <ele>106</ele>
        <time>2025-08-10T07:19:12.696Z</time>
      </trkpt>
      <trkpt lat="44.14016" lon="0.62805">
        <ele>107</ele>
        <time>2025-08-10T07:19:13.696Z</time>
      </trkpt>
      <trkpt lat="44.14016" lon="0.62805">
        <ele>107</ele>
        <time>2025-08-10T07:19:14.696Z</time>
      </trkpt>
      <trkpt lat="44.14016" lon="0.62806">
        <ele>108</ele>
        <time>2025-08-10T07:19:15.696Z</time>
      </trkpt>
      <trkpt lat="44.14015" lon="0.62807">
        <ele>108</ele>
        <time>2025-08-10T07:19:16.696Z</time>
      </trkpt>
      <trkpt lat="44.14015" lon="0.62808">
        <ele>108</ele>
        <time>2025-08-10T07:19:17.696Z</time>
      </trkpt>
      <trkpt lat="44.14015" lon="0.62808">
        <ele>109</ele>
        <time>2025-08-10T07:19:18.696Z</time>
      </trkpt>
      <trkpt lat="44.14016" lon="0.62808">
        <ele>109</ele>
        <time>2025-08-10T07:19:19.696Z</time>
      </trkpt>
      <trkpt lat="44.14016" lon="0.62808">
        <ele>109</ele>
        <time>2025-08-10T07:19:20.696Z</time>
      </trkpt>
      <trkpt lat="44.14016" lon="0.62808">
        <ele>109</ele>
        <time>2025-08-10T07:19:21.696Z</time>
      </trkpt>
      <trkpt lat="44.14016" lon="0.62809">
        <ele>109</ele>
        <time>2025-08-10T07:19:22.696Z</time>
      </trkpt>
      <trkpt lat="44.14016" lon="0.62809">
        <ele>110</ele>
        <time>2025-08-10T07:19:23.696Z</time>
      </trkpt>
      <trkpt lat="44.14016" lon="0.62809">
        <ele>110</ele>
        <time>2025-08-10T07:19:24.696Z</time>
      </trkpt>
      <trkpt lat="44.14016" lon="0.62809">
        <ele>110</ele>
        <time>2025-08-10T07:19:25.696Z</time>
      </trkpt>
      <trkpt lat="44.14016" lon="0.62809">
        <ele>110</ele>
        <time>2025-08-10T07:19:26.696Z</time>
      </trkpt>
      <trkpt lat="44.14016" lon="0.62809">
        <ele>110</ele>
        <time>2025-08-10T07:19:27.696Z</time>
      </trkpt>
      <trkpt lat="44.14016" lon="0.62809">
        <ele>110</ele>
        <time>2025-08-10T07:19:28.696Z</time>
      </trkpt>
      <trkpt lat="44.14016" lon="0.62809">
        <ele>110</ele>
        <time>2025-08-10T07:19:29.696Z</time>
      </trkpt>
      <trkpt lat="44.14017" lon="0.62809">
        <ele>110</ele>
        <time>2025-08-10T07:19:30.696Z</time>
      </trkpt>
      <trkpt lat="44.14017" lon="0.62809">
        <ele>110</ele>
        <time>2025-08-10T07:19:31.696Z</time>
      </trkpt>
      <trkpt lat="44.14017" lon="0.62809">
        <ele>110</ele>
        <time>2025-08-10T07:19:32.696Z</time>
      </trkpt>
      <trkpt lat="44.14017" lon="0.62809">
        <ele>111</ele>
        <time>2025-08-10T07:19:33.696Z</time>
      </trkpt>
      <trkpt lat="44.14017" lon="0.6281">
        <ele>111</ele>
        <time>2025-08-10T07:19:34.696Z</time>
      </trkpt>
      <trkpt lat="44.14018" lon="0.6281">
        <ele>112</ele>
        <time>2025-08-10T07:19:35.696Z</time>
      </trkpt>
      <trkpt lat="44.14017" lon="0.62811">
        <ele>112</ele>
        <time>2025-08-10T07:19:36.696Z</time>
      </trkpt>
      <trkpt lat="44.14017" lon="0.62812">
        <ele>112</ele>
        <time>2025-08-10T07:19:37.697Z</time>
      </trkpt>
      <trkpt lat="44.14017" lon="0.62812">
        <ele>111</ele>
        <time>2025-08-10T07:19:38.696Z</time>
      </trkpt>
      <trkpt lat="44.14017" lon="0.62813">
        <ele>111</ele>
        <time>2025-08-10T07:19:39.696Z</time>
      </trkpt>
      <trkpt lat="44.14018" lon="0.62814">
        <ele>111</ele>
        <time>2025-08-10T07:19:40.696Z</time>
      </trkpt>
      <trkpt lat="44.14018" lon="0.62815">
        <ele>111</ele>
        <time>2025-08-10T07:19:41.696Z</time>
      </trkpt>
      <trkpt lat="44.14018" lon="0.62816">
        <ele>111</ele>
        <time>2025-08-10T07:19:42.696Z</time>
      </trkpt>
      <trkpt lat="44.14018" lon="0.62816">
        <ele>111</ele>
        <time>2025-08-10T07:19:43.696Z</time>
      </trkpt>
      <trkpt lat="44.14018" lon="0.62817">
        <ele>111</ele>
        <time>2025-08-10T07:19:44.696Z</time>
      </trkpt>
      <trkpt lat="44.14018" lon="0.62817">
        <ele>111</ele>
        <time>2025-08-10T07:19:45.696Z</time>
      </trkpt>
      <trkpt lat="44.14018" lon="0.62817">
        <ele>110</ele>
        <time>2025-08-10T07:19:46.696Z</time>
      </trkpt>
      <trkpt lat="44.14018" lon="0.62817">
        <ele>110</ele>
        <time>2025-08-10T07:19:47.696Z</time>
      </trkpt>
      <trkpt lat="44.14017" lon="0.62816">
        <ele>110</ele>
        <time>2025-08-10T07:19:48.696Z</time>
      </trkpt>
      <trkpt lat="44.14017" lon="0.62816">
        <ele>110</ele>
        <time>2025-08-10T07:19:49.696Z</time>
      </trkpt>
      <trkpt lat="44.14017" lon="0.62816">
        <ele>109</ele>
        <time>2025-08-10T07:19:50.696Z</time>
      </trkpt>
      <trkpt lat="44.14017" lon="0.62817">
        <ele>109</ele>
        <time>2025-08-10T07:19:51.696Z</time>
      </trkpt>
      <trkpt lat="44.14016" lon="0.62816">
        <ele>108</ele>
        <time>2025-08-10T07:19:52.696Z</time>
      </trkpt>
      <trkpt lat="44.14015" lon="0.62817">
        <ele>108</ele>
        <time>2025-08-10T07:19:53.696Z</time>
      </trkpt>
      <trkpt lat="44.14014" lon="0.62816">
        <ele>108</ele>
        <time>2025-08-10T07:19:54.696Z</time>
      </trkpt>
      <trkpt lat="44.14013" lon="0.62816">
        <ele>108</ele>
        <time>2025-08-10T07:19:55.696Z</time>
      </trkpt>
      <trkpt lat="44.14013" lon="0.62816">
        <ele>109</ele>
        <time>2025-08-10T07:19:56.696Z</time>
      </trkpt>
      <trkpt lat="44.14011" lon="0.62816">
        <ele>109</ele>
        <time>2025-08-10T07:19:57.696Z</time>
      </trkpt>
      <trkpt lat="44.1401" lon="0.62817">
        <ele>109</ele>
        <time>2025-08-10T07:19:58.696Z</time>
      </trkpt>
      <trkpt lat="44.14009" lon="0.62817">
        <ele>110</ele>
        <time>2025-08-10T07:19:59.696Z</time>
      </trkpt>
      <trkpt lat="44.14009" lon="0.62818">
        <ele>110</ele>
        <time>2025-08-10T07:20:00.696Z</time>
      </trkpt>
      <trkpt lat="44.14009" lon="0.62818">
        <ele>110</ele>
        <time>2025-08-10T07:20:01.696Z</time>
      </trkpt>
      <trkpt lat="44.14009" lon="0.62818">
        <ele>109</ele>
        <time>2025-08-10T07:20:02.696Z</time>
      </trkpt>
      <trkpt lat="44.14009" lon="0.62817">
        <ele>108</ele>
        <time>2025-08-10T07:20:03.696Z</time>
      </trkpt>
      <trkpt lat="44.14008" lon="0.62818">
        <ele>108</ele>
        <time>2025-08-10T07:20:04.696Z</time>
      </trkpt>
      <trkpt lat="44.14008" lon="0.62817">
        <ele>107</ele>
        <time>2025-08-10T07:20:05.696Z</time>
      </trkpt>
      <trkpt lat="44.14008" lon="0.62817">
        <ele>107</ele>
        <time>2025-08-10T07:20:06.696Z</time>
      </trkpt>
      <trkpt lat="44.14008" lon="0.62817">
        <ele>106</ele>
        <time>2025-08-10T07:20:07.696Z</time>
      </trkpt>
      <trkpt lat="44.14008" lon="0.62817">
        <ele>106</ele>
        <time>2025-08-10T07:20:08.696Z</time>
      </trkpt>
      <trkpt lat="44.14008" lon="0.62817">
        <ele>105</ele>
        <time>2025-08-10T07:20:09.696Z</time>
      </trkpt>
      <trkpt lat="44.14008" lon="0.62817">
        <ele>105</ele>
        <time>2025-08-10T07:20:10.696Z</time>
      </trkpt>
      <trkpt lat="44.14008" lon="0.62817">
        <ele>104</ele>
        <time>2025-08-10T07:20:11.696Z</time>
      </trkpt>
      <trkpt lat="44.14008" lon="0.62817">
        <ele>103</ele>
        <time>2025-08-10T07:20:12.696Z</time>
      </trkpt>
      <trkpt lat="44.14008" lon="0.62817">
        <ele>103</ele>
        <time>2025-08-10T07:20:13.696Z</time>
      </trkpt>
      <trkpt lat="44.14008" lon="0.62817">
        <ele>102</ele>
        <time>2025-08-10T07:20:14.696Z</time>
      </trkpt>
      <trkpt lat="44.14008" lon="0.62817">
        <ele>102</ele>
        <time>2025-08-10T07:20:15.696Z</time>
      </trkpt>
      <trkpt lat="44.14008" lon="0.62817">
        <ele>101</ele>
        <time>2025-08-10T07:20:16.696Z</time>
      </trkpt>
      <trkpt lat="44.14008" lon="0.62817">
        <ele>101</ele>
        <time>2025-08-10T07:20:17.696Z</time>
      </trkpt>
      <trkpt lat="44.14008" lon="0.62817">
        <ele>101</ele>
        <time>2025-08-10T07:20:18.696Z</time>
      </trkpt>
      <trkpt lat="44.14008" lon="0.62817">
        <ele>101</ele>
        <time>2025-08-10T07:20:19.696Z</time>
      </trkpt>
      <trkpt lat="44.14008" lon="0.62817">
        <ele>101</ele>
        <time>2025-08-10T07:20:20.696Z</time>
      </trkpt>
      <trkpt lat="44.14008" lon="0.62817">
        <ele>101</ele>
        <time>2025-08-10T07:20:21.697Z</time>
      </trkpt>
      <trkpt lat="44.14008" lon="0.62817">
        <ele>101</ele>
        <time>2025-08-10T07:20:22.696Z</time>
      </trkpt>
      <trkpt lat="44.14008" lon="0.62817">
        <ele>101</ele>
        <time>2025-08-10T07:20:23.696Z</time>
      </trkpt>
      <trkpt lat="44.14008" lon="0.62817">
        <ele>102</ele>
        <time>2025-08-10T07:20:24.696Z</time>
      </trkpt>
      <trkpt lat="44.14008" lon="0.62817">
        <ele>103</ele>
        <time>2025-08-10T07:20:25.696Z</time>
      </trkpt>
      <trkpt lat="44.14008" lon="0.62817">
        <ele>104</ele>
        <time>2025-08-10T07:20:26.696Z</time>
      </trkpt>
      <trkpt lat="44.14008" lon="0.62817">
        <ele>105</ele>
        <time>2025-08-10T07:20:27.696Z</time>
      </trkpt>
      <trkpt lat="44.14008" lon="0.62817">
        <ele>105</ele>
        <time>2025-08-10T07:20:28.696Z</time>
      </trkpt>
      <trkpt lat="44.14008" lon="0.62817">
        <ele>106</ele>
        <time>2025-08-10T07:20:29.696Z</time>
      </trkpt>
      <trkpt lat="44.14008" lon="0.62817">
        <ele>106</ele>
        <time>2025-08-10T07:20:30.696Z</time>
      </trkpt>
      <trkpt lat="44.14008" lon="0.62817">
        <ele>107</ele>
        <time>2025-08-10T07:20:31.696Z</time>
      </trkpt>
      <trkpt lat="44.14008" lon="0.62817">
        <ele>107</ele>
        <time>2025-08-10T07:20:32.696Z</time>
      </trkpt>
      <trkpt lat="44.14008" lon="0.62817">
        <ele>107</ele>
        <time>2025-08-10T07:20:33.696Z</time>
      </trkpt>
      <trkpt lat="44.14008" lon="0.62817">
        <ele>107</ele>
        <time>2025-08-10T07:20:34.696Z</time>
      </trkpt>
      <trkpt lat="44.14008" lon="0.62817">
        <ele>106</ele>
        <time>2025-08-10T07:20:35.696Z</time>
      </trkpt>
      <trkpt lat="44.14008" lon="0.62816">
        <ele>106</ele>
        <time>2025-08-10T07:20:36.696Z</time>
      </trkpt>
      <trkpt lat="44.14008" lon="0.62816">
        <ele>107</ele>
        <time>2025-08-10T07:20:37.696Z</time>
      </trkpt>
      <trkpt lat="44.14008" lon="0.62816">
        <ele>108</ele>
        <time>2025-08-10T07:20:38.696Z</time>
      </trkpt>
      <trkpt lat="44.14008" lon="0.62816">
        <ele>109</ele>
        <time>2025-08-10T07:20:39.696Z</time>
      </trkpt>
      <trkpt lat="44.14008" lon="0.62816">
        <ele>110</ele>
        <time>2025-08-10T07:20:40.696Z</time>
      </trkpt>
      <trkpt lat="44.14009" lon="0.62816">
        <ele>110</ele>
        <time>2025-08-10T07:20:41.696Z</time>
      </trkpt>
      <trkpt lat="44.14009" lon="0.62816">
        <ele>110</ele>
        <time>2025-08-10T07:20:42.696Z</time>
      </trkpt>
      <trkpt lat="44.14009" lon="0.62816">
        <ele>110</ele>
        <time>2025-08-10T07:20:43.696Z</time>
      </trkpt>
      <trkpt lat="44.14009" lon="0.62816">
        <ele>110</ele>
        <time>2025-08-10T07:20:44.696Z</time>
      </trkpt>
      <trkpt lat="44.14009" lon="0.62816">
        <ele>110</ele>
        <time>2025-08-10T07:20:45.696Z</time>
      </trkpt>
      <trkpt lat="44.14009" lon="0.62816">
        <ele>110</ele>
        <time>2025-08-10T07:20:46.696Z</time>
      </trkpt>
      <trkpt lat="44.14009" lon="0.62816">
        <ele>111</ele>
        <time>2025-08-10T07:20:47.696Z</time>
      </trkpt>
      <trkpt lat="44.14008" lon="0.62816">
        <ele>111</ele>
        <time>2025-08-10T07:20:48.696Z</time>
      </trkpt>
      <trkpt lat="44.14008" lon="0.62816">
        <ele>111</ele>
        <time>2025-08-10T07:20:49.696Z</time>
      </trkpt>
      <trkpt lat="44.14009" lon="0.62816">
        <ele>112</ele>
        <time>2025-08-10T07:20:50.696Z</time>
      </trkpt>
      <trkpt lat="44.14009" lon="0.62816">
        <ele>112</ele>
        <time>2025-08-10T07:20:51.696Z</time>
      </trkpt>
      <trkpt lat="44.1401" lon="0.62815">
        <ele>112</ele>
        <time>2025-08-10T07:20:52.696Z</time>
      </trkpt>
      <trkpt lat="44.1401" lon="0.62815">
        <ele>112</ele>
        <time>2025-08-10T07:20:53.696Z</time>
      </trkpt>
      <trkpt lat="44.1401" lon="0.62815">
        <ele>112</ele>
        <time>2025-08-10T07:20:54.696Z</time>
      </trkpt>
      <trkpt lat="44.1401" lon="0.62815">
        <ele>112</ele>
        <time>2025-08-10T07:20:55.696Z</time>
      </trkpt>
      <trkpt lat="44.1401" lon="0.62815">
        <ele>112</ele>
        <time>2025-08-10T07:20:56.696Z</time>
      </trkpt>
      <trkpt lat="44.14009" lon="0.62814">
        <ele>112</ele>
        <time>2025-08-10T07:20:57.696Z</time>
      </trkpt>
      <trkpt lat="44.14008" lon="0.62814">
        <ele>112</ele>
        <time>2025-08-10T07:20:58.696Z</time>
      </trkpt>
      <trkpt lat="44.14008" lon="0.62814">
        <ele>112</ele>
        <time>2025-08-10T07:20:59.696Z</time>
      </trkpt>
      <trkpt lat="44.14008" lon="0.62814">
        <ele>112</ele>
        <time>2025-08-10T07:21:00.696Z</time>
      </trkpt>
      <trkpt lat="44.14008" lon="0.62814">
        <ele>112</ele>
        <time>2025-08-10T07:21:01.696Z</time>
      </trkpt>
      <trkpt lat="44.14008" lon="0.62814">
        <ele>112</ele>
        <time>2025-08-10T07:21:02.696Z</time>
      </trkpt>
      <trkpt lat="44.14008" lon="0.62814">
        <ele>112</ele>
        <time>2025-08-10T07:21:03.696Z</time>
      </trkpt>
      <trkpt lat="44.14008" lon="0.62814">
        <ele>112</ele>
        <time>2025-08-10T07:21:04.696Z</time>
      </trkpt>
      <trkpt lat="44.14009" lon="0.62814">
        <ele>112</ele>
        <time>2025-08-10T07:21:05.696Z</time>
      </trkpt>
      <trkpt lat="44.14009" lon="0.62814">
        <ele>111</ele>
        <time>2025-08-10T07:21:06.696Z</time>
      </trkpt>
      <trkpt lat="44.14009" lon="0.62814">
        <ele>111</ele>
        <time>2025-08-10T07:21:07.696Z</time>
      </trkpt>
      <trkpt lat="44.14009" lon="0.62814">
        <ele>111</ele>
        <time>2025-08-10T07:21:08.696Z</time>
      </trkpt>
      <trkpt lat="44.14009" lon="0.62814">
        <ele>110</ele>
        <time>2025-08-10T07:21:09.696Z</time>
      </trkpt>
      <trkpt lat="44.14009" lon="0.62814">
        <ele>110</ele>
        <time>2025-08-10T07:21:10.696Z</time>
      </trkpt>
      <trkpt lat="44.14009" lon="0.62814">
        <ele>109</ele>
        <time>2025-08-10T07:21:11.696Z</time>
      </trkpt>
      <trkpt lat="44.14009" lon="0.62814">
        <ele>109</ele>
        <time>2025-08-10T07:21:12.696Z</time>
      </trkpt>
      <trkpt lat="44.14008" lon="0.62814">
        <ele>109</ele>
        <time>2025-08-10T07:21:13.696Z</time>
      </trkpt>
      <trkpt lat="44.14009" lon="0.62814">
        <ele>109</ele>
        <time>2025-08-10T07:21:14.696Z</time>
      </trkpt>
      <trkpt lat="44.14009" lon="0.62814">
        <ele>109</ele>
        <time>2025-08-10T07:21:15.696Z</time>
      </trkpt>
      <trkpt lat="44.14009" lon="0.62814">
        <ele>109</ele>
        <time>2025-08-10T07:21:16.696Z</time>
      </trkpt>
      <trkpt lat="44.14009" lon="0.62813">
        <ele>109</ele>
        <time>2025-08-10T07:21:17.696Z</time>
      </trkpt>
      <trkpt lat="44.14009" lon="0.62813">
        <ele>110</ele>
        <time>2025-08-10T07:21:18.696Z</time>
      </trkpt>
      <trkpt lat="44.14009" lon="0.62813">
        <ele>110</ele>
        <time>2025-08-10T07:21:19.696Z</time>
      </trkpt>
      <trkpt lat="44.14009" lon="0.62813">
        <ele>110</ele>
        <time>2025-08-10T07:21:20.696Z</time>
      </trkpt>
      <trkpt lat="44.14009" lon="0.62813">
        <ele>110</ele>
        <time>2025-08-10T07:21:21.696Z</time>
      </trkpt>
      <trkpt lat="44.1401" lon="0.62813">
        <ele>110</ele>
        <time>2025-08-10T07:21:22.696Z</time>
      </trkpt>
      <trkpt lat="44.1401" lon="0.62813">
        <ele>110</ele>
        <time>2025-08-10T07:21:23.696Z</time>
      </trkpt>
      <trkpt lat="44.14011" lon="0.62813">
        <ele>110</ele>
        <time>2025-08-10T07:21:24.696Z</time>
      </trkpt>
      <trkpt lat="44.14012" lon="0.62813">
        <ele>110</ele>
        <time>2025-08-10T07:21:25.696Z</time>
      </trkpt>
      <trkpt lat="44.14012" lon="0.62813">
        <ele>110</ele>
        <time>2025-08-10T07:21:26.696Z</time>
      </trkpt>
      <trkpt lat="44.14012" lon="0.62813">
        <ele>110</ele>
        <time>2025-08-10T07:21:27.696Z</time>
      </trkpt>
      <trkpt lat="44.14013" lon="0.62813">
        <ele>110</ele>
        <time>2025-08-10T07:21:28.696Z</time>
      </trkpt>
      <trkpt lat="44.14013" lon="0.62814">
        <ele>109</ele>
        <time>2025-08-10T07:21:29.696Z</time>
      </trkpt>
      <trkpt lat="44.14013" lon="0.62814">
        <ele>109</ele>
        <time>2025-08-10T07:21:30.696Z</time>
      </trkpt>
      <trkpt lat="44.14013" lon="0.62814">
        <ele>108</ele>
        <time>2025-08-10T07:21:31.696Z</time>
      </trkpt>
      <trkpt lat="44.14013" lon="0.62814">
        <ele>107</ele>
        <time>2025-08-10T07:21:32.696Z</time>
      </trkpt>
      <trkpt lat="44.14012" lon="0.62814">
        <ele>106</ele>
        <time>2025-08-10T07:21:33.696Z</time>
      </trkpt>
      <trkpt lat="44.14012" lon="0.62814">
        <ele>106</ele>
        <time>2025-08-10T07:21:34.696Z</time>
      </trkpt>
      <trkpt lat="44.14012" lon="0.62814">
        <ele>105</ele>
        <time>2025-08-10T07:21:35.696Z</time>
      </trkpt>
      <trkpt lat="44.14012" lon="0.62814">
        <ele>104</ele>
        <time>2025-08-10T07:21:36.696Z</time>
      </trkpt>
      <trkpt lat="44.14012" lon="0.62814">
        <ele>104</ele>
        <time>2025-08-10T07:21:37.696Z</time>
      </trkpt>
      <trkpt lat="44.14012" lon="0.62814">
        <ele>105</ele>
        <time>2025-08-10T07:21:38.696Z</time>
      </trkpt>
      <trkpt lat="44.14012" lon="0.62814">
        <ele>105</ele>
        <time>2025-08-10T07:21:39.696Z</time>
      </trkpt>
      <trkpt lat="44.14012" lon="0.62814">
        <ele>106</ele>
        <time>2025-08-10T07:21:40.696Z</time>
      </trkpt>
      <trkpt lat="44.14012" lon="0.62814">
        <ele>107</ele>
        <time>2025-08-10T07:21:41.696Z</time>
      </trkpt>
      <trkpt lat="44.14012" lon="0.62814">
        <ele>107</ele>
        <time>2025-08-10T07:21:42.696Z</time>
      </trkpt>
      <trkpt lat="44.14012" lon="0.62814">
        <ele>108</ele>
        <time>2025-08-10T07:21:43.696Z</time>
      </trkpt>
      <trkpt lat="44.14013" lon="0.62814">
        <ele>108</ele>
        <time>2025-08-10T07:21:44.696Z</time>
      </trkpt>
      <trkpt lat="44.14013" lon="0.62814">
        <ele>109</ele>
        <time>2025-08-10T07:21:45.696Z</time>
      </trkpt>
      <trkpt lat="44.14013" lon="0.62814">
        <ele>109</ele>
        <time>2025-08-10T07:21:46.696Z</time>
      </trkpt>
      <trkpt lat="44.14013" lon="0.62814">
        <ele>109</ele>
        <time>2025-08-10T07:21:47.696Z</time>
      </trkpt>
      <trkpt lat="44.14013" lon="0.62814">
        <ele>109</ele>
        <time>2025-08-10T07:21:48.696Z</time>
      </trkpt>
      <trkpt lat="44.14012" lon="0.62814">
        <ele>109</ele>
        <time>2025-08-10T07:21:49.696Z</time>
      </trkpt>
      <trkpt lat="44.14012" lon="0.62815">
        <ele>109</ele>
        <time>2025-08-10T07:21:50.696Z</time>
      </trkpt>
      <trkpt lat="44.14013" lon="0.62815">
        <ele>109</ele>
        <time>2025-08-10T07:21:51.696Z</time>
      </trkpt>
      <trkpt lat="44.14013" lon="0.62815">
        <ele>109</ele>
        <time>2025-08-10T07:21:52.696Z</time>
      </trkpt>
      <trkpt lat="44.14013" lon="0.62815">
        <ele>109</ele>
        <time>2025-08-10T07:21:53.696Z</time>
      </trkpt>
      <trkpt lat="44.14013" lon="0.62815">
        <ele>109</ele>
        <time>2025-08-10T07:21:54.696Z</time>
      </trkpt>
      <trkpt lat="44.14013" lon="0.62815">
        <ele>109</ele>
        <time>2025-08-10T07:21:55.696Z</time>
      </trkpt>
      <trkpt lat="44.14013" lon="0.62815">
        <ele>109</ele>
        <time>2025-08-10T07:21:56.696Z</time>
      </trkpt>
      <trkpt lat="44.14013" lon="0.62815">
        <ele>109</ele>
        <time>2025-08-10T07:21:57.696Z</time>
      </trkpt>
      <trkpt lat="44.14013" lon="0.62815">
        <ele>108</ele>
        <time>2025-08-10T07:21:58.696Z</time>
      </trkpt>
      <trkpt lat="44.14013" lon="0.62815">
        <ele>108</ele>
        <time>2025-08-10T07:21:59.696Z</time>
      </trkpt>
      <trkpt lat="44.14013" lon="0.62816">
        <ele>108</ele>
        <time>2025-08-10T07:22:00.696Z</time>
      </trkpt>
      <trkpt lat="44.14013" lon="0.62816">
        <ele>108</ele>
        <time>2025-08-10T07:22:01.696Z</time>
      </trkpt>
      <trkpt lat="44.14013" lon="0.62816">
        <ele>108</ele>
        <time>2025-08-10T07:22:02.696Z</time>
      </trkpt>
      <trkpt lat="44.14013" lon="0.62816">
        <ele>108</ele>
        <time>2025-08-10T07:22:03.696Z</time>
      </trkpt>
      <trkpt lat="44.14012" lon="0.62816">
        <ele>108</ele>
        <time>2025-08-10T07:22:04.696Z</time>
      </trkpt>
      <trkpt lat="44.14012" lon="0.62816">
        <ele>108</ele>
        <time>2025-08-10T07:22:05.696Z</time>
      </trkpt>
      <trkpt lat="44.14012" lon="0.62816">
        <ele>107</ele>
        <time>2025-08-10T07:22:06.696Z</time>
      </trkpt>
      <trkpt lat="44.14012" lon="0.62816">
        <ele>106</ele>
        <time>2025-08-10T07:22:07.696Z</time>
      </trkpt>
      <trkpt lat="44.14012" lon="0.62816">
        <ele>106</ele>
        <time>2025-08-10T07:22:08.696Z</time>
      </trkpt>
      <trkpt lat="44.14012" lon="0.62816">
        <ele>105</ele>
        <time>2025-08-10T07:22:09.696Z</time>
      </trkpt>
      <trkpt lat="44.14012" lon="0.62816">
        <ele>104</ele>
        <time>2025-08-10T07:22:10.696Z</time>
      </trkpt>
      <trkpt lat="44.14012" lon="0.62816">
        <ele>104</ele>
        <time>2025-08-10T07:22:11.696Z</time>
      </trkpt>
      <trkpt lat="44.14012" lon="0.62815">
        <ele>103</ele>
        <time>2025-08-10T07:22:12.696Z</time>
      </trkpt>
      <trkpt lat="44.14012" lon="0.62815">
        <ele>103</ele>
        <time>2025-08-10T07:22:13.696Z</time>
      </trkpt>
      <trkpt lat="44.14012" lon="0.62815">
        <ele>102</ele>
        <time>2025-08-10T07:22:14.696Z</time>
      </trkpt>
      <trkpt lat="44.14012" lon="0.62815">
        <ele>102</ele>
        <time>2025-08-10T07:22:15.696Z</time>
      </trkpt>
      <trkpt lat="44.14012" lon="0.62815">
        <ele>101</ele>
        <time>2025-08-10T07:22:16.696Z</time>
      </trkpt>
      <trkpt lat="44.14011" lon="0.62815">
        <ele>101</ele>
        <time>2025-08-10T07:22:17.696Z</time>
      </trkpt>
      <trkpt lat="44.14011" lon="0.62815">
        <ele>101</ele>
        <time>2025-08-10T07:22:18.696Z</time>
      </trkpt>
      <trkpt lat="44.14011" lon="0.62815">
        <ele>100</ele>
        <time>2025-08-10T07:22:19.696Z</time>
      </trkpt>
      <trkpt lat="44.1401" lon="0.62815">
        <ele>100</ele>
        <time>2025-08-10T07:22:20.696Z</time>
      </trkpt>
      <trkpt lat="44.1401" lon="0.62815">
        <ele>100</ele>
        <time>2025-08-10T07:22:21.696Z</time>
      </trkpt>
      <trkpt lat="44.14011" lon="0.62815">
        <ele>99</ele>
        <time>2025-08-10T07:22:22.696Z</time>
      </trkpt>
      <trkpt lat="44.14011" lon="0.62815">
        <ele>99</ele>
        <time>2025-08-10T07:22:23.696Z</time>
      </trkpt>
      <trkpt lat="44.14011" lon="0.62815">
        <ele>99</ele>
        <time>2025-08-10T07:22:24.696Z</time>
      </trkpt>
      <trkpt lat="44.14011" lon="0.62815">
        <ele>99</ele>
        <time>2025-08-10T07:22:25.696Z</time>
      </trkpt>
      <trkpt lat="44.14011" lon="0.62815">
        <ele>99</ele>
        <time>2025-08-10T07:22:26.696Z</time>
      </trkpt>
      <trkpt lat="44.14011" lon="0.62815">
        <ele>99</ele>
        <time>2025-08-10T07:22:27.696Z</time>
      </trkpt>
      <trkpt lat="44.14011" lon="0.62815">
        <ele>99</ele>
        <time>2025-08-10T07:22:28.696Z</time>
      </trkpt>
      <trkpt lat="44.14011" lon="0.62815">
        <ele>99</ele>
        <time>2025-08-10T07:22:29.696Z</time>
      </trkpt>
      <trkpt lat="44.14011" lon="0.62815">
        <ele>99</ele>
        <time>2025-08-10T07:22:30.696Z</time>
      </trkpt>
      <trkpt lat="44.14011" lon="0.62816">
        <ele>99</ele>
        <time>2025-08-10T07:22:31.696Z</time>
      </trkpt>
      <trkpt lat="44.14011" lon="0.62816">
        <ele>100</ele>
        <time>2025-08-10T07:22:32.696Z</time>
      </trkpt>
      <trkpt lat="44.14011" lon="0.62816">
        <ele>100</ele>
        <time>2025-08-10T07:22:33.697Z</time>
      </trkpt>
      <trkpt lat="44.14011" lon="0.62816">
        <ele>100</ele>
        <time>2025-08-10T07:22:34.696Z</time>
      </trkpt>
      <trkpt lat="44.14011" lon="0.62816">
        <ele>100</ele>
        <time>2025-08-10T07:22:35.696Z</time>
      </trkpt>
      <trkpt lat="44.1401" lon="0.62816">
        <ele>101</ele>
        <time>2025-08-10T07:22:36.696Z</time>
      </trkpt>
      <trkpt lat="44.1401" lon="0.62815">
        <ele>101</ele>
        <time>2025-08-10T07:22:37.696Z</time>
      </trkpt>
      <trkpt lat="44.14009" lon="0.62815">
        <ele>101</ele>
        <time>2025-08-10T07:22:38.696Z</time>
      </trkpt>
      <trkpt lat="44.14009" lon="0.62815">
        <ele>102</ele>
        <time>2025-08-10T07:22:39.696Z</time>
      </trkpt>
      <trkpt lat="44.14009" lon="0.62815">
        <ele>102</ele>
        <time>2025-08-10T07:22:40.696Z</time>
      </trkpt>
      <trkpt lat="44.14009" lon="0.62815">
        <ele>102</ele>
        <time>2025-08-10T07:22:41.696Z</time>
      </trkpt>
      <trkpt lat="44.14009" lon="0.62815">
        <ele>102</ele>
        <time>2025-08-10T07:22:42.696Z</time>
      </trkpt>
      <trkpt lat="44.14009" lon="0.62815">
        <ele>102</ele>
        <time>2025-08-10T07:22:43.696Z</time>
      </trkpt>
      <trkpt lat="44.14009" lon="0.62815">
        <ele>103</ele>
        <time>2025-08-10T07:22:44.696Z</time>
      </trkpt>
      <trkpt lat="44.14009" lon="0.62815">
        <ele>103</ele>
        <time>2025-08-10T07:22:45.696Z</time>
      </trkpt>
      <trkpt lat="44.14009" lon="0.62815">
        <ele>104</ele>
        <time>2025-08-10T07:22:46.696Z</time>
      </trkpt>
      <trkpt lat="44.14009" lon="0.62815">
        <ele>104</ele>
        <time>2025-08-10T07:22:47.696Z</time>
      </trkpt>
      <trkpt lat="44.14009" lon="0.62815">
        <ele>104</ele>
        <time>2025-08-10T07:22:48.696Z</time>
      </trkpt>
      <trkpt lat="44.14009" lon="0.62815">
        <ele>105</ele>
        <time>2025-08-10T07:22:49.696Z</time>
      </trkpt>
      <trkpt lat="44.14009" lon="0.62815">
        <ele>105</ele>
        <time>2025-08-10T07:22:50.696Z</time>
      </trkpt>
      <trkpt lat="44.14009" lon="0.62815">
        <ele>106</ele>
        <time>2025-08-10T07:22:51.696Z</time>
      </trkpt>
      <trkpt lat="44.14009" lon="0.62815">
        <ele>107</ele>
        <time>2025-08-10T07:22:52.696Z</time>
      </trkpt>
      <trkpt lat="44.14009" lon="0.62815">
        <ele>107</ele>
        <time>2025-08-10T07:22:53.696Z</time>
      </trkpt>
      <trkpt lat="44.14009" lon="0.62815">
        <ele>108</ele>
        <time>2025-08-10T07:22:54.696Z</time>
      </trkpt>
      <trkpt lat="44.14009" lon="0.62815">
        <ele>109</ele>
        <time>2025-08-10T07:22:55.696Z</time>
      </trkpt>
      <trkpt lat="44.14009" lon="0.62815">
        <ele>109</ele>
        <time>2025-08-10T07:22:56.696Z</time>
      </trkpt>
      <trkpt lat="44.14009" lon="0.62815">
        <ele>109</ele>
        <time>2025-08-10T07:22:57.696Z</time>
      </trkpt>
      <trkpt lat="44.14009" lon="0.62815">
        <ele>109</ele>
        <time>2025-08-10T07:22:58.696Z</time>
      </trkpt>
      <trkpt lat="44.14009" lon="0.62815">
        <ele>109</ele>
        <time>2025-08-10T07:22:59.696Z</time>
      </trkpt>
      <trkpt lat="44.14009" lon="0.62815">
        <ele>109</ele>
        <time>2025-08-10T07:23:00.696Z</time>
      </trkpt>
      <trkpt lat="44.14009" lon="0.62815">
        <ele>110</ele>
        <time>2025-08-10T07:23:01.696Z</time>
      </trkpt>
      <trkpt lat="44.14009" lon="0.62815">
        <ele>110</ele>
        <time>2025-08-10T07:23:02.696Z</time>
      </trkpt>
      <trkpt lat="44.14009" lon="0.62815">
        <ele>110</ele>
        <time>2025-08-10T07:23:03.696Z</time>
      </trkpt>
      <trkpt lat="44.14009" lon="0.62815">
        <ele>110</ele>
        <time>2025-08-10T07:23:04.696Z</time>
      </trkpt>
      <trkpt lat="44.14009" lon="0.62815">
        <ele>110</ele>
        <time>2025-08-10T07:23:05.696Z</time>
      </trkpt>
      <trkpt lat="44.14008" lon="0.62814">
        <ele>110</ele>
        <time>2025-08-10T07:23:06.696Z</time>
      </trkpt>
      <trkpt lat="44.14008" lon="0.62814">
        <ele>110</ele>
        <time>2025-08-10T07:23:07.696Z</time>
      </trkpt>
      <trkpt lat="44.14008" lon="0.62814">
        <ele>109</ele>
        <time>2025-08-10T07:23:08.696Z</time>
      </trkpt>
      <trkpt lat="44.14008" lon="0.62813">
        <ele>108</ele>
        <time>2025-08-10T07:23:09.696Z</time>
      </trkpt>
      <trkpt lat="44.14008" lon="0.62813">
        <ele>108</ele>
        <time>2025-08-10T07:23:10.696Z</time>
      </trkpt>
      <trkpt lat="44.14008" lon="0.62812">
        <ele>108</ele>
        <time>2025-08-10T07:23:11.696Z</time>
      </trkpt>
      <trkpt lat="44.14008" lon="0.62812">
        <ele>107</ele>
        <time>2025-08-10T07:23:12.696Z</time>
      </trkpt>
      <trkpt lat="44.14008" lon="0.62812">
        <ele>107</ele>
        <time>2025-08-10T07:23:13.697Z</time>
      </trkpt>
      <trkpt lat="44.14008" lon="0.62812">
        <ele>107</ele>
        <time>2025-08-10T07:23:14.696Z</time>
      </trkpt>
      <trkpt lat="44.14009" lon="0.62812">
        <ele>107</ele>
        <time>2025-08-10T07:23:15.696Z</time>
      </trkpt>
      <trkpt lat="44.14009" lon="0.62812">
        <ele>107</ele>
        <time>2025-08-10T07:23:16.696Z</time>
      </trkpt>
      <trkpt lat="44.14009" lon="0.62812">
        <ele>107</ele>
        <time>2025-08-10T07:23:17.696Z</time>
      </trkpt>
      <trkpt lat="44.14009" lon="0.62812">
        <ele>107</ele>
        <time>2025-08-10T07:23:18.696Z</time>
      </trkpt>
      <trkpt lat="44.14009" lon="0.62812">
        <ele>107</ele>
        <time>2025-08-10T07:23:19.696Z</time>
      </trkpt>
      <trkpt lat="44.14009" lon="0.62812">
        <ele>107</ele>
        <time>2025-08-10T07:23:20.696Z</time>
      </trkpt>
      <trkpt lat="44.14009" lon="0.62812">
        <ele>107</ele>
        <time>2025-08-10T07:23:21.696Z</time>
      </trkpt>
      <trkpt lat="44.14009" lon="0.62812">
        <ele>107</ele>
        <time>2025-08-10T07:23:22.696Z</time>
      </trkpt>
      <trkpt lat="44.14009" lon="0.62812">
        <ele>107</ele>
        <time>2025-08-10T07:23:23.696Z</time>
      </trkpt>
      <trkpt lat="44.14009" lon="0.62812">
        <ele>107</ele>
        <time>2025-08-10T07:23:24.696Z</time>
      </trkpt>
      <trkpt lat="44.14009" lon="0.62812">
        <ele>107</ele>
        <time>2025-08-10T07:23:25.696Z</time>
      </trkpt>
      <trkpt lat="44.14009" lon="0.62812">
        <ele>106</ele>
        <time>2025-08-10T07:23:26.696Z</time>
      </trkpt>
      <trkpt lat="44.14009" lon="0.62812">
        <ele>106</ele>
        <time>2025-08-10T07:23:27.696Z</time>
      </trkpt>
      <trkpt lat="44.14008" lon="0.62812">
        <ele>106</ele>
        <time>2025-08-10T07:23:28.696Z</time>
      </trkpt>
      <trkpt lat="44.14009" lon="0.62812">
        <ele>106</ele>
        <time>2025-08-10T07:23:29.696Z</time>
      </trkpt>
      <trkpt lat="44.14009" lon="0.62812">
        <ele>105</ele>
        <time>2025-08-10T07:23:30.696Z</time>
      </trkpt>
      <trkpt lat="44.14009" lon="0.62812">
        <ele>105</ele>
        <time>2025-08-10T07:23:31.696Z</time>
      </trkpt>
      <trkpt lat="44.14009" lon="0.62812">
        <ele>105</ele>
        <time>2025-08-10T07:23:32.696Z</time>
      </trkpt>
      <trkpt lat="44.14009" lon="0.62812">
        <ele>105</ele>
        <time>2025-08-10T07:23:33.696Z</time>
      </trkpt>
      <trkpt lat="44.14009" lon="0.62812">
        <ele>105</ele>
        <time>2025-08-10T07:23:34.696Z</time>
      </trkpt>
      <trkpt lat="44.14009" lon="0.62812">
        <ele>105</ele>
        <time>2025-08-10T07:23:35.696Z</time>
      </trkpt>
      <trkpt lat="44.1401" lon="0.62812">
        <ele>104</ele>
        <time>2025-08-10T07:23:36.696Z</time>
      </trkpt>
      <trkpt lat="44.14011" lon="0.62813">
        <ele>104</ele>
        <time>2025-08-10T07:23:37.696Z</time>
      </trkpt>
      <trkpt lat="44.14011" lon="0.62813">
        <ele>103</ele>
        <time>2025-08-10T07:23:38.696Z</time>
      </trkpt>
      <trkpt lat="44.14011" lon="0.62813">
        <ele>103</ele>
        <time>2025-08-10T07:23:39.696Z</time>
      </trkpt>
      <trkpt lat="44.14011" lon="0.62813">
        <ele>103</ele>
        <time>2025-08-10T07:23:40.696Z</time>
      </trkpt>
      <trkpt lat="44.14011" lon="0.62813">
        <ele>102</ele>
        <time>2025-08-10T07:23:41.696Z</time>
      </trkpt>
      <trkpt lat="44.14011" lon="0.62813">
        <ele>102</ele>
        <time>2025-08-10T07:23:42.696Z</time>
      </trkpt>
      <trkpt lat="44.14011" lon="0.62813">
        <ele>102</ele>
        <time>2025-08-10T07:23:43.696Z</time>
      </trkpt>
      <trkpt lat="44.14012" lon="0.62814">
        <ele>102</ele>
        <time>2025-08-10T07:23:44.696Z</time>
      </trkpt>
      <trkpt lat="44.14012" lon="0.62815">
        <ele>102</ele>
        <time>2025-08-10T07:23:45.696Z</time>
      </trkpt>
      <trkpt lat="44.14012" lon="0.62815">
        <ele>102</ele>
        <time>2025-08-10T07:23:46.696Z</time>
      </trkpt>
      <trkpt lat="44.14012" lon="0.62815">
        <ele>102</ele>
        <time>2025-08-10T07:23:47.696Z</time>
      </trkpt>
      <trkpt lat="44.14012" lon="0.62815">
        <ele>102</ele>
        <time>2025-08-10T07:23:48.696Z</time>
      </trkpt>
      <trkpt lat="44.14012" lon="0.62815">
        <ele>102</ele>
        <time>2025-08-10T07:23:49.696Z</time>
      </trkpt>
      <trkpt lat="44.14012" lon="0.62815">
        <ele>102</ele>
        <time>2025-08-10T07:23:50.696Z</time>
      </trkpt>
      <trkpt lat="44.14012" lon="0.62815">
        <ele>102</ele>
        <time>2025-08-10T07:23:51.696Z</time>
      </trkpt>
      <trkpt lat="44.14012" lon="0.62815">
        <ele>102</ele>
        <time>2025-08-10T07:23:52.696Z</time>
      </trkpt>
      <trkpt lat="44.14012" lon="0.62815">
        <ele>102</ele>
        <time>2025-08-10T07:23:53.696Z</time>
      </trkpt>
      <trkpt lat="44.14012" lon="0.62815">
        <ele>102</ele>
        <time>2025-08-10T07:23:54.696Z</time>
      </trkpt>
      <trkpt lat="44.14012" lon="0.62815">
        <ele>103</ele>
        <time>2025-08-10T07:23:55.696Z</time>
      </trkpt>
      <trkpt lat="44.14012" lon="0.62816">
        <ele>103</ele>
        <time>2025-08-10T07:23:56.696Z</time>
      </trkpt>
      <trkpt lat="44.14012" lon="0.62816">
        <ele>104</ele>
        <time>2025-08-10T07:23:57.696Z</time>
      </trkpt>
      <trkpt lat="44.14012" lon="0.62816">
        <ele>104</ele>
        <time>2025-08-10T07:23:58.696Z</time>
      </trkpt>
      <trkpt lat="44.14012" lon="0.62816">
        <ele>104</ele>
        <time>2025-08-10T07:23:59.696Z</time>
      </trkpt>
      <trkpt lat="44.14012" lon="0.62816">
        <ele>104</ele>
        <time>2025-08-10T07:24:00.696Z</time>
      </trkpt>
      <trkpt lat="44.14012" lon="0.62816">
        <ele>104</ele>
        <time>2025-08-10T07:24:01.696Z</time>
      </trkpt>
      <trkpt lat="44.14012" lon="0.62816">
        <ele>104</ele>
        <time>2025-08-10T07:24:02.696Z</time>
      </trkpt>
      <trkpt lat="44.14012" lon="0.62816">
        <ele>104</ele>
        <time>2025-08-10T07:24:03.696Z</time>
      </trkpt>
      <trkpt lat="44.14012" lon="0.62816">
        <ele>104</ele>
        <time>2025-08-10T07:24:04.696Z</time>
      </trkpt>
      <trkpt lat="44.14012" lon="0.62816">
        <ele>104</ele>
        <time>2025-08-10T07:24:05.696Z</time>
      </trkpt>
      <trkpt lat="44.14012" lon="0.62816">
        <ele>104</ele>
        <time>2025-08-10T07:24:06.696Z</time>
      </trkpt>
      <trkpt lat="44.14012" lon="0.62816">
        <ele>104</ele>
        <time>2025-08-10T07:24:07.696Z</time>
      </trkpt>
      <trkpt lat="44.14012" lon="0.62816">
        <ele>104</ele>
        <time>2025-08-10T07:24:08.696Z</time>
      </trkpt>
      <trkpt lat="44.14012" lon="0.62816">
        <ele>103</ele>
        <time>2025-08-10T07:24:09.696Z</time>
      </trkpt>
      <trkpt lat="44.14012" lon="0.62816">
        <ele>103</ele>
        <time>2025-08-10T07:24:10.696Z</time>
      </trkpt>
      <trkpt lat="44.14012" lon="0.62816">
        <ele>103</ele>
        <time>2025-08-10T07:24:11.696Z</time>
      </trkpt>
      <trkpt lat="44.14012" lon="0.62816">
        <ele>103</ele>
        <time>2025-08-10T07:24:12.696Z</time>
      </trkpt>
      <trkpt lat="44.14012" lon="0.62816">
        <ele>103</ele>
        <time>2025-08-10T07:24:13.696Z</time>
      </trkpt>
      <trkpt lat="44.14012" lon="0.62816">
        <ele>103</ele>
        <time>2025-08-10T07:24:14.696Z</time>
      </trkpt>
      <trkpt lat="44.14012" lon="0.62816">
        <ele>103</ele>
        <time>2025-08-10T07:24:15.696Z</time>
      </trkpt>
      <trkpt lat="44.14012" lon="0.62816">
        <ele>104</ele>
        <time>2025-08-10T07:24:16.696Z</time>
      </trkpt>
      <trkpt lat="44.14012" lon="0.62816">
        <ele>104</ele>
        <time>2025-08-10T07:24:17.696Z</time>
      </trkpt>
      <trkpt lat="44.14012" lon="0.62816">
        <ele>104</ele>
        <time>2025-08-10T07:24:18.696Z</time>
      </trkpt>
      <trkpt lat="44.14012" lon="0.62816">
        <ele>104</ele>
        <time>2025-08-10T07:24:19.696Z</time>
      </trkpt>
      <trkpt lat="44.14012" lon="0.62816">
        <ele>104</ele>
        <time>2025-08-10T07:24:20.696Z</time>
      </trkpt>
      <trkpt lat="44.14012" lon="0.62816">
        <ele>104</ele>
        <time>2025-08-10T07:24:21.696Z</time>
      </trkpt>
      <trkpt lat="44.14012" lon="0.62816">
        <ele>104</ele>
        <time>2025-08-10T07:24:22.696Z</time>
      </trkpt>
      <trkpt lat="44.14012" lon="0.62816">
        <ele>105</ele>
        <time>2025-08-10T07:24:23.696Z</time>
      </trkpt>
      <trkpt lat="44.14012" lon="0.62816">
        <ele>105</ele>
        <time>2025-08-10T07:24:24.697Z</time>
      </trkpt>
      <trkpt lat="44.14012" lon="0.62816">
        <ele>105</ele>
        <time>2025-08-10T07:24:25.696Z</time>
      </trkpt>
      <trkpt lat="44.14012" lon="0.62816">
        <ele>105</ele>
        <time>2025-08-10T07:24:26.696Z</time>
      </trkpt>
      <trkpt lat="44.14012" lon="0.62816">
        <ele>104</ele>
        <time>2025-08-10T07:24:27.696Z</time>
      </trkpt>
      <trkpt lat="44.14012" lon="0.62816">
        <ele>104</ele>
        <time>2025-08-10T07:24:28.696Z</time>
      </trkpt>
      <trkpt lat="44.14012" lon="0.62816">
        <ele>105</ele>
        <time>2025-08-10T07:24:29.696Z</time>
      </trkpt>
      <trkpt lat="44.14012" lon="0.62816">
        <ele>105</ele>
        <time>2025-08-10T07:24:30.696Z</time>
      </trkpt>
      <trkpt lat="44.14012" lon="0.62816">
        <ele>105</ele>
        <time>2025-08-10T07:24:31.696Z</time>
      </trkpt>
      <trkpt lat="44.14012" lon="0.62816">
        <ele>106</ele>
        <time>2025-08-10T07:24:32.696Z</time>
      </trkpt>
      <trkpt lat="44.14012" lon="0.62816">
        <ele>106</ele>
        <time>2025-08-10T07:24:33.696Z</time>
      </trkpt>
      <trkpt lat="44.14012" lon="0.62816">
        <ele>107</ele>
        <time>2025-08-10T07:24:34.696Z</time>
      </trkpt>
      <trkpt lat="44.14012" lon="0.62816">
        <ele>107</ele>
        <time>2025-08-10T07:24:35.696Z</time>
      </trkpt>
      <trkpt lat="44.14012" lon="0.62816">
        <ele>107</ele>
        <time>2025-08-10T07:24:36.696Z</time>
      </trkpt>
      <trkpt lat="44.14012" lon="0.62816">
        <ele>107</ele>
        <time>2025-08-10T07:24:37.696Z</time>
      </trkpt>
      <trkpt lat="44.14012" lon="0.62816">
        <ele>107</ele>
        <time>2025-08-10T07:24:38.696Z</time>
      </trkpt>
      <trkpt lat="44.14012" lon="0.62816">
        <ele>108</ele>
        <time>2025-08-10T07:24:39.696Z</time>
      </trkpt>
      <trkpt lat="44.14011" lon="0.62815">
        <ele>108</ele>
        <time>2025-08-10T07:24:40.696Z</time>
      </trkpt>
      <trkpt lat="44.14011" lon="0.62815">
        <ele>108</ele>
        <time>2025-08-10T07:24:41.696Z</time>
      </trkpt>
      <trkpt lat="44.14011" lon="0.62815">
        <ele>108</ele>
        <time>2025-08-10T07:24:42.696Z</time>
      </trkpt>
      <trkpt lat="44.14011" lon="0.62815">
        <ele>108</ele>
        <time>2025-08-10T07:24:43.696Z</time>
      </trkpt>
      <trkpt lat="44.14011" lon="0.62815">
        <ele>108</ele>
        <time>2025-08-10T07:24:44.696Z</time>
      </trkpt>
      <trkpt lat="44.14011" lon="0.62815">
        <ele>108</ele>
        <time>2025-08-10T07:24:45.696Z</time>
      </trkpt>
      <trkpt lat="44.14011" lon="0.62816">
        <ele>108</ele>
        <time>2025-08-10T07:24:46.696Z</time>
      </trkpt>
      <trkpt lat="44.14011" lon="0.62816">
        <ele>108</ele>
        <time>2025-08-10T07:24:47.696Z</time>
      </trkpt>
      <trkpt lat="44.14011" lon="0.62816">
        <ele>108</ele>
        <time>2025-08-10T07:24:48.696Z</time>
      </trkpt>
      <trkpt lat="44.14011" lon="0.62816">
        <ele>108</ele>
        <time>2025-08-10T07:24:49.696Z</time>
      </trkpt>
      <trkpt lat="44.14011" lon="0.62816">
        <ele>108</ele>
        <time>2025-08-10T07:24:50.696Z</time>
      </trkpt>
      <trkpt lat="44.14011" lon="0.62816">
        <ele>108</ele>
        <time>2025-08-10T07:24:51.696Z</time>
      </trkpt>
      <trkpt lat="44.14012" lon="0.62816">
        <ele>108</ele>
        <time>2025-08-10T07:24:52.696Z</time>
      </trkpt>
      <trkpt lat="44.14012" lon="0.62816">
        <ele>108</ele>
        <time>2025-08-10T07:24:53.696Z</time>
      </trkpt>
      <trkpt lat="44.14012" lon="0.62816">
        <ele>109</ele>
        <time>2025-08-10T07:24:54.696Z</time>
      </trkpt>
      <trkpt lat="44.14012" lon="0.62816">
        <ele>109</ele>
        <time>2025-08-10T07:24:55.696Z</time>
      </trkpt>
      <trkpt lat="44.14011" lon="0.62816">
        <ele>109</ele>
        <time>2025-08-10T07:24:56.696Z</time>
      </trkpt>
      <trkpt lat="44.14011" lon="0.62816">
        <ele>110</ele>
        <time>2025-08-10T07:24:57.696Z</time>
      </trkpt>
      <trkpt lat="44.14011" lon="0.62816">
        <ele>110</ele>
        <time>2025-08-10T07:24:58.696Z</time>
      </trkpt>
      <trkpt lat="44.14011" lon="0.62816">
        <ele>110</ele>
        <time>2025-08-10T07:24:59.696Z</time>
      </trkpt>
      <trkpt lat="44.14011" lon="0.62816">
        <ele>110</ele>
        <time>2025-08-10T07:25:00.696Z</time>
      </trkpt>
      <trkpt lat="44.14011" lon="0.62815">
        <ele>110</ele>
        <time>2025-08-10T07:25:01.696Z</time>
      </trkpt>
      <trkpt lat="44.14011" lon="0.62815">
        <ele>110</ele>
        <time>2025-08-10T07:25:02.696Z</time>
      </trkpt>
      <trkpt lat="44.1401" lon="0.62815">
        <ele>110</ele>
        <time>2025-08-10T07:25:03.696Z</time>
      </trkpt>
      <trkpt lat="44.1401" lon="0.62815">
        <ele>110</ele>
        <time>2025-08-10T07:25:04.696Z</time>
      </trkpt>
      <trkpt lat="44.1401" lon="0.62815">
        <ele>109</ele>
        <time>2025-08-10T07:25:05.696Z</time>
      </trkpt>
      <trkpt lat="44.1401" lon="0.62815">
        <ele>109</ele>
        <time>2025-08-10T07:25:06.696Z</time>
      </trkpt>
      <trkpt lat="44.1401" lon="0.62815">
        <ele>109</ele>
        <time>2025-08-10T07:25:07.696Z</time>
      </trkpt>
      <trkpt lat="44.1401" lon="0.62815">
        <ele>109</ele>
        <time>2025-08-10T07:25:08.696Z</time>
      </trkpt>
      <trkpt lat="44.1401" lon="0.62815">
        <ele>108</ele>
        <time>2025-08-10T07:25:09.696Z</time>
      </trkpt>
      <trkpt lat="44.1401" lon="0.62815">
        <ele>108</ele>
        <time>2025-08-10T07:25:10.696Z</time>
      </trkpt>
      <trkpt lat="44.1401" lon="0.62815">
        <ele>108</ele>
        <time>2025-08-10T07:25:11.696Z</time>
      </trkpt>
      <trkpt lat="44.1401" lon="0.62815">
        <ele>107</ele>
        <time>2025-08-10T07:25:12.696Z</time>
      </trkpt>
      <trkpt lat="44.1401" lon="0.62815">
        <ele>107</ele>
        <time>2025-08-10T07:25:13.696Z</time>
      </trkpt>
      <trkpt lat="44.1401" lon="0.62815">
        <ele>107</ele>
        <time>2025-08-10T07:25:14.696Z</time>
      </trkpt>
      <trkpt lat="44.1401" lon="0.62815">
        <ele>107</ele>
        <time>2025-08-10T07:25:15.696Z</time>
      </trkpt>
      <trkpt lat="44.1401" lon="0.62815">
        <ele>107</ele>
        <time>2025-08-10T07:25:16.696Z</time>
      </trkpt>
      <trkpt lat="44.1401" lon="0.62815">
        <ele>107</ele>
        <time>2025-08-10T07:25:17.696Z</time>
      </trkpt>
      <trkpt lat="44.1401" lon="0.62815">
        <ele>107</ele>
        <time>2025-08-10T07:25:18.697Z</time>
      </trkpt>
      <trkpt lat="44.1401" lon="0.62815">
        <ele>107</ele>
        <time>2025-08-10T07:25:19.696Z</time>
      </trkpt>
      <trkpt lat="44.1401" lon="0.62815">
        <ele>108</ele>
        <time>2025-08-10T07:25:20.696Z</time>
      </trkpt>
      <trkpt lat="44.1401" lon="0.62815">
        <ele>108</ele>
        <time>2025-08-10T07:25:21.696Z</time>
      </trkpt>
      <trkpt lat="44.1401" lon="0.62815">
        <ele>108</ele>
        <time>2025-08-10T07:25:22.696Z</time>
      </trkpt>
      <trkpt lat="44.1401" lon="0.62815">
        <ele>108</ele>
        <time>2025-08-10T07:25:23.696Z</time>
      </trkpt>
      <trkpt lat="44.1401" lon="0.62816">
        <ele>108</ele>
        <time>2025-08-10T07:25:24.696Z</time>
      </trkpt>
      <trkpt lat="44.14011" lon="0.62816">
        <ele>108</ele>
        <time>2025-08-10T07:25:25.696Z</time>
      </trkpt>
      <trkpt lat="44.14011" lon="0.62816">
        <ele>109</ele>
        <time>2025-08-10T07:25:26.696Z</time>
      </trkpt>
      <trkpt lat="44.14011" lon="0.62816">
        <ele>109</ele>
        <time>2025-08-10T07:25:27.696Z</time>
      </trkpt>
      <trkpt lat="44.14011" lon="0.62816">
        <ele>109</ele>
        <time>2025-08-10T07:25:28.696Z</time>
      </trkpt>
      <trkpt lat="44.14011" lon="0.62815">
        <ele>109</ele>
        <time>2025-08-10T07:25:29.696Z</time>
      </trkpt>
      <trkpt lat="44.14011" lon="0.62815">
        <ele>109</ele>
        <time>2025-08-10T07:25:30.696Z</time>
      </trkpt>
      <trkpt lat="44.14011" lon="0.62815">
        <ele>108</ele>
        <time>2025-08-10T07:25:31.696Z</time>
      </trkpt>
      <trkpt lat="44.14011" lon="0.62815">
        <ele>108</ele>
        <time>2025-08-10T07:25:32.696Z</time>
      </trkpt>
      <trkpt lat="44.14011" lon="0.62815">
        <ele>107</ele>
        <time>2025-08-10T07:25:33.696Z</time>
      </trkpt>
      <trkpt lat="44.14011" lon="0.62815">
        <ele>106</ele>
        <time>2025-08-10T07:25:34.696Z</time>
      </trkpt>
      <trkpt lat="44.14011" lon="0.62815">
        <ele>106</ele>
        <time>2025-08-10T07:25:35.696Z</time>
      </trkpt>
      <trkpt lat="44.14011" lon="0.62815">
        <ele>105</ele>
        <time>2025-08-10T07:25:36.696Z</time>
      </trkpt>
      <trkpt lat="44.14011" lon="0.62815">
        <ele>105</ele>
        <time>2025-08-10T07:25:37.696Z</time>
      </trkpt>
      <trkpt lat="44.14011" lon="0.62816">
        <ele>104</ele>
        <time>2025-08-10T07:25:41.696Z</time>
      </trkpt>
      <trkpt lat="44.14011" lon="0.62815">
        <ele>104</ele>
        <time>2025-08-10T07:25:42.696Z</time>
      </trkpt>
      <trkpt lat="44.14011" lon="0.62815">
        <ele>104</ele>
        <time>2025-08-10T07:25:43.696Z</time>
      </trkpt>
      <trkpt lat="44.14011" lon="0.62815">
        <ele>103</ele>
        <time>2025-08-10T07:25:44.696Z</time>
      </trkpt>
      <trkpt lat="44.14011" lon="0.62815">
        <ele>103</ele>
        <time>2025-08-10T07:25:45.696Z</time>
      </trkpt>
      <trkpt lat="44.1401" lon="0.62815">
        <ele>103</ele>
        <time>2025-08-10T07:25:46.696Z</time>
      </trkpt>
      <trkpt lat="44.1401" lon="0.62816">
        <ele>103</ele>
        <time>2025-08-10T07:25:47.696Z</time>
      </trkpt>
      <trkpt lat="44.1401" lon="0.62816">
        <ele>103</ele>
        <time>2025-08-10T07:25:48.696Z</time>
      </trkpt>
      <trkpt lat="44.1401" lon="0.62816">
        <ele>103</ele>
        <time>2025-08-10T07:25:49.696Z</time>
      </trkpt>
      <trkpt lat="44.1401" lon="0.62816">
        <ele>103</ele>
        <time>2025-08-10T07:25:50.696Z</time>
      </trkpt>
      <trkpt lat="44.1401" lon="0.62816">
        <ele>103</ele>
        <time>2025-08-10T07:25:51.696Z</time>
      </trkpt>
      <trkpt lat="44.1401" lon="0.62816">
        <ele>104</ele>
        <time>2025-08-10T07:25:52.696Z</time>
      </trkpt>
      <trkpt lat="44.1401" lon="0.62816">
        <ele>104</ele>
        <time>2025-08-10T07:25:53.696Z</time>
      </trkpt>
      <trkpt lat="44.1401" lon="0.62816">
        <ele>105</ele>
        <time>2025-08-10T07:25:54.696Z</time>
      </trkpt>
      <trkpt lat="44.1401" lon="0.62816">
        <ele>106</ele>
        <time>2025-08-10T07:25:55.696Z</time>
      </trkpt>
      <trkpt lat="44.14009" lon="0.62816">
        <ele>107</ele>
        <time>2025-08-10T07:25:56.696Z</time>
      </trkpt>
      <trkpt lat="44.14009" lon="0.62816">
        <ele>107</ele>
        <time>2025-08-10T07:25:57.696Z</time>
      </trkpt>
      <trkpt lat="44.14009" lon="0.62817">
        <ele>108</ele>
        <time>2025-08-10T07:25:58.696Z</time>
      </trkpt>
      <trkpt lat="44.14009" lon="0.62817">
        <ele>108</ele>
        <time>2025-08-10T07:25:59.696Z</time>
      </trkpt>
      <trkpt lat="44.14009" lon="0.62818">
        <ele>108</ele>
        <time>2025-08-10T07:26:00.696Z</time>
      </trkpt>
      <trkpt lat="44.14009" lon="0.62819">
        <ele>107</ele>
        <time>2025-08-10T07:26:01.696Z</time>
      </trkpt>
      <trkpt lat="44.1401" lon="0.6282">
        <ele>107</ele>
        <time>2025-08-10T07:26:02.696Z</time>
      </trkpt>
      <trkpt lat="44.14011" lon="0.62821">
        <ele>107</ele>
        <time>2025-08-10T07:26:03.696Z</time>
      </trkpt>
      <trkpt lat="44.14011" lon="0.62822">
        <ele>107</ele>
        <time>2025-08-10T07:26:04.696Z</time>
      </trkpt>
      <trkpt lat="44.14011" lon="0.62823">
        <ele>107</ele>
        <time>2025-08-10T07:26:05.696Z</time>
      </trkpt>
      <trkpt lat="44.14011" lon="0.62824">
        <ele>107</ele>
        <time>2025-08-10T07:26:06.696Z</time>
      </trkpt>
      <trkpt lat="44.14011" lon="0.62826">
        <ele>108</ele>
        <time>2025-08-10T07:26:07.696Z</time>
      </trkpt>
      <trkpt lat="44.14011" lon="0.62827">
        <ele>108</ele>
        <time>2025-08-10T07:26:08.696Z</time>
      </trkpt>
      <trkpt lat="44.14011" lon="0.62828">
        <ele>108</ele>
        <time>2025-08-10T07:26:09.696Z</time>
      </trkpt>
      <trkpt lat="44.14011" lon="0.62829">
        <ele>109</ele>
        <time>2025-08-10T07:26:10.696Z</time>
      </trkpt>
      <trkpt lat="44.14011" lon="0.62831">
        <ele>109</ele>
        <time>2025-08-10T07:26:11.696Z</time>
      </trkpt>
      <trkpt lat="44.1401" lon="0.62832">
        <ele>109</ele>
        <time>2025-08-10T07:26:12.696Z</time>
      </trkpt>
      <trkpt lat="44.1401" lon="0.62834">
        <ele>109</ele>
        <time>2025-08-10T07:26:13.696Z</time>
      </trkpt>
      <trkpt lat="44.1401" lon="0.62835">
        <ele>109</ele>
        <time>2025-08-10T07:26:14.696Z</time>
      </trkpt>
      <trkpt lat="44.14009" lon="0.62837">
        <ele>109</ele>
        <time>2025-08-10T07:26:15.696Z</time>
      </trkpt>
      <trkpt lat="44.14008" lon="0.62838">
        <ele>109</ele>
        <time>2025-08-10T07:26:16.696Z</time>
      </trkpt>
      <trkpt lat="44.14008" lon="0.62839">
        <ele>109</ele>
        <time>2025-08-10T07:26:17.696Z</time>
      </trkpt>
      <trkpt lat="44.14008" lon="0.62841">
        <ele>108</ele>
        <time>2025-08-10T07:26:18.696Z</time>
      </trkpt>
      <trkpt lat="44.14007" lon="0.62842">
        <ele>108</ele>
        <time>2025-08-10T07:26:19.696Z</time>
      </trkpt>
      <trkpt lat="44.14007" lon="0.62843">
        <ele>108</ele>
        <time>2025-08-10T07:26:20.696Z</time>
      </trkpt>
      <trkpt lat="44.14006" lon="0.62844">
        <ele>108</ele>
        <time>2025-08-10T07:26:21.696Z</time>
      </trkpt>
      <trkpt lat="44.14005" lon="0.62845">
        <ele>108</ele>
        <time>2025-08-10T07:26:22.696Z</time>
      </trkpt>
      <trkpt lat="44.14005" lon="0.62847">
        <ele>108</ele>
        <time>2025-08-10T07:26:23.696Z</time>
      </trkpt>
      <trkpt lat="44.14004" lon="0.62848">
        <ele>108</ele>
        <time>2025-08-10T07:26:24.696Z</time>
      </trkpt>
      <trkpt lat="44.14005" lon="0.6285">
        <ele>108</ele>
        <time>2025-08-10T07:26:25.696Z</time>
      </trkpt>
      <trkpt lat="44.14005" lon="0.62851">
        <ele>108</ele>
        <time>2025-08-10T07:26:26.696Z</time>
      </trkpt>
      <trkpt lat="44.14004" lon="0.62852">
        <ele>108</ele>
        <time>2025-08-10T07:26:27.696Z</time>
      </trkpt>
      <trkpt lat="44.14004" lon="0.62854">
        <ele>108</ele>
        <time>2025-08-10T07:26:28.696Z</time>
      </trkpt>
      <trkpt lat="44.14004" lon="0.62855">
        <ele>108</ele>
        <time>2025-08-10T07:26:29.696Z</time>
      </trkpt>
      <trkpt lat="44.14003" lon="0.62856">
        <ele>108</ele>
        <time>2025-08-10T07:26:30.696Z</time>
      </trkpt>
      <trkpt lat="44.14003" lon="0.62858">
        <ele>108</ele>
        <time>2025-08-10T07:26:31.696Z</time>
      </trkpt>
      <trkpt lat="44.14002" lon="0.62859">
        <ele>108</ele>
        <time>2025-08-10T07:26:32.696Z</time>
      </trkpt>
      <trkpt lat="44.14002" lon="0.6286">
        <ele>108</ele>
        <time>2025-08-10T07:26:33.696Z</time>
      </trkpt>
      <trkpt lat="44.14001" lon="0.62861">
        <ele>109</ele>
        <time>2025-08-10T07:26:34.696Z</time>
      </trkpt>
      <trkpt lat="44.14001" lon="0.62863">
        <ele>109</ele>
        <time>2025-08-10T07:26:35.696Z</time>
      </trkpt>
      <trkpt lat="44.14" lon="0.62864">
        <ele>108</ele>
        <time>2025-08-10T07:26:36.696Z</time>
      </trkpt>
      <trkpt lat="44.13999" lon="0.62865">
        <ele>108</ele>
        <time>2025-08-10T07:26:37.696Z</time>
      </trkpt>
      <trkpt lat="44.13999" lon="0.62867">
        <ele>108</ele>
        <time>2025-08-10T07:26:38.696Z</time>
      </trkpt>
      <trkpt lat="44.13998" lon="0.62868">
        <ele>109</ele>
        <time>2025-08-10T07:26:39.696Z</time>
      </trkpt>
      <trkpt lat="44.13998" lon="0.62869">
        <ele>108</ele>
        <time>2025-08-10T07:26:40.696Z</time>
      </trkpt>
      <trkpt lat="44.13998" lon="0.62871">
        <ele>108</ele>
        <time>2025-08-10T07:26:41.696Z</time>
      </trkpt>
      <trkpt lat="44.13997" lon="0.62872">
        <ele>108</ele>
        <time>2025-08-10T07:26:42.696Z</time>
      </trkpt>
      <trkpt lat="44.13996" lon="0.62874">
        <ele>109</ele>
        <time>2025-08-10T07:26:43.696Z</time>
      </trkpt>
      <trkpt lat="44.13996" lon="0.62875">
        <ele>109</ele>
        <time>2025-08-10T07:26:44.696Z</time>
      </trkpt>
      <trkpt lat="44.13996" lon="0.62877">
        <ele>109</ele>
        <time>2025-08-10T07:26:45.696Z</time>
      </trkpt>
      <trkpt lat="44.13995" lon="0.62878">
        <ele>109</ele>
        <time>2025-08-10T07:26:46.696Z</time>
      </trkpt>
      <trkpt lat="44.13995" lon="0.6288">
        <ele>110</ele>
        <time>2025-08-10T07:26:47.696Z</time>
      </trkpt>
      <trkpt lat="44.13994" lon="0.62881">
        <ele>110</ele>
        <time>2025-08-10T07:26:48.696Z</time>
      </trkpt>
      <trkpt lat="44.13994" lon="0.62883">
        <ele>110</ele>
        <time>2025-08-10T07:26:49.696Z</time>
      </trkpt>
      <trkpt lat="44.13994" lon="0.62884">
        <ele>111</ele>
        <time>2025-08-10T07:26:50.696Z</time>
      </trkpt>
      <trkpt lat="44.13993" lon="0.62885">
        <ele>111</ele>
        <time>2025-08-10T07:26:51.696Z</time>
      </trkpt>
      <trkpt lat="44.13992" lon="0.62887">
        <ele>112</ele>
        <time>2025-08-10T07:26:52.696Z</time>
      </trkpt>
      <trkpt lat="44.13991" lon="0.62889">
        <ele>112</ele>
        <time>2025-08-10T07:26:53.696Z</time>
      </trkpt>
      <trkpt lat="44.13991" lon="0.6289">
        <ele>113</ele>
        <time>2025-08-10T07:26:54.696Z</time>
      </trkpt>
      <trkpt lat="44.1399" lon="0.62891">
        <ele>113</ele>
        <time>2025-08-10T07:26:55.696Z</time>
      </trkpt>
      <trkpt lat="44.1399" lon="0.62893">
        <ele>113</ele>
        <time>2025-08-10T07:26:56.696Z</time>
      </trkpt>
      <trkpt lat="44.13989" lon="0.62894">
        <ele>114</ele>
        <time>2025-08-10T07:26:57.696Z</time>
      </trkpt>
      <trkpt lat="44.13989" lon="0.62896">
        <ele>114</ele>
        <time>2025-08-10T07:26:58.696Z</time>
      </trkpt>
      <trkpt lat="44.13988" lon="0.62897">
        <ele>113</ele>
        <time>2025-08-10T07:26:59.696Z</time>
      </trkpt>
      <trkpt lat="44.13988" lon="0.62898">
        <ele>113</ele>
        <time>2025-08-10T07:27:00.696Z</time>
      </trkpt>
      <trkpt lat="44.13987" lon="0.62899">
        <ele>113</ele>
        <time>2025-08-10T07:27:01.696Z</time>
      </trkpt>
      <trkpt lat="44.13987" lon="0.629">
        <ele>113</ele>
        <time>2025-08-10T07:27:02.696Z</time>
      </trkpt>
      <trkpt lat="44.13986" lon="0.62902">
        <ele>112</ele>
        <time>2025-08-10T07:27:03.696Z</time>
      </trkpt>
      <trkpt lat="44.13986" lon="0.62903">
        <ele>111</ele>
        <time>2025-08-10T07:27:04.696Z</time>
      </trkpt>
      <trkpt lat="44.13985" lon="0.62905">
        <ele>111</ele>
        <time>2025-08-10T07:27:05.696Z</time>
      </trkpt>
      <trkpt lat="44.13985" lon="0.62907">
        <ele>111</ele>
        <time>2025-08-10T07:27:06.696Z</time>
      </trkpt>
      <trkpt lat="44.13984" lon="0.62908">
        <ele>111</ele>
        <time>2025-08-10T07:27:07.696Z</time>
      </trkpt>
      <trkpt lat="44.13984" lon="0.6291">
        <ele>111</ele>
        <time>2025-08-10T07:27:08.696Z</time>
      </trkpt>
      <trkpt lat="44.13983" lon="0.62911">
        <ele>111</ele>
        <time>2025-08-10T07:27:09.696Z</time>
      </trkpt>
      <trkpt lat="44.13983" lon="0.62912">
        <ele>111</ele>
        <time>2025-08-10T07:27:10.696Z</time>
      </trkpt>
      <trkpt lat="44.13982" lon="0.62914">
        <ele>111</ele>
        <time>2025-08-10T07:27:11.696Z</time>
      </trkpt>
      <trkpt lat="44.13982" lon="0.62915">
        <ele>111</ele>
        <time>2025-08-10T07:27:12.696Z</time>
      </trkpt>
      <trkpt lat="44.13981" lon="0.62916">
        <ele>112</ele>
        <time>2025-08-10T07:27:13.696Z</time>
      </trkpt>
      <trkpt lat="44.13981" lon="0.62918">
        <ele>112</ele>
        <time>2025-08-10T07:27:14.696Z</time>
      </trkpt>
      <trkpt lat="44.1398" lon="0.62919">
        <ele>111</ele>
        <time>2025-08-10T07:27:15.696Z</time>
      </trkpt>
      <trkpt lat="44.1398" lon="0.6292">
        <ele>111</ele>
        <time>2025-08-10T07:27:16.696Z</time>
      </trkpt>
      <trkpt lat="44.13979" lon="0.62921">
        <ele>111</ele>
        <time>2025-08-10T07:27:17.696Z</time>
      </trkpt>
      <trkpt lat="44.13979" lon="0.62922">
        <ele>111</ele>
        <time>2025-08-10T07:27:18.696Z</time>
      </trkpt>
      <trkpt lat="44.13978" lon="0.62924">
        <ele>111</ele>
        <time>2025-08-10T07:27:19.696Z</time>
      </trkpt>
      <trkpt lat="44.13978" lon="0.62925">
        <ele>111</ele>
        <time>2025-08-10T07:27:20.696Z</time>
      </trkpt>
      <trkpt lat="44.13978" lon="0.62927">
        <ele>111</ele>
        <time>2025-08-10T07:27:21.696Z</time>
      </trkpt>
      <trkpt lat="44.13977" lon="0.62928">
        <ele>111</ele>
        <time>2025-08-10T07:27:22.696Z</time>
      </trkpt>
      <trkpt lat="44.13976" lon="0.62929">
        <ele>112</ele>
        <time>2025-08-10T07:27:23.696Z</time>
      </trkpt>
      <trkpt lat="44.13975" lon="0.62931">
        <ele>112</ele>
        <time>2025-08-10T07:27:24.696Z</time>
      </trkpt>
      <trkpt lat="44.13975" lon="0.62932">
        <ele>112</ele>
        <time>2025-08-10T07:27:25.696Z</time>
      </trkpt>
      <trkpt lat="44.13975" lon="0.62933">
        <ele>113</ele>
        <time>2025-08-10T07:27:26.696Z</time>
      </trkpt>
      <trkpt lat="44.13974" lon="0.62934">
        <ele>113</ele>
        <time>2025-08-10T07:27:27.696Z</time>
      </trkpt>
      <trkpt lat="44.13974" lon="0.62935">
        <ele>114</ele>
        <time>2025-08-10T07:27:28.696Z</time>
      </trkpt>
      <trkpt lat="44.13974" lon="0.62936">
        <ele>114</ele>
        <time>2025-08-10T07:27:29.696Z</time>
      </trkpt>
      <trkpt lat="44.13973" lon="0.62937">
        <ele>115</ele>
        <time>2025-08-10T07:27:30.696Z</time>
      </trkpt>
      <trkpt lat="44.13973" lon="0.62938">
        <ele>115</ele>
        <time>2025-08-10T07:27:31.696Z</time>
      </trkpt>
      <trkpt lat="44.13973" lon="0.6294">
        <ele>115</ele>
        <time>2025-08-10T07:27:32.696Z</time>
      </trkpt>
      <trkpt lat="44.13973" lon="0.62941">
        <ele>115</ele>
        <time>2025-08-10T07:27:33.696Z</time>
      </trkpt>
      <trkpt lat="44.13972" lon="0.62943">
        <ele>115</ele>
        <time>2025-08-10T07:27:34.696Z</time>
      </trkpt>
      <trkpt lat="44.13971" lon="0.62944">
        <ele>115</ele>
        <time>2025-08-10T07:27:35.696Z</time>
      </trkpt>
      <trkpt lat="44.13971" lon="0.62944">
        <ele>115</ele>
        <time>2025-08-10T07:27:36.696Z</time>
      </trkpt>
      <trkpt lat="44.1397" lon="0.62945">
        <ele>115</ele>
        <time>2025-08-10T07:27:37.696Z</time>
      </trkpt>
      <trkpt lat="44.1397" lon="0.62947">
        <ele>115</ele>
        <time>2025-08-10T07:27:38.696Z</time>
      </trkpt>
      <trkpt lat="44.13969" lon="0.62948">
        <ele>115</ele>
        <time>2025-08-10T07:27:39.696Z</time>
      </trkpt>
      <trkpt lat="44.13968" lon="0.6295">
        <ele>115</ele>
        <time>2025-08-10T07:27:40.696Z</time>
      </trkpt>
      <trkpt lat="44.13968" lon="0.62951">
        <ele>115</ele>
        <time>2025-08-10T07:27:41.696Z</time>
      </trkpt>
      <trkpt lat="44.13967" lon="0.62952">
        <ele>115</ele>
        <time>2025-08-10T07:27:42.696Z</time>
      </trkpt>
      <trkpt lat="44.13967" lon="0.62953">
        <ele>115</ele>
        <time>2025-08-10T07:27:43.696Z</time>
      </trkpt>
      <trkpt lat="44.13966" lon="0.62955">
        <ele>115</ele>
        <time>2025-08-10T07:27:44.696Z</time>
      </trkpt>
      <trkpt lat="44.13966" lon="0.62956">
        <ele>116</ele>
        <time>2025-08-10T07:27:45.696Z</time>
      </trkpt>
      <trkpt lat="44.13966" lon="0.62957">
        <ele>116</ele>
        <time>2025-08-10T07:27:46.696Z</time>
      </trkpt>
      <trkpt lat="44.13966" lon="0.62958">
        <ele>116</ele>
        <time>2025-08-10T07:27:47.696Z</time>
      </trkpt>
      <trkpt lat="44.13965" lon="0.62959">
        <ele>116</ele>
        <time>2025-08-10T07:27:48.696Z</time>
      </trkpt>
      <trkpt lat="44.13965" lon="0.6296">
        <ele>116</ele>
        <time>2025-08-10T07:27:49.696Z</time>
      </trkpt>
      <trkpt lat="44.13964" lon="0.62961">
        <ele>116</ele>
        <time>2025-08-10T07:27:50.696Z</time>
      </trkpt>
      <trkpt lat="44.13964" lon="0.62961">
        <ele>116</ele>
        <time>2025-08-10T07:27:51.696Z</time>
      </trkpt>
      <trkpt lat="44.13964" lon="0.62962">
        <ele>116</ele>
        <time>2025-08-10T07:27:52.696Z</time>
      </trkpt>
      <trkpt lat="44.13964" lon="0.62963">
        <ele>116</ele>
        <time>2025-08-10T07:27:53.696Z</time>
      </trkpt>
      <trkpt lat="44.13964" lon="0.62965">
        <ele>116</ele>
        <time>2025-08-10T07:27:54.696Z</time>
      </trkpt>
      <trkpt lat="44.13964" lon="0.62967">
        <ele>116</ele>
        <time>2025-08-10T07:27:55.696Z</time>
      </trkpt>
      <trkpt lat="44.13963" lon="0.62968">
        <ele>115</ele>
        <time>2025-08-10T07:27:56.696Z</time>
      </trkpt>
      <trkpt lat="44.13962" lon="0.62971">
        <ele>115</ele>
        <time>2025-08-10T07:27:57.696Z</time>
      </trkpt>
      <trkpt lat="44.13962" lon="0.62973">
        <ele>116</ele>
        <time>2025-08-10T07:27:58.696Z</time>
      </trkpt>
      <trkpt lat="44.13962" lon="0.62975">
        <ele>116</ele>
        <time>2025-08-10T07:27:59.696Z</time>
      </trkpt>
      <trkpt lat="44.13961" lon="0.62976">
        <ele>117</ele>
        <time>2025-08-10T07:28:00.696Z</time>
      </trkpt>
      <trkpt lat="44.13961" lon="0.62978">
        <ele>118</ele>
        <time>2025-08-10T07:28:01.696Z</time>
      </trkpt>
      <trkpt lat="44.1396" lon="0.62979">
        <ele>118</ele>
        <time>2025-08-10T07:28:02.696Z</time>
      </trkpt>
      <trkpt lat="44.1396" lon="0.62981">
        <ele>119</ele>
        <time>2025-08-10T07:28:03.696Z</time>
      </trkpt>
      <trkpt lat="44.13959" lon="0.62983">
        <ele>120</ele>
        <time>2025-08-10T07:28:04.696Z</time>
      </trkpt>
      <trkpt lat="44.13958" lon="0.62985">
        <ele>120</ele>
        <time>2025-08-10T07:28:05.696Z</time>
      </trkpt>
      <trkpt lat="44.13958" lon="0.62987">
        <ele>121</ele>
        <time>2025-08-10T07:28:06.696Z</time>
      </trkpt>
      <trkpt lat="44.13957" lon="0.62988">
        <ele>122</ele>
        <time>2025-08-10T07:28:07.696Z</time>
      </trkpt>
      <trkpt lat="44.13957" lon="0.62989">
        <ele>122</ele>
        <time>2025-08-10T07:28:08.696Z</time>
      </trkpt>
      <trkpt lat="44.13956" lon="0.6299">
        <ele>122</ele>
        <time>2025-08-10T07:28:09.696Z</time>
      </trkpt>
      <trkpt lat="44.13955" lon="0.62991">
        <ele>123</ele>
        <time>2025-08-10T07:28:10.696Z</time>
      </trkpt>
      <trkpt lat="44.13955" lon="0.62993">
        <ele>123</ele>
        <time>2025-08-10T07:28:11.696Z</time>
      </trkpt>
      <trkpt lat="44.13954" lon="0.62995">
        <ele>123</ele>
        <time>2025-08-10T07:28:12.696Z</time>
      </trkpt>
      <trkpt lat="44.13954" lon="0.62996">
        <ele>124</ele>
        <time>2025-08-10T07:28:13.696Z</time>
      </trkpt>
      <trkpt lat="44.13953" lon="0.62997">
        <ele>124</ele>
        <time>2025-08-10T07:28:14.696Z</time>
      </trkpt>
      <trkpt lat="44.13952" lon="0.62999">
        <ele>124</ele>
        <time>2025-08-10T07:28:15.696Z</time>
      </trkpt>
      <trkpt lat="44.13952" lon="0.63">
        <ele>124</ele>
        <time>2025-08-10T07:28:16.696Z</time>
      </trkpt>
      <trkpt lat="44.13951" lon="0.63001">
        <ele>124</ele>
        <time>2025-08-10T07:28:17.696Z</time>
      </trkpt>
      <trkpt lat="44.13951" lon="0.63003">
        <ele>125</ele>
        <time>2025-08-10T07:28:18.696Z</time>
      </trkpt>
      <trkpt lat="44.13951" lon="0.63004">
        <ele>126</ele>
        <time>2025-08-10T07:28:19.696Z</time>
      </trkpt>
      <trkpt lat="44.13951" lon="0.63005">
        <ele>127</ele>
        <time>2025-08-10T07:28:20.696Z</time>
      </trkpt>
      <trkpt lat="44.1395" lon="0.63007">
        <ele>127</ele>
        <time>2025-08-10T07:28:21.696Z</time>
      </trkpt>
      <trkpt lat="44.13949" lon="0.63008">
        <ele>128</ele>
        <time>2025-08-10T07:28:22.696Z</time>
      </trkpt>
      <trkpt lat="44.13949" lon="0.6301">
        <ele>129</ele>
        <time>2025-08-10T07:28:23.696Z</time>
      </trkpt>
      <trkpt lat="44.13948" lon="0.63011">
        <ele>129</ele>
        <time>2025-08-10T07:28:24.696Z</time>
      </trkpt>
      <trkpt lat="44.13948" lon="0.63013">
        <ele>130</ele>
        <time>2025-08-10T07:28:25.696Z</time>
      </trkpt>
      <trkpt lat="44.13948" lon="0.63015">
        <ele>130</ele>
        <time>2025-08-10T07:28:26.696Z</time>
      </trkpt>
      <trkpt lat="44.13947" lon="0.63016">
        <ele>131</ele>
        <time>2025-08-10T07:28:27.696Z</time>
      </trkpt>
      <trkpt lat="44.13947" lon="0.63017">
        <ele>131</ele>
        <time>2025-08-10T07:28:28.696Z</time>
      </trkpt>
      <trkpt lat="44.13946" lon="0.63019">
        <ele>132</ele>
        <time>2025-08-10T07:28:29.696Z</time>
      </trkpt>
      <trkpt lat="44.13946" lon="0.63021">
        <ele>132</ele>
        <time>2025-08-10T07:28:30.696Z</time>
      </trkpt>
      <trkpt lat="44.13945" lon="0.63022">
        <ele>132</ele>
        <time>2025-08-10T07:28:31.696Z</time>
      </trkpt>
      <trkpt lat="44.13945" lon="0.63024">
        <ele>133</ele>
        <time>2025-08-10T07:28:32.696Z</time>
      </trkpt>
      <trkpt lat="44.13944" lon="0.63025">
        <ele>133</ele>
        <time>2025-08-10T07:28:33.696Z</time>
      </trkpt>
      <trkpt lat="44.13944" lon="0.63026">
        <ele>134</ele>
        <time>2025-08-10T07:28:34.696Z</time>
      </trkpt>
      <trkpt lat="44.13943" lon="0.63027">
        <ele>134</ele>
        <time>2025-08-10T07:28:35.696Z</time>
      </trkpt>
      <trkpt lat="44.13943" lon="0.63028">
        <ele>134</ele>
        <time>2025-08-10T07:28:36.696Z</time>
      </trkpt>
      <trkpt lat="44.13942" lon="0.63029">
        <ele>134</ele>
        <time>2025-08-10T07:28:37.696Z</time>
      </trkpt>
      <trkpt lat="44.13942" lon="0.6303">
        <ele>133</ele>
        <time>2025-08-10T07:28:38.696Z</time>
      </trkpt>
      <trkpt lat="44.13941" lon="0.63031">
        <ele>132</ele>
        <time>2025-08-10T07:28:39.696Z</time>
      </trkpt>
      <trkpt lat="44.13941" lon="0.63032">
        <ele>132</ele>
        <time>2025-08-10T07:28:40.696Z</time>
      </trkpt>
      <trkpt lat="44.13941" lon="0.63034">
        <ele>132</ele>
        <time>2025-08-10T07:28:41.696Z</time>
      </trkpt>
      <trkpt lat="44.13941" lon="0.63035">
        <ele>132</ele>
        <time>2025-08-10T07:28:42.696Z</time>
      </trkpt>
      <trkpt lat="44.13941" lon="0.63037">
        <ele>132</ele>
        <time>2025-08-10T07:28:43.696Z</time>
      </trkpt>
      <trkpt lat="44.13941" lon="0.63038">
        <ele>132</ele>
        <time>2025-08-10T07:28:44.696Z</time>
      </trkpt>
      <trkpt lat="44.13941" lon="0.63039">
        <ele>132</ele>
        <time>2025-08-10T07:28:45.696Z</time>
      </trkpt>
      <trkpt lat="44.1394" lon="0.6304">
        <ele>133</ele>
        <time>2025-08-10T07:28:46.696Z</time>
      </trkpt>
      <trkpt lat="44.13939" lon="0.63041">
        <ele>133</ele>
        <time>2025-08-10T07:28:47.696Z</time>
      </trkpt>
      <trkpt lat="44.13939" lon="0.63043">
        <ele>133</ele>
        <time>2025-08-10T07:28:48.696Z</time>
      </trkpt>
      <trkpt lat="44.13938" lon="0.63044">
        <ele>133</ele>
        <time>2025-08-10T07:28:49.696Z</time>
      </trkpt>
      <trkpt lat="44.13938" lon="0.63045">
        <ele>133</ele>
        <time>2025-08-10T07:28:50.696Z</time>
      </trkpt>
      <trkpt lat="44.13937" lon="0.63046">
        <ele>133</ele>
        <time>2025-08-10T07:28:51.696Z</time>
      </trkpt>
      <trkpt lat="44.13937" lon="0.63047">
        <ele>132</ele>
        <time>2025-08-10T07:28:52.696Z</time>
      </trkpt>
      <trkpt lat="44.13937" lon="0.63048">
        <ele>132</ele>
        <time>2025-08-10T07:28:53.696Z</time>
      </trkpt>
      <trkpt lat="44.13936" lon="0.6305">
        <ele>132</ele>
        <time>2025-08-10T07:28:54.696Z</time>
      </trkpt>
      <trkpt lat="44.13936" lon="0.63051">
        <ele>132</ele>
        <time>2025-08-10T07:28:55.696Z</time>
      </trkpt>
      <trkpt lat="44.13936" lon="0.63052">
        <ele>132</ele>
        <time>2025-08-10T07:28:56.696Z</time>
      </trkpt>
      <trkpt lat="44.13935" lon="0.63054">
        <ele>132</ele>
        <time>2025-08-10T07:28:57.696Z</time>
      </trkpt>
      <trkpt lat="44.13935" lon="0.63055">
        <ele>133</ele>
        <time>2025-08-10T07:28:58.696Z</time>
      </trkpt>
      <trkpt lat="44.13935" lon="0.63056">
        <ele>133</ele>
        <time>2025-08-10T07:28:59.696Z</time>
      </trkpt>
      <trkpt lat="44.13935" lon="0.63057">
        <ele>133</ele>
        <time>2025-08-10T07:29:00.696Z</time>
      </trkpt>
      <trkpt lat="44.13935" lon="0.63059">
        <ele>134</ele>
        <time>2025-08-10T07:29:01.696Z</time>
      </trkpt>
      <trkpt lat="44.13935" lon="0.6306">
        <ele>134</ele>
        <time>2025-08-10T07:29:02.696Z</time>
      </trkpt>
      <trkpt lat="44.13935" lon="0.63061">
        <ele>135</ele>
        <time>2025-08-10T07:29:03.696Z</time>
      </trkpt>
      <trkpt lat="44.13934" lon="0.63062">
        <ele>135</ele>
        <time>2025-08-10T07:29:04.697Z</time>
      </trkpt>
      <trkpt lat="44.13934" lon="0.63063">
        <ele>136</ele>
        <time>2025-08-10T07:29:05.696Z</time>
      </trkpt>
      <trkpt lat="44.13934" lon="0.63064">
        <ele>136</ele>
        <time>2025-08-10T07:29:06.696Z</time>
      </trkpt>
      <trkpt lat="44.13934" lon="0.63066">
        <ele>136</ele>
        <time>2025-08-10T07:29:07.696Z</time>
      </trkpt>
      <trkpt lat="44.13934" lon="0.63067">
        <ele>136</ele>
        <time>2025-08-10T07:29:08.696Z</time>
      </trkpt>
      <trkpt lat="44.13934" lon="0.63068">
        <ele>136</ele>
        <time>2025-08-10T07:29:09.696Z</time>
      </trkpt>
      <trkpt lat="44.13935" lon="0.63069">
        <ele>136</ele>
        <time>2025-08-10T07:29:10.696Z</time>
      </trkpt>
      <trkpt lat="44.13935" lon="0.63071">
        <ele>136</ele>
        <time>2025-08-10T07:29:11.696Z</time>
      </trkpt>
      <trkpt lat="44.13934" lon="0.63072">
        <ele>136</ele>
        <time>2025-08-10T07:29:12.696Z</time>
      </trkpt>
      <trkpt lat="44.13934" lon="0.63073">
        <ele>135</ele>
        <time>2025-08-10T07:29:13.696Z</time>
      </trkpt>
      <trkpt lat="44.13934" lon="0.63074">
        <ele>135</ele>
        <time>2025-08-10T07:29:14.696Z</time>
      </trkpt>
      <trkpt lat="44.13934" lon="0.63075">
        <ele>135</ele>
        <time>2025-08-10T07:29:15.696Z</time>
      </trkpt>
      <trkpt lat="44.13934" lon="0.63077">
        <ele>135</ele>
        <time>2025-08-10T07:29:16.696Z</time>
      </trkpt>
      <trkpt lat="44.13934" lon="0.63078">
        <ele>135</ele>
        <time>2025-08-10T07:29:17.696Z</time>
      </trkpt>
      <trkpt lat="44.13935" lon="0.63079">
        <ele>135</ele>
        <time>2025-08-10T07:29:18.696Z</time>
      </trkpt>
      <trkpt lat="44.13935" lon="0.6308">
        <ele>134</ele>
        <time>2025-08-10T07:29:19.696Z</time>
      </trkpt>
      <trkpt lat="44.13935" lon="0.63082">
        <ele>134</ele>
        <time>2025-08-10T07:29:20.696Z</time>
      </trkpt>
      <trkpt lat="44.13936" lon="0.63083">
        <ele>135</ele>
        <time>2025-08-10T07:29:21.696Z</time>
      </trkpt>
      <trkpt lat="44.13935" lon="0.63084">
        <ele>135</ele>
        <time>2025-08-10T07:29:22.696Z</time>
      </trkpt>
      <trkpt lat="44.13935" lon="0.63086">
        <ele>135</ele>
        <time>2025-08-10T07:29:23.696Z</time>
      </trkpt>
      <trkpt lat="44.13936" lon="0.63087">
        <ele>135</ele>
        <time>2025-08-10T07:29:24.696Z</time>
      </trkpt>
      <trkpt lat="44.13936" lon="0.63088">
        <ele>136</ele>
        <time>2025-08-10T07:29:25.696Z</time>
      </trkpt>
      <trkpt lat="44.13936" lon="0.63089">
        <ele>136</ele>
        <time>2025-08-10T07:29:26.696Z</time>
      </trkpt>
      <trkpt lat="44.13937" lon="0.6309">
        <ele>136</ele>
        <time>2025-08-10T07:29:27.696Z</time>
      </trkpt>
      <trkpt lat="44.13937" lon="0.63092">
        <ele>137</ele>
        <time>2025-08-10T07:29:28.696Z</time>
      </trkpt>
      <trkpt lat="44.13937" lon="0.63093">
        <ele>137</ele>
        <time>2025-08-10T07:29:29.696Z</time>
      </trkpt>
      <trkpt lat="44.13937" lon="0.63095">
        <ele>137</ele>
        <time>2025-08-10T07:29:30.696Z</time>
      </trkpt>
      <trkpt lat="44.13936" lon="0.63096">
        <ele>137</ele>
        <time>2025-08-10T07:29:31.696Z</time>
      </trkpt>
      <trkpt lat="44.13936" lon="0.63098">
        <ele>137</ele>
        <time>2025-08-10T07:29:32.696Z</time>
      </trkpt>
      <trkpt lat="44.13935" lon="0.63099">
        <ele>137</ele>
        <time>2025-08-10T07:29:33.696Z</time>
      </trkpt>
      <trkpt lat="44.13935" lon="0.63101">
        <ele>137</ele>
        <time>2025-08-10T07:29:34.696Z</time>
      </trkpt>
      <trkpt lat="44.13935" lon="0.63102">
        <ele>137</ele>
        <time>2025-08-10T07:29:35.697Z</time>
      </trkpt>
      <trkpt lat="44.13935" lon="0.63103">
        <ele>137</ele>
        <time>2025-08-10T07:29:36.696Z</time>
      </trkpt>
      <trkpt lat="44.13934" lon="0.63104">
        <ele>137</ele>
        <time>2025-08-10T07:29:37.696Z</time>
      </trkpt>
      <trkpt lat="44.13934" lon="0.63106">
        <ele>137</ele>
        <time>2025-08-10T07:29:38.696Z</time>
      </trkpt>
      <trkpt lat="44.13933" lon="0.63107">
        <ele>137</ele>
        <time>2025-08-10T07:29:39.696Z</time>
      </trkpt>
      <trkpt lat="44.13933" lon="0.63108">
        <ele>137</ele>
        <time>2025-08-10T07:29:40.697Z</time>
      </trkpt>
      <trkpt lat="44.13932" lon="0.63109">
        <ele>138</ele>
        <time>2025-08-10T07:29:41.696Z</time>
      </trkpt>
      <trkpt lat="44.13932" lon="0.63111">
        <ele>138</ele>
        <time>2025-08-10T07:29:42.696Z</time>
      </trkpt>
      <trkpt lat="44.13931" lon="0.63112">
        <ele>138</ele>
        <time>2025-08-10T07:29:43.696Z</time>
      </trkpt>
      <trkpt lat="44.1393" lon="0.63113">
        <ele>138</ele>
        <time>2025-08-10T07:29:44.696Z</time>
      </trkpt>
      <trkpt lat="44.1393" lon="0.63114">
        <ele>138</ele>
        <time>2025-08-10T07:29:45.696Z</time>
      </trkpt>
      <trkpt lat="44.13929" lon="0.63115">
        <ele>138</ele>
        <time>2025-08-10T07:29:46.696Z</time>
      </trkpt>
      <trkpt lat="44.13928" lon="0.63116">
        <ele>139</ele>
        <time>2025-08-10T07:29:47.696Z</time>
      </trkpt>
      <trkpt lat="44.13928" lon="0.63117">
        <ele>139</ele>
        <time>2025-08-10T07:29:48.696Z</time>
      </trkpt>
      <trkpt lat="44.13927" lon="0.63117">
        <ele>139</ele>
        <time>2025-08-10T07:29:49.696Z</time>
      </trkpt>
      <trkpt lat="44.13926" lon="0.63118">
        <ele>139</ele>
        <time>2025-08-10T07:29:50.696Z</time>
      </trkpt>
      <trkpt lat="44.13925" lon="0.63119">
        <ele>139</ele>
        <time>2025-08-10T07:29:51.696Z</time>
      </trkpt>
      <trkpt lat="44.13924" lon="0.63119">
        <ele>139</ele>
        <time>2025-08-10T07:29:52.696Z</time>
      </trkpt>
      <trkpt lat="44.13923" lon="0.6312">
        <ele>139</ele>
        <time>2025-08-10T07:29:53.696Z</time>
      </trkpt>
      <trkpt lat="44.13922" lon="0.63121">
        <ele>138</ele>
        <time>2025-08-10T07:29:54.696Z</time>
      </trkpt>
      <trkpt lat="44.13921" lon="0.63122">
        <ele>138</ele>
        <time>2025-08-10T07:29:55.696Z</time>
      </trkpt>
      <trkpt lat="44.1392" lon="0.63122">
        <ele>138</ele>
        <time>2025-08-10T07:29:56.696Z</time>
      </trkpt>
      <trkpt lat="44.13919" lon="0.63123">
        <ele>138</ele>
        <time>2025-08-10T07:29:57.696Z</time>
      </trkpt>
      <trkpt lat="44.13918" lon="0.63124">
        <ele>138</ele>
        <time>2025-08-10T07:29:58.696Z</time>
      </trkpt>
      <trkpt lat="44.13917" lon="0.63124">
        <ele>138</ele>
        <time>2025-08-10T07:29:59.696Z</time>
      </trkpt>
      <trkpt lat="44.13917" lon="0.63125">
        <ele>138</ele>
        <time>2025-08-10T07:30:00.696Z</time>
      </trkpt>
      <trkpt lat="44.13915" lon="0.63126">
        <ele>138</ele>
        <time>2025-08-10T07:30:01.696Z</time>
      </trkpt>
      <trkpt lat="44.13914" lon="0.63127">
        <ele>138</ele>
        <time>2025-08-10T07:30:02.696Z</time>
      </trkpt>
      <trkpt lat="44.13913" lon="0.63128">
        <ele>137</ele>
        <time>2025-08-10T07:30:03.696Z</time>
      </trkpt>
      <trkpt lat="44.13912" lon="0.63128">
        <ele>137</ele>
        <time>2025-08-10T07:30:04.696Z</time>
      </trkpt>
      <trkpt lat="44.13911" lon="0.63129">
        <ele>137</ele>
        <time>2025-08-10T07:30:05.696Z</time>
      </trkpt>
      <trkpt lat="44.1391" lon="0.6313">
        <ele>138</ele>
        <time>2025-08-10T07:30:06.696Z</time>
      </trkpt>
      <trkpt lat="44.13909" lon="0.63131">
        <ele>138</ele>
        <time>2025-08-10T07:30:07.696Z</time>
      </trkpt>
      <trkpt lat="44.13908" lon="0.63131">
        <ele>138</ele>
        <time>2025-08-10T07:30:08.696Z</time>
      </trkpt>
      <trkpt lat="44.13907" lon="0.63132">
        <ele>138</ele>
        <time>2025-08-10T07:30:09.696Z</time>
      </trkpt>
      <trkpt lat="44.13907" lon="0.63133">
        <ele>139</ele>
        <time>2025-08-10T07:30:10.696Z</time>
      </trkpt>
      <trkpt lat="44.13906" lon="0.63134">
        <ele>139</ele>
        <time>2025-08-10T07:30:11.696Z</time>
      </trkpt>
      <trkpt lat="44.13905" lon="0.63135">
        <ele>140</ele>
        <time>2025-08-10T07:30:12.696Z</time>
      </trkpt>
      <trkpt lat="44.13905" lon="0.63136">
        <ele>140</ele>
        <time>2025-08-10T07:30:13.696Z</time>
      </trkpt>
      <trkpt lat="44.13904" lon="0.63137">
        <ele>140</ele>
        <time>2025-08-10T07:30:14.696Z</time>
      </trkpt>
      <trkpt lat="44.13903" lon="0.63138">
        <ele>141</ele>
        <time>2025-08-10T07:30:15.696Z</time>
      </trkpt>
      <trkpt lat="44.13903" lon="0.63139">
        <ele>141</ele>
        <time>2025-08-10T07:30:16.696Z</time>
      </trkpt>
      <trkpt lat="44.13902" lon="0.6314">
        <ele>142</ele>
        <time>2025-08-10T07:30:17.696Z</time>
      </trkpt>
      <trkpt lat="44.13901" lon="0.6314">
        <ele>142</ele>
        <time>2025-08-10T07:30:18.696Z</time>
      </trkpt>
      <trkpt lat="44.13901" lon="0.63141">
        <ele>142</ele>
        <time>2025-08-10T07:30:19.696Z</time>
      </trkpt>
      <trkpt lat="44.139" lon="0.63142">
        <ele>142</ele>
        <time>2025-08-10T07:30:20.696Z</time>
      </trkpt>
      <trkpt lat="44.13899" lon="0.63144">
        <ele>142</ele>
        <time>2025-08-10T07:30:21.696Z</time>
      </trkpt>
      <trkpt lat="44.13898" lon="0.63145">
        <ele>142</ele>
        <time>2025-08-10T07:30:22.696Z</time>
      </trkpt>
      <trkpt lat="44.13898" lon="0.63146">
        <ele>142</ele>
        <time>2025-08-10T07:30:23.696Z</time>
      </trkpt>
      <trkpt lat="44.13897" lon="0.63147">
        <ele>142</ele>
        <time>2025-08-10T07:30:24.696Z</time>
      </trkpt>
      <trkpt lat="44.13897" lon="0.63148">
        <ele>143</ele>
        <time>2025-08-10T07:30:25.696Z</time>
      </trkpt>
      <trkpt lat="44.13897" lon="0.63149">
        <ele>143</ele>
        <time>2025-08-10T07:30:26.696Z</time>
      </trkpt>
      <trkpt lat="44.13896" lon="0.6315">
        <ele>143</ele>
        <time>2025-08-10T07:30:27.696Z</time>
      </trkpt>
      <trkpt lat="44.13896" lon="0.63151">
        <ele>143</ele>
        <time>2025-08-10T07:30:28.696Z</time>
      </trkpt>
      <trkpt lat="44.13897" lon="0.63152">
        <ele>144</ele>
        <time>2025-08-10T07:30:29.696Z</time>
      </trkpt>
      <trkpt lat="44.13896" lon="0.63153">
        <ele>144</ele>
        <time>2025-08-10T07:30:30.696Z</time>
      </trkpt>
      <trkpt lat="44.13895" lon="0.63153">
        <ele>144</ele>
        <time>2025-08-10T07:30:31.696Z</time>
      </trkpt>
      <trkpt lat="44.13895" lon="0.63153">
        <ele>144</ele>
        <time>2025-08-10T07:30:32.696Z</time>
      </trkpt>
      <trkpt lat="44.13895" lon="0.63153">
        <ele>144</ele>
        <time>2025-08-10T07:30:33.696Z</time>
      </trkpt>
      <trkpt lat="44.13895" lon="0.63153">
        <ele>144</ele>
        <time>2025-08-10T07:30:34.696Z</time>
      </trkpt>
      <trkpt lat="44.13895" lon="0.63153">
        <ele>144</ele>
        <time>2025-08-10T07:30:35.696Z</time>
      </trkpt>
      <trkpt lat="44.13895" lon="0.63153">
        <ele>144</ele>
        <time>2025-08-10T07:30:36.696Z</time>
      </trkpt>
      <trkpt lat="44.13895" lon="0.63153">
        <ele>144</ele>
        <time>2025-08-10T07:30:37.696Z</time>
      </trkpt>
      <trkpt lat="44.13895" lon="0.63153">
        <ele>145</ele>
        <time>2025-08-10T07:30:38.696Z</time>
      </trkpt>
      <trkpt lat="44.13895" lon="0.63153">
        <ele>145</ele>
        <time>2025-08-10T07:30:39.696Z</time>
      </trkpt>
      <trkpt lat="44.13895" lon="0.63153">
        <ele>145</ele>
        <time>2025-08-10T07:30:40.696Z</time>
      </trkpt>
      <trkpt lat="44.13895" lon="0.63153">
        <ele>145</ele>
        <time>2025-08-10T07:30:41.696Z</time>
      </trkpt>
      <trkpt lat="44.13895" lon="0.63153">
        <ele>145</ele>
        <time>2025-08-10T07:30:42.696Z</time>
      </trkpt>
      <trkpt lat="44.13895" lon="0.63153">
        <ele>145</ele>
        <time>2025-08-10T07:30:43.696Z</time>
      </trkpt>
      <trkpt lat="44.13895" lon="0.63153">
        <ele>145</ele>
        <time>2025-08-10T07:30:44.696Z</time>
      </trkpt>
      <trkpt lat="44.13895" lon="0.63152">
        <ele>145</ele>
        <time>2025-08-10T07:30:45.696Z</time>
      </trkpt>
      <trkpt lat="44.13895" lon="0.63152">
        <ele>145</ele>
        <time>2025-08-10T07:30:46.696Z</time>
      </trkpt>
      <trkpt lat="44.13895" lon="0.63153">
        <ele>145</ele>
        <time>2025-08-10T07:30:47.696Z</time>
      </trkpt>
      <trkpt lat="44.13895" lon="0.63154">
        <ele>145</ele>
        <time>2025-08-10T07:30:48.696Z</time>
      </trkpt>
      <trkpt lat="44.13894" lon="0.63155">
        <ele>145</ele>
        <time>2025-08-10T07:30:49.696Z</time>
      </trkpt>
      <trkpt lat="44.13894" lon="0.63157">
        <ele>146</ele>
        <time>2025-08-10T07:30:50.696Z</time>
      </trkpt>
      <trkpt lat="44.13894" lon="0.63158">
        <ele>146</ele>
        <time>2025-08-10T07:30:51.696Z</time>
      </trkpt>
      <trkpt lat="44.13893" lon="0.63159">
        <ele>147</ele>
        <time>2025-08-10T07:30:52.696Z</time>
      </trkpt>
      <trkpt lat="44.13893" lon="0.6316">
        <ele>147</ele>
        <time>2025-08-10T07:30:53.696Z</time>
      </trkpt>
      <trkpt lat="44.13892" lon="0.63161">
        <ele>147</ele>
        <time>2025-08-10T07:30:54.696Z</time>
      </trkpt>
      <trkpt lat="44.13892" lon="0.63163">
        <ele>147</ele>
        <time>2025-08-10T07:30:55.696Z</time>
      </trkpt>
      <trkpt lat="44.13892" lon="0.63164">
        <ele>147</ele>
        <time>2025-08-10T07:30:56.696Z</time>
      </trkpt>
      <trkpt lat="44.13891" lon="0.63166">
        <ele>147</ele>
        <time>2025-08-10T07:30:57.696Z</time>
      </trkpt>
      <trkpt lat="44.1389" lon="0.63167">
        <ele>147</ele>
        <time>2025-08-10T07:30:58.696Z</time>
      </trkpt>
      <trkpt lat="44.1389" lon="0.63168">
        <ele>147</ele>
        <time>2025-08-10T07:30:59.696Z</time>
      </trkpt>
      <trkpt lat="44.1389" lon="0.6317">
        <ele>147</ele>
        <time>2025-08-10T07:31:00.696Z</time>
      </trkpt>
      <trkpt lat="44.1389" lon="0.63171">
        <ele>146</ele>
        <time>2025-08-10T07:31:01.696Z</time>
      </trkpt>
      <trkpt lat="44.13891" lon="0.63172">
        <ele>146</ele>
        <time>2025-08-10T07:31:02.696Z</time>
      </trkpt>
      <trkpt lat="44.1389" lon="0.63173">
        <ele>146</ele>
        <time>2025-08-10T07:31:03.696Z</time>
      </trkpt>
      <trkpt lat="44.1389" lon="0.63174">
        <ele>146</ele>
        <time>2025-08-10T07:31:04.696Z</time>
      </trkpt>
      <trkpt lat="44.1389" lon="0.63175">
        <ele>146</ele>
        <time>2025-08-10T07:31:05.696Z</time>
      </trkpt>
      <trkpt lat="44.1389" lon="0.63176">
        <ele>146</ele>
        <time>2025-08-10T07:31:06.696Z</time>
      </trkpt>
      <trkpt lat="44.1389" lon="0.63177">
        <ele>146</ele>
        <time>2025-08-10T07:31:07.696Z</time>
      </trkpt>
      <trkpt lat="44.13891" lon="0.63177">
        <ele>146</ele>
        <time>2025-08-10T07:31:08.696Z</time>
      </trkpt>
      <trkpt lat="44.13891" lon="0.63179">
        <ele>146</ele>
        <time>2025-08-10T07:31:09.696Z</time>
      </trkpt>
      <trkpt lat="44.1389" lon="0.6318">
        <ele>146</ele>
        <time>2025-08-10T07:31:10.696Z</time>
      </trkpt>
      <trkpt lat="44.1389" lon="0.6318">
        <ele>146</ele>
        <time>2025-08-10T07:31:11.696Z</time>
      </trkpt>
      <trkpt lat="44.1389" lon="0.63182">
        <ele>146</ele>
        <time>2025-08-10T07:31:12.696Z</time>
      </trkpt>
      <trkpt lat="44.13891" lon="0.63183">
        <ele>146</ele>
        <time>2025-08-10T07:31:13.696Z</time>
      </trkpt>
      <trkpt lat="44.13891" lon="0.63185">
        <ele>146</ele>
        <time>2025-08-10T07:31:14.696Z</time>
      </trkpt>
      <trkpt lat="44.1389" lon="0.63185">
        <ele>146</ele>
        <time>2025-08-10T07:31:15.696Z</time>
      </trkpt>
      <trkpt lat="44.1389" lon="0.63186">
        <ele>146</ele>
        <time>2025-08-10T07:31:16.696Z</time>
      </trkpt>
      <trkpt lat="44.13891" lon="0.63187">
        <ele>146</ele>
        <time>2025-08-10T07:31:17.696Z</time>
      </trkpt>
      <trkpt lat="44.13891" lon="0.63188">
        <ele>147</ele>
        <time>2025-08-10T07:31:18.696Z</time>
      </trkpt>
      <trkpt lat="44.13891" lon="0.63189">
        <ele>147</ele>
        <time>2025-08-10T07:31:19.696Z</time>
      </trkpt>
      <trkpt lat="44.13892" lon="0.6319">
        <ele>147</ele>
        <time>2025-08-10T07:31:20.696Z</time>
      </trkpt>
      <trkpt lat="44.13892" lon="0.63191">
        <ele>148</ele>
        <time>2025-08-10T07:31:21.696Z</time>
      </trkpt>
      <trkpt lat="44.13892" lon="0.63192">
        <ele>148</ele>
        <time>2025-08-10T07:31:22.696Z</time>
      </trkpt>
      <trkpt lat="44.13892" lon="0.63194">
        <ele>148</ele>
        <time>2025-08-10T07:31:23.696Z</time>
      </trkpt>
      <trkpt lat="44.13893" lon="0.63195">
        <ele>149</ele>
        <time>2025-08-10T07:31:24.696Z</time>
      </trkpt>
      <trkpt lat="44.13894" lon="0.63196">
        <ele>150</ele>
        <time>2025-08-10T07:31:25.696Z</time>
      </trkpt>
      <trkpt lat="44.13894" lon="0.63197">
        <ele>150</ele>
        <time>2025-08-10T07:31:26.696Z</time>
      </trkpt>
      <trkpt lat="44.13895" lon="0.63198">
        <ele>150</ele>
        <time>2025-08-10T07:31:27.696Z</time>
      </trkpt>
      <trkpt lat="44.13895" lon="0.63198">
        <ele>151</ele>
        <time>2025-08-10T07:31:28.696Z</time>
      </trkpt>
      <trkpt lat="44.13896" lon="0.632">
        <ele>151</ele>
        <time>2025-08-10T07:31:29.696Z</time>
      </trkpt>
      <trkpt lat="44.13897" lon="0.63201">
        <ele>151</ele>
        <time>2025-08-10T07:31:30.696Z</time>
      </trkpt>
      <trkpt lat="44.13898" lon="0.63202">
        <ele>151</ele>
        <time>2025-08-10T07:31:31.696Z</time>
      </trkpt>
      <trkpt lat="44.13898" lon="0.63204">
        <ele>151</ele>
        <time>2025-08-10T07:31:32.696Z</time>
      </trkpt>
      <trkpt lat="44.13898" lon="0.63205">
        <ele>151</ele>
        <time>2025-08-10T07:31:33.696Z</time>
      </trkpt>
      <trkpt lat="44.13897" lon="0.63207">
        <ele>152</ele>
        <time>2025-08-10T07:31:34.696Z</time>
      </trkpt>
      <trkpt lat="44.13897" lon="0.63208">
        <ele>152</ele>
        <time>2025-08-10T07:31:35.696Z</time>
      </trkpt>
      <trkpt lat="44.13896" lon="0.6321">
        <ele>153</ele>
        <time>2025-08-10T07:31:36.696Z</time>
      </trkpt>
      <trkpt lat="44.13894" lon="0.63211">
        <ele>154</ele>
        <time>2025-08-10T07:31:37.696Z</time>
      </trkpt>
      <trkpt lat="44.13892" lon="0.63213">
        <ele>155</ele>
        <time>2025-08-10T07:31:38.696Z</time>
      </trkpt>
      <trkpt lat="44.1389" lon="0.63215">
        <ele>155</ele>
        <time>2025-08-10T07:31:39.696Z</time>
      </trkpt>
      <trkpt lat="44.13888" lon="0.63216">
        <ele>156</ele>
        <time>2025-08-10T07:31:40.696Z</time>
      </trkpt>
      <trkpt lat="44.13887" lon="0.63216">
        <ele>156</ele>
        <time>2025-08-10T07:31:41.696Z</time>
      </trkpt>
      <trkpt lat="44.13885" lon="0.63217">
        <ele>156</ele>
        <time>2025-08-10T07:31:42.696Z</time>
      </trkpt>
      <trkpt lat="44.13885" lon="0.63218">
        <ele>156</ele>
        <time>2025-08-10T07:31:43.696Z</time>
      </trkpt>
      <trkpt lat="44.13883" lon="0.63219">
        <ele>156</ele>
        <time>2025-08-10T07:31:44.696Z</time>
      </trkpt>
      <trkpt lat="44.13883" lon="0.63219">
        <ele>157</ele>
        <time>2025-08-10T07:31:45.696Z</time>
      </trkpt>
      <trkpt lat="44.13881" lon="0.6322">
        <ele>157</ele>
        <time>2025-08-10T07:31:46.696Z</time>
      </trkpt>
      <trkpt lat="44.1388" lon="0.6322">
        <ele>156</ele>
        <time>2025-08-10T07:31:47.696Z</time>
      </trkpt>
      <trkpt lat="44.13878" lon="0.6322">
        <ele>156</ele>
        <time>2025-08-10T07:31:48.696Z</time>
      </trkpt>
      <trkpt lat="44.13877" lon="0.6322">
        <ele>156</ele>
        <time>2025-08-10T07:31:49.696Z</time>
      </trkpt>
      <trkpt lat="44.13876" lon="0.63221">
        <ele>156</ele>
        <time>2025-08-10T07:31:50.696Z</time>
      </trkpt>
      <trkpt lat="44.13875" lon="0.63221">
        <ele>157</ele>
        <time>2025-08-10T07:31:51.696Z</time>
      </trkpt>
      <trkpt lat="44.13874" lon="0.63221">
        <ele>157</ele>
        <time>2025-08-10T07:31:52.696Z</time>
      </trkpt>
      <trkpt lat="44.13872" lon="0.63221">
        <ele>157</ele>
        <time>2025-08-10T07:31:53.696Z</time>
      </trkpt>
      <trkpt lat="44.13871" lon="0.6322">
        <ele>157</ele>
        <time>2025-08-10T07:31:54.696Z</time>
      </trkpt>
      <trkpt lat="44.1387" lon="0.63219">
        <ele>157</ele>
        <time>2025-08-10T07:31:55.696Z</time>
      </trkpt>
      <trkpt lat="44.13869" lon="0.63218">
        <ele>156</ele>
        <time>2025-08-10T07:31:56.696Z</time>
      </trkpt>
      <trkpt lat="44.13868" lon="0.63217">
        <ele>156</ele>
        <time>2025-08-10T07:31:57.696Z</time>
      </trkpt>
      <trkpt lat="44.13867" lon="0.63216">
        <ele>156</ele>
        <time>2025-08-10T07:31:58.696Z</time>
      </trkpt>
      <trkpt lat="44.13866" lon="0.63216">
        <ele>155</ele>
        <time>2025-08-10T07:31:59.696Z</time>
      </trkpt>
      <trkpt lat="44.13865" lon="0.63215">
        <ele>155</ele>
        <time>2025-08-10T07:32:00.696Z</time>
      </trkpt>
      <trkpt lat="44.13863" lon="0.63215">
        <ele>155</ele>
        <time>2025-08-10T07:32:01.696Z</time>
      </trkpt>
      <trkpt lat="44.13862" lon="0.63213">
        <ele>154</ele>
        <time>2025-08-10T07:32:02.696Z</time>
      </trkpt>
      <trkpt lat="44.13861" lon="0.63212">
        <ele>154</ele>
        <time>2025-08-10T07:32:03.696Z</time>
      </trkpt>
      <trkpt lat="44.1386" lon="0.63211">
        <ele>153</ele>
        <time>2025-08-10T07:32:04.696Z</time>
      </trkpt>
      <trkpt lat="44.13859" lon="0.6321">
        <ele>153</ele>
        <time>2025-08-10T07:32:05.696Z</time>
      </trkpt>
      <trkpt lat="44.13858" lon="0.6321">
        <ele>153</ele>
        <time>2025-08-10T07:32:06.696Z</time>
      </trkpt>
      <trkpt lat="44.13857" lon="0.6321">
        <ele>153</ele>
        <time>2025-08-10T07:32:07.696Z</time>
      </trkpt>
      <trkpt lat="44.13856" lon="0.6321">
        <ele>152</ele>
        <time>2025-08-10T07:32:08.696Z</time>
      </trkpt>
      <trkpt lat="44.13855" lon="0.6321">
        <ele>152</ele>
        <time>2025-08-10T07:32:09.696Z</time>
      </trkpt>
      <trkpt lat="44.13854" lon="0.6321">
        <ele>152</ele>
        <time>2025-08-10T07:32:10.696Z</time>
      </trkpt>
      <trkpt lat="44.13853" lon="0.63209">
        <ele>151</ele>
        <time>2025-08-10T07:32:11.696Z</time>
      </trkpt>
      <trkpt lat="44.13852" lon="0.63209">
        <ele>151</ele>
        <time>2025-08-10T07:32:12.696Z</time>
      </trkpt>
      <trkpt lat="44.13851" lon="0.63208">
        <ele>151</ele>
        <time>2025-08-10T07:32:13.696Z</time>
      </trkpt>
      <trkpt lat="44.1385" lon="0.63208">
        <ele>151</ele>
        <time>2025-08-10T07:32:14.696Z</time>
      </trkpt>
      <trkpt lat="44.13849" lon="0.63207">
        <ele>151</ele>
        <time>2025-08-10T07:32:15.696Z</time>
      </trkpt>
      <trkpt lat="44.13848" lon="0.63207">
        <ele>151</ele>
        <time>2025-08-10T07:32:16.696Z</time>
      </trkpt>
      <trkpt lat="44.13847" lon="0.63207">
        <ele>151</ele>
        <time>2025-08-10T07:32:17.696Z</time>
      </trkpt>
      <trkpt lat="44.13845" lon="0.63206">
        <ele>151</ele>
        <time>2025-08-10T07:32:18.696Z</time>
      </trkpt>
      <trkpt lat="44.13845" lon="0.63206">
        <ele>151</ele>
        <time>2025-08-10T07:32:19.696Z</time>
      </trkpt>
      <trkpt lat="44.13844" lon="0.63205">
        <ele>151</ele>
        <time>2025-08-10T07:32:20.696Z</time>
      </trkpt>
      <trkpt lat="44.13843" lon="0.63205">
        <ele>151</ele>
        <time>2025-08-10T07:32:21.696Z</time>
      </trkpt>
      <trkpt lat="44.13842" lon="0.63204">
        <ele>151</ele>
        <time>2025-08-10T07:32:22.696Z</time>
      </trkpt>
      <trkpt lat="44.13841" lon="0.63203">
        <ele>151</ele>
        <time>2025-08-10T07:32:23.696Z</time>
      </trkpt>
      <trkpt lat="44.13841" lon="0.63203">
        <ele>151</ele>
        <time>2025-08-10T07:32:24.696Z</time>
      </trkpt>
      <trkpt lat="44.1384" lon="0.63202">
        <ele>151</ele>
        <time>2025-08-10T07:32:25.696Z</time>
      </trkpt>
      <trkpt lat="44.13839" lon="0.63201">
        <ele>151</ele>
        <time>2025-08-10T07:32:26.697Z</time>
      </trkpt>
      <trkpt lat="44.13838" lon="0.63201">
        <ele>151</ele>
        <time>2025-08-10T07:32:27.696Z</time>
      </trkpt>
      <trkpt lat="44.13837" lon="0.632">
        <ele>151</ele>
        <time>2025-08-10T07:32:28.696Z</time>
      </trkpt>
      <trkpt lat="44.13836" lon="0.63199">
        <ele>151</ele>
        <time>2025-08-10T07:32:29.696Z</time>
      </trkpt>
      <trkpt lat="44.13835" lon="0.63199">
        <ele>151</ele>
        <time>2025-08-10T07:32:30.696Z</time>
      </trkpt>
      <trkpt lat="44.13834" lon="0.63198">
        <ele>151</ele>
        <time>2025-08-10T07:32:31.696Z</time>
      </trkpt>
      <trkpt lat="44.13833" lon="0.63198">
        <ele>151</ele>
        <time>2025-08-10T07:32:32.696Z</time>
      </trkpt>
      <trkpt lat="44.13832" lon="0.63198">
        <ele>151</ele>
        <time>2025-08-10T07:32:33.696Z</time>
      </trkpt>
      <trkpt lat="44.1383" lon="0.63197">
        <ele>151</ele>
        <time>2025-08-10T07:32:34.696Z</time>
      </trkpt>
      <trkpt lat="44.13829" lon="0.63197">
        <ele>151</ele>
        <time>2025-08-10T07:32:35.696Z</time>
      </trkpt>
      <trkpt lat="44.13828" lon="0.63196">
        <ele>151</ele>
        <time>2025-08-10T07:32:36.696Z</time>
      </trkpt>
      <trkpt lat="44.13827" lon="0.63196">
        <ele>151</ele>
        <time>2025-08-10T07:32:37.696Z</time>
      </trkpt>
      <trkpt lat="44.13825" lon="0.63195">
        <ele>151</ele>
        <time>2025-08-10T07:32:38.696Z</time>
      </trkpt>
      <trkpt lat="44.13824" lon="0.63195">
        <ele>151</ele>
        <time>2025-08-10T07:32:39.697Z</time>
      </trkpt>
      <trkpt lat="44.13823" lon="0.63195">
        <ele>152</ele>
        <time>2025-08-10T07:32:40.696Z</time>
      </trkpt>
      <trkpt lat="44.13822" lon="0.63194">
        <ele>152</ele>
        <time>2025-08-10T07:32:41.696Z</time>
      </trkpt>
      <trkpt lat="44.13821" lon="0.63194">
        <ele>152</ele>
        <time>2025-08-10T07:32:42.696Z</time>
      </trkpt>
      <trkpt lat="44.1382" lon="0.63193">
        <ele>152</ele>
        <time>2025-08-10T07:32:43.696Z</time>
      </trkpt>
      <trkpt lat="44.13819" lon="0.63193">
        <ele>152</ele>
        <time>2025-08-10T07:32:44.696Z</time>
      </trkpt>
      <trkpt lat="44.13817" lon="0.63192">
        <ele>153</ele>
        <time>2025-08-10T07:32:45.696Z</time>
      </trkpt>
      <trkpt lat="44.13816" lon="0.63192">
        <ele>153</ele>
        <time>2025-08-10T07:32:46.696Z</time>
      </trkpt>
      <trkpt lat="44.13815" lon="0.63192">
        <ele>153</ele>
        <time>2025-08-10T07:32:47.696Z</time>
      </trkpt>
      <trkpt lat="44.13814" lon="0.63192">
        <ele>153</ele>
        <time>2025-08-10T07:32:48.696Z</time>
      </trkpt>
      <trkpt lat="44.13814" lon="0.63192">
        <ele>153</ele>
        <time>2025-08-10T07:32:49.696Z</time>
      </trkpt>
      <trkpt lat="44.13812" lon="0.63192">
        <ele>153</ele>
        <time>2025-08-10T07:32:50.696Z</time>
      </trkpt>
      <trkpt lat="44.13811" lon="0.63192">
        <ele>153</ele>
        <time>2025-08-10T07:32:51.696Z</time>
      </trkpt>
      <trkpt lat="44.1381" lon="0.63191">
        <ele>154</ele>
        <time>2025-08-10T07:32:52.697Z</time>
      </trkpt>
      <trkpt lat="44.13808" lon="0.63191">
        <ele>154</ele>
        <time>2025-08-10T07:32:53.696Z</time>
      </trkpt>
      <trkpt lat="44.13807" lon="0.63191">
        <ele>154</ele>
        <time>2025-08-10T07:32:54.696Z</time>
      </trkpt>
      <trkpt lat="44.13806" lon="0.6319">
        <ele>154</ele>
        <time>2025-08-10T07:32:55.696Z</time>
      </trkpt>
      <trkpt lat="44.13805" lon="0.6319">
        <ele>155</ele>
        <time>2025-08-10T07:32:56.696Z</time>
      </trkpt>
      <trkpt lat="44.13804" lon="0.63189">
        <ele>155</ele>
        <time>2025-08-10T07:32:57.696Z</time>
      </trkpt>
      <trkpt lat="44.13803" lon="0.63189">
        <ele>155</ele>
        <time>2025-08-10T07:32:58.696Z</time>
      </trkpt>
      <trkpt lat="44.13801" lon="0.63189">
        <ele>156</ele>
        <time>2025-08-10T07:32:59.696Z</time>
      </trkpt>
      <trkpt lat="44.138" lon="0.63189">
        <ele>155</ele>
        <time>2025-08-10T07:33:00.696Z</time>
      </trkpt>
      <trkpt lat="44.13799" lon="0.63189">
        <ele>155</ele>
        <time>2025-08-10T07:33:01.696Z</time>
      </trkpt>
      <trkpt lat="44.13798" lon="0.63188">
        <ele>155</ele>
        <time>2025-08-10T07:33:02.696Z</time>
      </trkpt>
      <trkpt lat="44.13797" lon="0.63188">
        <ele>155</ele>
        <time>2025-08-10T07:33:03.696Z</time>
      </trkpt>
      <trkpt lat="44.13796" lon="0.63189">
        <ele>155</ele>
        <time>2025-08-10T07:33:04.696Z</time>
      </trkpt>
      <trkpt lat="44.13794" lon="0.63189">
        <ele>156</ele>
        <time>2025-08-10T07:33:05.696Z</time>
      </trkpt>
      <trkpt lat="44.13793" lon="0.63189">
        <ele>156</ele>
        <time>2025-08-10T07:33:06.696Z</time>
      </trkpt>
      <trkpt lat="44.13792" lon="0.63189">
        <ele>157</ele>
        <time>2025-08-10T07:33:07.696Z</time>
      </trkpt>
      <trkpt lat="44.13791" lon="0.63189">
        <ele>157</ele>
        <time>2025-08-10T07:33:08.696Z</time>
      </trkpt>
      <trkpt lat="44.1379" lon="0.63189">
        <ele>157</ele>
        <time>2025-08-10T07:33:09.696Z</time>
      </trkpt>
      <trkpt lat="44.13788" lon="0.63189">
        <ele>157</ele>
        <time>2025-08-10T07:33:10.696Z</time>
      </trkpt>
      <trkpt lat="44.13787" lon="0.63188">
        <ele>157</ele>
        <time>2025-08-10T07:33:11.696Z</time>
      </trkpt>
      <trkpt lat="44.13786" lon="0.63188">
        <ele>157</ele>
        <time>2025-08-10T07:33:12.696Z</time>
      </trkpt>
      <trkpt lat="44.13785" lon="0.63187">
        <ele>156</ele>
        <time>2025-08-10T07:33:13.696Z</time>
      </trkpt>
      <trkpt lat="44.13784" lon="0.63186">
        <ele>156</ele>
        <time>2025-08-10T07:33:14.696Z</time>
      </trkpt>
      <trkpt lat="44.13783" lon="0.63185">
        <ele>155</ele>
        <time>2025-08-10T07:33:15.696Z</time>
      </trkpt>
      <trkpt lat="44.13782" lon="0.63185">
        <ele>155</ele>
        <time>2025-08-10T07:33:16.696Z</time>
      </trkpt>
      <trkpt lat="44.13781" lon="0.63184">
        <ele>155</ele>
        <time>2025-08-10T07:33:17.696Z</time>
      </trkpt>
      <trkpt lat="44.1378" lon="0.63184">
        <ele>155</ele>
        <time>2025-08-10T07:33:18.696Z</time>
      </trkpt>
      <trkpt lat="44.13779" lon="0.63183">
        <ele>155</ele>
        <time>2025-08-10T07:33:19.696Z</time>
      </trkpt>
      <trkpt lat="44.13778" lon="0.63183">
        <ele>155</ele>
        <time>2025-08-10T07:33:20.696Z</time>
      </trkpt>
      <trkpt lat="44.13776" lon="0.63183">
        <ele>156</ele>
        <time>2025-08-10T07:33:21.696Z</time>
      </trkpt>
      <trkpt lat="44.13775" lon="0.63183">
        <ele>156</ele>
        <time>2025-08-10T07:33:22.696Z</time>
      </trkpt>
      <trkpt lat="44.13774" lon="0.63182">
        <ele>156</ele>
        <time>2025-08-10T07:33:23.696Z</time>
      </trkpt>
      <trkpt lat="44.13773" lon="0.63182">
        <ele>156</ele>
        <time>2025-08-10T07:33:24.696Z</time>
      </trkpt>
      <trkpt lat="44.13771" lon="0.63182">
        <ele>156</ele>
        <time>2025-08-10T07:33:25.696Z</time>
      </trkpt>
      <trkpt lat="44.1377" lon="0.63182">
        <ele>156</ele>
        <time>2025-08-10T07:33:26.696Z</time>
      </trkpt>
      <trkpt lat="44.13769" lon="0.63182">
        <ele>156</ele>
        <time>2025-08-10T07:33:27.696Z</time>
      </trkpt>
      <trkpt lat="44.13768" lon="0.63182">
        <ele>156</ele>
        <time>2025-08-10T07:33:28.696Z</time>
      </trkpt>
      <trkpt lat="44.13767" lon="0.63182">
        <ele>156</ele>
        <time>2025-08-10T07:33:29.696Z</time>
      </trkpt>
      <trkpt lat="44.13765" lon="0.63182">
        <ele>156</ele>
        <time>2025-08-10T07:33:30.696Z</time>
      </trkpt>
      <trkpt lat="44.13764" lon="0.63182">
        <ele>156</ele>
        <time>2025-08-10T07:33:31.696Z</time>
      </trkpt>
      <trkpt lat="44.13763" lon="0.63182">
        <ele>156</ele>
        <time>2025-08-10T07:33:32.696Z</time>
      </trkpt>
      <trkpt lat="44.13762" lon="0.63182">
        <ele>156</ele>
        <time>2025-08-10T07:33:33.696Z</time>
      </trkpt>
      <trkpt lat="44.13761" lon="0.63182">
        <ele>155</ele>
        <time>2025-08-10T07:33:34.696Z</time>
      </trkpt>
      <trkpt lat="44.1376" lon="0.63182">
        <ele>155</ele>
        <time>2025-08-10T07:33:35.696Z</time>
      </trkpt>
      <trkpt lat="44.13759" lon="0.63182">
        <ele>155</ele>
        <time>2025-08-10T07:33:36.696Z</time>
      </trkpt>
      <trkpt lat="44.13757" lon="0.63182">
        <ele>155</ele>
        <time>2025-08-10T07:33:37.696Z</time>
      </trkpt>
      <trkpt lat="44.13756" lon="0.63182">
        <ele>155</ele>
        <time>2025-08-10T07:33:38.696Z</time>
      </trkpt>
      <trkpt lat="44.13755" lon="0.63182">
        <ele>155</ele>
        <time>2025-08-10T07:33:39.696Z</time>
      </trkpt>
      <trkpt lat="44.13754" lon="0.63182">
        <ele>155</ele>
        <time>2025-08-10T07:33:40.696Z</time>
      </trkpt>
      <trkpt lat="44.13753" lon="0.63183">
        <ele>154</ele>
        <time>2025-08-10T07:33:41.696Z</time>
      </trkpt>
      <trkpt lat="44.13753" lon="0.63183">
        <ele>154</ele>
        <time>2025-08-10T07:33:42.696Z</time>
      </trkpt>
      <trkpt lat="44.13752" lon="0.63183">
        <ele>154</ele>
        <time>2025-08-10T07:33:43.696Z</time>
      </trkpt>
      <trkpt lat="44.13752" lon="0.63183">
        <ele>154</ele>
        <time>2025-08-10T07:33:44.696Z</time>
      </trkpt>
      <trkpt lat="44.13751" lon="0.63182">
        <ele>154</ele>
        <time>2025-08-10T07:33:45.696Z</time>
      </trkpt>
      <trkpt lat="44.1375" lon="0.63182">
        <ele>154</ele>
        <time>2025-08-10T07:33:46.696Z</time>
      </trkpt>
      <trkpt lat="44.13749" lon="0.63182">
        <ele>154</ele>
        <time>2025-08-10T07:33:47.696Z</time>
      </trkpt>
      <trkpt lat="44.13748" lon="0.63181">
        <ele>153</ele>
        <time>2025-08-10T07:33:48.696Z</time>
      </trkpt>
      <trkpt lat="44.13747" lon="0.63181">
        <ele>153</ele>
        <time>2025-08-10T07:33:49.696Z</time>
      </trkpt>
      <trkpt lat="44.13746" lon="0.63181">
        <ele>153</ele>
        <time>2025-08-10T07:33:50.696Z</time>
      </trkpt>
      <trkpt lat="44.13745" lon="0.63181">
        <ele>153</ele>
        <time>2025-08-10T07:33:51.696Z</time>
      </trkpt>
      <trkpt lat="44.13744" lon="0.63181">
        <ele>153</ele>
        <time>2025-08-10T07:33:52.696Z</time>
      </trkpt>
      <trkpt lat="44.13743" lon="0.63181">
        <ele>153</ele>
        <time>2025-08-10T07:33:53.696Z</time>
      </trkpt>
      <trkpt lat="44.13742" lon="0.63181">
        <ele>153</ele>
        <time>2025-08-10T07:33:54.696Z</time>
      </trkpt>
      <trkpt lat="44.13741" lon="0.63181">
        <ele>154</ele>
        <time>2025-08-10T07:33:55.696Z</time>
      </trkpt>
      <trkpt lat="44.13739" lon="0.63181">
        <ele>154</ele>
        <time>2025-08-10T07:33:56.696Z</time>
      </trkpt>
      <trkpt lat="44.13738" lon="0.63181">
        <ele>155</ele>
        <time>2025-08-10T07:33:57.696Z</time>
      </trkpt>
      <trkpt lat="44.13737" lon="0.63182">
        <ele>155</ele>
        <time>2025-08-10T07:33:58.696Z</time>
      </trkpt>
      <trkpt lat="44.13735" lon="0.63182">
        <ele>156</ele>
        <time>2025-08-10T07:33:59.696Z</time>
      </trkpt>
      <trkpt lat="44.13734" lon="0.63182">
        <ele>155</ele>
        <time>2025-08-10T07:34:00.696Z</time>
      </trkpt>
      <trkpt lat="44.13733" lon="0.63183">
        <ele>155</ele>
        <time>2025-08-10T07:34:01.696Z</time>
      </trkpt>
      <trkpt lat="44.13731" lon="0.63183">
        <ele>155</ele>
        <time>2025-08-10T07:34:02.696Z</time>
      </trkpt>
      <trkpt lat="44.1373" lon="0.63184">
        <ele>155</ele>
        <time>2025-08-10T07:34:03.696Z</time>
      </trkpt>
      <trkpt lat="44.13729" lon="0.63184">
        <ele>155</ele>
        <time>2025-08-10T07:34:04.696Z</time>
      </trkpt>
      <trkpt lat="44.13728" lon="0.63184">
        <ele>154</ele>
        <time>2025-08-10T07:34:05.696Z</time>
      </trkpt>
      <trkpt lat="44.13727" lon="0.63184">
        <ele>154</ele>
        <time>2025-08-10T07:34:06.696Z</time>
      </trkpt>
      <trkpt lat="44.13725" lon="0.63185">
        <ele>154</ele>
        <time>2025-08-10T07:34:07.696Z</time>
      </trkpt>
      <trkpt lat="44.13724" lon="0.63185">
        <ele>154</ele>
        <time>2025-08-10T07:34:08.696Z</time>
      </trkpt>
      <trkpt lat="44.13723" lon="0.63185">
        <ele>154</ele>
        <time>2025-08-10T07:34:09.696Z</time>
      </trkpt>
      <trkpt lat="44.13722" lon="0.63185">
        <ele>154</ele>
        <time>2025-08-10T07:34:10.696Z</time>
      </trkpt>
      <trkpt lat="44.13721" lon="0.63185">
        <ele>154</ele>
        <time>2025-08-10T07:34:11.696Z</time>
      </trkpt>
      <trkpt lat="44.1372" lon="0.63185">
        <ele>154</ele>
        <time>2025-08-10T07:34:12.696Z</time>
      </trkpt>
      <trkpt lat="44.13719" lon="0.63186">
        <ele>154</ele>
        <time>2025-08-10T07:34:13.696Z</time>
      </trkpt>
      <trkpt lat="44.13718" lon="0.63186">
        <ele>154</ele>
        <time>2025-08-10T07:34:14.696Z</time>
      </trkpt>
      <trkpt lat="44.13717" lon="0.63187">
        <ele>154</ele>
        <time>2025-08-10T07:34:15.696Z</time>
      </trkpt>
      <trkpt lat="44.13715" lon="0.63187">
        <ele>154</ele>
        <time>2025-08-10T07:34:16.696Z</time>
      </trkpt>
      <trkpt lat="44.13714" lon="0.63187">
        <ele>154</ele>
        <time>2025-08-10T07:34:17.696Z</time>
      </trkpt>
      <trkpt lat="44.13713" lon="0.63187">
        <ele>154</ele>
        <time>2025-08-10T07:34:18.696Z</time>
      </trkpt>
      <trkpt lat="44.13711" lon="0.63187">
        <ele>154</ele>
        <time>2025-08-10T07:34:19.696Z</time>
      </trkpt>
      <trkpt lat="44.1371" lon="0.63188">
        <ele>155</ele>
        <time>2025-08-10T07:34:20.696Z</time>
      </trkpt>
      <trkpt lat="44.13709" lon="0.63188">
        <ele>155</ele>
        <time>2025-08-10T07:34:21.696Z</time>
      </trkpt>
      <trkpt lat="44.13708" lon="0.63188">
        <ele>155</ele>
        <time>2025-08-10T07:34:22.696Z</time>
      </trkpt>
      <trkpt lat="44.13707" lon="0.63188">
        <ele>155</ele>
        <time>2025-08-10T07:34:23.696Z</time>
      </trkpt>
      <trkpt lat="44.13706" lon="0.63188">
        <ele>155</ele>
        <time>2025-08-10T07:34:24.696Z</time>
      </trkpt>
      <trkpt lat="44.13705" lon="0.63187">
        <ele>155</ele>
        <time>2025-08-10T07:34:25.696Z</time>
      </trkpt>
      <trkpt lat="44.13704" lon="0.63187">
        <ele>155</ele>
        <time>2025-08-10T07:34:26.696Z</time>
      </trkpt>
      <trkpt lat="44.13703" lon="0.63187">
        <ele>155</ele>
        <time>2025-08-10T07:34:27.696Z</time>
      </trkpt>
      <trkpt lat="44.13702" lon="0.63187">
        <ele>155</ele>
        <time>2025-08-10T07:34:28.696Z</time>
      </trkpt>
      <trkpt lat="44.137" lon="0.63187">
        <ele>155</ele>
        <time>2025-08-10T07:34:29.696Z</time>
      </trkpt>
      <trkpt lat="44.13699" lon="0.63188">
        <ele>155</ele>
        <time>2025-08-10T07:34:30.696Z</time>
      </trkpt>
      <trkpt lat="44.13698" lon="0.63187">
        <ele>155</ele>
        <time>2025-08-10T07:34:31.696Z</time>
      </trkpt>
      <trkpt lat="44.13697" lon="0.63187">
        <ele>155</ele>
        <time>2025-08-10T07:34:32.696Z</time>
      </trkpt>
      <trkpt lat="44.13696" lon="0.63187">
        <ele>155</ele>
        <time>2025-08-10T07:34:33.696Z</time>
      </trkpt>
      <trkpt lat="44.13695" lon="0.63187">
        <ele>155</ele>
        <time>2025-08-10T07:34:34.696Z</time>
      </trkpt>
      <trkpt lat="44.13693" lon="0.63187">
        <ele>155</ele>
        <time>2025-08-10T07:34:35.696Z</time>
      </trkpt>
      <trkpt lat="44.13692" lon="0.63187">
        <ele>156</ele>
        <time>2025-08-10T07:34:36.696Z</time>
      </trkpt>
      <trkpt lat="44.13691" lon="0.63187">
        <ele>156</ele>
        <time>2025-08-10T07:34:37.696Z</time>
      </trkpt>
      <trkpt lat="44.1369" lon="0.63187">
        <ele>156</ele>
        <time>2025-08-10T07:34:38.696Z</time>
      </trkpt>
      <trkpt lat="44.13689" lon="0.63188">
        <ele>156</ele>
        <time>2025-08-10T07:34:39.696Z</time>
      </trkpt>
      <trkpt lat="44.13687" lon="0.63188">
        <ele>157</ele>
        <time>2025-08-10T07:34:40.696Z</time>
      </trkpt>
      <trkpt lat="44.13686" lon="0.63188">
        <ele>157</ele>
        <time>2025-08-10T07:34:41.696Z</time>
      </trkpt>
      <trkpt lat="44.13685" lon="0.63188">
        <ele>157</ele>
        <time>2025-08-10T07:34:42.696Z</time>
      </trkpt>
      <trkpt lat="44.13684" lon="0.63188">
        <ele>158</ele>
        <time>2025-08-10T07:34:43.696Z</time>
      </trkpt>
      <trkpt lat="44.13682" lon="0.63188">
        <ele>158</ele>
        <time>2025-08-10T07:34:44.696Z</time>
      </trkpt>
      <trkpt lat="44.13681" lon="0.63188">
        <ele>157</ele>
        <time>2025-08-10T07:34:45.696Z</time>
      </trkpt>
      <trkpt lat="44.1368" lon="0.63187">
        <ele>157</ele>
        <time>2025-08-10T07:34:46.696Z</time>
      </trkpt>
      <trkpt lat="44.13679" lon="0.63187">
        <ele>156</ele>
        <time>2025-08-10T07:34:47.696Z</time>
      </trkpt>
      <trkpt lat="44.13678" lon="0.63187">
        <ele>156</ele>
        <time>2025-08-10T07:34:48.696Z</time>
      </trkpt>
      <trkpt lat="44.13677" lon="0.63187">
        <ele>156</ele>
        <time>2025-08-10T07:34:49.696Z</time>
      </trkpt>
      <trkpt lat="44.13676" lon="0.63187">
        <ele>156</ele>
        <time>2025-08-10T07:34:50.696Z</time>
      </trkpt>
      <trkpt lat="44.13675" lon="0.63187">
        <ele>155</ele>
        <time>2025-08-10T07:34:51.696Z</time>
      </trkpt>
      <trkpt lat="44.13674" lon="0.63187">
        <ele>156</ele>
        <time>2025-08-10T07:34:52.696Z</time>
      </trkpt>
      <trkpt lat="44.13673" lon="0.63188">
        <ele>156</ele>
        <time>2025-08-10T07:34:53.696Z</time>
      </trkpt>
      <trkpt lat="44.13672" lon="0.63188">
        <ele>156</ele>
        <time>2025-08-10T07:34:54.696Z</time>
      </trkpt>
      <trkpt lat="44.13671" lon="0.63188">
        <ele>156</ele>
        <time>2025-08-10T07:34:55.696Z</time>
      </trkpt>
      <trkpt lat="44.13669" lon="0.63188">
        <ele>155</ele>
        <time>2025-08-10T07:34:56.696Z</time>
      </trkpt>
      <trkpt lat="44.13668" lon="0.63188">
        <ele>155</ele>
        <time>2025-08-10T07:34:57.696Z</time>
      </trkpt>
      <trkpt lat="44.13667" lon="0.63189">
        <ele>155</ele>
        <time>2025-08-10T07:34:58.696Z</time>
      </trkpt>
      <trkpt lat="44.13666" lon="0.63189">
        <ele>155</ele>
        <time>2025-08-10T07:34:59.696Z</time>
      </trkpt>
      <trkpt lat="44.13665" lon="0.63189">
        <ele>155</ele>
        <time>2025-08-10T07:35:00.696Z</time>
      </trkpt>
      <trkpt lat="44.13664" lon="0.63189">
        <ele>155</ele>
        <time>2025-08-10T07:35:01.696Z</time>
      </trkpt>
      <trkpt lat="44.13663" lon="0.63189">
        <ele>155</ele>
        <time>2025-08-10T07:35:02.696Z</time>
      </trkpt>
      <trkpt lat="44.13661" lon="0.63189">
        <ele>155</ele>
        <time>2025-08-10T07:35:03.696Z</time>
      </trkpt>
      <trkpt lat="44.1366" lon="0.63189">
        <ele>155</ele>
        <time>2025-08-10T07:35:04.696Z</time>
      </trkpt>
      <trkpt lat="44.13659" lon="0.63189">
        <ele>155</ele>
        <time>2025-08-10T07:35:05.696Z</time>
      </trkpt>
      <trkpt lat="44.13658" lon="0.63189">
        <ele>155</ele>
        <time>2025-08-10T07:35:06.696Z</time>
      </trkpt>
      <trkpt lat="44.13657" lon="0.63189">
        <ele>155</ele>
        <time>2025-08-10T07:35:07.696Z</time>
      </trkpt>
      <trkpt lat="44.13655" lon="0.63189">
        <ele>155</ele>
        <time>2025-08-10T07:35:08.696Z</time>
      </trkpt>
      <trkpt lat="44.13654" lon="0.63189">
        <ele>155</ele>
        <time>2025-08-10T07:35:09.696Z</time>
      </trkpt>
      <trkpt lat="44.13653" lon="0.63189">
        <ele>155</ele>
        <time>2025-08-10T07:35:10.696Z</time>
      </trkpt>
      <trkpt lat="44.13652" lon="0.63189">
        <ele>155</ele>
        <time>2025-08-10T07:35:11.696Z</time>
      </trkpt>
      <trkpt lat="44.13651" lon="0.63189">
        <ele>155</ele>
        <time>2025-08-10T07:35:12.696Z</time>
      </trkpt>
      <trkpt lat="44.1365" lon="0.63189">
        <ele>156</ele>
        <time>2025-08-10T07:35:13.696Z</time>
      </trkpt>
      <trkpt lat="44.13649" lon="0.63189">
        <ele>155</ele>
        <time>2025-08-10T07:35:14.696Z</time>
      </trkpt>
      <trkpt lat="44.13648" lon="0.63189">
        <ele>155</ele>
        <time>2025-08-10T07:35:15.696Z</time>
      </trkpt>
      <trkpt lat="44.13647" lon="0.63189">
        <ele>155</ele>
        <time>2025-08-10T07:35:16.696Z</time>
      </trkpt>
      <trkpt lat="44.13646" lon="0.63189">
        <ele>155</ele>
        <time>2025-08-10T07:35:17.696Z</time>
      </trkpt>
      <trkpt lat="44.13645" lon="0.63189">
        <ele>155</ele>
        <time>2025-08-10T07:35:18.696Z</time>
      </trkpt>
      <trkpt lat="44.13644" lon="0.63189">
        <ele>155</ele>
        <time>2025-08-10T07:35:19.696Z</time>
      </trkpt>
      <trkpt lat="44.13643" lon="0.63189">
        <ele>155</ele>
        <time>2025-08-10T07:35:20.696Z</time>
      </trkpt>
      <trkpt lat="44.13642" lon="0.63189">
        <ele>155</ele>
        <time>2025-08-10T07:35:21.696Z</time>
      </trkpt>
      <trkpt lat="44.13641" lon="0.63189">
        <ele>156</ele>
        <time>2025-08-10T07:35:22.696Z</time>
      </trkpt>
      <trkpt lat="44.1364" lon="0.63189">
        <ele>156</ele>
        <time>2025-08-10T07:35:23.696Z</time>
      </trkpt>
      <trkpt lat="44.13639" lon="0.63189">
        <ele>156</ele>
        <time>2025-08-10T07:35:24.696Z</time>
      </trkpt>
      <trkpt lat="44.13638" lon="0.63189">
        <ele>156</ele>
        <time>2025-08-10T07:35:25.696Z</time>
      </trkpt>
      <trkpt lat="44.13637" lon="0.63188">
        <ele>156</ele>
        <time>2025-08-10T07:35:26.696Z</time>
      </trkpt>
      <trkpt lat="44.13636" lon="0.63188">
        <ele>156</ele>
        <time>2025-08-10T07:35:27.696Z</time>
      </trkpt>
      <trkpt lat="44.13635" lon="0.63187">
        <ele>155</ele>
        <time>2025-08-10T07:35:28.696Z</time>
      </trkpt>
      <trkpt lat="44.13633" lon="0.63187">
        <ele>155</ele>
        <time>2025-08-10T07:35:29.696Z</time>
      </trkpt>
      <trkpt lat="44.13632" lon="0.63187">
        <ele>155</ele>
        <time>2025-08-10T07:35:30.696Z</time>
      </trkpt>
      <trkpt lat="44.13631" lon="0.63187">
        <ele>155</ele>
        <time>2025-08-10T07:35:31.696Z</time>
      </trkpt>
      <trkpt lat="44.1363" lon="0.63187">
        <ele>155</ele>
        <time>2025-08-10T07:35:32.696Z</time>
      </trkpt>
      <trkpt lat="44.13629" lon="0.63187">
        <ele>155</ele>
        <time>2025-08-10T07:35:33.696Z</time>
      </trkpt>
      <trkpt lat="44.13628" lon="0.63186">
        <ele>155</ele>
        <time>2025-08-10T07:35:34.696Z</time>
      </trkpt>
      <trkpt lat="44.13627" lon="0.63186">
        <ele>155</ele>
        <time>2025-08-10T07:35:35.696Z</time>
      </trkpt>
      <trkpt lat="44.13626" lon="0.63186">
        <ele>155</ele>
        <time>2025-08-10T07:35:36.696Z</time>
      </trkpt>
      <trkpt lat="44.13624" lon="0.63187">
        <ele>155</ele>
        <time>2025-08-10T07:35:37.696Z</time>
      </trkpt>
      <trkpt lat="44.13623" lon="0.63187">
        <ele>155</ele>
        <time>2025-08-10T07:35:38.696Z</time>
      </trkpt>
      <trkpt lat="44.13622" lon="0.63187">
        <ele>155</ele>
        <time>2025-08-10T07:35:39.696Z</time>
      </trkpt>
      <trkpt lat="44.13621" lon="0.63187">
        <ele>155</ele>
        <time>2025-08-10T07:35:40.696Z</time>
      </trkpt>
      <trkpt lat="44.1362" lon="0.63187">
        <ele>155</ele>
        <time>2025-08-10T07:35:41.696Z</time>
      </trkpt>
      <trkpt lat="44.13619" lon="0.63187">
        <ele>155</ele>
        <time>2025-08-10T07:35:42.696Z</time>
      </trkpt>
      <trkpt lat="44.13618" lon="0.63187">
        <ele>156</ele>
        <time>2025-08-10T07:35:43.696Z</time>
      </trkpt>
      <trkpt lat="44.13616" lon="0.63187">
        <ele>156</ele>
        <time>2025-08-10T07:35:44.696Z</time>
      </trkpt>
      <trkpt lat="44.13615" lon="0.63186">
        <ele>156</ele>
        <time>2025-08-10T07:35:45.696Z</time>
      </trkpt>
      <trkpt lat="44.13614" lon="0.63187">
        <ele>156</ele>
        <time>2025-08-10T07:35:46.696Z</time>
      </trkpt>
      <trkpt lat="44.13613" lon="0.63187">
        <ele>155</ele>
        <time>2025-08-10T07:35:47.696Z</time>
      </trkpt>
      <trkpt lat="44.13612" lon="0.63187">
        <ele>155</ele>
        <time>2025-08-10T07:35:48.696Z</time>
      </trkpt>
      <trkpt lat="44.13611" lon="0.63187">
        <ele>156</ele>
        <time>2025-08-10T07:35:49.696Z</time>
      </trkpt>
      <trkpt lat="44.1361" lon="0.63187">
        <ele>156</ele>
        <time>2025-08-10T07:35:50.696Z</time>
      </trkpt>
      <trkpt lat="44.13609" lon="0.63187">
        <ele>156</ele>
        <time>2025-08-10T07:35:51.696Z</time>
      </trkpt>
      <trkpt lat="44.13607" lon="0.63187">
        <ele>157</ele>
        <time>2025-08-10T07:35:52.696Z</time>
      </trkpt>
      <trkpt lat="44.13606" lon="0.63187">
        <ele>157</ele>
        <time>2025-08-10T07:35:53.696Z</time>
      </trkpt>
      <trkpt lat="44.13605" lon="0.63188">
        <ele>157</ele>
        <time>2025-08-10T07:35:54.696Z</time>
      </trkpt>
      <trkpt lat="44.13604" lon="0.63188">
        <ele>157</ele>
        <time>2025-08-10T07:35:55.696Z</time>
      </trkpt>
      <trkpt lat="44.13603" lon="0.63189">
        <ele>158</ele>
        <time>2025-08-10T07:35:56.696Z</time>
      </trkpt>
      <trkpt lat="44.13601" lon="0.63189">
        <ele>159</ele>
        <time>2025-08-10T07:35:57.696Z</time>
      </trkpt>
      <trkpt lat="44.13601" lon="0.6319">
        <ele>159</ele>
        <time>2025-08-10T07:35:58.696Z</time>
      </trkpt>
      <trkpt lat="44.136" lon="0.6319">
        <ele>159</ele>
        <time>2025-08-10T07:35:59.696Z</time>
      </trkpt>
      <trkpt lat="44.13599" lon="0.6319">
        <ele>160</ele>
        <time>2025-08-10T07:36:00.696Z</time>
      </trkpt>
      <trkpt lat="44.13598" lon="0.63191">
        <ele>160</ele>
        <time>2025-08-10T07:36:01.696Z</time>
      </trkpt>
      <trkpt lat="44.13596" lon="0.6319">
        <ele>160</ele>
        <time>2025-08-10T07:36:02.696Z</time>
      </trkpt>
      <trkpt lat="44.13595" lon="0.6319">
        <ele>160</ele>
        <time>2025-08-10T07:36:03.696Z</time>
      </trkpt>
      <trkpt lat="44.13594" lon="0.63189">
        <ele>159</ele>
        <time>2025-08-10T07:36:04.696Z</time>
      </trkpt>
      <trkpt lat="44.13593" lon="0.63189">
        <ele>159</ele>
        <time>2025-08-10T07:36:05.696Z</time>
      </trkpt>
      <trkpt lat="44.13592" lon="0.63189">
        <ele>159</ele>
        <time>2025-08-10T07:36:06.696Z</time>
      </trkpt>
      <trkpt lat="44.13591" lon="0.63189">
        <ele>159</ele>
        <time>2025-08-10T07:36:07.696Z</time>
      </trkpt>
      <trkpt lat="44.1359" lon="0.63189">
        <ele>159</ele>
        <time>2025-08-10T07:36:08.696Z</time>
      </trkpt>
      <trkpt lat="44.13589" lon="0.63189">
        <ele>159</ele>
        <time>2025-08-10T07:36:09.696Z</time>
      </trkpt>
      <trkpt lat="44.13588" lon="0.63188">
        <ele>159</ele>
        <time>2025-08-10T07:36:10.696Z</time>
      </trkpt>
      <trkpt lat="44.13586" lon="0.63188">
        <ele>158</ele>
        <time>2025-08-10T07:36:11.696Z</time>
      </trkpt>
      <trkpt lat="44.13585" lon="0.63188">
        <ele>158</ele>
        <time>2025-08-10T07:36:12.696Z</time>
      </trkpt>
      <trkpt lat="44.13584" lon="0.63188">
        <ele>158</ele>
        <time>2025-08-10T07:36:13.696Z</time>
      </trkpt>
      <trkpt lat="44.13583" lon="0.63187">
        <ele>158</ele>
        <time>2025-08-10T07:36:14.696Z</time>
      </trkpt>
      <trkpt lat="44.13582" lon="0.63187">
        <ele>158</ele>
        <time>2025-08-10T07:36:15.696Z</time>
      </trkpt>
      <trkpt lat="44.13581" lon="0.63186">
        <ele>158</ele>
        <time>2025-08-10T07:36:16.696Z</time>
      </trkpt>
      <trkpt lat="44.1358" lon="0.63185">
        <ele>158</ele>
        <time>2025-08-10T07:36:17.696Z</time>
      </trkpt>
      <trkpt lat="44.13579" lon="0.63184">
        <ele>157</ele>
        <time>2025-08-10T07:36:18.696Z</time>
      </trkpt>
      <trkpt lat="44.13579" lon="0.63182">
        <ele>157</ele>
        <time>2025-08-10T07:36:19.696Z</time>
      </trkpt>
      <trkpt lat="44.13578" lon="0.63181">
        <ele>157</ele>
        <time>2025-08-10T07:36:20.696Z</time>
      </trkpt>
      <trkpt lat="44.13578" lon="0.6318">
        <ele>156</ele>
        <time>2025-08-10T07:36:21.696Z</time>
      </trkpt>
      <trkpt lat="44.13578" lon="0.63179">
        <ele>156</ele>
        <time>2025-08-10T07:36:22.696Z</time>
      </trkpt>
      <trkpt lat="44.13578" lon="0.63178">
        <ele>156</ele>
        <time>2025-08-10T07:36:23.696Z</time>
      </trkpt>
      <trkpt lat="44.13578" lon="0.63178">
        <ele>156</ele>
        <time>2025-08-10T07:36:24.696Z</time>
      </trkpt>
      <trkpt lat="44.13578" lon="0.63177">
        <ele>156</ele>
        <time>2025-08-10T07:36:25.696Z</time>
      </trkpt>
      <trkpt lat="44.13578" lon="0.63176">
        <ele>157</ele>
        <time>2025-08-10T07:36:26.696Z</time>
      </trkpt>
      <trkpt lat="44.13578" lon="0.63175">
        <ele>157</ele>
        <time>2025-08-10T07:36:27.696Z</time>
      </trkpt>
      <trkpt lat="44.13578" lon="0.63173">
        <ele>157</ele>
        <time>2025-08-10T07:36:28.696Z</time>
      </trkpt>
      <trkpt lat="44.13578" lon="0.63171">
        <ele>157</ele>
        <time>2025-08-10T07:36:29.696Z</time>
      </trkpt>
      <trkpt lat="44.13578" lon="0.63169">
        <ele>157</ele>
        <time>2025-08-10T07:36:30.696Z</time>
      </trkpt>
      <trkpt lat="44.13579" lon="0.63168">
        <ele>157</ele>
        <time>2025-08-10T07:36:31.696Z</time>
      </trkpt>
      <trkpt lat="44.13579" lon="0.63166">
        <ele>157</ele>
        <time>2025-08-10T07:36:32.696Z</time>
      </trkpt>
      <trkpt lat="44.13579" lon="0.63165">
        <ele>157</ele>
        <time>2025-08-10T07:36:33.696Z</time>
      </trkpt>
      <trkpt lat="44.1358" lon="0.63164">
        <ele>157</ele>
        <time>2025-08-10T07:36:34.696Z</time>
      </trkpt>
      <trkpt lat="44.1358" lon="0.63163">
        <ele>157</ele>
        <time>2025-08-10T07:36:35.696Z</time>
      </trkpt>
      <trkpt lat="44.1358" lon="0.63162">
        <ele>157</ele>
        <time>2025-08-10T07:36:36.696Z</time>
      </trkpt>
      <trkpt lat="44.1358" lon="0.63161">
        <ele>157</ele>
        <time>2025-08-10T07:36:37.696Z</time>
      </trkpt>
      <trkpt lat="44.1358" lon="0.6316">
        <ele>157</ele>
        <time>2025-08-10T07:36:38.696Z</time>
      </trkpt>
      <trkpt lat="44.1358" lon="0.63159">
        <ele>157</ele>
        <time>2025-08-10T07:36:39.696Z</time>
      </trkpt>
      <trkpt lat="44.13581" lon="0.63157">
        <ele>158</ele>
        <time>2025-08-10T07:36:40.696Z</time>
      </trkpt>
      <trkpt lat="44.13581" lon="0.63156">
        <ele>158</ele>
        <time>2025-08-10T07:36:41.696Z</time>
      </trkpt>
      <trkpt lat="44.13581" lon="0.63154">
        <ele>158</ele>
        <time>2025-08-10T07:36:42.696Z</time>
      </trkpt>
      <trkpt lat="44.13582" lon="0.63153">
        <ele>158</ele>
        <time>2025-08-10T07:36:43.696Z</time>
      </trkpt>
      <trkpt lat="44.13582" lon="0.63151">
        <ele>159</ele>
        <time>2025-08-10T07:36:44.696Z</time>
      </trkpt>
      <trkpt lat="44.13582" lon="0.6315">
        <ele>159</ele>
        <time>2025-08-10T07:36:45.696Z</time>
      </trkpt>
      <trkpt lat="44.13582" lon="0.63149">
        <ele>159</ele>
        <time>2025-08-10T07:36:46.696Z</time>
      </trkpt>
      <trkpt lat="44.13582" lon="0.63147">
        <ele>159</ele>
        <time>2025-08-10T07:36:47.696Z</time>
      </trkpt>
      <trkpt lat="44.13583" lon="0.63146">
        <ele>159</ele>
        <time>2025-08-10T07:36:48.696Z</time>
      </trkpt>
      <trkpt lat="44.13583" lon="0.63144">
        <ele>159</ele>
        <time>2025-08-10T07:36:49.696Z</time>
      </trkpt>
      <trkpt lat="44.13583" lon="0.63143">
        <ele>159</ele>
        <time>2025-08-10T07:36:50.696Z</time>
      </trkpt>
      <trkpt lat="44.13584" lon="0.63142">
        <ele>158</ele>
        <time>2025-08-10T07:36:51.696Z</time>
      </trkpt>
      <trkpt lat="44.13584" lon="0.63141">
        <ele>158</ele>
        <time>2025-08-10T07:36:52.696Z</time>
      </trkpt>
      <trkpt lat="44.13584" lon="0.63139">
        <ele>158</ele>
        <time>2025-08-10T07:36:53.696Z</time>
      </trkpt>
      <trkpt lat="44.13585" lon="0.63138">
        <ele>158</ele>
        <time>2025-08-10T07:36:54.696Z</time>
      </trkpt>
      <trkpt lat="44.13585" lon="0.63136">
        <ele>158</ele>
        <time>2025-08-10T07:36:55.696Z</time>
      </trkpt>
      <trkpt lat="44.13585" lon="0.63134">
        <ele>158</ele>
        <time>2025-08-10T07:36:56.696Z</time>
      </trkpt>
      <trkpt lat="44.13585" lon="0.63133">
        <ele>159</ele>
        <time>2025-08-10T07:36:57.696Z</time>
      </trkpt>
      <trkpt lat="44.13586" lon="0.63132">
        <ele>159</ele>
        <time>2025-08-10T07:36:58.696Z</time>
      </trkpt>
      <trkpt lat="44.13586" lon="0.63132">
        <ele>159</ele>
        <time>2025-08-10T07:36:59.696Z</time>
      </trkpt>
      <trkpt lat="44.13586" lon="0.63131">
        <ele>160</ele>
        <time>2025-08-10T07:37:00.696Z</time>
      </trkpt>
      <trkpt lat="44.13586" lon="0.63131">
        <ele>160</ele>
        <time>2025-08-10T07:37:01.696Z</time>
      </trkpt>
      <trkpt lat="44.13586" lon="0.6313">
        <ele>160</ele>
        <time>2025-08-10T07:37:02.696Z</time>
      </trkpt>
      <trkpt lat="44.13586" lon="0.63128">
        <ele>160</ele>
        <time>2025-08-10T07:37:03.696Z</time>
      </trkpt>
      <trkpt lat="44.13586" lon="0.63127">
        <ele>160</ele>
        <time>2025-08-10T07:37:04.696Z</time>
      </trkpt>
      <trkpt lat="44.13586" lon="0.63126">
        <ele>160</ele>
        <time>2025-08-10T07:37:05.696Z</time>
      </trkpt>
      <trkpt lat="44.13586" lon="0.63124">
        <ele>160</ele>
        <time>2025-08-10T07:37:06.696Z</time>
      </trkpt>
      <trkpt lat="44.13586" lon="0.63123">
        <ele>160</ele>
        <time>2025-08-10T07:37:07.696Z</time>
      </trkpt>
      <trkpt lat="44.13586" lon="0.63121">
        <ele>159</ele>
        <time>2025-08-10T07:37:08.696Z</time>
      </trkpt>
      <trkpt lat="44.13586" lon="0.6312">
        <ele>159</ele>
        <time>2025-08-10T07:37:09.696Z</time>
      </trkpt>
      <trkpt lat="44.13587" lon="0.63118">
        <ele>158</ele>
        <time>2025-08-10T07:37:10.696Z</time>
      </trkpt>
      <trkpt lat="44.13586" lon="0.63116">
        <ele>158</ele>
        <time>2025-08-10T07:37:11.696Z</time>
      </trkpt>
      <trkpt lat="44.13587" lon="0.63115">
        <ele>157</ele>
        <time>2025-08-10T07:37:12.696Z</time>
      </trkpt>
      <trkpt lat="44.13587" lon="0.63113">
        <ele>157</ele>
        <time>2025-08-10T07:37:13.696Z</time>
      </trkpt>
      <trkpt lat="44.13587" lon="0.63112">
        <ele>157</ele>
        <time>2025-08-10T07:37:14.696Z</time>
      </trkpt>
      <trkpt lat="44.13587" lon="0.63111">
        <ele>157</ele>
        <time>2025-08-10T07:37:15.696Z</time>
      </trkpt>
      <trkpt lat="44.13587" lon="0.63109">
        <ele>157</ele>
        <time>2025-08-10T07:37:16.696Z</time>
      </trkpt>
      <trkpt lat="44.13587" lon="0.63108">
        <ele>157</ele>
        <time>2025-08-10T07:37:17.696Z</time>
      </trkpt>
      <trkpt lat="44.13587" lon="0.63106">
        <ele>157</ele>
        <time>2025-08-10T07:37:18.696Z</time>
      </trkpt>
      <trkpt lat="44.13588" lon="0.63105">
        <ele>157</ele>
        <time>2025-08-10T07:37:19.696Z</time>
      </trkpt>
      <trkpt lat="44.13588" lon="0.63103">
        <ele>156</ele>
        <time>2025-08-10T07:37:20.696Z</time>
      </trkpt>
      <trkpt lat="44.13587" lon="0.63102">
        <ele>156</ele>
        <time>2025-08-10T07:37:21.696Z</time>
      </trkpt>
      <trkpt lat="44.13587" lon="0.63101">
        <ele>156</ele>
        <time>2025-08-10T07:37:22.696Z</time>
      </trkpt>
      <trkpt lat="44.13588" lon="0.63099">
        <ele>156</ele>
        <time>2025-08-10T07:37:23.696Z</time>
      </trkpt>
      <trkpt lat="44.13588" lon="0.63097">
        <ele>156</ele>
        <time>2025-08-10T07:37:24.696Z</time>
      </trkpt>
      <trkpt lat="44.13588" lon="0.63096">
        <ele>156</ele>
        <time>2025-08-10T07:37:25.696Z</time>
      </trkpt>
      <trkpt lat="44.13588" lon="0.63094">
        <ele>156</ele>
        <time>2025-08-10T07:37:26.696Z</time>
      </trkpt>
      <trkpt lat="44.13588" lon="0.63093">
        <ele>156</ele>
        <time>2025-08-10T07:37:27.696Z</time>
      </trkpt>
      <trkpt lat="44.13588" lon="0.63091">
        <ele>155</ele>
        <time>2025-08-10T07:37:28.696Z</time>
      </trkpt>
      <trkpt lat="44.13588" lon="0.6309">
        <ele>155</ele>
        <time>2025-08-10T07:37:29.696Z</time>
      </trkpt>
      <trkpt lat="44.13588" lon="0.63089">
        <ele>155</ele>
        <time>2025-08-10T07:37:30.696Z</time>
      </trkpt>
      <trkpt lat="44.13588" lon="0.63087">
        <ele>155</ele>
        <time>2025-08-10T07:37:31.696Z</time>
      </trkpt>
      <trkpt lat="44.13588" lon="0.63086">
        <ele>156</ele>
        <time>2025-08-10T07:37:32.696Z</time>
      </trkpt>
      <trkpt lat="44.13589" lon="0.63084">
        <ele>156</ele>
        <time>2025-08-10T07:37:33.696Z</time>
      </trkpt>
      <trkpt lat="44.13589" lon="0.63082">
        <ele>156</ele>
        <time>2025-08-10T07:37:34.696Z</time>
      </trkpt>
      <trkpt lat="44.13589" lon="0.63081">
        <ele>156</ele>
        <time>2025-08-10T07:37:35.696Z</time>
      </trkpt>
      <trkpt lat="44.1359" lon="0.63079">
        <ele>156</ele>
        <time>2025-08-10T07:37:36.696Z</time>
      </trkpt>
      <trkpt lat="44.1359" lon="0.63078">
        <ele>157</ele>
        <time>2025-08-10T07:37:37.696Z</time>
      </trkpt>
      <trkpt lat="44.1359" lon="0.63076">
        <ele>157</ele>
        <time>2025-08-10T07:37:38.696Z</time>
      </trkpt>
      <trkpt lat="44.13591" lon="0.63075">
        <ele>157</ele>
        <time>2025-08-10T07:37:39.696Z</time>
      </trkpt>
      <trkpt lat="44.13591" lon="0.63073">
        <ele>158</ele>
        <time>2025-08-10T07:37:40.696Z</time>
      </trkpt>
      <trkpt lat="44.13591" lon="0.63072">
        <ele>158</ele>
        <time>2025-08-10T07:37:41.696Z</time>
      </trkpt>
      <trkpt lat="44.13592" lon="0.6307">
        <ele>158</ele>
        <time>2025-08-10T07:37:42.696Z</time>
      </trkpt>
      <trkpt lat="44.13592" lon="0.63069">
        <ele>158</ele>
        <time>2025-08-10T07:37:43.696Z</time>
      </trkpt>
      <trkpt lat="44.13592" lon="0.63068">
        <ele>158</ele>
        <time>2025-08-10T07:37:44.696Z</time>
      </trkpt>
      <trkpt lat="44.13593" lon="0.63066">
        <ele>158</ele>
        <time>2025-08-10T07:37:45.696Z</time>
      </trkpt>
      <trkpt lat="44.13593" lon="0.63064">
        <ele>159</ele>
        <time>2025-08-10T07:37:46.696Z</time>
      </trkpt>
      <trkpt lat="44.13594" lon="0.63063">
        <ele>159</ele>
        <time>2025-08-10T07:37:47.696Z</time>
      </trkpt>
      <trkpt lat="44.13594" lon="0.63061">
        <ele>159</ele>
        <time>2025-08-10T07:37:48.696Z</time>
      </trkpt>
      <trkpt lat="44.13594" lon="0.63059">
        <ele>159</ele>
        <time>2025-08-10T07:37:49.696Z</time>
      </trkpt>
      <trkpt lat="44.13594" lon="0.63058">
        <ele>159</ele>
        <time>2025-08-10T07:37:50.697Z</time>
      </trkpt>
      <trkpt lat="44.13595" lon="0.63056">
        <ele>159</ele>
        <time>2025-08-10T07:37:51.696Z</time>
      </trkpt>
      <trkpt lat="44.13595" lon="0.63055">
        <ele>159</ele>
        <time>2025-08-10T07:37:52.696Z</time>
      </trkpt>
      <trkpt lat="44.13595" lon="0.63054">
        <ele>159</ele>
        <time>2025-08-10T07:37:53.696Z</time>
      </trkpt>
      <trkpt lat="44.13596" lon="0.63053">
        <ele>158</ele>
        <time>2025-08-10T07:37:54.696Z</time>
      </trkpt>
      <trkpt lat="44.13596" lon="0.63051">
        <ele>158</ele>
        <time>2025-08-10T07:37:55.696Z</time>
      </trkpt>
      <trkpt lat="44.13597" lon="0.6305">
        <ele>158</ele>
        <time>2025-08-10T07:37:56.696Z</time>
      </trkpt>
      <trkpt lat="44.13597" lon="0.63048">
        <ele>158</ele>
        <time>2025-08-10T07:37:57.696Z</time>
      </trkpt>
      <trkpt lat="44.13598" lon="0.63047">
        <ele>157</ele>
        <time>2025-08-10T07:37:58.696Z</time>
      </trkpt>
      <trkpt lat="44.13598" lon="0.63046">
        <ele>157</ele>
        <time>2025-08-10T07:37:59.696Z</time>
      </trkpt>
      <trkpt lat="44.13598" lon="0.63044">
        <ele>157</ele>
        <time>2025-08-10T07:38:00.696Z</time>
      </trkpt>
      <trkpt lat="44.13598" lon="0.63043">
        <ele>157</ele>
        <time>2025-08-10T07:38:01.696Z</time>
      </trkpt>
      <trkpt lat="44.13599" lon="0.63042">
        <ele>157</ele>
        <time>2025-08-10T07:38:02.696Z</time>
      </trkpt>
      <trkpt lat="44.13599" lon="0.63041">
        <ele>157</ele>
        <time>2025-08-10T07:38:03.696Z</time>
      </trkpt>
      <trkpt lat="44.136" lon="0.63039">
        <ele>157</ele>
        <time>2025-08-10T07:38:04.696Z</time>
      </trkpt>
      <trkpt lat="44.136" lon="0.63038">
        <ele>157</ele>
        <time>2025-08-10T07:38:05.696Z</time>
      </trkpt>
      <trkpt lat="44.13601" lon="0.63037">
        <ele>157</ele>
        <time>2025-08-10T07:38:06.696Z</time>
      </trkpt>
      <trkpt lat="44.13601" lon="0.63036">
        <ele>157</ele>
        <time>2025-08-10T07:38:07.696Z</time>
      </trkpt>
      <trkpt lat="44.13602" lon="0.63035">
        <ele>158</ele>
        <time>2025-08-10T07:38:08.696Z</time>
      </trkpt>
      <trkpt lat="44.13602" lon="0.63033">
        <ele>158</ele>
        <time>2025-08-10T07:38:09.696Z</time>
      </trkpt>
      <trkpt lat="44.13602" lon="0.63032">
        <ele>158</ele>
        <time>2025-08-10T07:38:10.696Z</time>
      </trkpt>
      <trkpt lat="44.13603" lon="0.6303">
        <ele>158</ele>
        <time>2025-08-10T07:38:11.696Z</time>
      </trkpt>
      <trkpt lat="44.13603" lon="0.63028">
        <ele>159</ele>
        <time>2025-08-10T07:38:12.696Z</time>
      </trkpt>
      <trkpt lat="44.13603" lon="0.63026">
        <ele>159</ele>
        <time>2025-08-10T07:38:13.696Z</time>
      </trkpt>
      <trkpt lat="44.13603" lon="0.63024">
        <ele>159</ele>
        <time>2025-08-10T07:38:14.696Z</time>
      </trkpt>
      <trkpt lat="44.13603" lon="0.63023">
        <ele>159</ele>
        <time>2025-08-10T07:38:15.696Z</time>
      </trkpt>
      <trkpt lat="44.13603" lon="0.63022">
        <ele>159</ele>
        <time>2025-08-10T07:38:16.696Z</time>
      </trkpt>
      <trkpt lat="44.13604" lon="0.6302">
        <ele>160</ele>
        <time>2025-08-10T07:38:17.696Z</time>
      </trkpt>
      <trkpt lat="44.13605" lon="0.63019">
        <ele>160</ele>
        <time>2025-08-10T07:38:18.696Z</time>
      </trkpt>
      <trkpt lat="44.13605" lon="0.63017">
        <ele>160</ele>
        <time>2025-08-10T07:38:19.696Z</time>
      </trkpt>
      <trkpt lat="44.13606" lon="0.63016">
        <ele>160</ele>
        <time>2025-08-10T07:38:20.696Z</time>
      </trkpt>
      <trkpt lat="44.13607" lon="0.63014">
        <ele>160</ele>
        <time>2025-08-10T07:38:21.696Z</time>
      </trkpt>
      <trkpt lat="44.13608" lon="0.63013">
        <ele>159</ele>
        <time>2025-08-10T07:38:22.697Z</time>
      </trkpt>
      <trkpt lat="44.13608" lon="0.63012">
        <ele>159</ele>
        <time>2025-08-10T07:38:23.696Z</time>
      </trkpt>
      <trkpt lat="44.13609" lon="0.63011">
        <ele>159</ele>
        <time>2025-08-10T07:38:24.696Z</time>
      </trkpt>
      <trkpt lat="44.13609" lon="0.6301">
        <ele>159</ele>
        <time>2025-08-10T07:38:25.696Z</time>
      </trkpt>
      <trkpt lat="44.1361" lon="0.63008">
        <ele>158</ele>
        <time>2025-08-10T07:38:26.696Z</time>
      </trkpt>
      <trkpt lat="44.13611" lon="0.63007">
        <ele>158</ele>
        <time>2025-08-10T07:38:27.696Z</time>
      </trkpt>
      <trkpt lat="44.13612" lon="0.63005">
        <ele>158</ele>
        <time>2025-08-10T07:38:28.696Z</time>
      </trkpt>
      <trkpt lat="44.13612" lon="0.63004">
        <ele>158</ele>
        <time>2025-08-10T07:38:29.696Z</time>
      </trkpt>
      <trkpt lat="44.13613" lon="0.63003">
        <ele>158</ele>
        <time>2025-08-10T07:38:30.696Z</time>
      </trkpt>
      <trkpt lat="44.13613" lon="0.63001">
        <ele>158</ele>
        <time>2025-08-10T07:38:31.696Z</time>
      </trkpt>
      <trkpt lat="44.13614" lon="0.63">
        <ele>158</ele>
        <time>2025-08-10T07:38:32.696Z</time>
      </trkpt>
      <trkpt lat="44.13615" lon="0.62999">
        <ele>158</ele>
        <time>2025-08-10T07:38:33.696Z</time>
      </trkpt>
      <trkpt lat="44.13616" lon="0.62998">
        <ele>158</ele>
        <time>2025-08-10T07:38:34.696Z</time>
      </trkpt>
      <trkpt lat="44.13617" lon="0.62997">
        <ele>157</ele>
        <time>2025-08-10T07:38:35.696Z</time>
      </trkpt>
      <trkpt lat="44.13617" lon="0.62995">
        <ele>157</ele>
        <time>2025-08-10T07:38:36.696Z</time>
      </trkpt>
      <trkpt lat="44.13618" lon="0.62993">
        <ele>157</ele>
        <time>2025-08-10T07:38:37.696Z</time>
      </trkpt>
      <trkpt lat="44.13619" lon="0.62992">
        <ele>157</ele>
        <time>2025-08-10T07:38:38.696Z</time>
      </trkpt>
      <trkpt lat="44.13619" lon="0.6299">
        <ele>158</ele>
        <time>2025-08-10T07:38:39.696Z</time>
      </trkpt>
      <trkpt lat="44.1362" lon="0.62989">
        <ele>158</ele>
        <time>2025-08-10T07:38:40.696Z</time>
      </trkpt>
      <trkpt lat="44.13621" lon="0.62988">
        <ele>157</ele>
        <time>2025-08-10T07:38:41.696Z</time>
      </trkpt>
      <trkpt lat="44.13621" lon="0.62987">
        <ele>157</ele>
        <time>2025-08-10T07:38:42.696Z</time>
      </trkpt>
      <trkpt lat="44.13622" lon="0.62985">
        <ele>157</ele>
        <time>2025-08-10T07:38:43.696Z</time>
      </trkpt>
      <trkpt lat="44.13623" lon="0.62984">
        <ele>157</ele>
        <time>2025-08-10T07:38:44.696Z</time>
      </trkpt>
      <trkpt lat="44.13624" lon="0.62982">
        <ele>157</ele>
        <time>2025-08-10T07:38:45.696Z</time>
      </trkpt>
      <trkpt lat="44.13624" lon="0.62981">
        <ele>157</ele>
        <time>2025-08-10T07:38:46.696Z</time>
      </trkpt>
      <trkpt lat="44.13625" lon="0.6298">
        <ele>157</ele>
        <time>2025-08-10T07:38:47.696Z</time>
      </trkpt>
      <trkpt lat="44.13626" lon="0.62979">
        <ele>157</ele>
        <time>2025-08-10T07:38:48.696Z</time>
      </trkpt>
      <trkpt lat="44.13626" lon="0.62978">
        <ele>157</ele>
        <time>2025-08-10T07:38:49.696Z</time>
      </trkpt>
      <trkpt lat="44.13627" lon="0.62976">
        <ele>157</ele>
        <time>2025-08-10T07:38:50.696Z</time>
      </trkpt>
      <trkpt lat="44.13628" lon="0.62975">
        <ele>157</ele>
        <time>2025-08-10T07:38:51.696Z</time>
      </trkpt>
      <trkpt lat="44.13628" lon="0.62973">
        <ele>157</ele>
        <time>2025-08-10T07:38:52.696Z</time>
      </trkpt>
      <trkpt lat="44.13629" lon="0.62971">
        <ele>157</ele>
        <time>2025-08-10T07:38:53.696Z</time>
      </trkpt>
      <trkpt lat="44.13629" lon="0.6297">
        <ele>157</ele>
        <time>2025-08-10T07:38:54.696Z</time>
      </trkpt>
      <trkpt lat="44.1363" lon="0.62968">
        <ele>157</ele>
        <time>2025-08-10T07:38:55.696Z</time>
      </trkpt>
      <trkpt lat="44.1363" lon="0.62967">
        <ele>157</ele>
        <time>2025-08-10T07:38:56.696Z</time>
      </trkpt>
      <trkpt lat="44.13631" lon="0.62966">
        <ele>157</ele>
        <time>2025-08-10T07:38:57.696Z</time>
      </trkpt>
      <trkpt lat="44.13631" lon="0.62965">
        <ele>158</ele>
        <time>2025-08-10T07:38:58.696Z</time>
      </trkpt>
      <trkpt lat="44.13632" lon="0.62963">
        <ele>158</ele>
        <time>2025-08-10T07:38:59.696Z</time>
      </trkpt>
      <trkpt lat="44.13632" lon="0.62962">
        <ele>158</ele>
        <time>2025-08-10T07:39:00.696Z</time>
      </trkpt>
      <trkpt lat="44.13633" lon="0.6296">
        <ele>158</ele>
        <time>2025-08-10T07:39:01.696Z</time>
      </trkpt>
      <trkpt lat="44.13633" lon="0.62959">
        <ele>158</ele>
        <time>2025-08-10T07:39:02.696Z</time>
      </trkpt>
      <trkpt lat="44.13634" lon="0.62958">
        <ele>158</ele>
        <time>2025-08-10T07:39:03.696Z</time>
      </trkpt>
      <trkpt lat="44.13634" lon="0.62957">
        <ele>158</ele>
        <time>2025-08-10T07:39:04.696Z</time>
      </trkpt>
      <trkpt lat="44.13635" lon="0.62956">
        <ele>159</ele>
        <time>2025-08-10T07:39:05.696Z</time>
      </trkpt>
      <trkpt lat="44.13635" lon="0.62954">
        <ele>159</ele>
        <time>2025-08-10T07:39:06.696Z</time>
      </trkpt>
      <trkpt lat="44.13636" lon="0.62953">
        <ele>158</ele>
        <time>2025-08-10T07:39:07.696Z</time>
      </trkpt>
      <trkpt lat="44.13636" lon="0.62951">
        <ele>158</ele>
        <time>2025-08-10T07:39:08.696Z</time>
      </trkpt>
      <trkpt lat="44.13636" lon="0.62949">
        <ele>158</ele>
        <time>2025-08-10T07:39:09.696Z</time>
      </trkpt>
      <trkpt lat="44.13637" lon="0.62948">
        <ele>158</ele>
        <time>2025-08-10T07:39:10.696Z</time>
      </trkpt>
      <trkpt lat="44.13637" lon="0.62946">
        <ele>158</ele>
        <time>2025-08-10T07:39:11.696Z</time>
      </trkpt>
      <trkpt lat="44.13638" lon="0.62945">
        <ele>158</ele>
        <time>2025-08-10T07:39:12.696Z</time>
      </trkpt>
      <trkpt lat="44.13638" lon="0.62944">
        <ele>158</ele>
        <time>2025-08-10T07:39:13.696Z</time>
      </trkpt>
      <trkpt lat="44.13638" lon="0.62943">
        <ele>158</ele>
        <time>2025-08-10T07:39:14.696Z</time>
      </trkpt>
      <trkpt lat="44.13638" lon="0.62942">
        <ele>158</ele>
        <time>2025-08-10T07:39:15.696Z</time>
      </trkpt>
      <trkpt lat="44.13638" lon="0.6294">
        <ele>158</ele>
        <time>2025-08-10T07:39:16.696Z</time>
      </trkpt>
      <trkpt lat="44.13639" lon="0.62939">
        <ele>158</ele>
        <time>2025-08-10T07:39:17.696Z</time>
      </trkpt>
      <trkpt lat="44.13639" lon="0.62937">
        <ele>158</ele>
        <time>2025-08-10T07:39:18.696Z</time>
      </trkpt>
      <trkpt lat="44.1364" lon="0.62936">
        <ele>158</ele>
        <time>2025-08-10T07:39:19.696Z</time>
      </trkpt>
      <trkpt lat="44.1364" lon="0.62935">
        <ele>158</ele>
        <time>2025-08-10T07:39:20.696Z</time>
      </trkpt>
      <trkpt lat="44.1364" lon="0.62934">
        <ele>157</ele>
        <time>2025-08-10T07:39:21.696Z</time>
      </trkpt>
      <trkpt lat="44.1364" lon="0.62932">
        <ele>157</ele>
        <time>2025-08-10T07:39:22.696Z</time>
      </trkpt>
      <trkpt lat="44.1364" lon="0.62929">
        <ele>157</ele>
        <time>2025-08-10T07:39:23.696Z</time>
      </trkpt>
      <trkpt lat="44.1364" lon="0.62928">
        <ele>156</ele>
        <time>2025-08-10T07:39:24.696Z</time>
      </trkpt>
      <trkpt lat="44.1364" lon="0.62926">
        <ele>155</ele>
        <time>2025-08-10T07:39:25.696Z</time>
      </trkpt>
      <trkpt lat="44.13641" lon="0.62924">
        <ele>155</ele>
        <time>2025-08-10T07:39:26.696Z</time>
      </trkpt>
      <trkpt lat="44.13641" lon="0.62922">
        <ele>155</ele>
        <time>2025-08-10T07:39:27.696Z</time>
      </trkpt>
      <trkpt lat="44.1364" lon="0.6292">
        <ele>155</ele>
        <time>2025-08-10T07:39:28.696Z</time>
      </trkpt>
      <trkpt lat="44.1364" lon="0.62919">
        <ele>154</ele>
        <time>2025-08-10T07:39:29.696Z</time>
      </trkpt>
      <trkpt lat="44.1364" lon="0.62918">
        <ele>154</ele>
        <time>2025-08-10T07:39:30.696Z</time>
      </trkpt>
      <trkpt lat="44.1364" lon="0.62916">
        <ele>155</ele>
        <time>2025-08-10T07:39:31.696Z</time>
      </trkpt>
      <trkpt lat="44.13641" lon="0.62914">
        <ele>155</ele>
        <time>2025-08-10T07:39:32.696Z</time>
      </trkpt>
      <trkpt lat="44.13641" lon="0.62913">
        <ele>155</ele>
        <time>2025-08-10T07:39:33.696Z</time>
      </trkpt>
      <trkpt lat="44.13642" lon="0.62911">
        <ele>154</ele>
        <time>2025-08-10T07:39:34.696Z</time>
      </trkpt>
      <trkpt lat="44.13642" lon="0.6291">
        <ele>154</ele>
        <time>2025-08-10T07:39:35.696Z</time>
      </trkpt>
      <trkpt lat="44.13642" lon="0.62908">
        <ele>154</ele>
        <time>2025-08-10T07:39:36.696Z</time>
      </trkpt>
      <trkpt lat="44.13642" lon="0.62906">
        <ele>154</ele>
        <time>2025-08-10T07:39:37.696Z</time>
      </trkpt>
      <trkpt lat="44.13642" lon="0.62905">
        <ele>154</ele>
        <time>2025-08-10T07:39:38.696Z</time>
      </trkpt>
      <trkpt lat="44.13643" lon="0.62903">
        <ele>155</ele>
        <time>2025-08-10T07:39:39.696Z</time>
      </trkpt>
      <trkpt lat="44.13642" lon="0.62902">
        <ele>155</ele>
        <time>2025-08-10T07:39:40.696Z</time>
      </trkpt>
      <trkpt lat="44.13642" lon="0.629">
        <ele>155</ele>
        <time>2025-08-10T07:39:41.696Z</time>
      </trkpt>
      <trkpt lat="44.13642" lon="0.62899">
        <ele>155</ele>
        <time>2025-08-10T07:39:42.696Z</time>
      </trkpt>
      <trkpt lat="44.13643" lon="0.62897">
        <ele>155</ele>
        <time>2025-08-10T07:39:43.696Z</time>
      </trkpt>
      <trkpt lat="44.13643" lon="0.62896">
        <ele>155</ele>
        <time>2025-08-10T07:39:44.696Z</time>
      </trkpt>
      <trkpt lat="44.13643" lon="0.62895">
        <ele>155</ele>
        <time>2025-08-10T07:39:45.696Z</time>
      </trkpt>
      <trkpt lat="44.13643" lon="0.62893">
        <ele>155</ele>
        <time>2025-08-10T07:39:46.697Z</time>
      </trkpt>
      <trkpt lat="44.13644" lon="0.62891">
        <ele>154</ele>
        <time>2025-08-10T07:39:47.697Z</time>
      </trkpt>
      <trkpt lat="44.13644" lon="0.6289">
        <ele>154</ele>
        <time>2025-08-10T07:39:48.696Z</time>
      </trkpt>
      <trkpt lat="44.13644" lon="0.62888">
        <ele>154</ele>
        <time>2025-08-10T07:39:49.696Z</time>
      </trkpt>
      <trkpt lat="44.13645" lon="0.62888">
        <ele>153</ele>
        <time>2025-08-10T07:39:50.696Z</time>
      </trkpt>
      <trkpt lat="44.13645" lon="0.62887">
        <ele>153</ele>
        <time>2025-08-10T07:39:51.696Z</time>
      </trkpt>
      <trkpt lat="44.13645" lon="0.62886">
        <ele>153</ele>
        <time>2025-08-10T07:39:52.696Z</time>
      </trkpt>
      <trkpt lat="44.13645" lon="0.62886">
        <ele>152</ele>
        <time>2025-08-10T07:39:53.696Z</time>
      </trkpt>
      <trkpt lat="44.13645" lon="0.62886">
        <ele>152</ele>
        <time>2025-08-10T07:39:54.696Z</time>
      </trkpt>
      <trkpt lat="44.13645" lon="0.62886">
        <ele>152</ele>
        <time>2025-08-10T07:39:55.696Z</time>
      </trkpt>
      <trkpt lat="44.13646" lon="0.62886">
        <ele>152</ele>
        <time>2025-08-10T07:39:56.696Z</time>
      </trkpt>
      <trkpt lat="44.13646" lon="0.62886">
        <ele>152</ele>
        <time>2025-08-10T07:39:57.696Z</time>
      </trkpt>
      <trkpt lat="44.13647" lon="0.62885">
        <ele>152</ele>
        <time>2025-08-10T07:39:58.696Z</time>
      </trkpt>
      <trkpt lat="44.13648" lon="0.62883">
        <ele>153</ele>
        <time>2025-08-10T07:39:59.696Z</time>
      </trkpt>
      <trkpt lat="44.13649" lon="0.62882">
        <ele>153</ele>
        <time>2025-08-10T07:40:00.696Z</time>
      </trkpt>
      <trkpt lat="44.1365" lon="0.62881">
        <ele>153</ele>
        <time>2025-08-10T07:40:01.696Z</time>
      </trkpt>
      <trkpt lat="44.13651" lon="0.6288">
        <ele>153</ele>
        <time>2025-08-10T07:40:02.696Z</time>
      </trkpt>
      <trkpt lat="44.13652" lon="0.62879">
        <ele>153</ele>
        <time>2025-08-10T07:40:03.696Z</time>
      </trkpt>
      <trkpt lat="44.13653" lon="0.62879">
        <ele>153</ele>
        <time>2025-08-10T07:40:04.696Z</time>
      </trkpt>
      <trkpt lat="44.13653" lon="0.62878">
        <ele>154</ele>
        <time>2025-08-10T07:40:05.696Z</time>
      </trkpt>
      <trkpt lat="44.13654" lon="0.62877">
        <ele>154</ele>
        <time>2025-08-10T07:40:06.696Z</time>
      </trkpt>
      <trkpt lat="44.13655" lon="0.62876">
        <ele>154</ele>
        <time>2025-08-10T07:40:07.696Z</time>
      </trkpt>
      <trkpt lat="44.13655" lon="0.62875">
        <ele>155</ele>
        <time>2025-08-10T07:40:08.696Z</time>
      </trkpt>
      <trkpt lat="44.13656" lon="0.62875">
        <ele>155</ele>
        <time>2025-08-10T07:40:09.696Z</time>
      </trkpt>
      <trkpt lat="44.13657" lon="0.62874">
        <ele>155</ele>
        <time>2025-08-10T07:40:10.696Z</time>
      </trkpt>
      <trkpt lat="44.13658" lon="0.62874">
        <ele>155</ele>
        <time>2025-08-10T07:40:11.696Z</time>
      </trkpt>
      <trkpt lat="44.13659" lon="0.62873">
        <ele>155</ele>
        <time>2025-08-10T07:40:12.696Z</time>
      </trkpt>
      <trkpt lat="44.1366" lon="0.62872">
        <ele>155</ele>
        <time>2025-08-10T07:40:13.696Z</time>
      </trkpt>
      <trkpt lat="44.13661" lon="0.62872">
        <ele>155</ele>
        <time>2025-08-10T07:40:14.696Z</time>
      </trkpt>
      <trkpt lat="44.13662" lon="0.62871">
        <ele>155</ele>
        <time>2025-08-10T07:40:15.696Z</time>
      </trkpt>
      <trkpt lat="44.13663" lon="0.62871">
        <ele>155</ele>
        <time>2025-08-10T07:40:16.696Z</time>
      </trkpt>
      <trkpt lat="44.13663" lon="0.6287">
        <ele>155</ele>
        <time>2025-08-10T07:40:17.696Z</time>
      </trkpt>
      <trkpt lat="44.13664" lon="0.62869">
        <ele>155</ele>
        <time>2025-08-10T07:40:18.696Z</time>
      </trkpt>
      <trkpt lat="44.13665" lon="0.62869">
        <ele>155</ele>
        <time>2025-08-10T07:40:19.696Z</time>
      </trkpt>
      <trkpt lat="44.13666" lon="0.62868">
        <ele>155</ele>
        <time>2025-08-10T07:40:20.696Z</time>
      </trkpt>
      <trkpt lat="44.13667" lon="0.62867">
        <ele>155</ele>
        <time>2025-08-10T07:40:21.696Z</time>
      </trkpt>
      <trkpt lat="44.13667" lon="0.62866">
        <ele>155</ele>
        <time>2025-08-10T07:40:22.696Z</time>
      </trkpt>
      <trkpt lat="44.13668" lon="0.62865">
        <ele>155</ele>
        <time>2025-08-10T07:40:23.696Z</time>
      </trkpt>
      <trkpt lat="44.1367" lon="0.62864">
        <ele>156</ele>
        <time>2025-08-10T07:40:24.696Z</time>
      </trkpt>
      <trkpt lat="44.1367" lon="0.62864">
        <ele>156</ele>
        <time>2025-08-10T07:40:25.696Z</time>
      </trkpt>
      <trkpt lat="44.13671" lon="0.62863">
        <ele>156</ele>
        <time>2025-08-10T07:40:26.696Z</time>
      </trkpt>
      <trkpt lat="44.13672" lon="0.62862">
        <ele>157</ele>
        <time>2025-08-10T07:40:27.696Z</time>
      </trkpt>
      <trkpt lat="44.13673" lon="0.62862">
        <ele>157</ele>
        <time>2025-08-10T07:40:28.696Z</time>
      </trkpt>
      <trkpt lat="44.13673" lon="0.62861">
        <ele>157</ele>
        <time>2025-08-10T07:40:29.696Z</time>
      </trkpt>
      <trkpt lat="44.13674" lon="0.6286">
        <ele>158</ele>
        <time>2025-08-10T07:40:30.696Z</time>
      </trkpt>
      <trkpt lat="44.13674" lon="0.6286">
        <ele>158</ele>
        <time>2025-08-10T07:40:31.696Z</time>
      </trkpt>
      <trkpt lat="44.13674" lon="0.62859">
        <ele>158</ele>
        <time>2025-08-10T07:40:32.696Z</time>
      </trkpt>
      <trkpt lat="44.13675" lon="0.62858">
        <ele>158</ele>
        <time>2025-08-10T07:40:33.696Z</time>
      </trkpt>
      <trkpt lat="44.13675" lon="0.62856">
        <ele>158</ele>
        <time>2025-08-10T07:40:34.696Z</time>
      </trkpt>
      <trkpt lat="44.13676" lon="0.62854">
        <ele>158</ele>
        <time>2025-08-10T07:40:35.696Z</time>
      </trkpt>
      <trkpt lat="44.13677" lon="0.62852">
        <ele>157</ele>
        <time>2025-08-10T07:40:36.696Z</time>
      </trkpt>
      <trkpt lat="44.13678" lon="0.6285">
        <ele>157</ele>
        <time>2025-08-10T07:40:37.696Z</time>
      </trkpt>
      <trkpt lat="44.13678" lon="0.62849">
        <ele>157</ele>
        <time>2025-08-10T07:40:38.696Z</time>
      </trkpt>
      <trkpt lat="44.13679" lon="0.62849">
        <ele>157</ele>
        <time>2025-08-10T07:40:39.696Z</time>
      </trkpt>
      <trkpt lat="44.13679" lon="0.62847">
        <ele>156</ele>
        <time>2025-08-10T07:40:40.696Z</time>
      </trkpt>
      <trkpt lat="44.1368" lon="0.62846">
        <ele>156</ele>
        <time>2025-08-10T07:40:41.696Z</time>
      </trkpt>
      <trkpt lat="44.13681" lon="0.62845">
        <ele>156</ele>
        <time>2025-08-10T07:40:42.696Z</time>
      </trkpt>
      <trkpt lat="44.13681" lon="0.62844">
        <ele>156</ele>
        <time>2025-08-10T07:40:43.697Z</time>
      </trkpt>
      <trkpt lat="44.13681" lon="0.62842">
        <ele>156</ele>
        <time>2025-08-10T07:40:44.696Z</time>
      </trkpt>
      <trkpt lat="44.13682" lon="0.62841">
        <ele>156</ele>
        <time>2025-08-10T07:40:45.696Z</time>
      </trkpt>
      <trkpt lat="44.13683" lon="0.6284">
        <ele>156</ele>
        <time>2025-08-10T07:40:46.696Z</time>
      </trkpt>
      <trkpt lat="44.13684" lon="0.6284">
        <ele>156</ele>
        <time>2025-08-10T07:40:47.696Z</time>
      </trkpt>
      <trkpt lat="44.13685" lon="0.62839">
        <ele>157</ele>
        <time>2025-08-10T07:40:48.696Z</time>
      </trkpt>
      <trkpt lat="44.13685" lon="0.62838">
        <ele>157</ele>
        <time>2025-08-10T07:40:49.696Z</time>
      </trkpt>
      <trkpt lat="44.13686" lon="0.62836">
        <ele>158</ele>
        <time>2025-08-10T07:40:50.696Z</time>
      </trkpt>
      <trkpt lat="44.13687" lon="0.62835">
        <ele>158</ele>
        <time>2025-08-10T07:40:51.696Z</time>
      </trkpt>
      <trkpt lat="44.13688" lon="0.62834">
        <ele>158</ele>
        <time>2025-08-10T07:40:52.696Z</time>
      </trkpt>
      <trkpt lat="44.13689" lon="0.62833">
        <ele>158</ele>
        <time>2025-08-10T07:40:53.696Z</time>
      </trkpt>
      <trkpt lat="44.13689" lon="0.62833">
        <ele>158</ele>
        <time>2025-08-10T07:40:54.696Z</time>
      </trkpt>
      <trkpt lat="44.1369" lon="0.62832">
        <ele>158</ele>
        <time>2025-08-10T07:40:55.696Z</time>
      </trkpt>
      <trkpt lat="44.1369" lon="0.62831">
        <ele>157</ele>
        <time>2025-08-10T07:40:56.696Z</time>
      </trkpt>
      <trkpt lat="44.13691" lon="0.6283">
        <ele>157</ele>
        <time>2025-08-10T07:40:57.696Z</time>
      </trkpt>
      <trkpt lat="44.13691" lon="0.62829">
        <ele>158</ele>
        <time>2025-08-10T07:40:58.696Z</time>
      </trkpt>
      <trkpt lat="44.13691" lon="0.62828">
        <ele>158</ele>
        <time>2025-08-10T07:40:59.696Z</time>
      </trkpt>
      <trkpt lat="44.13692" lon="0.62826">
        <ele>158</ele>
        <time>2025-08-10T07:41:00.696Z</time>
      </trkpt>
      <trkpt lat="44.13692" lon="0.62825">
        <ele>158</ele>
        <time>2025-08-10T07:41:01.696Z</time>
      </trkpt>
      <trkpt lat="44.13693" lon="0.62824">
        <ele>158</ele>
        <time>2025-08-10T07:41:02.696Z</time>
      </trkpt>
      <trkpt lat="44.13693" lon="0.62822">
        <ele>158</ele>
        <time>2025-08-10T07:41:03.696Z</time>
      </trkpt>
      <trkpt lat="44.13694" lon="0.6282">
        <ele>159</ele>
        <time>2025-08-10T07:41:04.696Z</time>
      </trkpt>
      <trkpt lat="44.13694" lon="0.62818">
        <ele>159</ele>
        <time>2025-08-10T07:41:05.696Z</time>
      </trkpt>
      <trkpt lat="44.13695" lon="0.62816">
        <ele>160</ele>
        <time>2025-08-10T07:41:06.696Z</time>
      </trkpt>
      <trkpt lat="44.13695" lon="0.62814">
        <ele>160</ele>
        <time>2025-08-10T07:41:07.696Z</time>
      </trkpt>
      <trkpt lat="44.13695" lon="0.62813">
        <ele>160</ele>
        <time>2025-08-10T07:41:08.696Z</time>
      </trkpt>
      <trkpt lat="44.13696" lon="0.62811">
        <ele>160</ele>
        <time>2025-08-10T07:41:09.696Z</time>
      </trkpt>
      <trkpt lat="44.13696" lon="0.6281">
        <ele>160</ele>
        <time>2025-08-10T07:41:10.696Z</time>
      </trkpt>
      <trkpt lat="44.13696" lon="0.62809">
        <ele>160</ele>
        <time>2025-08-10T07:41:11.697Z</time>
      </trkpt>
      <trkpt lat="44.13697" lon="0.62808">
        <ele>160</ele>
        <time>2025-08-10T07:41:12.696Z</time>
      </trkpt>
      <trkpt lat="44.13697" lon="0.62807">
        <ele>160</ele>
        <time>2025-08-10T07:41:13.696Z</time>
      </trkpt>
      <trkpt lat="44.13698" lon="0.62806">
        <ele>160</ele>
        <time>2025-08-10T07:41:14.696Z</time>
      </trkpt>
      <trkpt lat="44.13698" lon="0.62804">
        <ele>160</ele>
        <time>2025-08-10T07:41:15.696Z</time>
      </trkpt>
      <trkpt lat="44.13699" lon="0.62803">
        <ele>161</ele>
        <time>2025-08-10T07:41:16.696Z</time>
      </trkpt>
      <trkpt lat="44.13699" lon="0.62802">
        <ele>161</ele>
        <time>2025-08-10T07:41:17.696Z</time>
      </trkpt>
      <trkpt lat="44.137" lon="0.62801">
        <ele>161</ele>
        <time>2025-08-10T07:41:18.696Z</time>
      </trkpt>
      <trkpt lat="44.137" lon="0.628">
        <ele>161</ele>
        <time>2025-08-10T07:41:19.696Z</time>
      </trkpt>
      <trkpt lat="44.13701" lon="0.62799">
        <ele>161</ele>
        <time>2025-08-10T07:41:20.696Z</time>
      </trkpt>
      <trkpt lat="44.13701" lon="0.62798">
        <ele>161</ele>
        <time>2025-08-10T07:41:21.696Z</time>
      </trkpt>
      <trkpt lat="44.13702" lon="0.62797">
        <ele>161</ele>
        <time>2025-08-10T07:41:22.696Z</time>
      </trkpt>
      <trkpt lat="44.13702" lon="0.62796">
        <ele>161</ele>
        <time>2025-08-10T07:41:23.696Z</time>
      </trkpt>
      <trkpt lat="44.13703" lon="0.62794">
        <ele>161</ele>
        <time>2025-08-10T07:41:24.696Z</time>
      </trkpt>
      <trkpt lat="44.13704" lon="0.62793">
        <ele>161</ele>
        <time>2025-08-10T07:41:25.696Z</time>
      </trkpt>
      <trkpt lat="44.13704" lon="0.62792">
        <ele>161</ele>
        <time>2025-08-10T07:41:26.696Z</time>
      </trkpt>
      <trkpt lat="44.13705" lon="0.62791">
        <ele>161</ele>
        <time>2025-08-10T07:41:27.696Z</time>
      </trkpt>
      <trkpt lat="44.13705" lon="0.6279">
        <ele>161</ele>
        <time>2025-08-10T07:41:28.696Z</time>
      </trkpt>
      <trkpt lat="44.13706" lon="0.62789">
        <ele>162</ele>
        <time>2025-08-10T07:41:29.696Z</time>
      </trkpt>
      <trkpt lat="44.13706" lon="0.62788">
        <ele>162</ele>
        <time>2025-08-10T07:41:30.696Z</time>
      </trkpt>
      <trkpt lat="44.13707" lon="0.62787">
        <ele>162</ele>
        <time>2025-08-10T07:41:31.696Z</time>
      </trkpt>
      <trkpt lat="44.13708" lon="0.62786">
        <ele>162</ele>
        <time>2025-08-10T07:41:32.696Z</time>
      </trkpt>
      <trkpt lat="44.13708" lon="0.62785">
        <ele>162</ele>
        <time>2025-08-10T07:41:33.696Z</time>
      </trkpt>
      <trkpt lat="44.13709" lon="0.62785">
        <ele>161</ele>
        <time>2025-08-10T07:41:34.696Z</time>
      </trkpt>
      <trkpt lat="44.13709" lon="0.62784">
        <ele>161</ele>
        <time>2025-08-10T07:41:35.696Z</time>
      </trkpt>
      <trkpt lat="44.1371" lon="0.62784">
        <ele>161</ele>
        <time>2025-08-10T07:41:36.696Z</time>
      </trkpt>
      <trkpt lat="44.1371" lon="0.62783">
        <ele>161</ele>
        <time>2025-08-10T07:41:37.696Z</time>
      </trkpt>
      <trkpt lat="44.1371" lon="0.62783">
        <ele>160</ele>
        <time>2025-08-10T07:41:38.696Z</time>
      </trkpt>
      <trkpt lat="44.13711" lon="0.62781">
        <ele>160</ele>
        <time>2025-08-10T07:41:39.696Z</time>
      </trkpt>
      <trkpt lat="44.13711" lon="0.6278">
        <ele>160</ele>
        <time>2025-08-10T07:41:40.696Z</time>
      </trkpt>
      <trkpt lat="44.13712" lon="0.62778">
        <ele>160</ele>
        <time>2025-08-10T07:41:41.696Z</time>
      </trkpt>
      <trkpt lat="44.13713" lon="0.62776">
        <ele>159</ele>
        <time>2025-08-10T07:41:42.696Z</time>
      </trkpt>
      <trkpt lat="44.13715" lon="0.62776">
        <ele>159</ele>
        <time>2025-08-10T07:41:43.696Z</time>
      </trkpt>
      <trkpt lat="44.13716" lon="0.62775">
        <ele>159</ele>
        <time>2025-08-10T07:41:44.696Z</time>
      </trkpt>
      <trkpt lat="44.13716" lon="0.62774">
        <ele>158</ele>
        <time>2025-08-10T07:41:45.696Z</time>
      </trkpt>
      <trkpt lat="44.13717" lon="0.62773">
        <ele>158</ele>
        <time>2025-08-10T07:41:46.696Z</time>
      </trkpt>
      <trkpt lat="44.13717" lon="0.62771">
        <ele>158</ele>
        <time>2025-08-10T07:41:47.696Z</time>
      </trkpt>
      <trkpt lat="44.13718" lon="0.6277">
        <ele>157</ele>
        <time>2025-08-10T07:41:48.696Z</time>
      </trkpt>
      <trkpt lat="44.13719" lon="0.62768">
        <ele>157</ele>
        <time>2025-08-10T07:41:49.696Z</time>
      </trkpt>
      <trkpt lat="44.1372" lon="0.62768">
        <ele>157</ele>
        <time>2025-08-10T07:41:50.696Z</time>
      </trkpt>
      <trkpt lat="44.13721" lon="0.62767">
        <ele>157</ele>
        <time>2025-08-10T07:41:51.696Z</time>
      </trkpt>
      <trkpt lat="44.13722" lon="0.62766">
        <ele>157</ele>
        <time>2025-08-10T07:41:52.696Z</time>
      </trkpt>
      <trkpt lat="44.13722" lon="0.62765">
        <ele>157</ele>
        <time>2025-08-10T07:41:53.696Z</time>
      </trkpt>
      <trkpt lat="44.13722" lon="0.62763">
        <ele>158</ele>
        <time>2025-08-10T07:41:54.697Z</time>
      </trkpt>
      <trkpt lat="44.13722" lon="0.62762">
        <ele>158</ele>
        <time>2025-08-10T07:41:55.696Z</time>
      </trkpt>
      <trkpt lat="44.13723" lon="0.62761">
        <ele>158</ele>
        <time>2025-08-10T07:41:56.696Z</time>
      </trkpt>
      <trkpt lat="44.13723" lon="0.6276">
        <ele>158</ele>
        <time>2025-08-10T07:41:57.696Z</time>
      </trkpt>
      <trkpt lat="44.13725" lon="0.62762">
        <ele>158</ele>
        <time>2025-08-10T07:41:58.696Z</time>
      </trkpt>
      <trkpt lat="44.13725" lon="0.62764">
        <ele>158</ele>
        <time>2025-08-10T07:41:59.696Z</time>
      </trkpt>
      <trkpt lat="44.13726" lon="0.62764">
        <ele>158</ele>
        <time>2025-08-10T07:42:00.696Z</time>
      </trkpt>
      <trkpt lat="44.13726" lon="0.62764">
        <ele>158</ele>
        <time>2025-08-10T07:42:01.696Z</time>
      </trkpt>
      <trkpt lat="44.13726" lon="0.62764">
        <ele>158</ele>
        <time>2025-08-10T07:42:02.696Z</time>
      </trkpt>
      <trkpt lat="44.13725" lon="0.62763">
        <ele>157</ele>
        <time>2025-08-10T07:42:03.696Z</time>
      </trkpt>
      <trkpt lat="44.13725" lon="0.62763">
        <ele>157</ele>
        <time>2025-08-10T07:42:04.696Z</time>
      </trkpt>
      <trkpt lat="44.13725" lon="0.62762">
        <ele>157</ele>
        <time>2025-08-10T07:42:05.696Z</time>
      </trkpt>
      <trkpt lat="44.13725" lon="0.6276">
        <ele>157</ele>
        <time>2025-08-10T07:42:06.696Z</time>
      </trkpt>
      <trkpt lat="44.13725" lon="0.62759">
        <ele>157</ele>
        <time>2025-08-10T07:42:07.696Z</time>
      </trkpt>
      <trkpt lat="44.13725" lon="0.62757">
        <ele>157</ele>
        <time>2025-08-10T07:42:08.696Z</time>
      </trkpt>
      <trkpt lat="44.13725" lon="0.62756">
        <ele>156</ele>
        <time>2025-08-10T07:42:09.696Z</time>
      </trkpt>
      <trkpt lat="44.13725" lon="0.62754">
        <ele>156</ele>
        <time>2025-08-10T07:42:10.696Z</time>
      </trkpt>
      <trkpt lat="44.13726" lon="0.62753">
        <ele>156</ele>
        <time>2025-08-10T07:42:11.696Z</time>
      </trkpt>
      <trkpt lat="44.13726" lon="0.62751">
        <ele>156</ele>
        <time>2025-08-10T07:42:12.696Z</time>
      </trkpt>
      <trkpt lat="44.13727" lon="0.6275">
        <ele>156</ele>
        <time>2025-08-10T07:42:13.696Z</time>
      </trkpt>
      <trkpt lat="44.13727" lon="0.62749">
        <ele>156</ele>
        <time>2025-08-10T07:42:14.696Z</time>
      </trkpt>
      <trkpt lat="44.13728" lon="0.62747">
        <ele>156</ele>
        <time>2025-08-10T07:42:15.696Z</time>
      </trkpt>
      <trkpt lat="44.13729" lon="0.62746">
        <ele>156</ele>
        <time>2025-08-10T07:42:16.696Z</time>
      </trkpt>
      <trkpt lat="44.13729" lon="0.62745">
        <ele>156</ele>
        <time>2025-08-10T07:42:17.696Z</time>
      </trkpt>
      <trkpt lat="44.13731" lon="0.62744">
        <ele>156</ele>
        <time>2025-08-10T07:42:18.696Z</time>
      </trkpt>
      <trkpt lat="44.13732" lon="0.62742">
        <ele>156</ele>
        <time>2025-08-10T07:42:19.696Z</time>
      </trkpt>
      <trkpt lat="44.13733" lon="0.62741">
        <ele>156</ele>
        <time>2025-08-10T07:42:20.696Z</time>
      </trkpt>
      <trkpt lat="44.13734" lon="0.62741">
        <ele>156</ele>
        <time>2025-08-10T07:42:21.696Z</time>
      </trkpt>
      <trkpt lat="44.13734" lon="0.62741">
        <ele>156</ele>
        <time>2025-08-10T07:42:22.696Z</time>
      </trkpt>
      <trkpt lat="44.13735" lon="0.62741">
        <ele>155</ele>
        <time>2025-08-10T07:42:23.696Z</time>
      </trkpt>
      <trkpt lat="44.13735" lon="0.62741">
        <ele>155</ele>
        <time>2025-08-10T07:42:24.696Z</time>
      </trkpt>
      <trkpt lat="44.13736" lon="0.6274">
        <ele>155</ele>
        <time>2025-08-10T07:42:25.696Z</time>
      </trkpt>
      <trkpt lat="44.13737" lon="0.62738">
        <ele>154</ele>
        <time>2025-08-10T07:42:26.696Z</time>
      </trkpt>
      <trkpt lat="44.13737" lon="0.62735">
        <ele>154</ele>
        <time>2025-08-10T07:42:27.696Z</time>
      </trkpt>
      <trkpt lat="44.13737" lon="0.62734">
        <ele>154</ele>
        <time>2025-08-10T07:42:28.696Z</time>
      </trkpt>
      <trkpt lat="44.13738" lon="0.62732">
        <ele>154</ele>
        <time>2025-08-10T07:42:29.696Z</time>
      </trkpt>
      <trkpt lat="44.13738" lon="0.62731">
        <ele>154</ele>
        <time>2025-08-10T07:42:30.696Z</time>
      </trkpt>
      <trkpt lat="44.13738" lon="0.62729">
        <ele>155</ele>
        <time>2025-08-10T07:42:31.696Z</time>
      </trkpt>
      <trkpt lat="44.13738" lon="0.62728">
        <ele>155</ele>
        <time>2025-08-10T07:42:32.696Z</time>
      </trkpt>
      <trkpt lat="44.13737" lon="0.62727">
        <ele>155</ele>
        <time>2025-08-10T07:42:33.696Z</time>
      </trkpt>
      <trkpt lat="44.13737" lon="0.62727">
        <ele>155</ele>
        <time>2025-08-10T07:42:34.696Z</time>
      </trkpt>
      <trkpt lat="44.13737" lon="0.62727">
        <ele>155</ele>
        <time>2025-08-10T07:42:35.696Z</time>
      </trkpt>
      <trkpt lat="44.13736" lon="0.62728">
        <ele>155</ele>
        <time>2025-08-10T07:42:36.696Z</time>
      </trkpt>
      <trkpt lat="44.13736" lon="0.62728">
        <ele>155</ele>
        <time>2025-08-10T07:42:37.696Z</time>
      </trkpt>
      <trkpt lat="44.13736" lon="0.62728">
        <ele>154</ele>
        <time>2025-08-10T07:42:38.696Z</time>
      </trkpt>
      <trkpt lat="44.13735" lon="0.62727">
        <ele>154</ele>
        <time>2025-08-10T07:42:39.696Z</time>
      </trkpt>
      <trkpt lat="44.13734" lon="0.62726">
        <ele>154</ele>
        <time>2025-08-10T07:42:40.696Z</time>
      </trkpt>
      <trkpt lat="44.13734" lon="0.62726">
        <ele>154</ele>
        <time>2025-08-10T07:42:41.696Z</time>
      </trkpt>
      <trkpt lat="44.13733" lon="0.62727">
        <ele>154</ele>
        <time>2025-08-10T07:42:42.696Z</time>
      </trkpt>
      <trkpt lat="44.13732" lon="0.62727">
        <ele>154</ele>
        <time>2025-08-10T07:42:43.696Z</time>
      </trkpt>
      <trkpt lat="44.13731" lon="0.62727">
        <ele>154</ele>
        <time>2025-08-10T07:42:44.696Z</time>
      </trkpt>
      <trkpt lat="44.1373" lon="0.62726">
        <ele>154</ele>
        <time>2025-08-10T07:42:45.696Z</time>
      </trkpt>
      <trkpt lat="44.13729" lon="0.62725">
        <ele>154</ele>
        <time>2025-08-10T07:42:46.696Z</time>
      </trkpt>
      <trkpt lat="44.13728" lon="0.62725">
        <ele>154</ele>
        <time>2025-08-10T07:42:47.696Z</time>
      </trkpt>
      <trkpt lat="44.13727" lon="0.62725">
        <ele>154</ele>
        <time>2025-08-10T07:42:48.696Z</time>
      </trkpt>
      <trkpt lat="44.13726" lon="0.62724">
        <ele>154</ele>
        <time>2025-08-10T07:42:49.696Z</time>
      </trkpt>
      <trkpt lat="44.13725" lon="0.62724">
        <ele>154</ele>
        <time>2025-08-10T07:42:50.696Z</time>
      </trkpt>
      <trkpt lat="44.13724" lon="0.62723">
        <ele>154</ele>
        <time>2025-08-10T07:42:51.696Z</time>
      </trkpt>
      <trkpt lat="44.13723" lon="0.62722">
        <ele>154</ele>
        <time>2025-08-10T07:42:52.696Z</time>
      </trkpt>
      <trkpt lat="44.13722" lon="0.62722">
        <ele>154</ele>
        <time>2025-08-10T07:42:53.696Z</time>
      </trkpt>
      <trkpt lat="44.13721" lon="0.62721">
        <ele>153</ele>
        <time>2025-08-10T07:42:54.696Z</time>
      </trkpt>
      <trkpt lat="44.1372" lon="0.6272">
        <ele>153</ele>
        <time>2025-08-10T07:42:55.696Z</time>
      </trkpt>
      <trkpt lat="44.13718" lon="0.6272">
        <ele>152</ele>
        <time>2025-08-10T07:42:56.696Z</time>
      </trkpt>
      <trkpt lat="44.13717" lon="0.6272">
        <ele>152</ele>
        <time>2025-08-10T07:42:57.696Z</time>
      </trkpt>
      <trkpt lat="44.13716" lon="0.62719">
        <ele>151</ele>
        <time>2025-08-10T07:42:58.696Z</time>
      </trkpt>
      <trkpt lat="44.13715" lon="0.62719">
        <ele>151</ele>
        <time>2025-08-10T07:42:59.696Z</time>
      </trkpt>
      <trkpt lat="44.13715" lon="0.62718">
        <ele>150</ele>
        <time>2025-08-10T07:43:00.696Z</time>
      </trkpt>
      <trkpt lat="44.13714" lon="0.62716">
        <ele>149</ele>
        <time>2025-08-10T07:43:01.696Z</time>
      </trkpt>
      <trkpt lat="44.13713" lon="0.62715">
        <ele>149</ele>
        <time>2025-08-10T07:43:02.696Z</time>
      </trkpt>
      <trkpt lat="44.13712" lon="0.62713">
        <ele>148</ele>
        <time>2025-08-10T07:43:03.696Z</time>
      </trkpt>
      <trkpt lat="44.13712" lon="0.62713">
        <ele>148</ele>
        <time>2025-08-10T07:43:04.696Z</time>
      </trkpt>
      <trkpt lat="44.13711" lon="0.62712">
        <ele>147</ele>
        <time>2025-08-10T07:43:05.696Z</time>
      </trkpt>
      <trkpt lat="44.13711" lon="0.6271">
        <ele>147</ele>
        <time>2025-08-10T07:43:06.696Z</time>
      </trkpt>
      <trkpt lat="44.13711" lon="0.62708">
        <ele>147</ele>
        <time>2025-08-10T07:43:07.696Z</time>
      </trkpt>
      <trkpt lat="44.1371" lon="0.62706">
        <ele>147</ele>
        <time>2025-08-10T07:43:08.696Z</time>
      </trkpt>
      <trkpt lat="44.1371" lon="0.62705">
        <ele>147</ele>
        <time>2025-08-10T07:43:09.696Z</time>
      </trkpt>
      <trkpt lat="44.13709" lon="0.62704">
        <ele>146</ele>
        <time>2025-08-10T07:43:10.696Z</time>
      </trkpt>
      <trkpt lat="44.13709" lon="0.62703">
        <ele>146</ele>
        <time>2025-08-10T07:43:11.696Z</time>
      </trkpt>
      <trkpt lat="44.13707" lon="0.62701">
        <ele>146</ele>
        <time>2025-08-10T07:43:12.696Z</time>
      </trkpt>
      <trkpt lat="44.13706" lon="0.62699">
        <ele>146</ele>
        <time>2025-08-10T07:43:13.696Z</time>
      </trkpt>
      <trkpt lat="44.13706" lon="0.62697">
        <ele>146</ele>
        <time>2025-08-10T07:43:14.696Z</time>
      </trkpt>
      <trkpt lat="44.13705" lon="0.62696">
        <ele>147</ele>
        <time>2025-08-10T07:43:15.696Z</time>
      </trkpt>
      <trkpt lat="44.13705" lon="0.62695">
        <ele>147</ele>
        <time>2025-08-10T07:43:16.696Z</time>
      </trkpt>
      <trkpt lat="44.13705" lon="0.62693">
        <ele>147</ele>
        <time>2025-08-10T07:43:17.696Z</time>
      </trkpt>
      <trkpt lat="44.13704" lon="0.62692">
        <ele>147</ele>
        <time>2025-08-10T07:43:18.696Z</time>
      </trkpt>
      <trkpt lat="44.13704" lon="0.62691">
        <ele>147</ele>
        <time>2025-08-10T07:43:19.696Z</time>
      </trkpt>
      <trkpt lat="44.13704" lon="0.62689">
        <ele>147</ele>
        <time>2025-08-10T07:43:20.696Z</time>
      </trkpt>
      <trkpt lat="44.13703" lon="0.62687">
        <ele>148</ele>
        <time>2025-08-10T07:43:21.696Z</time>
      </trkpt>
      <trkpt lat="44.13703" lon="0.62686">
        <ele>147</ele>
        <time>2025-08-10T07:43:22.696Z</time>
      </trkpt>
      <trkpt lat="44.13702" lon="0.62685">
        <ele>147</ele>
        <time>2025-08-10T07:43:23.696Z</time>
      </trkpt>
      <trkpt lat="44.13701" lon="0.62683">
        <ele>147</ele>
        <time>2025-08-10T07:43:24.696Z</time>
      </trkpt>
      <trkpt lat="44.13701" lon="0.62682">
        <ele>146</ele>
        <time>2025-08-10T07:43:25.696Z</time>
      </trkpt>
      <trkpt lat="44.137" lon="0.6268">
        <ele>146</ele>
        <time>2025-08-10T07:43:26.696Z</time>
      </trkpt>
      <trkpt lat="44.137" lon="0.62678">
        <ele>145</ele>
        <time>2025-08-10T07:43:27.696Z</time>
      </trkpt>
      <trkpt lat="44.13699" lon="0.62677">
        <ele>145</ele>
        <time>2025-08-10T07:43:28.696Z</time>
      </trkpt>
      <trkpt lat="44.13698" lon="0.62676">
        <ele>145</ele>
        <time>2025-08-10T07:43:29.696Z</time>
      </trkpt>
      <trkpt lat="44.13697" lon="0.62674">
        <ele>145</ele>
        <time>2025-08-10T07:43:30.696Z</time>
      </trkpt>
      <trkpt lat="44.13697" lon="0.62673">
        <ele>145</ele>
        <time>2025-08-10T07:43:31.696Z</time>
      </trkpt>
      <trkpt lat="44.13696" lon="0.62672">
        <ele>145</ele>
        <time>2025-08-10T07:43:32.696Z</time>
      </trkpt>
      <trkpt lat="44.13696" lon="0.62671">
        <ele>145</ele>
        <time>2025-08-10T07:43:33.696Z</time>
      </trkpt>
      <trkpt lat="44.13695" lon="0.6267">
        <ele>146</ele>
        <time>2025-08-10T07:43:34.696Z</time>
      </trkpt>
      <trkpt lat="44.13695" lon="0.62669">
        <ele>146</ele>
        <time>2025-08-10T07:43:35.696Z</time>
      </trkpt>
      <trkpt lat="44.13694" lon="0.62667">
        <ele>146</ele>
        <time>2025-08-10T07:43:36.696Z</time>
      </trkpt>
      <trkpt lat="44.13693" lon="0.62666">
        <ele>146</ele>
        <time>2025-08-10T07:43:37.696Z</time>
      </trkpt>
      <trkpt lat="44.13693" lon="0.62665">
        <ele>147</ele>
        <time>2025-08-10T07:43:38.696Z</time>
      </trkpt>
      <trkpt lat="44.13692" lon="0.62664">
        <ele>147</ele>
        <time>2025-08-10T07:43:39.696Z</time>
      </trkpt>
      <trkpt lat="44.13691" lon="0.62664">
        <ele>147</ele>
        <time>2025-08-10T07:43:40.696Z</time>
      </trkpt>
      <trkpt lat="44.13691" lon="0.62663">
        <ele>148</ele>
        <time>2025-08-10T07:43:41.696Z</time>
      </trkpt>
      <trkpt lat="44.1369" lon="0.62662">
        <ele>148</ele>
        <time>2025-08-10T07:43:42.696Z</time>
      </trkpt>
      <trkpt lat="44.13689" lon="0.6266">
        <ele>149</ele>
        <time>2025-08-10T07:43:43.696Z</time>
      </trkpt>
      <trkpt lat="44.13689" lon="0.62659">
        <ele>149</ele>
        <time>2025-08-10T07:43:44.696Z</time>
      </trkpt>
      <trkpt lat="44.13688" lon="0.62658">
        <ele>149</ele>
        <time>2025-08-10T07:43:45.696Z</time>
      </trkpt>
      <trkpt lat="44.13687" lon="0.62657">
        <ele>150</ele>
        <time>2025-08-10T07:43:46.696Z</time>
      </trkpt>
      <trkpt lat="44.13687" lon="0.62655">
        <ele>150</ele>
        <time>2025-08-10T07:43:47.696Z</time>
      </trkpt>
      <trkpt lat="44.13686" lon="0.62654">
        <ele>150</ele>
        <time>2025-08-10T07:43:48.696Z</time>
      </trkpt>
      <trkpt lat="44.13686" lon="0.62652">
        <ele>149</ele>
        <time>2025-08-10T07:43:49.696Z</time>
      </trkpt>
      <trkpt lat="44.13685" lon="0.62651">
        <ele>149</ele>
        <time>2025-08-10T07:43:50.696Z</time>
      </trkpt>
      <trkpt lat="44.13685" lon="0.6265">
        <ele>149</ele>
        <time>2025-08-10T07:43:51.696Z</time>
      </trkpt>
      <trkpt lat="44.13684" lon="0.62649">
        <ele>149</ele>
        <time>2025-08-10T07:43:52.696Z</time>
      </trkpt>
      <trkpt lat="44.13684" lon="0.62647">
        <ele>148</ele>
        <time>2025-08-10T07:43:53.696Z</time>
      </trkpt>
      <trkpt lat="44.13683" lon="0.62646">
        <ele>148</ele>
        <time>2025-08-10T07:43:54.696Z</time>
      </trkpt>
      <trkpt lat="44.13682" lon="0.62644">
        <ele>148</ele>
        <time>2025-08-10T07:43:55.696Z</time>
      </trkpt>
      <trkpt lat="44.13681" lon="0.62643">
        <ele>148</ele>
        <time>2025-08-10T07:43:56.696Z</time>
      </trkpt>
      <trkpt lat="44.13681" lon="0.62643">
        <ele>147</ele>
        <time>2025-08-10T07:43:57.696Z</time>
      </trkpt>
      <trkpt lat="44.1368" lon="0.62642">
        <ele>146</ele>
        <time>2025-08-10T07:43:58.696Z</time>
      </trkpt>
      <trkpt lat="44.13679" lon="0.6264">
        <ele>146</ele>
        <time>2025-08-10T07:43:59.696Z</time>
      </trkpt>
      <trkpt lat="44.13679" lon="0.62639">
        <ele>145</ele>
        <time>2025-08-10T07:44:00.696Z</time>
      </trkpt>
      <trkpt lat="44.13679" lon="0.62638">
        <ele>145</ele>
        <time>2025-08-10T07:44:01.696Z</time>
      </trkpt>
      <trkpt lat="44.13678" lon="0.62637">
        <ele>144</ele>
        <time>2025-08-10T07:44:02.696Z</time>
      </trkpt>
      <trkpt lat="44.13678" lon="0.62636">
        <ele>143</ele>
        <time>2025-08-10T07:44:03.696Z</time>
      </trkpt>
      <trkpt lat="44.13678" lon="0.62635">
        <ele>142</ele>
        <time>2025-08-10T07:44:04.696Z</time>
      </trkpt>
      <trkpt lat="44.13679" lon="0.62634">
        <ele>142</ele>
        <time>2025-08-10T07:44:05.696Z</time>
      </trkpt>
      <trkpt lat="44.13679" lon="0.62633">
        <ele>141</ele>
        <time>2025-08-10T07:44:06.696Z</time>
      </trkpt>
      <trkpt lat="44.13679" lon="0.62632">
        <ele>140</ele>
        <time>2025-08-10T07:44:07.696Z</time>
      </trkpt>
      <trkpt lat="44.13679" lon="0.62631">
        <ele>140</ele>
        <time>2025-08-10T07:44:08.696Z</time>
      </trkpt>
      <trkpt lat="44.13679" lon="0.6263">
        <ele>140</ele>
        <time>2025-08-10T07:44:09.696Z</time>
      </trkpt>
      <trkpt lat="44.13679" lon="0.62629">
        <ele>139</ele>
        <time>2025-08-10T07:44:10.696Z</time>
      </trkpt>
      <trkpt lat="44.13678" lon="0.62627">
        <ele>138</ele>
        <time>2025-08-10T07:44:11.696Z</time>
      </trkpt>
      <trkpt lat="44.13678" lon="0.62626">
        <ele>138</ele>
        <time>2025-08-10T07:44:12.696Z</time>
      </trkpt>
      <trkpt lat="44.13678" lon="0.62625">
        <ele>137</ele>
        <time>2025-08-10T07:44:13.696Z</time>
      </trkpt>
      <trkpt lat="44.13677" lon="0.62623">
        <ele>137</ele>
        <time>2025-08-10T07:44:14.696Z</time>
      </trkpt>
      <trkpt lat="44.13677" lon="0.62622">
        <ele>137</ele>
        <time>2025-08-10T07:44:15.696Z</time>
      </trkpt>
      <trkpt lat="44.13677" lon="0.62621">
        <ele>137</ele>
        <time>2025-08-10T07:44:16.696Z</time>
      </trkpt>
      <trkpt lat="44.13676" lon="0.62619">
        <ele>136</ele>
        <time>2025-08-10T07:44:17.696Z</time>
      </trkpt>
      <trkpt lat="44.13675" lon="0.62617">
        <ele>136</ele>
        <time>2025-08-10T07:44:18.696Z</time>
      </trkpt>
      <trkpt lat="44.13675" lon="0.62616">
        <ele>136</ele>
        <time>2025-08-10T07:44:19.696Z</time>
      </trkpt>
      <trkpt lat="44.13675" lon="0.62616">
        <ele>136</ele>
        <time>2025-08-10T07:44:20.696Z</time>
      </trkpt>
      <trkpt lat="44.13674" lon="0.62614">
        <ele>136</ele>
        <time>2025-08-10T07:44:21.696Z</time>
      </trkpt>
      <trkpt lat="44.13674" lon="0.62614">
        <ele>136</ele>
        <time>2025-08-10T07:44:22.696Z</time>
      </trkpt>
      <trkpt lat="44.13674" lon="0.62613">
        <ele>136</ele>
        <time>2025-08-10T07:44:23.696Z</time>
      </trkpt>
      <trkpt lat="44.13674" lon="0.62613">
        <ele>136</ele>
        <time>2025-08-10T07:44:24.696Z</time>
      </trkpt>
      <trkpt lat="44.13674" lon="0.62613">
        <ele>136</ele>
        <time>2025-08-10T07:44:25.696Z</time>
      </trkpt>
      <trkpt lat="44.13674" lon="0.62613">
        <ele>136</ele>
        <time>2025-08-10T07:44:26.696Z</time>
      </trkpt>
      <trkpt lat="44.13675" lon="0.62613">
        <ele>136</ele>
        <time>2025-08-10T07:44:27.696Z</time>
      </trkpt>
      <trkpt lat="44.13675" lon="0.62613">
        <ele>136</ele>
        <time>2025-08-10T07:44:28.696Z</time>
      </trkpt>
      <trkpt lat="44.13674" lon="0.62612">
        <ele>136</ele>
        <time>2025-08-10T07:44:29.696Z</time>
      </trkpt>
      <trkpt lat="44.13674" lon="0.62612">
        <ele>135</ele>
        <time>2025-08-10T07:44:30.696Z</time>
      </trkpt>
      <trkpt lat="44.13674" lon="0.62612">
        <ele>135</ele>
        <time>2025-08-10T07:44:31.696Z</time>
      </trkpt>
      <trkpt lat="44.13674" lon="0.62612">
        <ele>135</ele>
        <time>2025-08-10T07:44:32.696Z</time>
      </trkpt>
      <trkpt lat="44.13674" lon="0.62612">
        <ele>136</ele>
        <time>2025-08-10T07:44:33.696Z</time>
      </trkpt>
      <trkpt lat="44.13674" lon="0.62611">
        <ele>136</ele>
        <time>2025-08-10T07:44:34.696Z</time>
      </trkpt>
      <trkpt lat="44.13673" lon="0.62611">
        <ele>136</ele>
        <time>2025-08-10T07:44:35.696Z</time>
      </trkpt>
      <trkpt lat="44.13673" lon="0.6261">
        <ele>136</ele>
        <time>2025-08-10T07:44:36.696Z</time>
      </trkpt>
      <trkpt lat="44.13672" lon="0.6261">
        <ele>136</ele>
        <time>2025-08-10T07:44:37.696Z</time>
      </trkpt>
      <trkpt lat="44.13672" lon="0.6261">
        <ele>136</ele>
        <time>2025-08-10T07:44:38.696Z</time>
      </trkpt>
      <trkpt lat="44.13672" lon="0.62609">
        <ele>136</ele>
        <time>2025-08-10T07:44:39.696Z</time>
      </trkpt>
      <trkpt lat="44.13672" lon="0.62609">
        <ele>136</ele>
        <time>2025-08-10T07:44:40.696Z</time>
      </trkpt>
      <trkpt lat="44.13672" lon="0.62608">
        <ele>136</ele>
        <time>2025-08-10T07:44:41.696Z</time>
      </trkpt>
      <trkpt lat="44.13671" lon="0.62606">
        <ele>136</ele>
        <time>2025-08-10T07:44:42.696Z</time>
      </trkpt>
      <trkpt lat="44.13671" lon="0.62605">
        <ele>136</ele>
        <time>2025-08-10T07:44:43.696Z</time>
      </trkpt>
      <trkpt lat="44.1367" lon="0.62604">
        <ele>136</ele>
        <time>2025-08-10T07:44:44.696Z</time>
      </trkpt>
      <trkpt lat="44.1367" lon="0.62602">
        <ele>136</ele>
        <time>2025-08-10T07:44:45.696Z</time>
      </trkpt>
      <trkpt lat="44.13669" lon="0.626">
        <ele>136</ele>
        <time>2025-08-10T07:44:46.696Z</time>
      </trkpt>
      <trkpt lat="44.13668" lon="0.62599">
        <ele>136</ele>
        <time>2025-08-10T07:44:47.696Z</time>
      </trkpt>
      <trkpt lat="44.13667" lon="0.62596">
        <ele>136</ele>
        <time>2025-08-10T07:44:48.696Z</time>
      </trkpt>
      <trkpt lat="44.13667" lon="0.62595">
        <ele>135</ele>
        <time>2025-08-10T07:44:49.696Z</time>
      </trkpt>
      <trkpt lat="44.13666" lon="0.62593">
        <ele>135</ele>
        <time>2025-08-10T07:44:50.696Z</time>
      </trkpt>
      <trkpt lat="44.13666" lon="0.62592">
        <ele>135</ele>
        <time>2025-08-10T07:44:51.696Z</time>
      </trkpt>
      <trkpt lat="44.13665" lon="0.6259">
        <ele>135</ele>
        <time>2025-08-10T07:44:52.696Z</time>
      </trkpt>
      <trkpt lat="44.13664" lon="0.62588">
        <ele>135</ele>
        <time>2025-08-10T07:44:53.696Z</time>
      </trkpt>
      <trkpt lat="44.13663" lon="0.62587">
        <ele>135</ele>
        <time>2025-08-10T07:44:54.696Z</time>
      </trkpt>
      <trkpt lat="44.13663" lon="0.62586">
        <ele>135</ele>
        <time>2025-08-10T07:44:55.696Z</time>
      </trkpt>
      <trkpt lat="44.13662" lon="0.62586">
        <ele>135</ele>
        <time>2025-08-10T07:44:56.696Z</time>
      </trkpt>
      <trkpt lat="44.13662" lon="0.62585">
        <ele>135</ele>
        <time>2025-08-10T07:44:57.696Z</time>
      </trkpt>
      <trkpt lat="44.13661" lon="0.62584">
        <ele>135</ele>
        <time>2025-08-10T07:44:58.696Z</time>
      </trkpt>
      <trkpt lat="44.13661" lon="0.62582">
        <ele>135</ele>
        <time>2025-08-10T07:44:59.696Z</time>
      </trkpt>
      <trkpt lat="44.1366" lon="0.6258">
        <ele>134</ele>
        <time>2025-08-10T07:45:00.696Z</time>
      </trkpt>
      <trkpt lat="44.1366" lon="0.62578">
        <ele>134</ele>
        <time>2025-08-10T07:45:01.696Z</time>
      </trkpt>
      <trkpt lat="44.1366" lon="0.62576">
        <ele>134</ele>
        <time>2025-08-10T07:45:02.696Z</time>
      </trkpt>
      <trkpt lat="44.1366" lon="0.62575">
        <ele>133</ele>
        <time>2025-08-10T07:45:03.696Z</time>
      </trkpt>
      <trkpt lat="44.1366" lon="0.62573">
        <ele>133</ele>
        <time>2025-08-10T07:45:04.696Z</time>
      </trkpt>
      <trkpt lat="44.1366" lon="0.62572">
        <ele>133</ele>
        <time>2025-08-10T07:45:05.696Z</time>
      </trkpt>
      <trkpt lat="44.1366" lon="0.6257">
        <ele>133</ele>
        <time>2025-08-10T07:45:06.696Z</time>
      </trkpt>
      <trkpt lat="44.1366" lon="0.62568">
        <ele>133</ele>
        <time>2025-08-10T07:45:07.696Z</time>
      </trkpt>
      <trkpt lat="44.13659" lon="0.62566">
        <ele>133</ele>
        <time>2025-08-10T07:45:08.696Z</time>
      </trkpt>
      <trkpt lat="44.13659" lon="0.62564">
        <ele>133</ele>
        <time>2025-08-10T07:45:09.696Z</time>
      </trkpt>
      <trkpt lat="44.13659" lon="0.62562">
        <ele>133</ele>
        <time>2025-08-10T07:45:10.696Z</time>
      </trkpt>
      <trkpt lat="44.13658" lon="0.62561">
        <ele>134</ele>
        <time>2025-08-10T07:45:11.696Z</time>
      </trkpt>
      <trkpt lat="44.13658" lon="0.6256">
        <ele>134</ele>
        <time>2025-08-10T07:45:12.696Z</time>
      </trkpt>
      <trkpt lat="44.13658" lon="0.62558">
        <ele>134</ele>
        <time>2025-08-10T07:45:13.696Z</time>
      </trkpt>
      <trkpt lat="44.13658" lon="0.62557">
        <ele>134</ele>
        <time>2025-08-10T07:45:14.696Z</time>
      </trkpt>
      <trkpt lat="44.13658" lon="0.62555">
        <ele>134</ele>
        <time>2025-08-10T07:45:15.696Z</time>
      </trkpt>
      <trkpt lat="44.13658" lon="0.62552">
        <ele>134</ele>
        <time>2025-08-10T07:45:16.696Z</time>
      </trkpt>
      <trkpt lat="44.13659" lon="0.6255">
        <ele>134</ele>
        <time>2025-08-10T07:45:17.696Z</time>
      </trkpt>
      <trkpt lat="44.13659" lon="0.62548">
        <ele>133</ele>
        <time>2025-08-10T07:45:18.696Z</time>
      </trkpt>
      <trkpt lat="44.13659" lon="0.62546">
        <ele>132</ele>
        <time>2025-08-10T07:45:19.696Z</time>
      </trkpt>
      <trkpt lat="44.1366" lon="0.62545">
        <ele>132</ele>
        <time>2025-08-10T07:45:20.696Z</time>
      </trkpt>
      <trkpt lat="44.1366" lon="0.62543">
        <ele>132</ele>
        <time>2025-08-10T07:45:21.696Z</time>
      </trkpt>
      <trkpt lat="44.1366" lon="0.62541">
        <ele>131</ele>
        <time>2025-08-10T07:45:22.696Z</time>
      </trkpt>
      <trkpt lat="44.1366" lon="0.6254">
        <ele>131</ele>
        <time>2025-08-10T07:45:23.696Z</time>
      </trkpt>
      <trkpt lat="44.1366" lon="0.62538">
        <ele>131</ele>
        <time>2025-08-10T07:45:24.696Z</time>
      </trkpt>
      <trkpt lat="44.13661" lon="0.62537">
        <ele>130</ele>
        <time>2025-08-10T07:45:25.696Z</time>
      </trkpt>
      <trkpt lat="44.13661" lon="0.62536">
        <ele>130</ele>
        <time>2025-08-10T07:45:26.696Z</time>
      </trkpt>
      <trkpt lat="44.13661" lon="0.62534">
        <ele>129</ele>
        <time>2025-08-10T07:45:27.696Z</time>
      </trkpt>
      <trkpt lat="44.13662" lon="0.62533">
        <ele>129</ele>
        <time>2025-08-10T07:45:28.696Z</time>
      </trkpt>
      <trkpt lat="44.13662" lon="0.62532">
        <ele>128</ele>
        <time>2025-08-10T07:45:29.696Z</time>
      </trkpt>
      <trkpt lat="44.13663" lon="0.6253">
        <ele>127</ele>
        <time>2025-08-10T07:45:30.696Z</time>
      </trkpt>
      <trkpt lat="44.13664" lon="0.62529">
        <ele>127</ele>
        <time>2025-08-10T07:45:31.696Z</time>
      </trkpt>
      <trkpt lat="44.13664" lon="0.62527">
        <ele>127</ele>
        <time>2025-08-10T07:45:32.696Z</time>
      </trkpt>
      <trkpt lat="44.13664" lon="0.62526">
        <ele>126</ele>
        <time>2025-08-10T07:45:33.696Z</time>
      </trkpt>
      <trkpt lat="44.13664" lon="0.62525">
        <ele>126</ele>
        <time>2025-08-10T07:45:34.696Z</time>
      </trkpt>
      <trkpt lat="44.13664" lon="0.62524">
        <ele>126</ele>
        <time>2025-08-10T07:45:35.696Z</time>
      </trkpt>
      <trkpt lat="44.13665" lon="0.62523">
        <ele>125</ele>
        <time>2025-08-10T07:45:36.696Z</time>
      </trkpt>
      <trkpt lat="44.13665" lon="0.62522">
        <ele>125</ele>
        <time>2025-08-10T07:45:37.696Z</time>
      </trkpt>
      <trkpt lat="44.13665" lon="0.6252">
        <ele>125</ele>
        <time>2025-08-10T07:45:38.696Z</time>
      </trkpt>
      <trkpt lat="44.13666" lon="0.62519">
        <ele>124</ele>
        <time>2025-08-10T07:45:39.696Z</time>
      </trkpt>
      <trkpt lat="44.13666" lon="0.62518">
        <ele>124</ele>
        <time>2025-08-10T07:45:40.696Z</time>
      </trkpt>
      <trkpt lat="44.13667" lon="0.62517">
        <ele>124</ele>
        <time>2025-08-10T07:45:41.696Z</time>
      </trkpt>
      <trkpt lat="44.13667" lon="0.62515">
        <ele>124</ele>
        <time>2025-08-10T07:45:42.696Z</time>
      </trkpt>
      <trkpt lat="44.13668" lon="0.62513">
        <ele>124</ele>
        <time>2025-08-10T07:45:43.696Z</time>
      </trkpt>
      <trkpt lat="44.13668" lon="0.62512">
        <ele>124</ele>
        <time>2025-08-10T07:45:44.696Z</time>
      </trkpt>
      <trkpt lat="44.13668" lon="0.62511">
        <ele>124</ele>
        <time>2025-08-10T07:45:45.696Z</time>
      </trkpt>
      <trkpt lat="44.13669" lon="0.62509">
        <ele>124</ele>
        <time>2025-08-10T07:45:46.696Z</time>
      </trkpt>
      <trkpt lat="44.13669" lon="0.62508">
        <ele>125</ele>
        <time>2025-08-10T07:45:47.696Z</time>
      </trkpt>
      <trkpt lat="44.1367" lon="0.62507">
        <ele>125</ele>
        <time>2025-08-10T07:45:48.696Z</time>
      </trkpt>
      <trkpt lat="44.1367" lon="0.62505">
        <ele>125</ele>
        <time>2025-08-10T07:45:49.696Z</time>
      </trkpt>
      <trkpt lat="44.13671" lon="0.62503">
        <ele>125</ele>
        <time>2025-08-10T07:45:50.696Z</time>
      </trkpt>
      <trkpt lat="44.13672" lon="0.62502">
        <ele>125</ele>
        <time>2025-08-10T07:45:51.696Z</time>
      </trkpt>
      <trkpt lat="44.13672" lon="0.625">
        <ele>125</ele>
        <time>2025-08-10T07:45:52.696Z</time>
      </trkpt>
      <trkpt lat="44.13673" lon="0.62499">
        <ele>125</ele>
        <time>2025-08-10T07:45:53.696Z</time>
      </trkpt>
      <trkpt lat="44.13673" lon="0.62498">
        <ele>125</ele>
        <time>2025-08-10T07:45:54.696Z</time>
      </trkpt>
      <trkpt lat="44.13674" lon="0.62496">
        <ele>125</ele>
        <time>2025-08-10T07:45:55.696Z</time>
      </trkpt>
      <trkpt lat="44.13674" lon="0.62495">
        <ele>126</ele>
        <time>2025-08-10T07:45:56.696Z</time>
      </trkpt>
      <trkpt lat="44.13675" lon="0.62493">
        <ele>126</ele>
        <time>2025-08-10T07:45:57.696Z</time>
      </trkpt>
      <trkpt lat="44.13675" lon="0.62492">
        <ele>126</ele>
        <time>2025-08-10T07:45:58.696Z</time>
      </trkpt>
      <trkpt lat="44.13675" lon="0.62491">
        <ele>126</ele>
        <time>2025-08-10T07:45:59.696Z</time>
      </trkpt>
      <trkpt lat="44.13676" lon="0.62489">
        <ele>126</ele>
        <time>2025-08-10T07:46:00.696Z</time>
      </trkpt>
      <trkpt lat="44.13676" lon="0.62489">
        <ele>126</ele>
        <time>2025-08-10T07:46:01.696Z</time>
      </trkpt>
      <trkpt lat="44.13677" lon="0.62489">
        <ele>126</ele>
        <time>2025-08-10T07:46:02.696Z</time>
      </trkpt>
      <trkpt lat="44.13677" lon="0.62488">
        <ele>126</ele>
        <time>2025-08-10T07:46:03.696Z</time>
      </trkpt>
      <trkpt lat="44.13677" lon="0.62487">
        <ele>125</ele>
        <time>2025-08-10T07:46:04.696Z</time>
      </trkpt>
      <trkpt lat="44.13678" lon="0.62486">
        <ele>125</ele>
        <time>2025-08-10T07:46:05.696Z</time>
      </trkpt>
      <trkpt lat="44.13678" lon="0.62485">
        <ele>126</ele>
        <time>2025-08-10T07:46:06.696Z</time>
      </trkpt>
      <trkpt lat="44.13678" lon="0.62483">
        <ele>126</ele>
        <time>2025-08-10T07:46:07.696Z</time>
      </trkpt>
      <trkpt lat="44.13678" lon="0.62481">
        <ele>126</ele>
        <time>2025-08-10T07:46:08.696Z</time>
      </trkpt>
      <trkpt lat="44.13679" lon="0.62479">
        <ele>126</ele>
        <time>2025-08-10T07:46:09.696Z</time>
      </trkpt>
      <trkpt lat="44.13679" lon="0.62478">
        <ele>126</ele>
        <time>2025-08-10T07:46:10.696Z</time>
      </trkpt>
      <trkpt lat="44.13679" lon="0.62477">
        <ele>126</ele>
        <time>2025-08-10T07:46:11.696Z</time>
      </trkpt>
      <trkpt lat="44.13679" lon="0.62476">
        <ele>126</ele>
        <time>2025-08-10T07:46:12.696Z</time>
      </trkpt>
      <trkpt lat="44.1368" lon="0.62474">
        <ele>126</ele>
        <time>2025-08-10T07:46:13.696Z</time>
      </trkpt>
      <trkpt lat="44.1368" lon="0.62474">
        <ele>126</ele>
        <time>2025-08-10T07:46:14.696Z</time>
      </trkpt>
      <trkpt lat="44.13681" lon="0.62473">
        <ele>126</ele>
        <time>2025-08-10T07:46:15.696Z</time>
      </trkpt>
      <trkpt lat="44.13681" lon="0.62471">
        <ele>126</ele>
        <time>2025-08-10T07:46:16.696Z</time>
      </trkpt>
      <trkpt lat="44.13682" lon="0.6247">
        <ele>126</ele>
        <time>2025-08-10T07:46:17.696Z</time>
      </trkpt>
      <trkpt lat="44.13682" lon="0.62469">
        <ele>126</ele>
        <time>2025-08-10T07:46:18.696Z</time>
      </trkpt>
      <trkpt lat="44.13683" lon="0.62467">
        <ele>126</ele>
        <time>2025-08-10T07:46:19.696Z</time>
      </trkpt>
      <trkpt lat="44.13683" lon="0.62466">
        <ele>126</ele>
        <time>2025-08-10T07:46:20.696Z</time>
      </trkpt>
      <trkpt lat="44.13683" lon="0.62465">
        <ele>126</ele>
        <time>2025-08-10T07:46:21.696Z</time>
      </trkpt>
      <trkpt lat="44.13684" lon="0.62464">
        <ele>126</ele>
        <time>2025-08-10T07:46:22.696Z</time>
      </trkpt>
      <trkpt lat="44.13684" lon="0.62463">
        <ele>126</ele>
        <time>2025-08-10T07:46:23.696Z</time>
      </trkpt>
      <trkpt lat="44.13684" lon="0.62462">
        <ele>126</ele>
        <time>2025-08-10T07:46:24.696Z</time>
      </trkpt>
      <trkpt lat="44.13685" lon="0.62461">
        <ele>125</ele>
        <time>2025-08-10T07:46:25.696Z</time>
      </trkpt>
      <trkpt lat="44.13685" lon="0.62459">
        <ele>125</ele>
        <time>2025-08-10T07:46:26.696Z</time>
      </trkpt>
      <trkpt lat="44.13686" lon="0.62458">
        <ele>125</ele>
        <time>2025-08-10T07:46:27.696Z</time>
      </trkpt>
      <trkpt lat="44.13686" lon="0.62456">
        <ele>124</ele>
        <time>2025-08-10T07:46:28.696Z</time>
      </trkpt>
      <trkpt lat="44.13687" lon="0.62455">
        <ele>124</ele>
        <time>2025-08-10T07:46:29.696Z</time>
      </trkpt>
      <trkpt lat="44.13687" lon="0.62453">
        <ele>124</ele>
        <time>2025-08-10T07:46:30.696Z</time>
      </trkpt>
      <trkpt lat="44.13688" lon="0.62452">
        <ele>124</ele>
        <time>2025-08-10T07:46:31.696Z</time>
      </trkpt>
      <trkpt lat="44.13688" lon="0.62451">
        <ele>124</ele>
        <time>2025-08-10T07:46:32.696Z</time>
      </trkpt>
      <trkpt lat="44.13689" lon="0.6245">
        <ele>124</ele>
        <time>2025-08-10T07:46:33.696Z</time>
      </trkpt>
      <trkpt lat="44.1369" lon="0.62449">
        <ele>124</ele>
        <time>2025-08-10T07:46:34.696Z</time>
      </trkpt>
      <trkpt lat="44.1369" lon="0.62447">
        <ele>123</ele>
        <time>2025-08-10T07:46:35.696Z</time>
      </trkpt>
      <trkpt lat="44.1369" lon="0.62446">
        <ele>123</ele>
        <time>2025-08-10T07:46:36.696Z</time>
      </trkpt>
      <trkpt lat="44.13691" lon="0.62444">
        <ele>123</ele>
        <time>2025-08-10T07:46:37.696Z</time>
      </trkpt>
      <trkpt lat="44.13692" lon="0.62443">
        <ele>123</ele>
        <time>2025-08-10T07:46:38.696Z</time>
      </trkpt>
      <trkpt lat="44.13692" lon="0.62442">
        <ele>122</ele>
        <time>2025-08-10T07:46:39.696Z</time>
      </trkpt>
      <trkpt lat="44.13692" lon="0.62441">
        <ele>122</ele>
        <time>2025-08-10T07:46:40.696Z</time>
      </trkpt>
      <trkpt lat="44.13692" lon="0.62439">
        <ele>122</ele>
        <time>2025-08-10T07:46:41.696Z</time>
      </trkpt>
      <trkpt lat="44.13693" lon="0.62438">
        <ele>122</ele>
        <time>2025-08-10T07:46:42.696Z</time>
      </trkpt>
      <trkpt lat="44.13693" lon="0.62437">
        <ele>122</ele>
        <time>2025-08-10T07:46:43.696Z</time>
      </trkpt>
      <trkpt lat="44.13693" lon="0.62435">
        <ele>122</ele>
        <time>2025-08-10T07:46:44.696Z</time>
      </trkpt>
      <trkpt lat="44.13693" lon="0.62434">
        <ele>121</ele>
        <time>2025-08-10T07:46:45.696Z</time>
      </trkpt>
      <trkpt lat="44.13694" lon="0.62432">
        <ele>121</ele>
        <time>2025-08-10T07:46:46.696Z</time>
      </trkpt>
      <trkpt lat="44.13694" lon="0.62431">
        <ele>121</ele>
        <time>2025-08-10T07:46:47.696Z</time>
      </trkpt>
      <trkpt lat="44.13694" lon="0.6243">
        <ele>121</ele>
        <time>2025-08-10T07:46:48.696Z</time>
      </trkpt>
      <trkpt lat="44.13695" lon="0.62428">
        <ele>121</ele>
        <time>2025-08-10T07:46:49.696Z</time>
      </trkpt>
      <trkpt lat="44.13695" lon="0.62427">
        <ele>121</ele>
        <time>2025-08-10T07:46:50.696Z</time>
      </trkpt>
      <trkpt lat="44.13695" lon="0.62425">
        <ele>120</ele>
        <time>2025-08-10T07:46:51.696Z</time>
      </trkpt>
      <trkpt lat="44.13695" lon="0.62424">
        <ele>120</ele>
        <time>2025-08-10T07:46:52.696Z</time>
      </trkpt>
      <trkpt lat="44.13696" lon="0.62423">
        <ele>120</ele>
        <time>2025-08-10T07:46:53.696Z</time>
      </trkpt>
      <trkpt lat="44.13696" lon="0.62421">
        <ele>120</ele>
        <time>2025-08-10T07:46:54.696Z</time>
      </trkpt>
      <trkpt lat="44.13697" lon="0.6242">
        <ele>120</ele>
        <time>2025-08-10T07:46:55.696Z</time>
      </trkpt>
      <trkpt lat="44.13697" lon="0.62419">
        <ele>121</ele>
        <time>2025-08-10T07:46:56.696Z</time>
      </trkpt>
      <trkpt lat="44.13698" lon="0.62417">
        <ele>120</ele>
        <time>2025-08-10T07:46:57.696Z</time>
      </trkpt>
      <trkpt lat="44.13698" lon="0.62416">
        <ele>120</ele>
        <time>2025-08-10T07:46:58.696Z</time>
      </trkpt>
      <trkpt lat="44.13699" lon="0.62415">
        <ele>120</ele>
        <time>2025-08-10T07:46:59.696Z</time>
      </trkpt>
      <trkpt lat="44.13699" lon="0.62414">
        <ele>120</ele>
        <time>2025-08-10T07:47:00.696Z</time>
      </trkpt>
      <trkpt lat="44.137" lon="0.62413">
        <ele>120</ele>
        <time>2025-08-10T07:47:01.696Z</time>
      </trkpt>
      <trkpt lat="44.137" lon="0.62412">
        <ele>120</ele>
        <time>2025-08-10T07:47:02.696Z</time>
      </trkpt>
      <trkpt lat="44.137" lon="0.62412">
        <ele>119</ele>
        <time>2025-08-10T07:47:03.696Z</time>
      </trkpt>
      <trkpt lat="44.137" lon="0.6241">
        <ele>119</ele>
        <time>2025-08-10T07:47:04.696Z</time>
      </trkpt>
      <trkpt lat="44.137" lon="0.62409">
        <ele>118</ele>
        <time>2025-08-10T07:47:05.696Z</time>
      </trkpt>
      <trkpt lat="44.13701" lon="0.62408">
        <ele>118</ele>
        <time>2025-08-10T07:47:06.696Z</time>
      </trkpt>
      <trkpt lat="44.13701" lon="0.62407">
        <ele>117</ele>
        <time>2025-08-10T07:47:07.696Z</time>
      </trkpt>
      <trkpt lat="44.13701" lon="0.62406">
        <ele>117</ele>
        <time>2025-08-10T07:47:08.696Z</time>
      </trkpt>
      <trkpt lat="44.13702" lon="0.62405">
        <ele>117</ele>
        <time>2025-08-10T07:47:09.696Z</time>
      </trkpt>
      <trkpt lat="44.13702" lon="0.62405">
        <ele>117</ele>
        <time>2025-08-10T07:47:10.696Z</time>
      </trkpt>
      <trkpt lat="44.13702" lon="0.62405">
        <ele>116</ele>
        <time>2025-08-10T07:47:11.696Z</time>
      </trkpt>
      <trkpt lat="44.13702" lon="0.62405">
        <ele>116</ele>
        <time>2025-08-10T07:47:12.697Z</time>
      </trkpt>
      <trkpt lat="44.13703" lon="0.62404">
        <ele>116</ele>
        <time>2025-08-10T07:47:13.696Z</time>
      </trkpt>
      <trkpt lat="44.13703" lon="0.62403">
        <ele>116</ele>
        <time>2025-08-10T07:47:14.696Z</time>
      </trkpt>
      <trkpt lat="44.13704" lon="0.62402">
        <ele>116</ele>
        <time>2025-08-10T07:47:15.696Z</time>
      </trkpt>
      <trkpt lat="44.13704" lon="0.62401">
        <ele>116</ele>
        <time>2025-08-10T07:47:16.696Z</time>
      </trkpt>
      <trkpt lat="44.13704" lon="0.62401">
        <ele>116</ele>
        <time>2025-08-10T07:47:17.696Z</time>
      </trkpt>
      <trkpt lat="44.13705" lon="0.624">
        <ele>116</ele>
        <time>2025-08-10T07:47:18.696Z</time>
      </trkpt>
      <trkpt lat="44.13705" lon="0.62398">
        <ele>115</ele>
        <time>2025-08-10T07:47:19.696Z</time>
      </trkpt>
      <trkpt lat="44.13705" lon="0.62397">
        <ele>115</ele>
        <time>2025-08-10T07:47:20.696Z</time>
      </trkpt>
      <trkpt lat="44.13706" lon="0.62396">
        <ele>115</ele>
        <time>2025-08-10T07:47:21.696Z</time>
      </trkpt>
      <trkpt lat="44.13706" lon="0.62394">
        <ele>115</ele>
        <time>2025-08-10T07:47:22.696Z</time>
      </trkpt>
      <trkpt lat="44.13706" lon="0.62393">
        <ele>115</ele>
        <time>2025-08-10T07:47:23.696Z</time>
      </trkpt>
      <trkpt lat="44.13706" lon="0.62391">
        <ele>115</ele>
        <time>2025-08-10T07:47:24.696Z</time>
      </trkpt>
      <trkpt lat="44.13707" lon="0.6239">
        <ele>115</ele>
        <time>2025-08-10T07:47:25.696Z</time>
      </trkpt>
      <trkpt lat="44.13706" lon="0.62388">
        <ele>115</ele>
        <time>2025-08-10T07:47:26.696Z</time>
      </trkpt>
      <trkpt lat="44.13706" lon="0.62387">
        <ele>115</ele>
        <time>2025-08-10T07:47:27.696Z</time>
      </trkpt>
      <trkpt lat="44.13706" lon="0.62386">
        <ele>115</ele>
        <time>2025-08-10T07:47:28.696Z</time>
      </trkpt>
      <trkpt lat="44.13705" lon="0.62385">
        <ele>115</ele>
        <time>2025-08-10T07:47:29.696Z</time>
      </trkpt>
      <trkpt lat="44.13705" lon="0.62383">
        <ele>115</ele>
        <time>2025-08-10T07:47:30.696Z</time>
      </trkpt>
      <trkpt lat="44.13705" lon="0.62382">
        <ele>114</ele>
        <time>2025-08-10T07:47:31.696Z</time>
      </trkpt>
      <trkpt lat="44.13705" lon="0.62381">
        <ele>114</ele>
        <time>2025-08-10T07:47:32.696Z</time>
      </trkpt>
      <trkpt lat="44.13704" lon="0.6238">
        <ele>114</ele>
        <time>2025-08-10T07:47:33.696Z</time>
      </trkpt>
      <trkpt lat="44.13704" lon="0.62379">
        <ele>113</ele>
        <time>2025-08-10T07:47:34.697Z</time>
      </trkpt>
      <trkpt lat="44.13704" lon="0.62377">
        <ele>113</ele>
        <time>2025-08-10T07:47:35.696Z</time>
      </trkpt>
      <trkpt lat="44.13704" lon="0.62375">
        <ele>112</ele>
        <time>2025-08-10T07:47:36.696Z</time>
      </trkpt>
      <trkpt lat="44.13703" lon="0.62373">
        <ele>112</ele>
        <time>2025-08-10T07:47:37.696Z</time>
      </trkpt>
      <trkpt lat="44.13702" lon="0.62372">
        <ele>112</ele>
        <time>2025-08-10T07:47:38.696Z</time>
      </trkpt>
      <trkpt lat="44.13701" lon="0.6237">
        <ele>112</ele>
        <time>2025-08-10T07:47:39.696Z</time>
      </trkpt>
      <trkpt lat="44.137" lon="0.62369">
        <ele>112</ele>
        <time>2025-08-10T07:47:40.696Z</time>
      </trkpt>
      <trkpt lat="44.137" lon="0.62368">
        <ele>112</ele>
        <time>2025-08-10T07:47:41.696Z</time>
      </trkpt>
      <trkpt lat="44.13699" lon="0.62366">
        <ele>112</ele>
        <time>2025-08-10T07:47:42.696Z</time>
      </trkpt>
      <trkpt lat="44.13699" lon="0.62365">
        <ele>112</ele>
        <time>2025-08-10T07:47:43.696Z</time>
      </trkpt>
      <trkpt lat="44.13698" lon="0.62364">
        <ele>112</ele>
        <time>2025-08-10T07:47:44.696Z</time>
      </trkpt>
      <trkpt lat="44.13698" lon="0.62363">
        <ele>112</ele>
        <time>2025-08-10T07:47:45.696Z</time>
      </trkpt>
      <trkpt lat="44.13698" lon="0.62362">
        <ele>112</ele>
        <time>2025-08-10T07:47:46.696Z</time>
      </trkpt>
      <trkpt lat="44.13697" lon="0.6236">
        <ele>112</ele>
        <time>2025-08-10T07:47:47.696Z</time>
      </trkpt>
      <trkpt lat="44.13697" lon="0.62359">
        <ele>112</ele>
        <time>2025-08-10T07:47:48.696Z</time>
      </trkpt>
      <trkpt lat="44.13697" lon="0.62357">
        <ele>111</ele>
        <time>2025-08-10T07:47:49.696Z</time>
      </trkpt>
      <trkpt lat="44.13697" lon="0.62356">
        <ele>111</ele>
        <time>2025-08-10T07:47:50.696Z</time>
      </trkpt>
      <trkpt lat="44.13696" lon="0.62355">
        <ele>111</ele>
        <time>2025-08-10T07:47:51.696Z</time>
      </trkpt>
      <trkpt lat="44.13695" lon="0.62354">
        <ele>111</ele>
        <time>2025-08-10T07:47:52.696Z</time>
      </trkpt>
      <trkpt lat="44.13695" lon="0.62353">
        <ele>110</ele>
        <time>2025-08-10T07:47:53.696Z</time>
      </trkpt>
      <trkpt lat="44.13694" lon="0.62352">
        <ele>110</ele>
        <time>2025-08-10T07:47:54.696Z</time>
      </trkpt>
      <trkpt lat="44.13694" lon="0.62351">
        <ele>110</ele>
        <time>2025-08-10T07:47:55.696Z</time>
      </trkpt>
      <trkpt lat="44.13693" lon="0.6235">
        <ele>110</ele>
        <time>2025-08-10T07:47:56.696Z</time>
      </trkpt>
      <trkpt lat="44.13693" lon="0.62349">
        <ele>110</ele>
        <time>2025-08-10T07:47:57.696Z</time>
      </trkpt>
      <trkpt lat="44.13693" lon="0.62348">
        <ele>110</ele>
        <time>2025-08-10T07:47:58.696Z</time>
      </trkpt>
      <trkpt lat="44.13692" lon="0.62347">
        <ele>109</ele>
        <time>2025-08-10T07:47:59.696Z</time>
      </trkpt>
      <trkpt lat="44.13691" lon="0.62346">
        <ele>109</ele>
        <time>2025-08-10T07:48:00.696Z</time>
      </trkpt>
      <trkpt lat="44.13691" lon="0.62345">
        <ele>109</ele>
        <time>2025-08-10T07:48:01.696Z</time>
      </trkpt>
      <trkpt lat="44.1369" lon="0.62344">
        <ele>109</ele>
        <time>2025-08-10T07:48:02.696Z</time>
      </trkpt>
      <trkpt lat="44.13689" lon="0.62344">
        <ele>109</ele>
        <time>2025-08-10T07:48:03.696Z</time>
      </trkpt>
      <trkpt lat="44.13688" lon="0.62343">
        <ele>109</ele>
        <time>2025-08-10T07:48:04.696Z</time>
      </trkpt>
      <trkpt lat="44.13688" lon="0.62342">
        <ele>109</ele>
        <time>2025-08-10T07:48:05.696Z</time>
      </trkpt>
      <trkpt lat="44.13687" lon="0.62342">
        <ele>108</ele>
        <time>2025-08-10T07:48:06.696Z</time>
      </trkpt>
      <trkpt lat="44.13687" lon="0.62341">
        <ele>108</ele>
        <time>2025-08-10T07:48:07.696Z</time>
      </trkpt>
      <trkpt lat="44.13686" lon="0.6234">
        <ele>108</ele>
        <time>2025-08-10T07:48:08.696Z</time>
      </trkpt>
      <trkpt lat="44.13685" lon="0.62339">
        <ele>109</ele>
        <time>2025-08-10T07:48:09.696Z</time>
      </trkpt>
      <trkpt lat="44.13684" lon="0.62338">
        <ele>109</ele>
        <time>2025-08-10T07:48:10.696Z</time>
      </trkpt>
      <trkpt lat="44.13683" lon="0.62338">
        <ele>109</ele>
        <time>2025-08-10T07:48:11.696Z</time>
      </trkpt>
      <trkpt lat="44.13682" lon="0.62337">
        <ele>109</ele>
        <time>2025-08-10T07:48:12.696Z</time>
      </trkpt>
      <trkpt lat="44.13681" lon="0.62336">
        <ele>108</ele>
        <time>2025-08-10T07:48:13.696Z</time>
      </trkpt>
      <trkpt lat="44.1368" lon="0.62335">
        <ele>108</ele>
        <time>2025-08-10T07:48:14.696Z</time>
      </trkpt>
      <trkpt lat="44.1368" lon="0.62335">
        <ele>108</ele>
        <time>2025-08-10T07:48:15.696Z</time>
      </trkpt>
      <trkpt lat="44.13679" lon="0.62334">
        <ele>108</ele>
        <time>2025-08-10T07:48:16.696Z</time>
      </trkpt>
      <trkpt lat="44.13678" lon="0.62334">
        <ele>108</ele>
        <time>2025-08-10T07:48:17.696Z</time>
      </trkpt>
      <trkpt lat="44.13677" lon="0.62333">
        <ele>108</ele>
        <time>2025-08-10T07:48:18.696Z</time>
      </trkpt>
      <trkpt lat="44.13677" lon="0.62332">
        <ele>108</ele>
        <time>2025-08-10T07:48:19.696Z</time>
      </trkpt>
      <trkpt lat="44.13676" lon="0.62332">
        <ele>108</ele>
        <time>2025-08-10T07:48:20.696Z</time>
      </trkpt>
      <trkpt lat="44.13675" lon="0.62331">
        <ele>108</ele>
        <time>2025-08-10T07:48:21.696Z</time>
      </trkpt>
      <trkpt lat="44.13675" lon="0.6233">
        <ele>108</ele>
        <time>2025-08-10T07:48:22.696Z</time>
      </trkpt>
      <trkpt lat="44.13675" lon="0.6233">
        <ele>108</ele>
        <time>2025-08-10T07:48:23.696Z</time>
      </trkpt>
      <trkpt lat="44.13675" lon="0.6233">
        <ele>108</ele>
        <time>2025-08-10T07:48:24.696Z</time>
      </trkpt>
      <trkpt lat="44.13675" lon="0.62329">
        <ele>108</ele>
        <time>2025-08-10T07:48:25.696Z</time>
      </trkpt>
      <trkpt lat="44.13674" lon="0.62329">
        <ele>108</ele>
        <time>2025-08-10T07:48:26.696Z</time>
      </trkpt>
      <trkpt lat="44.13674" lon="0.62328">
        <ele>108</ele>
        <time>2025-08-10T07:48:27.696Z</time>
      </trkpt>
      <trkpt lat="44.13673" lon="0.62327">
        <ele>108</ele>
        <time>2025-08-10T07:48:28.696Z</time>
      </trkpt>
      <trkpt lat="44.13673" lon="0.62326">
        <ele>108</ele>
        <time>2025-08-10T07:48:29.696Z</time>
      </trkpt>
      <trkpt lat="44.13672" lon="0.62325">
        <ele>108</ele>
        <time>2025-08-10T07:48:30.696Z</time>
      </trkpt>
      <trkpt lat="44.13671" lon="0.62324">
        <ele>108</ele>
        <time>2025-08-10T07:48:31.696Z</time>
      </trkpt>
      <trkpt lat="44.1367" lon="0.62323">
        <ele>107</ele>
        <time>2025-08-10T07:48:32.696Z</time>
      </trkpt>
      <trkpt lat="44.1367" lon="0.62322">
        <ele>107</ele>
        <time>2025-08-10T07:48:33.696Z</time>
      </trkpt>
      <trkpt lat="44.13669" lon="0.62322">
        <ele>107</ele>
        <time>2025-08-10T07:48:34.696Z</time>
      </trkpt>
      <trkpt lat="44.13668" lon="0.6232">
        <ele>107</ele>
        <time>2025-08-10T07:48:35.696Z</time>
      </trkpt>
      <trkpt lat="44.13667" lon="0.6232">
        <ele>106</ele>
        <time>2025-08-10T07:48:36.696Z</time>
      </trkpt>
      <trkpt lat="44.13666" lon="0.62319">
        <ele>106</ele>
        <time>2025-08-10T07:48:37.696Z</time>
      </trkpt>
      <trkpt lat="44.13665" lon="0.62318">
        <ele>106</ele>
        <time>2025-08-10T07:48:38.696Z</time>
      </trkpt>
      <trkpt lat="44.13664" lon="0.62318">
        <ele>106</ele>
        <time>2025-08-10T07:48:39.696Z</time>
      </trkpt>
      <trkpt lat="44.13663" lon="0.62317">
        <ele>105</ele>
        <time>2025-08-10T07:48:40.696Z</time>
      </trkpt>
      <trkpt lat="44.13662" lon="0.62315">
        <ele>105</ele>
        <time>2025-08-10T07:48:41.696Z</time>
      </trkpt>
      <trkpt lat="44.13661" lon="0.62314">
        <ele>105</ele>
        <time>2025-08-10T07:48:42.696Z</time>
      </trkpt>
      <trkpt lat="44.13661" lon="0.62312">
        <ele>104</ele>
        <time>2025-08-10T07:48:43.696Z</time>
      </trkpt>
      <trkpt lat="44.1366" lon="0.62312">
        <ele>104</ele>
        <time>2025-08-10T07:48:44.696Z</time>
      </trkpt>
      <trkpt lat="44.13659" lon="0.62311">
        <ele>104</ele>
        <time>2025-08-10T07:48:45.696Z</time>
      </trkpt>
      <trkpt lat="44.13658" lon="0.62311">
        <ele>104</ele>
        <time>2025-08-10T07:48:46.696Z</time>
      </trkpt>
      <trkpt lat="44.13657" lon="0.6231">
        <ele>104</ele>
        <time>2025-08-10T07:48:47.696Z</time>
      </trkpt>
      <trkpt lat="44.13656" lon="0.62309">
        <ele>104</ele>
        <time>2025-08-10T07:48:48.696Z</time>
      </trkpt>
      <trkpt lat="44.13655" lon="0.62308">
        <ele>104</ele>
        <time>2025-08-10T07:48:49.696Z</time>
      </trkpt>
      <trkpt lat="44.13654" lon="0.62307">
        <ele>104</ele>
        <time>2025-08-10T07:48:50.696Z</time>
      </trkpt>
      <trkpt lat="44.13653" lon="0.62306">
        <ele>104</ele>
        <time>2025-08-10T07:48:51.696Z</time>
      </trkpt>
      <trkpt lat="44.13652" lon="0.62305">
        <ele>104</ele>
        <time>2025-08-10T07:48:52.696Z</time>
      </trkpt>
      <trkpt lat="44.13651" lon="0.62304">
        <ele>104</ele>
        <time>2025-08-10T07:48:53.696Z</time>
      </trkpt>
      <trkpt lat="44.1365" lon="0.62302">
        <ele>104</ele>
        <time>2025-08-10T07:48:54.696Z</time>
      </trkpt>
      <trkpt lat="44.13649" lon="0.62301">
        <ele>104</ele>
        <time>2025-08-10T07:48:55.696Z</time>
      </trkpt>
      <trkpt lat="44.13648" lon="0.62301">
        <ele>104</ele>
        <time>2025-08-10T07:48:56.696Z</time>
      </trkpt>
      <trkpt lat="44.13647" lon="0.623">
        <ele>104</ele>
        <time>2025-08-10T07:48:57.696Z</time>
      </trkpt>
      <trkpt lat="44.13646" lon="0.623">
        <ele>104</ele>
        <time>2025-08-10T07:48:58.696Z</time>
      </trkpt>
      <trkpt lat="44.13645" lon="0.62299">
        <ele>104</ele>
        <time>2025-08-10T07:48:59.696Z</time>
      </trkpt>
      <trkpt lat="44.13644" lon="0.62298">
        <ele>105</ele>
        <time>2025-08-10T07:49:00.696Z</time>
      </trkpt>
      <trkpt lat="44.13644" lon="0.62298">
        <ele>105</ele>
        <time>2025-08-10T07:49:01.696Z</time>
      </trkpt>
      <trkpt lat="44.13643" lon="0.62297">
        <ele>105</ele>
        <time>2025-08-10T07:49:02.696Z</time>
      </trkpt>
      <trkpt lat="44.13643" lon="0.62297">
        <ele>105</ele>
        <time>2025-08-10T07:49:03.696Z</time>
      </trkpt>
      <trkpt lat="44.13642" lon="0.62296">
        <ele>105</ele>
        <time>2025-08-10T07:49:04.696Z</time>
      </trkpt>
      <trkpt lat="44.13641" lon="0.62296">
        <ele>105</ele>
        <time>2025-08-10T07:49:05.696Z</time>
      </trkpt>
      <trkpt lat="44.1364" lon="0.62296">
        <ele>105</ele>
        <time>2025-08-10T07:49:06.696Z</time>
      </trkpt>
      <trkpt lat="44.13639" lon="0.62295">
        <ele>106</ele>
        <time>2025-08-10T07:49:07.696Z</time>
      </trkpt>
      <trkpt lat="44.13639" lon="0.62296">
        <ele>106</ele>
        <time>2025-08-10T07:49:08.696Z</time>
      </trkpt>
      <trkpt lat="44.13639" lon="0.62296">
        <ele>106</ele>
        <time>2025-08-10T07:49:09.696Z</time>
      </trkpt>
      <trkpt lat="44.13638" lon="0.62295">
        <ele>106</ele>
        <time>2025-08-10T07:49:10.696Z</time>
      </trkpt>
      <trkpt lat="44.13637" lon="0.62295">
        <ele>106</ele>
        <time>2025-08-10T07:49:11.696Z</time>
      </trkpt>
      <trkpt lat="44.13637" lon="0.62295">
        <ele>106</ele>
        <time>2025-08-10T07:49:12.696Z</time>
      </trkpt>
      <trkpt lat="44.13636" lon="0.62295">
        <ele>107</ele>
        <time>2025-08-10T07:49:13.696Z</time>
      </trkpt>
      <trkpt lat="44.13636" lon="0.62295">
        <ele>107</ele>
        <time>2025-08-10T07:49:14.696Z</time>
      </trkpt>
      <trkpt lat="44.13635" lon="0.62295">
        <ele>107</ele>
        <time>2025-08-10T07:49:15.697Z</time>
      </trkpt>
      <trkpt lat="44.13634" lon="0.62295">
        <ele>107</ele>
        <time>2025-08-10T07:49:16.696Z</time>
      </trkpt>
      <trkpt lat="44.13633" lon="0.62295">
        <ele>106</ele>
        <time>2025-08-10T07:49:17.696Z</time>
      </trkpt>
      <trkpt lat="44.13632" lon="0.62295">
        <ele>106</ele>
        <time>2025-08-10T07:49:18.696Z</time>
      </trkpt>
      <trkpt lat="44.13632" lon="0.62295">
        <ele>106</ele>
        <time>2025-08-10T07:49:19.696Z</time>
      </trkpt>
      <trkpt lat="44.13631" lon="0.62295">
        <ele>105</ele>
        <time>2025-08-10T07:49:20.696Z</time>
      </trkpt>
      <trkpt lat="44.1363" lon="0.62295">
        <ele>105</ele>
        <time>2025-08-10T07:49:21.696Z</time>
      </trkpt>
      <trkpt lat="44.13629" lon="0.62294">
        <ele>105</ele>
        <time>2025-08-10T07:49:22.696Z</time>
      </trkpt>
      <trkpt lat="44.13628" lon="0.62293">
        <ele>104</ele>
        <time>2025-08-10T07:49:23.696Z</time>
      </trkpt>
      <trkpt lat="44.13627" lon="0.62293">
        <ele>104</ele>
        <time>2025-08-10T07:49:24.696Z</time>
      </trkpt>
      <trkpt lat="44.13626" lon="0.62292">
        <ele>103</ele>
        <time>2025-08-10T07:49:25.696Z</time>
      </trkpt>
      <trkpt lat="44.13625" lon="0.62292">
        <ele>103</ele>
        <time>2025-08-10T07:49:26.696Z</time>
      </trkpt>
      <trkpt lat="44.13624" lon="0.62292">
        <ele>102</ele>
        <time>2025-08-10T07:49:27.696Z</time>
      </trkpt>
      <trkpt lat="44.13623" lon="0.62292">
        <ele>101</ele>
        <time>2025-08-10T07:49:28.696Z</time>
      </trkpt>
      <trkpt lat="44.13622" lon="0.62292">
        <ele>101</ele>
        <time>2025-08-10T07:49:29.696Z</time>
      </trkpt>
      <trkpt lat="44.13621" lon="0.62292">
        <ele>100</ele>
        <time>2025-08-10T07:49:30.696Z</time>
      </trkpt>
      <trkpt lat="44.1362" lon="0.62292">
        <ele>100</ele>
        <time>2025-08-10T07:49:31.696Z</time>
      </trkpt>
      <trkpt lat="44.13619" lon="0.62292">
        <ele>99</ele>
        <time>2025-08-10T07:49:32.696Z</time>
      </trkpt>
      <trkpt lat="44.13619" lon="0.62292">
        <ele>99</ele>
        <time>2025-08-10T07:49:33.696Z</time>
      </trkpt>
      <trkpt lat="44.13618" lon="0.62292">
        <ele>98</ele>
        <time>2025-08-10T07:49:34.696Z</time>
      </trkpt>
      <trkpt lat="44.13618" lon="0.62292">
        <ele>98</ele>
        <time>2025-08-10T07:49:35.696Z</time>
      </trkpt>
      <trkpt lat="44.13617" lon="0.62292">
        <ele>97</ele>
        <time>2025-08-10T07:49:36.696Z</time>
      </trkpt>
      <trkpt lat="44.13617" lon="0.62292">
        <ele>97</ele>
        <time>2025-08-10T07:49:37.696Z</time>
      </trkpt>
      <trkpt lat="44.13616" lon="0.62292">
        <ele>97</ele>
        <time>2025-08-10T07:49:38.696Z</time>
      </trkpt>
      <trkpt lat="44.13615" lon="0.62292">
        <ele>96</ele>
        <time>2025-08-10T07:49:39.696Z</time>
      </trkpt>
      <trkpt lat="44.13615" lon="0.62291">
        <ele>96</ele>
        <time>2025-08-10T07:49:40.696Z</time>
      </trkpt>
      <trkpt lat="44.13614" lon="0.62291">
        <ele>96</ele>
        <time>2025-08-10T07:49:41.696Z</time>
      </trkpt>
      <trkpt lat="44.13613" lon="0.62291">
        <ele>96</ele>
        <time>2025-08-10T07:49:42.696Z</time>
      </trkpt>
      <trkpt lat="44.13613" lon="0.62291">
        <ele>95</ele>
        <time>2025-08-10T07:49:43.696Z</time>
      </trkpt>
      <trkpt lat="44.13612" lon="0.62292">
        <ele>95</ele>
        <time>2025-08-10T07:49:44.696Z</time>
      </trkpt>
      <trkpt lat="44.13612" lon="0.62292">
        <ele>95</ele>
        <time>2025-08-10T07:49:45.696Z</time>
      </trkpt>
      <trkpt lat="44.13611" lon="0.62292">
        <ele>94</ele>
        <time>2025-08-10T07:49:46.696Z</time>
      </trkpt>
      <trkpt lat="44.1361" lon="0.62291">
        <ele>94</ele>
        <time>2025-08-10T07:49:47.696Z</time>
      </trkpt>
      <trkpt lat="44.13609" lon="0.62291">
        <ele>93</ele>
        <time>2025-08-10T07:49:48.696Z</time>
      </trkpt>
      <trkpt lat="44.13608" lon="0.62291">
        <ele>93</ele>
        <time>2025-08-10T07:49:49.696Z</time>
      </trkpt>
      <trkpt lat="44.13607" lon="0.62291">
        <ele>93</ele>
        <time>2025-08-10T07:49:50.696Z</time>
      </trkpt>
      <trkpt lat="44.13606" lon="0.62291">
        <ele>93</ele>
        <time>2025-08-10T07:49:51.696Z</time>
      </trkpt>
      <trkpt lat="44.13606" lon="0.6229">
        <ele>93</ele>
        <time>2025-08-10T07:49:52.696Z</time>
      </trkpt>
      <trkpt lat="44.13605" lon="0.6229">
        <ele>93</ele>
        <time>2025-08-10T07:49:53.696Z</time>
      </trkpt>
      <trkpt lat="44.13604" lon="0.62291">
        <ele>92</ele>
        <time>2025-08-10T07:49:54.696Z</time>
      </trkpt>
      <trkpt lat="44.13603" lon="0.62291">
        <ele>92</ele>
        <time>2025-08-10T07:49:55.696Z</time>
      </trkpt>
      <trkpt lat="44.13603" lon="0.62291">
        <ele>92</ele>
        <time>2025-08-10T07:49:56.696Z</time>
      </trkpt>
      <trkpt lat="44.13602" lon="0.62292">
        <ele>93</ele>
        <time>2025-08-10T07:49:57.696Z</time>
      </trkpt>
      <trkpt lat="44.13601" lon="0.62292">
        <ele>93</ele>
        <time>2025-08-10T07:49:58.696Z</time>
      </trkpt>
      <trkpt lat="44.136" lon="0.62292">
        <ele>93</ele>
        <time>2025-08-10T07:49:59.696Z</time>
      </trkpt>
      <trkpt lat="44.13599" lon="0.62291">
        <ele>93</ele>
        <time>2025-08-10T07:50:00.696Z</time>
      </trkpt>
      <trkpt lat="44.13599" lon="0.62292">
        <ele>93</ele>
        <time>2025-08-10T07:50:01.696Z</time>
      </trkpt>
      <trkpt lat="44.13598" lon="0.62292">
        <ele>93</ele>
        <time>2025-08-10T07:50:02.696Z</time>
      </trkpt>
      <trkpt lat="44.13597" lon="0.62292">
        <ele>93</ele>
        <time>2025-08-10T07:50:03.696Z</time>
      </trkpt>
      <trkpt lat="44.13597" lon="0.62293">
        <ele>92</ele>
        <time>2025-08-10T07:50:04.696Z</time>
      </trkpt>
      <trkpt lat="44.13596" lon="0.62293">
        <ele>92</ele>
        <time>2025-08-10T07:50:05.696Z</time>
      </trkpt>
      <trkpt lat="44.13595" lon="0.62292">
        <ele>92</ele>
        <time>2025-08-10T07:50:06.696Z</time>
      </trkpt>
      <trkpt lat="44.13594" lon="0.62292">
        <ele>92</ele>
        <time>2025-08-10T07:50:07.696Z</time>
      </trkpt>
      <trkpt lat="44.13593" lon="0.62292">
        <ele>91</ele>
        <time>2025-08-10T07:50:08.696Z</time>
      </trkpt>
      <trkpt lat="44.13592" lon="0.62292">
        <ele>91</ele>
        <time>2025-08-10T07:50:09.696Z</time>
      </trkpt>
      <trkpt lat="44.13592" lon="0.62293">
        <ele>91</ele>
        <time>2025-08-10T07:50:10.696Z</time>
      </trkpt>
      <trkpt lat="44.13591" lon="0.62293">
        <ele>91</ele>
        <time>2025-08-10T07:50:11.696Z</time>
      </trkpt>
      <trkpt lat="44.1359" lon="0.62293">
        <ele>90</ele>
        <time>2025-08-10T07:50:12.696Z</time>
      </trkpt>
      <trkpt lat="44.13589" lon="0.62294">
        <ele>90</ele>
        <time>2025-08-10T07:50:13.696Z</time>
      </trkpt>
      <trkpt lat="44.13588" lon="0.62294">
        <ele>90</ele>
        <time>2025-08-10T07:50:14.696Z</time>
      </trkpt>
      <trkpt lat="44.13588" lon="0.62295">
        <ele>90</ele>
        <time>2025-08-10T07:50:15.696Z</time>
      </trkpt>
      <trkpt lat="44.13587" lon="0.62295">
        <ele>90</ele>
        <time>2025-08-10T07:50:16.696Z</time>
      </trkpt>
      <trkpt lat="44.13586" lon="0.62295">
        <ele>90</ele>
        <time>2025-08-10T07:50:17.696Z</time>
      </trkpt>
      <trkpt lat="44.13585" lon="0.62295">
        <ele>89</ele>
        <time>2025-08-10T07:50:18.696Z</time>
      </trkpt>
      <trkpt lat="44.13584" lon="0.62294">
        <ele>89</ele>
        <time>2025-08-10T07:50:19.696Z</time>
      </trkpt>
      <trkpt lat="44.13583" lon="0.62295">
        <ele>89</ele>
        <time>2025-08-10T07:50:20.696Z</time>
      </trkpt>
      <trkpt lat="44.13582" lon="0.62295">
        <ele>89</ele>
        <time>2025-08-10T07:50:21.696Z</time>
      </trkpt>
      <trkpt lat="44.13581" lon="0.62295">
        <ele>89</ele>
        <time>2025-08-10T07:50:22.696Z</time>
      </trkpt>
      <trkpt lat="44.1358" lon="0.62296">
        <ele>89</ele>
        <time>2025-08-10T07:50:23.696Z</time>
      </trkpt>
      <trkpt lat="44.13579" lon="0.62296">
        <ele>89</ele>
        <time>2025-08-10T07:50:24.696Z</time>
      </trkpt>
      <trkpt lat="44.13578" lon="0.62297">
        <ele>89</ele>
        <time>2025-08-10T07:50:25.696Z</time>
      </trkpt>
      <trkpt lat="44.13577" lon="0.62297">
        <ele>89</ele>
        <time>2025-08-10T07:50:26.696Z</time>
      </trkpt>
      <trkpt lat="44.13576" lon="0.62298">
        <ele>89</ele>
        <time>2025-08-10T07:50:27.696Z</time>
      </trkpt>
      <trkpt lat="44.13575" lon="0.62298">
        <ele>89</ele>
        <time>2025-08-10T07:50:28.696Z</time>
      </trkpt>
      <trkpt lat="44.13574" lon="0.62298">
        <ele>90</ele>
        <time>2025-08-10T07:50:29.696Z</time>
      </trkpt>
      <trkpt lat="44.13573" lon="0.62298">
        <ele>90</ele>
        <time>2025-08-10T07:50:30.696Z</time>
      </trkpt>
      <trkpt lat="44.13571" lon="0.62298">
        <ele>90</ele>
        <time>2025-08-10T07:50:31.696Z</time>
      </trkpt>
      <trkpt lat="44.1357" lon="0.62298">
        <ele>90</ele>
        <time>2025-08-10T07:50:32.696Z</time>
      </trkpt>
      <trkpt lat="44.13569" lon="0.62298">
        <ele>90</ele>
        <time>2025-08-10T07:50:33.696Z</time>
      </trkpt>
      <trkpt lat="44.13568" lon="0.62297">
        <ele>90</ele>
        <time>2025-08-10T07:50:34.696Z</time>
      </trkpt>
      <trkpt lat="44.13567" lon="0.62297">
        <ele>90</ele>
        <time>2025-08-10T07:50:35.696Z</time>
      </trkpt>
      <trkpt lat="44.13566" lon="0.62296">
        <ele>90</ele>
        <time>2025-08-10T07:50:36.696Z</time>
      </trkpt>
      <trkpt lat="44.13566" lon="0.62296">
        <ele>90</ele>
        <time>2025-08-10T07:50:37.696Z</time>
      </trkpt>
      <trkpt lat="44.13565" lon="0.62296">
        <ele>90</ele>
        <time>2025-08-10T07:50:38.696Z</time>
      </trkpt>
      <trkpt lat="44.13564" lon="0.62297">
        <ele>90</ele>
        <time>2025-08-10T07:50:39.696Z</time>
      </trkpt>
      <trkpt lat="44.13564" lon="0.62297">
        <ele>90</ele>
        <time>2025-08-10T07:50:40.696Z</time>
      </trkpt>
      <trkpt lat="44.13563" lon="0.62297">
        <ele>90</ele>
        <time>2025-08-10T07:50:41.696Z</time>
      </trkpt>
      <trkpt lat="44.13562" lon="0.62298">
        <ele>91</ele>
        <time>2025-08-10T07:50:42.696Z</time>
      </trkpt>
      <trkpt lat="44.13561" lon="0.62298">
        <ele>91</ele>
        <time>2025-08-10T07:50:43.696Z</time>
      </trkpt>
      <trkpt lat="44.13561" lon="0.62299">
        <ele>91</ele>
        <time>2025-08-10T07:50:44.696Z</time>
      </trkpt>
      <trkpt lat="44.13559" lon="0.623">
        <ele>91</ele>
        <time>2025-08-10T07:50:45.696Z</time>
      </trkpt>
      <trkpt lat="44.13559" lon="0.62302">
        <ele>91</ele>
        <time>2025-08-10T07:50:46.696Z</time>
      </trkpt>
      <trkpt lat="44.13559" lon="0.62304">
        <ele>91</ele>
        <time>2025-08-10T07:50:47.696Z</time>
      </trkpt>
      <trkpt lat="44.13558" lon="0.62304">
        <ele>91</ele>
        <time>2025-08-10T07:50:48.696Z</time>
      </trkpt>
      <trkpt lat="44.13558" lon="0.62304">
        <ele>91</ele>
        <time>2025-08-10T07:50:49.696Z</time>
      </trkpt>
      <trkpt lat="44.13557" lon="0.62305">
        <ele>91</ele>
        <time>2025-08-10T07:50:50.696Z</time>
      </trkpt>
      <trkpt lat="44.13557" lon="0.62305">
        <ele>91</ele>
        <time>2025-08-10T07:50:51.696Z</time>
      </trkpt>
      <trkpt lat="44.13556" lon="0.62306">
        <ele>90</ele>
        <time>2025-08-10T07:50:52.696Z</time>
      </trkpt>
      <trkpt lat="44.13556" lon="0.62306">
        <ele>90</ele>
        <time>2025-08-10T07:50:53.696Z</time>
      </trkpt>
      <trkpt lat="44.13556" lon="0.62307">
        <ele>90</ele>
        <time>2025-08-10T07:50:54.696Z</time>
      </trkpt>
      <trkpt lat="44.13555" lon="0.62307">
        <ele>90</ele>
        <time>2025-08-10T07:50:55.696Z</time>
      </trkpt>
      <trkpt lat="44.13555" lon="0.62307">
        <ele>89</ele>
        <time>2025-08-10T07:50:56.696Z</time>
      </trkpt>
      <trkpt lat="44.13554" lon="0.62307">
        <ele>89</ele>
        <time>2025-08-10T07:50:57.696Z</time>
      </trkpt>
      <trkpt lat="44.13553" lon="0.62308">
        <ele>89</ele>
        <time>2025-08-10T07:50:58.696Z</time>
      </trkpt>
      <trkpt lat="44.13552" lon="0.62308">
        <ele>89</ele>
        <time>2025-08-10T07:50:59.696Z</time>
      </trkpt>
      <trkpt lat="44.13551" lon="0.62307">
        <ele>88</ele>
        <time>2025-08-10T07:51:00.696Z</time>
      </trkpt>
      <trkpt lat="44.1355" lon="0.62307">
        <ele>88</ele>
        <time>2025-08-10T07:51:01.696Z</time>
      </trkpt>
      <trkpt lat="44.1355" lon="0.62307">
        <ele>88</ele>
        <time>2025-08-10T07:51:02.696Z</time>
      </trkpt>
      <trkpt lat="44.13549" lon="0.62306">
        <ele>88</ele>
        <time>2025-08-10T07:51:03.696Z</time>
      </trkpt>
      <trkpt lat="44.13548" lon="0.62305">
        <ele>88</ele>
        <time>2025-08-10T07:51:04.696Z</time>
      </trkpt>
      <trkpt lat="44.13548" lon="0.62305">
        <ele>88</ele>
        <time>2025-08-10T07:51:05.696Z</time>
      </trkpt>
      <trkpt lat="44.13548" lon="0.62305">
        <ele>88</ele>
        <time>2025-08-10T07:51:06.696Z</time>
      </trkpt>
      <trkpt lat="44.13548" lon="0.62304">
        <ele>88</ele>
        <time>2025-08-10T07:51:07.696Z</time>
      </trkpt>
      <trkpt lat="44.13547" lon="0.62303">
        <ele>88</ele>
        <time>2025-08-10T07:51:08.696Z</time>
      </trkpt>
      <trkpt lat="44.13547" lon="0.62302">
        <ele>88</ele>
        <time>2025-08-10T07:51:09.696Z</time>
      </trkpt>
      <trkpt lat="44.13547" lon="0.62302">
        <ele>88</ele>
        <time>2025-08-10T07:51:10.696Z</time>
      </trkpt>
      <trkpt lat="44.13547" lon="0.62301">
        <ele>88</ele>
        <time>2025-08-10T07:51:11.696Z</time>
      </trkpt>
      <trkpt lat="44.13547" lon="0.62301">
        <ele>88</ele>
        <time>2025-08-10T07:51:12.696Z</time>
      </trkpt>
      <trkpt lat="44.13546" lon="0.623">
        <ele>89</ele>
        <time>2025-08-10T07:51:13.696Z</time>
      </trkpt>
      <trkpt lat="44.13546" lon="0.623">
        <ele>89</ele>
        <time>2025-08-10T07:51:14.696Z</time>
      </trkpt>
      <trkpt lat="44.13546" lon="0.623">
        <ele>90</ele>
        <time>2025-08-10T07:51:15.696Z</time>
      </trkpt>
      <trkpt lat="44.13546" lon="0.623">
        <ele>90</ele>
        <time>2025-08-10T07:51:16.696Z</time>
      </trkpt>
      <trkpt lat="44.13546" lon="0.623">
        <ele>90</ele>
        <time>2025-08-10T07:51:17.696Z</time>
      </trkpt>
      <trkpt lat="44.13546" lon="0.623">
        <ele>90</ele>
        <time>2025-08-10T07:51:18.696Z</time>
      </trkpt>
      <trkpt lat="44.13546" lon="0.623">
        <ele>90</ele>
        <time>2025-08-10T07:51:19.696Z</time>
      </trkpt>
      <trkpt lat="44.13545" lon="0.623">
        <ele>90</ele>
        <time>2025-08-10T07:51:20.696Z</time>
      </trkpt>
      <trkpt lat="44.13545" lon="0.623">
        <ele>90</ele>
        <time>2025-08-10T07:51:21.696Z</time>
      </trkpt>
      <trkpt lat="44.13545" lon="0.623">
        <ele>90</ele>
        <time>2025-08-10T07:51:22.696Z</time>
      </trkpt>
      <trkpt lat="44.13545" lon="0.623">
        <ele>90</ele>
        <time>2025-08-10T07:51:23.696Z</time>
      </trkpt>
      <trkpt lat="44.13545" lon="0.623">
        <ele>90</ele>
        <time>2025-08-10T07:51:24.697Z</time>
      </trkpt>
      <trkpt lat="44.13545" lon="0.623">
        <ele>90</ele>
        <time>2025-08-10T07:51:25.696Z</time>
      </trkpt>
      <trkpt lat="44.13545" lon="0.623">
        <ele>89</ele>
        <time>2025-08-10T07:51:26.696Z</time>
      </trkpt>
      <trkpt lat="44.13545" lon="0.623">
        <ele>89</ele>
        <time>2025-08-10T07:51:27.696Z</time>
      </trkpt>
      <trkpt lat="44.13545" lon="0.623">
        <ele>90</ele>
        <time>2025-08-10T07:51:28.696Z</time>
      </trkpt>
      <trkpt lat="44.13545" lon="0.62301">
        <ele>90</ele>
        <time>2025-08-10T07:51:29.696Z</time>
      </trkpt>
      <trkpt lat="44.13545" lon="0.62301">
        <ele>90</ele>
        <time>2025-08-10T07:51:30.696Z</time>
      </trkpt>
      <trkpt lat="44.13545" lon="0.62301">
        <ele>90</ele>
        <time>2025-08-10T07:51:31.696Z</time>
      </trkpt>
      <trkpt lat="44.13545" lon="0.62301">
        <ele>90</ele>
        <time>2025-08-10T07:51:32.696Z</time>
      </trkpt>
      <trkpt lat="44.13545" lon="0.62301">
        <ele>90</ele>
        <time>2025-08-10T07:51:33.696Z</time>
      </trkpt>
      <trkpt lat="44.13545" lon="0.62301">
        <ele>90</ele>
        <time>2025-08-10T07:51:34.696Z</time>
      </trkpt>
      <trkpt lat="44.13545" lon="0.62301">
        <ele>90</ele>
        <time>2025-08-10T07:51:35.696Z</time>
      </trkpt>
      <trkpt lat="44.13545" lon="0.62301">
        <ele>90</ele>
        <time>2025-08-10T07:51:36.696Z</time>
      </trkpt>
      <trkpt lat="44.13545" lon="0.62301">
        <ele>90</ele>
        <time>2025-08-10T07:51:37.696Z</time>
      </trkpt>
      <trkpt lat="44.13545" lon="0.62301">
        <ele>89</ele>
        <time>2025-08-10T07:51:38.696Z</time>
      </trkpt>
      <trkpt lat="44.13545" lon="0.62301">
        <ele>89</ele>
        <time>2025-08-10T07:51:39.696Z</time>
      </trkpt>
      <trkpt lat="44.13545" lon="0.62301">
        <ele>89</ele>
        <time>2025-08-10T07:51:40.696Z</time>
      </trkpt>
      <trkpt lat="44.13545" lon="0.62301">
        <ele>89</ele>
        <time>2025-08-10T07:51:41.696Z</time>
      </trkpt>
      <trkpt lat="44.13546" lon="0.62302">
        <ele>89</ele>
        <time>2025-08-10T07:51:42.696Z</time>
      </trkpt>
      <trkpt lat="44.13546" lon="0.62302">
        <ele>89</ele>
        <time>2025-08-10T07:51:43.696Z</time>
      </trkpt>
      <trkpt lat="44.13546" lon="0.62302">
        <ele>89</ele>
        <time>2025-08-10T07:51:44.696Z</time>
      </trkpt>
      <trkpt lat="44.13546" lon="0.62302">
        <ele>89</ele>
        <time>2025-08-10T07:51:45.696Z</time>
      </trkpt>
      <trkpt lat="44.13546" lon="0.62302">
        <ele>89</ele>
        <time>2025-08-10T07:51:46.696Z</time>
      </trkpt>
      <trkpt lat="44.13546" lon="0.62302">
        <ele>90</ele>
        <time>2025-08-10T07:51:47.696Z</time>
      </trkpt>
      <trkpt lat="44.13546" lon="0.62302">
        <ele>90</ele>
        <time>2025-08-10T07:51:48.696Z</time>
      </trkpt>
      <trkpt lat="44.13547" lon="0.62303">
        <ele>89</ele>
        <time>2025-08-10T07:51:49.696Z</time>
      </trkpt>
      <trkpt lat="44.13547" lon="0.62303">
        <ele>89</ele>
        <time>2025-08-10T07:51:50.696Z</time>
      </trkpt>
      <trkpt lat="44.13547" lon="0.62303">
        <ele>89</ele>
        <time>2025-08-10T07:51:51.696Z</time>
      </trkpt>
      <trkpt lat="44.13548" lon="0.62303">
        <ele>88</ele>
        <time>2025-08-10T07:51:52.696Z</time>
      </trkpt>
      <trkpt lat="44.13548" lon="0.62303">
        <ele>88</ele>
        <time>2025-08-10T07:51:53.696Z</time>
      </trkpt>
      <trkpt lat="44.13549" lon="0.62303">
        <ele>88</ele>
        <time>2025-08-10T07:51:54.696Z</time>
      </trkpt>
      <trkpt lat="44.13549" lon="0.62303">
        <ele>88</ele>
        <time>2025-08-10T07:51:55.696Z</time>
      </trkpt>
      <trkpt lat="44.1355" lon="0.62302">
        <ele>88</ele>
        <time>2025-08-10T07:51:56.696Z</time>
      </trkpt>
      <trkpt lat="44.13551" lon="0.62301">
        <ele>89</ele>
        <time>2025-08-10T07:51:57.696Z</time>
      </trkpt>
      <trkpt lat="44.13552" lon="0.62301">
        <ele>89</ele>
        <time>2025-08-10T07:51:58.696Z</time>
      </trkpt>
      <trkpt lat="44.13553" lon="0.62301">
        <ele>89</ele>
        <time>2025-08-10T07:51:59.696Z</time>
      </trkpt>
      <trkpt lat="44.13554" lon="0.623">
        <ele>89</ele>
        <time>2025-08-10T07:52:00.696Z</time>
      </trkpt>
      <trkpt lat="44.13554" lon="0.62299">
        <ele>89</ele>
        <time>2025-08-10T07:52:01.696Z</time>
      </trkpt>
      <trkpt lat="44.13555" lon="0.62298">
        <ele>89</ele>
        <time>2025-08-10T07:52:02.696Z</time>
      </trkpt>
      <trkpt lat="44.13556" lon="0.62298">
        <ele>89</ele>
        <time>2025-08-10T07:52:03.696Z</time>
      </trkpt>
      <trkpt lat="44.13556" lon="0.62297">
        <ele>89</ele>
        <time>2025-08-10T07:52:04.696Z</time>
      </trkpt>
      <trkpt lat="44.13556" lon="0.62295">
        <ele>89</ele>
        <time>2025-08-10T07:52:05.696Z</time>
      </trkpt>
      <trkpt lat="44.13556" lon="0.62295">
        <ele>90</ele>
        <time>2025-08-10T07:52:06.696Z</time>
      </trkpt>
      <trkpt lat="44.13556" lon="0.62295">
        <ele>90</ele>
        <time>2025-08-10T07:52:07.696Z</time>
      </trkpt>
      <trkpt lat="44.13556" lon="0.62294">
        <ele>90</ele>
        <time>2025-08-10T07:52:08.696Z</time>
      </trkpt>
      <trkpt lat="44.13556" lon="0.62294">
        <ele>91</ele>
        <time>2025-08-10T07:52:09.696Z</time>
      </trkpt>
      <trkpt lat="44.13556" lon="0.62294">
        <ele>91</ele>
        <time>2025-08-10T07:52:10.696Z</time>
      </trkpt>
      <trkpt lat="44.13556" lon="0.62294">
        <ele>91</ele>
        <time>2025-08-10T07:52:11.696Z</time>
      </trkpt>
      <trkpt lat="44.13556" lon="0.62293">
        <ele>90</ele>
        <time>2025-08-10T07:52:12.696Z</time>
      </trkpt>
      <trkpt lat="44.13556" lon="0.62293">
        <ele>90</ele>
        <time>2025-08-10T07:52:13.696Z</time>
      </trkpt>
      <trkpt lat="44.13557" lon="0.62292">
        <ele>90</ele>
        <time>2025-08-10T07:52:14.696Z</time>
      </trkpt>
      <trkpt lat="44.13557" lon="0.62292">
        <ele>90</ele>
        <time>2025-08-10T07:52:15.696Z</time>
      </trkpt>
      <trkpt lat="44.13557" lon="0.62292">
        <ele>89</ele>
        <time>2025-08-10T07:52:16.696Z</time>
      </trkpt>
      <trkpt lat="44.13556" lon="0.62292">
        <ele>88</ele>
        <time>2025-08-10T07:52:17.696Z</time>
      </trkpt>
      <trkpt lat="44.13557" lon="0.62292">
        <ele>88</ele>
        <time>2025-08-10T07:52:18.696Z</time>
      </trkpt>
      <trkpt lat="44.13557" lon="0.62292">
        <ele>87</ele>
        <time>2025-08-10T07:52:19.696Z</time>
      </trkpt>
      <trkpt lat="44.13556" lon="0.62292">
        <ele>86</ele>
        <time>2025-08-10T07:52:20.696Z</time>
      </trkpt>
      <trkpt lat="44.13556" lon="0.62292">
        <ele>85</ele>
        <time>2025-08-10T07:52:21.696Z</time>
      </trkpt>
      <trkpt lat="44.13556" lon="0.62292">
        <ele>84</ele>
        <time>2025-08-10T07:52:22.696Z</time>
      </trkpt>
      <trkpt lat="44.13556" lon="0.62292">
        <ele>83</ele>
        <time>2025-08-10T07:52:23.696Z</time>
      </trkpt>
      <trkpt lat="44.13556" lon="0.62292">
        <ele>82</ele>
        <time>2025-08-10T07:52:24.696Z</time>
      </trkpt>
      <trkpt lat="44.13557" lon="0.62292">
        <ele>81</ele>
        <time>2025-08-10T07:52:25.696Z</time>
      </trkpt>
      <trkpt lat="44.13557" lon="0.62292">
        <ele>80</ele>
        <time>2025-08-10T07:52:26.696Z</time>
      </trkpt>
      <trkpt lat="44.13557" lon="0.62292">
        <ele>79</ele>
        <time>2025-08-10T07:52:27.696Z</time>
      </trkpt>
      <trkpt lat="44.13557" lon="0.62292">
        <ele>78</ele>
        <time>2025-08-10T07:52:28.696Z</time>
      </trkpt>
      <trkpt lat="44.13557" lon="0.62292">
        <ele>78</ele>
        <time>2025-08-10T07:52:29.696Z</time>
      </trkpt>
      <trkpt lat="44.13557" lon="0.62292">
        <ele>77</ele>
        <time>2025-08-10T07:52:30.696Z</time>
      </trkpt>
      <trkpt lat="44.13557" lon="0.62292">
        <ele>76</ele>
        <time>2025-08-10T07:52:31.696Z</time>
      </trkpt>
      <trkpt lat="44.13557" lon="0.62293">
        <ele>76</ele>
        <time>2025-08-10T07:52:32.696Z</time>
      </trkpt>
      <trkpt lat="44.13556" lon="0.62293">
        <ele>75</ele>
        <time>2025-08-10T07:52:33.696Z</time>
      </trkpt>
      <trkpt lat="44.13556" lon="0.62293">
        <ele>74</ele>
        <time>2025-08-10T07:52:34.696Z</time>
      </trkpt>
      <trkpt lat="44.13556" lon="0.62293">
        <ele>74</ele>
        <time>2025-08-10T07:52:35.696Z</time>
      </trkpt>
      <trkpt lat="44.13556" lon="0.62293">
        <ele>74</ele>
        <time>2025-08-10T07:52:36.696Z</time>
      </trkpt>
      <trkpt lat="44.13556" lon="0.62293">
        <ele>73</ele>
        <time>2025-08-10T07:52:37.696Z</time>
      </trkpt>
      <trkpt lat="44.13556" lon="0.62293">
        <ele>73</ele>
        <time>2025-08-10T07:52:38.696Z</time>
      </trkpt>
      <trkpt lat="44.13556" lon="0.62293">
        <ele>73</ele>
        <time>2025-08-10T07:52:39.696Z</time>
      </trkpt>
      <trkpt lat="44.13556" lon="0.62293">
        <ele>73</ele>
        <time>2025-08-10T07:52:40.696Z</time>
      </trkpt>
      <trkpt lat="44.13557" lon="0.62294">
        <ele>74</ele>
        <time>2025-08-10T07:52:41.696Z</time>
      </trkpt>
      <trkpt lat="44.13557" lon="0.62294">
        <ele>74</ele>
        <time>2025-08-10T07:52:42.696Z</time>
      </trkpt>
      <trkpt lat="44.13557" lon="0.62294">
        <ele>74</ele>
        <time>2025-08-10T07:52:43.696Z</time>
      </trkpt>
      <trkpt lat="44.13557" lon="0.62294">
        <ele>75</ele>
        <time>2025-08-10T07:52:44.696Z</time>
      </trkpt>
      <trkpt lat="44.13557" lon="0.62294">
        <ele>76</ele>
        <time>2025-08-10T07:52:45.696Z</time>
      </trkpt>
      <trkpt lat="44.13557" lon="0.62294">
        <ele>77</ele>
        <time>2025-08-10T07:52:46.696Z</time>
      </trkpt>
      <trkpt lat="44.13557" lon="0.62294">
        <ele>78</ele>
        <time>2025-08-10T07:52:47.696Z</time>
      </trkpt>
      <trkpt lat="44.13557" lon="0.62294">
        <ele>79</ele>
        <time>2025-08-10T07:52:48.696Z</time>
      </trkpt>
      <trkpt lat="44.13557" lon="0.62294">
        <ele>79</ele>
        <time>2025-08-10T07:52:49.696Z</time>
      </trkpt>
      <trkpt lat="44.13557" lon="0.62294">
        <ele>80</ele>
        <time>2025-08-10T07:52:50.696Z</time>
      </trkpt>
      <trkpt lat="44.13557" lon="0.62294">
        <ele>81</ele>
        <time>2025-08-10T07:52:51.696Z</time>
      </trkpt>
      <trkpt lat="44.13557" lon="0.62294">
        <ele>81</ele>
        <time>2025-08-10T07:52:52.696Z</time>
      </trkpt>
      <trkpt lat="44.13557" lon="0.62294">
        <ele>82</ele>
        <time>2025-08-10T07:52:53.696Z</time>
      </trkpt>
      <trkpt lat="44.13557" lon="0.62294">
        <ele>82</ele>
        <time>2025-08-10T07:52:54.696Z</time>
      </trkpt>
      <trkpt lat="44.13557" lon="0.62294">
        <ele>82</ele>
        <time>2025-08-10T07:52:55.696Z</time>
      </trkpt>
      <trkpt lat="44.13557" lon="0.62294">
        <ele>83</ele>
        <time>2025-08-10T07:52:56.696Z</time>
      </trkpt>
      <trkpt lat="44.13557" lon="0.62294">
        <ele>83</ele>
        <time>2025-08-10T07:52:57.696Z</time>
      </trkpt>
      <trkpt lat="44.13557" lon="0.62294">
        <ele>84</ele>
        <time>2025-08-10T07:52:58.696Z</time>
      </trkpt>
      <trkpt lat="44.13557" lon="0.62294">
        <ele>84</ele>
        <time>2025-08-10T07:52:59.696Z</time>
      </trkpt>
      <trkpt lat="44.13557" lon="0.62294">
        <ele>85</ele>
        <time>2025-08-10T07:53:00.696Z</time>
      </trkpt>
      <trkpt lat="44.13557" lon="0.62294">
        <ele>85</ele>
        <time>2025-08-10T07:53:01.696Z</time>
      </trkpt>
      <trkpt lat="44.13557" lon="0.62294">
        <ele>85</ele>
        <time>2025-08-10T07:53:02.696Z</time>
      </trkpt>
      <trkpt lat="44.13557" lon="0.62294">
        <ele>86</ele>
        <time>2025-08-10T07:53:03.696Z</time>
      </trkpt>
      <trkpt lat="44.13557" lon="0.62294">
        <ele>86</ele>
        <time>2025-08-10T07:53:04.696Z</time>
      </trkpt>
      <trkpt lat="44.13557" lon="0.62295">
        <ele>87</ele>
        <time>2025-08-10T07:53:05.696Z</time>
      </trkpt>
      <trkpt lat="44.13556" lon="0.62295">
        <ele>88</ele>
        <time>2025-08-10T07:53:06.696Z</time>
      </trkpt>
      <trkpt lat="44.13556" lon="0.62295">
        <ele>88</ele>
        <time>2025-08-10T07:53:07.696Z</time>
      </trkpt>
      <trkpt lat="44.13555" lon="0.62295">
        <ele>89</ele>
        <time>2025-08-10T07:53:08.696Z</time>
      </trkpt>
      <trkpt lat="44.13555" lon="0.62296">
        <ele>89</ele>
        <time>2025-08-10T07:53:09.696Z</time>
      </trkpt>
      <trkpt lat="44.13554" lon="0.62296">
        <ele>89</ele>
        <time>2025-08-10T07:53:10.696Z</time>
      </trkpt>
      <trkpt lat="44.13554" lon="0.62297">
        <ele>89</ele>
        <time>2025-08-10T07:53:11.696Z</time>
      </trkpt>
      <trkpt lat="44.13553" lon="0.62297">
        <ele>89</ele>
        <time>2025-08-10T07:53:12.696Z</time>
      </trkpt>
      <trkpt lat="44.13553" lon="0.62297">
        <ele>89</ele>
        <time>2025-08-10T07:53:13.696Z</time>
      </trkpt>
      <trkpt lat="44.13552" lon="0.62297">
        <ele>89</ele>
        <time>2025-08-10T07:53:14.696Z</time>
      </trkpt>
      <trkpt lat="44.1355" lon="0.62296">
        <ele>89</ele>
        <time>2025-08-10T07:53:15.696Z</time>
      </trkpt>
      <trkpt lat="44.13549" lon="0.62296">
        <ele>89</ele>
        <time>2025-08-10T07:53:16.696Z</time>
      </trkpt>
      <trkpt lat="44.13549" lon="0.62296">
        <ele>90</ele>
        <time>2025-08-10T07:53:17.696Z</time>
      </trkpt>
      <trkpt lat="44.13548" lon="0.62297">
        <ele>90</ele>
        <time>2025-08-10T07:53:18.696Z</time>
      </trkpt>
      <trkpt lat="44.13547" lon="0.62297">
        <ele>90</ele>
        <time>2025-08-10T07:53:19.696Z</time>
      </trkpt>
      <trkpt lat="44.13547" lon="0.62297">
        <ele>90</ele>
        <time>2025-08-10T07:53:20.696Z</time>
      </trkpt>
      <trkpt lat="44.13547" lon="0.62297">
        <ele>89</ele>
        <time>2025-08-10T07:53:21.696Z</time>
      </trkpt>
      <trkpt lat="44.13547" lon="0.62297">
        <ele>89</ele>
        <time>2025-08-10T07:53:22.696Z</time>
      </trkpt>
      <trkpt lat="44.13548" lon="0.62297">
        <ele>89</ele>
        <time>2025-08-10T07:53:23.696Z</time>
      </trkpt>
      <trkpt lat="44.13548" lon="0.62297">
        <ele>89</ele>
        <time>2025-08-10T07:53:24.696Z</time>
      </trkpt>
      <trkpt lat="44.13548" lon="0.62297">
        <ele>89</ele>
        <time>2025-08-10T07:53:25.696Z</time>
      </trkpt>
      <trkpt lat="44.13548" lon="0.62297">
        <ele>89</ele>
        <time>2025-08-10T07:53:26.696Z</time>
      </trkpt>
      <trkpt lat="44.13548" lon="0.62297">
        <ele>89</ele>
        <time>2025-08-10T07:53:27.696Z</time>
      </trkpt>
      <trkpt lat="44.13548" lon="0.62297">
        <ele>89</ele>
        <time>2025-08-10T07:53:28.696Z</time>
      </trkpt>
      <trkpt lat="44.13548" lon="0.62297">
        <ele>89</ele>
        <time>2025-08-10T07:53:29.696Z</time>
      </trkpt>
      <trkpt lat="44.13548" lon="0.62298">
        <ele>89</ele>
        <time>2025-08-10T07:53:30.696Z</time>
      </trkpt>
      <trkpt lat="44.13548" lon="0.62298">
        <ele>88</ele>
        <time>2025-08-10T07:53:31.696Z</time>
      </trkpt>
      <trkpt lat="44.13548" lon="0.62298">
        <ele>89</ele>
        <time>2025-08-10T07:53:32.696Z</time>
      </trkpt>
      <trkpt lat="44.13548" lon="0.62298">
        <ele>89</ele>
        <time>2025-08-10T07:53:33.696Z</time>
      </trkpt>
      <trkpt lat="44.13548" lon="0.62298">
        <ele>89</ele>
        <time>2025-08-10T07:53:34.696Z</time>
      </trkpt>
      <trkpt lat="44.13548" lon="0.62298">
        <ele>89</ele>
        <time>2025-08-10T07:53:35.696Z</time>
      </trkpt>
      <trkpt lat="44.13548" lon="0.62298">
        <ele>89</ele>
        <time>2025-08-10T07:53:36.696Z</time>
      </trkpt>
      <trkpt lat="44.13548" lon="0.62298">
        <ele>90</ele>
        <time>2025-08-10T07:53:37.696Z</time>
      </trkpt>
      <trkpt lat="44.13548" lon="0.62297">
        <ele>90</ele>
        <time>2025-08-10T07:53:38.696Z</time>
      </trkpt>
      <trkpt lat="44.13547" lon="0.62297">
        <ele>90</ele>
        <time>2025-08-10T07:53:39.696Z</time>
      </trkpt>
      <trkpt lat="44.13547" lon="0.62297">
        <ele>90</ele>
        <time>2025-08-10T07:53:40.696Z</time>
      </trkpt>
      <trkpt lat="44.13547" lon="0.62298">
        <ele>90</ele>
        <time>2025-08-10T07:53:41.696Z</time>
      </trkpt>
      <trkpt lat="44.13547" lon="0.62298">
        <ele>90</ele>
        <time>2025-08-10T07:53:42.696Z</time>
      </trkpt>
      <trkpt lat="44.13547" lon="0.62298">
        <ele>90</ele>
        <time>2025-08-10T07:53:43.696Z</time>
      </trkpt>
      <trkpt lat="44.13548" lon="0.62298">
        <ele>90</ele>
        <time>2025-08-10T07:53:44.696Z</time>
      </trkpt>
      <trkpt lat="44.13547" lon="0.62298">
        <ele>90</ele>
        <time>2025-08-10T07:53:45.696Z</time>
      </trkpt>
      <trkpt lat="44.13547" lon="0.62298">
        <ele>90</ele>
        <time>2025-08-10T07:53:46.696Z</time>
      </trkpt>
      <trkpt lat="44.13547" lon="0.62298">
        <ele>90</ele>
        <time>2025-08-10T07:53:47.696Z</time>
      </trkpt>
      <trkpt lat="44.13547" lon="0.62298">
        <ele>90</ele>
        <time>2025-08-10T07:53:48.696Z</time>
      </trkpt>
      <trkpt lat="44.13547" lon="0.62298">
        <ele>90</ele>
        <time>2025-08-10T07:53:49.696Z</time>
      </trkpt>
      <trkpt lat="44.13547" lon="0.62298">
        <ele>90</ele>
        <time>2025-08-10T07:53:50.696Z</time>
      </trkpt>
      <trkpt lat="44.13546" lon="0.62297">
        <ele>89</ele>
        <time>2025-08-10T07:53:51.696Z</time>
      </trkpt>
      <trkpt lat="44.13546" lon="0.62297">
        <ele>89</ele>
        <time>2025-08-10T07:53:52.696Z</time>
      </trkpt>
      <trkpt lat="44.13546" lon="0.62297">
        <ele>89</ele>
        <time>2025-08-10T07:53:53.696Z</time>
      </trkpt>
      <trkpt lat="44.13546" lon="0.62297">
        <ele>89</ele>
        <time>2025-08-10T07:53:54.696Z</time>
      </trkpt>
      <trkpt lat="44.13546" lon="0.62296">
        <ele>89</ele>
        <time>2025-08-10T07:53:55.696Z</time>
      </trkpt>
      <trkpt lat="44.13546" lon="0.62296">
        <ele>89</ele>
        <time>2025-08-10T07:53:56.696Z</time>
      </trkpt>
      <trkpt lat="44.13546" lon="0.62296">
        <ele>89</ele>
        <time>2025-08-10T07:53:57.696Z</time>
      </trkpt>
      <trkpt lat="44.13546" lon="0.62296">
        <ele>89</ele>
        <time>2025-08-10T07:53:58.696Z</time>
      </trkpt>
      <trkpt lat="44.13546" lon="0.62296">
        <ele>89</ele>
        <time>2025-08-10T07:53:59.696Z</time>
      </trkpt>
      <trkpt lat="44.13546" lon="0.62296">
        <ele>89</ele>
        <time>2025-08-10T07:54:00.696Z</time>
      </trkpt>
      <trkpt lat="44.13546" lon="0.62296">
        <ele>89</ele>
        <time>2025-08-10T07:54:01.696Z</time>
      </trkpt>
      <trkpt lat="44.13546" lon="0.62296">
        <ele>89</ele>
        <time>2025-08-10T07:54:02.696Z</time>
      </trkpt>
      <trkpt lat="44.13546" lon="0.62296">
        <ele>88</ele>
        <time>2025-08-10T07:54:03.696Z</time>
      </trkpt>
      <trkpt lat="44.13546" lon="0.62296">
        <ele>87</ele>
        <time>2025-08-10T07:54:04.696Z</time>
      </trkpt>
      <trkpt lat="44.13546" lon="0.62296">
        <ele>87</ele>
        <time>2025-08-10T07:54:05.696Z</time>
      </trkpt>
      <trkpt lat="44.13546" lon="0.62296">
        <ele>86</ele>
        <time>2025-08-10T07:54:06.696Z</time>
      </trkpt>
      <trkpt lat="44.13546" lon="0.62296">
        <ele>86</ele>
        <time>2025-08-10T07:54:07.696Z</time>
      </trkpt>
      <trkpt lat="44.13546" lon="0.62296">
        <ele>85</ele>
        <time>2025-08-10T07:54:08.696Z</time>
      </trkpt>
      <trkpt lat="44.13546" lon="0.62296">
        <ele>85</ele>
        <time>2025-08-10T07:54:09.696Z</time>
      </trkpt>
      <trkpt lat="44.13546" lon="0.62296">
        <ele>84</ele>
        <time>2025-08-10T07:54:10.696Z</time>
      </trkpt>
      <trkpt lat="44.13546" lon="0.62295">
        <ele>84</ele>
        <time>2025-08-10T07:54:11.696Z</time>
      </trkpt>
      <trkpt lat="44.13546" lon="0.62295">
        <ele>84</ele>
        <time>2025-08-10T07:54:12.696Z</time>
      </trkpt>
      <trkpt lat="44.13545" lon="0.62295">
        <ele>84</ele>
        <time>2025-08-10T07:54:13.696Z</time>
      </trkpt>
      <trkpt lat="44.13545" lon="0.62295">
        <ele>84</ele>
        <time>2025-08-10T07:54:14.696Z</time>
      </trkpt>
      <trkpt lat="44.13545" lon="0.62294">
        <ele>84</ele>
        <time>2025-08-10T07:54:15.696Z</time>
      </trkpt>
      <trkpt lat="44.13545" lon="0.62294">
        <ele>84</ele>
        <time>2025-08-10T07:54:16.696Z</time>
      </trkpt>
      <trkpt lat="44.13545" lon="0.62294">
        <ele>83</ele>
        <time>2025-08-10T07:54:17.696Z</time>
      </trkpt>
      <trkpt lat="44.13545" lon="0.62294">
        <ele>83</ele>
        <time>2025-08-10T07:54:18.696Z</time>
      </trkpt>
      <trkpt lat="44.13545" lon="0.62294">
        <ele>83</ele>
        <time>2025-08-10T07:54:19.696Z</time>
      </trkpt>
      <trkpt lat="44.13545" lon="0.62294">
        <ele>83</ele>
        <time>2025-08-10T07:54:20.696Z</time>
      </trkpt>
      <trkpt lat="44.13545" lon="0.62294">
        <ele>83</ele>
        <time>2025-08-10T07:54:21.696Z</time>
      </trkpt>
      <trkpt lat="44.13544" lon="0.62294">
        <ele>83</ele>
        <time>2025-08-10T07:54:22.696Z</time>
      </trkpt>
      <trkpt lat="44.13544" lon="0.62294">
        <ele>83</ele>
        <time>2025-08-10T07:54:23.696Z</time>
      </trkpt>
      <trkpt lat="44.13544" lon="0.62294">
        <ele>83</ele>
        <time>2025-08-10T07:54:24.696Z</time>
      </trkpt>
      <trkpt lat="44.13544" lon="0.62294">
        <ele>83</ele>
        <time>2025-08-10T07:54:25.696Z</time>
      </trkpt>
      <trkpt lat="44.13544" lon="0.62294">
        <ele>84</ele>
        <time>2025-08-10T07:54:26.696Z</time>
      </trkpt>
      <trkpt lat="44.13544" lon="0.62294">
        <ele>84</ele>
        <time>2025-08-10T07:54:27.696Z</time>
      </trkpt>
      <trkpt lat="44.13544" lon="0.62294">
        <ele>84</ele>
        <time>2025-08-10T07:54:28.696Z</time>
      </trkpt>
      <trkpt lat="44.13544" lon="0.62294">
        <ele>85</ele>
        <time>2025-08-10T07:54:29.696Z</time>
      </trkpt>
      <trkpt lat="44.13544" lon="0.62294">
        <ele>85</ele>
        <time>2025-08-10T07:54:30.696Z</time>
      </trkpt>
      <trkpt lat="44.13544" lon="0.62294">
        <ele>85</ele>
        <time>2025-08-10T07:54:31.696Z</time>
      </trkpt>
      <trkpt lat="44.13544" lon="0.62294">
        <ele>85</ele>
        <time>2025-08-10T07:54:32.696Z</time>
      </trkpt>
      <trkpt lat="44.13543" lon="0.62294">
        <ele>85</ele>
        <time>2025-08-10T07:54:33.696Z</time>
      </trkpt>
      <trkpt lat="44.13543" lon="0.62294">
        <ele>85</ele>
        <time>2025-08-10T07:54:34.696Z</time>
      </trkpt>
      <trkpt lat="44.13543" lon="0.62294">
        <ele>84</ele>
        <time>2025-08-10T07:54:35.696Z</time>
      </trkpt>
      <trkpt lat="44.13543" lon="0.62294">
        <ele>84</ele>
        <time>2025-08-10T07:54:36.696Z</time>
      </trkpt>
      <trkpt lat="44.13543" lon="0.62294">
        <ele>84</ele>
        <time>2025-08-10T07:54:37.696Z</time>
      </trkpt>
      <trkpt lat="44.13543" lon="0.62294">
        <ele>84</ele>
        <time>2025-08-10T07:54:38.696Z</time>
      </trkpt>
      <trkpt lat="44.13543" lon="0.62294">
        <ele>84</ele>
        <time>2025-08-10T07:54:39.696Z</time>
      </trkpt>
      <trkpt lat="44.13543" lon="0.62294">
        <ele>84</ele>
        <time>2025-08-10T07:54:40.696Z</time>
      </trkpt>
      <trkpt lat="44.13543" lon="0.62293">
        <ele>83</ele>
        <time>2025-08-10T07:54:41.696Z</time>
      </trkpt>
      <trkpt lat="44.13543" lon="0.62293">
        <ele>83</ele>
        <time>2025-08-10T07:54:42.696Z</time>
      </trkpt>
      <trkpt lat="44.13543" lon="0.62293">
        <ele>83</ele>
        <time>2025-08-10T07:54:43.696Z</time>
      </trkpt>
      <trkpt lat="44.13543" lon="0.62293">
        <ele>83</ele>
        <time>2025-08-10T07:54:44.696Z</time>
      </trkpt>
      <trkpt lat="44.13543" lon="0.62293">
        <ele>83</ele>
        <time>2025-08-10T07:54:45.696Z</time>
      </trkpt>
      <trkpt lat="44.13543" lon="0.62292">
        <ele>83</ele>
        <time>2025-08-10T07:54:46.696Z</time>
      </trkpt>
      <trkpt lat="44.13542" lon="0.62292">
        <ele>83</ele>
        <time>2025-08-10T07:54:47.696Z</time>
      </trkpt>
      <trkpt lat="44.13542" lon="0.62292">
        <ele>84</ele>
        <time>2025-08-10T07:54:48.696Z</time>
      </trkpt>
      <trkpt lat="44.13542" lon="0.62292">
        <ele>84</ele>
        <time>2025-08-10T07:54:49.696Z</time>
      </trkpt>
      <trkpt lat="44.13542" lon="0.62292">
        <ele>84</ele>
        <time>2025-08-10T07:54:50.696Z</time>
      </trkpt>
      <trkpt lat="44.13541" lon="0.62291">
        <ele>84</ele>
        <time>2025-08-10T07:54:51.696Z</time>
      </trkpt>
      <trkpt lat="44.13541" lon="0.62291">
        <ele>85</ele>
        <time>2025-08-10T07:54:52.696Z</time>
      </trkpt>
      <trkpt lat="44.13541" lon="0.62291">
        <ele>84</ele>
        <time>2025-08-10T07:54:53.696Z</time>
      </trkpt>
      <trkpt lat="44.13541" lon="0.62291">
        <ele>84</ele>
        <time>2025-08-10T07:54:54.696Z</time>
      </trkpt>
      <trkpt lat="44.13541" lon="0.62291">
        <ele>84</ele>
        <time>2025-08-10T07:54:55.696Z</time>
      </trkpt>
      <trkpt lat="44.13541" lon="0.6229">
        <ele>85</ele>
        <time>2025-08-10T07:54:56.696Z</time>
      </trkpt>
      <trkpt lat="44.13541" lon="0.6229">
        <ele>85</ele>
        <time>2025-08-10T07:54:57.696Z</time>
      </trkpt>
      <trkpt lat="44.13541" lon="0.6229">
        <ele>85</ele>
        <time>2025-08-10T07:54:58.696Z</time>
      </trkpt>
      <trkpt lat="44.13541" lon="0.6229">
        <ele>85</ele>
        <time>2025-08-10T07:54:59.696Z</time>
      </trkpt>
      <trkpt lat="44.13541" lon="0.62289">
        <ele>85</ele>
        <time>2025-08-10T07:55:00.696Z</time>
      </trkpt>
      <trkpt lat="44.13542" lon="0.62288">
        <ele>85</ele>
        <time>2025-08-10T07:55:01.696Z</time>
      </trkpt>
      <trkpt lat="44.13542" lon="0.62287">
        <ele>86</ele>
        <time>2025-08-10T07:55:02.696Z</time>
      </trkpt>
      <trkpt lat="44.13542" lon="0.62286">
        <ele>86</ele>
        <time>2025-08-10T07:55:03.696Z</time>
      </trkpt>
      <trkpt lat="44.13542" lon="0.62286">
        <ele>86</ele>
        <time>2025-08-10T07:55:04.696Z</time>
      </trkpt>
      <trkpt lat="44.13542" lon="0.62286">
        <ele>86</ele>
        <time>2025-08-10T07:55:05.696Z</time>
      </trkpt>
      <trkpt lat="44.13543" lon="0.62286">
        <ele>86</ele>
        <time>2025-08-10T07:55:06.696Z</time>
      </trkpt>
      <trkpt lat="44.13543" lon="0.62286">
        <ele>86</ele>
        <time>2025-08-10T07:55:07.696Z</time>
      </trkpt>
      <trkpt lat="44.13543" lon="0.62286">
        <ele>86</ele>
        <time>2025-08-10T07:55:08.696Z</time>
      </trkpt>
      <trkpt lat="44.13543" lon="0.62286">
        <ele>86</ele>
        <time>2025-08-10T07:55:09.696Z</time>
      </trkpt>
      <trkpt lat="44.13542" lon="0.62285">
        <ele>86</ele>
        <time>2025-08-10T07:55:10.696Z</time>
      </trkpt>
      <trkpt lat="44.13541" lon="0.62285">
        <ele>85</ele>
        <time>2025-08-10T07:55:11.696Z</time>
      </trkpt>
      <trkpt lat="44.13541" lon="0.62286">
        <ele>86</ele>
        <time>2025-08-10T07:55:12.696Z</time>
      </trkpt>
      <trkpt lat="44.13541" lon="0.62287">
        <ele>86</ele>
        <time>2025-08-10T07:55:13.696Z</time>
      </trkpt>
      <trkpt lat="44.13541" lon="0.62287">
        <ele>87</ele>
        <time>2025-08-10T07:55:14.696Z</time>
      </trkpt>
      <trkpt lat="44.13541" lon="0.62287">
        <ele>87</ele>
        <time>2025-08-10T07:55:15.696Z</time>
      </trkpt>
      <trkpt lat="44.13541" lon="0.62286">
        <ele>88</ele>
        <time>2025-08-10T07:55:16.696Z</time>
      </trkpt>
      <trkpt lat="44.13541" lon="0.62287">
        <ele>88</ele>
        <time>2025-08-10T07:55:17.696Z</time>
      </trkpt>
      <trkpt lat="44.13541" lon="0.62287">
        <ele>89</ele>
        <time>2025-08-10T07:55:18.696Z</time>
      </trkpt>
      <trkpt lat="44.13541" lon="0.62287">
        <ele>89</ele>
        <time>2025-08-10T07:55:19.696Z</time>
      </trkpt>
      <trkpt lat="44.13541" lon="0.62287">
        <ele>89</ele>
        <time>2025-08-10T07:55:20.696Z</time>
      </trkpt>
      <trkpt lat="44.13541" lon="0.62286">
        <ele>89</ele>
        <time>2025-08-10T07:55:21.696Z</time>
      </trkpt>
      <trkpt lat="44.13541" lon="0.62286">
        <ele>89</ele>
        <time>2025-08-10T07:55:22.696Z</time>
      </trkpt>
      <trkpt lat="44.13541" lon="0.62286">
        <ele>90</ele>
        <time>2025-08-10T07:55:23.696Z</time>
      </trkpt>
      <trkpt lat="44.13541" lon="0.62286">
        <ele>90</ele>
        <time>2025-08-10T07:55:24.696Z</time>
      </trkpt>
      <trkpt lat="44.13541" lon="0.62286">
        <ele>90</ele>
        <time>2025-08-10T07:55:25.696Z</time>
      </trkpt>
      <trkpt lat="44.13541" lon="0.62286">
        <ele>90</ele>
        <time>2025-08-10T07:55:26.696Z</time>
      </trkpt>
      <trkpt lat="44.13541" lon="0.62286">
        <ele>90</ele>
        <time>2025-08-10T07:55:27.696Z</time>
      </trkpt>
      <trkpt lat="44.13541" lon="0.62287">
        <ele>90</ele>
        <time>2025-08-10T07:55:28.696Z</time>
      </trkpt>
      <trkpt lat="44.13541" lon="0.62287">
        <ele>90</ele>
        <time>2025-08-10T07:55:29.696Z</time>
      </trkpt>
      <trkpt lat="44.13542" lon="0.62287">
        <ele>89</ele>
        <time>2025-08-10T07:55:30.696Z</time>
      </trkpt>
      <trkpt lat="44.13542" lon="0.62287">
        <ele>89</ele>
        <time>2025-08-10T07:55:31.697Z</time>
      </trkpt>
      <trkpt lat="44.13542" lon="0.62287">
        <ele>88</ele>
        <time>2025-08-10T07:55:32.696Z</time>
      </trkpt>
      <trkpt lat="44.13542" lon="0.62287">
        <ele>88</ele>
        <time>2025-08-10T07:55:33.696Z</time>
      </trkpt>
      <trkpt lat="44.13542" lon="0.62287">
        <ele>87</ele>
        <time>2025-08-10T07:55:34.696Z</time>
      </trkpt>
      <trkpt lat="44.13542" lon="0.62287">
        <ele>86</ele>
        <time>2025-08-10T07:55:35.696Z</time>
      </trkpt>
      <trkpt lat="44.13542" lon="0.62287">
        <ele>86</ele>
        <time>2025-08-10T07:55:36.696Z</time>
      </trkpt>
      <trkpt lat="44.13542" lon="0.62287">
        <ele>85</ele>
        <time>2025-08-10T07:55:37.696Z</time>
      </trkpt>
      <trkpt lat="44.13542" lon="0.62287">
        <ele>85</ele>
        <time>2025-08-10T07:55:38.696Z</time>
      </trkpt>
      <trkpt lat="44.13542" lon="0.62287">
        <ele>85</ele>
        <time>2025-08-10T07:55:39.696Z</time>
      </trkpt>
      <trkpt lat="44.13542" lon="0.62287">
        <ele>85</ele>
        <time>2025-08-10T07:55:40.696Z</time>
      </trkpt>
      <trkpt lat="44.13542" lon="0.62287">
        <ele>85</ele>
        <time>2025-08-10T07:55:41.696Z</time>
      </trkpt>
      <trkpt lat="44.13542" lon="0.62287">
        <ele>85</ele>
        <time>2025-08-10T07:55:42.696Z</time>
      </trkpt>
      <trkpt lat="44.13542" lon="0.62287">
        <ele>85</ele>
        <time>2025-08-10T07:55:43.696Z</time>
      </trkpt>
      <trkpt lat="44.13542" lon="0.62287">
        <ele>85</ele>
        <time>2025-08-10T07:55:44.696Z</time>
      </trkpt>
      <trkpt lat="44.13542" lon="0.62287">
        <ele>85</ele>
        <time>2025-08-10T07:55:45.696Z</time>
      </trkpt>
      <trkpt lat="44.13542" lon="0.62287">
        <ele>85</ele>
        <time>2025-08-10T07:55:46.696Z</time>
      </trkpt>
      <trkpt lat="44.13542" lon="0.62287">
        <ele>84</ele>
        <time>2025-08-10T07:55:47.696Z</time>
      </trkpt>
      <trkpt lat="44.13542" lon="0.62287">
        <ele>84</ele>
        <time>2025-08-10T07:55:48.696Z</time>
      </trkpt>
      <trkpt lat="44.13542" lon="0.62287">
        <ele>83</ele>
        <time>2025-08-10T07:55:49.696Z</time>
      </trkpt>
      <trkpt lat="44.13542" lon="0.62287">
        <ele>83</ele>
        <time>2025-08-10T07:55:50.696Z</time>
      </trkpt>
      <trkpt lat="44.13542" lon="0.62287">
        <ele>82</ele>
        <time>2025-08-10T07:55:51.696Z</time>
      </trkpt>
      <trkpt lat="44.13542" lon="0.62287">
        <ele>82</ele>
        <time>2025-08-10T07:55:52.696Z</time>
      </trkpt>
      <trkpt lat="44.13542" lon="0.62287">
        <ele>81</ele>
        <time>2025-08-10T07:55:53.696Z</time>
      </trkpt>
      <trkpt lat="44.13542" lon="0.62287">
        <ele>81</ele>
        <time>2025-08-10T07:55:54.696Z</time>
      </trkpt>
      <trkpt lat="44.13542" lon="0.62287">
        <ele>81</ele>
        <time>2025-08-10T07:55:55.696Z</time>
      </trkpt>
      <trkpt lat="44.13542" lon="0.62287">
        <ele>81</ele>
        <time>2025-08-10T07:55:56.696Z</time>
      </trkpt>
      <trkpt lat="44.13542" lon="0.62287">
        <ele>81</ele>
        <time>2025-08-10T07:55:57.696Z</time>
      </trkpt>
      <trkpt lat="44.13542" lon="0.62287">
        <ele>81</ele>
        <time>2025-08-10T07:55:58.696Z</time>
      </trkpt>
      <trkpt lat="44.13542" lon="0.62287">
        <ele>81</ele>
        <time>2025-08-10T07:55:59.696Z</time>
      </trkpt>
      <trkpt lat="44.13542" lon="0.62287">
        <ele>81</ele>
        <time>2025-08-10T07:56:00.696Z</time>
      </trkpt>
      <trkpt lat="44.13542" lon="0.62287">
        <ele>81</ele>
        <time>2025-08-10T07:56:01.696Z</time>
      </trkpt>
      <trkpt lat="44.13542" lon="0.62287">
        <ele>81</ele>
        <time>2025-08-10T07:56:02.697Z</time>
      </trkpt>
      <trkpt lat="44.13542" lon="0.62287">
        <ele>81</ele>
        <time>2025-08-10T07:56:03.696Z</time>
      </trkpt>
      <trkpt lat="44.13542" lon="0.62287">
        <ele>81</ele>
        <time>2025-08-10T07:56:04.696Z</time>
      </trkpt>
      <trkpt lat="44.13542" lon="0.62287">
        <ele>81</ele>
        <time>2025-08-10T07:56:05.696Z</time>
      </trkpt>
      <trkpt lat="44.13542" lon="0.62287">
        <ele>82</ele>
        <time>2025-08-10T07:56:06.696Z</time>
      </trkpt>
      <trkpt lat="44.13542" lon="0.62287">
        <ele>82</ele>
        <time>2025-08-10T07:56:07.696Z</time>
      </trkpt>
      <trkpt lat="44.13542" lon="0.62287">
        <ele>82</ele>
        <time>2025-08-10T07:56:08.696Z</time>
      </trkpt>
      <trkpt lat="44.13542" lon="0.62287">
        <ele>82</ele>
        <time>2025-08-10T07:56:09.696Z</time>
      </trkpt>
      <trkpt lat="44.13542" lon="0.62287">
        <ele>82</ele>
        <time>2025-08-10T07:56:10.696Z</time>
      </trkpt>
      <trkpt lat="44.13542" lon="0.62287">
        <ele>82</ele>
        <time>2025-08-10T07:56:11.696Z</time>
      </trkpt>
      <trkpt lat="44.13542" lon="0.62287">
        <ele>82</ele>
        <time>2025-08-10T07:56:12.696Z</time>
      </trkpt>
      <trkpt lat="44.13542" lon="0.62288">
        <ele>83</ele>
        <time>2025-08-10T07:56:13.696Z</time>
      </trkpt>
      <trkpt lat="44.13542" lon="0.62288">
        <ele>83</ele>
        <time>2025-08-10T07:56:14.696Z</time>
      </trkpt>
      <trkpt lat="44.13542" lon="0.62288">
        <ele>84</ele>
        <time>2025-08-10T07:56:15.696Z</time>
      </trkpt>
      <trkpt lat="44.13542" lon="0.62288">
        <ele>84</ele>
        <time>2025-08-10T07:56:16.696Z</time>
      </trkpt>
      <trkpt lat="44.13542" lon="0.62288">
        <ele>84</ele>
        <time>2025-08-10T07:56:17.696Z</time>
      </trkpt>
      <trkpt lat="44.13542" lon="0.62288">
        <ele>85</ele>
        <time>2025-08-10T07:56:18.696Z</time>
      </trkpt>
      <trkpt lat="44.13542" lon="0.62288">
        <ele>85</ele>
        <time>2025-08-10T07:56:19.696Z</time>
      </trkpt>
      <trkpt lat="44.13542" lon="0.62288">
        <ele>85</ele>
        <time>2025-08-10T07:56:20.696Z</time>
      </trkpt>
      <trkpt lat="44.13542" lon="0.62288">
        <ele>86</ele>
        <time>2025-08-10T07:56:21.696Z</time>
      </trkpt>
      <trkpt lat="44.13542" lon="0.62288">
        <ele>86</ele>
        <time>2025-08-10T07:56:22.696Z</time>
      </trkpt>
      <trkpt lat="44.13542" lon="0.62288">
        <ele>86</ele>
        <time>2025-08-10T07:56:23.696Z</time>
      </trkpt>
      <trkpt lat="44.13542" lon="0.62288">
        <ele>86</ele>
        <time>2025-08-10T07:56:24.696Z</time>
      </trkpt>
      <trkpt lat="44.13542" lon="0.62288">
        <ele>86</ele>
        <time>2025-08-10T07:56:25.696Z</time>
      </trkpt>
      <trkpt lat="44.13542" lon="0.62288">
        <ele>87</ele>
        <time>2025-08-10T07:56:26.696Z</time>
      </trkpt>
      <trkpt lat="44.13542" lon="0.62288">
        <ele>87</ele>
        <time>2025-08-10T07:56:27.696Z</time>
      </trkpt>
      <trkpt lat="44.13543" lon="0.62288">
        <ele>87</ele>
        <time>2025-08-10T07:56:28.696Z</time>
      </trkpt>
      <trkpt lat="44.13543" lon="0.62288">
        <ele>87</ele>
        <time>2025-08-10T07:56:29.696Z</time>
      </trkpt>
      <trkpt lat="44.13543" lon="0.62288">
        <ele>88</ele>
        <time>2025-08-10T07:56:30.696Z</time>
      </trkpt>
      <trkpt lat="44.13543" lon="0.62288">
        <ele>88</ele>
        <time>2025-08-10T07:56:31.696Z</time>
      </trkpt>
      <trkpt lat="44.13543" lon="0.62288">
        <ele>89</ele>
        <time>2025-08-10T07:56:32.696Z</time>
      </trkpt>
      <trkpt lat="44.13543" lon="0.62289">
        <ele>89</ele>
        <time>2025-08-10T07:56:33.696Z</time>
      </trkpt>
      <trkpt lat="44.13544" lon="0.6229">
        <ele>89</ele>
        <time>2025-08-10T07:56:34.696Z</time>
      </trkpt>
      <trkpt lat="44.13544" lon="0.62291">
        <ele>89</ele>
        <time>2025-08-10T07:56:35.696Z</time>
      </trkpt>
      <trkpt lat="44.13544" lon="0.62291">
        <ele>89</ele>
        <time>2025-08-10T07:56:36.696Z</time>
      </trkpt>
      <trkpt lat="44.13543" lon="0.62291">
        <ele>89</ele>
        <time>2025-08-10T07:56:37.696Z</time>
      </trkpt>
      <trkpt lat="44.13543" lon="0.62291">
        <ele>89</ele>
        <time>2025-08-10T07:56:38.696Z</time>
      </trkpt>
      <trkpt lat="44.13543" lon="0.62291">
        <ele>89</ele>
        <time>2025-08-10T07:56:39.696Z</time>
      </trkpt>
      <trkpt lat="44.13543" lon="0.62291">
        <ele>89</ele>
        <time>2025-08-10T07:56:40.696Z</time>
      </trkpt>
      <trkpt lat="44.13543" lon="0.62291">
        <ele>89</ele>
        <time>2025-08-10T07:56:41.696Z</time>
      </trkpt>
      <trkpt lat="44.13543" lon="0.62291">
        <ele>89</ele>
        <time>2025-08-10T07:56:42.696Z</time>
      </trkpt>
      <trkpt lat="44.13543" lon="0.62291">
        <ele>89</ele>
        <time>2025-08-10T07:56:43.696Z</time>
      </trkpt>
      <trkpt lat="44.13543" lon="0.62291">
        <ele>90</ele>
        <time>2025-08-10T07:56:44.696Z</time>
      </trkpt>
      <trkpt lat="44.13543" lon="0.62291">
        <ele>90</ele>
        <time>2025-08-10T07:56:45.696Z</time>
      </trkpt>
      <trkpt lat="44.13543" lon="0.62291">
        <ele>90</ele>
        <time>2025-08-10T07:56:46.697Z</time>
      </trkpt>
      <trkpt lat="44.13543" lon="0.62291">
        <ele>91</ele>
        <time>2025-08-10T07:56:47.696Z</time>
      </trkpt>
      <trkpt lat="44.13543" lon="0.62291">
        <ele>91</ele>
        <time>2025-08-10T07:56:48.696Z</time>
      </trkpt>
      <trkpt lat="44.13543" lon="0.62291">
        <ele>91</ele>
        <time>2025-08-10T07:56:49.696Z</time>
      </trkpt>
      <trkpt lat="44.13543" lon="0.62291">
        <ele>91</ele>
        <time>2025-08-10T07:56:50.696Z</time>
      </trkpt>
      <trkpt lat="44.13543" lon="0.62291">
        <ele>91</ele>
        <time>2025-08-10T07:56:51.696Z</time>
      </trkpt>
      <trkpt lat="44.13543" lon="0.62291">
        <ele>91</ele>
        <time>2025-08-10T07:56:52.696Z</time>
      </trkpt>
      <trkpt lat="44.13543" lon="0.62291">
        <ele>91</ele>
        <time>2025-08-10T07:56:53.696Z</time>
      </trkpt>
      <trkpt lat="44.13543" lon="0.62291">
        <ele>91</ele>
        <time>2025-08-10T07:56:54.696Z</time>
      </trkpt>
      <trkpt lat="44.13543" lon="0.62291">
        <ele>91</ele>
        <time>2025-08-10T07:56:55.696Z</time>
      </trkpt>
      <trkpt lat="44.13543" lon="0.62291">
        <ele>91</ele>
        <time>2025-08-10T07:56:56.696Z</time>
      </trkpt>
      <trkpt lat="44.13543" lon="0.62291">
        <ele>90</ele>
        <time>2025-08-10T07:56:57.696Z</time>
      </trkpt>
      <trkpt lat="44.13543" lon="0.62291">
        <ele>90</ele>
        <time>2025-08-10T07:56:58.696Z</time>
      </trkpt>
      <trkpt lat="44.13543" lon="0.62291">
        <ele>90</ele>
        <time>2025-08-10T07:56:59.696Z</time>
      </trkpt>
      <trkpt lat="44.13543" lon="0.6229">
        <ele>90</ele>
        <time>2025-08-10T07:57:00.696Z</time>
      </trkpt>
      <trkpt lat="44.13544" lon="0.6229">
        <ele>90</ele>
        <time>2025-08-10T07:57:01.696Z</time>
      </trkpt>
      <trkpt lat="44.13544" lon="0.6229">
        <ele>90</ele>
        <time>2025-08-10T07:57:02.696Z</time>
      </trkpt>
      <trkpt lat="44.13544" lon="0.6229">
        <ele>91</ele>
        <time>2025-08-10T07:57:03.696Z</time>
      </trkpt>
      <trkpt lat="44.13544" lon="0.62291">
        <ele>91</ele>
        <time>2025-08-10T07:57:04.696Z</time>
      </trkpt>
      <trkpt lat="44.13544" lon="0.62291">
        <ele>90</ele>
        <time>2025-08-10T07:57:05.696Z</time>
      </trkpt>
      <trkpt lat="44.13544" lon="0.62291">
        <ele>90</ele>
        <time>2025-08-10T07:57:06.696Z</time>
      </trkpt>
      <trkpt lat="44.13544" lon="0.62291">
        <ele>89</ele>
        <time>2025-08-10T07:57:07.696Z</time>
      </trkpt>
      <trkpt lat="44.13544" lon="0.62291">
        <ele>89</ele>
        <time>2025-08-10T07:57:08.696Z</time>
      </trkpt>
      <trkpt lat="44.13545" lon="0.62291">
        <ele>89</ele>
        <time>2025-08-10T07:57:09.696Z</time>
      </trkpt>
      <trkpt lat="44.13545" lon="0.62291">
        <ele>88</ele>
        <time>2025-08-10T07:57:10.696Z</time>
      </trkpt>
      <trkpt lat="44.13545" lon="0.62291">
        <ele>88</ele>
        <time>2025-08-10T07:57:11.696Z</time>
      </trkpt>
      <trkpt lat="44.13545" lon="0.62291">
        <ele>87</ele>
        <time>2025-08-10T07:57:12.696Z</time>
      </trkpt>
      <trkpt lat="44.13545" lon="0.62291">
        <ele>86</ele>
        <time>2025-08-10T07:57:13.696Z</time>
      </trkpt>
      <trkpt lat="44.13545" lon="0.62291">
        <ele>85</ele>
        <time>2025-08-10T07:57:14.696Z</time>
      </trkpt>
      <trkpt lat="44.13545" lon="0.62291">
        <ele>84</ele>
        <time>2025-08-10T07:57:15.696Z</time>
      </trkpt>
      <trkpt lat="44.13545" lon="0.62291">
        <ele>84</ele>
        <time>2025-08-10T07:57:16.696Z</time>
      </trkpt>
      <trkpt lat="44.13545" lon="0.62291">
        <ele>84</ele>
        <time>2025-08-10T07:57:17.696Z</time>
      </trkpt>
      <trkpt lat="44.13545" lon="0.62291">
        <ele>84</ele>
        <time>2025-08-10T07:57:18.696Z</time>
      </trkpt>
      <trkpt lat="44.13545" lon="0.62291">
        <ele>85</ele>
        <time>2025-08-10T07:57:19.696Z</time>
      </trkpt>
      <trkpt lat="44.13545" lon="0.62291">
        <ele>85</ele>
        <time>2025-08-10T07:57:20.696Z</time>
      </trkpt>
      <trkpt lat="44.13545" lon="0.62291">
        <ele>85</ele>
        <time>2025-08-10T07:57:21.696Z</time>
      </trkpt>
      <trkpt lat="44.13545" lon="0.62291">
        <ele>85</ele>
        <time>2025-08-10T07:57:22.696Z</time>
      </trkpt>
      <trkpt lat="44.13545" lon="0.62291">
        <ele>85</ele>
        <time>2025-08-10T07:57:23.696Z</time>
      </trkpt>
      <trkpt lat="44.13545" lon="0.62291">
        <ele>86</ele>
        <time>2025-08-10T07:57:24.696Z</time>
      </trkpt>
      <trkpt lat="44.13545" lon="0.62291">
        <ele>86</ele>
        <time>2025-08-10T07:57:25.696Z</time>
      </trkpt>
      <trkpt lat="44.13546" lon="0.62291">
        <ele>86</ele>
        <time>2025-08-10T07:57:26.696Z</time>
      </trkpt>
      <trkpt lat="44.13546" lon="0.62291">
        <ele>86</ele>
        <time>2025-08-10T07:57:27.696Z</time>
      </trkpt>
      <trkpt lat="44.13546" lon="0.62292">
        <ele>86</ele>
        <time>2025-08-10T07:57:28.696Z</time>
      </trkpt>
      <trkpt lat="44.13547" lon="0.62293">
        <ele>86</ele>
        <time>2025-08-10T07:57:29.696Z</time>
      </trkpt>
      <trkpt lat="44.13547" lon="0.62293">
        <ele>86</ele>
        <time>2025-08-10T07:57:30.696Z</time>
      </trkpt>
      <trkpt lat="44.13548" lon="0.62294">
        <ele>86</ele>
        <time>2025-08-10T07:57:31.696Z</time>
      </trkpt>
      <trkpt lat="44.13548" lon="0.62294">
        <ele>87</ele>
        <time>2025-08-10T07:57:32.696Z</time>
      </trkpt>
      <trkpt lat="44.13548" lon="0.62294">
        <ele>87</ele>
        <time>2025-08-10T07:57:33.696Z</time>
      </trkpt>
      <trkpt lat="44.13549" lon="0.62294">
        <ele>87</ele>
        <time>2025-08-10T07:57:34.696Z</time>
      </trkpt>
      <trkpt lat="44.13549" lon="0.62294">
        <ele>87</ele>
        <time>2025-08-10T07:57:35.696Z</time>
      </trkpt>
      <trkpt lat="44.1355" lon="0.62294">
        <ele>87</ele>
        <time>2025-08-10T07:57:36.696Z</time>
      </trkpt>
      <trkpt lat="44.1355" lon="0.62294">
        <ele>87</ele>
        <time>2025-08-10T07:57:37.696Z</time>
      </trkpt>
      <trkpt lat="44.1355" lon="0.62294">
        <ele>87</ele>
        <time>2025-08-10T07:57:38.696Z</time>
      </trkpt>
      <trkpt lat="44.13551" lon="0.62293">
        <ele>87</ele>
        <time>2025-08-10T07:57:39.696Z</time>
      </trkpt>
      <trkpt lat="44.13551" lon="0.62293">
        <ele>87</ele>
        <time>2025-08-10T07:57:40.696Z</time>
      </trkpt>
      <trkpt lat="44.13552" lon="0.62294">
        <ele>87</ele>
        <time>2025-08-10T07:57:41.696Z</time>
      </trkpt>
      <trkpt lat="44.13552" lon="0.62295">
        <ele>87</ele>
        <time>2025-08-10T07:57:42.696Z</time>
      </trkpt>
      <trkpt lat="44.13552" lon="0.62296">
        <ele>87</ele>
        <time>2025-08-10T07:57:43.696Z</time>
      </trkpt>
      <trkpt lat="44.13552" lon="0.62296">
        <ele>87</ele>
        <time>2025-08-10T07:57:44.696Z</time>
      </trkpt>
      <trkpt lat="44.13552" lon="0.62296">
        <ele>87</ele>
        <time>2025-08-10T07:57:45.696Z</time>
      </trkpt>
      <trkpt lat="44.13552" lon="0.62296">
        <ele>87</ele>
        <time>2025-08-10T07:57:46.696Z</time>
      </trkpt>
      <trkpt lat="44.13552" lon="0.62296">
        <ele>87</ele>
        <time>2025-08-10T07:57:47.696Z</time>
      </trkpt>
      <trkpt lat="44.13552" lon="0.62296">
        <ele>87</ele>
        <time>2025-08-10T07:57:48.696Z</time>
      </trkpt>
      <trkpt lat="44.13552" lon="0.62296">
        <ele>87</ele>
        <time>2025-08-10T07:57:49.696Z</time>
      </trkpt>
      <trkpt lat="44.13552" lon="0.62296">
        <ele>87</ele>
        <time>2025-08-10T07:57:50.696Z</time>
      </trkpt>
      <trkpt lat="44.13552" lon="0.62297">
        <ele>86</ele>
        <time>2025-08-10T07:57:51.696Z</time>
      </trkpt>
      <trkpt lat="44.13552" lon="0.62297">
        <ele>86</ele>
        <time>2025-08-10T07:57:52.696Z</time>
      </trkpt>
      <trkpt lat="44.13552" lon="0.62297">
        <ele>86</ele>
        <time>2025-08-10T07:57:53.696Z</time>
      </trkpt>
      <trkpt lat="44.13552" lon="0.62297">
        <ele>86</ele>
        <time>2025-08-10T07:57:54.696Z</time>
      </trkpt>
      <trkpt lat="44.13552" lon="0.62297">
        <ele>87</ele>
        <time>2025-08-10T07:57:55.696Z</time>
      </trkpt>
      <trkpt lat="44.13552" lon="0.62297">
        <ele>87</ele>
        <time>2025-08-10T07:57:56.696Z</time>
      </trkpt>
      <trkpt lat="44.13552" lon="0.62297">
        <ele>87</ele>
        <time>2025-08-10T07:57:57.696Z</time>
      </trkpt>
      <trkpt lat="44.13552" lon="0.62297">
        <ele>87</ele>
        <time>2025-08-10T07:57:58.696Z</time>
      </trkpt>
      <trkpt lat="44.13552" lon="0.62297">
        <ele>87</ele>
        <time>2025-08-10T07:57:59.696Z</time>
      </trkpt>
      <trkpt lat="44.13552" lon="0.62297">
        <ele>87</ele>
        <time>2025-08-10T07:58:00.696Z</time>
      </trkpt>
      <trkpt lat="44.13552" lon="0.62297">
        <ele>88</ele>
        <time>2025-08-10T07:58:01.696Z</time>
      </trkpt>
      <trkpt lat="44.13552" lon="0.62298">
        <ele>88</ele>
        <time>2025-08-10T07:58:02.696Z</time>
      </trkpt>
      <trkpt lat="44.13551" lon="0.62298">
        <ele>88</ele>
        <time>2025-08-10T07:58:03.696Z</time>
      </trkpt>
      <trkpt lat="44.13551" lon="0.62298">
        <ele>88</ele>
        <time>2025-08-10T07:58:04.696Z</time>
      </trkpt>
      <trkpt lat="44.13551" lon="0.62298">
        <ele>88</ele>
        <time>2025-08-10T07:58:05.696Z</time>
      </trkpt>
      <trkpt lat="44.13552" lon="0.62298">
        <ele>88</ele>
        <time>2025-08-10T07:58:06.696Z</time>
      </trkpt>
      <trkpt lat="44.13552" lon="0.62298">
        <ele>88</ele>
        <time>2025-08-10T07:58:07.696Z</time>
      </trkpt>
      <trkpt lat="44.13552" lon="0.62298">
        <ele>89</ele>
        <time>2025-08-10T07:58:08.696Z</time>
      </trkpt>
      <trkpt lat="44.13552" lon="0.62298">
        <ele>89</ele>
        <time>2025-08-10T07:58:09.696Z</time>
      </trkpt>
      <trkpt lat="44.13552" lon="0.62299">
        <ele>90</ele>
        <time>2025-08-10T07:58:10.696Z</time>
      </trkpt>
      <trkpt lat="44.13552" lon="0.62299">
        <ele>90</ele>
        <time>2025-08-10T07:58:11.696Z</time>
      </trkpt>
      <trkpt lat="44.13552" lon="0.62299">
        <ele>91</ele>
        <time>2025-08-10T07:58:12.696Z</time>
      </trkpt>
      <trkpt lat="44.13552" lon="0.62298">
        <ele>91</ele>
        <time>2025-08-10T07:58:13.696Z</time>
      </trkpt>
      <trkpt lat="44.13552" lon="0.62298">
        <ele>92</ele>
        <time>2025-08-10T07:58:14.696Z</time>
      </trkpt>
      <trkpt lat="44.13552" lon="0.62298">
        <ele>92</ele>
        <time>2025-08-10T07:58:15.696Z</time>
      </trkpt>
      <trkpt lat="44.13552" lon="0.62298">
        <ele>93</ele>
        <time>2025-08-10T07:58:16.696Z</time>
      </trkpt>
      <trkpt lat="44.13551" lon="0.62298">
        <ele>93</ele>
        <time>2025-08-10T07:58:17.696Z</time>
      </trkpt>
      <trkpt lat="44.13551" lon="0.62298">
        <ele>94</ele>
        <time>2025-08-10T07:58:18.696Z</time>
      </trkpt>
      <trkpt lat="44.13551" lon="0.62298">
        <ele>94</ele>
        <time>2025-08-10T07:58:19.696Z</time>
      </trkpt>
      <trkpt lat="44.13551" lon="0.62298">
        <ele>94</ele>
        <time>2025-08-10T07:58:20.696Z</time>
      </trkpt>
      <trkpt lat="44.13551" lon="0.62297">
        <ele>95</ele>
        <time>2025-08-10T07:58:21.696Z</time>
      </trkpt>
      <trkpt lat="44.13551" lon="0.62296">
        <ele>95</ele>
        <time>2025-08-10T07:58:22.696Z</time>
      </trkpt>
      <trkpt lat="44.13551" lon="0.62296">
        <ele>96</ele>
        <time>2025-08-10T07:58:23.696Z</time>
      </trkpt>
      <trkpt lat="44.1355" lon="0.62296">
        <ele>96</ele>
        <time>2025-08-10T07:58:24.696Z</time>
      </trkpt>
      <trkpt lat="44.1355" lon="0.62295">
        <ele>96</ele>
        <time>2025-08-10T07:58:25.696Z</time>
      </trkpt>
      <trkpt lat="44.1355" lon="0.62294">
        <ele>97</ele>
        <time>2025-08-10T07:58:26.696Z</time>
      </trkpt>
      <trkpt lat="44.1355" lon="0.62295">
        <ele>97</ele>
        <time>2025-08-10T07:58:27.696Z</time>
      </trkpt>
      <trkpt lat="44.13549" lon="0.62295">
        <ele>97</ele>
        <time>2025-08-10T07:58:28.696Z</time>
      </trkpt>
      <trkpt lat="44.13549" lon="0.62295">
        <ele>97</ele>
        <time>2025-08-10T07:58:29.696Z</time>
      </trkpt>
      <trkpt lat="44.13549" lon="0.62295">
        <ele>97</ele>
        <time>2025-08-10T07:58:30.696Z</time>
      </trkpt>
      <trkpt lat="44.13549" lon="0.62295">
        <ele>96</ele>
        <time>2025-08-10T07:58:31.696Z</time>
      </trkpt>
      <trkpt lat="44.13549" lon="0.62295">
        <ele>96</ele>
        <time>2025-08-10T07:58:32.696Z</time>
      </trkpt>
      <trkpt lat="44.13549" lon="0.62295">
        <ele>96</ele>
        <time>2025-08-10T07:58:33.696Z</time>
      </trkpt>
      <trkpt lat="44.13548" lon="0.62294">
        <ele>95</ele>
        <time>2025-08-10T07:58:34.696Z</time>
      </trkpt>
      <trkpt lat="44.13548" lon="0.62293">
        <ele>95</ele>
        <time>2025-08-10T07:58:35.696Z</time>
      </trkpt>
      <trkpt lat="44.13548" lon="0.62292">
        <ele>95</ele>
        <time>2025-08-10T07:58:36.696Z</time>
      </trkpt>
      <trkpt lat="44.13548" lon="0.62291">
        <ele>95</ele>
        <time>2025-08-10T07:58:37.696Z</time>
      </trkpt>
      <trkpt lat="44.13548" lon="0.6229">
        <ele>95</ele>
        <time>2025-08-10T07:58:38.696Z</time>
      </trkpt>
      <trkpt lat="44.13548" lon="0.62288">
        <ele>95</ele>
        <time>2025-08-10T07:58:39.696Z</time>
      </trkpt>
      <trkpt lat="44.13548" lon="0.62286">
        <ele>95</ele>
        <time>2025-08-10T07:58:40.696Z</time>
      </trkpt>
      <trkpt lat="44.13549" lon="0.62285">
        <ele>94</ele>
        <time>2025-08-10T07:58:41.696Z</time>
      </trkpt>
      <trkpt lat="44.13549" lon="0.62283">
        <ele>94</ele>
        <time>2025-08-10T07:58:42.696Z</time>
      </trkpt>
      <trkpt lat="44.1355" lon="0.62283">
        <ele>94</ele>
        <time>2025-08-10T07:58:43.696Z</time>
      </trkpt>
      <trkpt lat="44.1355" lon="0.62282">
        <ele>93</ele>
        <time>2025-08-10T07:58:44.696Z</time>
      </trkpt>
      <trkpt lat="44.1355" lon="0.62282">
        <ele>93</ele>
        <time>2025-08-10T07:58:45.696Z</time>
      </trkpt>
      <trkpt lat="44.13551" lon="0.62282">
        <ele>92</ele>
        <time>2025-08-10T07:58:46.696Z</time>
      </trkpt>
      <trkpt lat="44.13551" lon="0.62281">
        <ele>92</ele>
        <time>2025-08-10T07:58:47.696Z</time>
      </trkpt>
      <trkpt lat="44.13552" lon="0.6228">
        <ele>92</ele>
        <time>2025-08-10T07:58:48.696Z</time>
      </trkpt>
      <trkpt lat="44.13552" lon="0.6228">
        <ele>91</ele>
        <time>2025-08-10T07:58:49.696Z</time>
      </trkpt>
      <trkpt lat="44.13552" lon="0.62279">
        <ele>91</ele>
        <time>2025-08-10T07:58:50.696Z</time>
      </trkpt>
      <trkpt lat="44.13552" lon="0.62278">
        <ele>91</ele>
        <time>2025-08-10T07:58:51.696Z</time>
      </trkpt>
      <trkpt lat="44.13552" lon="0.62277">
        <ele>91</ele>
        <time>2025-08-10T07:58:52.696Z</time>
      </trkpt>
      <trkpt lat="44.13553" lon="0.62276">
        <ele>91</ele>
        <time>2025-08-10T07:58:53.696Z</time>
      </trkpt>
      <trkpt lat="44.13553" lon="0.62275">
        <ele>90</ele>
        <time>2025-08-10T07:58:54.696Z</time>
      </trkpt>
      <trkpt lat="44.13554" lon="0.62274">
        <ele>90</ele>
        <time>2025-08-10T07:58:55.696Z</time>
      </trkpt>
      <trkpt lat="44.13554" lon="0.62273">
        <ele>90</ele>
        <time>2025-08-10T07:58:56.696Z</time>
      </trkpt>
      <trkpt lat="44.13555" lon="0.62272">
        <ele>90</ele>
        <time>2025-08-10T07:58:57.696Z</time>
      </trkpt>
      <trkpt lat="44.13555" lon="0.6227">
        <ele>90</ele>
        <time>2025-08-10T07:58:58.696Z</time>
      </trkpt>
      <trkpt lat="44.13555" lon="0.62269">
        <ele>90</ele>
        <time>2025-08-10T07:58:59.696Z</time>
      </trkpt>
      <trkpt lat="44.13556" lon="0.62268">
        <ele>89</ele>
        <time>2025-08-10T07:59:00.696Z</time>
      </trkpt>
      <trkpt lat="44.13556" lon="0.62266">
        <ele>89</ele>
        <time>2025-08-10T07:59:01.697Z</time>
      </trkpt>
      <trkpt lat="44.13556" lon="0.62265">
        <ele>89</ele>
        <time>2025-08-10T07:59:02.696Z</time>
      </trkpt>
      <trkpt lat="44.13556" lon="0.62264">
        <ele>88</ele>
        <time>2025-08-10T07:59:03.696Z</time>
      </trkpt>
      <trkpt lat="44.13556" lon="0.62263">
        <ele>88</ele>
        <time>2025-08-10T07:59:04.696Z</time>
      </trkpt>
      <trkpt lat="44.13556" lon="0.62262">
        <ele>87</ele>
        <time>2025-08-10T07:59:05.696Z</time>
      </trkpt>
      <trkpt lat="44.13556" lon="0.62261">
        <ele>87</ele>
        <time>2025-08-10T07:59:06.696Z</time>
      </trkpt>
      <trkpt lat="44.13557" lon="0.6226">
        <ele>87</ele>
        <time>2025-08-10T07:59:07.696Z</time>
      </trkpt>
      <trkpt lat="44.13557" lon="0.62259">
        <ele>86</ele>
        <time>2025-08-10T07:59:08.696Z</time>
      </trkpt>
      <trkpt lat="44.13557" lon="0.62258">
        <ele>86</ele>
        <time>2025-08-10T07:59:09.696Z</time>
      </trkpt>
      <trkpt lat="44.13557" lon="0.62257">
        <ele>86</ele>
        <time>2025-08-10T07:59:10.696Z</time>
      </trkpt>
      <trkpt lat="44.13557" lon="0.62256">
        <ele>86</ele>
        <time>2025-08-10T07:59:11.696Z</time>
      </trkpt>
      <trkpt lat="44.13558" lon="0.62254">
        <ele>86</ele>
        <time>2025-08-10T07:59:12.696Z</time>
      </trkpt>
      <trkpt lat="44.13558" lon="0.62253">
        <ele>87</ele>
        <time>2025-08-10T07:59:13.696Z</time>
      </trkpt>
      <trkpt lat="44.13558" lon="0.62252">
        <ele>87</ele>
        <time>2025-08-10T07:59:14.696Z</time>
      </trkpt>
      <trkpt lat="44.13559" lon="0.62251">
        <ele>87</ele>
        <time>2025-08-10T07:59:15.696Z</time>
      </trkpt>
      <trkpt lat="44.13559" lon="0.6225">
        <ele>88</ele>
        <time>2025-08-10T07:59:16.696Z</time>
      </trkpt>
      <trkpt lat="44.1356" lon="0.62249">
        <ele>88</ele>
        <time>2025-08-10T07:59:17.696Z</time>
      </trkpt>
      <trkpt lat="44.1356" lon="0.62247">
        <ele>88</ele>
        <time>2025-08-10T07:59:18.696Z</time>
      </trkpt>
      <trkpt lat="44.13561" lon="0.62246">
        <ele>88</ele>
        <time>2025-08-10T07:59:19.696Z</time>
      </trkpt>
      <trkpt lat="44.13561" lon="0.62245">
        <ele>88</ele>
        <time>2025-08-10T07:59:20.696Z</time>
      </trkpt>
      <trkpt lat="44.13562" lon="0.62244">
        <ele>88</ele>
        <time>2025-08-10T07:59:21.696Z</time>
      </trkpt>
      <trkpt lat="44.13562" lon="0.62243">
        <ele>88</ele>
        <time>2025-08-10T07:59:22.696Z</time>
      </trkpt>
      <trkpt lat="44.13563" lon="0.62242">
        <ele>87</ele>
        <time>2025-08-10T07:59:23.696Z</time>
      </trkpt>
      <trkpt lat="44.13564" lon="0.6224">
        <ele>87</ele>
        <time>2025-08-10T07:59:24.696Z</time>
      </trkpt>
      <trkpt lat="44.13565" lon="0.62239">
        <ele>87</ele>
        <time>2025-08-10T07:59:25.696Z</time>
      </trkpt>
      <trkpt lat="44.13566" lon="0.62238">
        <ele>87</ele>
        <time>2025-08-10T07:59:26.696Z</time>
      </trkpt>
      <trkpt lat="44.13567" lon="0.62237">
        <ele>86</ele>
        <time>2025-08-10T07:59:27.696Z</time>
      </trkpt>
      <trkpt lat="44.13569" lon="0.62236">
        <ele>86</ele>
        <time>2025-08-10T07:59:28.696Z</time>
      </trkpt>
      <trkpt lat="44.1357" lon="0.62235">
        <ele>86</ele>
        <time>2025-08-10T07:59:29.696Z</time>
      </trkpt>
      <trkpt lat="44.13571" lon="0.62233">
        <ele>86</ele>
        <time>2025-08-10T07:59:30.696Z</time>
      </trkpt>
      <trkpt lat="44.13571" lon="0.62232">
        <ele>86</ele>
        <time>2025-08-10T07:59:31.696Z</time>
      </trkpt>
      <trkpt lat="44.13572" lon="0.6223">
        <ele>86</ele>
        <time>2025-08-10T07:59:32.696Z</time>
      </trkpt>
      <trkpt lat="44.13573" lon="0.62228">
        <ele>86</ele>
        <time>2025-08-10T07:59:33.696Z</time>
      </trkpt>
      <trkpt lat="44.13574" lon="0.62227">
        <ele>85</ele>
        <time>2025-08-10T07:59:34.696Z</time>
      </trkpt>
      <trkpt lat="44.13575" lon="0.62226">
        <ele>85</ele>
        <time>2025-08-10T07:59:35.696Z</time>
      </trkpt>
      <trkpt lat="44.13576" lon="0.62226">
        <ele>85</ele>
        <time>2025-08-10T07:59:36.696Z</time>
      </trkpt>
      <trkpt lat="44.13577" lon="0.62225">
        <ele>85</ele>
        <time>2025-08-10T07:59:37.696Z</time>
      </trkpt>
      <trkpt lat="44.13578" lon="0.62224">
        <ele>85</ele>
        <time>2025-08-10T07:59:38.696Z</time>
      </trkpt>
      <trkpt lat="44.13578" lon="0.62223">
        <ele>85</ele>
        <time>2025-08-10T07:59:39.696Z</time>
      </trkpt>
      <trkpt lat="44.13579" lon="0.62221">
        <ele>84</ele>
        <time>2025-08-10T07:59:40.696Z</time>
      </trkpt>
      <trkpt lat="44.1358" lon="0.6222">
        <ele>84</ele>
        <time>2025-08-10T07:59:41.696Z</time>
      </trkpt>
      <trkpt lat="44.13581" lon="0.62219">
        <ele>84</ele>
        <time>2025-08-10T07:59:42.696Z</time>
      </trkpt>
      <trkpt lat="44.13581" lon="0.62217">
        <ele>84</ele>
        <time>2025-08-10T07:59:43.696Z</time>
      </trkpt>
      <trkpt lat="44.13582" lon="0.62216">
        <ele>84</ele>
        <time>2025-08-10T07:59:44.696Z</time>
      </trkpt>
      <trkpt lat="44.13583" lon="0.62215">
        <ele>83</ele>
        <time>2025-08-10T07:59:45.696Z</time>
      </trkpt>
      <trkpt lat="44.13583" lon="0.62214">
        <ele>83</ele>
        <time>2025-08-10T07:59:46.696Z</time>
      </trkpt>
      <trkpt lat="44.13584" lon="0.62213">
        <ele>83</ele>
        <time>2025-08-10T07:59:47.696Z</time>
      </trkpt>
      <trkpt lat="44.13584" lon="0.62211">
        <ele>83</ele>
        <time>2025-08-10T07:59:48.696Z</time>
      </trkpt>
      <trkpt lat="44.13584" lon="0.6221">
        <ele>82</ele>
        <time>2025-08-10T07:59:49.696Z</time>
      </trkpt>
      <trkpt lat="44.13584" lon="0.62209">
        <ele>82</ele>
        <time>2025-08-10T07:59:50.696Z</time>
      </trkpt>
      <trkpt lat="44.13584" lon="0.62208">
        <ele>82</ele>
        <time>2025-08-10T07:59:51.696Z</time>
      </trkpt>
      <trkpt lat="44.13584" lon="0.62207">
        <ele>82</ele>
        <time>2025-08-10T07:59:52.696Z</time>
      </trkpt>
      <trkpt lat="44.13584" lon="0.62206">
        <ele>81</ele>
        <time>2025-08-10T07:59:53.696Z</time>
      </trkpt>
      <trkpt lat="44.13585" lon="0.62206">
        <ele>81</ele>
        <time>2025-08-10T07:59:54.696Z</time>
      </trkpt>
      <trkpt lat="44.13585" lon="0.62206">
        <ele>81</ele>
        <time>2025-08-10T07:59:55.696Z</time>
      </trkpt>
      <trkpt lat="44.13585" lon="0.62206">
        <ele>81</ele>
        <time>2025-08-10T07:59:56.696Z</time>
      </trkpt>
      <trkpt lat="44.13585" lon="0.62206">
        <ele>81</ele>
        <time>2025-08-10T07:59:57.696Z</time>
      </trkpt>
      <trkpt lat="44.13585" lon="0.62204">
        <ele>81</ele>
        <time>2025-08-10T07:59:58.696Z</time>
      </trkpt>
      <trkpt lat="44.13585" lon="0.62203">
        <ele>81</ele>
        <time>2025-08-10T07:59:59.696Z</time>
      </trkpt>
      <trkpt lat="44.13585" lon="0.62202">
        <ele>82</ele>
        <time>2025-08-10T08:00:00.696Z</time>
      </trkpt>
      <trkpt lat="44.13585" lon="0.62202">
        <ele>82</ele>
        <time>2025-08-10T08:00:01.696Z</time>
      </trkpt>
      <trkpt lat="44.13585" lon="0.62201">
        <ele>82</ele>
        <time>2025-08-10T08:00:02.696Z</time>
      </trkpt>
      <trkpt lat="44.13585" lon="0.62201">
        <ele>82</ele>
        <time>2025-08-10T08:00:03.696Z</time>
      </trkpt>
      <trkpt lat="44.13585" lon="0.622">
        <ele>82</ele>
        <time>2025-08-10T08:00:04.696Z</time>
      </trkpt>
      <trkpt lat="44.13586" lon="0.62199">
        <ele>82</ele>
        <time>2025-08-10T08:00:05.696Z</time>
      </trkpt>
      <trkpt lat="44.13586" lon="0.62198">
        <ele>81</ele>
        <time>2025-08-10T08:00:06.696Z</time>
      </trkpt>
      <trkpt lat="44.13587" lon="0.62198">
        <ele>81</ele>
        <time>2025-08-10T08:00:07.696Z</time>
      </trkpt>
      <trkpt lat="44.13587" lon="0.62197">
        <ele>81</ele>
        <time>2025-08-10T08:00:08.696Z</time>
      </trkpt>
      <trkpt lat="44.13587" lon="0.62196">
        <ele>80</ele>
        <time>2025-08-10T08:00:09.696Z</time>
      </trkpt>
      <trkpt lat="44.13587" lon="0.62195">
        <ele>80</ele>
        <time>2025-08-10T08:00:10.696Z</time>
      </trkpt>
      <trkpt lat="44.13587" lon="0.62194">
        <ele>79</ele>
        <time>2025-08-10T08:00:11.696Z</time>
      </trkpt>
      <trkpt lat="44.13587" lon="0.62194">
        <ele>78</ele>
        <time>2025-08-10T08:00:12.696Z</time>
      </trkpt>
      <trkpt lat="44.13587" lon="0.62193">
        <ele>77</ele>
        <time>2025-08-10T08:00:13.696Z</time>
      </trkpt>
      <trkpt lat="44.13587" lon="0.62193">
        <ele>77</ele>
        <time>2025-08-10T08:00:14.696Z</time>
      </trkpt>
      <trkpt lat="44.13587" lon="0.62193">
        <ele>76</ele>
        <time>2025-08-10T08:00:15.696Z</time>
      </trkpt>
      <trkpt lat="44.13587" lon="0.62192">
        <ele>76</ele>
        <time>2025-08-10T08:00:16.696Z</time>
      </trkpt>
      <trkpt lat="44.13587" lon="0.62192">
        <ele>76</ele>
        <time>2025-08-10T08:00:17.696Z</time>
      </trkpt>
      <trkpt lat="44.13587" lon="0.62192">
        <ele>75</ele>
        <time>2025-08-10T08:00:18.696Z</time>
      </trkpt>
      <trkpt lat="44.13587" lon="0.62192">
        <ele>75</ele>
        <time>2025-08-10T08:00:19.696Z</time>
      </trkpt>
      <trkpt lat="44.13587" lon="0.62191">
        <ele>75</ele>
        <time>2025-08-10T08:00:20.696Z</time>
      </trkpt>
      <trkpt lat="44.13587" lon="0.62191">
        <ele>75</ele>
        <time>2025-08-10T08:00:21.696Z</time>
      </trkpt>
      <trkpt lat="44.13587" lon="0.62191">
        <ele>74</ele>
        <time>2025-08-10T08:00:22.696Z</time>
      </trkpt>
      <trkpt lat="44.13587" lon="0.62191">
        <ele>74</ele>
        <time>2025-08-10T08:00:23.696Z</time>
      </trkpt>
      <trkpt lat="44.13587" lon="0.62191">
        <ele>74</ele>
        <time>2025-08-10T08:00:24.696Z</time>
      </trkpt>
      <trkpt lat="44.13588" lon="0.62191">
        <ele>74</ele>
        <time>2025-08-10T08:00:25.696Z</time>
      </trkpt>
      <trkpt lat="44.13588" lon="0.62191">
        <ele>73</ele>
        <time>2025-08-10T08:00:26.696Z</time>
      </trkpt>
      <trkpt lat="44.13588" lon="0.62191">
        <ele>73</ele>
        <time>2025-08-10T08:00:27.696Z</time>
      </trkpt>
      <trkpt lat="44.13588" lon="0.62191">
        <ele>73</ele>
        <time>2025-08-10T08:00:28.696Z</time>
      </trkpt>
      <trkpt lat="44.13588" lon="0.62191">
        <ele>72</ele>
        <time>2025-08-10T08:00:29.696Z</time>
      </trkpt>
      <trkpt lat="44.13588" lon="0.62191">
        <ele>71</ele>
        <time>2025-08-10T08:00:30.696Z</time>
      </trkpt>
      <trkpt lat="44.13588" lon="0.6219">
        <ele>70</ele>
        <time>2025-08-10T08:00:31.696Z</time>
      </trkpt>
      <trkpt lat="44.13588" lon="0.6219">
        <ele>69</ele>
        <time>2025-08-10T08:00:32.696Z</time>
      </trkpt>
      <trkpt lat="44.13588" lon="0.6219">
        <ele>69</ele>
        <time>2025-08-10T08:00:33.696Z</time>
      </trkpt>
      <trkpt lat="44.13588" lon="0.6219">
        <ele>68</ele>
        <time>2025-08-10T08:00:34.696Z</time>
      </trkpt>
      <trkpt lat="44.13588" lon="0.6219">
        <ele>68</ele>
        <time>2025-08-10T08:00:35.696Z</time>
      </trkpt>
      <trkpt lat="44.13588" lon="0.62189">
        <ele>68</ele>
        <time>2025-08-10T08:00:36.696Z</time>
      </trkpt>
      <trkpt lat="44.13588" lon="0.62189">
        <ele>68</ele>
        <time>2025-08-10T08:00:37.696Z</time>
      </trkpt>
      <trkpt lat="44.13588" lon="0.62189">
        <ele>68</ele>
        <time>2025-08-10T08:00:38.696Z</time>
      </trkpt>
      <trkpt lat="44.13588" lon="0.62189">
        <ele>68</ele>
        <time>2025-08-10T08:00:39.696Z</time>
      </trkpt>
      <trkpt lat="44.13588" lon="0.62189">
        <ele>69</ele>
        <time>2025-08-10T08:00:40.696Z</time>
      </trkpt>
      <trkpt lat="44.13587" lon="0.6219">
        <ele>69</ele>
        <time>2025-08-10T08:00:41.696Z</time>
      </trkpt>
      <trkpt lat="44.13587" lon="0.62189">
        <ele>70</ele>
        <time>2025-08-10T08:00:42.696Z</time>
      </trkpt>
      <trkpt lat="44.13587" lon="0.62189">
        <ele>70</ele>
        <time>2025-08-10T08:00:43.696Z</time>
      </trkpt>
      <trkpt lat="44.13587" lon="0.62189">
        <ele>71</ele>
        <time>2025-08-10T08:00:44.696Z</time>
      </trkpt>
      <trkpt lat="44.13587" lon="0.62189">
        <ele>71</ele>
        <time>2025-08-10T08:00:45.696Z</time>
      </trkpt>
      <trkpt lat="44.13587" lon="0.6219">
        <ele>72</ele>
        <time>2025-08-10T08:00:46.696Z</time>
      </trkpt>
      <trkpt lat="44.13587" lon="0.62189">
        <ele>72</ele>
        <time>2025-08-10T08:00:47.696Z</time>
      </trkpt>
      <trkpt lat="44.13586" lon="0.62189">
        <ele>72</ele>
        <time>2025-08-10T08:00:48.696Z</time>
      </trkpt>
      <trkpt lat="44.13586" lon="0.62189">
        <ele>72</ele>
        <time>2025-08-10T08:00:49.696Z</time>
      </trkpt>
      <trkpt lat="44.13586" lon="0.62189">
        <ele>72</ele>
        <time>2025-08-10T08:00:50.696Z</time>
      </trkpt>
      <trkpt lat="44.13586" lon="0.6219">
        <ele>72</ele>
        <time>2025-08-10T08:00:51.696Z</time>
      </trkpt>
      <trkpt lat="44.13585" lon="0.6219">
        <ele>72</ele>
        <time>2025-08-10T08:00:52.696Z</time>
      </trkpt>
      <trkpt lat="44.13585" lon="0.62191">
        <ele>72</ele>
        <time>2025-08-10T08:00:53.696Z</time>
      </trkpt>
      <trkpt lat="44.13584" lon="0.62191">
        <ele>72</ele>
        <time>2025-08-10T08:00:54.696Z</time>
      </trkpt>
      <trkpt lat="44.13583" lon="0.62191">
        <ele>72</ele>
        <time>2025-08-10T08:00:55.696Z</time>
      </trkpt>
      <trkpt lat="44.13582" lon="0.62191">
        <ele>72</ele>
        <time>2025-08-10T08:00:56.696Z</time>
      </trkpt>
      <trkpt lat="44.13582" lon="0.62191">
        <ele>72</ele>
        <time>2025-08-10T08:00:57.696Z</time>
      </trkpt>
      <trkpt lat="44.13582" lon="0.62191">
        <ele>72</ele>
        <time>2025-08-10T08:00:58.696Z</time>
      </trkpt>
      <trkpt lat="44.13582" lon="0.62191">
        <ele>71</ele>
        <time>2025-08-10T08:00:59.696Z</time>
      </trkpt>
      <trkpt lat="44.13582" lon="0.62191">
        <ele>71</ele>
        <time>2025-08-10T08:01:00.696Z</time>
      </trkpt>
      <trkpt lat="44.13581" lon="0.62192">
        <ele>71</ele>
        <time>2025-08-10T08:01:01.696Z</time>
      </trkpt>
      <trkpt lat="44.13581" lon="0.62193">
        <ele>70</ele>
        <time>2025-08-10T08:01:02.696Z</time>
      </trkpt>
      <trkpt lat="44.13581" lon="0.62193">
        <ele>70</ele>
        <time>2025-08-10T08:01:03.696Z</time>
      </trkpt>
      <trkpt lat="44.13581" lon="0.62194">
        <ele>69</ele>
        <time>2025-08-10T08:01:04.696Z</time>
      </trkpt>
      <trkpt lat="44.13581" lon="0.62195">
        <ele>69</ele>
        <time>2025-08-10T08:01:05.696Z</time>
      </trkpt>
      <trkpt lat="44.13581" lon="0.62196">
        <ele>69</ele>
        <time>2025-08-10T08:01:06.696Z</time>
      </trkpt>
      <trkpt lat="44.1358" lon="0.62196">
        <ele>68</ele>
        <time>2025-08-10T08:01:07.696Z</time>
      </trkpt>
      <trkpt lat="44.1358" lon="0.62197">
        <ele>68</ele>
        <time>2025-08-10T08:01:08.696Z</time>
      </trkpt>
      <trkpt lat="44.13579" lon="0.62197">
        <ele>68</ele>
        <time>2025-08-10T08:01:09.696Z</time>
      </trkpt>
      <trkpt lat="44.13579" lon="0.62197">
        <ele>68</ele>
        <time>2025-08-10T08:01:10.696Z</time>
      </trkpt>
      <trkpt lat="44.13579" lon="0.62196">
        <ele>68</ele>
        <time>2025-08-10T08:01:11.696Z</time>
      </trkpt>
      <trkpt lat="44.1358" lon="0.62197">
        <ele>68</ele>
        <time>2025-08-10T08:01:12.696Z</time>
      </trkpt>
      <trkpt lat="44.1358" lon="0.62197">
        <ele>68</ele>
        <time>2025-08-10T08:01:13.696Z</time>
      </trkpt>
      <trkpt lat="44.13579" lon="0.62198">
        <ele>68</ele>
        <time>2025-08-10T08:01:14.696Z</time>
      </trkpt>
      <trkpt lat="44.13579" lon="0.622">
        <ele>68</ele>
        <time>2025-08-10T08:01:15.696Z</time>
      </trkpt>
      <trkpt lat="44.13579" lon="0.62201">
        <ele>67</ele>
        <time>2025-08-10T08:01:16.696Z</time>
      </trkpt>
      <trkpt lat="44.13579" lon="0.62203">
        <ele>67</ele>
        <time>2025-08-10T08:01:17.696Z</time>
      </trkpt>
      <trkpt lat="44.13579" lon="0.62204">
        <ele>67</ele>
        <time>2025-08-10T08:01:18.696Z</time>
      </trkpt>
      <trkpt lat="44.13578" lon="0.62206">
        <ele>67</ele>
        <time>2025-08-10T08:01:19.696Z</time>
      </trkpt>
      <trkpt lat="44.13578" lon="0.62206">
        <ele>67</ele>
        <time>2025-08-10T08:01:20.696Z</time>
      </trkpt>
      <trkpt lat="44.13578" lon="0.62208">
        <ele>68</ele>
        <time>2025-08-10T08:01:21.696Z</time>
      </trkpt>
      <trkpt lat="44.13578" lon="0.6221">
        <ele>68</ele>
        <time>2025-08-10T08:01:22.696Z</time>
      </trkpt>
      <trkpt lat="44.13578" lon="0.62212">
        <ele>69</ele>
        <time>2025-08-10T08:01:23.696Z</time>
      </trkpt>
      <trkpt lat="44.13576" lon="0.62215">
        <ele>69</ele>
        <time>2025-08-10T08:01:24.696Z</time>
      </trkpt>
      <trkpt lat="44.13576" lon="0.62216">
        <ele>70</ele>
        <time>2025-08-10T08:01:25.696Z</time>
      </trkpt>
      <trkpt lat="44.13575" lon="0.62218">
        <ele>70</ele>
        <time>2025-08-10T08:01:26.696Z</time>
      </trkpt>
      <trkpt lat="44.13574" lon="0.6222">
        <ele>70</ele>
        <time>2025-08-10T08:01:27.696Z</time>
      </trkpt>
      <trkpt lat="44.13573" lon="0.62221">
        <ele>71</ele>
        <time>2025-08-10T08:01:28.696Z</time>
      </trkpt>
      <trkpt lat="44.13572" lon="0.62222">
        <ele>71</ele>
        <time>2025-08-10T08:01:29.696Z</time>
      </trkpt>
      <trkpt lat="44.13571" lon="0.62222">
        <ele>71</ele>
        <time>2025-08-10T08:01:30.696Z</time>
      </trkpt>
      <trkpt lat="44.1357" lon="0.62223">
        <ele>71</ele>
        <time>2025-08-10T08:01:31.696Z</time>
      </trkpt>
      <trkpt lat="44.13568" lon="0.62225">
        <ele>71</ele>
        <time>2025-08-10T08:01:32.696Z</time>
      </trkpt>
      <trkpt lat="44.13566" lon="0.62226">
        <ele>71</ele>
        <time>2025-08-10T08:01:33.696Z</time>
      </trkpt>
      <trkpt lat="44.13564" lon="0.62228">
        <ele>71</ele>
        <time>2025-08-10T08:01:34.696Z</time>
      </trkpt>
      <trkpt lat="44.13563" lon="0.62229">
        <ele>71</ele>
        <time>2025-08-10T08:01:35.696Z</time>
      </trkpt>
      <trkpt lat="44.13562" lon="0.62229">
        <ele>71</ele>
        <time>2025-08-10T08:01:36.696Z</time>
      </trkpt>
      <trkpt lat="44.13561" lon="0.62229">
        <ele>71</ele>
        <time>2025-08-10T08:01:37.696Z</time>
      </trkpt>
      <trkpt lat="44.1356" lon="0.62229">
        <ele>72</ele>
        <time>2025-08-10T08:01:38.696Z</time>
      </trkpt>
      <trkpt lat="44.13559" lon="0.6223">
        <ele>72</ele>
        <time>2025-08-10T08:01:39.696Z</time>
      </trkpt>
      <trkpt lat="44.13558" lon="0.62231">
        <ele>73</ele>
        <time>2025-08-10T08:01:40.696Z</time>
      </trkpt>
      <trkpt lat="44.13557" lon="0.62232">
        <ele>73</ele>
        <time>2025-08-10T08:01:41.696Z</time>
      </trkpt>
      <trkpt lat="44.13555" lon="0.62233">
        <ele>74</ele>
        <time>2025-08-10T08:01:42.696Z</time>
      </trkpt>
      <trkpt lat="44.13555" lon="0.62233">
        <ele>74</ele>
        <time>2025-08-10T08:01:43.696Z</time>
      </trkpt>
      <trkpt lat="44.13554" lon="0.62233">
        <ele>75</ele>
        <time>2025-08-10T08:01:44.696Z</time>
      </trkpt>
      <trkpt lat="44.13553" lon="0.62233">
        <ele>75</ele>
        <time>2025-08-10T08:01:45.696Z</time>
      </trkpt>
      <trkpt lat="44.13552" lon="0.62233">
        <ele>75</ele>
        <time>2025-08-10T08:01:46.696Z</time>
      </trkpt>
      <trkpt lat="44.13551" lon="0.62233">
        <ele>75</ele>
        <time>2025-08-10T08:01:47.696Z</time>
      </trkpt>
      <trkpt lat="44.1355" lon="0.62234">
        <ele>74</ele>
        <time>2025-08-10T08:01:48.696Z</time>
      </trkpt>
      <trkpt lat="44.13549" lon="0.62235">
        <ele>74</ele>
        <time>2025-08-10T08:01:49.696Z</time>
      </trkpt>
      <trkpt lat="44.13548" lon="0.62237">
        <ele>74</ele>
        <time>2025-08-10T08:01:50.696Z</time>
      </trkpt>
      <trkpt lat="44.13547" lon="0.62237">
        <ele>74</ele>
        <time>2025-08-10T08:01:51.696Z</time>
      </trkpt>
      <trkpt lat="44.13546" lon="0.62237">
        <ele>74</ele>
        <time>2025-08-10T08:01:52.696Z</time>
      </trkpt>
      <trkpt lat="44.13545" lon="0.62236">
        <ele>74</ele>
        <time>2025-08-10T08:01:53.696Z</time>
      </trkpt>
      <trkpt lat="44.13544" lon="0.62236">
        <ele>74</ele>
        <time>2025-08-10T08:01:54.696Z</time>
      </trkpt>
      <trkpt lat="44.13543" lon="0.62236">
        <ele>74</ele>
        <time>2025-08-10T08:01:55.696Z</time>
      </trkpt>
      <trkpt lat="44.13542" lon="0.62236">
        <ele>74</ele>
        <time>2025-08-10T08:01:56.696Z</time>
      </trkpt>
      <trkpt lat="44.13541" lon="0.62236">
        <ele>74</ele>
        <time>2025-08-10T08:01:57.696Z</time>
      </trkpt>
      <trkpt lat="44.13539" lon="0.62237">
        <ele>74</ele>
        <time>2025-08-10T08:01:58.696Z</time>
      </trkpt>
      <trkpt lat="44.13539" lon="0.62238">
        <ele>74</ele>
        <time>2025-08-10T08:01:59.696Z</time>
      </trkpt>
      <trkpt lat="44.13538" lon="0.62239">
        <ele>74</ele>
        <time>2025-08-10T08:02:00.696Z</time>
      </trkpt>
      <trkpt lat="44.13538" lon="0.6224">
        <ele>73</ele>
        <time>2025-08-10T08:02:01.696Z</time>
      </trkpt>
      <trkpt lat="44.13537" lon="0.6224">
        <ele>73</ele>
        <time>2025-08-10T08:02:02.696Z</time>
      </trkpt>
      <trkpt lat="44.13535" lon="0.62241">
        <ele>73</ele>
        <time>2025-08-10T08:02:03.696Z</time>
      </trkpt>
      <trkpt lat="44.13534" lon="0.62241">
        <ele>73</ele>
        <time>2025-08-10T08:02:04.696Z</time>
      </trkpt>
      <trkpt lat="44.13533" lon="0.62242">
        <ele>73</ele>
        <time>2025-08-10T08:02:05.696Z</time>
      </trkpt>
      <trkpt lat="44.13532" lon="0.62242">
        <ele>72</ele>
        <time>2025-08-10T08:02:06.696Z</time>
      </trkpt>
      <trkpt lat="44.13531" lon="0.62243">
        <ele>72</ele>
        <time>2025-08-10T08:02:07.696Z</time>
      </trkpt>
      <trkpt lat="44.1353" lon="0.62243">
        <ele>72</ele>
        <time>2025-08-10T08:02:08.696Z</time>
      </trkpt>
      <trkpt lat="44.13528" lon="0.62243">
        <ele>72</ele>
        <time>2025-08-10T08:02:09.696Z</time>
      </trkpt>
      <trkpt lat="44.13527" lon="0.62244">
        <ele>73</ele>
        <time>2025-08-10T08:02:10.696Z</time>
      </trkpt>
      <trkpt lat="44.13526" lon="0.62244">
        <ele>73</ele>
        <time>2025-08-10T08:02:11.696Z</time>
      </trkpt>
      <trkpt lat="44.13525" lon="0.62244">
        <ele>73</ele>
        <time>2025-08-10T08:02:12.696Z</time>
      </trkpt>
      <trkpt lat="44.13525" lon="0.62245">
        <ele>74</ele>
        <time>2025-08-10T08:02:13.696Z</time>
      </trkpt>
      <trkpt lat="44.13524" lon="0.62245">
        <ele>74</ele>
        <time>2025-08-10T08:02:14.696Z</time>
      </trkpt>
      <trkpt lat="44.13524" lon="0.62245">
        <ele>74</ele>
        <time>2025-08-10T08:02:15.696Z</time>
      </trkpt>
      <trkpt lat="44.13523" lon="0.62246">
        <ele>74</ele>
        <time>2025-08-10T08:02:16.696Z</time>
      </trkpt>
      <trkpt lat="44.13523" lon="0.62246">
        <ele>74</ele>
        <time>2025-08-10T08:02:17.696Z</time>
      </trkpt>
      <trkpt lat="44.13522" lon="0.62247">
        <ele>75</ele>
        <time>2025-08-10T08:02:18.696Z</time>
      </trkpt>
      <trkpt lat="44.13521" lon="0.62247">
        <ele>75</ele>
        <time>2025-08-10T08:02:19.696Z</time>
      </trkpt>
      <trkpt lat="44.13521" lon="0.62247">
        <ele>75</ele>
        <time>2025-08-10T08:02:20.696Z</time>
      </trkpt>
      <trkpt lat="44.1352" lon="0.62248">
        <ele>75</ele>
        <time>2025-08-10T08:02:21.696Z</time>
      </trkpt>
      <trkpt lat="44.13519" lon="0.62249">
        <ele>75</ele>
        <time>2025-08-10T08:02:22.696Z</time>
      </trkpt>
      <trkpt lat="44.13519" lon="0.6225">
        <ele>76</ele>
        <time>2025-08-10T08:02:23.696Z</time>
      </trkpt>
      <trkpt lat="44.13518" lon="0.6225">
        <ele>76</ele>
        <time>2025-08-10T08:02:24.696Z</time>
      </trkpt>
      <trkpt lat="44.13518" lon="0.62251">
        <ele>75</ele>
        <time>2025-08-10T08:02:25.696Z</time>
      </trkpt>
      <trkpt lat="44.13517" lon="0.62252">
        <ele>75</ele>
        <time>2025-08-10T08:02:26.696Z</time>
      </trkpt>
      <trkpt lat="44.13516" lon="0.62252">
        <ele>75</ele>
        <time>2025-08-10T08:02:27.696Z</time>
      </trkpt>
      <trkpt lat="44.13515" lon="0.62253">
        <ele>75</ele>
        <time>2025-08-10T08:02:28.696Z</time>
      </trkpt>
      <trkpt lat="44.13514" lon="0.62254">
        <ele>75</ele>
        <time>2025-08-10T08:02:29.696Z</time>
      </trkpt>
      <trkpt lat="44.13514" lon="0.62254">
        <ele>75</ele>
        <time>2025-08-10T08:02:30.696Z</time>
      </trkpt>
      <trkpt lat="44.13513" lon="0.62255">
        <ele>75</ele>
        <time>2025-08-10T08:02:31.696Z</time>
      </trkpt>
      <trkpt lat="44.13512" lon="0.62257">
        <ele>75</ele>
        <time>2025-08-10T08:02:32.696Z</time>
      </trkpt>
      <trkpt lat="44.13512" lon="0.62257">
        <ele>75</ele>
        <time>2025-08-10T08:02:33.696Z</time>
      </trkpt>
      <trkpt lat="44.13512" lon="0.62258">
        <ele>75</ele>
        <time>2025-08-10T08:02:34.696Z</time>
      </trkpt>
      <trkpt lat="44.13512" lon="0.6226">
        <ele>75</ele>
        <time>2025-08-10T08:02:35.696Z</time>
      </trkpt>
      <trkpt lat="44.1351" lon="0.62262">
        <ele>75</ele>
        <time>2025-08-10T08:02:36.696Z</time>
      </trkpt>
      <trkpt lat="44.13508" lon="0.62264">
        <ele>75</ele>
        <time>2025-08-10T08:02:37.696Z</time>
      </trkpt>
      <trkpt lat="44.13507" lon="0.62264">
        <ele>75</ele>
        <time>2025-08-10T08:02:38.696Z</time>
      </trkpt>
      <trkpt lat="44.13507" lon="0.62266">
        <ele>76</ele>
        <time>2025-08-10T08:02:39.696Z</time>
      </trkpt>
      <trkpt lat="44.13506" lon="0.62267">
        <ele>76</ele>
        <time>2025-08-10T08:02:40.696Z</time>
      </trkpt>
      <trkpt lat="44.13506" lon="0.62268">
        <ele>76</ele>
        <time>2025-08-10T08:02:41.696Z</time>
      </trkpt>
      <trkpt lat="44.13505" lon="0.62269">
        <ele>77</ele>
        <time>2025-08-10T08:02:42.696Z</time>
      </trkpt>
      <trkpt lat="44.13505" lon="0.6227">
        <ele>77</ele>
        <time>2025-08-10T08:02:43.696Z</time>
      </trkpt>
      <trkpt lat="44.13505" lon="0.6227">
        <ele>77</ele>
        <time>2025-08-10T08:02:44.696Z</time>
      </trkpt>
      <trkpt lat="44.13504" lon="0.62271">
        <ele>78</ele>
        <time>2025-08-10T08:02:45.696Z</time>
      </trkpt>
      <trkpt lat="44.13504" lon="0.62271">
        <ele>78</ele>
        <time>2025-08-10T08:02:46.696Z</time>
      </trkpt>
      <trkpt lat="44.13503" lon="0.62271">
        <ele>77</ele>
        <time>2025-08-10T08:02:47.696Z</time>
      </trkpt>
      <trkpt lat="44.13502" lon="0.62271">
        <ele>77</ele>
        <time>2025-08-10T08:02:48.696Z</time>
      </trkpt>
      <trkpt lat="44.13502" lon="0.62271">
        <ele>77</ele>
        <time>2025-08-10T08:02:49.696Z</time>
      </trkpt>
      <trkpt lat="44.13501" lon="0.62271">
        <ele>77</ele>
        <time>2025-08-10T08:02:50.696Z</time>
      </trkpt>
      <trkpt lat="44.135" lon="0.62271">
        <ele>77</ele>
        <time>2025-08-10T08:02:51.696Z</time>
      </trkpt>
      <trkpt lat="44.135" lon="0.62271">
        <ele>77</ele>
        <time>2025-08-10T08:02:52.696Z</time>
      </trkpt>
      <trkpt lat="44.135" lon="0.62271">
        <ele>77</ele>
        <time>2025-08-10T08:02:53.696Z</time>
      </trkpt>
      <trkpt lat="44.13499" lon="0.62272">
        <ele>77</ele>
        <time>2025-08-10T08:02:54.696Z</time>
      </trkpt>
      <trkpt lat="44.13498" lon="0.62272">
        <ele>78</ele>
        <time>2025-08-10T08:02:55.696Z</time>
      </trkpt>
      <trkpt lat="44.13497" lon="0.62273">
        <ele>78</ele>
        <time>2025-08-10T08:02:56.696Z</time>
      </trkpt>
      <trkpt lat="44.13496" lon="0.62273">
        <ele>78</ele>
        <time>2025-08-10T08:02:57.696Z</time>
      </trkpt>
      <trkpt lat="44.13494" lon="0.62275">
        <ele>79</ele>
        <time>2025-08-10T08:02:58.696Z</time>
      </trkpt>
      <trkpt lat="44.13493" lon="0.62276">
        <ele>79</ele>
        <time>2025-08-10T08:02:59.696Z</time>
      </trkpt>
      <trkpt lat="44.13492" lon="0.62276">
        <ele>80</ele>
        <time>2025-08-10T08:03:00.696Z</time>
      </trkpt>
      <trkpt lat="44.13491" lon="0.62277">
        <ele>80</ele>
        <time>2025-08-10T08:03:01.696Z</time>
      </trkpt>
      <trkpt lat="44.1349" lon="0.62277">
        <ele>81</ele>
        <time>2025-08-10T08:03:02.696Z</time>
      </trkpt>
      <trkpt lat="44.13489" lon="0.62278">
        <ele>81</ele>
        <time>2025-08-10T08:03:03.696Z</time>
      </trkpt>
      <trkpt lat="44.13488" lon="0.62279">
        <ele>81</ele>
        <time>2025-08-10T08:03:04.696Z</time>
      </trkpt>
      <trkpt lat="44.13487" lon="0.6228">
        <ele>81</ele>
        <time>2025-08-10T08:03:05.696Z</time>
      </trkpt>
      <trkpt lat="44.13486" lon="0.6228">
        <ele>81</ele>
        <time>2025-08-10T08:03:06.697Z</time>
      </trkpt>
      <trkpt lat="44.13485" lon="0.62281">
        <ele>81</ele>
        <time>2025-08-10T08:03:07.696Z</time>
      </trkpt>
      <trkpt lat="44.13484" lon="0.62282">
        <ele>81</ele>
        <time>2025-08-10T08:03:08.696Z</time>
      </trkpt>
      <trkpt lat="44.13483" lon="0.62283">
        <ele>81</ele>
        <time>2025-08-10T08:03:09.696Z</time>
      </trkpt>
      <trkpt lat="44.13482" lon="0.62284">
        <ele>81</ele>
        <time>2025-08-10T08:03:10.696Z</time>
      </trkpt>
      <trkpt lat="44.13482" lon="0.62285">
        <ele>81</ele>
        <time>2025-08-10T08:03:11.696Z</time>
      </trkpt>
      <trkpt lat="44.13482" lon="0.62286">
        <ele>82</ele>
        <time>2025-08-10T08:03:12.696Z</time>
      </trkpt>
      <trkpt lat="44.13481" lon="0.62287">
        <ele>82</ele>
        <time>2025-08-10T08:03:13.696Z</time>
      </trkpt>
      <trkpt lat="44.13481" lon="0.62288">
        <ele>82</ele>
        <time>2025-08-10T08:03:14.696Z</time>
      </trkpt>
      <trkpt lat="44.1348" lon="0.62289">
        <ele>82</ele>
        <time>2025-08-10T08:03:15.696Z</time>
      </trkpt>
      <trkpt lat="44.13479" lon="0.6229">
        <ele>82</ele>
        <time>2025-08-10T08:03:16.696Z</time>
      </trkpt>
      <trkpt lat="44.13478" lon="0.62291">
        <ele>82</ele>
        <time>2025-08-10T08:03:17.696Z</time>
      </trkpt>
      <trkpt lat="44.13478" lon="0.62293">
        <ele>82</ele>
        <time>2025-08-10T08:03:18.696Z</time>
      </trkpt>
      <trkpt lat="44.13476" lon="0.62295">
        <ele>81</ele>
        <time>2025-08-10T08:03:19.696Z</time>
      </trkpt>
      <trkpt lat="44.13476" lon="0.62297">
        <ele>81</ele>
        <time>2025-08-10T08:03:20.696Z</time>
      </trkpt>
      <trkpt lat="44.13475" lon="0.62298">
        <ele>81</ele>
        <time>2025-08-10T08:03:21.696Z</time>
      </trkpt>
      <trkpt lat="44.13474" lon="0.62299">
        <ele>80</ele>
        <time>2025-08-10T08:03:22.696Z</time>
      </trkpt>
      <trkpt lat="44.13473" lon="0.62301">
        <ele>80</ele>
        <time>2025-08-10T08:03:23.696Z</time>
      </trkpt>
      <trkpt lat="44.13472" lon="0.62302">
        <ele>79</ele>
        <time>2025-08-10T08:03:24.696Z</time>
      </trkpt>
      <trkpt lat="44.13472" lon="0.62304">
        <ele>79</ele>
        <time>2025-08-10T08:03:25.696Z</time>
      </trkpt>
      <trkpt lat="44.1347" lon="0.62305">
        <ele>79</ele>
        <time>2025-08-10T08:03:26.696Z</time>
      </trkpt>
      <trkpt lat="44.13469" lon="0.62307">
        <ele>78</ele>
        <time>2025-08-10T08:03:27.696Z</time>
      </trkpt>
      <trkpt lat="44.13468" lon="0.62308">
        <ele>78</ele>
        <time>2025-08-10T08:03:28.696Z</time>
      </trkpt>
      <trkpt lat="44.13467" lon="0.6231">
        <ele>78</ele>
        <time>2025-08-10T08:03:29.696Z</time>
      </trkpt>
      <trkpt lat="44.13466" lon="0.62311">
        <ele>78</ele>
        <time>2025-08-10T08:03:30.696Z</time>
      </trkpt>
      <trkpt lat="44.13465" lon="0.62312">
        <ele>79</ele>
        <time>2025-08-10T08:03:31.696Z</time>
      </trkpt>
      <trkpt lat="44.13464" lon="0.62313">
        <ele>79</ele>
        <time>2025-08-10T08:03:32.696Z</time>
      </trkpt>
      <trkpt lat="44.13464" lon="0.62314">
        <ele>79</ele>
        <time>2025-08-10T08:03:33.696Z</time>
      </trkpt>
      <trkpt lat="44.13463" lon="0.62315">
        <ele>79</ele>
        <time>2025-08-10T08:03:34.696Z</time>
      </trkpt>
      <trkpt lat="44.13462" lon="0.62316">
        <ele>80</ele>
        <time>2025-08-10T08:03:35.696Z</time>
      </trkpt>
      <trkpt lat="44.13462" lon="0.62317">
        <ele>80</ele>
        <time>2025-08-10T08:03:36.696Z</time>
      </trkpt>
      <trkpt lat="44.13461" lon="0.62317">
        <ele>80</ele>
        <time>2025-08-10T08:03:37.696Z</time>
      </trkpt>
      <trkpt lat="44.13461" lon="0.62318">
        <ele>81</ele>
        <time>2025-08-10T08:03:38.696Z</time>
      </trkpt>
      <trkpt lat="44.1346" lon="0.62319">
        <ele>81</ele>
        <time>2025-08-10T08:03:39.696Z</time>
      </trkpt>
      <trkpt lat="44.1346" lon="0.62321">
        <ele>81</ele>
        <time>2025-08-10T08:03:40.696Z</time>
      </trkpt>
      <trkpt lat="44.1346" lon="0.62321">
        <ele>81</ele>
        <time>2025-08-10T08:03:41.696Z</time>
      </trkpt>
      <trkpt lat="44.13459" lon="0.62322">
        <ele>81</ele>
        <time>2025-08-10T08:03:42.696Z</time>
      </trkpt>
      <trkpt lat="44.13458" lon="0.62324">
        <ele>81</ele>
        <time>2025-08-10T08:03:43.696Z</time>
      </trkpt>
      <trkpt lat="44.13457" lon="0.62326">
        <ele>81</ele>
        <time>2025-08-10T08:03:44.696Z</time>
      </trkpt>
      <trkpt lat="44.13456" lon="0.62327">
        <ele>81</ele>
        <time>2025-08-10T08:03:45.696Z</time>
      </trkpt>
      <trkpt lat="44.13454" lon="0.62328">
        <ele>82</ele>
        <time>2025-08-10T08:03:46.696Z</time>
      </trkpt>
      <trkpt lat="44.13453" lon="0.6233">
        <ele>82</ele>
        <time>2025-08-10T08:03:47.696Z</time>
      </trkpt>
      <trkpt lat="44.13452" lon="0.62332">
        <ele>82</ele>
        <time>2025-08-10T08:03:48.696Z</time>
      </trkpt>
      <trkpt lat="44.13451" lon="0.62333">
        <ele>82</ele>
        <time>2025-08-10T08:03:49.696Z</time>
      </trkpt>
      <trkpt lat="44.13451" lon="0.62334">
        <ele>82</ele>
        <time>2025-08-10T08:03:50.696Z</time>
      </trkpt>
      <trkpt lat="44.13449" lon="0.62334">
        <ele>82</ele>
        <time>2025-08-10T08:03:51.696Z</time>
      </trkpt>
      <trkpt lat="44.13448" lon="0.62335">
        <ele>82</ele>
        <time>2025-08-10T08:03:52.696Z</time>
      </trkpt>
      <trkpt lat="44.13447" lon="0.62336">
        <ele>82</ele>
        <time>2025-08-10T08:03:53.696Z</time>
      </trkpt>
      <trkpt lat="44.13446" lon="0.62337">
        <ele>82</ele>
        <time>2025-08-10T08:03:54.696Z</time>
      </trkpt>
      <trkpt lat="44.13445" lon="0.62338">
        <ele>83</ele>
        <time>2025-08-10T08:03:55.696Z</time>
      </trkpt>
      <trkpt lat="44.13443" lon="0.62339">
        <ele>83</ele>
        <time>2025-08-10T08:03:56.696Z</time>
      </trkpt>
      <trkpt lat="44.13442" lon="0.6234">
        <ele>83</ele>
        <time>2025-08-10T08:03:57.696Z</time>
      </trkpt>
      <trkpt lat="44.13441" lon="0.6234">
        <ele>84</ele>
        <time>2025-08-10T08:03:58.696Z</time>
      </trkpt>
      <trkpt lat="44.1344" lon="0.6234">
        <ele>84</ele>
        <time>2025-08-10T08:03:59.696Z</time>
      </trkpt>
      <trkpt lat="44.13439" lon="0.62341">
        <ele>84</ele>
        <time>2025-08-10T08:04:00.696Z</time>
      </trkpt>
      <trkpt lat="44.13438" lon="0.62342">
        <ele>85</ele>
        <time>2025-08-10T08:04:01.696Z</time>
      </trkpt>
      <trkpt lat="44.13437" lon="0.62344">
        <ele>85</ele>
        <time>2025-08-10T08:04:02.696Z</time>
      </trkpt>
      <trkpt lat="44.13436" lon="0.62345">
        <ele>85</ele>
        <time>2025-08-10T08:04:03.696Z</time>
      </trkpt>
      <trkpt lat="44.13435" lon="0.62346">
        <ele>85</ele>
        <time>2025-08-10T08:04:04.696Z</time>
      </trkpt>
      <trkpt lat="44.13434" lon="0.62346">
        <ele>85</ele>
        <time>2025-08-10T08:04:05.696Z</time>
      </trkpt>
      <trkpt lat="44.13434" lon="0.62347">
        <ele>86</ele>
        <time>2025-08-10T08:04:06.696Z</time>
      </trkpt>
      <trkpt lat="44.13433" lon="0.62347">
        <ele>86</ele>
        <time>2025-08-10T08:04:07.696Z</time>
      </trkpt>
      <trkpt lat="44.13432" lon="0.62348">
        <ele>86</ele>
        <time>2025-08-10T08:04:08.696Z</time>
      </trkpt>
      <trkpt lat="44.13431" lon="0.6235">
        <ele>86</ele>
        <time>2025-08-10T08:04:09.696Z</time>
      </trkpt>
      <trkpt lat="44.1343" lon="0.62351">
        <ele>86</ele>
        <time>2025-08-10T08:04:10.696Z</time>
      </trkpt>
      <trkpt lat="44.13429" lon="0.62351">
        <ele>86</ele>
        <time>2025-08-10T08:04:11.696Z</time>
      </trkpt>
      <trkpt lat="44.13428" lon="0.62352">
        <ele>86</ele>
        <time>2025-08-10T08:04:12.696Z</time>
      </trkpt>
      <trkpt lat="44.13426" lon="0.62354">
        <ele>86</ele>
        <time>2025-08-10T08:04:13.696Z</time>
      </trkpt>
      <trkpt lat="44.13425" lon="0.62355">
        <ele>86</ele>
        <time>2025-08-10T08:04:14.696Z</time>
      </trkpt>
      <trkpt lat="44.13424" lon="0.62356">
        <ele>86</ele>
        <time>2025-08-10T08:04:15.696Z</time>
      </trkpt>
      <trkpt lat="44.13422" lon="0.62356">
        <ele>85</ele>
        <time>2025-08-10T08:04:16.696Z</time>
      </trkpt>
      <trkpt lat="44.13421" lon="0.62357">
        <ele>85</ele>
        <time>2025-08-10T08:04:17.696Z</time>
      </trkpt>
      <trkpt lat="44.1342" lon="0.62357">
        <ele>85</ele>
        <time>2025-08-10T08:04:18.696Z</time>
      </trkpt>
      <trkpt lat="44.13419" lon="0.62358">
        <ele>86</ele>
        <time>2025-08-10T08:04:19.696Z</time>
      </trkpt>
      <trkpt lat="44.13419" lon="0.62359">
        <ele>86</ele>
        <time>2025-08-10T08:04:20.696Z</time>
      </trkpt>
      <trkpt lat="44.13418" lon="0.62359">
        <ele>86</ele>
        <time>2025-08-10T08:04:21.696Z</time>
      </trkpt>
      <trkpt lat="44.13418" lon="0.6236">
        <ele>86</ele>
        <time>2025-08-10T08:04:22.696Z</time>
      </trkpt>
      <trkpt lat="44.13417" lon="0.62361">
        <ele>85</ele>
        <time>2025-08-10T08:04:23.696Z</time>
      </trkpt>
      <trkpt lat="44.13417" lon="0.62362">
        <ele>85</ele>
        <time>2025-08-10T08:04:24.696Z</time>
      </trkpt>
      <trkpt lat="44.13416" lon="0.62362">
        <ele>85</ele>
        <time>2025-08-10T08:04:25.696Z</time>
      </trkpt>
      <trkpt lat="44.13415" lon="0.62363">
        <ele>84</ele>
        <time>2025-08-10T08:04:26.696Z</time>
      </trkpt>
      <trkpt lat="44.13414" lon="0.62365">
        <ele>84</ele>
        <time>2025-08-10T08:04:27.696Z</time>
      </trkpt>
      <trkpt lat="44.13413" lon="0.62366">
        <ele>84</ele>
        <time>2025-08-10T08:04:28.696Z</time>
      </trkpt>
      <trkpt lat="44.13412" lon="0.62368">
        <ele>84</ele>
        <time>2025-08-10T08:04:29.696Z</time>
      </trkpt>
      <trkpt lat="44.13411" lon="0.62369">
        <ele>84</ele>
        <time>2025-08-10T08:04:30.696Z</time>
      </trkpt>
      <trkpt lat="44.1341" lon="0.62371">
        <ele>84</ele>
        <time>2025-08-10T08:04:31.696Z</time>
      </trkpt>
      <trkpt lat="44.13409" lon="0.62372">
        <ele>84</ele>
        <time>2025-08-10T08:04:32.696Z</time>
      </trkpt>
      <trkpt lat="44.13408" lon="0.62373">
        <ele>84</ele>
        <time>2025-08-10T08:04:33.696Z</time>
      </trkpt>
      <trkpt lat="44.13407" lon="0.62374">
        <ele>84</ele>
        <time>2025-08-10T08:04:34.696Z</time>
      </trkpt>
      <trkpt lat="44.13406" lon="0.62375">
        <ele>84</ele>
        <time>2025-08-10T08:04:35.696Z</time>
      </trkpt>
      <trkpt lat="44.13405" lon="0.62376">
        <ele>84</ele>
        <time>2025-08-10T08:04:36.696Z</time>
      </trkpt>
      <trkpt lat="44.13404" lon="0.62378">
        <ele>84</ele>
        <time>2025-08-10T08:04:37.696Z</time>
      </trkpt>
      <trkpt lat="44.13403" lon="0.62379">
        <ele>83</ele>
        <time>2025-08-10T08:04:38.696Z</time>
      </trkpt>
      <trkpt lat="44.13401" lon="0.6238">
        <ele>83</ele>
        <time>2025-08-10T08:04:39.696Z</time>
      </trkpt>
      <trkpt lat="44.13399" lon="0.62381">
        <ele>83</ele>
        <time>2025-08-10T08:04:40.696Z</time>
      </trkpt>
      <trkpt lat="44.13398" lon="0.62381">
        <ele>83</ele>
        <time>2025-08-10T08:04:41.696Z</time>
      </trkpt>
      <trkpt lat="44.13397" lon="0.62381">
        <ele>83</ele>
        <time>2025-08-10T08:04:42.696Z</time>
      </trkpt>
      <trkpt lat="44.13395" lon="0.62382">
        <ele>83</ele>
        <time>2025-08-10T08:04:43.696Z</time>
      </trkpt>
      <trkpt lat="44.13393" lon="0.62382">
        <ele>83</ele>
        <time>2025-08-10T08:04:44.696Z</time>
      </trkpt>
      <trkpt lat="44.13391" lon="0.62383">
        <ele>83</ele>
        <time>2025-08-10T08:04:45.696Z</time>
      </trkpt>
      <trkpt lat="44.13389" lon="0.62385">
        <ele>83</ele>
        <time>2025-08-10T08:04:46.696Z</time>
      </trkpt>
      <trkpt lat="44.13388" lon="0.62386">
        <ele>84</ele>
        <time>2025-08-10T08:04:47.696Z</time>
      </trkpt>
      <trkpt lat="44.13387" lon="0.62388">
        <ele>84</ele>
        <time>2025-08-10T08:04:48.696Z</time>
      </trkpt>
      <trkpt lat="44.13387" lon="0.6239">
        <ele>84</ele>
        <time>2025-08-10T08:04:49.696Z</time>
      </trkpt>
      <trkpt lat="44.13386" lon="0.62392">
        <ele>85</ele>
        <time>2025-08-10T08:04:50.696Z</time>
      </trkpt>
      <trkpt lat="44.13385" lon="0.62394">
        <ele>85</ele>
        <time>2025-08-10T08:04:51.696Z</time>
      </trkpt>
      <trkpt lat="44.13384" lon="0.62394">
        <ele>85</ele>
        <time>2025-08-10T08:04:52.696Z</time>
      </trkpt>
      <trkpt lat="44.13385" lon="0.62394">
        <ele>85</ele>
        <time>2025-08-10T08:04:53.696Z</time>
      </trkpt>
      <trkpt lat="44.13384" lon="0.62394">
        <ele>85</ele>
        <time>2025-08-10T08:04:54.696Z</time>
      </trkpt>
      <trkpt lat="44.13382" lon="0.62394">
        <ele>85</ele>
        <time>2025-08-10T08:04:55.696Z</time>
      </trkpt>
      <trkpt lat="44.13381" lon="0.62394">
        <ele>85</ele>
        <time>2025-08-10T08:04:56.696Z</time>
      </trkpt>
      <trkpt lat="44.13381" lon="0.62395">
        <ele>85</ele>
        <time>2025-08-10T08:04:57.696Z</time>
      </trkpt>
      <trkpt lat="44.1338" lon="0.62395">
        <ele>85</ele>
        <time>2025-08-10T08:04:58.696Z</time>
      </trkpt>
      <trkpt lat="44.13378" lon="0.62395">
        <ele>84</ele>
        <time>2025-08-10T08:04:59.696Z</time>
      </trkpt>
      <trkpt lat="44.13376" lon="0.62396">
        <ele>84</ele>
        <time>2025-08-10T08:05:00.696Z</time>
      </trkpt>
      <trkpt lat="44.13375" lon="0.62397">
        <ele>84</ele>
        <time>2025-08-10T08:05:01.696Z</time>
      </trkpt>
      <trkpt lat="44.13375" lon="0.62397">
        <ele>83</ele>
        <time>2025-08-10T08:05:02.696Z</time>
      </trkpt>
      <trkpt lat="44.13374" lon="0.62398">
        <ele>83</ele>
        <time>2025-08-10T08:05:03.696Z</time>
      </trkpt>
      <trkpt lat="44.13373" lon="0.62398">
        <ele>83</ele>
        <time>2025-08-10T08:05:04.696Z</time>
      </trkpt>
      <trkpt lat="44.13372" lon="0.62398">
        <ele>83</ele>
        <time>2025-08-10T08:05:05.696Z</time>
      </trkpt>
      <trkpt lat="44.13371" lon="0.62399">
        <ele>83</ele>
        <time>2025-08-10T08:05:06.696Z</time>
      </trkpt>
      <trkpt lat="44.1337" lon="0.62399">
        <ele>83</ele>
        <time>2025-08-10T08:05:07.696Z</time>
      </trkpt>
      <trkpt lat="44.1337" lon="0.62399">
        <ele>83</ele>
        <time>2025-08-10T08:05:08.696Z</time>
      </trkpt>
      <trkpt lat="44.13369" lon="0.62399">
        <ele>82</ele>
        <time>2025-08-10T08:05:09.696Z</time>
      </trkpt>
      <trkpt lat="44.13368" lon="0.62399">
        <ele>82</ele>
        <time>2025-08-10T08:05:10.696Z</time>
      </trkpt>
      <trkpt lat="44.13367" lon="0.624">
        <ele>81</ele>
        <time>2025-08-10T08:05:11.696Z</time>
      </trkpt>
      <trkpt lat="44.13366" lon="0.62401">
        <ele>81</ele>
        <time>2025-08-10T08:05:12.696Z</time>
      </trkpt>
      <trkpt lat="44.13365" lon="0.62402">
        <ele>81</ele>
        <time>2025-08-10T08:05:13.696Z</time>
      </trkpt>
      <trkpt lat="44.13364" lon="0.62402">
        <ele>81</ele>
        <time>2025-08-10T08:05:14.696Z</time>
      </trkpt>
      <trkpt lat="44.13363" lon="0.62402">
        <ele>81</ele>
        <time>2025-08-10T08:05:15.696Z</time>
      </trkpt>
      <trkpt lat="44.13363" lon="0.62402">
        <ele>81</ele>
        <time>2025-08-10T08:05:16.696Z</time>
      </trkpt>
      <trkpt lat="44.13363" lon="0.62402">
        <ele>81</ele>
        <time>2025-08-10T08:05:17.696Z</time>
      </trkpt>
      <trkpt lat="44.13363" lon="0.62402">
        <ele>81</ele>
        <time>2025-08-10T08:05:18.696Z</time>
      </trkpt>
      <trkpt lat="44.13362" lon="0.62402">
        <ele>81</ele>
        <time>2025-08-10T08:05:19.696Z</time>
      </trkpt>
      <trkpt lat="44.13362" lon="0.62402">
        <ele>81</ele>
        <time>2025-08-10T08:05:20.696Z</time>
      </trkpt>
      <trkpt lat="44.13363" lon="0.62402">
        <ele>81</ele>
        <time>2025-08-10T08:05:21.696Z</time>
      </trkpt>
      <trkpt lat="44.13363" lon="0.62402">
        <ele>81</ele>
        <time>2025-08-10T08:05:22.696Z</time>
      </trkpt>
      <trkpt lat="44.13364" lon="0.62401">
        <ele>81</ele>
        <time>2025-08-10T08:05:23.696Z</time>
      </trkpt>
      <trkpt lat="44.13364" lon="0.62401">
        <ele>81</ele>
        <time>2025-08-10T08:05:24.696Z</time>
      </trkpt>
      <trkpt lat="44.13363" lon="0.62402">
        <ele>81</ele>
        <time>2025-08-10T08:05:25.696Z</time>
      </trkpt>
      <trkpt lat="44.13363" lon="0.62402">
        <ele>81</ele>
        <time>2025-08-10T08:05:26.696Z</time>
      </trkpt>
      <trkpt lat="44.13363" lon="0.62401">
        <ele>81</ele>
        <time>2025-08-10T08:05:27.696Z</time>
      </trkpt>
      <trkpt lat="44.13363" lon="0.62401">
        <ele>81</ele>
        <time>2025-08-10T08:05:28.696Z</time>
      </trkpt>
      <trkpt lat="44.13363" lon="0.62401">
        <ele>81</ele>
        <time>2025-08-10T08:05:29.696Z</time>
      </trkpt>
      <trkpt lat="44.13363" lon="0.624">
        <ele>80</ele>
        <time>2025-08-10T08:05:30.696Z</time>
      </trkpt>
      <trkpt lat="44.13363" lon="0.624">
        <ele>80</ele>
        <time>2025-08-10T08:05:31.696Z</time>
      </trkpt>
      <trkpt lat="44.13363" lon="0.624">
        <ele>79</ele>
        <time>2025-08-10T08:05:32.696Z</time>
      </trkpt>
      <trkpt lat="44.13363" lon="0.624">
        <ele>78</ele>
        <time>2025-08-10T08:05:33.696Z</time>
      </trkpt>
      <trkpt lat="44.13363" lon="0.624">
        <ele>78</ele>
        <time>2025-08-10T08:05:34.696Z</time>
      </trkpt>
      <trkpt lat="44.13363" lon="0.624">
        <ele>78</ele>
        <time>2025-08-10T08:05:35.696Z</time>
      </trkpt>
      <trkpt lat="44.13363" lon="0.62401">
        <ele>78</ele>
        <time>2025-08-10T08:05:36.696Z</time>
      </trkpt>
      <trkpt lat="44.13363" lon="0.62401">
        <ele>78</ele>
        <time>2025-08-10T08:05:37.696Z</time>
      </trkpt>
      <trkpt lat="44.13364" lon="0.624">
        <ele>78</ele>
        <time>2025-08-10T08:05:38.696Z</time>
      </trkpt>
      <trkpt lat="44.13365" lon="0.624">
        <ele>78</ele>
        <time>2025-08-10T08:05:39.696Z</time>
      </trkpt>
      <trkpt lat="44.13365" lon="0.624">
        <ele>78</ele>
        <time>2025-08-10T08:05:40.696Z</time>
      </trkpt>
      <trkpt lat="44.13365" lon="0.624">
        <ele>77</ele>
        <time>2025-08-10T08:05:41.696Z</time>
      </trkpt>
      <trkpt lat="44.13365" lon="0.62401">
        <ele>77</ele>
        <time>2025-08-10T08:05:42.696Z</time>
      </trkpt>
      <trkpt lat="44.13365" lon="0.62401">
        <ele>77</ele>
        <time>2025-08-10T08:05:43.696Z</time>
      </trkpt>
      <trkpt lat="44.13365" lon="0.62401">
        <ele>77</ele>
        <time>2025-08-10T08:05:44.696Z</time>
      </trkpt>
      <trkpt lat="44.13365" lon="0.62401">
        <ele>77</ele>
        <time>2025-08-10T08:05:45.696Z</time>
      </trkpt>
      <trkpt lat="44.13365" lon="0.62401">
        <ele>77</ele>
        <time>2025-08-10T08:05:46.696Z</time>
      </trkpt>
      <trkpt lat="44.13365" lon="0.62401">
        <ele>77</ele>
        <time>2025-08-10T08:05:47.696Z</time>
      </trkpt>
      <trkpt lat="44.13366" lon="0.62401">
        <ele>77</ele>
        <time>2025-08-10T08:05:48.696Z</time>
      </trkpt>
      <trkpt lat="44.13366" lon="0.62401">
        <ele>77</ele>
        <time>2025-08-10T08:05:49.696Z</time>
      </trkpt>
      <trkpt lat="44.13366" lon="0.62401">
        <ele>77</ele>
        <time>2025-08-10T08:05:50.696Z</time>
      </trkpt>
      <trkpt lat="44.13366" lon="0.62401">
        <ele>77</ele>
        <time>2025-08-10T08:05:51.696Z</time>
      </trkpt>
      <trkpt lat="44.13366" lon="0.62401">
        <ele>77</ele>
        <time>2025-08-10T08:05:52.696Z</time>
      </trkpt>
      <trkpt lat="44.13366" lon="0.62402">
        <ele>77</ele>
        <time>2025-08-10T08:05:53.696Z</time>
      </trkpt>
      <trkpt lat="44.13366" lon="0.62402">
        <ele>76</ele>
        <time>2025-08-10T08:05:54.696Z</time>
      </trkpt>
      <trkpt lat="44.13366" lon="0.62401">
        <ele>77</ele>
        <time>2025-08-10T08:05:55.696Z</time>
      </trkpt>
      <trkpt lat="44.13366" lon="0.62402">
        <ele>77</ele>
        <time>2025-08-10T08:05:56.696Z</time>
      </trkpt>
      <trkpt lat="44.13365" lon="0.62402">
        <ele>77</ele>
        <time>2025-08-10T08:05:57.696Z</time>
      </trkpt>
      <trkpt lat="44.13365" lon="0.62402">
        <ele>76</ele>
        <time>2025-08-10T08:05:58.696Z</time>
      </trkpt>
      <trkpt lat="44.13365" lon="0.62402">
        <ele>76</ele>
        <time>2025-08-10T08:05:59.696Z</time>
      </trkpt>
      <trkpt lat="44.13365" lon="0.62402">
        <ele>77</ele>
        <time>2025-08-10T08:06:00.696Z</time>
      </trkpt>
      <trkpt lat="44.13364" lon="0.62402">
        <ele>77</ele>
        <time>2025-08-10T08:06:01.696Z</time>
      </trkpt>
      <trkpt lat="44.13364" lon="0.62403">
        <ele>77</ele>
        <time>2025-08-10T08:06:02.696Z</time>
      </trkpt>
      <trkpt lat="44.13364" lon="0.62402">
        <ele>77</ele>
        <time>2025-08-10T08:06:03.696Z</time>
      </trkpt>
      <trkpt lat="44.13363" lon="0.62402">
        <ele>78</ele>
        <time>2025-08-10T08:06:04.696Z</time>
      </trkpt>
      <trkpt lat="44.13363" lon="0.62402">
        <ele>78</ele>
        <time>2025-08-10T08:06:05.696Z</time>
      </trkpt>
      <trkpt lat="44.13363" lon="0.62402">
        <ele>78</ele>
        <time>2025-08-10T08:06:06.696Z</time>
      </trkpt>
      <trkpt lat="44.13363" lon="0.62402">
        <ele>77</ele>
        <time>2025-08-10T08:06:07.696Z</time>
      </trkpt>
      <trkpt lat="44.13363" lon="0.62402">
        <ele>78</ele>
        <time>2025-08-10T08:06:08.696Z</time>
      </trkpt>
      <trkpt lat="44.13362" lon="0.62403">
        <ele>78</ele>
        <time>2025-08-10T08:06:09.696Z</time>
      </trkpt>
      <trkpt lat="44.13361" lon="0.62404">
        <ele>79</ele>
        <time>2025-08-10T08:06:10.696Z</time>
      </trkpt>
      <trkpt lat="44.1336" lon="0.62405">
        <ele>80</ele>
        <time>2025-08-10T08:06:11.697Z</time>
      </trkpt>
      <trkpt lat="44.13359" lon="0.62404">
        <ele>80</ele>
        <time>2025-08-10T08:06:12.696Z</time>
      </trkpt>
      <trkpt lat="44.13358" lon="0.62404">
        <ele>81</ele>
        <time>2025-08-10T08:06:13.696Z</time>
      </trkpt>
      <trkpt lat="44.13356" lon="0.62404">
        <ele>81</ele>
        <time>2025-08-10T08:06:14.696Z</time>
      </trkpt>
      <trkpt lat="44.13356" lon="0.62404">
        <ele>81</ele>
        <time>2025-08-10T08:06:15.696Z</time>
      </trkpt>
      <trkpt lat="44.13355" lon="0.62405">
        <ele>81</ele>
        <time>2025-08-10T08:06:16.696Z</time>
      </trkpt>
      <trkpt lat="44.13355" lon="0.62406">
        <ele>81</ele>
        <time>2025-08-10T08:06:17.696Z</time>
      </trkpt>
      <trkpt lat="44.13354" lon="0.62408">
        <ele>81</ele>
        <time>2025-08-10T08:06:18.696Z</time>
      </trkpt>
      <trkpt lat="44.13353" lon="0.62409">
        <ele>81</ele>
        <time>2025-08-10T08:06:19.696Z</time>
      </trkpt>
      <trkpt lat="44.13351" lon="0.6241">
        <ele>81</ele>
        <time>2025-08-10T08:06:20.696Z</time>
      </trkpt>
      <trkpt lat="44.13351" lon="0.62411">
        <ele>81</ele>
        <time>2025-08-10T08:06:21.696Z</time>
      </trkpt>
      <trkpt lat="44.1335" lon="0.62412">
        <ele>81</ele>
        <time>2025-08-10T08:06:22.696Z</time>
      </trkpt>
      <trkpt lat="44.1335" lon="0.62413">
        <ele>81</ele>
        <time>2025-08-10T08:06:23.696Z</time>
      </trkpt>
      <trkpt lat="44.13349" lon="0.62414">
        <ele>82</ele>
        <time>2025-08-10T08:06:24.696Z</time>
      </trkpt>
      <trkpt lat="44.13349" lon="0.62415">
        <ele>82</ele>
        <time>2025-08-10T08:06:25.696Z</time>
      </trkpt>
      <trkpt lat="44.13348" lon="0.62417">
        <ele>82</ele>
        <time>2025-08-10T08:06:26.696Z</time>
      </trkpt>
      <trkpt lat="44.13346" lon="0.62418">
        <ele>83</ele>
        <time>2025-08-10T08:06:27.696Z</time>
      </trkpt>
      <trkpt lat="44.13345" lon="0.6242">
        <ele>83</ele>
        <time>2025-08-10T08:06:28.696Z</time>
      </trkpt>
      <trkpt lat="44.13345" lon="0.62421">
        <ele>83</ele>
        <time>2025-08-10T08:06:29.696Z</time>
      </trkpt>
      <trkpt lat="44.13345" lon="0.62422">
        <ele>84</ele>
        <time>2025-08-10T08:06:30.696Z</time>
      </trkpt>
      <trkpt lat="44.13343" lon="0.62422">
        <ele>85</ele>
        <time>2025-08-10T08:06:31.696Z</time>
      </trkpt>
      <trkpt lat="44.13342" lon="0.62424">
        <ele>85</ele>
        <time>2025-08-10T08:06:32.696Z</time>
      </trkpt>
      <trkpt lat="44.1334" lon="0.62424">
        <ele>85</ele>
        <time>2025-08-10T08:06:33.696Z</time>
      </trkpt>
      <trkpt lat="44.13339" lon="0.62426">
        <ele>86</ele>
        <time>2025-08-10T08:06:34.696Z</time>
      </trkpt>
      <trkpt lat="44.13338" lon="0.62428">
        <ele>86</ele>
        <time>2025-08-10T08:06:35.696Z</time>
      </trkpt>
      <trkpt lat="44.13337" lon="0.62428">
        <ele>86</ele>
        <time>2025-08-10T08:06:36.696Z</time>
      </trkpt>
      <trkpt lat="44.13335" lon="0.6243">
        <ele>86</ele>
        <time>2025-08-10T08:06:37.696Z</time>
      </trkpt>
      <trkpt lat="44.13335" lon="0.62431">
        <ele>86</ele>
        <time>2025-08-10T08:06:38.696Z</time>
      </trkpt>
      <trkpt lat="44.13334" lon="0.62432">
        <ele>86</ele>
        <time>2025-08-10T08:06:39.696Z</time>
      </trkpt>
      <trkpt lat="44.13333" lon="0.62433">
        <ele>86</ele>
        <time>2025-08-10T08:06:40.696Z</time>
      </trkpt>
      <trkpt lat="44.13333" lon="0.62434">
        <ele>86</ele>
        <time>2025-08-10T08:06:41.696Z</time>
      </trkpt>
      <trkpt lat="44.13332" lon="0.62435">
        <ele>86</ele>
        <time>2025-08-10T08:06:42.696Z</time>
      </trkpt>
      <trkpt lat="44.13331" lon="0.62437">
        <ele>86</ele>
        <time>2025-08-10T08:06:43.696Z</time>
      </trkpt>
      <trkpt lat="44.1333" lon="0.62438">
        <ele>86</ele>
        <time>2025-08-10T08:06:44.696Z</time>
      </trkpt>
      <trkpt lat="44.13329" lon="0.62439">
        <ele>86</ele>
        <time>2025-08-10T08:06:45.696Z</time>
      </trkpt>
      <trkpt lat="44.13328" lon="0.6244">
        <ele>86</ele>
        <time>2025-08-10T08:06:46.696Z</time>
      </trkpt>
      <trkpt lat="44.13327" lon="0.62441">
        <ele>86</ele>
        <time>2025-08-10T08:06:47.696Z</time>
      </trkpt>
      <trkpt lat="44.13326" lon="0.62441">
        <ele>85</ele>
        <time>2025-08-10T08:06:48.696Z</time>
      </trkpt>
      <trkpt lat="44.13325" lon="0.62442">
        <ele>85</ele>
        <time>2025-08-10T08:06:49.696Z</time>
      </trkpt>
      <trkpt lat="44.13324" lon="0.62442">
        <ele>85</ele>
        <time>2025-08-10T08:06:50.696Z</time>
      </trkpt>
      <trkpt lat="44.13323" lon="0.62443">
        <ele>84</ele>
        <time>2025-08-10T08:06:51.696Z</time>
      </trkpt>
      <trkpt lat="44.13323" lon="0.62444">
        <ele>84</ele>
        <time>2025-08-10T08:06:52.696Z</time>
      </trkpt>
      <trkpt lat="44.13321" lon="0.62444">
        <ele>84</ele>
        <time>2025-08-10T08:06:53.696Z</time>
      </trkpt>
      <trkpt lat="44.13321" lon="0.62445">
        <ele>84</ele>
        <time>2025-08-10T08:06:54.696Z</time>
      </trkpt>
      <trkpt lat="44.1332" lon="0.62446">
        <ele>83</ele>
        <time>2025-08-10T08:06:55.696Z</time>
      </trkpt>
      <trkpt lat="44.13319" lon="0.62446">
        <ele>83</ele>
        <time>2025-08-10T08:06:56.696Z</time>
      </trkpt>
      <trkpt lat="44.13318" lon="0.62447">
        <ele>83</ele>
        <time>2025-08-10T08:06:57.696Z</time>
      </trkpt>
      <trkpt lat="44.13318" lon="0.62447">
        <ele>82</ele>
        <time>2025-08-10T08:06:58.696Z</time>
      </trkpt>
      <trkpt lat="44.13317" lon="0.62448">
        <ele>82</ele>
        <time>2025-08-10T08:06:59.696Z</time>
      </trkpt>
      <trkpt lat="44.13316" lon="0.62448">
        <ele>82</ele>
        <time>2025-08-10T08:07:00.696Z</time>
      </trkpt>
      <trkpt lat="44.13315" lon="0.62449">
        <ele>82</ele>
        <time>2025-08-10T08:07:01.696Z</time>
      </trkpt>
      <trkpt lat="44.13315" lon="0.6245">
        <ele>81</ele>
        <time>2025-08-10T08:07:02.696Z</time>
      </trkpt>
      <trkpt lat="44.13314" lon="0.62451">
        <ele>81</ele>
        <time>2025-08-10T08:07:03.696Z</time>
      </trkpt>
      <trkpt lat="44.13314" lon="0.62452">
        <ele>81</ele>
        <time>2025-08-10T08:07:04.696Z</time>
      </trkpt>
      <trkpt lat="44.13313" lon="0.62452">
        <ele>81</ele>
        <time>2025-08-10T08:07:05.696Z</time>
      </trkpt>
      <trkpt lat="44.13312" lon="0.62453">
        <ele>81</ele>
        <time>2025-08-10T08:07:06.696Z</time>
      </trkpt>
      <trkpt lat="44.1331" lon="0.62453">
        <ele>80</ele>
        <time>2025-08-10T08:07:07.696Z</time>
      </trkpt>
      <trkpt lat="44.13309" lon="0.62453">
        <ele>80</ele>
        <time>2025-08-10T08:07:08.696Z</time>
      </trkpt>
      <trkpt lat="44.13307" lon="0.62455">
        <ele>80</ele>
        <time>2025-08-10T08:07:09.696Z</time>
      </trkpt>
      <trkpt lat="44.13305" lon="0.62457">
        <ele>80</ele>
        <time>2025-08-10T08:07:10.696Z</time>
      </trkpt>
      <trkpt lat="44.13304" lon="0.62458">
        <ele>81</ele>
        <time>2025-08-10T08:07:11.696Z</time>
      </trkpt>
      <trkpt lat="44.13302" lon="0.62459">
        <ele>82</ele>
        <time>2025-08-10T08:07:12.696Z</time>
      </trkpt>
      <trkpt lat="44.133" lon="0.62459">
        <ele>82</ele>
        <time>2025-08-10T08:07:13.696Z</time>
      </trkpt>
      <trkpt lat="44.13299" lon="0.62458">
        <ele>82</ele>
        <time>2025-08-10T08:07:14.696Z</time>
      </trkpt>
      <trkpt lat="44.13297" lon="0.62458">
        <ele>83</ele>
        <time>2025-08-10T08:07:15.696Z</time>
      </trkpt>
      <trkpt lat="44.13297" lon="0.62458">
        <ele>83</ele>
        <time>2025-08-10T08:07:16.696Z</time>
      </trkpt>
      <trkpt lat="44.13295" lon="0.62457">
        <ele>83</ele>
        <time>2025-08-10T08:07:17.696Z</time>
      </trkpt>
      <trkpt lat="44.13294" lon="0.62456">
        <ele>83</ele>
        <time>2025-08-10T08:07:18.696Z</time>
      </trkpt>
      <trkpt lat="44.13293" lon="0.62454">
        <ele>83</ele>
        <time>2025-08-10T08:07:19.696Z</time>
      </trkpt>
      <trkpt lat="44.13292" lon="0.62453">
        <ele>83</ele>
        <time>2025-08-10T08:07:20.696Z</time>
      </trkpt>
      <trkpt lat="44.1329" lon="0.62453">
        <ele>82</ele>
        <time>2025-08-10T08:07:21.696Z</time>
      </trkpt>
      <trkpt lat="44.13289" lon="0.62452">
        <ele>82</ele>
        <time>2025-08-10T08:07:22.696Z</time>
      </trkpt>
      <trkpt lat="44.13288" lon="0.62452">
        <ele>83</ele>
        <time>2025-08-10T08:07:23.696Z</time>
      </trkpt>
      <trkpt lat="44.13288" lon="0.62451">
        <ele>83</ele>
        <time>2025-08-10T08:07:24.696Z</time>
      </trkpt>
      <trkpt lat="44.13287" lon="0.62449">
        <ele>83</ele>
        <time>2025-08-10T08:07:25.696Z</time>
      </trkpt>
      <trkpt lat="44.13286" lon="0.62448">
        <ele>83</ele>
        <time>2025-08-10T08:07:26.696Z</time>
      </trkpt>
      <trkpt lat="44.13286" lon="0.62447">
        <ele>83</ele>
        <time>2025-08-10T08:07:27.696Z</time>
      </trkpt>
      <trkpt lat="44.13285" lon="0.62446">
        <ele>84</ele>
        <time>2025-08-10T08:07:28.696Z</time>
      </trkpt>
      <trkpt lat="44.13284" lon="0.62444">
        <ele>84</ele>
        <time>2025-08-10T08:07:29.696Z</time>
      </trkpt>
      <trkpt lat="44.13283" lon="0.62443">
        <ele>84</ele>
        <time>2025-08-10T08:07:30.696Z</time>
      </trkpt>
      <trkpt lat="44.13282" lon="0.62442">
        <ele>85</ele>
        <time>2025-08-10T08:07:31.696Z</time>
      </trkpt>
      <trkpt lat="44.13282" lon="0.62441">
        <ele>85</ele>
        <time>2025-08-10T08:07:32.696Z</time>
      </trkpt>
      <trkpt lat="44.13281" lon="0.6244">
        <ele>85</ele>
        <time>2025-08-10T08:07:33.696Z</time>
      </trkpt>
      <trkpt lat="44.1328" lon="0.62439">
        <ele>85</ele>
        <time>2025-08-10T08:07:34.696Z</time>
      </trkpt>
      <trkpt lat="44.1328" lon="0.62438">
        <ele>86</ele>
        <time>2025-08-10T08:07:35.696Z</time>
      </trkpt>
      <trkpt lat="44.13279" lon="0.62437">
        <ele>86</ele>
        <time>2025-08-10T08:07:36.696Z</time>
      </trkpt>
      <trkpt lat="44.13279" lon="0.62437">
        <ele>86</ele>
        <time>2025-08-10T08:07:37.696Z</time>
      </trkpt>
      <trkpt lat="44.13279" lon="0.62436">
        <ele>86</ele>
        <time>2025-08-10T08:07:38.696Z</time>
      </trkpt>
      <trkpt lat="44.13278" lon="0.62436">
        <ele>86</ele>
        <time>2025-08-10T08:07:39.696Z</time>
      </trkpt>
      <trkpt lat="44.13278" lon="0.62435">
        <ele>87</ele>
        <time>2025-08-10T08:07:40.696Z</time>
      </trkpt>
      <trkpt lat="44.13277" lon="0.62435">
        <ele>87</ele>
        <time>2025-08-10T08:07:41.696Z</time>
      </trkpt>
      <trkpt lat="44.13277" lon="0.62435">
        <ele>88</ele>
        <time>2025-08-10T08:07:42.696Z</time>
      </trkpt>
      <trkpt lat="44.13277" lon="0.62435">
        <ele>88</ele>
        <time>2025-08-10T08:07:43.696Z</time>
      </trkpt>
      <trkpt lat="44.13277" lon="0.62434">
        <ele>88</ele>
        <time>2025-08-10T08:07:44.696Z</time>
      </trkpt>
      <trkpt lat="44.13277" lon="0.62434">
        <ele>88</ele>
        <time>2025-08-10T08:07:45.696Z</time>
      </trkpt>
      <trkpt lat="44.13277" lon="0.62434">
        <ele>88</ele>
        <time>2025-08-10T08:07:46.696Z</time>
      </trkpt>
      <trkpt lat="44.13276" lon="0.62434">
        <ele>89</ele>
        <time>2025-08-10T08:07:47.696Z</time>
      </trkpt>
      <trkpt lat="44.13276" lon="0.62434">
        <ele>89</ele>
        <time>2025-08-10T08:07:48.696Z</time>
      </trkpt>
      <trkpt lat="44.13276" lon="0.62434">
        <ele>89</ele>
        <time>2025-08-10T08:07:49.696Z</time>
      </trkpt>
      <trkpt lat="44.13275" lon="0.62434">
        <ele>90</ele>
        <time>2025-08-10T08:07:50.696Z</time>
      </trkpt>
      <trkpt lat="44.13275" lon="0.62433">
        <ele>91</ele>
        <time>2025-08-10T08:07:51.696Z</time>
      </trkpt>
      <trkpt lat="44.13275" lon="0.62433">
        <ele>91</ele>
        <time>2025-08-10T08:07:52.696Z</time>
      </trkpt>
      <trkpt lat="44.13275" lon="0.62433">
        <ele>92</ele>
        <time>2025-08-10T08:07:53.696Z</time>
      </trkpt>
      <trkpt lat="44.13274" lon="0.62433">
        <ele>92</ele>
        <time>2025-08-10T08:07:54.696Z</time>
      </trkpt>
      <trkpt lat="44.13274" lon="0.62433">
        <ele>93</ele>
        <time>2025-08-10T08:07:55.696Z</time>
      </trkpt>
      <trkpt lat="44.13274" lon="0.62432">
        <ele>93</ele>
        <time>2025-08-10T08:07:56.696Z</time>
      </trkpt>
      <trkpt lat="44.13274" lon="0.62432">
        <ele>93</ele>
        <time>2025-08-10T08:07:57.696Z</time>
      </trkpt>
      <trkpt lat="44.13274" lon="0.62432">
        <ele>93</ele>
        <time>2025-08-10T08:07:58.696Z</time>
      </trkpt>
      <trkpt lat="44.13274" lon="0.62432">
        <ele>93</ele>
        <time>2025-08-10T08:07:59.696Z</time>
      </trkpt>
      <trkpt lat="44.13274" lon="0.62432">
        <ele>93</ele>
        <time>2025-08-10T08:08:00.696Z</time>
      </trkpt>
      <trkpt lat="44.13274" lon="0.62432">
        <ele>93</ele>
        <time>2025-08-10T08:08:01.696Z</time>
      </trkpt>
      <trkpt lat="44.13274" lon="0.62432">
        <ele>93</ele>
        <time>2025-08-10T08:08:02.696Z</time>
      </trkpt>
      <trkpt lat="44.13274" lon="0.62432">
        <ele>93</ele>
        <time>2025-08-10T08:08:03.697Z</time>
      </trkpt>
      <trkpt lat="44.13274" lon="0.62433">
        <ele>93</ele>
        <time>2025-08-10T08:08:04.696Z</time>
      </trkpt>
      <trkpt lat="44.13274" lon="0.62433">
        <ele>93</ele>
        <time>2025-08-10T08:08:05.696Z</time>
      </trkpt>
      <trkpt lat="44.13274" lon="0.62433">
        <ele>93</ele>
        <time>2025-08-10T08:08:06.696Z</time>
      </trkpt>
      <trkpt lat="44.13274" lon="0.62433">
        <ele>92</ele>
        <time>2025-08-10T08:08:07.696Z</time>
      </trkpt>
      <trkpt lat="44.13274" lon="0.62433">
        <ele>91</ele>
        <time>2025-08-10T08:08:08.696Z</time>
      </trkpt>
      <trkpt lat="44.13273" lon="0.62433">
        <ele>90</ele>
        <time>2025-08-10T08:08:09.696Z</time>
      </trkpt>
      <trkpt lat="44.13272" lon="0.62433">
        <ele>90</ele>
        <time>2025-08-10T08:08:10.696Z</time>
      </trkpt>
      <trkpt lat="44.13271" lon="0.62433">
        <ele>90</ele>
        <time>2025-08-10T08:08:11.696Z</time>
      </trkpt>
      <trkpt lat="44.1327" lon="0.62432">
        <ele>90</ele>
        <time>2025-08-10T08:08:12.696Z</time>
      </trkpt>
      <trkpt lat="44.13269" lon="0.62431">
        <ele>89</ele>
        <time>2025-08-10T08:08:13.696Z</time>
      </trkpt>
      <trkpt lat="44.13268" lon="0.62431">
        <ele>89</ele>
        <time>2025-08-10T08:08:14.696Z</time>
      </trkpt>
      <trkpt lat="44.13266" lon="0.62432">
        <ele>89</ele>
        <time>2025-08-10T08:08:15.696Z</time>
      </trkpt>
      <trkpt lat="44.13265" lon="0.62431">
        <ele>89</ele>
        <time>2025-08-10T08:08:16.696Z</time>
      </trkpt>
      <trkpt lat="44.13264" lon="0.6243">
        <ele>89</ele>
        <time>2025-08-10T08:08:17.696Z</time>
      </trkpt>
      <trkpt lat="44.13263" lon="0.6243">
        <ele>89</ele>
        <time>2025-08-10T08:08:18.696Z</time>
      </trkpt>
      <trkpt lat="44.13262" lon="0.62429">
        <ele>88</ele>
        <time>2025-08-10T08:08:19.696Z</time>
      </trkpt>
      <trkpt lat="44.1326" lon="0.62429">
        <ele>88</ele>
        <time>2025-08-10T08:08:20.696Z</time>
      </trkpt>
      <trkpt lat="44.1326" lon="0.62428">
        <ele>88</ele>
        <time>2025-08-10T08:08:21.696Z</time>
      </trkpt>
      <trkpt lat="44.13258" lon="0.62427">
        <ele>88</ele>
        <time>2025-08-10T08:08:22.696Z</time>
      </trkpt>
      <trkpt lat="44.13257" lon="0.62427">
        <ele>87</ele>
        <time>2025-08-10T08:08:23.696Z</time>
      </trkpt>
      <trkpt lat="44.13256" lon="0.62427">
        <ele>87</ele>
        <time>2025-08-10T08:08:24.696Z</time>
      </trkpt>
      <trkpt lat="44.13255" lon="0.62426">
        <ele>88</ele>
        <time>2025-08-10T08:08:25.696Z</time>
      </trkpt>
      <trkpt lat="44.13254" lon="0.62425">
        <ele>88</ele>
        <time>2025-08-10T08:08:26.696Z</time>
      </trkpt>
      <trkpt lat="44.13253" lon="0.62425">
        <ele>88</ele>
        <time>2025-08-10T08:08:27.696Z</time>
      </trkpt>
      <trkpt lat="44.13252" lon="0.62425">
        <ele>88</ele>
        <time>2025-08-10T08:08:28.696Z</time>
      </trkpt>
      <trkpt lat="44.13251" lon="0.62424">
        <ele>88</ele>
        <time>2025-08-10T08:08:29.696Z</time>
      </trkpt>
      <trkpt lat="44.1325" lon="0.62424">
        <ele>88</ele>
        <time>2025-08-10T08:08:30.696Z</time>
      </trkpt>
      <trkpt lat="44.13248" lon="0.62423">
        <ele>88</ele>
        <time>2025-08-10T08:08:31.696Z</time>
      </trkpt>
      <trkpt lat="44.13247" lon="0.62422">
        <ele>89</ele>
        <time>2025-08-10T08:08:32.696Z</time>
      </trkpt>
      <trkpt lat="44.13246" lon="0.62421">
        <ele>89</ele>
        <time>2025-08-10T08:08:33.696Z</time>
      </trkpt>
      <trkpt lat="44.13245" lon="0.62421">
        <ele>89</ele>
        <time>2025-08-10T08:08:34.696Z</time>
      </trkpt>
      <trkpt lat="44.13244" lon="0.62419">
        <ele>89</ele>
        <time>2025-08-10T08:08:35.696Z</time>
      </trkpt>
      <trkpt lat="44.13243" lon="0.62419">
        <ele>89</ele>
        <time>2025-08-10T08:08:36.696Z</time>
      </trkpt>
      <trkpt lat="44.13243" lon="0.62418">
        <ele>90</ele>
        <time>2025-08-10T08:08:37.696Z</time>
      </trkpt>
      <trkpt lat="44.13241" lon="0.62417">
        <ele>90</ele>
        <time>2025-08-10T08:08:38.696Z</time>
      </trkpt>
      <trkpt lat="44.1324" lon="0.62417">
        <ele>90</ele>
        <time>2025-08-10T08:08:39.696Z</time>
      </trkpt>
      <trkpt lat="44.13239" lon="0.62417">
        <ele>90</ele>
        <time>2025-08-10T08:08:40.696Z</time>
      </trkpt>
      <trkpt lat="44.13238" lon="0.62417">
        <ele>90</ele>
        <time>2025-08-10T08:08:41.696Z</time>
      </trkpt>
      <trkpt lat="44.13237" lon="0.62416">
        <ele>90</ele>
        <time>2025-08-10T08:08:42.696Z</time>
      </trkpt>
      <trkpt lat="44.13236" lon="0.62414">
        <ele>90</ele>
        <time>2025-08-10T08:08:43.696Z</time>
      </trkpt>
      <trkpt lat="44.13234" lon="0.62412">
        <ele>90</ele>
        <time>2025-08-10T08:08:44.696Z</time>
      </trkpt>
      <trkpt lat="44.13233" lon="0.62411">
        <ele>89</ele>
        <time>2025-08-10T08:08:45.696Z</time>
      </trkpt>
      <trkpt lat="44.13232" lon="0.6241">
        <ele>90</ele>
        <time>2025-08-10T08:08:46.696Z</time>
      </trkpt>
      <trkpt lat="44.13231" lon="0.62409">
        <ele>90</ele>
        <time>2025-08-10T08:08:47.696Z</time>
      </trkpt>
      <trkpt lat="44.1323" lon="0.62409">
        <ele>90</ele>
        <time>2025-08-10T08:08:48.696Z</time>
      </trkpt>
      <trkpt lat="44.13229" lon="0.62408">
        <ele>90</ele>
        <time>2025-08-10T08:08:49.696Z</time>
      </trkpt>
      <trkpt lat="44.13229" lon="0.62407">
        <ele>89</ele>
        <time>2025-08-10T08:08:50.696Z</time>
      </trkpt>
      <trkpt lat="44.13228" lon="0.62407">
        <ele>89</ele>
        <time>2025-08-10T08:08:51.696Z</time>
      </trkpt>
      <trkpt lat="44.13227" lon="0.62406">
        <ele>89</ele>
        <time>2025-08-10T08:08:52.696Z</time>
      </trkpt>
      <trkpt lat="44.13226" lon="0.62405">
        <ele>89</ele>
        <time>2025-08-10T08:08:53.696Z</time>
      </trkpt>
      <trkpt lat="44.13225" lon="0.62405">
        <ele>89</ele>
        <time>2025-08-10T08:08:54.696Z</time>
      </trkpt>
      <trkpt lat="44.13224" lon="0.62404">
        <ele>89</ele>
        <time>2025-08-10T08:08:55.696Z</time>
      </trkpt>
      <trkpt lat="44.13223" lon="0.62404">
        <ele>89</ele>
        <time>2025-08-10T08:08:56.696Z</time>
      </trkpt>
      <trkpt lat="44.13222" lon="0.62403">
        <ele>89</ele>
        <time>2025-08-10T08:08:57.696Z</time>
      </trkpt>
      <trkpt lat="44.13221" lon="0.62403">
        <ele>89</ele>
        <time>2025-08-10T08:08:58.696Z</time>
      </trkpt>
      <trkpt lat="44.1322" lon="0.62402">
        <ele>89</ele>
        <time>2025-08-10T08:08:59.696Z</time>
      </trkpt>
      <trkpt lat="44.13219" lon="0.62402">
        <ele>89</ele>
        <time>2025-08-10T08:09:00.696Z</time>
      </trkpt>
      <trkpt lat="44.13218" lon="0.62401">
        <ele>89</ele>
        <time>2025-08-10T08:09:01.696Z</time>
      </trkpt>
      <trkpt lat="44.13218" lon="0.624">
        <ele>89</ele>
        <time>2025-08-10T08:09:02.696Z</time>
      </trkpt>
      <trkpt lat="44.13216" lon="0.624">
        <ele>89</ele>
        <time>2025-08-10T08:09:03.696Z</time>
      </trkpt>
      <trkpt lat="44.13216" lon="0.62399">
        <ele>90</ele>
        <time>2025-08-10T08:09:04.696Z</time>
      </trkpt>
      <trkpt lat="44.13215" lon="0.62399">
        <ele>90</ele>
        <time>2025-08-10T08:09:05.696Z</time>
      </trkpt>
      <trkpt lat="44.13214" lon="0.62398">
        <ele>89</ele>
        <time>2025-08-10T08:09:06.696Z</time>
      </trkpt>
      <trkpt lat="44.13213" lon="0.62399">
        <ele>89</ele>
        <time>2025-08-10T08:09:07.696Z</time>
      </trkpt>
      <trkpt lat="44.13212" lon="0.624">
        <ele>89</ele>
        <time>2025-08-10T08:09:08.696Z</time>
      </trkpt>
      <trkpt lat="44.1321" lon="0.624">
        <ele>89</ele>
        <time>2025-08-10T08:09:09.696Z</time>
      </trkpt>
      <trkpt lat="44.13209" lon="0.62399">
        <ele>90</ele>
        <time>2025-08-10T08:09:10.696Z</time>
      </trkpt>
      <trkpt lat="44.13208" lon="0.62399">
        <ele>90</ele>
        <time>2025-08-10T08:09:11.696Z</time>
      </trkpt>
      <trkpt lat="44.13207" lon="0.62398">
        <ele>90</ele>
        <time>2025-08-10T08:09:12.696Z</time>
      </trkpt>
      <trkpt lat="44.13206" lon="0.62397">
        <ele>90</ele>
        <time>2025-08-10T08:09:13.696Z</time>
      </trkpt>
      <trkpt lat="44.13205" lon="0.62397">
        <ele>89</ele>
        <time>2025-08-10T08:09:14.696Z</time>
      </trkpt>
      <trkpt lat="44.13204" lon="0.62396">
        <ele>89</ele>
        <time>2025-08-10T08:09:15.696Z</time>
      </trkpt>
      <trkpt lat="44.13203" lon="0.62396">
        <ele>89</ele>
        <time>2025-08-10T08:09:16.696Z</time>
      </trkpt>
      <trkpt lat="44.13202" lon="0.62396">
        <ele>89</ele>
        <time>2025-08-10T08:09:17.696Z</time>
      </trkpt>
      <trkpt lat="44.13201" lon="0.62397">
        <ele>89</ele>
        <time>2025-08-10T08:09:18.696Z</time>
      </trkpt>
      <trkpt lat="44.132" lon="0.62396">
        <ele>90</ele>
        <time>2025-08-10T08:09:19.696Z</time>
      </trkpt>
      <trkpt lat="44.13199" lon="0.62395">
        <ele>91</ele>
        <time>2025-08-10T08:09:20.696Z</time>
      </trkpt>
      <trkpt lat="44.13198" lon="0.62395">
        <ele>91</ele>
        <time>2025-08-10T08:09:21.696Z</time>
      </trkpt>
      <trkpt lat="44.13197" lon="0.62394">
        <ele>92</ele>
        <time>2025-08-10T08:09:22.696Z</time>
      </trkpt>
      <trkpt lat="44.13197" lon="0.62393">
        <ele>91</ele>
        <time>2025-08-10T08:09:23.696Z</time>
      </trkpt>
      <trkpt lat="44.13195" lon="0.62393">
        <ele>91</ele>
        <time>2025-08-10T08:09:24.696Z</time>
      </trkpt>
      <trkpt lat="44.13194" lon="0.62392">
        <ele>91</ele>
        <time>2025-08-10T08:09:25.696Z</time>
      </trkpt>
      <trkpt lat="44.13193" lon="0.62392">
        <ele>91</ele>
        <time>2025-08-10T08:09:26.696Z</time>
      </trkpt>
      <trkpt lat="44.13192" lon="0.62392">
        <ele>91</ele>
        <time>2025-08-10T08:09:27.696Z</time>
      </trkpt>
      <trkpt lat="44.13191" lon="0.62392">
        <ele>91</ele>
        <time>2025-08-10T08:09:28.696Z</time>
      </trkpt>
      <trkpt lat="44.1319" lon="0.62391">
        <ele>91</ele>
        <time>2025-08-10T08:09:29.696Z</time>
      </trkpt>
      <trkpt lat="44.1319" lon="0.62391">
        <ele>92</ele>
        <time>2025-08-10T08:09:30.696Z</time>
      </trkpt>
      <trkpt lat="44.13189" lon="0.62391">
        <ele>92</ele>
        <time>2025-08-10T08:09:31.696Z</time>
      </trkpt>
      <trkpt lat="44.13188" lon="0.6239">
        <ele>92</ele>
        <time>2025-08-10T08:09:32.696Z</time>
      </trkpt>
      <trkpt lat="44.13187" lon="0.62389">
        <ele>93</ele>
        <time>2025-08-10T08:09:33.696Z</time>
      </trkpt>
      <trkpt lat="44.13186" lon="0.62389">
        <ele>93</ele>
        <time>2025-08-10T08:09:34.696Z</time>
      </trkpt>
      <trkpt lat="44.13185" lon="0.62387">
        <ele>93</ele>
        <time>2025-08-10T08:09:35.696Z</time>
      </trkpt>
      <trkpt lat="44.13184" lon="0.62387">
        <ele>92</ele>
        <time>2025-08-10T08:09:36.696Z</time>
      </trkpt>
      <trkpt lat="44.13183" lon="0.62386">
        <ele>92</ele>
        <time>2025-08-10T08:09:37.696Z</time>
      </trkpt>
      <trkpt lat="44.13181" lon="0.62386">
        <ele>92</ele>
        <time>2025-08-10T08:09:38.696Z</time>
      </trkpt>
      <trkpt lat="44.1318" lon="0.62386">
        <ele>92</ele>
        <time>2025-08-10T08:09:39.696Z</time>
      </trkpt>
      <trkpt lat="44.1318" lon="0.62385">
        <ele>92</ele>
        <time>2025-08-10T08:09:40.696Z</time>
      </trkpt>
      <trkpt lat="44.13178" lon="0.62385">
        <ele>92</ele>
        <time>2025-08-10T08:09:41.696Z</time>
      </trkpt>
      <trkpt lat="44.13177" lon="0.62385">
        <ele>92</ele>
        <time>2025-08-10T08:09:42.696Z</time>
      </trkpt>
      <trkpt lat="44.13175" lon="0.62386">
        <ele>92</ele>
        <time>2025-08-10T08:09:43.696Z</time>
      </trkpt>
      <trkpt lat="44.13174" lon="0.62387">
        <ele>92</ele>
        <time>2025-08-10T08:09:44.696Z</time>
      </trkpt>
      <trkpt lat="44.13173" lon="0.62387">
        <ele>92</ele>
        <time>2025-08-10T08:09:45.696Z</time>
      </trkpt>
      <trkpt lat="44.13171" lon="0.62387">
        <ele>92</ele>
        <time>2025-08-10T08:09:46.696Z</time>
      </trkpt>
      <trkpt lat="44.1317" lon="0.62387">
        <ele>93</ele>
        <time>2025-08-10T08:09:47.696Z</time>
      </trkpt>
      <trkpt lat="44.13169" lon="0.62387">
        <ele>93</ele>
        <time>2025-08-10T08:09:48.696Z</time>
      </trkpt>
      <trkpt lat="44.13168" lon="0.62387">
        <ele>93</ele>
        <time>2025-08-10T08:09:49.696Z</time>
      </trkpt>
      <trkpt lat="44.13168" lon="0.62386">
        <ele>93</ele>
        <time>2025-08-10T08:09:50.696Z</time>
      </trkpt>
      <trkpt lat="44.13167" lon="0.62386">
        <ele>93</ele>
        <time>2025-08-10T08:09:51.696Z</time>
      </trkpt>
      <trkpt lat="44.13165" lon="0.62386">
        <ele>93</ele>
        <time>2025-08-10T08:09:52.696Z</time>
      </trkpt>
      <trkpt lat="44.13163" lon="0.62387">
        <ele>93</ele>
        <time>2025-08-10T08:09:53.696Z</time>
      </trkpt>
      <trkpt lat="44.13162" lon="0.62387">
        <ele>93</ele>
        <time>2025-08-10T08:09:54.696Z</time>
      </trkpt>
      <trkpt lat="44.13161" lon="0.62387">
        <ele>93</ele>
        <time>2025-08-10T08:09:55.696Z</time>
      </trkpt>
      <trkpt lat="44.1316" lon="0.62386">
        <ele>93</ele>
        <time>2025-08-10T08:09:56.696Z</time>
      </trkpt>
      <trkpt lat="44.1316" lon="0.62385">
        <ele>93</ele>
        <time>2025-08-10T08:09:57.696Z</time>
      </trkpt>
      <trkpt lat="44.13159" lon="0.62384">
        <ele>93</ele>
        <time>2025-08-10T08:09:58.696Z</time>
      </trkpt>
      <trkpt lat="44.13158" lon="0.62383">
        <ele>93</ele>
        <time>2025-08-10T08:09:59.696Z</time>
      </trkpt>
      <trkpt lat="44.13157" lon="0.62382">
        <ele>92</ele>
        <time>2025-08-10T08:10:00.696Z</time>
      </trkpt>
      <trkpt lat="44.13156" lon="0.62381">
        <ele>92</ele>
        <time>2025-08-10T08:10:01.696Z</time>
      </trkpt>
      <trkpt lat="44.13156" lon="0.62381">
        <ele>91</ele>
        <time>2025-08-10T08:10:02.696Z</time>
      </trkpt>
      <trkpt lat="44.13155" lon="0.6238">
        <ele>91</ele>
        <time>2025-08-10T08:10:03.696Z</time>
      </trkpt>
      <trkpt lat="44.13154" lon="0.6238">
        <ele>91</ele>
        <time>2025-08-10T08:10:04.696Z</time>
      </trkpt>
      <trkpt lat="44.13153" lon="0.62379">
        <ele>91</ele>
        <time>2025-08-10T08:10:05.696Z</time>
      </trkpt>
      <trkpt lat="44.13152" lon="0.62379">
        <ele>91</ele>
        <time>2025-08-10T08:10:06.696Z</time>
      </trkpt>
      <trkpt lat="44.13151" lon="0.6238">
        <ele>91</ele>
        <time>2025-08-10T08:10:07.696Z</time>
      </trkpt>
      <trkpt lat="44.1315" lon="0.6238">
        <ele>91</ele>
        <time>2025-08-10T08:10:08.696Z</time>
      </trkpt>
      <trkpt lat="44.13149" lon="0.62381">
        <ele>91</ele>
        <time>2025-08-10T08:10:09.696Z</time>
      </trkpt>
      <trkpt lat="44.13149" lon="0.62381">
        <ele>92</ele>
        <time>2025-08-10T08:10:10.696Z</time>
      </trkpt>
      <trkpt lat="44.13148" lon="0.62381">
        <ele>92</ele>
        <time>2025-08-10T08:10:11.696Z</time>
      </trkpt>
      <trkpt lat="44.13148" lon="0.6238">
        <ele>92</ele>
        <time>2025-08-10T08:10:12.696Z</time>
      </trkpt>
      <trkpt lat="44.13147" lon="0.6238">
        <ele>92</ele>
        <time>2025-08-10T08:10:13.696Z</time>
      </trkpt>
      <trkpt lat="44.13146" lon="0.62378">
        <ele>93</ele>
        <time>2025-08-10T08:10:14.696Z</time>
      </trkpt>
      <trkpt lat="44.13144" lon="0.62376">
        <ele>93</ele>
        <time>2025-08-10T08:10:15.696Z</time>
      </trkpt>
      <trkpt lat="44.13143" lon="0.62374">
        <ele>93</ele>
        <time>2025-08-10T08:10:16.696Z</time>
      </trkpt>
      <trkpt lat="44.13142" lon="0.62373">
        <ele>94</ele>
        <time>2025-08-10T08:10:17.696Z</time>
      </trkpt>
      <trkpt lat="44.13141" lon="0.62372">
        <ele>93</ele>
        <time>2025-08-10T08:10:18.696Z</time>
      </trkpt>
      <trkpt lat="44.1314" lon="0.62371">
        <ele>93</ele>
        <time>2025-08-10T08:10:19.696Z</time>
      </trkpt>
      <trkpt lat="44.13139" lon="0.62371">
        <ele>93</ele>
        <time>2025-08-10T08:10:20.696Z</time>
      </trkpt>
      <trkpt lat="44.13139" lon="0.6237">
        <ele>93</ele>
        <time>2025-08-10T08:10:21.696Z</time>
      </trkpt>
      <trkpt lat="44.13138" lon="0.6237">
        <ele>93</ele>
        <time>2025-08-10T08:10:22.696Z</time>
      </trkpt>
      <trkpt lat="44.13137" lon="0.6237">
        <ele>93</ele>
        <time>2025-08-10T08:10:23.696Z</time>
      </trkpt>
      <trkpt lat="44.13136" lon="0.6237">
        <ele>93</ele>
        <time>2025-08-10T08:10:24.696Z</time>
      </trkpt>
      <trkpt lat="44.13134" lon="0.6237">
        <ele>93</ele>
        <time>2025-08-10T08:10:25.696Z</time>
      </trkpt>
      <trkpt lat="44.13133" lon="0.62369">
        <ele>93</ele>
        <time>2025-08-10T08:10:26.696Z</time>
      </trkpt>
      <trkpt lat="44.13132" lon="0.62369">
        <ele>93</ele>
        <time>2025-08-10T08:10:27.696Z</time>
      </trkpt>
      <trkpt lat="44.13131" lon="0.6237">
        <ele>93</ele>
        <time>2025-08-10T08:10:28.696Z</time>
      </trkpt>
      <trkpt lat="44.1313" lon="0.6237">
        <ele>93</ele>
        <time>2025-08-10T08:10:29.696Z</time>
      </trkpt>
      <trkpt lat="44.1313" lon="0.6237">
        <ele>93</ele>
        <time>2025-08-10T08:10:30.696Z</time>
      </trkpt>
      <trkpt lat="44.13129" lon="0.62369">
        <ele>93</ele>
        <time>2025-08-10T08:10:31.696Z</time>
      </trkpt>
      <trkpt lat="44.13128" lon="0.62368">
        <ele>92</ele>
        <time>2025-08-10T08:10:32.696Z</time>
      </trkpt>
      <trkpt lat="44.13127" lon="0.62367">
        <ele>92</ele>
        <time>2025-08-10T08:10:33.696Z</time>
      </trkpt>
      <trkpt lat="44.13126" lon="0.62367">
        <ele>92</ele>
        <time>2025-08-10T08:10:34.696Z</time>
      </trkpt>
      <trkpt lat="44.13125" lon="0.62367">
        <ele>92</ele>
        <time>2025-08-10T08:10:35.696Z</time>
      </trkpt>
      <trkpt lat="44.13125" lon="0.62366">
        <ele>92</ele>
        <time>2025-08-10T08:10:36.696Z</time>
      </trkpt>
      <trkpt lat="44.13124" lon="0.62366">
        <ele>92</ele>
        <time>2025-08-10T08:10:37.696Z</time>
      </trkpt>
      <trkpt lat="44.13123" lon="0.62365">
        <ele>91</ele>
        <time>2025-08-10T08:10:38.696Z</time>
      </trkpt>
      <trkpt lat="44.13122" lon="0.62365">
        <ele>91</ele>
        <time>2025-08-10T08:10:39.696Z</time>
      </trkpt>
      <trkpt lat="44.13121" lon="0.62365">
        <ele>91</ele>
        <time>2025-08-10T08:10:40.696Z</time>
      </trkpt>
      <trkpt lat="44.1312" lon="0.62365">
        <ele>91</ele>
        <time>2025-08-10T08:10:41.696Z</time>
      </trkpt>
      <trkpt lat="44.13119" lon="0.62364">
        <ele>91</ele>
        <time>2025-08-10T08:10:42.696Z</time>
      </trkpt>
      <trkpt lat="44.13118" lon="0.62363">
        <ele>91</ele>
        <time>2025-08-10T08:10:43.696Z</time>
      </trkpt>
      <trkpt lat="44.13117" lon="0.62363">
        <ele>91</ele>
        <time>2025-08-10T08:10:44.696Z</time>
      </trkpt>
      <trkpt lat="44.13117" lon="0.62363">
        <ele>91</ele>
        <time>2025-08-10T08:10:45.696Z</time>
      </trkpt>
      <trkpt lat="44.13116" lon="0.62362">
        <ele>91</ele>
        <time>2025-08-10T08:10:46.696Z</time>
      </trkpt>
      <trkpt lat="44.13115" lon="0.62362">
        <ele>91</ele>
        <time>2025-08-10T08:10:47.696Z</time>
      </trkpt>
      <trkpt lat="44.13115" lon="0.62362">
        <ele>91</ele>
        <time>2025-08-10T08:10:48.696Z</time>
      </trkpt>
      <trkpt lat="44.13115" lon="0.62361">
        <ele>91</ele>
        <time>2025-08-10T08:10:49.696Z</time>
      </trkpt>
      <trkpt lat="44.13114" lon="0.62361">
        <ele>92</ele>
        <time>2025-08-10T08:10:50.696Z</time>
      </trkpt>
      <trkpt lat="44.13113" lon="0.62361">
        <ele>92</ele>
        <time>2025-08-10T08:10:51.696Z</time>
      </trkpt>
      <trkpt lat="44.13111" lon="0.62361">
        <ele>92</ele>
        <time>2025-08-10T08:10:52.696Z</time>
      </trkpt>
      <trkpt lat="44.1311" lon="0.6236">
        <ele>92</ele>
        <time>2025-08-10T08:10:53.696Z</time>
      </trkpt>
      <trkpt lat="44.13109" lon="0.6236">
        <ele>92</ele>
        <time>2025-08-10T08:10:54.696Z</time>
      </trkpt>
      <trkpt lat="44.13108" lon="0.62359">
        <ele>92</ele>
        <time>2025-08-10T08:10:55.696Z</time>
      </trkpt>
      <trkpt lat="44.13106" lon="0.62359">
        <ele>92</ele>
        <time>2025-08-10T08:10:56.696Z</time>
      </trkpt>
      <trkpt lat="44.13104" lon="0.62359">
        <ele>92</ele>
        <time>2025-08-10T08:10:57.696Z</time>
      </trkpt>
      <trkpt lat="44.13103" lon="0.62358">
        <ele>92</ele>
        <time>2025-08-10T08:10:58.696Z</time>
      </trkpt>
      <trkpt lat="44.13103" lon="0.62357">
        <ele>92</ele>
        <time>2025-08-10T08:10:59.696Z</time>
      </trkpt>
      <trkpt lat="44.13102" lon="0.62356">
        <ele>91</ele>
        <time>2025-08-10T08:11:00.696Z</time>
      </trkpt>
      <trkpt lat="44.13101" lon="0.62355">
        <ele>91</ele>
        <time>2025-08-10T08:11:01.696Z</time>
      </trkpt>
      <trkpt lat="44.131" lon="0.62354">
        <ele>91</ele>
        <time>2025-08-10T08:11:02.696Z</time>
      </trkpt>
      <trkpt lat="44.13099" lon="0.62353">
        <ele>91</ele>
        <time>2025-08-10T08:11:03.696Z</time>
      </trkpt>
      <trkpt lat="44.13097" lon="0.62353">
        <ele>91</ele>
        <time>2025-08-10T08:11:04.696Z</time>
      </trkpt>
      <trkpt lat="44.13096" lon="0.62354">
        <ele>91</ele>
        <time>2025-08-10T08:11:05.696Z</time>
      </trkpt>
      <trkpt lat="44.13094" lon="0.62355">
        <ele>91</ele>
        <time>2025-08-10T08:11:06.696Z</time>
      </trkpt>
      <trkpt lat="44.13093" lon="0.62355">
        <ele>91</ele>
        <time>2025-08-10T08:11:07.696Z</time>
      </trkpt>
      <trkpt lat="44.13092" lon="0.62354">
        <ele>91</ele>
        <time>2025-08-10T08:11:08.696Z</time>
      </trkpt>
      <trkpt lat="44.13091" lon="0.62352">
        <ele>91</ele>
        <time>2025-08-10T08:11:09.696Z</time>
      </trkpt>
      <trkpt lat="44.1309" lon="0.62351">
        <ele>91</ele>
        <time>2025-08-10T08:11:10.696Z</time>
      </trkpt>
      <trkpt lat="44.1309" lon="0.62351">
        <ele>91</ele>
        <time>2025-08-10T08:11:11.696Z</time>
      </trkpt>
      <trkpt lat="44.13089" lon="0.62351">
        <ele>90</ele>
        <time>2025-08-10T08:11:12.696Z</time>
      </trkpt>
      <trkpt lat="44.13088" lon="0.6235">
        <ele>90</ele>
        <time>2025-08-10T08:11:13.696Z</time>
      </trkpt>
      <trkpt lat="44.13087" lon="0.6235">
        <ele>90</ele>
        <time>2025-08-10T08:11:14.696Z</time>
      </trkpt>
      <trkpt lat="44.13086" lon="0.62351">
        <ele>90</ele>
        <time>2025-08-10T08:11:15.696Z</time>
      </trkpt>
      <trkpt lat="44.13085" lon="0.62351">
        <ele>90</ele>
        <time>2025-08-10T08:11:16.696Z</time>
      </trkpt>
      <trkpt lat="44.13084" lon="0.62352">
        <ele>90</ele>
        <time>2025-08-10T08:11:17.696Z</time>
      </trkpt>
      <trkpt lat="44.13083" lon="0.62352">
        <ele>91</ele>
        <time>2025-08-10T08:11:18.696Z</time>
      </trkpt>
      <trkpt lat="44.13083" lon="0.62351">
        <ele>90</ele>
        <time>2025-08-10T08:11:19.696Z</time>
      </trkpt>
      <trkpt lat="44.13082" lon="0.62351">
        <ele>90</ele>
        <time>2025-08-10T08:11:20.696Z</time>
      </trkpt>
      <trkpt lat="44.13081" lon="0.6235">
        <ele>90</ele>
        <time>2025-08-10T08:11:21.696Z</time>
      </trkpt>
      <trkpt lat="44.1308" lon="0.62349">
        <ele>90</ele>
        <time>2025-08-10T08:11:22.696Z</time>
      </trkpt>
      <trkpt lat="44.13079" lon="0.62349">
        <ele>90</ele>
        <time>2025-08-10T08:11:23.696Z</time>
      </trkpt>
      <trkpt lat="44.13078" lon="0.62349">
        <ele>90</ele>
        <time>2025-08-10T08:11:24.697Z</time>
      </trkpt>
      <trkpt lat="44.13077" lon="0.62349">
        <ele>91</ele>
        <time>2025-08-10T08:11:25.696Z</time>
      </trkpt>
      <trkpt lat="44.13076" lon="0.62349">
        <ele>91</ele>
        <time>2025-08-10T08:11:26.696Z</time>
      </trkpt>
      <trkpt lat="44.13075" lon="0.62349">
        <ele>91</ele>
        <time>2025-08-10T08:11:27.696Z</time>
      </trkpt>
      <trkpt lat="44.13074" lon="0.62348">
        <ele>92</ele>
        <time>2025-08-10T08:11:28.696Z</time>
      </trkpt>
      <trkpt lat="44.13073" lon="0.62347">
        <ele>92</ele>
        <time>2025-08-10T08:11:29.696Z</time>
      </trkpt>
      <trkpt lat="44.13072" lon="0.62347">
        <ele>92</ele>
        <time>2025-08-10T08:11:30.697Z</time>
      </trkpt>
      <trkpt lat="44.13072" lon="0.62347">
        <ele>92</ele>
        <time>2025-08-10T08:11:31.696Z</time>
      </trkpt>
      <trkpt lat="44.13071" lon="0.62346">
        <ele>92</ele>
        <time>2025-08-10T08:11:32.696Z</time>
      </trkpt>
      <trkpt lat="44.1307" lon="0.62346">
        <ele>92</ele>
        <time>2025-08-10T08:11:33.696Z</time>
      </trkpt>
      <trkpt lat="44.13069" lon="0.62346">
        <ele>92</ele>
        <time>2025-08-10T08:11:34.696Z</time>
      </trkpt>
      <trkpt lat="44.13068" lon="0.62345">
        <ele>93</ele>
        <time>2025-08-10T08:11:35.696Z</time>
      </trkpt>
      <trkpt lat="44.13067" lon="0.62345">
        <ele>93</ele>
        <time>2025-08-10T08:11:36.696Z</time>
      </trkpt>
      <trkpt lat="44.13066" lon="0.62344">
        <ele>93</ele>
        <time>2025-08-10T08:11:37.696Z</time>
      </trkpt>
      <trkpt lat="44.13065" lon="0.62343">
        <ele>93</ele>
        <time>2025-08-10T08:11:38.696Z</time>
      </trkpt>
      <trkpt lat="44.13064" lon="0.62342">
        <ele>93</ele>
        <time>2025-08-10T08:11:39.696Z</time>
      </trkpt>
      <trkpt lat="44.13063" lon="0.62342">
        <ele>93</ele>
        <time>2025-08-10T08:11:40.696Z</time>
      </trkpt>
      <trkpt lat="44.13062" lon="0.62342">
        <ele>94</ele>
        <time>2025-08-10T08:11:41.696Z</time>
      </trkpt>
      <trkpt lat="44.13062" lon="0.62342">
        <ele>94</ele>
        <time>2025-08-10T08:11:42.696Z</time>
      </trkpt>
      <trkpt lat="44.1306" lon="0.62342">
        <ele>94</ele>
        <time>2025-08-10T08:11:43.696Z</time>
      </trkpt>
      <trkpt lat="44.13059" lon="0.62341">
        <ele>94</ele>
        <time>2025-08-10T08:11:44.696Z</time>
      </trkpt>
      <trkpt lat="44.13058" lon="0.62341">
        <ele>94</ele>
        <time>2025-08-10T08:11:45.696Z</time>
      </trkpt>
      <trkpt lat="44.13057" lon="0.6234">
        <ele>95</ele>
        <time>2025-08-10T08:11:46.696Z</time>
      </trkpt>
      <trkpt lat="44.13056" lon="0.6234">
        <ele>95</ele>
        <time>2025-08-10T08:11:47.696Z</time>
      </trkpt>
      <trkpt lat="44.13055" lon="0.62339">
        <ele>95</ele>
        <time>2025-08-10T08:11:48.696Z</time>
      </trkpt>
      <trkpt lat="44.13054" lon="0.62339">
        <ele>95</ele>
        <time>2025-08-10T08:11:49.696Z</time>
      </trkpt>
      <trkpt lat="44.13053" lon="0.62338">
        <ele>95</ele>
        <time>2025-08-10T08:11:50.696Z</time>
      </trkpt>
      <trkpt lat="44.13052" lon="0.62338">
        <ele>96</ele>
        <time>2025-08-10T08:11:51.696Z</time>
      </trkpt>
      <trkpt lat="44.13051" lon="0.62338">
        <ele>96</ele>
        <time>2025-08-10T08:11:52.696Z</time>
      </trkpt>
      <trkpt lat="44.13049" lon="0.62335">
        <ele>96</ele>
        <time>2025-08-10T08:11:53.696Z</time>
      </trkpt>
      <trkpt lat="44.13047" lon="0.62332">
        <ele>96</ele>
        <time>2025-08-10T08:11:54.696Z</time>
      </trkpt>
      <trkpt lat="44.13046" lon="0.62331">
        <ele>96</ele>
        <time>2025-08-10T08:11:55.696Z</time>
      </trkpt>
      <trkpt lat="44.13044" lon="0.6233">
        <ele>96</ele>
        <time>2025-08-10T08:11:56.696Z</time>
      </trkpt>
      <trkpt lat="44.13043" lon="0.62329">
        <ele>96</ele>
        <time>2025-08-10T08:11:57.696Z</time>
      </trkpt>
      <trkpt lat="44.13042" lon="0.62328">
        <ele>96</ele>
        <time>2025-08-10T08:11:58.696Z</time>
      </trkpt>
      <trkpt lat="44.13042" lon="0.62327">
        <ele>96</ele>
        <time>2025-08-10T08:11:59.696Z</time>
      </trkpt>
      <trkpt lat="44.13041" lon="0.62327">
        <ele>95</ele>
        <time>2025-08-10T08:12:00.696Z</time>
      </trkpt>
      <trkpt lat="44.1304" lon="0.62327">
        <ele>95</ele>
        <time>2025-08-10T08:12:01.696Z</time>
      </trkpt>
      <trkpt lat="44.13039" lon="0.62326">
        <ele>94</ele>
        <time>2025-08-10T08:12:02.696Z</time>
      </trkpt>
      <trkpt lat="44.13039" lon="0.62326">
        <ele>94</ele>
        <time>2025-08-10T08:12:03.696Z</time>
      </trkpt>
      <trkpt lat="44.13038" lon="0.62325">
        <ele>94</ele>
        <time>2025-08-10T08:12:04.696Z</time>
      </trkpt>
      <trkpt lat="44.13037" lon="0.62324">
        <ele>93</ele>
        <time>2025-08-10T08:12:05.696Z</time>
      </trkpt>
      <trkpt lat="44.13036" lon="0.62323">
        <ele>93</ele>
        <time>2025-08-10T08:12:06.696Z</time>
      </trkpt>
      <trkpt lat="44.13036" lon="0.62321">
        <ele>93</ele>
        <time>2025-08-10T08:12:07.696Z</time>
      </trkpt>
      <trkpt lat="44.13035" lon="0.62318">
        <ele>93</ele>
        <time>2025-08-10T08:12:08.696Z</time>
      </trkpt>
      <trkpt lat="44.13034" lon="0.62317">
        <ele>92</ele>
        <time>2025-08-10T08:12:09.696Z</time>
      </trkpt>
      <trkpt lat="44.13032" lon="0.62314">
        <ele>92</ele>
        <time>2025-08-10T08:12:10.696Z</time>
      </trkpt>
      <trkpt lat="44.13031" lon="0.62313">
        <ele>92</ele>
        <time>2025-08-10T08:12:11.696Z</time>
      </trkpt>
      <trkpt lat="44.1303" lon="0.62312">
        <ele>92</ele>
        <time>2025-08-10T08:12:12.696Z</time>
      </trkpt>
      <trkpt lat="44.1303" lon="0.62311">
        <ele>92</ele>
        <time>2025-08-10T08:12:13.696Z</time>
      </trkpt>
      <trkpt lat="44.13028" lon="0.62309">
        <ele>92</ele>
        <time>2025-08-10T08:12:14.696Z</time>
      </trkpt>
      <trkpt lat="44.13027" lon="0.6231">
        <ele>92</ele>
        <time>2025-08-10T08:12:15.696Z</time>
      </trkpt>
      <trkpt lat="44.13027" lon="0.6231">
        <ele>92</ele>
        <time>2025-08-10T08:12:16.696Z</time>
      </trkpt>
      <trkpt lat="44.13027" lon="0.62309">
        <ele>92</ele>
        <time>2025-08-10T08:12:17.696Z</time>
      </trkpt>
      <trkpt lat="44.13027" lon="0.62309">
        <ele>92</ele>
        <time>2025-08-10T08:12:18.696Z</time>
      </trkpt>
      <trkpt lat="44.13027" lon="0.62309">
        <ele>92</ele>
        <time>2025-08-10T08:12:19.696Z</time>
      </trkpt>
      <trkpt lat="44.13024" lon="0.62305">
        <ele>92</ele>
        <time>2025-08-10T08:12:20.696Z</time>
      </trkpt>
      <trkpt lat="44.13023" lon="0.62301">
        <ele>93</ele>
        <time>2025-08-10T08:12:21.696Z</time>
      </trkpt>
      <trkpt lat="44.13022" lon="0.623">
        <ele>93</ele>
        <time>2025-08-10T08:12:22.696Z</time>
      </trkpt>
      <trkpt lat="44.13022" lon="0.62298">
        <ele>94</ele>
        <time>2025-08-10T08:12:23.696Z</time>
      </trkpt>
      <trkpt lat="44.13023" lon="0.62296">
        <ele>94</ele>
        <time>2025-08-10T08:12:24.696Z</time>
      </trkpt>
      <trkpt lat="44.13023" lon="0.62294">
        <ele>95</ele>
        <time>2025-08-10T08:12:25.696Z</time>
      </trkpt>
      <trkpt lat="44.13023" lon="0.62294">
        <ele>96</ele>
        <time>2025-08-10T08:12:26.696Z</time>
      </trkpt>
      <trkpt lat="44.13023" lon="0.62292">
        <ele>96</ele>
        <time>2025-08-10T08:12:27.696Z</time>
      </trkpt>
      <trkpt lat="44.13023" lon="0.62291">
        <ele>97</ele>
        <time>2025-08-10T08:12:28.696Z</time>
      </trkpt>
      <trkpt lat="44.13023" lon="0.62288">
        <ele>98</ele>
        <time>2025-08-10T08:12:29.696Z</time>
      </trkpt>
      <trkpt lat="44.13022" lon="0.62287">
        <ele>98</ele>
        <time>2025-08-10T08:12:30.696Z</time>
      </trkpt>
      <trkpt lat="44.13022" lon="0.62286">
        <ele>98</ele>
        <time>2025-08-10T08:12:31.696Z</time>
      </trkpt>
      <trkpt lat="44.13022" lon="0.62284">
        <ele>99</ele>
        <time>2025-08-10T08:12:32.696Z</time>
      </trkpt>
      <trkpt lat="44.13021" lon="0.62283">
        <ele>99</ele>
        <time>2025-08-10T08:12:33.696Z</time>
      </trkpt>
      <trkpt lat="44.13021" lon="0.62281">
        <ele>100</ele>
        <time>2025-08-10T08:12:34.696Z</time>
      </trkpt>
      <trkpt lat="44.13021" lon="0.6228">
        <ele>100</ele>
        <time>2025-08-10T08:12:35.696Z</time>
      </trkpt>
      <trkpt lat="44.1302" lon="0.62278">
        <ele>101</ele>
        <time>2025-08-10T08:12:36.696Z</time>
      </trkpt>
      <trkpt lat="44.1302" lon="0.62277">
        <ele>101</ele>
        <time>2025-08-10T08:12:37.696Z</time>
      </trkpt>
      <trkpt lat="44.13019" lon="0.62276">
        <ele>101</ele>
        <time>2025-08-10T08:12:38.696Z</time>
      </trkpt>
      <trkpt lat="44.13019" lon="0.62275">
        <ele>101</ele>
        <time>2025-08-10T08:12:39.696Z</time>
      </trkpt>
      <trkpt lat="44.13019" lon="0.62275">
        <ele>101</ele>
        <time>2025-08-10T08:12:40.696Z</time>
      </trkpt>
      <trkpt lat="44.13018" lon="0.62274">
        <ele>102</ele>
        <time>2025-08-10T08:12:41.696Z</time>
      </trkpt>
      <trkpt lat="44.13018" lon="0.62274">
        <ele>102</ele>
        <time>2025-08-10T08:12:42.696Z</time>
      </trkpt>
      <trkpt lat="44.13018" lon="0.62274">
        <ele>102</ele>
        <time>2025-08-10T08:12:43.696Z</time>
      </trkpt>
      <trkpt lat="44.13018" lon="0.62273">
        <ele>102</ele>
        <time>2025-08-10T08:12:44.696Z</time>
      </trkpt>
      <trkpt lat="44.13018" lon="0.62273">
        <ele>103</ele>
        <time>2025-08-10T08:12:45.696Z</time>
      </trkpt>
      <trkpt lat="44.13018" lon="0.62273">
        <ele>103</ele>
        <time>2025-08-10T08:12:46.696Z</time>
      </trkpt>
      <trkpt lat="44.13018" lon="0.62273">
        <ele>103</ele>
        <time>2025-08-10T08:12:47.696Z</time>
      </trkpt>
      <trkpt lat="44.13018" lon="0.62273">
        <ele>103</ele>
        <time>2025-08-10T08:12:48.696Z</time>
      </trkpt>
      <trkpt lat="44.13018" lon="0.62273">
        <ele>103</ele>
        <time>2025-08-10T08:12:49.696Z</time>
      </trkpt>
      <trkpt lat="44.13018" lon="0.62273">
        <ele>104</ele>
        <time>2025-08-10T08:12:50.696Z</time>
      </trkpt>
      <trkpt lat="44.13018" lon="0.62273">
        <ele>104</ele>
        <time>2025-08-10T08:12:51.696Z</time>
      </trkpt>
      <trkpt lat="44.13018" lon="0.62273">
        <ele>104</ele>
        <time>2025-08-10T08:12:52.696Z</time>
      </trkpt>
      <trkpt lat="44.13018" lon="0.62273">
        <ele>104</ele>
        <time>2025-08-10T08:12:53.696Z</time>
      </trkpt>
      <trkpt lat="44.13018" lon="0.62273">
        <ele>104</ele>
        <time>2025-08-10T08:12:54.696Z</time>
      </trkpt>
      <trkpt lat="44.13018" lon="0.62273">
        <ele>105</ele>
        <time>2025-08-10T08:12:55.696Z</time>
      </trkpt>
      <trkpt lat="44.13018" lon="0.62273">
        <ele>105</ele>
        <time>2025-08-10T08:12:56.696Z</time>
      </trkpt>
      <trkpt lat="44.13018" lon="0.62273">
        <ele>105</ele>
        <time>2025-08-10T08:12:57.696Z</time>
      </trkpt>
      <trkpt lat="44.13018" lon="0.62273">
        <ele>105</ele>
        <time>2025-08-10T08:12:58.696Z</time>
      </trkpt>
      <trkpt lat="44.13018" lon="0.62273">
        <ele>105</ele>
        <time>2025-08-10T08:12:59.696Z</time>
      </trkpt>
      <trkpt lat="44.13018" lon="0.62273">
        <ele>105</ele>
        <time>2025-08-10T08:13:00.696Z</time>
      </trkpt>
      <trkpt lat="44.13019" lon="0.62273">
        <ele>105</ele>
        <time>2025-08-10T08:13:01.696Z</time>
      </trkpt>
      <trkpt lat="44.13019" lon="0.62273">
        <ele>106</ele>
        <time>2025-08-10T08:13:02.696Z</time>
      </trkpt>
      <trkpt lat="44.13019" lon="0.62273">
        <ele>106</ele>
        <time>2025-08-10T08:13:03.696Z</time>
      </trkpt>
      <trkpt lat="44.13019" lon="0.62273">
        <ele>107</ele>
        <time>2025-08-10T08:13:04.696Z</time>
      </trkpt>
      <trkpt lat="44.13019" lon="0.62273">
        <ele>107</ele>
        <time>2025-08-10T08:13:05.696Z</time>
      </trkpt>
      <trkpt lat="44.13019" lon="0.62273">
        <ele>107</ele>
        <time>2025-08-10T08:13:06.696Z</time>
      </trkpt>
      <trkpt lat="44.1302" lon="0.62273">
        <ele>108</ele>
        <time>2025-08-10T08:13:07.696Z</time>
      </trkpt>
      <trkpt lat="44.1302" lon="0.62273">
        <ele>108</ele>
        <time>2025-08-10T08:13:08.696Z</time>
      </trkpt>
      <trkpt lat="44.13021" lon="0.62274">
        <ele>107</ele>
        <time>2025-08-10T08:13:09.696Z</time>
      </trkpt>
      <trkpt lat="44.13021" lon="0.62274">
        <ele>107</ele>
        <time>2025-08-10T08:13:10.696Z</time>
      </trkpt>
      <trkpt lat="44.13021" lon="0.62274">
        <ele>107</ele>
        <time>2025-08-10T08:13:11.696Z</time>
      </trkpt>
      <trkpt lat="44.1302" lon="0.62274">
        <ele>106</ele>
        <time>2025-08-10T08:13:12.696Z</time>
      </trkpt>
      <trkpt lat="44.1302" lon="0.62274">
        <ele>106</ele>
        <time>2025-08-10T08:13:13.696Z</time>
      </trkpt>
      <trkpt lat="44.1302" lon="0.62275">
        <ele>105</ele>
        <time>2025-08-10T08:13:14.696Z</time>
      </trkpt>
      <trkpt lat="44.1302" lon="0.62275">
        <ele>105</ele>
        <time>2025-08-10T08:13:15.696Z</time>
      </trkpt>
      <trkpt lat="44.1302" lon="0.62275">
        <ele>105</ele>
        <time>2025-08-10T08:13:16.696Z</time>
      </trkpt>
      <trkpt lat="44.1302" lon="0.62274">
        <ele>105</ele>
        <time>2025-08-10T08:13:17.696Z</time>
      </trkpt>
      <trkpt lat="44.1302" lon="0.62274">
        <ele>105</ele>
        <time>2025-08-10T08:13:18.696Z</time>
      </trkpt>
      <trkpt lat="44.13019" lon="0.62273">
        <ele>105</ele>
        <time>2025-08-10T08:13:19.696Z</time>
      </trkpt>
      <trkpt lat="44.13019" lon="0.62273">
        <ele>105</ele>
        <time>2025-08-10T08:13:20.696Z</time>
      </trkpt>
      <trkpt lat="44.13019" lon="0.62271">
        <ele>105</ele>
        <time>2025-08-10T08:13:21.696Z</time>
      </trkpt>
      <trkpt lat="44.13019" lon="0.6227">
        <ele>104</ele>
        <time>2025-08-10T08:13:22.696Z</time>
      </trkpt>
      <trkpt lat="44.13019" lon="0.6227">
        <ele>104</ele>
        <time>2025-08-10T08:13:23.696Z</time>
      </trkpt>
      <trkpt lat="44.13019" lon="0.62269">
        <ele>104</ele>
        <time>2025-08-10T08:13:24.696Z</time>
      </trkpt>
      <trkpt lat="44.13019" lon="0.62268">
        <ele>104</ele>
        <time>2025-08-10T08:13:25.696Z</time>
      </trkpt>
      <trkpt lat="44.13019" lon="0.62267">
        <ele>104</ele>
        <time>2025-08-10T08:13:26.696Z</time>
      </trkpt>
      <trkpt lat="44.13019" lon="0.62267">
        <ele>104</ele>
        <time>2025-08-10T08:13:27.696Z</time>
      </trkpt>
      <trkpt lat="44.13018" lon="0.62266">
        <ele>104</ele>
        <time>2025-08-10T08:13:28.696Z</time>
      </trkpt>
      <trkpt lat="44.13018" lon="0.62266">
        <ele>104</ele>
        <time>2025-08-10T08:13:29.696Z</time>
      </trkpt>
      <trkpt lat="44.13018" lon="0.62266">
        <ele>104</ele>
        <time>2025-08-10T08:13:30.696Z</time>
      </trkpt>
      <trkpt lat="44.13018" lon="0.62266">
        <ele>104</ele>
        <time>2025-08-10T08:13:31.696Z</time>
      </trkpt>
      <trkpt lat="44.13018" lon="0.62267">
        <ele>104</ele>
        <time>2025-08-10T08:13:32.696Z</time>
      </trkpt>
      <trkpt lat="44.13018" lon="0.62267">
        <ele>104</ele>
        <time>2025-08-10T08:13:33.696Z</time>
      </trkpt>
      <trkpt lat="44.13018" lon="0.62267">
        <ele>105</ele>
        <time>2025-08-10T08:13:34.696Z</time>
      </trkpt>
      <trkpt lat="44.13018" lon="0.62267">
        <ele>105</ele>
        <time>2025-08-10T08:13:35.696Z</time>
      </trkpt>
      <trkpt lat="44.13018" lon="0.62267">
        <ele>105</ele>
        <time>2025-08-10T08:13:36.696Z</time>
      </trkpt>
      <trkpt lat="44.13018" lon="0.62267">
        <ele>105</ele>
        <time>2025-08-10T08:13:37.696Z</time>
      </trkpt>
      <trkpt lat="44.13017" lon="0.62267">
        <ele>106</ele>
        <time>2025-08-10T08:13:38.696Z</time>
      </trkpt>
      <trkpt lat="44.13017" lon="0.62266">
        <ele>106</ele>
        <time>2025-08-10T08:13:39.696Z</time>
      </trkpt>
      <trkpt lat="44.13017" lon="0.62267">
        <ele>107</ele>
        <time>2025-08-10T08:13:40.696Z</time>
      </trkpt>
      <trkpt lat="44.13017" lon="0.62267">
        <ele>108</ele>
        <time>2025-08-10T08:13:41.696Z</time>
      </trkpt>
      <trkpt lat="44.13017" lon="0.62266">
        <ele>108</ele>
        <time>2025-08-10T08:13:42.697Z</time>
      </trkpt>
      <trkpt lat="44.13017" lon="0.62265">
        <ele>109</ele>
        <time>2025-08-10T08:13:43.696Z</time>
      </trkpt>
      <trkpt lat="44.13017" lon="0.62264">
        <ele>110</ele>
        <time>2025-08-10T08:13:44.696Z</time>
      </trkpt>
      <trkpt lat="44.13017" lon="0.62263">
        <ele>111</ele>
        <time>2025-08-10T08:13:45.696Z</time>
      </trkpt>
      <trkpt lat="44.13016" lon="0.62262">
        <ele>112</ele>
        <time>2025-08-10T08:13:46.696Z</time>
      </trkpt>
      <trkpt lat="44.13015" lon="0.62261">
        <ele>112</ele>
        <time>2025-08-10T08:13:47.696Z</time>
      </trkpt>
      <trkpt lat="44.13015" lon="0.62259">
        <ele>113</ele>
        <time>2025-08-10T08:13:48.696Z</time>
      </trkpt>
      <trkpt lat="44.13015" lon="0.62259">
        <ele>114</ele>
        <time>2025-08-10T08:13:49.696Z</time>
      </trkpt>
      <trkpt lat="44.13014" lon="0.62258">
        <ele>114</ele>
        <time>2025-08-10T08:13:50.696Z</time>
      </trkpt>
      <trkpt lat="44.13014" lon="0.62257">
        <ele>115</ele>
        <time>2025-08-10T08:13:51.696Z</time>
      </trkpt>
      <trkpt lat="44.13014" lon="0.62256">
        <ele>115</ele>
        <time>2025-08-10T08:13:52.696Z</time>
      </trkpt>
      <trkpt lat="44.13013" lon="0.62254">
        <ele>115</ele>
        <time>2025-08-10T08:13:53.696Z</time>
      </trkpt>
      <trkpt lat="44.13013" lon="0.62253">
        <ele>116</ele>
        <time>2025-08-10T08:13:54.696Z</time>
      </trkpt>
      <trkpt lat="44.13012" lon="0.62251">
        <ele>116</ele>
        <time>2025-08-10T08:13:55.696Z</time>
      </trkpt>
      <trkpt lat="44.13012" lon="0.6225">
        <ele>116</ele>
        <time>2025-08-10T08:13:56.696Z</time>
      </trkpt>
      <trkpt lat="44.13012" lon="0.62249">
        <ele>116</ele>
        <time>2025-08-10T08:13:57.696Z</time>
      </trkpt>
      <trkpt lat="44.13011" lon="0.62248">
        <ele>116</ele>
        <time>2025-08-10T08:13:58.696Z</time>
      </trkpt>
      <trkpt lat="44.13011" lon="0.62247">
        <ele>116</ele>
        <time>2025-08-10T08:13:59.696Z</time>
      </trkpt>
      <trkpt lat="44.1301" lon="0.62245">
        <ele>116</ele>
        <time>2025-08-10T08:14:00.696Z</time>
      </trkpt>
      <trkpt lat="44.1301" lon="0.62243">
        <ele>116</ele>
        <time>2025-08-10T08:14:01.696Z</time>
      </trkpt>
      <trkpt lat="44.1301" lon="0.62242">
        <ele>116</ele>
        <time>2025-08-10T08:14:02.696Z</time>
      </trkpt>
      <trkpt lat="44.1301" lon="0.62241">
        <ele>115</ele>
        <time>2025-08-10T08:14:03.696Z</time>
      </trkpt>
      <trkpt lat="44.1301" lon="0.62239">
        <ele>115</ele>
        <time>2025-08-10T08:14:04.696Z</time>
      </trkpt>
      <trkpt lat="44.13009" lon="0.62238">
        <ele>115</ele>
        <time>2025-08-10T08:14:05.696Z</time>
      </trkpt>
      <trkpt lat="44.13009" lon="0.62237">
        <ele>114</ele>
        <time>2025-08-10T08:14:06.696Z</time>
      </trkpt>
      <trkpt lat="44.1301" lon="0.62236">
        <ele>114</ele>
        <time>2025-08-10T08:14:07.696Z</time>
      </trkpt>
      <trkpt lat="44.1301" lon="0.62235">
        <ele>114</ele>
        <time>2025-08-10T08:14:08.696Z</time>
      </trkpt>
      <trkpt lat="44.1301" lon="0.62235">
        <ele>113</ele>
        <time>2025-08-10T08:14:09.696Z</time>
      </trkpt>
      <trkpt lat="44.1301" lon="0.62234">
        <ele>113</ele>
        <time>2025-08-10T08:14:10.696Z</time>
      </trkpt>
      <trkpt lat="44.1301" lon="0.62234">
        <ele>113</ele>
        <time>2025-08-10T08:14:11.696Z</time>
      </trkpt>
      <trkpt lat="44.13009" lon="0.62233">
        <ele>112</ele>
        <time>2025-08-10T08:14:12.696Z</time>
      </trkpt>
      <trkpt lat="44.13009" lon="0.62233">
        <ele>112</ele>
        <time>2025-08-10T08:14:13.696Z</time>
      </trkpt>
      <trkpt lat="44.1301" lon="0.62233">
        <ele>112</ele>
        <time>2025-08-10T08:14:14.696Z</time>
      </trkpt>
      <trkpt lat="44.13009" lon="0.62234">
        <ele>111</ele>
        <time>2025-08-10T08:14:15.696Z</time>
      </trkpt>
      <trkpt lat="44.13009" lon="0.62234">
        <ele>111</ele>
        <time>2025-08-10T08:14:16.696Z</time>
      </trkpt>
      <trkpt lat="44.13009" lon="0.62234">
        <ele>111</ele>
        <time>2025-08-10T08:14:17.696Z</time>
      </trkpt>
      <trkpt lat="44.13009" lon="0.62234">
        <ele>110</ele>
        <time>2025-08-10T08:14:18.696Z</time>
      </trkpt>
      <trkpt lat="44.13009" lon="0.62233">
        <ele>110</ele>
        <time>2025-08-10T08:14:19.696Z</time>
      </trkpt>
      <trkpt lat="44.13009" lon="0.62233">
        <ele>110</ele>
        <time>2025-08-10T08:14:20.696Z</time>
      </trkpt>
      <trkpt lat="44.13009" lon="0.62233">
        <ele>110</ele>
        <time>2025-08-10T08:14:21.696Z</time>
      </trkpt>
      <trkpt lat="44.13009" lon="0.62233">
        <ele>109</ele>
        <time>2025-08-10T08:14:22.696Z</time>
      </trkpt>
      <trkpt lat="44.13009" lon="0.62233">
        <ele>109</ele>
        <time>2025-08-10T08:14:23.696Z</time>
      </trkpt>
      <trkpt lat="44.13008" lon="0.62233">
        <ele>108</ele>
        <time>2025-08-10T08:14:24.696Z</time>
      </trkpt>
      <trkpt lat="44.13008" lon="0.62233">
        <ele>108</ele>
        <time>2025-08-10T08:14:25.696Z</time>
      </trkpt>
      <trkpt lat="44.13008" lon="0.62233">
        <ele>108</ele>
        <time>2025-08-10T08:14:26.696Z</time>
      </trkpt>
      <trkpt lat="44.13008" lon="0.62233">
        <ele>108</ele>
        <time>2025-08-10T08:14:27.696Z</time>
      </trkpt>
      <trkpt lat="44.13008" lon="0.62234">
        <ele>107</ele>
        <time>2025-08-10T08:14:28.696Z</time>
      </trkpt>
      <trkpt lat="44.13008" lon="0.62234">
        <ele>107</ele>
        <time>2025-08-10T08:14:29.696Z</time>
      </trkpt>
      <trkpt lat="44.13008" lon="0.62234">
        <ele>107</ele>
        <time>2025-08-10T08:14:30.696Z</time>
      </trkpt>
      <trkpt lat="44.13008" lon="0.62235">
        <ele>107</ele>
        <time>2025-08-10T08:14:31.696Z</time>
      </trkpt>
      <trkpt lat="44.13008" lon="0.62235">
        <ele>107</ele>
        <time>2025-08-10T08:14:32.696Z</time>
      </trkpt>
      <trkpt lat="44.13008" lon="0.62235">
        <ele>107</ele>
        <time>2025-08-10T08:14:33.696Z</time>
      </trkpt>
      <trkpt lat="44.13008" lon="0.62236">
        <ele>107</ele>
        <time>2025-08-10T08:14:34.696Z</time>
      </trkpt>
      <trkpt lat="44.13008" lon="0.62236">
        <ele>107</ele>
        <time>2025-08-10T08:14:35.696Z</time>
      </trkpt>
      <trkpt lat="44.13008" lon="0.62236">
        <ele>107</ele>
        <time>2025-08-10T08:14:36.696Z</time>
      </trkpt>
      <trkpt lat="44.13008" lon="0.62236">
        <ele>107</ele>
        <time>2025-08-10T08:14:37.696Z</time>
      </trkpt>
      <trkpt lat="44.13008" lon="0.62236">
        <ele>108</ele>
        <time>2025-08-10T08:14:38.696Z</time>
      </trkpt>
      <trkpt lat="44.13008" lon="0.62236">
        <ele>108</ele>
        <time>2025-08-10T08:14:39.696Z</time>
      </trkpt>
      <trkpt lat="44.13008" lon="0.62235">
        <ele>108</ele>
        <time>2025-08-10T08:14:40.696Z</time>
      </trkpt>
      <trkpt lat="44.13008" lon="0.62235">
        <ele>108</ele>
        <time>2025-08-10T08:14:41.696Z</time>
      </trkpt>
      <trkpt lat="44.13009" lon="0.62234">
        <ele>108</ele>
        <time>2025-08-10T08:14:42.696Z</time>
      </trkpt>
      <trkpt lat="44.13009" lon="0.62233">
        <ele>107</ele>
        <time>2025-08-10T08:14:43.696Z</time>
      </trkpt>
      <trkpt lat="44.1301" lon="0.62232">
        <ele>107</ele>
        <time>2025-08-10T08:14:44.696Z</time>
      </trkpt>
      <trkpt lat="44.1301" lon="0.62232">
        <ele>108</ele>
        <time>2025-08-10T08:14:45.696Z</time>
      </trkpt>
      <trkpt lat="44.1301" lon="0.6223">
        <ele>108</ele>
        <time>2025-08-10T08:14:46.696Z</time>
      </trkpt>
      <trkpt lat="44.1301" lon="0.62229">
        <ele>108</ele>
        <time>2025-08-10T08:14:47.696Z</time>
      </trkpt>
      <trkpt lat="44.1301" lon="0.62229">
        <ele>107</ele>
        <time>2025-08-10T08:14:48.696Z</time>
      </trkpt>
      <trkpt lat="44.1301" lon="0.62228">
        <ele>107</ele>
        <time>2025-08-10T08:14:49.696Z</time>
      </trkpt>
      <trkpt lat="44.13009" lon="0.62227">
        <ele>107</ele>
        <time>2025-08-10T08:14:50.696Z</time>
      </trkpt>
      <trkpt lat="44.13009" lon="0.62225">
        <ele>107</ele>
        <time>2025-08-10T08:14:51.696Z</time>
      </trkpt>
      <trkpt lat="44.13009" lon="0.62224">
        <ele>107</ele>
        <time>2025-08-10T08:14:52.696Z</time>
      </trkpt>
      <trkpt lat="44.13009" lon="0.62223">
        <ele>107</ele>
        <time>2025-08-10T08:14:53.696Z</time>
      </trkpt>
      <trkpt lat="44.13009" lon="0.62222">
        <ele>107</ele>
        <time>2025-08-10T08:14:54.696Z</time>
      </trkpt>
      <trkpt lat="44.13008" lon="0.62221">
        <ele>107</ele>
        <time>2025-08-10T08:14:55.696Z</time>
      </trkpt>
      <trkpt lat="44.13008" lon="0.6222">
        <ele>107</ele>
        <time>2025-08-10T08:14:56.696Z</time>
      </trkpt>
      <trkpt lat="44.13008" lon="0.62219">
        <ele>107</ele>
        <time>2025-08-10T08:14:57.696Z</time>
      </trkpt>
      <trkpt lat="44.13008" lon="0.62218">
        <ele>107</ele>
        <time>2025-08-10T08:14:58.696Z</time>
      </trkpt>
      <trkpt lat="44.13007" lon="0.62217">
        <ele>107</ele>
        <time>2025-08-10T08:14:59.696Z</time>
      </trkpt>
      <trkpt lat="44.13007" lon="0.62216">
        <ele>108</ele>
        <time>2025-08-10T08:15:00.696Z</time>
      </trkpt>
      <trkpt lat="44.13007" lon="0.62216">
        <ele>108</ele>
        <time>2025-08-10T08:15:01.696Z</time>
      </trkpt>
      <trkpt lat="44.13008" lon="0.62215">
        <ele>108</ele>
        <time>2025-08-10T08:15:02.696Z</time>
      </trkpt>
      <trkpt lat="44.13008" lon="0.62214">
        <ele>108</ele>
        <time>2025-08-10T08:15:03.696Z</time>
      </trkpt>
      <trkpt lat="44.13008" lon="0.62213">
        <ele>109</ele>
        <time>2025-08-10T08:15:04.696Z</time>
      </trkpt>
      <trkpt lat="44.13008" lon="0.62211">
        <ele>109</ele>
        <time>2025-08-10T08:15:05.696Z</time>
      </trkpt>
      <trkpt lat="44.13008" lon="0.62209">
        <ele>109</ele>
        <time>2025-08-10T08:15:06.696Z</time>
      </trkpt>
      <trkpt lat="44.13007" lon="0.62208">
        <ele>109</ele>
        <time>2025-08-10T08:15:07.696Z</time>
      </trkpt>
      <trkpt lat="44.13007" lon="0.62208">
        <ele>108</ele>
        <time>2025-08-10T08:15:08.696Z</time>
      </trkpt>
      <trkpt lat="44.13007" lon="0.62208">
        <ele>108</ele>
        <time>2025-08-10T08:15:09.696Z</time>
      </trkpt>
      <trkpt lat="44.13006" lon="0.62207">
        <ele>108</ele>
        <time>2025-08-10T08:15:10.696Z</time>
      </trkpt>
      <trkpt lat="44.13006" lon="0.62206">
        <ele>107</ele>
        <time>2025-08-10T08:15:11.696Z</time>
      </trkpt>
      <trkpt lat="44.13006" lon="0.62205">
        <ele>107</ele>
        <time>2025-08-10T08:15:12.696Z</time>
      </trkpt>
      <trkpt lat="44.13006" lon="0.62203">
        <ele>107</ele>
        <time>2025-08-10T08:15:13.696Z</time>
      </trkpt>
      <trkpt lat="44.13006" lon="0.62202">
        <ele>107</ele>
        <time>2025-08-10T08:15:14.696Z</time>
      </trkpt>
      <trkpt lat="44.13006" lon="0.622">
        <ele>106</ele>
        <time>2025-08-10T08:15:15.696Z</time>
      </trkpt>
      <trkpt lat="44.13005" lon="0.62199">
        <ele>106</ele>
        <time>2025-08-10T08:15:16.696Z</time>
      </trkpt>
      <trkpt lat="44.13005" lon="0.62198">
        <ele>106</ele>
        <time>2025-08-10T08:15:17.696Z</time>
      </trkpt>
      <trkpt lat="44.13004" lon="0.62196">
        <ele>105</ele>
        <time>2025-08-10T08:15:18.696Z</time>
      </trkpt>
      <trkpt lat="44.13004" lon="0.62194">
        <ele>105</ele>
        <time>2025-08-10T08:15:19.696Z</time>
      </trkpt>
      <trkpt lat="44.13005" lon="0.62192">
        <ele>105</ele>
        <time>2025-08-10T08:15:20.696Z</time>
      </trkpt>
      <trkpt lat="44.13005" lon="0.62192">
        <ele>106</ele>
        <time>2025-08-10T08:15:21.696Z</time>
      </trkpt>
      <trkpt lat="44.13006" lon="0.62191">
        <ele>106</ele>
        <time>2025-08-10T08:15:22.696Z</time>
      </trkpt>
      <trkpt lat="44.13006" lon="0.6219">
        <ele>107</ele>
        <time>2025-08-10T08:15:23.696Z</time>
      </trkpt>
      <trkpt lat="44.13006" lon="0.62191">
        <ele>107</ele>
        <time>2025-08-10T08:15:24.696Z</time>
      </trkpt>
      <trkpt lat="44.13006" lon="0.6219">
        <ele>107</ele>
        <time>2025-08-10T08:15:25.696Z</time>
      </trkpt>
      <trkpt lat="44.13006" lon="0.6219">
        <ele>107</ele>
        <time>2025-08-10T08:15:26.696Z</time>
      </trkpt>
      <trkpt lat="44.13007" lon="0.6219">
        <ele>108</ele>
        <time>2025-08-10T08:15:27.696Z</time>
      </trkpt>
      <trkpt lat="44.13007" lon="0.6219">
        <ele>108</ele>
        <time>2025-08-10T08:15:28.696Z</time>
      </trkpt>
      <trkpt lat="44.13006" lon="0.6219">
        <ele>108</ele>
        <time>2025-08-10T08:15:29.696Z</time>
      </trkpt>
      <trkpt lat="44.13006" lon="0.6219">
        <ele>108</ele>
        <time>2025-08-10T08:15:30.696Z</time>
      </trkpt>
      <trkpt lat="44.13006" lon="0.62189">
        <ele>109</ele>
        <time>2025-08-10T08:15:31.696Z</time>
      </trkpt>
      <trkpt lat="44.13006" lon="0.62188">
        <ele>109</ele>
        <time>2025-08-10T08:15:32.696Z</time>
      </trkpt>
      <trkpt lat="44.13006" lon="0.62186">
        <ele>108</ele>
        <time>2025-08-10T08:15:33.696Z</time>
      </trkpt>
      <trkpt lat="44.13006" lon="0.62185">
        <ele>108</ele>
        <time>2025-08-10T08:15:34.696Z</time>
      </trkpt>
      <trkpt lat="44.13005" lon="0.62184">
        <ele>108</ele>
        <time>2025-08-10T08:15:35.696Z</time>
      </trkpt>
      <trkpt lat="44.13005" lon="0.62183">
        <ele>108</ele>
        <time>2025-08-10T08:15:36.696Z</time>
      </trkpt>
      <trkpt lat="44.13006" lon="0.62182">
        <ele>108</ele>
        <time>2025-08-10T08:15:37.696Z</time>
      </trkpt>
      <trkpt lat="44.13006" lon="0.62181">
        <ele>108</ele>
        <time>2025-08-10T08:15:38.696Z</time>
      </trkpt>
      <trkpt lat="44.13005" lon="0.6218">
        <ele>109</ele>
        <time>2025-08-10T08:15:39.696Z</time>
      </trkpt>
      <trkpt lat="44.13005" lon="0.6218">
        <ele>109</ele>
        <time>2025-08-10T08:15:40.696Z</time>
      </trkpt>
      <trkpt lat="44.13005" lon="0.62179">
        <ele>110</ele>
        <time>2025-08-10T08:15:41.696Z</time>
      </trkpt>
      <trkpt lat="44.13004" lon="0.62179">
        <ele>110</ele>
        <time>2025-08-10T08:15:42.696Z</time>
      </trkpt>
      <trkpt lat="44.13003" lon="0.62178">
        <ele>110</ele>
        <time>2025-08-10T08:15:43.696Z</time>
      </trkpt>
      <trkpt lat="44.13003" lon="0.62176">
        <ele>110</ele>
        <time>2025-08-10T08:15:44.696Z</time>
      </trkpt>
      <trkpt lat="44.13003" lon="0.62175">
        <ele>110</ele>
        <time>2025-08-10T08:15:45.696Z</time>
      </trkpt>
      <trkpt lat="44.13001" lon="0.62173">
        <ele>110</ele>
        <time>2025-08-10T08:15:46.696Z</time>
      </trkpt>
      <trkpt lat="44.13" lon="0.6217">
        <ele>110</ele>
        <time>2025-08-10T08:15:47.696Z</time>
      </trkpt>
      <trkpt lat="44.12999" lon="0.62167">
        <ele>110</ele>
        <time>2025-08-10T08:15:48.696Z</time>
      </trkpt>
      <trkpt lat="44.12999" lon="0.62166">
        <ele>110</ele>
        <time>2025-08-10T08:15:49.696Z</time>
      </trkpt>
      <trkpt lat="44.13" lon="0.62163">
        <ele>109</ele>
        <time>2025-08-10T08:15:50.696Z</time>
      </trkpt>
      <trkpt lat="44.13" lon="0.62161">
        <ele>109</ele>
        <time>2025-08-10T08:15:51.696Z</time>
      </trkpt>
      <trkpt lat="44.12999" lon="0.6216">
        <ele>109</ele>
        <time>2025-08-10T08:15:52.696Z</time>
      </trkpt>
      <trkpt lat="44.12999" lon="0.62159">
        <ele>109</ele>
        <time>2025-08-10T08:15:53.696Z</time>
      </trkpt>
      <trkpt lat="44.12999" lon="0.62158">
        <ele>109</ele>
        <time>2025-08-10T08:15:54.696Z</time>
      </trkpt>
      <trkpt lat="44.12999" lon="0.62157">
        <ele>108</ele>
        <time>2025-08-10T08:15:55.696Z</time>
      </trkpt>
      <trkpt lat="44.12999" lon="0.62155">
        <ele>108</ele>
        <time>2025-08-10T08:15:56.696Z</time>
      </trkpt>
      <trkpt lat="44.12998" lon="0.62153">
        <ele>108</ele>
        <time>2025-08-10T08:15:57.696Z</time>
      </trkpt>
      <trkpt lat="44.12998" lon="0.62152">
        <ele>108</ele>
        <time>2025-08-10T08:15:58.696Z</time>
      </trkpt>
      <trkpt lat="44.12998" lon="0.62153">
        <ele>108</ele>
        <time>2025-08-10T08:15:59.696Z</time>
      </trkpt>
      <trkpt lat="44.12997" lon="0.62152">
        <ele>108</ele>
        <time>2025-08-10T08:16:00.696Z</time>
      </trkpt>
      <trkpt lat="44.12997" lon="0.62152">
        <ele>108</ele>
        <time>2025-08-10T08:16:01.696Z</time>
      </trkpt>
      <trkpt lat="44.12997" lon="0.62151">
        <ele>108</ele>
        <time>2025-08-10T08:16:02.696Z</time>
      </trkpt>
      <trkpt lat="44.12997" lon="0.6215">
        <ele>108</ele>
        <time>2025-08-10T08:16:03.696Z</time>
      </trkpt>
      <trkpt lat="44.12997" lon="0.62149">
        <ele>108</ele>
        <time>2025-08-10T08:16:04.696Z</time>
      </trkpt>
      <trkpt lat="44.12997" lon="0.62148">
        <ele>108</ele>
        <time>2025-08-10T08:16:05.696Z</time>
      </trkpt>
      <trkpt lat="44.12997" lon="0.62147">
        <ele>108</ele>
        <time>2025-08-10T08:16:06.696Z</time>
      </trkpt>
      <trkpt lat="44.12997" lon="0.62147">
        <ele>108</ele>
        <time>2025-08-10T08:16:07.696Z</time>
      </trkpt>
      <trkpt lat="44.12997" lon="0.62145">
        <ele>108</ele>
        <time>2025-08-10T08:16:08.696Z</time>
      </trkpt>
      <trkpt lat="44.12998" lon="0.62145">
        <ele>108</ele>
        <time>2025-08-10T08:16:09.696Z</time>
      </trkpt>
      <trkpt lat="44.12997" lon="0.62144">
        <ele>108</ele>
        <time>2025-08-10T08:16:10.696Z</time>
      </trkpt>
      <trkpt lat="44.12997" lon="0.62142">
        <ele>108</ele>
        <time>2025-08-10T08:16:11.696Z</time>
      </trkpt>
      <trkpt lat="44.12996" lon="0.62141">
        <ele>108</ele>
        <time>2025-08-10T08:16:12.696Z</time>
      </trkpt>
      <trkpt lat="44.12996" lon="0.6214">
        <ele>108</ele>
        <time>2025-08-10T08:16:13.696Z</time>
      </trkpt>
      <trkpt lat="44.12995" lon="0.62138">
        <ele>107</ele>
        <time>2025-08-10T08:16:14.696Z</time>
      </trkpt>
      <trkpt lat="44.12995" lon="0.62137">
        <ele>107</ele>
        <time>2025-08-10T08:16:15.696Z</time>
      </trkpt>
      <trkpt lat="44.12995" lon="0.62135">
        <ele>107</ele>
        <time>2025-08-10T08:16:16.696Z</time>
      </trkpt>
      <trkpt lat="44.12994" lon="0.62133">
        <ele>107</ele>
        <time>2025-08-10T08:16:17.696Z</time>
      </trkpt>
      <trkpt lat="44.12994" lon="0.62131">
        <ele>107</ele>
        <time>2025-08-10T08:16:18.696Z</time>
      </trkpt>
      <trkpt lat="44.12994" lon="0.6213">
        <ele>106</ele>
        <time>2025-08-10T08:16:19.696Z</time>
      </trkpt>
      <trkpt lat="44.12994" lon="0.62126">
        <ele>106</ele>
        <time>2025-08-10T08:16:20.696Z</time>
      </trkpt>
      <trkpt lat="44.12994" lon="0.62125">
        <ele>106</ele>
        <time>2025-08-10T08:16:21.696Z</time>
      </trkpt>
      <trkpt lat="44.12995" lon="0.62124">
        <ele>106</ele>
        <time>2025-08-10T08:16:22.696Z</time>
      </trkpt>
      <trkpt lat="44.12995" lon="0.62123">
        <ele>106</ele>
        <time>2025-08-10T08:16:23.696Z</time>
      </trkpt>
      <trkpt lat="44.12995" lon="0.62122">
        <ele>106</ele>
        <time>2025-08-10T08:16:24.696Z</time>
      </trkpt>
      <trkpt lat="44.12995" lon="0.62121">
        <ele>106</ele>
        <time>2025-08-10T08:16:25.696Z</time>
      </trkpt>
      <trkpt lat="44.12994" lon="0.6212">
        <ele>106</ele>
        <time>2025-08-10T08:16:26.696Z</time>
      </trkpt>
      <trkpt lat="44.12994" lon="0.62119">
        <ele>106</ele>
        <time>2025-08-10T08:16:27.696Z</time>
      </trkpt>
      <trkpt lat="44.12994" lon="0.62118">
        <ele>106</ele>
        <time>2025-08-10T08:16:28.697Z</time>
      </trkpt>
      <trkpt lat="44.12993" lon="0.62117">
        <ele>106</ele>
        <time>2025-08-10T08:16:29.696Z</time>
      </trkpt>
      <trkpt lat="44.12993" lon="0.62115">
        <ele>107</ele>
        <time>2025-08-10T08:16:30.696Z</time>
      </trkpt>
      <trkpt lat="44.12992" lon="0.62114">
        <ele>107</ele>
        <time>2025-08-10T08:16:31.696Z</time>
      </trkpt>
      <trkpt lat="44.12992" lon="0.62111">
        <ele>107</ele>
        <time>2025-08-10T08:16:32.696Z</time>
      </trkpt>
      <trkpt lat="44.12991" lon="0.62109">
        <ele>107</ele>
        <time>2025-08-10T08:16:33.696Z</time>
      </trkpt>
      <trkpt lat="44.1299" lon="0.62108">
        <ele>107</ele>
        <time>2025-08-10T08:16:34.696Z</time>
      </trkpt>
      <trkpt lat="44.1299" lon="0.62106">
        <ele>107</ele>
        <time>2025-08-10T08:16:35.696Z</time>
      </trkpt>
      <trkpt lat="44.12988" lon="0.62105">
        <ele>107</ele>
        <time>2025-08-10T08:16:36.696Z</time>
      </trkpt>
      <trkpt lat="44.12988" lon="0.62103">
        <ele>107</ele>
        <time>2025-08-10T08:16:37.696Z</time>
      </trkpt>
      <trkpt lat="44.12988" lon="0.62102">
        <ele>107</ele>
        <time>2025-08-10T08:16:38.696Z</time>
      </trkpt>
      <trkpt lat="44.12988" lon="0.62101">
        <ele>107</ele>
        <time>2025-08-10T08:16:39.696Z</time>
      </trkpt>
      <trkpt lat="44.12988" lon="0.621">
        <ele>108</ele>
        <time>2025-08-10T08:16:40.696Z</time>
      </trkpt>
      <trkpt lat="44.12988" lon="0.62101">
        <ele>108</ele>
        <time>2025-08-10T08:16:41.696Z</time>
      </trkpt>
      <trkpt lat="44.12987" lon="0.621">
        <ele>108</ele>
        <time>2025-08-10T08:16:42.696Z</time>
      </trkpt>
      <trkpt lat="44.12987" lon="0.62098">
        <ele>108</ele>
        <time>2025-08-10T08:16:43.697Z</time>
      </trkpt>
      <trkpt lat="44.12987" lon="0.62099">
        <ele>109</ele>
        <time>2025-08-10T08:16:44.696Z</time>
      </trkpt>
      <trkpt lat="44.12987" lon="0.62098">
        <ele>109</ele>
        <time>2025-08-10T08:16:45.696Z</time>
      </trkpt>
      <trkpt lat="44.12987" lon="0.62097">
        <ele>109</ele>
        <time>2025-08-10T08:16:46.696Z</time>
      </trkpt>
      <trkpt lat="44.12988" lon="0.62095">
        <ele>110</ele>
        <time>2025-08-10T08:16:47.696Z</time>
      </trkpt>
      <trkpt lat="44.12988" lon="0.62094">
        <ele>110</ele>
        <time>2025-08-10T08:16:48.696Z</time>
      </trkpt>
      <trkpt lat="44.12987" lon="0.62094">
        <ele>110</ele>
        <time>2025-08-10T08:16:49.696Z</time>
      </trkpt>
      <trkpt lat="44.12986" lon="0.62092">
        <ele>110</ele>
        <time>2025-08-10T08:16:50.696Z</time>
      </trkpt>
      <trkpt lat="44.12984" lon="0.62091">
        <ele>110</ele>
        <time>2025-08-10T08:16:51.696Z</time>
      </trkpt>
      <trkpt lat="44.12984" lon="0.62091">
        <ele>110</ele>
        <time>2025-08-10T08:16:52.696Z</time>
      </trkpt>
      <trkpt lat="44.12985" lon="0.6209">
        <ele>110</ele>
        <time>2025-08-10T08:16:53.696Z</time>
      </trkpt>
      <trkpt lat="44.12984" lon="0.62088">
        <ele>111</ele>
        <time>2025-08-10T08:16:54.696Z</time>
      </trkpt>
      <trkpt lat="44.12984" lon="0.62087">
        <ele>111</ele>
        <time>2025-08-10T08:16:55.696Z</time>
      </trkpt>
      <trkpt lat="44.12984" lon="0.62085">
        <ele>111</ele>
        <time>2025-08-10T08:16:56.696Z</time>
      </trkpt>
      <trkpt lat="44.12983" lon="0.62084">
        <ele>112</ele>
        <time>2025-08-10T08:16:57.696Z</time>
      </trkpt>
      <trkpt lat="44.12983" lon="0.62082">
        <ele>112</ele>
        <time>2025-08-10T08:16:58.696Z</time>
      </trkpt>
      <trkpt lat="44.12983" lon="0.62081">
        <ele>112</ele>
        <time>2025-08-10T08:16:59.696Z</time>
      </trkpt>
      <trkpt lat="44.12983" lon="0.6208">
        <ele>112</ele>
        <time>2025-08-10T08:17:00.696Z</time>
      </trkpt>
      <trkpt lat="44.12983" lon="0.62079">
        <ele>113</ele>
        <time>2025-08-10T08:17:01.696Z</time>
      </trkpt>
      <trkpt lat="44.12982" lon="0.62078">
        <ele>113</ele>
        <time>2025-08-10T08:17:02.696Z</time>
      </trkpt>
      <trkpt lat="44.12982" lon="0.62077">
        <ele>113</ele>
        <time>2025-08-10T08:17:03.696Z</time>
      </trkpt>
      <trkpt lat="44.12981" lon="0.62076">
        <ele>113</ele>
        <time>2025-08-10T08:17:04.696Z</time>
      </trkpt>
      <trkpt lat="44.12981" lon="0.62075">
        <ele>113</ele>
        <time>2025-08-10T08:17:05.696Z</time>
      </trkpt>
      <trkpt lat="44.12981" lon="0.62074">
        <ele>113</ele>
        <time>2025-08-10T08:17:06.696Z</time>
      </trkpt>
      <trkpt lat="44.1298" lon="0.62074">
        <ele>113</ele>
        <time>2025-08-10T08:17:07.696Z</time>
      </trkpt>
      <trkpt lat="44.1298" lon="0.62073">
        <ele>113</ele>
        <time>2025-08-10T08:17:08.696Z</time>
      </trkpt>
      <trkpt lat="44.1298" lon="0.62073">
        <ele>113</ele>
        <time>2025-08-10T08:17:09.696Z</time>
      </trkpt>
      <trkpt lat="44.12979" lon="0.62072">
        <ele>112</ele>
        <time>2025-08-10T08:17:10.696Z</time>
      </trkpt>
      <trkpt lat="44.12979" lon="0.62071">
        <ele>112</ele>
        <time>2025-08-10T08:17:11.696Z</time>
      </trkpt>
      <trkpt lat="44.12979" lon="0.62071">
        <ele>112</ele>
        <time>2025-08-10T08:17:12.696Z</time>
      </trkpt>
      <trkpt lat="44.12979" lon="0.62069">
        <ele>112</ele>
        <time>2025-08-10T08:17:13.696Z</time>
      </trkpt>
      <trkpt lat="44.12978" lon="0.62068">
        <ele>112</ele>
        <time>2025-08-10T08:17:14.696Z</time>
      </trkpt>
      <trkpt lat="44.12978" lon="0.62067">
        <ele>112</ele>
        <time>2025-08-10T08:17:15.696Z</time>
      </trkpt>
      <trkpt lat="44.12978" lon="0.62065">
        <ele>111</ele>
        <time>2025-08-10T08:17:16.696Z</time>
      </trkpt>
      <trkpt lat="44.12978" lon="0.62064">
        <ele>111</ele>
        <time>2025-08-10T08:17:17.696Z</time>
      </trkpt>
      <trkpt lat="44.12979" lon="0.62063">
        <ele>111</ele>
        <time>2025-08-10T08:17:18.696Z</time>
      </trkpt>
      <trkpt lat="44.12979" lon="0.62063">
        <ele>111</ele>
        <time>2025-08-10T08:17:19.696Z</time>
      </trkpt>
      <trkpt lat="44.12979" lon="0.62062">
        <ele>111</ele>
        <time>2025-08-10T08:17:20.696Z</time>
      </trkpt>
      <trkpt lat="44.12979" lon="0.62061">
        <ele>111</ele>
        <time>2025-08-10T08:17:21.696Z</time>
      </trkpt>
      <trkpt lat="44.12978" lon="0.6206">
        <ele>111</ele>
        <time>2025-08-10T08:17:22.696Z</time>
      </trkpt>
      <trkpt lat="44.12978" lon="0.6206">
        <ele>111</ele>
        <time>2025-08-10T08:17:23.696Z</time>
      </trkpt>
      <trkpt lat="44.12978" lon="0.6206">
        <ele>111</ele>
        <time>2025-08-10T08:17:24.696Z</time>
      </trkpt>
      <trkpt lat="44.12979" lon="0.6206">
        <ele>111</ele>
        <time>2025-08-10T08:17:25.696Z</time>
      </trkpt>
      <trkpt lat="44.12978" lon="0.62058">
        <ele>111</ele>
        <time>2025-08-10T08:17:26.696Z</time>
      </trkpt>
      <trkpt lat="44.12977" lon="0.62057">
        <ele>111</ele>
        <time>2025-08-10T08:17:27.696Z</time>
      </trkpt>
      <trkpt lat="44.12977" lon="0.62056">
        <ele>111</ele>
        <time>2025-08-10T08:17:28.696Z</time>
      </trkpt>
      <trkpt lat="44.12977" lon="0.62055">
        <ele>110</ele>
        <time>2025-08-10T08:17:29.696Z</time>
      </trkpt>
      <trkpt lat="44.12976" lon="0.62055">
        <ele>110</ele>
        <time>2025-08-10T08:17:30.696Z</time>
      </trkpt>
      <trkpt lat="44.12976" lon="0.62055">
        <ele>110</ele>
        <time>2025-08-10T08:17:31.696Z</time>
      </trkpt>
      <trkpt lat="44.12976" lon="0.62055">
        <ele>110</ele>
        <time>2025-08-10T08:17:32.696Z</time>
      </trkpt>
      <trkpt lat="44.12976" lon="0.62054">
        <ele>110</ele>
        <time>2025-08-10T08:17:33.696Z</time>
      </trkpt>
      <trkpt lat="44.12976" lon="0.62053">
        <ele>110</ele>
        <time>2025-08-10T08:17:34.696Z</time>
      </trkpt>
      <trkpt lat="44.12976" lon="0.62053">
        <ele>110</ele>
        <time>2025-08-10T08:17:35.696Z</time>
      </trkpt>
      <trkpt lat="44.12976" lon="0.62053">
        <ele>110</ele>
        <time>2025-08-10T08:17:36.696Z</time>
      </trkpt>
      <trkpt lat="44.12976" lon="0.62053">
        <ele>110</ele>
        <time>2025-08-10T08:17:37.696Z</time>
      </trkpt>
      <trkpt lat="44.12976" lon="0.62052">
        <ele>110</ele>
        <time>2025-08-10T08:17:38.696Z</time>
      </trkpt>
      <trkpt lat="44.12976" lon="0.62052">
        <ele>110</ele>
        <time>2025-08-10T08:17:39.696Z</time>
      </trkpt>
      <trkpt lat="44.12976" lon="0.62052">
        <ele>110</ele>
        <time>2025-08-10T08:17:40.696Z</time>
      </trkpt>
      <trkpt lat="44.12976" lon="0.62052">
        <ele>110</ele>
        <time>2025-08-10T08:17:41.696Z</time>
      </trkpt>
      <trkpt lat="44.12975" lon="0.62051">
        <ele>110</ele>
        <time>2025-08-10T08:17:42.696Z</time>
      </trkpt>
      <trkpt lat="44.12975" lon="0.6205">
        <ele>110</ele>
        <time>2025-08-10T08:17:43.697Z</time>
      </trkpt>
      <trkpt lat="44.12975" lon="0.6205">
        <ele>110</ele>
        <time>2025-08-10T08:17:44.696Z</time>
      </trkpt>
      <trkpt lat="44.12975" lon="0.6205">
        <ele>109</ele>
        <time>2025-08-10T08:17:45.696Z</time>
      </trkpt>
      <trkpt lat="44.12974" lon="0.62049">
        <ele>109</ele>
        <time>2025-08-10T08:17:46.696Z</time>
      </trkpt>
      <trkpt lat="44.12974" lon="0.62049">
        <ele>109</ele>
        <time>2025-08-10T08:17:47.696Z</time>
      </trkpt>
      <trkpt lat="44.12974" lon="0.62049">
        <ele>109</ele>
        <time>2025-08-10T08:17:48.696Z</time>
      </trkpt>
      <trkpt lat="44.12974" lon="0.62048">
        <ele>109</ele>
        <time>2025-08-10T08:17:49.696Z</time>
      </trkpt>
      <trkpt lat="44.12974" lon="0.62048">
        <ele>109</ele>
        <time>2025-08-10T08:17:50.696Z</time>
      </trkpt>
      <trkpt lat="44.12974" lon="0.62048">
        <ele>109</ele>
        <time>2025-08-10T08:17:51.696Z</time>
      </trkpt>
      <trkpt lat="44.12974" lon="0.62048">
        <ele>109</ele>
        <time>2025-08-10T08:17:52.696Z</time>
      </trkpt>
      <trkpt lat="44.12974" lon="0.62048">
        <ele>109</ele>
        <time>2025-08-10T08:17:53.696Z</time>
      </trkpt>
      <trkpt lat="44.12974" lon="0.62048">
        <ele>109</ele>
        <time>2025-08-10T08:17:54.696Z</time>
      </trkpt>
      <trkpt lat="44.12974" lon="0.62048">
        <ele>110</ele>
        <time>2025-08-10T08:17:55.696Z</time>
      </trkpt>
      <trkpt lat="44.12973" lon="0.62047">
        <ele>110</ele>
        <time>2025-08-10T08:17:56.696Z</time>
      </trkpt>
      <trkpt lat="44.12974" lon="0.62047">
        <ele>110</ele>
        <time>2025-08-10T08:17:57.696Z</time>
      </trkpt>
      <trkpt lat="44.12974" lon="0.62047">
        <ele>110</ele>
        <time>2025-08-10T08:17:58.697Z</time>
      </trkpt>
      <trkpt lat="44.12974" lon="0.62046">
        <ele>110</ele>
        <time>2025-08-10T08:17:59.696Z</time>
      </trkpt>
      <trkpt lat="44.12975" lon="0.62047">
        <ele>110</ele>
        <time>2025-08-10T08:18:00.696Z</time>
      </trkpt>
      <trkpt lat="44.12975" lon="0.62047">
        <ele>110</ele>
        <time>2025-08-10T08:18:01.696Z</time>
      </trkpt>
      <trkpt lat="44.12975" lon="0.62047">
        <ele>110</ele>
        <time>2025-08-10T08:18:02.696Z</time>
      </trkpt>
      <trkpt lat="44.12976" lon="0.62047">
        <ele>110</ele>
        <time>2025-08-10T08:18:03.696Z</time>
      </trkpt>
      <trkpt lat="44.12976" lon="0.62047">
        <ele>110</ele>
        <time>2025-08-10T08:18:04.696Z</time>
      </trkpt>
      <trkpt lat="44.12976" lon="0.62047">
        <ele>110</ele>
        <time>2025-08-10T08:18:05.696Z</time>
      </trkpt>
      <trkpt lat="44.12975" lon="0.62047">
        <ele>111</ele>
        <time>2025-08-10T08:18:06.696Z</time>
      </trkpt>
      <trkpt lat="44.12975" lon="0.62047">
        <ele>111</ele>
        <time>2025-08-10T08:18:07.696Z</time>
      </trkpt>
      <trkpt lat="44.12975" lon="0.62047">
        <ele>111</ele>
        <time>2025-08-10T08:18:08.696Z</time>
      </trkpt>
      <trkpt lat="44.12975" lon="0.62046">
        <ele>111</ele>
        <time>2025-08-10T08:18:09.696Z</time>
      </trkpt>
      <trkpt lat="44.12976" lon="0.62046">
        <ele>111</ele>
        <time>2025-08-10T08:18:10.696Z</time>
      </trkpt>
      <trkpt lat="44.12976" lon="0.62046">
        <ele>111</ele>
        <time>2025-08-10T08:18:11.696Z</time>
      </trkpt>
      <trkpt lat="44.12976" lon="0.62046">
        <ele>111</ele>
        <time>2025-08-10T08:18:12.696Z</time>
      </trkpt>
      <trkpt lat="44.12976" lon="0.62045">
        <ele>112</ele>
        <time>2025-08-10T08:18:13.696Z</time>
      </trkpt>
      <trkpt lat="44.12976" lon="0.62045">
        <ele>112</ele>
        <time>2025-08-10T08:18:14.696Z</time>
      </trkpt>
      <trkpt lat="44.12976" lon="0.62045">
        <ele>112</ele>
        <time>2025-08-10T08:18:15.696Z</time>
      </trkpt>
      <trkpt lat="44.12976" lon="0.62045">
        <ele>113</ele>
        <time>2025-08-10T08:18:16.696Z</time>
      </trkpt>
      <trkpt lat="44.12976" lon="0.62045">
        <ele>113</ele>
        <time>2025-08-10T08:18:17.696Z</time>
      </trkpt>
      <trkpt lat="44.12976" lon="0.62046">
        <ele>113</ele>
        <time>2025-08-10T08:18:18.696Z</time>
      </trkpt>
      <trkpt lat="44.12976" lon="0.62046">
        <ele>114</ele>
        <time>2025-08-10T08:18:19.696Z</time>
      </trkpt>
      <trkpt lat="44.12976" lon="0.62046">
        <ele>114</ele>
        <time>2025-08-10T08:18:20.696Z</time>
      </trkpt>
      <trkpt lat="44.12976" lon="0.62046">
        <ele>114</ele>
        <time>2025-08-10T08:18:21.696Z</time>
      </trkpt>
      <trkpt lat="44.12976" lon="0.62045">
        <ele>114</ele>
        <time>2025-08-10T08:18:22.696Z</time>
      </trkpt>
      <trkpt lat="44.12976" lon="0.62045">
        <ele>114</ele>
        <time>2025-08-10T08:18:23.696Z</time>
      </trkpt>
      <trkpt lat="44.12975" lon="0.62045">
        <ele>114</ele>
        <time>2025-08-10T08:18:24.696Z</time>
      </trkpt>
      <trkpt lat="44.12975" lon="0.62045">
        <ele>114</ele>
        <time>2025-08-10T08:18:25.696Z</time>
      </trkpt>
      <trkpt lat="44.12974" lon="0.62045">
        <ele>114</ele>
        <time>2025-08-10T08:18:26.696Z</time>
      </trkpt>
      <trkpt lat="44.12974" lon="0.62044">
        <ele>115</ele>
        <time>2025-08-10T08:18:27.696Z</time>
      </trkpt>
      <trkpt lat="44.12974" lon="0.62044">
        <ele>115</ele>
        <time>2025-08-10T08:18:28.696Z</time>
      </trkpt>
      <trkpt lat="44.12974" lon="0.62042">
        <ele>115</ele>
        <time>2025-08-10T08:18:29.696Z</time>
      </trkpt>
      <trkpt lat="44.12973" lon="0.62041">
        <ele>115</ele>
        <time>2025-08-10T08:18:30.696Z</time>
      </trkpt>
      <trkpt lat="44.12973" lon="0.6204">
        <ele>115</ele>
        <time>2025-08-10T08:18:31.696Z</time>
      </trkpt>
      <trkpt lat="44.12972" lon="0.62038">
        <ele>115</ele>
        <time>2025-08-10T08:18:32.696Z</time>
      </trkpt>
      <trkpt lat="44.12971" lon="0.62038">
        <ele>115</ele>
        <time>2025-08-10T08:18:33.696Z</time>
      </trkpt>
      <trkpt lat="44.1297" lon="0.62037">
        <ele>115</ele>
        <time>2025-08-10T08:18:34.696Z</time>
      </trkpt>
      <trkpt lat="44.1297" lon="0.62036">
        <ele>115</ele>
        <time>2025-08-10T08:18:35.696Z</time>
      </trkpt>
      <trkpt lat="44.1297" lon="0.62036">
        <ele>116</ele>
        <time>2025-08-10T08:18:36.696Z</time>
      </trkpt>
      <trkpt lat="44.12969" lon="0.62035">
        <ele>116</ele>
        <time>2025-08-10T08:18:37.696Z</time>
      </trkpt>
      <trkpt lat="44.12969" lon="0.62034">
        <ele>116</ele>
        <time>2025-08-10T08:18:38.696Z</time>
      </trkpt>
      <trkpt lat="44.12968" lon="0.62033">
        <ele>117</ele>
        <time>2025-08-10T08:18:39.696Z</time>
      </trkpt>
      <trkpt lat="44.12968" lon="0.62033">
        <ele>117</ele>
        <time>2025-08-10T08:18:40.696Z</time>
      </trkpt>
      <trkpt lat="44.12967" lon="0.62032">
        <ele>117</ele>
        <time>2025-08-10T08:18:41.696Z</time>
      </trkpt>
      <trkpt lat="44.12967" lon="0.62031">
        <ele>118</ele>
        <time>2025-08-10T08:18:42.696Z</time>
      </trkpt>
      <trkpt lat="44.12966" lon="0.62031">
        <ele>118</ele>
        <time>2025-08-10T08:18:43.696Z</time>
      </trkpt>
      <trkpt lat="44.12965" lon="0.6203">
        <ele>118</ele>
        <time>2025-08-10T08:18:44.696Z</time>
      </trkpt>
      <trkpt lat="44.12965" lon="0.62029">
        <ele>118</ele>
        <time>2025-08-10T08:18:45.696Z</time>
      </trkpt>
      <trkpt lat="44.12964" lon="0.62027">
        <ele>118</ele>
        <time>2025-08-10T08:18:46.696Z</time>
      </trkpt>
      <trkpt lat="44.12963" lon="0.62026">
        <ele>119</ele>
        <time>2025-08-10T08:18:47.696Z</time>
      </trkpt>
      <trkpt lat="44.12963" lon="0.62025">
        <ele>119</ele>
        <time>2025-08-10T08:18:48.696Z</time>
      </trkpt>
      <trkpt lat="44.12962" lon="0.62024">
        <ele>120</ele>
        <time>2025-08-10T08:18:49.696Z</time>
      </trkpt>
      <trkpt lat="44.12962" lon="0.62024">
        <ele>120</ele>
        <time>2025-08-10T08:18:50.696Z</time>
      </trkpt>
      <trkpt lat="44.12961" lon="0.62023">
        <ele>120</ele>
        <time>2025-08-10T08:18:51.696Z</time>
      </trkpt>
      <trkpt lat="44.12961" lon="0.62022">
        <ele>120</ele>
        <time>2025-08-10T08:18:52.696Z</time>
      </trkpt>
      <trkpt lat="44.1296" lon="0.6202">
        <ele>120</ele>
        <time>2025-08-10T08:18:53.696Z</time>
      </trkpt>
      <trkpt lat="44.12959" lon="0.62019">
        <ele>121</ele>
        <time>2025-08-10T08:18:54.696Z</time>
      </trkpt>
      <trkpt lat="44.12958" lon="0.62018">
        <ele>121</ele>
        <time>2025-08-10T08:18:55.696Z</time>
      </trkpt>
      <trkpt lat="44.12957" lon="0.62018">
        <ele>121</ele>
        <time>2025-08-10T08:18:56.696Z</time>
      </trkpt>
      <trkpt lat="44.12956" lon="0.62018">
        <ele>121</ele>
        <time>2025-08-10T08:18:57.696Z</time>
      </trkpt>
      <trkpt lat="44.12955" lon="0.62017">
        <ele>122</ele>
        <time>2025-08-10T08:18:58.696Z</time>
      </trkpt>
      <trkpt lat="44.12955" lon="0.62016">
        <ele>122</ele>
        <time>2025-08-10T08:18:59.696Z</time>
      </trkpt>
      <trkpt lat="44.12954" lon="0.62015">
        <ele>122</ele>
        <time>2025-08-10T08:19:00.696Z</time>
      </trkpt>
      <trkpt lat="44.12953" lon="0.62014">
        <ele>122</ele>
        <time>2025-08-10T08:19:01.696Z</time>
      </trkpt>
      <trkpt lat="44.12952" lon="0.62013">
        <ele>122</ele>
        <time>2025-08-10T08:19:02.696Z</time>
      </trkpt>
      <trkpt lat="44.12951" lon="0.62012">
        <ele>122</ele>
        <time>2025-08-10T08:19:03.696Z</time>
      </trkpt>
      <trkpt lat="44.1295" lon="0.62012">
        <ele>123</ele>
        <time>2025-08-10T08:19:04.696Z</time>
      </trkpt>
      <trkpt lat="44.1295" lon="0.6201">
        <ele>123</ele>
        <time>2025-08-10T08:19:05.696Z</time>
      </trkpt>
      <trkpt lat="44.12948" lon="0.62008">
        <ele>123</ele>
        <time>2025-08-10T08:19:06.696Z</time>
      </trkpt>
      <trkpt lat="44.12947" lon="0.62007">
        <ele>123</ele>
        <time>2025-08-10T08:19:07.696Z</time>
      </trkpt>
      <trkpt lat="44.12947" lon="0.62006">
        <ele>123</ele>
        <time>2025-08-10T08:19:08.696Z</time>
      </trkpt>
      <trkpt lat="44.12946" lon="0.62005">
        <ele>123</ele>
        <time>2025-08-10T08:19:09.696Z</time>
      </trkpt>
      <trkpt lat="44.12945" lon="0.62004">
        <ele>123</ele>
        <time>2025-08-10T08:19:10.696Z</time>
      </trkpt>
      <trkpt lat="44.12945" lon="0.62003">
        <ele>123</ele>
        <time>2025-08-10T08:19:11.696Z</time>
      </trkpt>
      <trkpt lat="44.12945" lon="0.62002">
        <ele>123</ele>
        <time>2025-08-10T08:19:12.696Z</time>
      </trkpt>
      <trkpt lat="44.12944" lon="0.62001">
        <ele>123</ele>
        <time>2025-08-10T08:19:13.696Z</time>
      </trkpt>
      <trkpt lat="44.12942" lon="0.61999">
        <ele>123</ele>
        <time>2025-08-10T08:19:14.696Z</time>
      </trkpt>
      <trkpt lat="44.12942" lon="0.61999">
        <ele>123</ele>
        <time>2025-08-10T08:19:15.696Z</time>
      </trkpt>
      <trkpt lat="44.12941" lon="0.61998">
        <ele>124</ele>
        <time>2025-08-10T08:19:16.696Z</time>
      </trkpt>
      <trkpt lat="44.12941" lon="0.61996">
        <ele>124</ele>
        <time>2025-08-10T08:19:17.696Z</time>
      </trkpt>
      <trkpt lat="44.1294" lon="0.61995">
        <ele>124</ele>
        <time>2025-08-10T08:19:18.696Z</time>
      </trkpt>
      <trkpt lat="44.12939" lon="0.61994">
        <ele>124</ele>
        <time>2025-08-10T08:19:19.696Z</time>
      </trkpt>
      <trkpt lat="44.12938" lon="0.61994">
        <ele>124</ele>
        <time>2025-08-10T08:19:20.696Z</time>
      </trkpt>
      <trkpt lat="44.12937" lon="0.61992">
        <ele>124</ele>
        <time>2025-08-10T08:19:21.696Z</time>
      </trkpt>
      <trkpt lat="44.12936" lon="0.61991">
        <ele>123</ele>
        <time>2025-08-10T08:19:22.696Z</time>
      </trkpt>
      <trkpt lat="44.12936" lon="0.61989">
        <ele>123</ele>
        <time>2025-08-10T08:19:23.696Z</time>
      </trkpt>
      <trkpt lat="44.12936" lon="0.61989">
        <ele>123</ele>
        <time>2025-08-10T08:19:24.696Z</time>
      </trkpt>
      <trkpt lat="44.12935" lon="0.61988">
        <ele>123</ele>
        <time>2025-08-10T08:19:25.696Z</time>
      </trkpt>
      <trkpt lat="44.12935" lon="0.61985">
        <ele>123</ele>
        <time>2025-08-10T08:19:26.696Z</time>
      </trkpt>
      <trkpt lat="44.12935" lon="0.61984">
        <ele>123</ele>
        <time>2025-08-10T08:19:27.696Z</time>
      </trkpt>
      <trkpt lat="44.12934" lon="0.61983">
        <ele>123</ele>
        <time>2025-08-10T08:19:28.696Z</time>
      </trkpt>
      <trkpt lat="44.12934" lon="0.61983">
        <ele>123</ele>
        <time>2025-08-10T08:19:29.696Z</time>
      </trkpt>
      <trkpt lat="44.12934" lon="0.61983">
        <ele>122</ele>
        <time>2025-08-10T08:19:30.696Z</time>
      </trkpt>
      <trkpt lat="44.12934" lon="0.61983">
        <ele>122</ele>
        <time>2025-08-10T08:19:31.696Z</time>
      </trkpt>
      <trkpt lat="44.12934" lon="0.61982">
        <ele>122</ele>
        <time>2025-08-10T08:19:32.696Z</time>
      </trkpt>
      <trkpt lat="44.12934" lon="0.61982">
        <ele>122</ele>
        <time>2025-08-10T08:19:33.696Z</time>
      </trkpt>
      <trkpt lat="44.12933" lon="0.61982">
        <ele>122</ele>
        <time>2025-08-10T08:19:34.696Z</time>
      </trkpt>
      <trkpt lat="44.12933" lon="0.61982">
        <ele>121</ele>
        <time>2025-08-10T08:19:35.696Z</time>
      </trkpt>
      <trkpt lat="44.12932" lon="0.61982">
        <ele>121</ele>
        <time>2025-08-10T08:19:36.696Z</time>
      </trkpt>
      <trkpt lat="44.12931" lon="0.61982">
        <ele>121</ele>
        <time>2025-08-10T08:19:37.696Z</time>
      </trkpt>
      <trkpt lat="44.12931" lon="0.61982">
        <ele>121</ele>
        <time>2025-08-10T08:19:38.696Z</time>
      </trkpt>
      <trkpt lat="44.1293" lon="0.61983">
        <ele>121</ele>
        <time>2025-08-10T08:19:39.696Z</time>
      </trkpt>
      <trkpt lat="44.12931" lon="0.61983">
        <ele>120</ele>
        <time>2025-08-10T08:19:40.696Z</time>
      </trkpt>
      <trkpt lat="44.12931" lon="0.61984">
        <ele>120</ele>
        <time>2025-08-10T08:19:41.696Z</time>
      </trkpt>
      <trkpt lat="44.12931" lon="0.61984">
        <ele>119</ele>
        <time>2025-08-10T08:19:42.696Z</time>
      </trkpt>
      <trkpt lat="44.1293" lon="0.61984">
        <ele>119</ele>
        <time>2025-08-10T08:19:43.696Z</time>
      </trkpt>
      <trkpt lat="44.12931" lon="0.61984">
        <ele>119</ele>
        <time>2025-08-10T08:19:44.696Z</time>
      </trkpt>
      <trkpt lat="44.12931" lon="0.61984">
        <ele>118</ele>
        <time>2025-08-10T08:19:45.696Z</time>
      </trkpt>
      <trkpt lat="44.12931" lon="0.61984">
        <ele>118</ele>
        <time>2025-08-10T08:19:46.696Z</time>
      </trkpt>
      <trkpt lat="44.12931" lon="0.61984">
        <ele>118</ele>
        <time>2025-08-10T08:19:47.696Z</time>
      </trkpt>
      <trkpt lat="44.1293" lon="0.61984">
        <ele>117</ele>
        <time>2025-08-10T08:19:48.696Z</time>
      </trkpt>
      <trkpt lat="44.1293" lon="0.61984">
        <ele>117</ele>
        <time>2025-08-10T08:19:49.696Z</time>
      </trkpt>
      <trkpt lat="44.1293" lon="0.61984">
        <ele>116</ele>
        <time>2025-08-10T08:19:50.696Z</time>
      </trkpt>
      <trkpt lat="44.12931" lon="0.61984">
        <ele>116</ele>
        <time>2025-08-10T08:19:51.696Z</time>
      </trkpt>
      <trkpt lat="44.12931" lon="0.61984">
        <ele>116</ele>
        <time>2025-08-10T08:19:52.696Z</time>
      </trkpt>
      <trkpt lat="44.12931" lon="0.61984">
        <ele>116</ele>
        <time>2025-08-10T08:19:53.696Z</time>
      </trkpt>
      <trkpt lat="44.12931" lon="0.61985">
        <ele>115</ele>
        <time>2025-08-10T08:19:54.696Z</time>
      </trkpt>
      <trkpt lat="44.12931" lon="0.61985">
        <ele>115</ele>
        <time>2025-08-10T08:19:55.696Z</time>
      </trkpt>
      <trkpt lat="44.12931" lon="0.61985">
        <ele>115</ele>
        <time>2025-08-10T08:19:56.696Z</time>
      </trkpt>
      <trkpt lat="44.12931" lon="0.61985">
        <ele>115</ele>
        <time>2025-08-10T08:19:57.696Z</time>
      </trkpt>
      <trkpt lat="44.12931" lon="0.61985">
        <ele>115</ele>
        <time>2025-08-10T08:19:58.696Z</time>
      </trkpt>
      <trkpt lat="44.12931" lon="0.61985">
        <ele>116</ele>
        <time>2025-08-10T08:19:59.696Z</time>
      </trkpt>
      <trkpt lat="44.12931" lon="0.61984">
        <ele>116</ele>
        <time>2025-08-10T08:20:00.696Z</time>
      </trkpt>
      <trkpt lat="44.12931" lon="0.61984">
        <ele>116</ele>
        <time>2025-08-10T08:20:01.696Z</time>
      </trkpt>
      <trkpt lat="44.12931" lon="0.61984">
        <ele>116</ele>
        <time>2025-08-10T08:20:02.696Z</time>
      </trkpt>
      <trkpt lat="44.12931" lon="0.61984">
        <ele>116</ele>
        <time>2025-08-10T08:20:03.696Z</time>
      </trkpt>
      <trkpt lat="44.12931" lon="0.61983">
        <ele>116</ele>
        <time>2025-08-10T08:20:04.696Z</time>
      </trkpt>
      <trkpt lat="44.12931" lon="0.61983">
        <ele>116</ele>
        <time>2025-08-10T08:20:05.696Z</time>
      </trkpt>
      <trkpt lat="44.12931" lon="0.61983">
        <ele>116</ele>
        <time>2025-08-10T08:20:06.696Z</time>
      </trkpt>
      <trkpt lat="44.12931" lon="0.61983">
        <ele>116</ele>
        <time>2025-08-10T08:20:07.696Z</time>
      </trkpt>
      <trkpt lat="44.1293" lon="0.61983">
        <ele>116</ele>
        <time>2025-08-10T08:20:08.696Z</time>
      </trkpt>
      <trkpt lat="44.1293" lon="0.61983">
        <ele>117</ele>
        <time>2025-08-10T08:20:09.696Z</time>
      </trkpt>
      <trkpt lat="44.1293" lon="0.61983">
        <ele>117</ele>
        <time>2025-08-10T08:20:10.696Z</time>
      </trkpt>
      <trkpt lat="44.1293" lon="0.61983">
        <ele>117</ele>
        <time>2025-08-10T08:20:11.696Z</time>
      </trkpt>
      <trkpt lat="44.1293" lon="0.61983">
        <ele>117</ele>
        <time>2025-08-10T08:20:12.696Z</time>
      </trkpt>
      <trkpt lat="44.1293" lon="0.61983">
        <ele>117</ele>
        <time>2025-08-10T08:20:13.696Z</time>
      </trkpt>
      <trkpt lat="44.1293" lon="0.61983">
        <ele>118</ele>
        <time>2025-08-10T08:20:14.696Z</time>
      </trkpt>
      <trkpt lat="44.1293" lon="0.61983">
        <ele>118</ele>
        <time>2025-08-10T08:20:15.696Z</time>
      </trkpt>
      <trkpt lat="44.1293" lon="0.61983">
        <ele>118</ele>
        <time>2025-08-10T08:20:16.696Z</time>
      </trkpt>
      <trkpt lat="44.1293" lon="0.61983">
        <ele>118</ele>
        <time>2025-08-10T08:20:17.696Z</time>
      </trkpt>
      <trkpt lat="44.1293" lon="0.61983">
        <ele>118</ele>
        <time>2025-08-10T08:20:18.696Z</time>
      </trkpt>
      <trkpt lat="44.12931" lon="0.61983">
        <ele>118</ele>
        <time>2025-08-10T08:20:19.696Z</time>
      </trkpt>
      <trkpt lat="44.12931" lon="0.61983">
        <ele>118</ele>
        <time>2025-08-10T08:20:20.696Z</time>
      </trkpt>
      <trkpt lat="44.12931" lon="0.61984">
        <ele>119</ele>
        <time>2025-08-10T08:20:21.696Z</time>
      </trkpt>
      <trkpt lat="44.12931" lon="0.61983">
        <ele>119</ele>
        <time>2025-08-10T08:20:22.696Z</time>
      </trkpt>
      <trkpt lat="44.12931" lon="0.61984">
        <ele>119</ele>
        <time>2025-08-10T08:20:23.696Z</time>
      </trkpt>
      <trkpt lat="44.1293" lon="0.61984">
        <ele>119</ele>
        <time>2025-08-10T08:20:24.696Z</time>
      </trkpt>
      <trkpt lat="44.1293" lon="0.61984">
        <ele>120</ele>
        <time>2025-08-10T08:20:25.696Z</time>
      </trkpt>
      <trkpt lat="44.1293" lon="0.61984">
        <ele>120</ele>
        <time>2025-08-10T08:20:26.696Z</time>
      </trkpt>
      <trkpt lat="44.1293" lon="0.61985">
        <ele>120</ele>
        <time>2025-08-10T08:20:27.696Z</time>
      </trkpt>
      <trkpt lat="44.1293" lon="0.61985">
        <ele>120</ele>
        <time>2025-08-10T08:20:28.696Z</time>
      </trkpt>
      <trkpt lat="44.1293" lon="0.61985">
        <ele>120</ele>
        <time>2025-08-10T08:20:29.696Z</time>
      </trkpt>
      <trkpt lat="44.1293" lon="0.61985">
        <ele>121</ele>
        <time>2025-08-10T08:20:30.696Z</time>
      </trkpt>
      <trkpt lat="44.1293" lon="0.61985">
        <ele>121</ele>
        <time>2025-08-10T08:20:31.696Z</time>
      </trkpt>
      <trkpt lat="44.1293" lon="0.61985">
        <ele>121</ele>
        <time>2025-08-10T08:20:32.696Z</time>
      </trkpt>
      <trkpt lat="44.12929" lon="0.61984">
        <ele>121</ele>
        <time>2025-08-10T08:20:33.696Z</time>
      </trkpt>
      <trkpt lat="44.12929" lon="0.61984">
        <ele>121</ele>
        <time>2025-08-10T08:20:34.696Z</time>
      </trkpt>
      <trkpt lat="44.12929" lon="0.61984">
        <ele>121</ele>
        <time>2025-08-10T08:20:35.696Z</time>
      </trkpt>
      <trkpt lat="44.12929" lon="0.61984">
        <ele>121</ele>
        <time>2025-08-10T08:20:36.696Z</time>
      </trkpt>
      <trkpt lat="44.12929" lon="0.61984">
        <ele>121</ele>
        <time>2025-08-10T08:20:37.696Z</time>
      </trkpt>
      <trkpt lat="44.12929" lon="0.61984">
        <ele>121</ele>
        <time>2025-08-10T08:20:38.696Z</time>
      </trkpt>
      <trkpt lat="44.1293" lon="0.61984">
        <ele>121</ele>
        <time>2025-08-10T08:20:39.696Z</time>
      </trkpt>
      <trkpt lat="44.12929" lon="0.61984">
        <ele>120</ele>
        <time>2025-08-10T08:20:40.696Z</time>
      </trkpt>
      <trkpt lat="44.12929" lon="0.61984">
        <ele>120</ele>
        <time>2025-08-10T08:20:41.696Z</time>
      </trkpt>
      <trkpt lat="44.12929" lon="0.61984">
        <ele>120</ele>
        <time>2025-08-10T08:20:42.696Z</time>
      </trkpt>
      <trkpt lat="44.12929" lon="0.61984">
        <ele>119</ele>
        <time>2025-08-10T08:20:43.696Z</time>
      </trkpt>
      <trkpt lat="44.12929" lon="0.61984">
        <ele>119</ele>
        <time>2025-08-10T08:20:44.696Z</time>
      </trkpt>
      <trkpt lat="44.12929" lon="0.61984">
        <ele>119</ele>
        <time>2025-08-10T08:20:45.696Z</time>
      </trkpt>
      <trkpt lat="44.12929" lon="0.61984">
        <ele>119</ele>
        <time>2025-08-10T08:20:46.696Z</time>
      </trkpt>
      <trkpt lat="44.12929" lon="0.61984">
        <ele>119</ele>
        <time>2025-08-10T08:20:47.696Z</time>
      </trkpt>
      <trkpt lat="44.12929" lon="0.61984">
        <ele>119</ele>
        <time>2025-08-10T08:20:48.696Z</time>
      </trkpt>
      <trkpt lat="44.12929" lon="0.61983">
        <ele>119</ele>
        <time>2025-08-10T08:20:49.696Z</time>
      </trkpt>
      <trkpt lat="44.12929" lon="0.61983">
        <ele>119</ele>
        <time>2025-08-10T08:20:50.696Z</time>
      </trkpt>
      <trkpt lat="44.12929" lon="0.61983">
        <ele>119</ele>
        <time>2025-08-10T08:20:51.696Z</time>
      </trkpt>
      <trkpt lat="44.12928" lon="0.61983">
        <ele>119</ele>
        <time>2025-08-10T08:20:52.696Z</time>
      </trkpt>
      <trkpt lat="44.12928" lon="0.61982">
        <ele>119</ele>
        <time>2025-08-10T08:20:53.696Z</time>
      </trkpt>
      <trkpt lat="44.12927" lon="0.61982">
        <ele>119</ele>
        <time>2025-08-10T08:20:54.696Z</time>
      </trkpt>
      <trkpt lat="44.12927" lon="0.61982">
        <ele>119</ele>
        <time>2025-08-10T08:20:55.696Z</time>
      </trkpt>
      <trkpt lat="44.12927" lon="0.61982">
        <ele>119</ele>
        <time>2025-08-10T08:20:56.696Z</time>
      </trkpt>
      <trkpt lat="44.12927" lon="0.61982">
        <ele>119</ele>
        <time>2025-08-10T08:20:57.696Z</time>
      </trkpt>
      <trkpt lat="44.12926" lon="0.61982">
        <ele>120</ele>
        <time>2025-08-10T08:20:58.696Z</time>
      </trkpt>
      <trkpt lat="44.12926" lon="0.61982">
        <ele>120</ele>
        <time>2025-08-10T08:20:59.696Z</time>
      </trkpt>
      <trkpt lat="44.12926" lon="0.61982">
        <ele>120</ele>
        <time>2025-08-10T08:21:00.696Z</time>
      </trkpt>
      <trkpt lat="44.12926" lon="0.61982">
        <ele>120</ele>
        <time>2025-08-10T08:21:01.696Z</time>
      </trkpt>
      <trkpt lat="44.12926" lon="0.61982">
        <ele>120</ele>
        <time>2025-08-10T08:21:02.696Z</time>
      </trkpt>
      <trkpt lat="44.12926" lon="0.61981">
        <ele>121</ele>
        <time>2025-08-10T08:21:03.696Z</time>
      </trkpt>
      <trkpt lat="44.12926" lon="0.61981">
        <ele>121</ele>
        <time>2025-08-10T08:21:04.696Z</time>
      </trkpt>
      <trkpt lat="44.12926" lon="0.61981">
        <ele>121</ele>
        <time>2025-08-10T08:21:05.696Z</time>
      </trkpt>
      <trkpt lat="44.12926" lon="0.61981">
        <ele>121</ele>
        <time>2025-08-10T08:21:06.696Z</time>
      </trkpt>
      <trkpt lat="44.12926" lon="0.61981">
        <ele>121</ele>
        <time>2025-08-10T08:21:07.696Z</time>
      </trkpt>
      <trkpt lat="44.12926" lon="0.61981">
        <ele>121</ele>
        <time>2025-08-10T08:21:08.696Z</time>
      </trkpt>
      <trkpt lat="44.12926" lon="0.61981">
        <ele>121</ele>
        <time>2025-08-10T08:21:09.696Z</time>
      </trkpt>
      <trkpt lat="44.12925" lon="0.6198">
        <ele>121</ele>
        <time>2025-08-10T08:21:10.696Z</time>
      </trkpt>
      <trkpt lat="44.12925" lon="0.6198">
        <ele>121</ele>
        <time>2025-08-10T08:21:11.696Z</time>
      </trkpt>
      <trkpt lat="44.12925" lon="0.61979">
        <ele>121</ele>
        <time>2025-08-10T08:21:12.696Z</time>
      </trkpt>
      <trkpt lat="44.12925" lon="0.6198">
        <ele>121</ele>
        <time>2025-08-10T08:21:13.696Z</time>
      </trkpt>
      <trkpt lat="44.12925" lon="0.6198">
        <ele>121</ele>
        <time>2025-08-10T08:21:14.696Z</time>
      </trkpt>
      <trkpt lat="44.12924" lon="0.61979">
        <ele>121</ele>
        <time>2025-08-10T08:21:15.696Z</time>
      </trkpt>
      <trkpt lat="44.12924" lon="0.61979">
        <ele>121</ele>
        <time>2025-08-10T08:21:16.696Z</time>
      </trkpt>
      <trkpt lat="44.12924" lon="0.6198">
        <ele>121</ele>
        <time>2025-08-10T08:21:17.696Z</time>
      </trkpt>
      <trkpt lat="44.12925" lon="0.6198">
        <ele>120</ele>
        <time>2025-08-10T08:21:18.696Z</time>
      </trkpt>
      <trkpt lat="44.12925" lon="0.61981">
        <ele>120</ele>
        <time>2025-08-10T08:21:19.696Z</time>
      </trkpt>
      <trkpt lat="44.12925" lon="0.61981">
        <ele>119</ele>
        <time>2025-08-10T08:21:20.696Z</time>
      </trkpt>
      <trkpt lat="44.12925" lon="0.61981">
        <ele>119</ele>
        <time>2025-08-10T08:21:21.696Z</time>
      </trkpt>
      <trkpt lat="44.12925" lon="0.61981">
        <ele>118</ele>
        <time>2025-08-10T08:21:22.696Z</time>
      </trkpt>
      <trkpt lat="44.12925" lon="0.61983">
        <ele>117</ele>
        <time>2025-08-10T08:21:23.696Z</time>
      </trkpt>
      <trkpt lat="44.12925" lon="0.61983">
        <ele>117</ele>
        <time>2025-08-10T08:21:24.696Z</time>
      </trkpt>
      <trkpt lat="44.12925" lon="0.61984">
        <ele>116</ele>
        <time>2025-08-10T08:21:25.696Z</time>
      </trkpt>
      <trkpt lat="44.12925" lon="0.61984">
        <ele>115</ele>
        <time>2025-08-10T08:21:26.696Z</time>
      </trkpt>
      <trkpt lat="44.12925" lon="0.61984">
        <ele>115</ele>
        <time>2025-08-10T08:21:27.696Z</time>
      </trkpt>
      <trkpt lat="44.12924" lon="0.61985">
        <ele>114</ele>
        <time>2025-08-10T08:21:28.696Z</time>
      </trkpt>
      <trkpt lat="44.12924" lon="0.61984">
        <ele>114</ele>
        <time>2025-08-10T08:21:29.696Z</time>
      </trkpt>
      <trkpt lat="44.12924" lon="0.61984">
        <ele>113</ele>
        <time>2025-08-10T08:21:30.696Z</time>
      </trkpt>
      <trkpt lat="44.12924" lon="0.61984">
        <ele>113</ele>
        <time>2025-08-10T08:21:31.696Z</time>
      </trkpt>
      <trkpt lat="44.12924" lon="0.61984">
        <ele>113</ele>
        <time>2025-08-10T08:21:32.696Z</time>
      </trkpt>
      <trkpt lat="44.12924" lon="0.61983">
        <ele>113</ele>
        <time>2025-08-10T08:21:33.696Z</time>
      </trkpt>
      <trkpt lat="44.12924" lon="0.61983">
        <ele>113</ele>
        <time>2025-08-10T08:21:34.696Z</time>
      </trkpt>
      <trkpt lat="44.12923" lon="0.61982">
        <ele>113</ele>
        <time>2025-08-10T08:21:35.696Z</time>
      </trkpt>
      <trkpt lat="44.12923" lon="0.61981">
        <ele>113</ele>
        <time>2025-08-10T08:21:36.696Z</time>
      </trkpt>
      <trkpt lat="44.12923" lon="0.61981">
        <ele>114</ele>
        <time>2025-08-10T08:21:37.696Z</time>
      </trkpt>
      <trkpt lat="44.12923" lon="0.61982">
        <ele>114</ele>
        <time>2025-08-10T08:21:38.696Z</time>
      </trkpt>
      <trkpt lat="44.12923" lon="0.61982">
        <ele>115</ele>
        <time>2025-08-10T08:21:39.696Z</time>
      </trkpt>
      <trkpt lat="44.12923" lon="0.61982">
        <ele>115</ele>
        <time>2025-08-10T08:21:40.696Z</time>
      </trkpt>
      <trkpt lat="44.12923" lon="0.61982">
        <ele>116</ele>
        <time>2025-08-10T08:21:41.696Z</time>
      </trkpt>
      <trkpt lat="44.12923" lon="0.61982">
        <ele>117</ele>
        <time>2025-08-10T08:21:42.696Z</time>
      </trkpt>
      <trkpt lat="44.12923" lon="0.61982">
        <ele>117</ele>
        <time>2025-08-10T08:21:43.696Z</time>
      </trkpt>
      <trkpt lat="44.12923" lon="0.61982">
        <ele>117</ele>
        <time>2025-08-10T08:21:44.696Z</time>
      </trkpt>
      <trkpt lat="44.12922" lon="0.61982">
        <ele>117</ele>
        <time>2025-08-10T08:21:45.696Z</time>
      </trkpt>
      <trkpt lat="44.12922" lon="0.61982">
        <ele>118</ele>
        <time>2025-08-10T08:21:46.696Z</time>
      </trkpt>
      <trkpt lat="44.12922" lon="0.61982">
        <ele>118</ele>
        <time>2025-08-10T08:21:47.696Z</time>
      </trkpt>
      <trkpt lat="44.12922" lon="0.61982">
        <ele>119</ele>
        <time>2025-08-10T08:21:48.696Z</time>
      </trkpt>
      <trkpt lat="44.12922" lon="0.61982">
        <ele>119</ele>
        <time>2025-08-10T08:21:49.696Z</time>
      </trkpt>
      <trkpt lat="44.12923" lon="0.61982">
        <ele>120</ele>
        <time>2025-08-10T08:21:50.696Z</time>
      </trkpt>
      <trkpt lat="44.12923" lon="0.61982">
        <ele>120</ele>
        <time>2025-08-10T08:21:51.696Z</time>
      </trkpt>
      <trkpt lat="44.12923" lon="0.61982">
        <ele>121</ele>
        <time>2025-08-10T08:21:52.696Z</time>
      </trkpt>
      <trkpt lat="44.12923" lon="0.61982">
        <ele>121</ele>
        <time>2025-08-10T08:21:53.696Z</time>
      </trkpt>
      <trkpt lat="44.12923" lon="0.61983">
        <ele>121</ele>
        <time>2025-08-10T08:21:54.696Z</time>
      </trkpt>
      <trkpt lat="44.12923" lon="0.61982">
        <ele>121</ele>
        <time>2025-08-10T08:21:55.696Z</time>
      </trkpt>
      <trkpt lat="44.12923" lon="0.61982">
        <ele>121</ele>
        <time>2025-08-10T08:21:56.696Z</time>
      </trkpt>
      <trkpt lat="44.12923" lon="0.61982">
        <ele>121</ele>
        <time>2025-08-10T08:21:57.696Z</time>
      </trkpt>
      <trkpt lat="44.12923" lon="0.61981">
        <ele>122</ele>
        <time>2025-08-10T08:21:58.696Z</time>
      </trkpt>
      <trkpt lat="44.12923" lon="0.61981">
        <ele>122</ele>
        <time>2025-08-10T08:21:59.696Z</time>
      </trkpt>
      <trkpt lat="44.12923" lon="0.61981">
        <ele>122</ele>
        <time>2025-08-10T08:22:00.696Z</time>
      </trkpt>
      <trkpt lat="44.12923" lon="0.61981">
        <ele>123</ele>
        <time>2025-08-10T08:22:01.696Z</time>
      </trkpt>
      <trkpt lat="44.12923" lon="0.61981">
        <ele>123</ele>
        <time>2025-08-10T08:22:02.696Z</time>
      </trkpt>
      <trkpt lat="44.12923" lon="0.61981">
        <ele>124</ele>
        <time>2025-08-10T08:22:03.696Z</time>
      </trkpt>
      <trkpt lat="44.12923" lon="0.61981">
        <ele>124</ele>
        <time>2025-08-10T08:22:04.696Z</time>
      </trkpt>
      <trkpt lat="44.12923" lon="0.61981">
        <ele>124</ele>
        <time>2025-08-10T08:22:05.696Z</time>
      </trkpt>
      <trkpt lat="44.12923" lon="0.61981">
        <ele>124</ele>
        <time>2025-08-10T08:22:06.696Z</time>
      </trkpt>
      <trkpt lat="44.12923" lon="0.6198">
        <ele>124</ele>
        <time>2025-08-10T08:22:07.696Z</time>
      </trkpt>
      <trkpt lat="44.12923" lon="0.6198">
        <ele>125</ele>
        <time>2025-08-10T08:22:08.696Z</time>
      </trkpt>
      <trkpt lat="44.12923" lon="0.61979">
        <ele>125</ele>
        <time>2025-08-10T08:22:09.696Z</time>
      </trkpt>
      <trkpt lat="44.12923" lon="0.61979">
        <ele>126</ele>
        <time>2025-08-10T08:22:10.696Z</time>
      </trkpt>
      <trkpt lat="44.12923" lon="0.61979">
        <ele>126</ele>
        <time>2025-08-10T08:22:11.696Z</time>
      </trkpt>
      <trkpt lat="44.12923" lon="0.61979">
        <ele>127</ele>
        <time>2025-08-10T08:22:12.696Z</time>
      </trkpt>
      <trkpt lat="44.12922" lon="0.61979">
        <ele>127</ele>
        <time>2025-08-10T08:22:13.696Z</time>
      </trkpt>
      <trkpt lat="44.12922" lon="0.61979">
        <ele>127</ele>
        <time>2025-08-10T08:22:14.696Z</time>
      </trkpt>
      <trkpt lat="44.12922" lon="0.61979">
        <ele>127</ele>
        <time>2025-08-10T08:22:15.696Z</time>
      </trkpt>
      <trkpt lat="44.12922" lon="0.61979">
        <ele>127</ele>
        <time>2025-08-10T08:22:16.696Z</time>
      </trkpt>
      <trkpt lat="44.12922" lon="0.61979">
        <ele>126</ele>
        <time>2025-08-10T08:22:17.696Z</time>
      </trkpt>
      <trkpt lat="44.12923" lon="0.61979">
        <ele>126</ele>
        <time>2025-08-10T08:22:18.696Z</time>
      </trkpt>
      <trkpt lat="44.12923" lon="0.61979">
        <ele>125</ele>
        <time>2025-08-10T08:22:19.696Z</time>
      </trkpt>
      <trkpt lat="44.12922" lon="0.61979">
        <ele>125</ele>
        <time>2025-08-10T08:22:20.696Z</time>
      </trkpt>
      <trkpt lat="44.12922" lon="0.61979">
        <ele>124</ele>
        <time>2025-08-10T08:22:21.696Z</time>
      </trkpt>
      <trkpt lat="44.12922" lon="0.61979">
        <ele>124</ele>
        <time>2025-08-10T08:22:22.696Z</time>
      </trkpt>
      <trkpt lat="44.12922" lon="0.61979">
        <ele>123</ele>
        <time>2025-08-10T08:22:23.696Z</time>
      </trkpt>
      <trkpt lat="44.12922" lon="0.61979">
        <ele>122</ele>
        <time>2025-08-10T08:22:24.696Z</time>
      </trkpt>
      <trkpt lat="44.12922" lon="0.61979">
        <ele>122</ele>
        <time>2025-08-10T08:22:25.696Z</time>
      </trkpt>
      <trkpt lat="44.12922" lon="0.61979">
        <ele>122</ele>
        <time>2025-08-10T08:22:26.696Z</time>
      </trkpt>
      <trkpt lat="44.12922" lon="0.61979">
        <ele>122</ele>
        <time>2025-08-10T08:22:27.696Z</time>
      </trkpt>
      <trkpt lat="44.12922" lon="0.61979">
        <ele>122</ele>
        <time>2025-08-10T08:22:28.696Z</time>
      </trkpt>
      <trkpt lat="44.12922" lon="0.6198">
        <ele>122</ele>
        <time>2025-08-10T08:22:29.696Z</time>
      </trkpt>
      <trkpt lat="44.12922" lon="0.6198">
        <ele>122</ele>
        <time>2025-08-10T08:22:30.696Z</time>
      </trkpt>
      <trkpt lat="44.12922" lon="0.6198">
        <ele>122</ele>
        <time>2025-08-10T08:22:31.696Z</time>
      </trkpt>
      <trkpt lat="44.12922" lon="0.6198">
        <ele>122</ele>
        <time>2025-08-10T08:22:32.696Z</time>
      </trkpt>
      <trkpt lat="44.12922" lon="0.6198">
        <ele>122</ele>
        <time>2025-08-10T08:22:33.696Z</time>
      </trkpt>
      <trkpt lat="44.12922" lon="0.61979">
        <ele>123</ele>
        <time>2025-08-10T08:22:34.696Z</time>
      </trkpt>
      <trkpt lat="44.12922" lon="0.61979">
        <ele>123</ele>
        <time>2025-08-10T08:22:35.696Z</time>
      </trkpt>
      <trkpt lat="44.12922" lon="0.61979">
        <ele>124</ele>
        <time>2025-08-10T08:22:36.696Z</time>
      </trkpt>
      <trkpt lat="44.12922" lon="0.61979">
        <ele>124</ele>
        <time>2025-08-10T08:22:37.696Z</time>
      </trkpt>
      <trkpt lat="44.12922" lon="0.61979">
        <ele>125</ele>
        <time>2025-08-10T08:22:38.696Z</time>
      </trkpt>
      <trkpt lat="44.12922" lon="0.61979">
        <ele>125</ele>
        <time>2025-08-10T08:22:39.696Z</time>
      </trkpt>
      <trkpt lat="44.12922" lon="0.61979">
        <ele>126</ele>
        <time>2025-08-10T08:22:40.696Z</time>
      </trkpt>
      <trkpt lat="44.12922" lon="0.61979">
        <ele>126</ele>
        <time>2025-08-10T08:22:41.696Z</time>
      </trkpt>
      <trkpt lat="44.12922" lon="0.61979">
        <ele>126</ele>
        <time>2025-08-10T08:22:42.696Z</time>
      </trkpt>
      <trkpt lat="44.12922" lon="0.6198">
        <ele>126</ele>
        <time>2025-08-10T08:22:43.696Z</time>
      </trkpt>
      <trkpt lat="44.12922" lon="0.6198">
        <ele>127</ele>
        <time>2025-08-10T08:22:44.696Z</time>
      </trkpt>
      <trkpt lat="44.12922" lon="0.6198">
        <ele>127</ele>
        <time>2025-08-10T08:22:45.696Z</time>
      </trkpt>
      <trkpt lat="44.12922" lon="0.6198">
        <ele>127</ele>
        <time>2025-08-10T08:22:46.696Z</time>
      </trkpt>
      <trkpt lat="44.12922" lon="0.6198">
        <ele>127</ele>
        <time>2025-08-10T08:22:47.696Z</time>
      </trkpt>
      <trkpt lat="44.12922" lon="0.6198">
        <ele>127</ele>
        <time>2025-08-10T08:22:48.696Z</time>
      </trkpt>
      <trkpt lat="44.12922" lon="0.6198">
        <ele>127</ele>
        <time>2025-08-10T08:22:49.696Z</time>
      </trkpt>
      <trkpt lat="44.12922" lon="0.6198">
        <ele>126</ele>
        <time>2025-08-10T08:22:50.696Z</time>
      </trkpt>
      <trkpt lat="44.12922" lon="0.6198">
        <ele>126</ele>
        <time>2025-08-10T08:22:51.696Z</time>
      </trkpt>
      <trkpt lat="44.12922" lon="0.6198">
        <ele>126</ele>
        <time>2025-08-10T08:22:52.696Z</time>
      </trkpt>
      <trkpt lat="44.12922" lon="0.6198">
        <ele>126</ele>
        <time>2025-08-10T08:22:53.696Z</time>
      </trkpt>
      <trkpt lat="44.12922" lon="0.6198">
        <ele>125</ele>
        <time>2025-08-10T08:22:54.696Z</time>
      </trkpt>
      <trkpt lat="44.12922" lon="0.6198">
        <ele>125</ele>
        <time>2025-08-10T08:22:55.696Z</time>
      </trkpt>
      <trkpt lat="44.12921" lon="0.6198">
        <ele>125</ele>
        <time>2025-08-10T08:22:56.696Z</time>
      </trkpt>
      <trkpt lat="44.12921" lon="0.6198">
        <ele>124</ele>
        <time>2025-08-10T08:22:57.696Z</time>
      </trkpt>
      <trkpt lat="44.12921" lon="0.6198">
        <ele>124</ele>
        <time>2025-08-10T08:22:58.697Z</time>
      </trkpt>
      <trkpt lat="44.12921" lon="0.6198">
        <ele>124</ele>
        <time>2025-08-10T08:22:59.696Z</time>
      </trkpt>
      <trkpt lat="44.12921" lon="0.6198">
        <ele>124</ele>
        <time>2025-08-10T08:23:00.696Z</time>
      </trkpt>
      <trkpt lat="44.12921" lon="0.6198">
        <ele>124</ele>
        <time>2025-08-10T08:23:01.696Z</time>
      </trkpt>
      <trkpt lat="44.12921" lon="0.6198">
        <ele>124</ele>
        <time>2025-08-10T08:23:02.696Z</time>
      </trkpt>
      <trkpt lat="44.12921" lon="0.6198">
        <ele>124</ele>
        <time>2025-08-10T08:23:03.696Z</time>
      </trkpt>
      <trkpt lat="44.12921" lon="0.6198">
        <ele>124</ele>
        <time>2025-08-10T08:23:04.696Z</time>
      </trkpt>
      <trkpt lat="44.12921" lon="0.6198">
        <ele>124</ele>
        <time>2025-08-10T08:23:05.696Z</time>
      </trkpt>
      <trkpt lat="44.12921" lon="0.61979">
        <ele>124</ele>
        <time>2025-08-10T08:23:06.696Z</time>
      </trkpt>
      <trkpt lat="44.12921" lon="0.61979">
        <ele>124</ele>
        <time>2025-08-10T08:23:07.696Z</time>
      </trkpt>
      <trkpt lat="44.12921" lon="0.61979">
        <ele>124</ele>
        <time>2025-08-10T08:23:08.696Z</time>
      </trkpt>
      <trkpt lat="44.12921" lon="0.6198">
        <ele>124</ele>
        <time>2025-08-10T08:23:09.696Z</time>
      </trkpt>
      <trkpt lat="44.12921" lon="0.6198">
        <ele>123</ele>
        <time>2025-08-10T08:23:10.696Z</time>
      </trkpt>
      <trkpt lat="44.12921" lon="0.6198">
        <ele>123</ele>
        <time>2025-08-10T08:23:11.696Z</time>
      </trkpt>
      <trkpt lat="44.12921" lon="0.6198">
        <ele>123</ele>
        <time>2025-08-10T08:23:12.696Z</time>
      </trkpt>
      <trkpt lat="44.12922" lon="0.61979">
        <ele>122</ele>
        <time>2025-08-10T08:23:13.696Z</time>
      </trkpt>
      <trkpt lat="44.12922" lon="0.61979">
        <ele>122</ele>
        <time>2025-08-10T08:23:14.696Z</time>
      </trkpt>
      <trkpt lat="44.12922" lon="0.61979">
        <ele>122</ele>
        <time>2025-08-10T08:23:15.696Z</time>
      </trkpt>
      <trkpt lat="44.12922" lon="0.61979">
        <ele>122</ele>
        <time>2025-08-10T08:23:16.696Z</time>
      </trkpt>
      <trkpt lat="44.12922" lon="0.61979">
        <ele>122</ele>
        <time>2025-08-10T08:23:17.696Z</time>
      </trkpt>
      <trkpt lat="44.12922" lon="0.61979">
        <ele>122</ele>
        <time>2025-08-10T08:23:18.696Z</time>
      </trkpt>
      <trkpt lat="44.12922" lon="0.61979">
        <ele>122</ele>
        <time>2025-08-10T08:23:19.696Z</time>
      </trkpt>
      <trkpt lat="44.12922" lon="0.61979">
        <ele>122</ele>
        <time>2025-08-10T08:23:20.696Z</time>
      </trkpt>
      <trkpt lat="44.12922" lon="0.61979">
        <ele>122</ele>
        <time>2025-08-10T08:23:21.696Z</time>
      </trkpt>
      <trkpt lat="44.12922" lon="0.61979">
        <ele>122</ele>
        <time>2025-08-10T08:23:22.696Z</time>
      </trkpt>
      <trkpt lat="44.12922" lon="0.61979">
        <ele>122</ele>
        <time>2025-08-10T08:23:23.696Z</time>
      </trkpt>
      <trkpt lat="44.12922" lon="0.61979">
        <ele>122</ele>
        <time>2025-08-10T08:23:24.696Z</time>
      </trkpt>
      <trkpt lat="44.12922" lon="0.61979">
        <ele>122</ele>
        <time>2025-08-10T08:23:25.696Z</time>
      </trkpt>
      <trkpt lat="44.12922" lon="0.6198">
        <ele>122</ele>
        <time>2025-08-10T08:23:26.696Z</time>
      </trkpt>
      <trkpt lat="44.12921" lon="0.6198">
        <ele>122</ele>
        <time>2025-08-10T08:23:27.696Z</time>
      </trkpt>
      <trkpt lat="44.12921" lon="0.6198">
        <ele>122</ele>
        <time>2025-08-10T08:23:28.696Z</time>
      </trkpt>
      <trkpt lat="44.12921" lon="0.6198">
        <ele>122</ele>
        <time>2025-08-10T08:23:29.696Z</time>
      </trkpt>
      <trkpt lat="44.12921" lon="0.6198">
        <ele>122</ele>
        <time>2025-08-10T08:23:30.696Z</time>
      </trkpt>
      <trkpt lat="44.12921" lon="0.6198">
        <ele>122</ele>
        <time>2025-08-10T08:23:31.696Z</time>
      </trkpt>
      <trkpt lat="44.12921" lon="0.6198">
        <ele>122</ele>
        <time>2025-08-10T08:23:32.696Z</time>
      </trkpt>
      <trkpt lat="44.12922" lon="0.61979">
        <ele>122</ele>
        <time>2025-08-10T08:23:33.696Z</time>
      </trkpt>
      <trkpt lat="44.12922" lon="0.61979">
        <ele>123</ele>
        <time>2025-08-10T08:23:34.696Z</time>
      </trkpt>
      <trkpt lat="44.12922" lon="0.61978">
        <ele>123</ele>
        <time>2025-08-10T08:23:35.696Z</time>
      </trkpt>
      <trkpt lat="44.12922" lon="0.61978">
        <ele>123</ele>
        <time>2025-08-10T08:23:36.696Z</time>
      </trkpt>
      <trkpt lat="44.12922" lon="0.61978">
        <ele>123</ele>
        <time>2025-08-10T08:23:37.696Z</time>
      </trkpt>
      <trkpt lat="44.12922" lon="0.61978">
        <ele>123</ele>
        <time>2025-08-10T08:23:38.696Z</time>
      </trkpt>
      <trkpt lat="44.12922" lon="0.61979">
        <ele>123</ele>
        <time>2025-08-10T08:23:39.696Z</time>
      </trkpt>
      <trkpt lat="44.12922" lon="0.61979">
        <ele>123</ele>
        <time>2025-08-10T08:23:40.696Z</time>
      </trkpt>
      <trkpt lat="44.12922" lon="0.61979">
        <ele>123</ele>
        <time>2025-08-10T08:23:41.696Z</time>
      </trkpt>
      <trkpt lat="44.12921" lon="0.61978">
        <ele>122</ele>
        <time>2025-08-10T08:23:42.696Z</time>
      </trkpt>
      <trkpt lat="44.12921" lon="0.61978">
        <ele>122</ele>
        <time>2025-08-10T08:23:43.696Z</time>
      </trkpt>
      <trkpt lat="44.12921" lon="0.61978">
        <ele>121</ele>
        <time>2025-08-10T08:23:44.696Z</time>
      </trkpt>
      <trkpt lat="44.12921" lon="0.61978">
        <ele>121</ele>
        <time>2025-08-10T08:23:45.696Z</time>
      </trkpt>
      <trkpt lat="44.1292" lon="0.61978">
        <ele>121</ele>
        <time>2025-08-10T08:23:46.696Z</time>
      </trkpt>
      <trkpt lat="44.1292" lon="0.61977">
        <ele>121</ele>
        <time>2025-08-10T08:23:47.696Z</time>
      </trkpt>
      <trkpt lat="44.12919" lon="0.61977">
        <ele>121</ele>
        <time>2025-08-10T08:23:48.696Z</time>
      </trkpt>
      <trkpt lat="44.12918" lon="0.61977">
        <ele>121</ele>
        <time>2025-08-10T08:23:49.696Z</time>
      </trkpt>
      <trkpt lat="44.12917" lon="0.61978">
        <ele>121</ele>
        <time>2025-08-10T08:23:50.696Z</time>
      </trkpt>
      <trkpt lat="44.12916" lon="0.61978">
        <ele>121</ele>
        <time>2025-08-10T08:23:51.696Z</time>
      </trkpt>
      <trkpt lat="44.12916" lon="0.61978">
        <ele>121</ele>
        <time>2025-08-10T08:23:52.696Z</time>
      </trkpt>
      <trkpt lat="44.12915" lon="0.61978">
        <ele>121</ele>
        <time>2025-08-10T08:23:53.696Z</time>
      </trkpt>
      <trkpt lat="44.12914" lon="0.61978">
        <ele>121</ele>
        <time>2025-08-10T08:23:54.696Z</time>
      </trkpt>
      <trkpt lat="44.12913" lon="0.61977">
        <ele>120</ele>
        <time>2025-08-10T08:23:55.696Z</time>
      </trkpt>
      <trkpt lat="44.12912" lon="0.61977">
        <ele>120</ele>
        <time>2025-08-10T08:23:56.696Z</time>
      </trkpt>
      <trkpt lat="44.12911" lon="0.61977">
        <ele>120</ele>
        <time>2025-08-10T08:23:57.696Z</time>
      </trkpt>
      <trkpt lat="44.12911" lon="0.61976">
        <ele>120</ele>
        <time>2025-08-10T08:23:58.696Z</time>
      </trkpt>
      <trkpt lat="44.1291" lon="0.61976">
        <ele>121</ele>
        <time>2025-08-10T08:23:59.696Z</time>
      </trkpt>
      <trkpt lat="44.12909" lon="0.61975">
        <ele>121</ele>
        <time>2025-08-10T08:24:00.696Z</time>
      </trkpt>
      <trkpt lat="44.12908" lon="0.61975">
        <ele>121</ele>
        <time>2025-08-10T08:24:01.696Z</time>
      </trkpt>
      <trkpt lat="44.12907" lon="0.61974">
        <ele>122</ele>
        <time>2025-08-10T08:24:02.696Z</time>
      </trkpt>
      <trkpt lat="44.12906" lon="0.61974">
        <ele>122</ele>
        <time>2025-08-10T08:24:03.696Z</time>
      </trkpt>
      <trkpt lat="44.12905" lon="0.61973">
        <ele>122</ele>
        <time>2025-08-10T08:24:04.696Z</time>
      </trkpt>
      <trkpt lat="44.12904" lon="0.61973">
        <ele>122</ele>
        <time>2025-08-10T08:24:05.696Z</time>
      </trkpt>
      <trkpt lat="44.12903" lon="0.61972">
        <ele>122</ele>
        <time>2025-08-10T08:24:06.696Z</time>
      </trkpt>
      <trkpt lat="44.12902" lon="0.61972">
        <ele>121</ele>
        <time>2025-08-10T08:24:07.696Z</time>
      </trkpt>
      <trkpt lat="44.12901" lon="0.61972">
        <ele>121</ele>
        <time>2025-08-10T08:24:08.696Z</time>
      </trkpt>
      <trkpt lat="44.129" lon="0.61972">
        <ele>121</ele>
        <time>2025-08-10T08:24:09.696Z</time>
      </trkpt>
      <trkpt lat="44.129" lon="0.61971">
        <ele>121</ele>
        <time>2025-08-10T08:24:10.696Z</time>
      </trkpt>
      <trkpt lat="44.12899" lon="0.61971">
        <ele>121</ele>
        <time>2025-08-10T08:24:11.696Z</time>
      </trkpt>
      <trkpt lat="44.12899" lon="0.61971">
        <ele>121</ele>
        <time>2025-08-10T08:24:12.696Z</time>
      </trkpt>
      <trkpt lat="44.12898" lon="0.61971">
        <ele>120</ele>
        <time>2025-08-10T08:24:13.696Z</time>
      </trkpt>
      <trkpt lat="44.12897" lon="0.61971">
        <ele>120</ele>
        <time>2025-08-10T08:24:14.696Z</time>
      </trkpt>
      <trkpt lat="44.12896" lon="0.6197">
        <ele>120</ele>
        <time>2025-08-10T08:24:15.696Z</time>
      </trkpt>
      <trkpt lat="44.12895" lon="0.61969">
        <ele>120</ele>
        <time>2025-08-10T08:24:16.696Z</time>
      </trkpt>
      <trkpt lat="44.12894" lon="0.61969">
        <ele>120</ele>
        <time>2025-08-10T08:24:17.696Z</time>
      </trkpt>
      <trkpt lat="44.12893" lon="0.61968">
        <ele>120</ele>
        <time>2025-08-10T08:24:18.696Z</time>
      </trkpt>
      <trkpt lat="44.1289" lon="0.61966">
        <ele>120</ele>
        <time>2025-08-10T08:24:19.696Z</time>
      </trkpt>
      <trkpt lat="44.12889" lon="0.61965">
        <ele>120</ele>
        <time>2025-08-10T08:24:20.696Z</time>
      </trkpt>
      <trkpt lat="44.12888" lon="0.61965">
        <ele>120</ele>
        <time>2025-08-10T08:24:21.696Z</time>
      </trkpt>
      <trkpt lat="44.12887" lon="0.61965">
        <ele>120</ele>
        <time>2025-08-10T08:24:22.696Z</time>
      </trkpt>
      <trkpt lat="44.12886" lon="0.61965">
        <ele>120</ele>
        <time>2025-08-10T08:24:23.696Z</time>
      </trkpt>
      <trkpt lat="44.12885" lon="0.61965">
        <ele>120</ele>
        <time>2025-08-10T08:24:24.696Z</time>
      </trkpt>
      <trkpt lat="44.12883" lon="0.61965">
        <ele>120</ele>
        <time>2025-08-10T08:24:25.696Z</time>
      </trkpt>
      <trkpt lat="44.12882" lon="0.61965">
        <ele>120</ele>
        <time>2025-08-10T08:24:26.696Z</time>
      </trkpt>
      <trkpt lat="44.12881" lon="0.61964">
        <ele>121</ele>
        <time>2025-08-10T08:24:27.696Z</time>
      </trkpt>
      <trkpt lat="44.12879" lon="0.61963">
        <ele>121</ele>
        <time>2025-08-10T08:24:28.696Z</time>
      </trkpt>
      <trkpt lat="44.12878" lon="0.61963">
        <ele>121</ele>
        <time>2025-08-10T08:24:29.696Z</time>
      </trkpt>
      <trkpt lat="44.12877" lon="0.61962">
        <ele>121</ele>
        <time>2025-08-10T08:24:30.696Z</time>
      </trkpt>
      <trkpt lat="44.12876" lon="0.61962">
        <ele>121</ele>
        <time>2025-08-10T08:24:31.696Z</time>
      </trkpt>
      <trkpt lat="44.12875" lon="0.61962">
        <ele>121</ele>
        <time>2025-08-10T08:24:32.696Z</time>
      </trkpt>
      <trkpt lat="44.12874" lon="0.61962">
        <ele>120</ele>
        <time>2025-08-10T08:24:33.696Z</time>
      </trkpt>
      <trkpt lat="44.12873" lon="0.61961">
        <ele>120</ele>
        <time>2025-08-10T08:24:34.696Z</time>
      </trkpt>
      <trkpt lat="44.12872" lon="0.61961">
        <ele>121</ele>
        <time>2025-08-10T08:24:35.696Z</time>
      </trkpt>
      <trkpt lat="44.12872" lon="0.6196">
        <ele>121</ele>
        <time>2025-08-10T08:24:36.696Z</time>
      </trkpt>
      <trkpt lat="44.12871" lon="0.6196">
        <ele>121</ele>
        <time>2025-08-10T08:24:37.696Z</time>
      </trkpt>
      <trkpt lat="44.1287" lon="0.6196">
        <ele>121</ele>
        <time>2025-08-10T08:24:38.696Z</time>
      </trkpt>
      <trkpt lat="44.1287" lon="0.61959">
        <ele>121</ele>
        <time>2025-08-10T08:24:39.696Z</time>
      </trkpt>
      <trkpt lat="44.12869" lon="0.61959">
        <ele>122</ele>
        <time>2025-08-10T08:24:40.696Z</time>
      </trkpt>
      <trkpt lat="44.12868" lon="0.61959">
        <ele>122</ele>
        <time>2025-08-10T08:24:41.696Z</time>
      </trkpt>
      <trkpt lat="44.12867" lon="0.61959">
        <ele>122</ele>
        <time>2025-08-10T08:24:42.696Z</time>
      </trkpt>
      <trkpt lat="44.12866" lon="0.61958">
        <ele>122</ele>
        <time>2025-08-10T08:24:43.696Z</time>
      </trkpt>
      <trkpt lat="44.12864" lon="0.61958">
        <ele>122</ele>
        <time>2025-08-10T08:24:44.696Z</time>
      </trkpt>
      <trkpt lat="44.12863" lon="0.61958">
        <ele>122</ele>
        <time>2025-08-10T08:24:45.696Z</time>
      </trkpt>
      <trkpt lat="44.12862" lon="0.61957">
        <ele>122</ele>
        <time>2025-08-10T08:24:46.696Z</time>
      </trkpt>
      <trkpt lat="44.12861" lon="0.61956">
        <ele>123</ele>
        <time>2025-08-10T08:24:47.696Z</time>
      </trkpt>
      <trkpt lat="44.1286" lon="0.61955">
        <ele>123</ele>
        <time>2025-08-10T08:24:48.696Z</time>
      </trkpt>
      <trkpt lat="44.12859" lon="0.61955">
        <ele>123</ele>
        <time>2025-08-10T08:24:49.696Z</time>
      </trkpt>
      <trkpt lat="44.12857" lon="0.61954">
        <ele>123</ele>
        <time>2025-08-10T08:24:50.696Z</time>
      </trkpt>
      <trkpt lat="44.12856" lon="0.61954">
        <ele>123</ele>
        <time>2025-08-10T08:24:51.696Z</time>
      </trkpt>
      <trkpt lat="44.12854" lon="0.61954">
        <ele>123</ele>
        <time>2025-08-10T08:24:52.696Z</time>
      </trkpt>
      <trkpt lat="44.12852" lon="0.61955">
        <ele>122</ele>
        <time>2025-08-10T08:24:53.696Z</time>
      </trkpt>
      <trkpt lat="44.12851" lon="0.61954">
        <ele>122</ele>
        <time>2025-08-10T08:24:54.696Z</time>
      </trkpt>
      <trkpt lat="44.1285" lon="0.61954">
        <ele>122</ele>
        <time>2025-08-10T08:24:55.696Z</time>
      </trkpt>
      <trkpt lat="44.12849" lon="0.61953">
        <ele>121</ele>
        <time>2025-08-10T08:24:56.696Z</time>
      </trkpt>
      <trkpt lat="44.12848" lon="0.61953">
        <ele>121</ele>
        <time>2025-08-10T08:24:57.696Z</time>
      </trkpt>
      <trkpt lat="44.12847" lon="0.61953">
        <ele>121</ele>
        <time>2025-08-10T08:24:58.696Z</time>
      </trkpt>
      <trkpt lat="44.12846" lon="0.61952">
        <ele>121</ele>
        <time>2025-08-10T08:24:59.696Z</time>
      </trkpt>
      <trkpt lat="44.12846" lon="0.61952">
        <ele>121</ele>
        <time>2025-08-10T08:25:00.696Z</time>
      </trkpt>
      <trkpt lat="44.12845" lon="0.61952">
        <ele>120</ele>
        <time>2025-08-10T08:25:01.696Z</time>
      </trkpt>
      <trkpt lat="44.12843" lon="0.61952">
        <ele>120</ele>
        <time>2025-08-10T08:25:02.696Z</time>
      </trkpt>
      <trkpt lat="44.12842" lon="0.61952">
        <ele>120</ele>
        <time>2025-08-10T08:25:03.696Z</time>
      </trkpt>
      <trkpt lat="44.12841" lon="0.61952">
        <ele>120</ele>
        <time>2025-08-10T08:25:04.696Z</time>
      </trkpt>
      <trkpt lat="44.1284" lon="0.61952">
        <ele>120</ele>
        <time>2025-08-10T08:25:05.696Z</time>
      </trkpt>
      <trkpt lat="44.12839" lon="0.61951">
        <ele>120</ele>
        <time>2025-08-10T08:25:06.696Z</time>
      </trkpt>
      <trkpt lat="44.12838" lon="0.6195">
        <ele>120</ele>
        <time>2025-08-10T08:25:07.696Z</time>
      </trkpt>
      <trkpt lat="44.12837" lon="0.61949">
        <ele>120</ele>
        <time>2025-08-10T08:25:08.696Z</time>
      </trkpt>
      <trkpt lat="44.12836" lon="0.61948">
        <ele>121</ele>
        <time>2025-08-10T08:25:09.696Z</time>
      </trkpt>
      <trkpt lat="44.12835" lon="0.61948">
        <ele>121</ele>
        <time>2025-08-10T08:25:10.696Z</time>
      </trkpt>
      <trkpt lat="44.12833" lon="0.61946">
        <ele>121</ele>
        <time>2025-08-10T08:25:11.696Z</time>
      </trkpt>
      <trkpt lat="44.12832" lon="0.61945">
        <ele>122</ele>
        <time>2025-08-10T08:25:12.696Z</time>
      </trkpt>
      <trkpt lat="44.12831" lon="0.61944">
        <ele>122</ele>
        <time>2025-08-10T08:25:13.696Z</time>
      </trkpt>
      <trkpt lat="44.1283" lon="0.61943">
        <ele>122</ele>
        <time>2025-08-10T08:25:14.696Z</time>
      </trkpt>
      <trkpt lat="44.12829" lon="0.61941">
        <ele>122</ele>
        <time>2025-08-10T08:25:15.696Z</time>
      </trkpt>
      <trkpt lat="44.12829" lon="0.6194">
        <ele>122</ele>
        <time>2025-08-10T08:25:16.696Z</time>
      </trkpt>
      <trkpt lat="44.12828" lon="0.61938">
        <ele>122</ele>
        <time>2025-08-10T08:25:17.696Z</time>
      </trkpt>
      <trkpt lat="44.12828" lon="0.61937">
        <ele>122</ele>
        <time>2025-08-10T08:25:18.696Z</time>
      </trkpt>
      <trkpt lat="44.12828" lon="0.61935">
        <ele>122</ele>
        <time>2025-08-10T08:25:19.696Z</time>
      </trkpt>
      <trkpt lat="44.12828" lon="0.61933">
        <ele>121</ele>
        <time>2025-08-10T08:25:20.696Z</time>
      </trkpt>
      <trkpt lat="44.12828" lon="0.61932">
        <ele>120</ele>
        <time>2025-08-10T08:25:21.696Z</time>
      </trkpt>
      <trkpt lat="44.12829" lon="0.6193">
        <ele>120</ele>
        <time>2025-08-10T08:25:22.696Z</time>
      </trkpt>
      <trkpt lat="44.12829" lon="0.61929">
        <ele>120</ele>
        <time>2025-08-10T08:25:23.696Z</time>
      </trkpt>
      <trkpt lat="44.1283" lon="0.61927">
        <ele>120</ele>
        <time>2025-08-10T08:25:24.696Z</time>
      </trkpt>
      <trkpt lat="44.1283" lon="0.61926">
        <ele>120</ele>
        <time>2025-08-10T08:25:25.696Z</time>
      </trkpt>
      <trkpt lat="44.12831" lon="0.61925">
        <ele>120</ele>
        <time>2025-08-10T08:25:26.696Z</time>
      </trkpt>
      <trkpt lat="44.12831" lon="0.61924">
        <ele>120</ele>
        <time>2025-08-10T08:25:27.696Z</time>
      </trkpt>
      <trkpt lat="44.12831" lon="0.61922">
        <ele>120</ele>
        <time>2025-08-10T08:25:28.696Z</time>
      </trkpt>
      <trkpt lat="44.12832" lon="0.61921">
        <ele>120</ele>
        <time>2025-08-10T08:25:29.696Z</time>
      </trkpt>
      <trkpt lat="44.12832" lon="0.61919">
        <ele>120</ele>
        <time>2025-08-10T08:25:30.696Z</time>
      </trkpt>
      <trkpt lat="44.12832" lon="0.61918">
        <ele>120</ele>
        <time>2025-08-10T08:25:31.696Z</time>
      </trkpt>
      <trkpt lat="44.12833" lon="0.61916">
        <ele>120</ele>
        <time>2025-08-10T08:25:32.696Z</time>
      </trkpt>
      <trkpt lat="44.12833" lon="0.61915">
        <ele>120</ele>
        <time>2025-08-10T08:25:33.696Z</time>
      </trkpt>
      <trkpt lat="44.12833" lon="0.61913">
        <ele>120</ele>
        <time>2025-08-10T08:25:34.696Z</time>
      </trkpt>
      <trkpt lat="44.12833" lon="0.61912">
        <ele>120</ele>
        <time>2025-08-10T08:25:35.696Z</time>
      </trkpt>
      <trkpt lat="44.12833" lon="0.61911">
        <ele>120</ele>
        <time>2025-08-10T08:25:36.696Z</time>
      </trkpt>
      <trkpt lat="44.12834" lon="0.6191">
        <ele>120</ele>
        <time>2025-08-10T08:25:37.696Z</time>
      </trkpt>
      <trkpt lat="44.12834" lon="0.61908">
        <ele>120</ele>
        <time>2025-08-10T08:25:38.696Z</time>
      </trkpt>
      <trkpt lat="44.12834" lon="0.61906">
        <ele>121</ele>
        <time>2025-08-10T08:25:39.696Z</time>
      </trkpt>
      <trkpt lat="44.12835" lon="0.61905">
        <ele>121</ele>
        <time>2025-08-10T08:25:40.696Z</time>
      </trkpt>
      <trkpt lat="44.12835" lon="0.61904">
        <ele>121</ele>
        <time>2025-08-10T08:25:41.696Z</time>
      </trkpt>
      <trkpt lat="44.12835" lon="0.61902">
        <ele>121</ele>
        <time>2025-08-10T08:25:42.696Z</time>
      </trkpt>
      <trkpt lat="44.12836" lon="0.61901">
        <ele>121</ele>
        <time>2025-08-10T08:25:43.696Z</time>
      </trkpt>
      <trkpt lat="44.12836" lon="0.61899">
        <ele>121</ele>
        <time>2025-08-10T08:25:44.696Z</time>
      </trkpt>
      <trkpt lat="44.12837" lon="0.61898">
        <ele>121</ele>
        <time>2025-08-10T08:25:45.696Z</time>
      </trkpt>
      <trkpt lat="44.12837" lon="0.61897">
        <ele>121</ele>
        <time>2025-08-10T08:25:46.696Z</time>
      </trkpt>
      <trkpt lat="44.12837" lon="0.61895">
        <ele>121</ele>
        <time>2025-08-10T08:25:47.696Z</time>
      </trkpt>
      <trkpt lat="44.12838" lon="0.61894">
        <ele>121</ele>
        <time>2025-08-10T08:25:48.696Z</time>
      </trkpt>
      <trkpt lat="44.12838" lon="0.61893">
        <ele>121</ele>
        <time>2025-08-10T08:25:49.696Z</time>
      </trkpt>
      <trkpt lat="44.12838" lon="0.61891">
        <ele>121</ele>
        <time>2025-08-10T08:25:50.696Z</time>
      </trkpt>
      <trkpt lat="44.12838" lon="0.6189">
        <ele>121</ele>
        <time>2025-08-10T08:25:51.696Z</time>
      </trkpt>
      <trkpt lat="44.12839" lon="0.61889">
        <ele>121</ele>
        <time>2025-08-10T08:25:52.696Z</time>
      </trkpt>
      <trkpt lat="44.12839" lon="0.61887">
        <ele>121</ele>
        <time>2025-08-10T08:25:53.696Z</time>
      </trkpt>
      <trkpt lat="44.12839" lon="0.61886">
        <ele>121</ele>
        <time>2025-08-10T08:25:54.696Z</time>
      </trkpt>
      <trkpt lat="44.12839" lon="0.61884">
        <ele>121</ele>
        <time>2025-08-10T08:25:55.696Z</time>
      </trkpt>
      <trkpt lat="44.1284" lon="0.61884">
        <ele>121</ele>
        <time>2025-08-10T08:25:56.696Z</time>
      </trkpt>
      <trkpt lat="44.1284" lon="0.61882">
        <ele>121</ele>
        <time>2025-08-10T08:25:57.696Z</time>
      </trkpt>
      <trkpt lat="44.12841" lon="0.61881">
        <ele>121</ele>
        <time>2025-08-10T08:25:58.696Z</time>
      </trkpt>
      <trkpt lat="44.12841" lon="0.6188">
        <ele>122</ele>
        <time>2025-08-10T08:25:59.696Z</time>
      </trkpt>
      <trkpt lat="44.12841" lon="0.61878">
        <ele>122</ele>
        <time>2025-08-10T08:26:00.696Z</time>
      </trkpt>
      <trkpt lat="44.12842" lon="0.61877">
        <ele>123</ele>
        <time>2025-08-10T08:26:01.696Z</time>
      </trkpt>
      <trkpt lat="44.12842" lon="0.61876">
        <ele>123</ele>
        <time>2025-08-10T08:26:02.696Z</time>
      </trkpt>
      <trkpt lat="44.12842" lon="0.61875">
        <ele>123</ele>
        <time>2025-08-10T08:26:03.696Z</time>
      </trkpt>
      <trkpt lat="44.12843" lon="0.61873">
        <ele>123</ele>
        <time>2025-08-10T08:26:04.696Z</time>
      </trkpt>
      <trkpt lat="44.12843" lon="0.61872">
        <ele>123</ele>
        <time>2025-08-10T08:26:05.696Z</time>
      </trkpt>
      <trkpt lat="44.12843" lon="0.6187">
        <ele>123</ele>
        <time>2025-08-10T08:26:06.696Z</time>
      </trkpt>
      <trkpt lat="44.12844" lon="0.61869">
        <ele>123</ele>
        <time>2025-08-10T08:26:07.696Z</time>
      </trkpt>
      <trkpt lat="44.12844" lon="0.61868">
        <ele>123</ele>
        <time>2025-08-10T08:26:08.696Z</time>
      </trkpt>
      <trkpt lat="44.12844" lon="0.61866">
        <ele>123</ele>
        <time>2025-08-10T08:26:09.696Z</time>
      </trkpt>
      <trkpt lat="44.12845" lon="0.61865">
        <ele>123</ele>
        <time>2025-08-10T08:26:10.696Z</time>
      </trkpt>
      <trkpt lat="44.12845" lon="0.61864">
        <ele>123</ele>
        <time>2025-08-10T08:26:11.697Z</time>
      </trkpt>
      <trkpt lat="44.12845" lon="0.61862">
        <ele>123</ele>
        <time>2025-08-10T08:26:12.696Z</time>
      </trkpt>
      <trkpt lat="44.12846" lon="0.61861">
        <ele>123</ele>
        <time>2025-08-10T08:26:13.696Z</time>
      </trkpt>
      <trkpt lat="44.12846" lon="0.6186">
        <ele>123</ele>
        <time>2025-08-10T08:26:14.696Z</time>
      </trkpt>
      <trkpt lat="44.12846" lon="0.61858">
        <ele>123</ele>
        <time>2025-08-10T08:26:15.696Z</time>
      </trkpt>
      <trkpt lat="44.12846" lon="0.61857">
        <ele>123</ele>
        <time>2025-08-10T08:26:16.696Z</time>
      </trkpt>
      <trkpt lat="44.12847" lon="0.61855">
        <ele>123</ele>
        <time>2025-08-10T08:26:17.696Z</time>
      </trkpt>
      <trkpt lat="44.12847" lon="0.61854">
        <ele>123</ele>
        <time>2025-08-10T08:26:18.696Z</time>
      </trkpt>
      <trkpt lat="44.12847" lon="0.61853">
        <ele>123</ele>
        <time>2025-08-10T08:26:19.696Z</time>
      </trkpt>
      <trkpt lat="44.12847" lon="0.61851">
        <ele>123</ele>
        <time>2025-08-10T08:26:20.696Z</time>
      </trkpt>
      <trkpt lat="44.12848" lon="0.6185">
        <ele>123</ele>
        <time>2025-08-10T08:26:21.696Z</time>
      </trkpt>
      <trkpt lat="44.12848" lon="0.61849">
        <ele>123</ele>
        <time>2025-08-10T08:26:22.696Z</time>
      </trkpt>
      <trkpt lat="44.12849" lon="0.61847">
        <ele>123</ele>
        <time>2025-08-10T08:26:23.696Z</time>
      </trkpt>
      <trkpt lat="44.12849" lon="0.61845">
        <ele>123</ele>
        <time>2025-08-10T08:26:24.697Z</time>
      </trkpt>
      <trkpt lat="44.1285" lon="0.61844">
        <ele>124</ele>
        <time>2025-08-10T08:26:25.696Z</time>
      </trkpt>
      <trkpt lat="44.1285" lon="0.61843">
        <ele>124</ele>
        <time>2025-08-10T08:26:26.696Z</time>
      </trkpt>
      <trkpt lat="44.1285" lon="0.61842">
        <ele>124</ele>
        <time>2025-08-10T08:26:27.696Z</time>
      </trkpt>
      <trkpt lat="44.1285" lon="0.61841">
        <ele>124</ele>
        <time>2025-08-10T08:26:28.696Z</time>
      </trkpt>
      <trkpt lat="44.12851" lon="0.61839">
        <ele>124</ele>
        <time>2025-08-10T08:26:29.696Z</time>
      </trkpt>
      <trkpt lat="44.12851" lon="0.61837">
        <ele>124</ele>
        <time>2025-08-10T08:26:30.696Z</time>
      </trkpt>
      <trkpt lat="44.12852" lon="0.61836">
        <ele>124</ele>
        <time>2025-08-10T08:26:31.696Z</time>
      </trkpt>
      <trkpt lat="44.12852" lon="0.61834">
        <ele>124</ele>
        <time>2025-08-10T08:26:32.696Z</time>
      </trkpt>
      <trkpt lat="44.12852" lon="0.61833">
        <ele>124</ele>
        <time>2025-08-10T08:26:33.696Z</time>
      </trkpt>
      <trkpt lat="44.12853" lon="0.61832">
        <ele>125</ele>
        <time>2025-08-10T08:26:34.696Z</time>
      </trkpt>
      <trkpt lat="44.12853" lon="0.6183">
        <ele>125</ele>
        <time>2025-08-10T08:26:35.696Z</time>
      </trkpt>
      <trkpt lat="44.12853" lon="0.61829">
        <ele>124</ele>
        <time>2025-08-10T08:26:36.696Z</time>
      </trkpt>
      <trkpt lat="44.12854" lon="0.61828">
        <ele>124</ele>
        <time>2025-08-10T08:26:37.696Z</time>
      </trkpt>
      <trkpt lat="44.12854" lon="0.61827">
        <ele>124</ele>
        <time>2025-08-10T08:26:38.696Z</time>
      </trkpt>
      <trkpt lat="44.12854" lon="0.61825">
        <ele>124</ele>
        <time>2025-08-10T08:26:39.696Z</time>
      </trkpt>
      <trkpt lat="44.12855" lon="0.61824">
        <ele>124</ele>
        <time>2025-08-10T08:26:40.696Z</time>
      </trkpt>
      <trkpt lat="44.12855" lon="0.61823">
        <ele>124</ele>
        <time>2025-08-10T08:26:41.696Z</time>
      </trkpt>
      <trkpt lat="44.12855" lon="0.61822">
        <ele>124</ele>
        <time>2025-08-10T08:26:42.696Z</time>
      </trkpt>
      <trkpt lat="44.12855" lon="0.61821">
        <ele>123</ele>
        <time>2025-08-10T08:26:43.696Z</time>
      </trkpt>
      <trkpt lat="44.12856" lon="0.61819">
        <ele>123</ele>
        <time>2025-08-10T08:26:44.696Z</time>
      </trkpt>
      <trkpt lat="44.12856" lon="0.61818">
        <ele>123</ele>
        <time>2025-08-10T08:26:45.696Z</time>
      </trkpt>
      <trkpt lat="44.12856" lon="0.61817">
        <ele>123</ele>
        <time>2025-08-10T08:26:46.696Z</time>
      </trkpt>
      <trkpt lat="44.12856" lon="0.61815">
        <ele>123</ele>
        <time>2025-08-10T08:26:47.696Z</time>
      </trkpt>
      <trkpt lat="44.12857" lon="0.61814">
        <ele>123</ele>
        <time>2025-08-10T08:26:48.696Z</time>
      </trkpt>
      <trkpt lat="44.12857" lon="0.61812">
        <ele>123</ele>
        <time>2025-08-10T08:26:49.696Z</time>
      </trkpt>
      <trkpt lat="44.12857" lon="0.61811">
        <ele>123</ele>
        <time>2025-08-10T08:26:50.696Z</time>
      </trkpt>
      <trkpt lat="44.12858" lon="0.6181">
        <ele>122</ele>
        <time>2025-08-10T08:26:51.696Z</time>
      </trkpt>
      <trkpt lat="44.12858" lon="0.61808">
        <ele>122</ele>
        <time>2025-08-10T08:26:52.696Z</time>
      </trkpt>
      <trkpt lat="44.12859" lon="0.61807">
        <ele>122</ele>
        <time>2025-08-10T08:26:53.696Z</time>
      </trkpt>
      <trkpt lat="44.12859" lon="0.61806">
        <ele>122</ele>
        <time>2025-08-10T08:26:54.696Z</time>
      </trkpt>
      <trkpt lat="44.12859" lon="0.61805">
        <ele>122</ele>
        <time>2025-08-10T08:26:55.696Z</time>
      </trkpt>
      <trkpt lat="44.1286" lon="0.61804">
        <ele>122</ele>
        <time>2025-08-10T08:26:56.697Z</time>
      </trkpt>
      <trkpt lat="44.1286" lon="0.61802">
        <ele>122</ele>
        <time>2025-08-10T08:26:57.696Z</time>
      </trkpt>
      <trkpt lat="44.1286" lon="0.61801">
        <ele>122</ele>
        <time>2025-08-10T08:26:58.696Z</time>
      </trkpt>
      <trkpt lat="44.12861" lon="0.61801">
        <ele>122</ele>
        <time>2025-08-10T08:26:59.696Z</time>
      </trkpt>
      <trkpt lat="44.12862" lon="0.618">
        <ele>122</ele>
        <time>2025-08-10T08:27:00.696Z</time>
      </trkpt>
      <trkpt lat="44.12862" lon="0.61799">
        <ele>122</ele>
        <time>2025-08-10T08:27:01.696Z</time>
      </trkpt>
      <trkpt lat="44.12863" lon="0.61797">
        <ele>122</ele>
        <time>2025-08-10T08:27:02.696Z</time>
      </trkpt>
      <trkpt lat="44.12863" lon="0.61795">
        <ele>122</ele>
        <time>2025-08-10T08:27:03.696Z</time>
      </trkpt>
      <trkpt lat="44.12863" lon="0.61794">
        <ele>122</ele>
        <time>2025-08-10T08:27:04.696Z</time>
      </trkpt>
      <trkpt lat="44.12864" lon="0.61793">
        <ele>122</ele>
        <time>2025-08-10T08:27:05.696Z</time>
      </trkpt>
      <trkpt lat="44.12864" lon="0.6179">
        <ele>122</ele>
        <time>2025-08-10T08:27:06.696Z</time>
      </trkpt>
      <trkpt lat="44.12864" lon="0.61789">
        <ele>121</ele>
        <time>2025-08-10T08:27:07.696Z</time>
      </trkpt>
      <trkpt lat="44.12865" lon="0.61788">
        <ele>122</ele>
        <time>2025-08-10T08:27:08.696Z</time>
      </trkpt>
      <trkpt lat="44.12865" lon="0.61787">
        <ele>122</ele>
        <time>2025-08-10T08:27:09.696Z</time>
      </trkpt>
      <trkpt lat="44.12866" lon="0.61785">
        <ele>122</ele>
        <time>2025-08-10T08:27:10.696Z</time>
      </trkpt>
      <trkpt lat="44.12867" lon="0.61784">
        <ele>123</ele>
        <time>2025-08-10T08:27:11.696Z</time>
      </trkpt>
      <trkpt lat="44.12867" lon="0.61783">
        <ele>123</ele>
        <time>2025-08-10T08:27:12.696Z</time>
      </trkpt>
      <trkpt lat="44.12868" lon="0.61781">
        <ele>123</ele>
        <time>2025-08-10T08:27:13.696Z</time>
      </trkpt>
      <trkpt lat="44.12868" lon="0.6178">
        <ele>123</ele>
        <time>2025-08-10T08:27:14.696Z</time>
      </trkpt>
      <trkpt lat="44.12869" lon="0.61778">
        <ele>123</ele>
        <time>2025-08-10T08:27:15.696Z</time>
      </trkpt>
      <trkpt lat="44.12869" lon="0.61777">
        <ele>123</ele>
        <time>2025-08-10T08:27:16.696Z</time>
      </trkpt>
      <trkpt lat="44.1287" lon="0.61775">
        <ele>123</ele>
        <time>2025-08-10T08:27:17.696Z</time>
      </trkpt>
      <trkpt lat="44.1287" lon="0.61774">
        <ele>123</ele>
        <time>2025-08-10T08:27:18.696Z</time>
      </trkpt>
      <trkpt lat="44.12871" lon="0.61772">
        <ele>123</ele>
        <time>2025-08-10T08:27:19.696Z</time>
      </trkpt>
      <trkpt lat="44.12871" lon="0.61771">
        <ele>123</ele>
        <time>2025-08-10T08:27:20.696Z</time>
      </trkpt>
      <trkpt lat="44.12872" lon="0.61769">
        <ele>123</ele>
        <time>2025-08-10T08:27:21.696Z</time>
      </trkpt>
      <trkpt lat="44.12872" lon="0.61767">
        <ele>123</ele>
        <time>2025-08-10T08:27:22.696Z</time>
      </trkpt>
      <trkpt lat="44.12873" lon="0.61766">
        <ele>124</ele>
        <time>2025-08-10T08:27:23.696Z</time>
      </trkpt>
      <trkpt lat="44.12873" lon="0.61765">
        <ele>124</ele>
        <time>2025-08-10T08:27:24.696Z</time>
      </trkpt>
      <trkpt lat="44.12873" lon="0.61764">
        <ele>124</ele>
        <time>2025-08-10T08:27:25.696Z</time>
      </trkpt>
      <trkpt lat="44.12874" lon="0.61763">
        <ele>124</ele>
        <time>2025-08-10T08:27:26.696Z</time>
      </trkpt>
      <trkpt lat="44.12874" lon="0.61762">
        <ele>124</ele>
        <time>2025-08-10T08:27:27.697Z</time>
      </trkpt>
      <trkpt lat="44.12874" lon="0.61761">
        <ele>124</ele>
        <time>2025-08-10T08:27:28.696Z</time>
      </trkpt>
      <trkpt lat="44.12874" lon="0.61761">
        <ele>125</ele>
        <time>2025-08-10T08:27:29.696Z</time>
      </trkpt>
      <trkpt lat="44.12874" lon="0.6176">
        <ele>125</ele>
        <time>2025-08-10T08:27:30.696Z</time>
      </trkpt>
      <trkpt lat="44.12874" lon="0.6176">
        <ele>124</ele>
        <time>2025-08-10T08:27:31.696Z</time>
      </trkpt>
      <trkpt lat="44.12874" lon="0.6176">
        <ele>124</ele>
        <time>2025-08-10T08:27:32.696Z</time>
      </trkpt>
      <trkpt lat="44.12874" lon="0.6176">
        <ele>123</ele>
        <time>2025-08-10T08:27:33.696Z</time>
      </trkpt>
      <trkpt lat="44.12874" lon="0.6176">
        <ele>123</ele>
        <time>2025-08-10T08:27:34.696Z</time>
      </trkpt>
      <trkpt lat="44.12874" lon="0.6176">
        <ele>123</ele>
        <time>2025-08-10T08:27:35.696Z</time>
      </trkpt>
      <trkpt lat="44.12874" lon="0.6176">
        <ele>123</ele>
        <time>2025-08-10T08:27:36.696Z</time>
      </trkpt>
      <trkpt lat="44.12874" lon="0.6176">
        <ele>123</ele>
        <time>2025-08-10T08:27:37.696Z</time>
      </trkpt>
      <trkpt lat="44.12874" lon="0.6176">
        <ele>123</ele>
        <time>2025-08-10T08:27:38.696Z</time>
      </trkpt>
      <trkpt lat="44.12874" lon="0.6176">
        <ele>123</ele>
        <time>2025-08-10T08:27:39.696Z</time>
      </trkpt>
      <trkpt lat="44.12874" lon="0.6176">
        <ele>123</ele>
        <time>2025-08-10T08:27:40.696Z</time>
      </trkpt>
      <trkpt lat="44.12874" lon="0.6176">
        <ele>122</ele>
        <time>2025-08-10T08:27:41.696Z</time>
      </trkpt>
      <trkpt lat="44.12874" lon="0.6176">
        <ele>122</ele>
        <time>2025-08-10T08:27:42.696Z</time>
      </trkpt>
      <trkpt lat="44.12874" lon="0.6176">
        <ele>123</ele>
        <time>2025-08-10T08:27:43.696Z</time>
      </trkpt>
      <trkpt lat="44.12874" lon="0.6176">
        <ele>123</ele>
        <time>2025-08-10T08:27:44.696Z</time>
      </trkpt>
      <trkpt lat="44.12874" lon="0.61759">
        <ele>123</ele>
        <time>2025-08-10T08:27:45.696Z</time>
      </trkpt>
      <trkpt lat="44.12874" lon="0.61759">
        <ele>124</ele>
        <time>2025-08-10T08:27:46.696Z</time>
      </trkpt>
      <trkpt lat="44.12874" lon="0.61759">
        <ele>125</ele>
        <time>2025-08-10T08:27:47.696Z</time>
      </trkpt>
      <trkpt lat="44.12874" lon="0.61759">
        <ele>125</ele>
        <time>2025-08-10T08:27:48.696Z</time>
      </trkpt>
      <trkpt lat="44.12874" lon="0.61759">
        <ele>126</ele>
        <time>2025-08-10T08:27:49.696Z</time>
      </trkpt>
      <trkpt lat="44.12874" lon="0.61759">
        <ele>126</ele>
        <time>2025-08-10T08:27:50.696Z</time>
      </trkpt>
      <trkpt lat="44.12874" lon="0.61759">
        <ele>126</ele>
        <time>2025-08-10T08:27:51.696Z</time>
      </trkpt>
      <trkpt lat="44.12874" lon="0.61759">
        <ele>126</ele>
        <time>2025-08-10T08:27:52.696Z</time>
      </trkpt>
      <trkpt lat="44.12874" lon="0.61759">
        <ele>126</ele>
        <time>2025-08-10T08:27:53.696Z</time>
      </trkpt>
      <trkpt lat="44.12874" lon="0.61758">
        <ele>126</ele>
        <time>2025-08-10T08:27:54.696Z</time>
      </trkpt>
      <trkpt lat="44.12874" lon="0.61758">
        <ele>126</ele>
        <time>2025-08-10T08:27:55.696Z</time>
      </trkpt>
      <trkpt lat="44.12874" lon="0.61758">
        <ele>126</ele>
        <time>2025-08-10T08:27:56.696Z</time>
      </trkpt>
      <trkpt lat="44.12874" lon="0.61758">
        <ele>126</ele>
        <time>2025-08-10T08:27:57.696Z</time>
      </trkpt>
      <trkpt lat="44.12874" lon="0.61758">
        <ele>126</ele>
        <time>2025-08-10T08:27:58.696Z</time>
      </trkpt>
      <trkpt lat="44.12874" lon="0.61758">
        <ele>126</ele>
        <time>2025-08-10T08:27:59.696Z</time>
      </trkpt>
      <trkpt lat="44.12874" lon="0.61758">
        <ele>126</ele>
        <time>2025-08-10T08:28:00.696Z</time>
      </trkpt>
      <trkpt lat="44.12874" lon="0.61758">
        <ele>126</ele>
        <time>2025-08-10T08:28:01.696Z</time>
      </trkpt>
      <trkpt lat="44.12874" lon="0.61758">
        <ele>126</ele>
        <time>2025-08-10T08:28:02.696Z</time>
      </trkpt>
      <trkpt lat="44.12874" lon="0.61758">
        <ele>126</ele>
        <time>2025-08-10T08:28:03.696Z</time>
      </trkpt>
      <trkpt lat="44.12874" lon="0.61758">
        <ele>126</ele>
        <time>2025-08-10T08:28:04.696Z</time>
      </trkpt>
      <trkpt lat="44.12875" lon="0.61757">
        <ele>126</ele>
        <time>2025-08-10T08:28:05.696Z</time>
      </trkpt>
      <trkpt lat="44.12875" lon="0.61757">
        <ele>125</ele>
        <time>2025-08-10T08:28:06.696Z</time>
      </trkpt>
      <trkpt lat="44.12876" lon="0.61756">
        <ele>125</ele>
        <time>2025-08-10T08:28:07.696Z</time>
      </trkpt>
      <trkpt lat="44.12876" lon="0.61755">
        <ele>125</ele>
        <time>2025-08-10T08:28:08.696Z</time>
      </trkpt>
      <trkpt lat="44.12877" lon="0.61754">
        <ele>125</ele>
        <time>2025-08-10T08:28:09.696Z</time>
      </trkpt>
      <trkpt lat="44.12878" lon="0.61753">
        <ele>125</ele>
        <time>2025-08-10T08:28:10.696Z</time>
      </trkpt>
      <trkpt lat="44.12878" lon="0.61752">
        <ele>125</ele>
        <time>2025-08-10T08:28:11.696Z</time>
      </trkpt>
      <trkpt lat="44.12878" lon="0.61751">
        <ele>125</ele>
        <time>2025-08-10T08:28:12.696Z</time>
      </trkpt>
      <trkpt lat="44.12879" lon="0.61749">
        <ele>125</ele>
        <time>2025-08-10T08:28:13.696Z</time>
      </trkpt>
      <trkpt lat="44.12879" lon="0.61747">
        <ele>125</ele>
        <time>2025-08-10T08:28:14.696Z</time>
      </trkpt>
      <trkpt lat="44.1288" lon="0.61746">
        <ele>125</ele>
        <time>2025-08-10T08:28:15.696Z</time>
      </trkpt>
      <trkpt lat="44.12881" lon="0.61745">
        <ele>125</ele>
        <time>2025-08-10T08:28:16.696Z</time>
      </trkpt>
      <trkpt lat="44.12881" lon="0.61743">
        <ele>125</ele>
        <time>2025-08-10T08:28:17.696Z</time>
      </trkpt>
      <trkpt lat="44.12882" lon="0.61741">
        <ele>125</ele>
        <time>2025-08-10T08:28:18.696Z</time>
      </trkpt>
      <trkpt lat="44.12883" lon="0.6174">
        <ele>125</ele>
        <time>2025-08-10T08:28:19.696Z</time>
      </trkpt>
      <trkpt lat="44.12883" lon="0.61738">
        <ele>125</ele>
        <time>2025-08-10T08:28:20.696Z</time>
      </trkpt>
      <trkpt lat="44.12884" lon="0.61737">
        <ele>125</ele>
        <time>2025-08-10T08:28:21.696Z</time>
      </trkpt>
      <trkpt lat="44.12884" lon="0.61735">
        <ele>124</ele>
        <time>2025-08-10T08:28:22.696Z</time>
      </trkpt>
      <trkpt lat="44.12884" lon="0.61734">
        <ele>124</ele>
        <time>2025-08-10T08:28:23.696Z</time>
      </trkpt>
      <trkpt lat="44.12885" lon="0.61732">
        <ele>124</ele>
        <time>2025-08-10T08:28:24.696Z</time>
      </trkpt>
      <trkpt lat="44.12885" lon="0.61731">
        <ele>124</ele>
        <time>2025-08-10T08:28:25.696Z</time>
      </trkpt>
      <trkpt lat="44.12884" lon="0.61729">
        <ele>124</ele>
        <time>2025-08-10T08:28:26.696Z</time>
      </trkpt>
      <trkpt lat="44.12884" lon="0.61727">
        <ele>124</ele>
        <time>2025-08-10T08:28:27.696Z</time>
      </trkpt>
      <trkpt lat="44.12884" lon="0.61725">
        <ele>124</ele>
        <time>2025-08-10T08:28:28.696Z</time>
      </trkpt>
      <trkpt lat="44.12884" lon="0.61724">
        <ele>124</ele>
        <time>2025-08-10T08:28:29.696Z</time>
      </trkpt>
      <trkpt lat="44.12884" lon="0.61722">
        <ele>124</ele>
        <time>2025-08-10T08:28:30.696Z</time>
      </trkpt>
      <trkpt lat="44.12884" lon="0.6172">
        <ele>124</ele>
        <time>2025-08-10T08:28:31.696Z</time>
      </trkpt>
      <trkpt lat="44.12884" lon="0.61719">
        <ele>124</ele>
        <time>2025-08-10T08:28:32.696Z</time>
      </trkpt>
      <trkpt lat="44.12883" lon="0.61717">
        <ele>124</ele>
        <time>2025-08-10T08:28:33.696Z</time>
      </trkpt>
      <trkpt lat="44.12883" lon="0.61716">
        <ele>124</ele>
        <time>2025-08-10T08:28:34.696Z</time>
      </trkpt>
      <trkpt lat="44.12883" lon="0.61714">
        <ele>124</ele>
        <time>2025-08-10T08:28:35.696Z</time>
      </trkpt>
      <trkpt lat="44.12883" lon="0.61713">
        <ele>124</ele>
        <time>2025-08-10T08:28:36.696Z</time>
      </trkpt>
      <trkpt lat="44.12882" lon="0.61711">
        <ele>124</ele>
        <time>2025-08-10T08:28:37.696Z</time>
      </trkpt>
      <trkpt lat="44.12882" lon="0.61709">
        <ele>124</ele>
        <time>2025-08-10T08:28:38.696Z</time>
      </trkpt>
      <trkpt lat="44.12882" lon="0.61707">
        <ele>124</ele>
        <time>2025-08-10T08:28:39.696Z</time>
      </trkpt>
      <trkpt lat="44.12881" lon="0.61705">
        <ele>124</ele>
        <time>2025-08-10T08:28:40.696Z</time>
      </trkpt>
      <trkpt lat="44.12881" lon="0.61704">
        <ele>124</ele>
        <time>2025-08-10T08:28:41.696Z</time>
      </trkpt>
      <trkpt lat="44.12881" lon="0.61702">
        <ele>124</ele>
        <time>2025-08-10T08:28:42.696Z</time>
      </trkpt>
      <trkpt lat="44.1288" lon="0.617">
        <ele>124</ele>
        <time>2025-08-10T08:28:43.696Z</time>
      </trkpt>
      <trkpt lat="44.1288" lon="0.61699">
        <ele>124</ele>
        <time>2025-08-10T08:28:44.696Z</time>
      </trkpt>
      <trkpt lat="44.1288" lon="0.61697">
        <ele>124</ele>
        <time>2025-08-10T08:28:45.696Z</time>
      </trkpt>
      <trkpt lat="44.12879" lon="0.61696">
        <ele>124</ele>
        <time>2025-08-10T08:28:46.696Z</time>
      </trkpt>
      <trkpt lat="44.12879" lon="0.61694">
        <ele>124</ele>
        <time>2025-08-10T08:28:47.696Z</time>
      </trkpt>
      <trkpt lat="44.12879" lon="0.61693">
        <ele>124</ele>
        <time>2025-08-10T08:28:48.696Z</time>
      </trkpt>
      <trkpt lat="44.12878" lon="0.61691">
        <ele>124</ele>
        <time>2025-08-10T08:28:49.696Z</time>
      </trkpt>
      <trkpt lat="44.12878" lon="0.61689">
        <ele>124</ele>
        <time>2025-08-10T08:28:50.696Z</time>
      </trkpt>
      <trkpt lat="44.12878" lon="0.61687">
        <ele>124</ele>
        <time>2025-08-10T08:28:51.696Z</time>
      </trkpt>
      <trkpt lat="44.12877" lon="0.61686">
        <ele>124</ele>
        <time>2025-08-10T08:28:52.696Z</time>
      </trkpt>
      <trkpt lat="44.12877" lon="0.61684">
        <ele>124</ele>
        <time>2025-08-10T08:28:53.696Z</time>
      </trkpt>
      <trkpt lat="44.12876" lon="0.61682">
        <ele>125</ele>
        <time>2025-08-10T08:28:54.696Z</time>
      </trkpt>
      <trkpt lat="44.12876" lon="0.6168">
        <ele>125</ele>
        <time>2025-08-10T08:28:55.696Z</time>
      </trkpt>
      <trkpt lat="44.12875" lon="0.61679">
        <ele>125</ele>
        <time>2025-08-10T08:28:56.696Z</time>
      </trkpt>
      <trkpt lat="44.12875" lon="0.61678">
        <ele>126</ele>
        <time>2025-08-10T08:28:57.696Z</time>
      </trkpt>
      <trkpt lat="44.12875" lon="0.61676">
        <ele>125</ele>
        <time>2025-08-10T08:28:58.696Z</time>
      </trkpt>
      <trkpt lat="44.12874" lon="0.61674">
        <ele>125</ele>
        <time>2025-08-10T08:28:59.696Z</time>
      </trkpt>
      <trkpt lat="44.12874" lon="0.61672">
        <ele>125</ele>
        <time>2025-08-10T08:29:00.696Z</time>
      </trkpt>
      <trkpt lat="44.12873" lon="0.6167">
        <ele>125</ele>
        <time>2025-08-10T08:29:01.696Z</time>
      </trkpt>
      <trkpt lat="44.12873" lon="0.61668">
        <ele>125</ele>
        <time>2025-08-10T08:29:02.696Z</time>
      </trkpt>
      <trkpt lat="44.12873" lon="0.61666">
        <ele>125</ele>
        <time>2025-08-10T08:29:03.696Z</time>
      </trkpt>
      <trkpt lat="44.12872" lon="0.61665">
        <ele>125</ele>
        <time>2025-08-10T08:29:04.696Z</time>
      </trkpt>
      <trkpt lat="44.12872" lon="0.61663">
        <ele>125</ele>
        <time>2025-08-10T08:29:05.696Z</time>
      </trkpt>
      <trkpt lat="44.12872" lon="0.61662">
        <ele>125</ele>
        <time>2025-08-10T08:29:06.696Z</time>
      </trkpt>
      <trkpt lat="44.12871" lon="0.61661">
        <ele>125</ele>
        <time>2025-08-10T08:29:07.696Z</time>
      </trkpt>
      <trkpt lat="44.12871" lon="0.61659">
        <ele>125</ele>
        <time>2025-08-10T08:29:08.696Z</time>
      </trkpt>
      <trkpt lat="44.12871" lon="0.61658">
        <ele>126</ele>
        <time>2025-08-10T08:29:09.696Z</time>
      </trkpt>
      <trkpt lat="44.12871" lon="0.61656">
        <ele>126</ele>
        <time>2025-08-10T08:29:10.696Z</time>
      </trkpt>
      <trkpt lat="44.1287" lon="0.61654">
        <ele>126</ele>
        <time>2025-08-10T08:29:11.696Z</time>
      </trkpt>
      <trkpt lat="44.1287" lon="0.61652">
        <ele>126</ele>
        <time>2025-08-10T08:29:12.696Z</time>
      </trkpt>
      <trkpt lat="44.12869" lon="0.61649">
        <ele>126</ele>
        <time>2025-08-10T08:29:13.696Z</time>
      </trkpt>
      <trkpt lat="44.12869" lon="0.61648">
        <ele>126</ele>
        <time>2025-08-10T08:29:14.696Z</time>
      </trkpt>
      <trkpt lat="44.12868" lon="0.61646">
        <ele>126</ele>
        <time>2025-08-10T08:29:15.697Z</time>
      </trkpt>
      <trkpt lat="44.12868" lon="0.61645">
        <ele>126</ele>
        <time>2025-08-10T08:29:16.696Z</time>
      </trkpt>
      <trkpt lat="44.12868" lon="0.61643">
        <ele>126</ele>
        <time>2025-08-10T08:29:17.696Z</time>
      </trkpt>
      <trkpt lat="44.12867" lon="0.61642">
        <ele>126</ele>
        <time>2025-08-10T08:29:18.696Z</time>
      </trkpt>
      <trkpt lat="44.12867" lon="0.6164">
        <ele>126</ele>
        <time>2025-08-10T08:29:19.696Z</time>
      </trkpt>
      <trkpt lat="44.12866" lon="0.61638">
        <ele>126</ele>
        <time>2025-08-10T08:29:20.696Z</time>
      </trkpt>
      <trkpt lat="44.12866" lon="0.61636">
        <ele>126</ele>
        <time>2025-08-10T08:29:21.696Z</time>
      </trkpt>
      <trkpt lat="44.12866" lon="0.61634">
        <ele>126</ele>
        <time>2025-08-10T08:29:22.696Z</time>
      </trkpt>
      <trkpt lat="44.12865" lon="0.61633">
        <ele>126</ele>
        <time>2025-08-10T08:29:23.696Z</time>
      </trkpt>
      <trkpt lat="44.12865" lon="0.61632">
        <ele>126</ele>
        <time>2025-08-10T08:29:24.696Z</time>
      </trkpt>
      <trkpt lat="44.12865" lon="0.6163">
        <ele>126</ele>
        <time>2025-08-10T08:29:25.696Z</time>
      </trkpt>
      <trkpt lat="44.12864" lon="0.61629">
        <ele>126</ele>
        <time>2025-08-10T08:29:26.696Z</time>
      </trkpt>
      <trkpt lat="44.12864" lon="0.61627">
        <ele>127</ele>
        <time>2025-08-10T08:29:27.696Z</time>
      </trkpt>
      <trkpt lat="44.12864" lon="0.61626">
        <ele>127</ele>
        <time>2025-08-10T08:29:28.696Z</time>
      </trkpt>
      <trkpt lat="44.12863" lon="0.61623">
        <ele>127</ele>
        <time>2025-08-10T08:29:29.696Z</time>
      </trkpt>
      <trkpt lat="44.12863" lon="0.61622">
        <ele>127</ele>
        <time>2025-08-10T08:29:30.696Z</time>
      </trkpt>
      <trkpt lat="44.12863" lon="0.6162">
        <ele>127</ele>
        <time>2025-08-10T08:29:31.696Z</time>
      </trkpt>
      <trkpt lat="44.12862" lon="0.61618">
        <ele>127</ele>
        <time>2025-08-10T08:29:32.696Z</time>
      </trkpt>
      <trkpt lat="44.12862" lon="0.61616">
        <ele>128</ele>
        <time>2025-08-10T08:29:33.696Z</time>
      </trkpt>
      <trkpt lat="44.12862" lon="0.61614">
        <ele>128</ele>
        <time>2025-08-10T08:29:34.696Z</time>
      </trkpt>
      <trkpt lat="44.12861" lon="0.61613">
        <ele>128</ele>
        <time>2025-08-10T08:29:35.696Z</time>
      </trkpt>
      <trkpt lat="44.12861" lon="0.61611">
        <ele>128</ele>
        <time>2025-08-10T08:29:36.696Z</time>
      </trkpt>
      <trkpt lat="44.12861" lon="0.6161">
        <ele>128</ele>
        <time>2025-08-10T08:29:37.696Z</time>
      </trkpt>
      <trkpt lat="44.12861" lon="0.61608">
        <ele>128</ele>
        <time>2025-08-10T08:29:38.696Z</time>
      </trkpt>
      <trkpt lat="44.12861" lon="0.61606">
        <ele>128</ele>
        <time>2025-08-10T08:29:39.696Z</time>
      </trkpt>
      <trkpt lat="44.12861" lon="0.61605">
        <ele>128</ele>
        <time>2025-08-10T08:29:40.696Z</time>
      </trkpt>
      <trkpt lat="44.1286" lon="0.61603">
        <ele>129</ele>
        <time>2025-08-10T08:29:41.696Z</time>
      </trkpt>
      <trkpt lat="44.1286" lon="0.61602">
        <ele>129</ele>
        <time>2025-08-10T08:29:42.696Z</time>
      </trkpt>
      <trkpt lat="44.1286" lon="0.61601">
        <ele>129</ele>
        <time>2025-08-10T08:29:43.696Z</time>
      </trkpt>
      <trkpt lat="44.1286" lon="0.616">
        <ele>129</ele>
        <time>2025-08-10T08:29:44.696Z</time>
      </trkpt>
      <trkpt lat="44.12859" lon="0.61598">
        <ele>129</ele>
        <time>2025-08-10T08:29:45.696Z</time>
      </trkpt>
      <trkpt lat="44.12859" lon="0.61597">
        <ele>128</ele>
        <time>2025-08-10T08:29:46.696Z</time>
      </trkpt>
      <trkpt lat="44.12859" lon="0.61595">
        <ele>128</ele>
        <time>2025-08-10T08:29:47.696Z</time>
      </trkpt>
      <trkpt lat="44.12858" lon="0.61594">
        <ele>128</ele>
        <time>2025-08-10T08:29:48.696Z</time>
      </trkpt>
      <trkpt lat="44.12858" lon="0.61593">
        <ele>127</ele>
        <time>2025-08-10T08:29:49.696Z</time>
      </trkpt>
      <trkpt lat="44.12857" lon="0.61592">
        <ele>127</ele>
        <time>2025-08-10T08:29:50.696Z</time>
      </trkpt>
      <trkpt lat="44.12857" lon="0.61591">
        <ele>127</ele>
        <time>2025-08-10T08:29:51.696Z</time>
      </trkpt>
      <trkpt lat="44.12857" lon="0.6159">
        <ele>127</ele>
        <time>2025-08-10T08:29:52.696Z</time>
      </trkpt>
      <trkpt lat="44.12857" lon="0.6159">
        <ele>127</ele>
        <time>2025-08-10T08:29:53.696Z</time>
      </trkpt>
      <trkpt lat="44.12857" lon="0.61589">
        <ele>127</ele>
        <time>2025-08-10T08:29:54.696Z</time>
      </trkpt>
      <trkpt lat="44.12857" lon="0.61588">
        <ele>127</ele>
        <time>2025-08-10T08:29:55.696Z</time>
      </trkpt>
      <trkpt lat="44.12856" lon="0.61587">
        <ele>127</ele>
        <time>2025-08-10T08:29:56.696Z</time>
      </trkpt>
      <trkpt lat="44.12855" lon="0.61585">
        <ele>127</ele>
        <time>2025-08-10T08:29:57.696Z</time>
      </trkpt>
      <trkpt lat="44.12855" lon="0.61584">
        <ele>127</ele>
        <time>2025-08-10T08:29:58.696Z</time>
      </trkpt>
      <trkpt lat="44.12855" lon="0.61582">
        <ele>127</ele>
        <time>2025-08-10T08:29:59.696Z</time>
      </trkpt>
      <trkpt lat="44.12854" lon="0.61581">
        <ele>128</ele>
        <time>2025-08-10T08:30:00.696Z</time>
      </trkpt>
      <trkpt lat="44.12854" lon="0.61579">
        <ele>128</ele>
        <time>2025-08-10T08:30:01.696Z</time>
      </trkpt>
      <trkpt lat="44.12854" lon="0.61578">
        <ele>128</ele>
        <time>2025-08-10T08:30:02.696Z</time>
      </trkpt>
      <trkpt lat="44.12854" lon="0.61577">
        <ele>129</ele>
        <time>2025-08-10T08:30:03.696Z</time>
      </trkpt>
      <trkpt lat="44.12853" lon="0.61575">
        <ele>129</ele>
        <time>2025-08-10T08:30:04.696Z</time>
      </trkpt>
      <trkpt lat="44.12853" lon="0.61573">
        <ele>129</ele>
        <time>2025-08-10T08:30:05.696Z</time>
      </trkpt>
      <trkpt lat="44.12853" lon="0.61571">
        <ele>130</ele>
        <time>2025-08-10T08:30:06.696Z</time>
      </trkpt>
      <trkpt lat="44.12852" lon="0.6157">
        <ele>130</ele>
        <time>2025-08-10T08:30:07.696Z</time>
      </trkpt>
      <trkpt lat="44.12852" lon="0.61568">
        <ele>131</ele>
        <time>2025-08-10T08:30:08.696Z</time>
      </trkpt>
      <trkpt lat="44.12852" lon="0.61567">
        <ele>131</ele>
        <time>2025-08-10T08:30:09.696Z</time>
      </trkpt>
      <trkpt lat="44.12852" lon="0.61566">
        <ele>131</ele>
        <time>2025-08-10T08:30:10.696Z</time>
      </trkpt>
      <trkpt lat="44.12851" lon="0.61564">
        <ele>131</ele>
        <time>2025-08-10T08:30:11.696Z</time>
      </trkpt>
      <trkpt lat="44.12852" lon="0.61563">
        <ele>131</ele>
        <time>2025-08-10T08:30:12.696Z</time>
      </trkpt>
      <trkpt lat="44.12851" lon="0.61561">
        <ele>132</ele>
        <time>2025-08-10T08:30:13.696Z</time>
      </trkpt>
      <trkpt lat="44.12851" lon="0.6156">
        <ele>132</ele>
        <time>2025-08-10T08:30:14.696Z</time>
      </trkpt>
      <trkpt lat="44.12851" lon="0.61558">
        <ele>132</ele>
        <time>2025-08-10T08:30:15.696Z</time>
      </trkpt>
      <trkpt lat="44.12851" lon="0.61557">
        <ele>132</ele>
        <time>2025-08-10T08:30:16.696Z</time>
      </trkpt>
      <trkpt lat="44.12851" lon="0.61555">
        <ele>132</ele>
        <time>2025-08-10T08:30:17.696Z</time>
      </trkpt>
      <trkpt lat="44.12851" lon="0.61554">
        <ele>132</ele>
        <time>2025-08-10T08:30:18.696Z</time>
      </trkpt>
      <trkpt lat="44.12851" lon="0.61552">
        <ele>132</ele>
        <time>2025-08-10T08:30:19.696Z</time>
      </trkpt>
      <trkpt lat="44.1285" lon="0.61551">
        <ele>132</ele>
        <time>2025-08-10T08:30:20.696Z</time>
      </trkpt>
      <trkpt lat="44.1285" lon="0.6155">
        <ele>132</ele>
        <time>2025-08-10T08:30:21.696Z</time>
      </trkpt>
      <trkpt lat="44.1285" lon="0.61548">
        <ele>132</ele>
        <time>2025-08-10T08:30:22.696Z</time>
      </trkpt>
      <trkpt lat="44.12851" lon="0.61547">
        <ele>132</ele>
        <time>2025-08-10T08:30:23.696Z</time>
      </trkpt>
      <trkpt lat="44.12851" lon="0.61546">
        <ele>132</ele>
        <time>2025-08-10T08:30:24.696Z</time>
      </trkpt>
      <trkpt lat="44.12851" lon="0.61544">
        <ele>132</ele>
        <time>2025-08-10T08:30:25.696Z</time>
      </trkpt>
      <trkpt lat="44.12851" lon="0.61543">
        <ele>132</ele>
        <time>2025-08-10T08:30:26.696Z</time>
      </trkpt>
      <trkpt lat="44.12851" lon="0.61541">
        <ele>133</ele>
        <time>2025-08-10T08:30:27.696Z</time>
      </trkpt>
      <trkpt lat="44.12851" lon="0.6154">
        <ele>133</ele>
        <time>2025-08-10T08:30:28.696Z</time>
      </trkpt>
      <trkpt lat="44.12851" lon="0.61539">
        <ele>133</ele>
        <time>2025-08-10T08:30:29.696Z</time>
      </trkpt>
      <trkpt lat="44.12851" lon="0.61537">
        <ele>133</ele>
        <time>2025-08-10T08:30:30.696Z</time>
      </trkpt>
      <trkpt lat="44.12851" lon="0.61536">
        <ele>134</ele>
        <time>2025-08-10T08:30:31.696Z</time>
      </trkpt>
      <trkpt lat="44.12851" lon="0.61535">
        <ele>134</ele>
        <time>2025-08-10T08:30:32.696Z</time>
      </trkpt>
      <trkpt lat="44.1285" lon="0.61534">
        <ele>135</ele>
        <time>2025-08-10T08:30:33.696Z</time>
      </trkpt>
      <trkpt lat="44.1285" lon="0.61533">
        <ele>136</ele>
        <time>2025-08-10T08:30:34.696Z</time>
      </trkpt>
      <trkpt lat="44.1285" lon="0.61531">
        <ele>137</ele>
        <time>2025-08-10T08:30:35.696Z</time>
      </trkpt>
      <trkpt lat="44.1285" lon="0.6153">
        <ele>137</ele>
        <time>2025-08-10T08:30:36.696Z</time>
      </trkpt>
      <trkpt lat="44.12849" lon="0.61528">
        <ele>137</ele>
        <time>2025-08-10T08:30:37.696Z</time>
      </trkpt>
      <trkpt lat="44.12849" lon="0.61527">
        <ele>137</ele>
        <time>2025-08-10T08:30:38.696Z</time>
      </trkpt>
      <trkpt lat="44.12848" lon="0.61526">
        <ele>137</ele>
        <time>2025-08-10T08:30:39.696Z</time>
      </trkpt>
      <trkpt lat="44.12848" lon="0.61524">
        <ele>137</ele>
        <time>2025-08-10T08:30:40.696Z</time>
      </trkpt>
      <trkpt lat="44.12848" lon="0.61523">
        <ele>137</ele>
        <time>2025-08-10T08:30:41.696Z</time>
      </trkpt>
      <trkpt lat="44.12848" lon="0.61521">
        <ele>137</ele>
        <time>2025-08-10T08:30:42.696Z</time>
      </trkpt>
      <trkpt lat="44.12848" lon="0.6152">
        <ele>137</ele>
        <time>2025-08-10T08:30:43.696Z</time>
      </trkpt>
      <trkpt lat="44.12848" lon="0.61518">
        <ele>136</ele>
        <time>2025-08-10T08:30:44.696Z</time>
      </trkpt>
      <trkpt lat="44.12848" lon="0.61517">
        <ele>136</ele>
        <time>2025-08-10T08:30:45.696Z</time>
      </trkpt>
      <trkpt lat="44.12847" lon="0.61515">
        <ele>136</ele>
        <time>2025-08-10T08:30:46.696Z</time>
      </trkpt>
      <trkpt lat="44.12847" lon="0.61514">
        <ele>136</ele>
        <time>2025-08-10T08:30:47.696Z</time>
      </trkpt>
      <trkpt lat="44.12847" lon="0.61512">
        <ele>136</ele>
        <time>2025-08-10T08:30:48.697Z</time>
      </trkpt>
      <trkpt lat="44.12847" lon="0.6151">
        <ele>136</ele>
        <time>2025-08-10T08:30:49.696Z</time>
      </trkpt>
      <trkpt lat="44.12847" lon="0.61509">
        <ele>136</ele>
        <time>2025-08-10T08:30:50.696Z</time>
      </trkpt>
      <trkpt lat="44.12847" lon="0.61507">
        <ele>135</ele>
        <time>2025-08-10T08:30:51.696Z</time>
      </trkpt>
      <trkpt lat="44.12847" lon="0.61506">
        <ele>135</ele>
        <time>2025-08-10T08:30:52.696Z</time>
      </trkpt>
      <trkpt lat="44.12847" lon="0.61504">
        <ele>134</ele>
        <time>2025-08-10T08:30:53.696Z</time>
      </trkpt>
      <trkpt lat="44.12847" lon="0.61503">
        <ele>134</ele>
        <time>2025-08-10T08:30:54.696Z</time>
      </trkpt>
      <trkpt lat="44.12847" lon="0.61502">
        <ele>134</ele>
        <time>2025-08-10T08:30:55.696Z</time>
      </trkpt>
      <trkpt lat="44.12847" lon="0.615">
        <ele>134</ele>
        <time>2025-08-10T08:30:56.696Z</time>
      </trkpt>
      <trkpt lat="44.12847" lon="0.61499">
        <ele>134</ele>
        <time>2025-08-10T08:30:57.696Z</time>
      </trkpt>
      <trkpt lat="44.12847" lon="0.61497">
        <ele>134</ele>
        <time>2025-08-10T08:30:58.696Z</time>
      </trkpt>
      <trkpt lat="44.12847" lon="0.61496">
        <ele>134</ele>
        <time>2025-08-10T08:30:59.696Z</time>
      </trkpt>
      <trkpt lat="44.12847" lon="0.61494">
        <ele>134</ele>
        <time>2025-08-10T08:31:00.696Z</time>
      </trkpt>
      <trkpt lat="44.12847" lon="0.61493">
        <ele>134</ele>
        <time>2025-08-10T08:31:01.696Z</time>
      </trkpt>
      <trkpt lat="44.12847" lon="0.61491">
        <ele>134</ele>
        <time>2025-08-10T08:31:02.696Z</time>
      </trkpt>
      <trkpt lat="44.12847" lon="0.6149">
        <ele>134</ele>
        <time>2025-08-10T08:31:03.696Z</time>
      </trkpt>
      <trkpt lat="44.12847" lon="0.61488">
        <ele>134</ele>
        <time>2025-08-10T08:31:04.696Z</time>
      </trkpt>
      <trkpt lat="44.12846" lon="0.61486">
        <ele>135</ele>
        <time>2025-08-10T08:31:05.696Z</time>
      </trkpt>
      <trkpt lat="44.12846" lon="0.61485">
        <ele>135</ele>
        <time>2025-08-10T08:31:06.696Z</time>
      </trkpt>
      <trkpt lat="44.12846" lon="0.61483">
        <ele>135</ele>
        <time>2025-08-10T08:31:07.696Z</time>
      </trkpt>
      <trkpt lat="44.12847" lon="0.61482">
        <ele>135</ele>
        <time>2025-08-10T08:31:08.696Z</time>
      </trkpt>
      <trkpt lat="44.12847" lon="0.6148">
        <ele>135</ele>
        <time>2025-08-10T08:31:09.696Z</time>
      </trkpt>
      <trkpt lat="44.12847" lon="0.61478">
        <ele>134</ele>
        <time>2025-08-10T08:31:10.696Z</time>
      </trkpt>
      <trkpt lat="44.12847" lon="0.61477">
        <ele>134</ele>
        <time>2025-08-10T08:31:11.696Z</time>
      </trkpt>
      <trkpt lat="44.12847" lon="0.61476">
        <ele>134</ele>
        <time>2025-08-10T08:31:12.696Z</time>
      </trkpt>
      <trkpt lat="44.12847" lon="0.61475">
        <ele>134</ele>
        <time>2025-08-10T08:31:13.696Z</time>
      </trkpt>
      <trkpt lat="44.12847" lon="0.61473">
        <ele>134</ele>
        <time>2025-08-10T08:31:14.696Z</time>
      </trkpt>
      <trkpt lat="44.12848" lon="0.61472">
        <ele>135</ele>
        <time>2025-08-10T08:31:15.696Z</time>
      </trkpt>
      <trkpt lat="44.12848" lon="0.6147">
        <ele>135</ele>
        <time>2025-08-10T08:31:16.696Z</time>
      </trkpt>
      <trkpt lat="44.12848" lon="0.61469">
        <ele>135</ele>
        <time>2025-08-10T08:31:17.696Z</time>
      </trkpt>
      <trkpt lat="44.12848" lon="0.61467">
        <ele>134</ele>
        <time>2025-08-10T08:31:18.696Z</time>
      </trkpt>
      <trkpt lat="44.12848" lon="0.61466">
        <ele>135</ele>
        <time>2025-08-10T08:31:19.696Z</time>
      </trkpt>
      <trkpt lat="44.12848" lon="0.61464">
        <ele>135</ele>
        <time>2025-08-10T08:31:20.696Z</time>
      </trkpt>
      <trkpt lat="44.12848" lon="0.61463">
        <ele>135</ele>
        <time>2025-08-10T08:31:21.696Z</time>
      </trkpt>
      <trkpt lat="44.12848" lon="0.61461">
        <ele>135</ele>
        <time>2025-08-10T08:31:22.696Z</time>
      </trkpt>
      <trkpt lat="44.12848" lon="0.6146">
        <ele>135</ele>
        <time>2025-08-10T08:31:23.696Z</time>
      </trkpt>
      <trkpt lat="44.12849" lon="0.61459">
        <ele>135</ele>
        <time>2025-08-10T08:31:24.696Z</time>
      </trkpt>
      <trkpt lat="44.12849" lon="0.61459">
        <ele>135</ele>
        <time>2025-08-10T08:31:25.696Z</time>
      </trkpt>
      <trkpt lat="44.12849" lon="0.61458">
        <ele>134</ele>
        <time>2025-08-10T08:31:26.696Z</time>
      </trkpt>
      <trkpt lat="44.12849" lon="0.61457">
        <ele>134</ele>
        <time>2025-08-10T08:31:27.696Z</time>
      </trkpt>
      <trkpt lat="44.12849" lon="0.61455">
        <ele>134</ele>
        <time>2025-08-10T08:31:28.696Z</time>
      </trkpt>
      <trkpt lat="44.12849" lon="0.61454">
        <ele>134</ele>
        <time>2025-08-10T08:31:29.696Z</time>
      </trkpt>
      <trkpt lat="44.12849" lon="0.61452">
        <ele>134</ele>
        <time>2025-08-10T08:31:30.696Z</time>
      </trkpt>
      <trkpt lat="44.12849" lon="0.61451">
        <ele>134</ele>
        <time>2025-08-10T08:31:31.696Z</time>
      </trkpt>
      <trkpt lat="44.12849" lon="0.61449">
        <ele>134</ele>
        <time>2025-08-10T08:31:32.696Z</time>
      </trkpt>
      <trkpt lat="44.1285" lon="0.61448">
        <ele>134</ele>
        <time>2025-08-10T08:31:33.696Z</time>
      </trkpt>
      <trkpt lat="44.1285" lon="0.61447">
        <ele>134</ele>
        <time>2025-08-10T08:31:34.696Z</time>
      </trkpt>
      <trkpt lat="44.1285" lon="0.61445">
        <ele>134</ele>
        <time>2025-08-10T08:31:35.696Z</time>
      </trkpt>
      <trkpt lat="44.1285" lon="0.61443">
        <ele>134</ele>
        <time>2025-08-10T08:31:36.696Z</time>
      </trkpt>
      <trkpt lat="44.1285" lon="0.61442">
        <ele>135</ele>
        <time>2025-08-10T08:31:37.696Z</time>
      </trkpt>
      <trkpt lat="44.1285" lon="0.6144">
        <ele>134</ele>
        <time>2025-08-10T08:31:38.696Z</time>
      </trkpt>
      <trkpt lat="44.1285" lon="0.61439">
        <ele>134</ele>
        <time>2025-08-10T08:31:39.696Z</time>
      </trkpt>
      <trkpt lat="44.1285" lon="0.61437">
        <ele>135</ele>
        <time>2025-08-10T08:31:40.696Z</time>
      </trkpt>
      <trkpt lat="44.1285" lon="0.61436">
        <ele>135</ele>
        <time>2025-08-10T08:31:41.696Z</time>
      </trkpt>
      <trkpt lat="44.12851" lon="0.61435">
        <ele>135</ele>
        <time>2025-08-10T08:31:42.696Z</time>
      </trkpt>
      <trkpt lat="44.12851" lon="0.61434">
        <ele>135</ele>
        <time>2025-08-10T08:31:43.696Z</time>
      </trkpt>
      <trkpt lat="44.12851" lon="0.61433">
        <ele>135</ele>
        <time>2025-08-10T08:31:44.696Z</time>
      </trkpt>
      <trkpt lat="44.1285" lon="0.61432">
        <ele>135</ele>
        <time>2025-08-10T08:31:45.696Z</time>
      </trkpt>
      <trkpt lat="44.1285" lon="0.61432">
        <ele>135</ele>
        <time>2025-08-10T08:31:46.696Z</time>
      </trkpt>
      <trkpt lat="44.1285" lon="0.61431">
        <ele>135</ele>
        <time>2025-08-10T08:31:47.696Z</time>
      </trkpt>
      <trkpt lat="44.1285" lon="0.6143">
        <ele>136</ele>
        <time>2025-08-10T08:31:48.696Z</time>
      </trkpt>
      <trkpt lat="44.12849" lon="0.6143">
        <ele>136</ele>
        <time>2025-08-10T08:31:49.696Z</time>
      </trkpt>
      <trkpt lat="44.12849" lon="0.61429">
        <ele>136</ele>
        <time>2025-08-10T08:31:50.696Z</time>
      </trkpt>
      <trkpt lat="44.12849" lon="0.61429">
        <ele>136</ele>
        <time>2025-08-10T08:31:51.696Z</time>
      </trkpt>
      <trkpt lat="44.12849" lon="0.61429">
        <ele>136</ele>
        <time>2025-08-10T08:31:52.696Z</time>
      </trkpt>
      <trkpt lat="44.12849" lon="0.61429">
        <ele>136</ele>
        <time>2025-08-10T08:31:53.696Z</time>
      </trkpt>
      <trkpt lat="44.12849" lon="0.61429">
        <ele>136</ele>
        <time>2025-08-10T08:31:54.696Z</time>
      </trkpt>
      <trkpt lat="44.12849" lon="0.61429">
        <ele>136</ele>
        <time>2025-08-10T08:31:55.696Z</time>
      </trkpt>
      <trkpt lat="44.12849" lon="0.61429">
        <ele>137</ele>
        <time>2025-08-10T08:31:56.696Z</time>
      </trkpt>
      <trkpt lat="44.1285" lon="0.61428">
        <ele>137</ele>
        <time>2025-08-10T08:31:57.696Z</time>
      </trkpt>
      <trkpt lat="44.1285" lon="0.61427">
        <ele>136</ele>
        <time>2025-08-10T08:31:58.696Z</time>
      </trkpt>
      <trkpt lat="44.1285" lon="0.61425">
        <ele>136</ele>
        <time>2025-08-10T08:31:59.696Z</time>
      </trkpt>
      <trkpt lat="44.12851" lon="0.61424">
        <ele>136</ele>
        <time>2025-08-10T08:32:00.696Z</time>
      </trkpt>
      <trkpt lat="44.12851" lon="0.61422">
        <ele>136</ele>
        <time>2025-08-10T08:32:01.696Z</time>
      </trkpt>
      <trkpt lat="44.12851" lon="0.6142">
        <ele>136</ele>
        <time>2025-08-10T08:32:02.696Z</time>
      </trkpt>
      <trkpt lat="44.12851" lon="0.61419">
        <ele>136</ele>
        <time>2025-08-10T08:32:03.696Z</time>
      </trkpt>
      <trkpt lat="44.12852" lon="0.61417">
        <ele>136</ele>
        <time>2025-08-10T08:32:04.696Z</time>
      </trkpt>
      <trkpt lat="44.12852" lon="0.61415">
        <ele>136</ele>
        <time>2025-08-10T08:32:05.696Z</time>
      </trkpt>
      <trkpt lat="44.12852" lon="0.61414">
        <ele>136</ele>
        <time>2025-08-10T08:32:06.696Z</time>
      </trkpt>
      <trkpt lat="44.12852" lon="0.61413">
        <ele>135</ele>
        <time>2025-08-10T08:32:07.696Z</time>
      </trkpt>
      <trkpt lat="44.12853" lon="0.61411">
        <ele>135</ele>
        <time>2025-08-10T08:32:08.696Z</time>
      </trkpt>
      <trkpt lat="44.12853" lon="0.61409">
        <ele>135</ele>
        <time>2025-08-10T08:32:09.696Z</time>
      </trkpt>
      <trkpt lat="44.12853" lon="0.61407">
        <ele>135</ele>
        <time>2025-08-10T08:32:10.696Z</time>
      </trkpt>
      <trkpt lat="44.12853" lon="0.61406">
        <ele>135</ele>
        <time>2025-08-10T08:32:11.696Z</time>
      </trkpt>
      <trkpt lat="44.12854" lon="0.61404">
        <ele>135</ele>
        <time>2025-08-10T08:32:12.696Z</time>
      </trkpt>
      <trkpt lat="44.12854" lon="0.61403">
        <ele>135</ele>
        <time>2025-08-10T08:32:13.696Z</time>
      </trkpt>
      <trkpt lat="44.12854" lon="0.61401">
        <ele>135</ele>
        <time>2025-08-10T08:32:14.696Z</time>
      </trkpt>
      <trkpt lat="44.12854" lon="0.61399">
        <ele>135</ele>
        <time>2025-08-10T08:32:15.696Z</time>
      </trkpt>
      <trkpt lat="44.12854" lon="0.61398">
        <ele>135</ele>
        <time>2025-08-10T08:32:16.696Z</time>
      </trkpt>
      <trkpt lat="44.12854" lon="0.61396">
        <ele>135</ele>
        <time>2025-08-10T08:32:17.696Z</time>
      </trkpt>
      <trkpt lat="44.12854" lon="0.61395">
        <ele>135</ele>
        <time>2025-08-10T08:32:18.696Z</time>
      </trkpt>
      <trkpt lat="44.12854" lon="0.61393">
        <ele>135</ele>
        <time>2025-08-10T08:32:19.696Z</time>
      </trkpt>
      <trkpt lat="44.12854" lon="0.61391">
        <ele>135</ele>
        <time>2025-08-10T08:32:20.696Z</time>
      </trkpt>
      <trkpt lat="44.12854" lon="0.6139">
        <ele>135</ele>
        <time>2025-08-10T08:32:21.696Z</time>
      </trkpt>
      <trkpt lat="44.12854" lon="0.61388">
        <ele>135</ele>
        <time>2025-08-10T08:32:22.696Z</time>
      </trkpt>
      <trkpt lat="44.12855" lon="0.61387">
        <ele>135</ele>
        <time>2025-08-10T08:32:23.696Z</time>
      </trkpt>
      <trkpt lat="44.12855" lon="0.61385">
        <ele>136</ele>
        <time>2025-08-10T08:32:24.696Z</time>
      </trkpt>
      <trkpt lat="44.12855" lon="0.61384">
        <ele>136</ele>
        <time>2025-08-10T08:32:25.696Z</time>
      </trkpt>
      <trkpt lat="44.12854" lon="0.61382">
        <ele>136</ele>
        <time>2025-08-10T08:32:26.696Z</time>
      </trkpt>
      <trkpt lat="44.12854" lon="0.61381">
        <ele>136</ele>
        <time>2025-08-10T08:32:27.696Z</time>
      </trkpt>
      <trkpt lat="44.12854" lon="0.61379">
        <ele>136</ele>
        <time>2025-08-10T08:32:28.696Z</time>
      </trkpt>
      <trkpt lat="44.12854" lon="0.61378">
        <ele>136</ele>
        <time>2025-08-10T08:32:29.696Z</time>
      </trkpt>
      <trkpt lat="44.12854" lon="0.61376">
        <ele>136</ele>
        <time>2025-08-10T08:32:30.696Z</time>
      </trkpt>
      <trkpt lat="44.12853" lon="0.61374">
        <ele>137</ele>
        <time>2025-08-10T08:32:31.696Z</time>
      </trkpt>
      <trkpt lat="44.12853" lon="0.61373">
        <ele>137</ele>
        <time>2025-08-10T08:32:32.696Z</time>
      </trkpt>
      <trkpt lat="44.12853" lon="0.61372">
        <ele>137</ele>
        <time>2025-08-10T08:32:33.696Z</time>
      </trkpt>
      <trkpt lat="44.12853" lon="0.6137">
        <ele>137</ele>
        <time>2025-08-10T08:32:34.696Z</time>
      </trkpt>
      <trkpt lat="44.12853" lon="0.61368">
        <ele>136</ele>
        <time>2025-08-10T08:32:35.696Z</time>
      </trkpt>
      <trkpt lat="44.12853" lon="0.61367">
        <ele>136</ele>
        <time>2025-08-10T08:32:36.696Z</time>
      </trkpt>
      <trkpt lat="44.12853" lon="0.61365">
        <ele>136</ele>
        <time>2025-08-10T08:32:37.696Z</time>
      </trkpt>
      <trkpt lat="44.12853" lon="0.61363">
        <ele>136</ele>
        <time>2025-08-10T08:32:38.696Z</time>
      </trkpt>
      <trkpt lat="44.12853" lon="0.61361">
        <ele>136</ele>
        <time>2025-08-10T08:32:39.696Z</time>
      </trkpt>
      <trkpt lat="44.12853" lon="0.61359">
        <ele>136</ele>
        <time>2025-08-10T08:32:40.696Z</time>
      </trkpt>
      <trkpt lat="44.12853" lon="0.61357">
        <ele>136</ele>
        <time>2025-08-10T08:32:41.696Z</time>
      </trkpt>
      <trkpt lat="44.12853" lon="0.61356">
        <ele>136</ele>
        <time>2025-08-10T08:32:42.696Z</time>
      </trkpt>
      <trkpt lat="44.12853" lon="0.61354">
        <ele>137</ele>
        <time>2025-08-10T08:32:43.696Z</time>
      </trkpt>
      <trkpt lat="44.12853" lon="0.61352">
        <ele>137</ele>
        <time>2025-08-10T08:32:44.696Z</time>
      </trkpt>
      <trkpt lat="44.12853" lon="0.61351">
        <ele>137</ele>
        <time>2025-08-10T08:32:45.696Z</time>
      </trkpt>
      <trkpt lat="44.12853" lon="0.61349">
        <ele>137</ele>
        <time>2025-08-10T08:32:46.696Z</time>
      </trkpt>
      <trkpt lat="44.12853" lon="0.61348">
        <ele>137</ele>
        <time>2025-08-10T08:32:47.696Z</time>
      </trkpt>
      <trkpt lat="44.12853" lon="0.61346">
        <ele>137</ele>
        <time>2025-08-10T08:32:48.696Z</time>
      </trkpt>
      <trkpt lat="44.12853" lon="0.61345">
        <ele>137</ele>
        <time>2025-08-10T08:32:49.696Z</time>
      </trkpt>
      <trkpt lat="44.12853" lon="0.61344">
        <ele>137</ele>
        <time>2025-08-10T08:32:50.696Z</time>
      </trkpt>
      <trkpt lat="44.12853" lon="0.61342">
        <ele>137</ele>
        <time>2025-08-10T08:32:51.696Z</time>
      </trkpt>
      <trkpt lat="44.12853" lon="0.6134">
        <ele>137</ele>
        <time>2025-08-10T08:32:52.696Z</time>
      </trkpt>
      <trkpt lat="44.12853" lon="0.61338">
        <ele>137</ele>
        <time>2025-08-10T08:32:53.696Z</time>
      </trkpt>
      <trkpt lat="44.12852" lon="0.61336">
        <ele>137</ele>
        <time>2025-08-10T08:32:54.696Z</time>
      </trkpt>
      <trkpt lat="44.12852" lon="0.61335">
        <ele>137</ele>
        <time>2025-08-10T08:32:55.696Z</time>
      </trkpt>
      <trkpt lat="44.12852" lon="0.61333">
        <ele>137</ele>
        <time>2025-08-10T08:32:56.696Z</time>
      </trkpt>
      <trkpt lat="44.12852" lon="0.61332">
        <ele>138</ele>
        <time>2025-08-10T08:32:57.696Z</time>
      </trkpt>
      <trkpt lat="44.12852" lon="0.61331">
        <ele>138</ele>
        <time>2025-08-10T08:32:58.696Z</time>
      </trkpt>
      <trkpt lat="44.12852" lon="0.61329">
        <ele>138</ele>
        <time>2025-08-10T08:32:59.696Z</time>
      </trkpt>
      <trkpt lat="44.12852" lon="0.61327">
        <ele>138</ele>
        <time>2025-08-10T08:33:00.696Z</time>
      </trkpt>
      <trkpt lat="44.12852" lon="0.61326">
        <ele>138</ele>
        <time>2025-08-10T08:33:01.696Z</time>
      </trkpt>
      <trkpt lat="44.12851" lon="0.61324">
        <ele>139</ele>
        <time>2025-08-10T08:33:02.696Z</time>
      </trkpt>
      <trkpt lat="44.12851" lon="0.61322">
        <ele>139</ele>
        <time>2025-08-10T08:33:03.696Z</time>
      </trkpt>
      <trkpt lat="44.12851" lon="0.61321">
        <ele>139</ele>
        <time>2025-08-10T08:33:04.696Z</time>
      </trkpt>
      <trkpt lat="44.12851" lon="0.61319">
        <ele>139</ele>
        <time>2025-08-10T08:33:05.696Z</time>
      </trkpt>
      <trkpt lat="44.12851" lon="0.61318">
        <ele>139</ele>
        <time>2025-08-10T08:33:06.696Z</time>
      </trkpt>
      <trkpt lat="44.12851" lon="0.61316">
        <ele>140</ele>
        <time>2025-08-10T08:33:07.696Z</time>
      </trkpt>
      <trkpt lat="44.12851" lon="0.61315">
        <ele>140</ele>
        <time>2025-08-10T08:33:08.696Z</time>
      </trkpt>
      <trkpt lat="44.12851" lon="0.61313">
        <ele>140</ele>
        <time>2025-08-10T08:33:09.696Z</time>
      </trkpt>
      <trkpt lat="44.12851" lon="0.61311">
        <ele>140</ele>
        <time>2025-08-10T08:33:10.696Z</time>
      </trkpt>
      <trkpt lat="44.12851" lon="0.6131">
        <ele>140</ele>
        <time>2025-08-10T08:33:11.696Z</time>
      </trkpt>
      <trkpt lat="44.12851" lon="0.61308">
        <ele>140</ele>
        <time>2025-08-10T08:33:12.696Z</time>
      </trkpt>
      <trkpt lat="44.12851" lon="0.61307">
        <ele>140</ele>
        <time>2025-08-10T08:33:13.696Z</time>
      </trkpt>
      <trkpt lat="44.12851" lon="0.61305">
        <ele>140</ele>
        <time>2025-08-10T08:33:14.696Z</time>
      </trkpt>
      <trkpt lat="44.1285" lon="0.61304">
        <ele>140</ele>
        <time>2025-08-10T08:33:15.696Z</time>
      </trkpt>
      <trkpt lat="44.1285" lon="0.61302">
        <ele>139</ele>
        <time>2025-08-10T08:33:16.696Z</time>
      </trkpt>
      <trkpt lat="44.1285" lon="0.613">
        <ele>139</ele>
        <time>2025-08-10T08:33:17.696Z</time>
      </trkpt>
      <trkpt lat="44.1285" lon="0.61299">
        <ele>140</ele>
        <time>2025-08-10T08:33:18.696Z</time>
      </trkpt>
      <trkpt lat="44.1285" lon="0.61298">
        <ele>140</ele>
        <time>2025-08-10T08:33:19.696Z</time>
      </trkpt>
      <trkpt lat="44.1285" lon="0.61296">
        <ele>140</ele>
        <time>2025-08-10T08:33:20.696Z</time>
      </trkpt>
      <trkpt lat="44.1285" lon="0.61295">
        <ele>140</ele>
        <time>2025-08-10T08:33:21.696Z</time>
      </trkpt>
      <trkpt lat="44.1285" lon="0.61293">
        <ele>141</ele>
        <time>2025-08-10T08:33:22.696Z</time>
      </trkpt>
      <trkpt lat="44.1285" lon="0.61291">
        <ele>141</ele>
        <time>2025-08-10T08:33:23.696Z</time>
      </trkpt>
      <trkpt lat="44.1285" lon="0.6129">
        <ele>141</ele>
        <time>2025-08-10T08:33:24.696Z</time>
      </trkpt>
      <trkpt lat="44.12849" lon="0.61288">
        <ele>141</ele>
        <time>2025-08-10T08:33:25.696Z</time>
      </trkpt>
      <trkpt lat="44.12849" lon="0.61286">
        <ele>142</ele>
        <time>2025-08-10T08:33:26.696Z</time>
      </trkpt>
      <trkpt lat="44.12849" lon="0.61285">
        <ele>142</ele>
        <time>2025-08-10T08:33:27.696Z</time>
      </trkpt>
      <trkpt lat="44.12849" lon="0.61283">
        <ele>142</ele>
        <time>2025-08-10T08:33:28.696Z</time>
      </trkpt>
      <trkpt lat="44.12849" lon="0.61281">
        <ele>143</ele>
        <time>2025-08-10T08:33:29.696Z</time>
      </trkpt>
      <trkpt lat="44.12849" lon="0.6128">
        <ele>143</ele>
        <time>2025-08-10T08:33:30.696Z</time>
      </trkpt>
      <trkpt lat="44.12849" lon="0.61278">
        <ele>143</ele>
        <time>2025-08-10T08:33:31.696Z</time>
      </trkpt>
      <trkpt lat="44.12849" lon="0.61277">
        <ele>143</ele>
        <time>2025-08-10T08:33:32.696Z</time>
      </trkpt>
      <trkpt lat="44.12849" lon="0.61276">
        <ele>142</ele>
        <time>2025-08-10T08:33:33.696Z</time>
      </trkpt>
      <trkpt lat="44.12849" lon="0.61274">
        <ele>143</ele>
        <time>2025-08-10T08:33:34.696Z</time>
      </trkpt>
      <trkpt lat="44.12849" lon="0.61272">
        <ele>143</ele>
        <time>2025-08-10T08:33:35.696Z</time>
      </trkpt>
      <trkpt lat="44.12848" lon="0.61271">
        <ele>143</ele>
        <time>2025-08-10T08:33:36.696Z</time>
      </trkpt>
      <trkpt lat="44.12848" lon="0.61269">
        <ele>143</ele>
        <time>2025-08-10T08:33:37.696Z</time>
      </trkpt>
      <trkpt lat="44.12848" lon="0.61268">
        <ele>143</ele>
        <time>2025-08-10T08:33:38.696Z</time>
      </trkpt>
      <trkpt lat="44.12848" lon="0.61266">
        <ele>142</ele>
        <time>2025-08-10T08:33:39.696Z</time>
      </trkpt>
      <trkpt lat="44.12848" lon="0.61264">
        <ele>142</ele>
        <time>2025-08-10T08:33:40.696Z</time>
      </trkpt>
      <trkpt lat="44.12848" lon="0.61263">
        <ele>141</ele>
        <time>2025-08-10T08:33:41.696Z</time>
      </trkpt>
      <trkpt lat="44.12848" lon="0.61261">
        <ele>141</ele>
        <time>2025-08-10T08:33:42.696Z</time>
      </trkpt>
      <trkpt lat="44.12848" lon="0.61259">
        <ele>141</ele>
        <time>2025-08-10T08:33:43.696Z</time>
      </trkpt>
      <trkpt lat="44.12848" lon="0.61258">
        <ele>141</ele>
        <time>2025-08-10T08:33:44.696Z</time>
      </trkpt>
      <trkpt lat="44.12847" lon="0.61256">
        <ele>141</ele>
        <time>2025-08-10T08:33:45.696Z</time>
      </trkpt>
      <trkpt lat="44.12847" lon="0.61255">
        <ele>141</ele>
        <time>2025-08-10T08:33:46.696Z</time>
      </trkpt>
      <trkpt lat="44.12847" lon="0.61253">
        <ele>141</ele>
        <time>2025-08-10T08:33:47.696Z</time>
      </trkpt>
      <trkpt lat="44.12847" lon="0.61252">
        <ele>141</ele>
        <time>2025-08-10T08:33:48.696Z</time>
      </trkpt>
      <trkpt lat="44.12847" lon="0.6125">
        <ele>141</ele>
        <time>2025-08-10T08:33:49.696Z</time>
      </trkpt>
      <trkpt lat="44.12847" lon="0.61249">
        <ele>141</ele>
        <time>2025-08-10T08:33:50.696Z</time>
      </trkpt>
      <trkpt lat="44.12847" lon="0.61247">
        <ele>141</ele>
        <time>2025-08-10T08:33:51.696Z</time>
      </trkpt>
      <trkpt lat="44.12847" lon="0.61246">
        <ele>141</ele>
        <time>2025-08-10T08:33:52.696Z</time>
      </trkpt>
      <trkpt lat="44.12847" lon="0.61245">
        <ele>141</ele>
        <time>2025-08-10T08:33:53.696Z</time>
      </trkpt>
      <trkpt lat="44.12847" lon="0.61243">
        <ele>141</ele>
        <time>2025-08-10T08:33:54.696Z</time>
      </trkpt>
      <trkpt lat="44.12847" lon="0.61242">
        <ele>141</ele>
        <time>2025-08-10T08:33:55.697Z</time>
      </trkpt>
      <trkpt lat="44.12847" lon="0.61241">
        <ele>141</ele>
        <time>2025-08-10T08:33:56.696Z</time>
      </trkpt>
      <trkpt lat="44.12847" lon="0.61239">
        <ele>141</ele>
        <time>2025-08-10T08:33:57.696Z</time>
      </trkpt>
      <trkpt lat="44.12847" lon="0.61237">
        <ele>141</ele>
        <time>2025-08-10T08:33:58.696Z</time>
      </trkpt>
      <trkpt lat="44.12846" lon="0.61236">
        <ele>141</ele>
        <time>2025-08-10T08:33:59.696Z</time>
      </trkpt>
      <trkpt lat="44.12846" lon="0.61235">
        <ele>141</ele>
        <time>2025-08-10T08:34:00.696Z</time>
      </trkpt>
      <trkpt lat="44.12846" lon="0.61233">
        <ele>141</ele>
        <time>2025-08-10T08:34:01.696Z</time>
      </trkpt>
      <trkpt lat="44.12846" lon="0.61232">
        <ele>141</ele>
        <time>2025-08-10T08:34:02.696Z</time>
      </trkpt>
      <trkpt lat="44.12846" lon="0.61231">
        <ele>141</ele>
        <time>2025-08-10T08:34:03.696Z</time>
      </trkpt>
      <trkpt lat="44.12846" lon="0.6123">
        <ele>142</ele>
        <time>2025-08-10T08:34:04.696Z</time>
      </trkpt>
      <trkpt lat="44.12847" lon="0.61229">
        <ele>142</ele>
        <time>2025-08-10T08:34:05.696Z</time>
      </trkpt>
      <trkpt lat="44.12847" lon="0.61229">
        <ele>142</ele>
        <time>2025-08-10T08:34:06.696Z</time>
      </trkpt>
      <trkpt lat="44.12847" lon="0.61228">
        <ele>142</ele>
        <time>2025-08-10T08:34:07.696Z</time>
      </trkpt>
      <trkpt lat="44.12846" lon="0.61228">
        <ele>142</ele>
        <time>2025-08-10T08:34:08.696Z</time>
      </trkpt>
      <trkpt lat="44.12846" lon="0.61227">
        <ele>142</ele>
        <time>2025-08-10T08:34:09.696Z</time>
      </trkpt>
      <trkpt lat="44.12845" lon="0.61226">
        <ele>142</ele>
        <time>2025-08-10T08:34:10.696Z</time>
      </trkpt>
      <trkpt lat="44.12845" lon="0.61225">
        <ele>143</ele>
        <time>2025-08-10T08:34:11.696Z</time>
      </trkpt>
      <trkpt lat="44.12845" lon="0.61225">
        <ele>143</ele>
        <time>2025-08-10T08:34:12.696Z</time>
      </trkpt>
      <trkpt lat="44.12844" lon="0.61224">
        <ele>143</ele>
        <time>2025-08-10T08:34:13.696Z</time>
      </trkpt>
      <trkpt lat="44.12844" lon="0.61223">
        <ele>143</ele>
        <time>2025-08-10T08:34:14.696Z</time>
      </trkpt>
      <trkpt lat="44.12844" lon="0.61222">
        <ele>143</ele>
        <time>2025-08-10T08:34:15.696Z</time>
      </trkpt>
      <trkpt lat="44.12844" lon="0.61221">
        <ele>143</ele>
        <time>2025-08-10T08:34:16.696Z</time>
      </trkpt>
      <trkpt lat="44.12843" lon="0.6122">
        <ele>142</ele>
        <time>2025-08-10T08:34:17.696Z</time>
      </trkpt>
      <trkpt lat="44.12843" lon="0.61219">
        <ele>142</ele>
        <time>2025-08-10T08:34:18.696Z</time>
      </trkpt>
      <trkpt lat="44.12843" lon="0.61218">
        <ele>142</ele>
        <time>2025-08-10T08:34:19.696Z</time>
      </trkpt>
      <trkpt lat="44.12842" lon="0.61218">
        <ele>141</ele>
        <time>2025-08-10T08:34:20.696Z</time>
      </trkpt>
      <trkpt lat="44.12842" lon="0.61217">
        <ele>141</ele>
        <time>2025-08-10T08:34:21.696Z</time>
      </trkpt>
      <trkpt lat="44.12842" lon="0.61217">
        <ele>141</ele>
        <time>2025-08-10T08:34:22.696Z</time>
      </trkpt>
      <trkpt lat="44.12842" lon="0.61217">
        <ele>141</ele>
        <time>2025-08-10T08:34:23.696Z</time>
      </trkpt>
      <trkpt lat="44.12841" lon="0.61216">
        <ele>140</ele>
        <time>2025-08-10T08:34:24.696Z</time>
      </trkpt>
      <trkpt lat="44.12841" lon="0.61216">
        <ele>140</ele>
        <time>2025-08-10T08:34:25.696Z</time>
      </trkpt>
      <trkpt lat="44.12841" lon="0.61215">
        <ele>140</ele>
        <time>2025-08-10T08:34:26.696Z</time>
      </trkpt>
      <trkpt lat="44.12842" lon="0.61214">
        <ele>140</ele>
        <time>2025-08-10T08:34:27.696Z</time>
      </trkpt>
      <trkpt lat="44.12842" lon="0.61213">
        <ele>141</ele>
        <time>2025-08-10T08:34:28.696Z</time>
      </trkpt>
      <trkpt lat="44.12842" lon="0.61213">
        <ele>141</ele>
        <time>2025-08-10T08:34:29.696Z</time>
      </trkpt>
      <trkpt lat="44.12841" lon="0.61212">
        <ele>142</ele>
        <time>2025-08-10T08:34:30.696Z</time>
      </trkpt>
      <trkpt lat="44.12841" lon="0.6121">
        <ele>142</ele>
        <time>2025-08-10T08:34:31.696Z</time>
      </trkpt>
      <trkpt lat="44.1284" lon="0.61209">
        <ele>142</ele>
        <time>2025-08-10T08:34:32.696Z</time>
      </trkpt>
      <trkpt lat="44.1284" lon="0.61208">
        <ele>142</ele>
        <time>2025-08-10T08:34:33.696Z</time>
      </trkpt>
      <trkpt lat="44.1284" lon="0.61208">
        <ele>142</ele>
        <time>2025-08-10T08:34:34.696Z</time>
      </trkpt>
      <trkpt lat="44.12839" lon="0.61206">
        <ele>142</ele>
        <time>2025-08-10T08:34:35.696Z</time>
      </trkpt>
      <trkpt lat="44.12839" lon="0.61206">
        <ele>142</ele>
        <time>2025-08-10T08:34:36.696Z</time>
      </trkpt>
      <trkpt lat="44.12838" lon="0.61204">
        <ele>142</ele>
        <time>2025-08-10T08:34:37.696Z</time>
      </trkpt>
      <trkpt lat="44.12838" lon="0.61204">
        <ele>142</ele>
        <time>2025-08-10T08:34:38.696Z</time>
      </trkpt>
      <trkpt lat="44.12838" lon="0.61203">
        <ele>141</ele>
        <time>2025-08-10T08:34:39.696Z</time>
      </trkpt>
      <trkpt lat="44.12837" lon="0.61202">
        <ele>141</ele>
        <time>2025-08-10T08:34:40.696Z</time>
      </trkpt>
      <trkpt lat="44.12837" lon="0.61201">
        <ele>141</ele>
        <time>2025-08-10T08:34:41.696Z</time>
      </trkpt>
      <trkpt lat="44.12837" lon="0.612">
        <ele>142</ele>
        <time>2025-08-10T08:34:42.696Z</time>
      </trkpt>
      <trkpt lat="44.12837" lon="0.612">
        <ele>142</ele>
        <time>2025-08-10T08:34:43.696Z</time>
      </trkpt>
      <trkpt lat="44.12837" lon="0.61199">
        <ele>142</ele>
        <time>2025-08-10T08:34:44.696Z</time>
      </trkpt>
      <trkpt lat="44.12837" lon="0.61199">
        <ele>142</ele>
        <time>2025-08-10T08:34:45.696Z</time>
      </trkpt>
      <trkpt lat="44.12837" lon="0.61198">
        <ele>142</ele>
        <time>2025-08-10T08:34:46.696Z</time>
      </trkpt>
      <trkpt lat="44.12837" lon="0.61198">
        <ele>141</ele>
        <time>2025-08-10T08:34:47.696Z</time>
      </trkpt>
      <trkpt lat="44.12837" lon="0.61198">
        <ele>141</ele>
        <time>2025-08-10T08:34:48.696Z</time>
      </trkpt>
      <trkpt lat="44.12837" lon="0.61197">
        <ele>141</ele>
        <time>2025-08-10T08:34:49.696Z</time>
      </trkpt>
      <trkpt lat="44.12837" lon="0.61197">
        <ele>140</ele>
        <time>2025-08-10T08:34:50.696Z</time>
      </trkpt>
      <trkpt lat="44.12836" lon="0.61197">
        <ele>140</ele>
        <time>2025-08-10T08:34:51.696Z</time>
      </trkpt>
      <trkpt lat="44.12836" lon="0.61197">
        <ele>139</ele>
        <time>2025-08-10T08:34:52.696Z</time>
      </trkpt>
      <trkpt lat="44.12836" lon="0.61197">
        <ele>139</ele>
        <time>2025-08-10T08:34:53.696Z</time>
      </trkpt>
      <trkpt lat="44.12836" lon="0.61197">
        <ele>139</ele>
        <time>2025-08-10T08:34:54.696Z</time>
      </trkpt>
      <trkpt lat="44.12837" lon="0.61198">
        <ele>139</ele>
        <time>2025-08-10T08:34:55.696Z</time>
      </trkpt>
      <trkpt lat="44.12837" lon="0.61198">
        <ele>139</ele>
        <time>2025-08-10T08:34:56.696Z</time>
      </trkpt>
      <trkpt lat="44.12837" lon="0.61198">
        <ele>139</ele>
        <time>2025-08-10T08:34:57.696Z</time>
      </trkpt>
      <trkpt lat="44.12837" lon="0.61198">
        <ele>139</ele>
        <time>2025-08-10T08:34:58.696Z</time>
      </trkpt>
      <trkpt lat="44.12837" lon="0.61198">
        <ele>139</ele>
        <time>2025-08-10T08:34:59.696Z</time>
      </trkpt>
      <trkpt lat="44.12837" lon="0.61198">
        <ele>139</ele>
        <time>2025-08-10T08:35:00.696Z</time>
      </trkpt>
      <trkpt lat="44.12837" lon="0.61198">
        <ele>139</ele>
        <time>2025-08-10T08:35:01.696Z</time>
      </trkpt>
      <trkpt lat="44.12837" lon="0.61198">
        <ele>139</ele>
        <time>2025-08-10T08:35:02.696Z</time>
      </trkpt>
      <trkpt lat="44.12837" lon="0.61197">
        <ele>139</ele>
        <time>2025-08-10T08:35:03.696Z</time>
      </trkpt>
      <trkpt lat="44.12837" lon="0.61197">
        <ele>139</ele>
        <time>2025-08-10T08:35:04.696Z</time>
      </trkpt>
      <trkpt lat="44.12837" lon="0.61196">
        <ele>139</ele>
        <time>2025-08-10T08:35:05.696Z</time>
      </trkpt>
      <trkpt lat="44.12837" lon="0.61196">
        <ele>139</ele>
        <time>2025-08-10T08:35:06.696Z</time>
      </trkpt>
      <trkpt lat="44.12837" lon="0.61196">
        <ele>139</ele>
        <time>2025-08-10T08:35:07.696Z</time>
      </trkpt>
      <trkpt lat="44.12837" lon="0.61196">
        <ele>139</ele>
        <time>2025-08-10T08:35:08.696Z</time>
      </trkpt>
      <trkpt lat="44.12837" lon="0.61196">
        <ele>139</ele>
        <time>2025-08-10T08:35:09.696Z</time>
      </trkpt>
      <trkpt lat="44.12837" lon="0.61197">
        <ele>139</ele>
        <time>2025-08-10T08:35:10.696Z</time>
      </trkpt>
      <trkpt lat="44.12837" lon="0.61197">
        <ele>140</ele>
        <time>2025-08-10T08:35:11.696Z</time>
      </trkpt>
      <trkpt lat="44.12837" lon="0.61197">
        <ele>140</ele>
        <time>2025-08-10T08:35:12.696Z</time>
      </trkpt>
      <trkpt lat="44.12837" lon="0.61196">
        <ele>140</ele>
        <time>2025-08-10T08:35:13.696Z</time>
      </trkpt>
      <trkpt lat="44.12837" lon="0.61196">
        <ele>141</ele>
        <time>2025-08-10T08:35:14.696Z</time>
      </trkpt>
      <trkpt lat="44.12837" lon="0.61197">
        <ele>141</ele>
        <time>2025-08-10T08:35:15.696Z</time>
      </trkpt>
      <trkpt lat="44.12837" lon="0.61197">
        <ele>141</ele>
        <time>2025-08-10T08:35:16.696Z</time>
      </trkpt>
      <trkpt lat="44.12837" lon="0.61196">
        <ele>141</ele>
        <time>2025-08-10T08:35:17.696Z</time>
      </trkpt>
      <trkpt lat="44.12837" lon="0.61197">
        <ele>142</ele>
        <time>2025-08-10T08:35:18.696Z</time>
      </trkpt>
      <trkpt lat="44.12837" lon="0.61197">
        <ele>141</ele>
        <time>2025-08-10T08:35:19.696Z</time>
      </trkpt>
      <trkpt lat="44.12837" lon="0.61197">
        <ele>141</ele>
        <time>2025-08-10T08:35:20.696Z</time>
      </trkpt>
      <trkpt lat="44.12837" lon="0.61196">
        <ele>141</ele>
        <time>2025-08-10T08:35:21.696Z</time>
      </trkpt>
      <trkpt lat="44.12836" lon="0.61196">
        <ele>141</ele>
        <time>2025-08-10T08:35:22.696Z</time>
      </trkpt>
      <trkpt lat="44.12836" lon="0.61196">
        <ele>141</ele>
        <time>2025-08-10T08:35:23.696Z</time>
      </trkpt>
      <trkpt lat="44.12836" lon="0.61195">
        <ele>141</ele>
        <time>2025-08-10T08:35:24.696Z</time>
      </trkpt>
      <trkpt lat="44.12836" lon="0.61195">
        <ele>141</ele>
        <time>2025-08-10T08:35:25.696Z</time>
      </trkpt>
      <trkpt lat="44.12836" lon="0.61195">
        <ele>141</ele>
        <time>2025-08-10T08:35:26.696Z</time>
      </trkpt>
      <trkpt lat="44.12836" lon="0.61195">
        <ele>142</ele>
        <time>2025-08-10T08:35:27.696Z</time>
      </trkpt>
      <trkpt lat="44.12836" lon="0.61195">
        <ele>142</ele>
        <time>2025-08-10T08:35:28.696Z</time>
      </trkpt>
      <trkpt lat="44.12837" lon="0.61195">
        <ele>141</ele>
        <time>2025-08-10T08:35:29.696Z</time>
      </trkpt>
      <trkpt lat="44.12836" lon="0.61195">
        <ele>141</ele>
        <time>2025-08-10T08:35:30.696Z</time>
      </trkpt>
      <trkpt lat="44.12837" lon="0.61195">
        <ele>141</ele>
        <time>2025-08-10T08:35:31.696Z</time>
      </trkpt>
      <trkpt lat="44.12837" lon="0.61195">
        <ele>141</ele>
        <time>2025-08-10T08:35:32.696Z</time>
      </trkpt>
      <trkpt lat="44.12837" lon="0.61195">
        <ele>140</ele>
        <time>2025-08-10T08:35:33.696Z</time>
      </trkpt>
      <trkpt lat="44.12836" lon="0.61194">
        <ele>140</ele>
        <time>2025-08-10T08:35:34.696Z</time>
      </trkpt>
      <trkpt lat="44.12836" lon="0.61194">
        <ele>140</ele>
        <time>2025-08-10T08:35:35.696Z</time>
      </trkpt>
      <trkpt lat="44.12836" lon="0.61194">
        <ele>140</ele>
        <time>2025-08-10T08:35:36.696Z</time>
      </trkpt>
      <trkpt lat="44.12836" lon="0.61194">
        <ele>140</ele>
        <time>2025-08-10T08:35:37.696Z</time>
      </trkpt>
      <trkpt lat="44.12836" lon="0.61194">
        <ele>140</ele>
        <time>2025-08-10T08:35:38.696Z</time>
      </trkpt>
      <trkpt lat="44.12836" lon="0.61194">
        <ele>140</ele>
        <time>2025-08-10T08:35:39.696Z</time>
      </trkpt>
      <trkpt lat="44.12836" lon="0.61194">
        <ele>141</ele>
        <time>2025-08-10T08:35:40.696Z</time>
      </trkpt>
      <trkpt lat="44.12836" lon="0.61195">
        <ele>141</ele>
        <time>2025-08-10T08:35:41.696Z</time>
      </trkpt>
      <trkpt lat="44.12836" lon="0.61195">
        <ele>141</ele>
        <time>2025-08-10T08:35:42.696Z</time>
      </trkpt>
      <trkpt lat="44.12836" lon="0.61195">
        <ele>141</ele>
        <time>2025-08-10T08:35:43.696Z</time>
      </trkpt>
      <trkpt lat="44.12836" lon="0.61195">
        <ele>142</ele>
        <time>2025-08-10T08:35:44.696Z</time>
      </trkpt>
      <trkpt lat="44.12836" lon="0.61195">
        <ele>142</ele>
        <time>2025-08-10T08:35:45.696Z</time>
      </trkpt>
      <trkpt lat="44.12835" lon="0.61195">
        <ele>142</ele>
        <time>2025-08-10T08:35:46.696Z</time>
      </trkpt>
      <trkpt lat="44.12835" lon="0.61195">
        <ele>143</ele>
        <time>2025-08-10T08:35:47.696Z</time>
      </trkpt>
      <trkpt lat="44.12835" lon="0.61195">
        <ele>144</ele>
        <time>2025-08-10T08:35:48.696Z</time>
      </trkpt>
      <trkpt lat="44.12835" lon="0.61195">
        <ele>145</ele>
        <time>2025-08-10T08:35:49.696Z</time>
      </trkpt>
      <trkpt lat="44.12835" lon="0.61195">
        <ele>146</ele>
        <time>2025-08-10T08:35:50.696Z</time>
      </trkpt>
      <trkpt lat="44.12835" lon="0.61195">
        <ele>147</ele>
        <time>2025-08-10T08:35:51.696Z</time>
      </trkpt>
      <trkpt lat="44.12835" lon="0.61195">
        <ele>147</ele>
        <time>2025-08-10T08:35:52.696Z</time>
      </trkpt>
      <trkpt lat="44.12835" lon="0.61195">
        <ele>148</ele>
        <time>2025-08-10T08:35:53.696Z</time>
      </trkpt>
      <trkpt lat="44.12835" lon="0.61195">
        <ele>148</ele>
        <time>2025-08-10T08:35:54.696Z</time>
      </trkpt>
      <trkpt lat="44.12835" lon="0.61195">
        <ele>148</ele>
        <time>2025-08-10T08:35:55.696Z</time>
      </trkpt>
      <trkpt lat="44.12835" lon="0.61195">
        <ele>148</ele>
        <time>2025-08-10T08:35:56.696Z</time>
      </trkpt>
      <trkpt lat="44.12835" lon="0.61195">
        <ele>148</ele>
        <time>2025-08-10T08:35:57.696Z</time>
      </trkpt>
      <trkpt lat="44.12835" lon="0.61195">
        <ele>147</ele>
        <time>2025-08-10T08:35:58.696Z</time>
      </trkpt>
      <trkpt lat="44.12835" lon="0.61195">
        <ele>147</ele>
        <time>2025-08-10T08:35:59.696Z</time>
      </trkpt>
      <trkpt lat="44.12835" lon="0.61195">
        <ele>146</ele>
        <time>2025-08-10T08:36:00.696Z</time>
      </trkpt>
      <trkpt lat="44.12835" lon="0.61195">
        <ele>146</ele>
        <time>2025-08-10T08:36:01.696Z</time>
      </trkpt>
      <trkpt lat="44.12834" lon="0.61195">
        <ele>146</ele>
        <time>2025-08-10T08:36:02.696Z</time>
      </trkpt>
      <trkpt lat="44.12834" lon="0.61195">
        <ele>145</ele>
        <time>2025-08-10T08:36:03.696Z</time>
      </trkpt>
      <trkpt lat="44.12834" lon="0.61195">
        <ele>145</ele>
        <time>2025-08-10T08:36:04.696Z</time>
      </trkpt>
      <trkpt lat="44.12834" lon="0.61196">
        <ele>145</ele>
        <time>2025-08-10T08:36:05.696Z</time>
      </trkpt>
      <trkpt lat="44.12834" lon="0.61196">
        <ele>145</ele>
        <time>2025-08-10T08:36:06.696Z</time>
      </trkpt>
      <trkpt lat="44.12834" lon="0.61196">
        <ele>146</ele>
        <time>2025-08-10T08:36:07.696Z</time>
      </trkpt>
      <trkpt lat="44.12834" lon="0.61195">
        <ele>146</ele>
        <time>2025-08-10T08:36:08.696Z</time>
      </trkpt>
      <trkpt lat="44.12834" lon="0.61195">
        <ele>146</ele>
        <time>2025-08-10T08:36:09.696Z</time>
      </trkpt>
      <trkpt lat="44.12833" lon="0.61195">
        <ele>146</ele>
        <time>2025-08-10T08:36:10.696Z</time>
      </trkpt>
      <trkpt lat="44.12833" lon="0.61195">
        <ele>146</ele>
        <time>2025-08-10T08:36:11.697Z</time>
      </trkpt>
      <trkpt lat="44.12833" lon="0.61195">
        <ele>146</ele>
        <time>2025-08-10T08:36:12.696Z</time>
      </trkpt>
      <trkpt lat="44.12833" lon="0.61195">
        <ele>145</ele>
        <time>2025-08-10T08:36:13.696Z</time>
      </trkpt>
      <trkpt lat="44.12833" lon="0.61195">
        <ele>145</ele>
        <time>2025-08-10T08:36:14.696Z</time>
      </trkpt>
      <trkpt lat="44.12833" lon="0.61195">
        <ele>145</ele>
        <time>2025-08-10T08:36:15.696Z</time>
      </trkpt>
      <trkpt lat="44.12833" lon="0.61195">
        <ele>145</ele>
        <time>2025-08-10T08:36:16.696Z</time>
      </trkpt>
      <trkpt lat="44.12833" lon="0.61195">
        <ele>145</ele>
        <time>2025-08-10T08:36:17.696Z</time>
      </trkpt>
      <trkpt lat="44.12833" lon="0.61195">
        <ele>145</ele>
        <time>2025-08-10T08:36:18.696Z</time>
      </trkpt>
      <trkpt lat="44.12833" lon="0.61195">
        <ele>144</ele>
        <time>2025-08-10T08:36:19.696Z</time>
      </trkpt>
      <trkpt lat="44.12833" lon="0.61195">
        <ele>144</ele>
        <time>2025-08-10T08:36:20.696Z</time>
      </trkpt>
      <trkpt lat="44.12833" lon="0.61195">
        <ele>144</ele>
        <time>2025-08-10T08:36:21.696Z</time>
      </trkpt>
      <trkpt lat="44.12833" lon="0.61195">
        <ele>144</ele>
        <time>2025-08-10T08:36:22.696Z</time>
      </trkpt>
      <trkpt lat="44.12833" lon="0.61196">
        <ele>144</ele>
        <time>2025-08-10T08:36:23.696Z</time>
      </trkpt>
      <trkpt lat="44.12833" lon="0.61196">
        <ele>143</ele>
        <time>2025-08-10T08:36:24.696Z</time>
      </trkpt>
      <trkpt lat="44.12833" lon="0.61196">
        <ele>143</ele>
        <time>2025-08-10T08:36:25.696Z</time>
      </trkpt>
      <trkpt lat="44.12833" lon="0.61196">
        <ele>143</ele>
        <time>2025-08-10T08:36:26.696Z</time>
      </trkpt>
      <trkpt lat="44.12833" lon="0.61196">
        <ele>144</ele>
        <time>2025-08-10T08:36:27.696Z</time>
      </trkpt>
      <trkpt lat="44.12833" lon="0.61196">
        <ele>144</ele>
        <time>2025-08-10T08:36:28.696Z</time>
      </trkpt>
      <trkpt lat="44.12833" lon="0.61196">
        <ele>144</ele>
        <time>2025-08-10T08:36:29.696Z</time>
      </trkpt>
      <trkpt lat="44.12833" lon="0.61196">
        <ele>144</ele>
        <time>2025-08-10T08:36:30.696Z</time>
      </trkpt>
      <trkpt lat="44.12833" lon="0.61196">
        <ele>144</ele>
        <time>2025-08-10T08:36:31.696Z</time>
      </trkpt>
      <trkpt lat="44.12833" lon="0.61196">
        <ele>144</ele>
        <time>2025-08-10T08:36:32.696Z</time>
      </trkpt>
      <trkpt lat="44.12833" lon="0.61196">
        <ele>144</ele>
        <time>2025-08-10T08:36:33.696Z</time>
      </trkpt>
      <trkpt lat="44.12833" lon="0.61196">
        <ele>144</ele>
        <time>2025-08-10T08:36:34.696Z</time>
      </trkpt>
      <trkpt lat="44.12833" lon="0.61196">
        <ele>143</ele>
        <time>2025-08-10T08:36:35.696Z</time>
      </trkpt>
      <trkpt lat="44.12833" lon="0.61196">
        <ele>143</ele>
        <time>2025-08-10T08:36:36.696Z</time>
      </trkpt>
      <trkpt lat="44.12833" lon="0.61196">
        <ele>143</ele>
        <time>2025-08-10T08:36:37.696Z</time>
      </trkpt>
      <trkpt lat="44.12833" lon="0.61196">
        <ele>142</ele>
        <time>2025-08-10T08:36:38.696Z</time>
      </trkpt>
      <trkpt lat="44.12833" lon="0.61196">
        <ele>142</ele>
        <time>2025-08-10T08:36:39.696Z</time>
      </trkpt>
      <trkpt lat="44.12833" lon="0.61196">
        <ele>142</ele>
        <time>2025-08-10T08:36:40.696Z</time>
      </trkpt>
      <trkpt lat="44.12833" lon="0.61197">
        <ele>142</ele>
        <time>2025-08-10T08:36:41.696Z</time>
      </trkpt>
      <trkpt lat="44.12833" lon="0.61197">
        <ele>142</ele>
        <time>2025-08-10T08:36:42.696Z</time>
      </trkpt>
      <trkpt lat="44.12833" lon="0.61197">
        <ele>142</ele>
        <time>2025-08-10T08:36:43.696Z</time>
      </trkpt>
      <trkpt lat="44.12833" lon="0.61197">
        <ele>142</ele>
        <time>2025-08-10T08:36:44.696Z</time>
      </trkpt>
      <trkpt lat="44.12833" lon="0.61197">
        <ele>142</ele>
        <time>2025-08-10T08:36:45.696Z</time>
      </trkpt>
      <trkpt lat="44.12833" lon="0.61197">
        <ele>142</ele>
        <time>2025-08-10T08:36:46.696Z</time>
      </trkpt>
      <trkpt lat="44.12833" lon="0.61197">
        <ele>142</ele>
        <time>2025-08-10T08:36:47.696Z</time>
      </trkpt>
      <trkpt lat="44.12833" lon="0.61197">
        <ele>142</ele>
        <time>2025-08-10T08:36:48.696Z</time>
      </trkpt>
      <trkpt lat="44.12833" lon="0.61197">
        <ele>142</ele>
        <time>2025-08-10T08:36:49.696Z</time>
      </trkpt>
      <trkpt lat="44.12833" lon="0.61197">
        <ele>142</ele>
        <time>2025-08-10T08:36:50.696Z</time>
      </trkpt>
      <trkpt lat="44.12833" lon="0.61197">
        <ele>142</ele>
        <time>2025-08-10T08:36:51.696Z</time>
      </trkpt>
      <trkpt lat="44.12833" lon="0.61197">
        <ele>142</ele>
        <time>2025-08-10T08:36:52.696Z</time>
      </trkpt>
      <trkpt lat="44.12833" lon="0.61197">
        <ele>143</ele>
        <time>2025-08-10T08:36:53.696Z</time>
      </trkpt>
      <trkpt lat="44.12833" lon="0.61197">
        <ele>143</ele>
        <time>2025-08-10T08:36:54.696Z</time>
      </trkpt>
      <trkpt lat="44.12833" lon="0.61197">
        <ele>144</ele>
        <time>2025-08-10T08:36:55.696Z</time>
      </trkpt>
      <trkpt lat="44.12833" lon="0.61197">
        <ele>144</ele>
        <time>2025-08-10T08:36:56.696Z</time>
      </trkpt>
      <trkpt lat="44.12833" lon="0.61197">
        <ele>144</ele>
        <time>2025-08-10T08:36:57.696Z</time>
      </trkpt>
      <trkpt lat="44.12833" lon="0.61197">
        <ele>144</ele>
        <time>2025-08-10T08:36:58.696Z</time>
      </trkpt>
      <trkpt lat="44.12833" lon="0.61197">
        <ele>144</ele>
        <time>2025-08-10T08:36:59.696Z</time>
      </trkpt>
      <trkpt lat="44.12833" lon="0.61197">
        <ele>145</ele>
        <time>2025-08-10T08:37:00.696Z</time>
      </trkpt>
      <trkpt lat="44.12832" lon="0.61197">
        <ele>145</ele>
        <time>2025-08-10T08:37:01.696Z</time>
      </trkpt>
      <trkpt lat="44.12832" lon="0.61197">
        <ele>145</ele>
        <time>2025-08-10T08:37:02.696Z</time>
      </trkpt>
      <trkpt lat="44.12832" lon="0.61198">
        <ele>146</ele>
        <time>2025-08-10T08:37:03.696Z</time>
      </trkpt>
      <trkpt lat="44.12832" lon="0.61198">
        <ele>146</ele>
        <time>2025-08-10T08:37:04.696Z</time>
      </trkpt>
      <trkpt lat="44.12832" lon="0.61198">
        <ele>146</ele>
        <time>2025-08-10T08:37:05.696Z</time>
      </trkpt>
      <trkpt lat="44.12832" lon="0.61198">
        <ele>146</ele>
        <time>2025-08-10T08:37:06.696Z</time>
      </trkpt>
      <trkpt lat="44.12832" lon="0.61198">
        <ele>146</ele>
        <time>2025-08-10T08:37:07.696Z</time>
      </trkpt>
      <trkpt lat="44.12832" lon="0.61198">
        <ele>145</ele>
        <time>2025-08-10T08:37:08.696Z</time>
      </trkpt>
      <trkpt lat="44.12832" lon="0.61198">
        <ele>145</ele>
        <time>2025-08-10T08:37:09.696Z</time>
      </trkpt>
      <trkpt lat="44.12832" lon="0.61198">
        <ele>145</ele>
        <time>2025-08-10T08:37:10.696Z</time>
      </trkpt>
      <trkpt lat="44.12832" lon="0.61198">
        <ele>144</ele>
        <time>2025-08-10T08:37:11.696Z</time>
      </trkpt>
      <trkpt lat="44.12832" lon="0.61198">
        <ele>144</ele>
        <time>2025-08-10T08:37:12.696Z</time>
      </trkpt>
      <trkpt lat="44.12832" lon="0.61198">
        <ele>144</ele>
        <time>2025-08-10T08:37:13.696Z</time>
      </trkpt>
      <trkpt lat="44.12832" lon="0.61198">
        <ele>144</ele>
        <time>2025-08-10T08:37:14.696Z</time>
      </trkpt>
      <trkpt lat="44.12832" lon="0.61198">
        <ele>144</ele>
        <time>2025-08-10T08:37:15.696Z</time>
      </trkpt>
      <trkpt lat="44.12832" lon="0.61198">
        <ele>144</ele>
        <time>2025-08-10T08:37:16.696Z</time>
      </trkpt>
      <trkpt lat="44.12832" lon="0.61198">
        <ele>144</ele>
        <time>2025-08-10T08:37:17.696Z</time>
      </trkpt>
      <trkpt lat="44.12832" lon="0.61198">
        <ele>144</ele>
        <time>2025-08-10T08:37:18.696Z</time>
      </trkpt>
      <trkpt lat="44.12831" lon="0.61198">
        <ele>143</ele>
        <time>2025-08-10T08:37:19.696Z</time>
      </trkpt>
      <trkpt lat="44.12831" lon="0.61198">
        <ele>143</ele>
        <time>2025-08-10T08:37:20.696Z</time>
      </trkpt>
      <trkpt lat="44.12831" lon="0.61198">
        <ele>143</ele>
        <time>2025-08-10T08:37:21.696Z</time>
      </trkpt>
      <trkpt lat="44.12831" lon="0.61198">
        <ele>143</ele>
        <time>2025-08-10T08:37:22.696Z</time>
      </trkpt>
      <trkpt lat="44.12831" lon="0.61198">
        <ele>143</ele>
        <time>2025-08-10T08:37:23.696Z</time>
      </trkpt>
      <trkpt lat="44.12831" lon="0.61198">
        <ele>143</ele>
        <time>2025-08-10T08:37:24.696Z</time>
      </trkpt>
      <trkpt lat="44.12831" lon="0.61198">
        <ele>143</ele>
        <time>2025-08-10T08:37:25.696Z</time>
      </trkpt>
      <trkpt lat="44.12831" lon="0.61198">
        <ele>144</ele>
        <time>2025-08-10T08:37:26.696Z</time>
      </trkpt>
      <trkpt lat="44.12832" lon="0.61198">
        <ele>144</ele>
        <time>2025-08-10T08:37:27.696Z</time>
      </trkpt>
      <trkpt lat="44.12832" lon="0.61198">
        <ele>144</ele>
        <time>2025-08-10T08:37:28.696Z</time>
      </trkpt>
      <trkpt lat="44.12832" lon="0.61198">
        <ele>144</ele>
        <time>2025-08-10T08:37:29.696Z</time>
      </trkpt>
      <trkpt lat="44.12832" lon="0.61198">
        <ele>144</ele>
        <time>2025-08-10T08:37:30.696Z</time>
      </trkpt>
      <trkpt lat="44.12832" lon="0.61198">
        <ele>144</ele>
        <time>2025-08-10T08:37:31.696Z</time>
      </trkpt>
      <trkpt lat="44.12832" lon="0.61198">
        <ele>144</ele>
        <time>2025-08-10T08:37:32.696Z</time>
      </trkpt>
      <trkpt lat="44.12832" lon="0.61198">
        <ele>144</ele>
        <time>2025-08-10T08:37:33.696Z</time>
      </trkpt>
      <trkpt lat="44.12833" lon="0.61198">
        <ele>144</ele>
        <time>2025-08-10T08:37:34.696Z</time>
      </trkpt>
      <trkpt lat="44.12833" lon="0.61198">
        <ele>144</ele>
        <time>2025-08-10T08:37:35.696Z</time>
      </trkpt>
      <trkpt lat="44.12833" lon="0.61198">
        <ele>144</ele>
        <time>2025-08-10T08:37:36.696Z</time>
      </trkpt>
      <trkpt lat="44.12833" lon="0.61198">
        <ele>143</ele>
        <time>2025-08-10T08:37:37.696Z</time>
      </trkpt>
      <trkpt lat="44.12833" lon="0.61198">
        <ele>143</ele>
        <time>2025-08-10T08:37:38.696Z</time>
      </trkpt>
      <trkpt lat="44.12833" lon="0.61198">
        <ele>143</ele>
        <time>2025-08-10T08:37:39.696Z</time>
      </trkpt>
      <trkpt lat="44.12833" lon="0.61198">
        <ele>142</ele>
        <time>2025-08-10T08:37:40.696Z</time>
      </trkpt>
      <trkpt lat="44.12833" lon="0.61198">
        <ele>142</ele>
        <time>2025-08-10T08:37:41.696Z</time>
      </trkpt>
      <trkpt lat="44.12833" lon="0.61198">
        <ele>142</ele>
        <time>2025-08-10T08:37:42.696Z</time>
      </trkpt>
      <trkpt lat="44.12833" lon="0.61198">
        <ele>142</ele>
        <time>2025-08-10T08:37:43.696Z</time>
      </trkpt>
      <trkpt lat="44.12833" lon="0.61198">
        <ele>141</ele>
        <time>2025-08-10T08:37:44.696Z</time>
      </trkpt>
      <trkpt lat="44.12833" lon="0.61198">
        <ele>141</ele>
        <time>2025-08-10T08:37:45.696Z</time>
      </trkpt>
      <trkpt lat="44.12833" lon="0.61198">
        <ele>141</ele>
        <time>2025-08-10T08:37:46.696Z</time>
      </trkpt>
      <trkpt lat="44.12833" lon="0.61198">
        <ele>142</ele>
        <time>2025-08-10T08:37:47.696Z</time>
      </trkpt>
      <trkpt lat="44.12832" lon="0.61198">
        <ele>142</ele>
        <time>2025-08-10T08:37:48.696Z</time>
      </trkpt>
      <trkpt lat="44.12832" lon="0.61198">
        <ele>143</ele>
        <time>2025-08-10T08:37:49.696Z</time>
      </trkpt>
      <trkpt lat="44.12832" lon="0.61198">
        <ele>143</ele>
        <time>2025-08-10T08:37:50.696Z</time>
      </trkpt>
      <trkpt lat="44.12832" lon="0.61198">
        <ele>143</ele>
        <time>2025-08-10T08:37:51.696Z</time>
      </trkpt>
      <trkpt lat="44.12832" lon="0.61198">
        <ele>143</ele>
        <time>2025-08-10T08:37:52.696Z</time>
      </trkpt>
      <trkpt lat="44.12832" lon="0.61198">
        <ele>142</ele>
        <time>2025-08-10T08:37:53.696Z</time>
      </trkpt>
      <trkpt lat="44.12832" lon="0.61198">
        <ele>142</ele>
        <time>2025-08-10T08:37:54.696Z</time>
      </trkpt>
      <trkpt lat="44.12832" lon="0.61198">
        <ele>142</ele>
        <time>2025-08-10T08:37:55.696Z</time>
      </trkpt>
      <trkpt lat="44.12832" lon="0.61198">
        <ele>142</ele>
        <time>2025-08-10T08:37:56.696Z</time>
      </trkpt>
      <trkpt lat="44.12832" lon="0.61198">
        <ele>142</ele>
        <time>2025-08-10T08:37:57.696Z</time>
      </trkpt>
      <trkpt lat="44.12832" lon="0.61198">
        <ele>142</ele>
        <time>2025-08-10T08:37:58.696Z</time>
      </trkpt>
      <trkpt lat="44.12832" lon="0.61198">
        <ele>142</ele>
        <time>2025-08-10T08:37:59.696Z</time>
      </trkpt>
      <trkpt lat="44.12832" lon="0.61198">
        <ele>143</ele>
        <time>2025-08-10T08:38:00.696Z</time>
      </trkpt>
      <trkpt lat="44.12832" lon="0.61198">
        <ele>143</ele>
        <time>2025-08-10T08:38:01.696Z</time>
      </trkpt>
      <trkpt lat="44.12832" lon="0.61198">
        <ele>143</ele>
        <time>2025-08-10T08:38:02.696Z</time>
      </trkpt>
      <trkpt lat="44.12833" lon="0.61198">
        <ele>143</ele>
        <time>2025-08-10T08:38:03.696Z</time>
      </trkpt>
      <trkpt lat="44.12833" lon="0.61198">
        <ele>143</ele>
        <time>2025-08-10T08:38:04.696Z</time>
      </trkpt>
      <trkpt lat="44.12833" lon="0.61198">
        <ele>143</ele>
        <time>2025-08-10T08:38:05.696Z</time>
      </trkpt>
      <trkpt lat="44.12833" lon="0.61198">
        <ele>142</ele>
        <time>2025-08-10T08:38:06.696Z</time>
      </trkpt>
      <trkpt lat="44.12833" lon="0.61198">
        <ele>142</ele>
        <time>2025-08-10T08:38:07.696Z</time>
      </trkpt>
      <trkpt lat="44.12833" lon="0.61198">
        <ele>141</ele>
        <time>2025-08-10T08:38:08.696Z</time>
      </trkpt>
      <trkpt lat="44.12833" lon="0.61198">
        <ele>141</ele>
        <time>2025-08-10T08:38:09.696Z</time>
      </trkpt>
      <trkpt lat="44.12834" lon="0.61199">
        <ele>141</ele>
        <time>2025-08-10T08:38:10.696Z</time>
      </trkpt>
      <trkpt lat="44.12834" lon="0.61199">
        <ele>141</ele>
        <time>2025-08-10T08:38:11.696Z</time>
      </trkpt>
      <trkpt lat="44.12834" lon="0.61199">
        <ele>141</ele>
        <time>2025-08-10T08:38:12.696Z</time>
      </trkpt>
      <trkpt lat="44.12834" lon="0.61199">
        <ele>142</ele>
        <time>2025-08-10T08:38:13.696Z</time>
      </trkpt>
      <trkpt lat="44.12834" lon="0.61199">
        <ele>142</ele>
        <time>2025-08-10T08:38:14.696Z</time>
      </trkpt>
      <trkpt lat="44.12834" lon="0.61199">
        <ele>142</ele>
        <time>2025-08-10T08:38:15.696Z</time>
      </trkpt>
      <trkpt lat="44.12834" lon="0.61199">
        <ele>142</ele>
        <time>2025-08-10T08:38:16.696Z</time>
      </trkpt>
      <trkpt lat="44.12834" lon="0.61199">
        <ele>142</ele>
        <time>2025-08-10T08:38:17.696Z</time>
      </trkpt>
      <trkpt lat="44.12834" lon="0.61199">
        <ele>143</ele>
        <time>2025-08-10T08:38:18.696Z</time>
      </trkpt>
      <trkpt lat="44.12834" lon="0.61199">
        <ele>143</ele>
        <time>2025-08-10T08:38:19.696Z</time>
      </trkpt>
      <trkpt lat="44.12834" lon="0.61199">
        <ele>143</ele>
        <time>2025-08-10T08:38:20.697Z</time>
      </trkpt>
      <trkpt lat="44.12834" lon="0.61199">
        <ele>144</ele>
        <time>2025-08-10T08:38:21.696Z</time>
      </trkpt>
      <trkpt lat="44.12834" lon="0.61199">
        <ele>144</ele>
        <time>2025-08-10T08:38:22.696Z</time>
      </trkpt>
      <trkpt lat="44.12834" lon="0.61199">
        <ele>144</ele>
        <time>2025-08-10T08:38:23.696Z</time>
      </trkpt>
      <trkpt lat="44.12834" lon="0.61199">
        <ele>145</ele>
        <time>2025-08-10T08:38:24.696Z</time>
      </trkpt>
      <trkpt lat="44.12834" lon="0.61199">
        <ele>145</ele>
        <time>2025-08-10T08:38:25.696Z</time>
      </trkpt>
      <trkpt lat="44.12834" lon="0.61199">
        <ele>146</ele>
        <time>2025-08-10T08:38:26.696Z</time>
      </trkpt>
      <trkpt lat="44.12834" lon="0.61199">
        <ele>146</ele>
        <time>2025-08-10T08:38:27.696Z</time>
      </trkpt>
      <trkpt lat="44.12834" lon="0.61199">
        <ele>147</ele>
        <time>2025-08-10T08:38:28.696Z</time>
      </trkpt>
      <trkpt lat="44.12834" lon="0.61199">
        <ele>147</ele>
        <time>2025-08-10T08:38:29.696Z</time>
      </trkpt>
      <trkpt lat="44.12834" lon="0.61199">
        <ele>148</ele>
        <time>2025-08-10T08:38:30.696Z</time>
      </trkpt>
      <trkpt lat="44.12835" lon="0.61199">
        <ele>148</ele>
        <time>2025-08-10T08:38:31.696Z</time>
      </trkpt>
      <trkpt lat="44.12835" lon="0.61199">
        <ele>148</ele>
        <time>2025-08-10T08:38:32.696Z</time>
      </trkpt>
      <trkpt lat="44.12835" lon="0.61199">
        <ele>148</ele>
        <time>2025-08-10T08:38:33.696Z</time>
      </trkpt>
      <trkpt lat="44.12835" lon="0.61199">
        <ele>148</ele>
        <time>2025-08-10T08:38:34.696Z</time>
      </trkpt>
      <trkpt lat="44.12835" lon="0.61199">
        <ele>149</ele>
        <time>2025-08-10T08:38:35.696Z</time>
      </trkpt>
      <trkpt lat="44.12835" lon="0.61199">
        <ele>149</ele>
        <time>2025-08-10T08:38:36.696Z</time>
      </trkpt>
      <trkpt lat="44.12835" lon="0.61199">
        <ele>149</ele>
        <time>2025-08-10T08:38:37.696Z</time>
      </trkpt>
      <trkpt lat="44.12834" lon="0.612">
        <ele>149</ele>
        <time>2025-08-10T08:38:38.696Z</time>
      </trkpt>
      <trkpt lat="44.12834" lon="0.612">
        <ele>149</ele>
        <time>2025-08-10T08:38:39.696Z</time>
      </trkpt>
      <trkpt lat="44.12834" lon="0.612">
        <ele>149</ele>
        <time>2025-08-10T08:38:40.696Z</time>
      </trkpt>
      <trkpt lat="44.12834" lon="0.612">
        <ele>149</ele>
        <time>2025-08-10T08:38:41.696Z</time>
      </trkpt>
      <trkpt lat="44.12834" lon="0.612">
        <ele>149</ele>
        <time>2025-08-10T08:38:42.696Z</time>
      </trkpt>
      <trkpt lat="44.12833" lon="0.612">
        <ele>149</ele>
        <time>2025-08-10T08:38:43.696Z</time>
      </trkpt>
      <trkpt lat="44.12833" lon="0.612">
        <ele>148</ele>
        <time>2025-08-10T08:38:44.696Z</time>
      </trkpt>
      <trkpt lat="44.12833" lon="0.612">
        <ele>148</ele>
        <time>2025-08-10T08:38:45.696Z</time>
      </trkpt>
      <trkpt lat="44.12833" lon="0.612">
        <ele>148</ele>
        <time>2025-08-10T08:38:46.696Z</time>
      </trkpt>
      <trkpt lat="44.12833" lon="0.612">
        <ele>148</ele>
        <time>2025-08-10T08:38:47.696Z</time>
      </trkpt>
      <trkpt lat="44.12833" lon="0.612">
        <ele>147</ele>
        <time>2025-08-10T08:38:48.696Z</time>
      </trkpt>
      <trkpt lat="44.12833" lon="0.612">
        <ele>147</ele>
        <time>2025-08-10T08:38:49.696Z</time>
      </trkpt>
      <trkpt lat="44.12833" lon="0.612">
        <ele>147</ele>
        <time>2025-08-10T08:38:50.696Z</time>
      </trkpt>
      <trkpt lat="44.12833" lon="0.612">
        <ele>147</ele>
        <time>2025-08-10T08:38:51.696Z</time>
      </trkpt>
      <trkpt lat="44.12833" lon="0.612">
        <ele>146</ele>
        <time>2025-08-10T08:38:52.696Z</time>
      </trkpt>
      <trkpt lat="44.12833" lon="0.612">
        <ele>146</ele>
        <time>2025-08-10T08:38:53.697Z</time>
      </trkpt>
      <trkpt lat="44.12833" lon="0.612">
        <ele>145</ele>
        <time>2025-08-10T08:38:54.696Z</time>
      </trkpt>
      <trkpt lat="44.12833" lon="0.612">
        <ele>145</ele>
        <time>2025-08-10T08:38:55.696Z</time>
      </trkpt>
      <trkpt lat="44.12833" lon="0.612">
        <ele>145</ele>
        <time>2025-08-10T08:38:56.696Z</time>
      </trkpt>
      <trkpt lat="44.12833" lon="0.612">
        <ele>145</ele>
        <time>2025-08-10T08:38:57.696Z</time>
      </trkpt>
      <trkpt lat="44.12833" lon="0.612">
        <ele>145</ele>
        <time>2025-08-10T08:38:58.696Z</time>
      </trkpt>
      <trkpt lat="44.12833" lon="0.612">
        <ele>144</ele>
        <time>2025-08-10T08:38:59.696Z</time>
      </trkpt>
      <trkpt lat="44.12833" lon="0.612">
        <ele>144</ele>
        <time>2025-08-10T08:39:00.696Z</time>
      </trkpt>
      <trkpt lat="44.12833" lon="0.612">
        <ele>143</ele>
        <time>2025-08-10T08:39:01.696Z</time>
      </trkpt>
      <trkpt lat="44.12833" lon="0.612">
        <ele>142</ele>
        <time>2025-08-10T08:39:02.696Z</time>
      </trkpt>
      <trkpt lat="44.12833" lon="0.612">
        <ele>142</ele>
        <time>2025-08-10T08:39:03.696Z</time>
      </trkpt>
      <trkpt lat="44.12833" lon="0.612">
        <ele>142</ele>
        <time>2025-08-10T08:39:04.696Z</time>
      </trkpt>
      <trkpt lat="44.12833" lon="0.612">
        <ele>142</ele>
        <time>2025-08-10T08:39:05.696Z</time>
      </trkpt>
      <trkpt lat="44.12833" lon="0.612">
        <ele>142</ele>
        <time>2025-08-10T08:39:06.696Z</time>
      </trkpt>
      <trkpt lat="44.12833" lon="0.612">
        <ele>141</ele>
        <time>2025-08-10T08:39:07.696Z</time>
      </trkpt>
      <trkpt lat="44.12833" lon="0.612">
        <ele>141</ele>
        <time>2025-08-10T08:39:08.696Z</time>
      </trkpt>
      <trkpt lat="44.12833" lon="0.612">
        <ele>141</ele>
        <time>2025-08-10T08:39:09.696Z</time>
      </trkpt>
      <trkpt lat="44.12833" lon="0.612">
        <ele>141</ele>
        <time>2025-08-10T08:39:10.696Z</time>
      </trkpt>
      <trkpt lat="44.12833" lon="0.612">
        <ele>141</ele>
        <time>2025-08-10T08:39:11.696Z</time>
      </trkpt>
      <trkpt lat="44.12832" lon="0.612">
        <ele>141</ele>
        <time>2025-08-10T08:39:12.696Z</time>
      </trkpt>
      <trkpt lat="44.12831" lon="0.61199">
        <ele>141</ele>
        <time>2025-08-10T08:39:13.696Z</time>
      </trkpt>
      <trkpt lat="44.12831" lon="0.61198">
        <ele>141</ele>
        <time>2025-08-10T08:39:14.696Z</time>
      </trkpt>
      <trkpt lat="44.1283" lon="0.61196">
        <ele>142</ele>
        <time>2025-08-10T08:39:15.696Z</time>
      </trkpt>
      <trkpt lat="44.1283" lon="0.61195">
        <ele>142</ele>
        <time>2025-08-10T08:39:16.696Z</time>
      </trkpt>
      <trkpt lat="44.1283" lon="0.61194">
        <ele>142</ele>
        <time>2025-08-10T08:39:17.696Z</time>
      </trkpt>
      <trkpt lat="44.1283" lon="0.61192">
        <ele>142</ele>
        <time>2025-08-10T08:39:18.696Z</time>
      </trkpt>
      <trkpt lat="44.12829" lon="0.61191">
        <ele>142</ele>
        <time>2025-08-10T08:39:19.696Z</time>
      </trkpt>
      <trkpt lat="44.12829" lon="0.61189">
        <ele>142</ele>
        <time>2025-08-10T08:39:20.696Z</time>
      </trkpt>
      <trkpt lat="44.12828" lon="0.61188">
        <ele>142</ele>
        <time>2025-08-10T08:39:21.696Z</time>
      </trkpt>
      <trkpt lat="44.12828" lon="0.61186">
        <ele>142</ele>
        <time>2025-08-10T08:39:22.696Z</time>
      </trkpt>
      <trkpt lat="44.12827" lon="0.61185">
        <ele>142</ele>
        <time>2025-08-10T08:39:23.696Z</time>
      </trkpt>
      <trkpt lat="44.12826" lon="0.61183">
        <ele>142</ele>
        <time>2025-08-10T08:39:24.696Z</time>
      </trkpt>
      <trkpt lat="44.12826" lon="0.61182">
        <ele>142</ele>
        <time>2025-08-10T08:39:25.696Z</time>
      </trkpt>
      <trkpt lat="44.12826" lon="0.6118">
        <ele>142</ele>
        <time>2025-08-10T08:39:26.696Z</time>
      </trkpt>
      <trkpt lat="44.12825" lon="0.61179">
        <ele>142</ele>
        <time>2025-08-10T08:39:27.696Z</time>
      </trkpt>
      <trkpt lat="44.12825" lon="0.61178">
        <ele>141</ele>
        <time>2025-08-10T08:39:28.696Z</time>
      </trkpt>
      <trkpt lat="44.12824" lon="0.61176">
        <ele>141</ele>
        <time>2025-08-10T08:39:29.696Z</time>
      </trkpt>
      <trkpt lat="44.12823" lon="0.61175">
        <ele>141</ele>
        <time>2025-08-10T08:39:30.696Z</time>
      </trkpt>
      <trkpt lat="44.12823" lon="0.61173">
        <ele>140</ele>
        <time>2025-08-10T08:39:31.696Z</time>
      </trkpt>
      <trkpt lat="44.12822" lon="0.61171">
        <ele>140</ele>
        <time>2025-08-10T08:39:32.696Z</time>
      </trkpt>
      <trkpt lat="44.12822" lon="0.6117">
        <ele>140</ele>
        <time>2025-08-10T08:39:33.696Z</time>
      </trkpt>
      <trkpt lat="44.12821" lon="0.61168">
        <ele>140</ele>
        <time>2025-08-10T08:39:34.696Z</time>
      </trkpt>
      <trkpt lat="44.12821" lon="0.61167">
        <ele>140</ele>
        <time>2025-08-10T08:39:35.696Z</time>
      </trkpt>
      <trkpt lat="44.1282" lon="0.61166">
        <ele>141</ele>
        <time>2025-08-10T08:39:36.696Z</time>
      </trkpt>
      <trkpt lat="44.12819" lon="0.61165">
        <ele>141</ele>
        <time>2025-08-10T08:39:37.696Z</time>
      </trkpt>
      <trkpt lat="44.12818" lon="0.61164">
        <ele>141</ele>
        <time>2025-08-10T08:39:38.696Z</time>
      </trkpt>
      <trkpt lat="44.12818" lon="0.61163">
        <ele>141</ele>
        <time>2025-08-10T08:39:39.696Z</time>
      </trkpt>
      <trkpt lat="44.12817" lon="0.61162">
        <ele>141</ele>
        <time>2025-08-10T08:39:40.697Z</time>
      </trkpt>
      <trkpt lat="44.12816" lon="0.6116">
        <ele>140</ele>
        <time>2025-08-10T08:39:41.696Z</time>
      </trkpt>
      <trkpt lat="44.12814" lon="0.61158">
        <ele>140</ele>
        <time>2025-08-10T08:39:42.696Z</time>
      </trkpt>
      <trkpt lat="44.12813" lon="0.61156">
        <ele>140</ele>
        <time>2025-08-10T08:39:43.696Z</time>
      </trkpt>
      <trkpt lat="44.12813" lon="0.61155">
        <ele>139</ele>
        <time>2025-08-10T08:39:44.696Z</time>
      </trkpt>
      <trkpt lat="44.12812" lon="0.61153">
        <ele>139</ele>
        <time>2025-08-10T08:39:45.696Z</time>
      </trkpt>
      <trkpt lat="44.12811" lon="0.61152">
        <ele>139</ele>
        <time>2025-08-10T08:39:46.696Z</time>
      </trkpt>
      <trkpt lat="44.1281" lon="0.61152">
        <ele>139</ele>
        <time>2025-08-10T08:39:47.696Z</time>
      </trkpt>
      <trkpt lat="44.12809" lon="0.61151">
        <ele>139</ele>
        <time>2025-08-10T08:39:48.696Z</time>
      </trkpt>
      <trkpt lat="44.12809" lon="0.6115">
        <ele>140</ele>
        <time>2025-08-10T08:39:49.696Z</time>
      </trkpt>
      <trkpt lat="44.12808" lon="0.61149">
        <ele>140</ele>
        <time>2025-08-10T08:39:50.696Z</time>
      </trkpt>
      <trkpt lat="44.12807" lon="0.61148">
        <ele>140</ele>
        <time>2025-08-10T08:39:51.696Z</time>
      </trkpt>
      <trkpt lat="44.12806" lon="0.61147">
        <ele>140</ele>
        <time>2025-08-10T08:39:52.696Z</time>
      </trkpt>
      <trkpt lat="44.12805" lon="0.61146">
        <ele>141</ele>
        <time>2025-08-10T08:39:53.696Z</time>
      </trkpt>
      <trkpt lat="44.12804" lon="0.61145">
        <ele>141</ele>
        <time>2025-08-10T08:39:54.696Z</time>
      </trkpt>
      <trkpt lat="44.12803" lon="0.61144">
        <ele>141</ele>
        <time>2025-08-10T08:39:55.696Z</time>
      </trkpt>
      <trkpt lat="44.12802" lon="0.61143">
        <ele>141</ele>
        <time>2025-08-10T08:39:56.696Z</time>
      </trkpt>
      <trkpt lat="44.12801" lon="0.61142">
        <ele>141</ele>
        <time>2025-08-10T08:39:57.696Z</time>
      </trkpt>
      <trkpt lat="44.128" lon="0.61141">
        <ele>141</ele>
        <time>2025-08-10T08:39:58.696Z</time>
      </trkpt>
      <trkpt lat="44.12799" lon="0.6114">
        <ele>141</ele>
        <time>2025-08-10T08:39:59.696Z</time>
      </trkpt>
      <trkpt lat="44.12798" lon="0.61139">
        <ele>142</ele>
        <time>2025-08-10T08:40:00.696Z</time>
      </trkpt>
      <trkpt lat="44.12797" lon="0.61138">
        <ele>142</ele>
        <time>2025-08-10T08:40:01.696Z</time>
      </trkpt>
      <trkpt lat="44.12796" lon="0.61137">
        <ele>142</ele>
        <time>2025-08-10T08:40:02.696Z</time>
      </trkpt>
      <trkpt lat="44.12796" lon="0.61136">
        <ele>142</ele>
        <time>2025-08-10T08:40:03.696Z</time>
      </trkpt>
      <trkpt lat="44.12795" lon="0.61135">
        <ele>143</ele>
        <time>2025-08-10T08:40:04.696Z</time>
      </trkpt>
      <trkpt lat="44.12794" lon="0.61134">
        <ele>143</ele>
        <time>2025-08-10T08:40:05.696Z</time>
      </trkpt>
      <trkpt lat="44.12793" lon="0.61133">
        <ele>143</ele>
        <time>2025-08-10T08:40:06.696Z</time>
      </trkpt>
      <trkpt lat="44.12793" lon="0.61133">
        <ele>143</ele>
        <time>2025-08-10T08:40:07.696Z</time>
      </trkpt>
      <trkpt lat="44.12792" lon="0.61132">
        <ele>143</ele>
        <time>2025-08-10T08:40:08.696Z</time>
      </trkpt>
      <trkpt lat="44.12791" lon="0.61131">
        <ele>143</ele>
        <time>2025-08-10T08:40:09.696Z</time>
      </trkpt>
      <trkpt lat="44.1279" lon="0.6113">
        <ele>143</ele>
        <time>2025-08-10T08:40:10.696Z</time>
      </trkpt>
      <trkpt lat="44.12789" lon="0.6113">
        <ele>143</ele>
        <time>2025-08-10T08:40:11.696Z</time>
      </trkpt>
      <trkpt lat="44.12788" lon="0.61129">
        <ele>143</ele>
        <time>2025-08-10T08:40:12.696Z</time>
      </trkpt>
      <trkpt lat="44.12787" lon="0.61129">
        <ele>144</ele>
        <time>2025-08-10T08:40:13.696Z</time>
      </trkpt>
      <trkpt lat="44.12787" lon="0.61129">
        <ele>144</ele>
        <time>2025-08-10T08:40:14.696Z</time>
      </trkpt>
      <trkpt lat="44.12786" lon="0.61129">
        <ele>144</ele>
        <time>2025-08-10T08:40:15.696Z</time>
      </trkpt>
      <trkpt lat="44.12785" lon="0.61128">
        <ele>144</ele>
        <time>2025-08-10T08:40:16.696Z</time>
      </trkpt>
      <trkpt lat="44.12785" lon="0.61128">
        <ele>144</ele>
        <time>2025-08-10T08:40:17.696Z</time>
      </trkpt>
      <trkpt lat="44.12785" lon="0.61127">
        <ele>144</ele>
        <time>2025-08-10T08:40:18.696Z</time>
      </trkpt>
      <trkpt lat="44.12784" lon="0.61127">
        <ele>144</ele>
        <time>2025-08-10T08:40:19.696Z</time>
      </trkpt>
      <trkpt lat="44.12784" lon="0.61127">
        <ele>144</ele>
        <time>2025-08-10T08:40:20.696Z</time>
      </trkpt>
      <trkpt lat="44.12784" lon="0.61128">
        <ele>145</ele>
        <time>2025-08-10T08:40:21.696Z</time>
      </trkpt>
      <trkpt lat="44.12785" lon="0.61128">
        <ele>145</ele>
        <time>2025-08-10T08:40:22.696Z</time>
      </trkpt>
      <trkpt lat="44.12785" lon="0.61128">
        <ele>145</ele>
        <time>2025-08-10T08:40:23.696Z</time>
      </trkpt>
      <trkpt lat="44.12785" lon="0.61128">
        <ele>145</ele>
        <time>2025-08-10T08:40:24.696Z</time>
      </trkpt>
      <trkpt lat="44.12785" lon="0.61128">
        <ele>145</ele>
        <time>2025-08-10T08:40:25.696Z</time>
      </trkpt>
      <trkpt lat="44.12785" lon="0.61128">
        <ele>145</ele>
        <time>2025-08-10T08:40:26.696Z</time>
      </trkpt>
      <trkpt lat="44.12785" lon="0.61128">
        <ele>145</ele>
        <time>2025-08-10T08:40:27.696Z</time>
      </trkpt>
      <trkpt lat="44.12785" lon="0.61128">
        <ele>145</ele>
        <time>2025-08-10T08:40:28.696Z</time>
      </trkpt>
      <trkpt lat="44.12785" lon="0.61128">
        <ele>144</ele>
        <time>2025-08-10T08:40:29.696Z</time>
      </trkpt>
      <trkpt lat="44.12785" lon="0.61128">
        <ele>144</ele>
        <time>2025-08-10T08:40:30.696Z</time>
      </trkpt>
      <trkpt lat="44.12785" lon="0.61128">
        <ele>143</ele>
        <time>2025-08-10T08:40:31.696Z</time>
      </trkpt>
      <trkpt lat="44.12785" lon="0.61128">
        <ele>143</ele>
        <time>2025-08-10T08:40:32.696Z</time>
      </trkpt>
      <trkpt lat="44.12785" lon="0.61128">
        <ele>143</ele>
        <time>2025-08-10T08:40:33.696Z</time>
      </trkpt>
      <trkpt lat="44.12785" lon="0.61128">
        <ele>142</ele>
        <time>2025-08-10T08:40:34.696Z</time>
      </trkpt>
      <trkpt lat="44.12786" lon="0.61128">
        <ele>142</ele>
        <time>2025-08-10T08:40:35.696Z</time>
      </trkpt>
      <trkpt lat="44.12785" lon="0.61128">
        <ele>142</ele>
        <time>2025-08-10T08:40:36.696Z</time>
      </trkpt>
      <trkpt lat="44.12785" lon="0.61128">
        <ele>142</ele>
        <time>2025-08-10T08:40:37.696Z</time>
      </trkpt>
      <trkpt lat="44.12785" lon="0.61127">
        <ele>142</ele>
        <time>2025-08-10T08:40:38.696Z</time>
      </trkpt>
      <trkpt lat="44.12786" lon="0.61127">
        <ele>142</ele>
        <time>2025-08-10T08:40:39.696Z</time>
      </trkpt>
      <trkpt lat="44.12785" lon="0.61127">
        <ele>142</ele>
        <time>2025-08-10T08:40:40.696Z</time>
      </trkpt>
      <trkpt lat="44.12785" lon="0.61127">
        <ele>142</ele>
        <time>2025-08-10T08:40:41.696Z</time>
      </trkpt>
      <trkpt lat="44.12785" lon="0.61127">
        <ele>142</ele>
        <time>2025-08-10T08:40:42.696Z</time>
      </trkpt>
      <trkpt lat="44.12785" lon="0.61126">
        <ele>142</ele>
        <time>2025-08-10T08:40:43.696Z</time>
      </trkpt>
      <trkpt lat="44.12785" lon="0.61126">
        <ele>142</ele>
        <time>2025-08-10T08:40:44.696Z</time>
      </trkpt>
      <trkpt lat="44.12785" lon="0.61126">
        <ele>142</ele>
        <time>2025-08-10T08:40:45.696Z</time>
      </trkpt>
      <trkpt lat="44.12785" lon="0.61127">
        <ele>142</ele>
        <time>2025-08-10T08:40:46.696Z</time>
      </trkpt>
      <trkpt lat="44.12785" lon="0.61127">
        <ele>142</ele>
        <time>2025-08-10T08:40:47.696Z</time>
      </trkpt>
      <trkpt lat="44.12785" lon="0.61127">
        <ele>142</ele>
        <time>2025-08-10T08:40:48.696Z</time>
      </trkpt>
      <trkpt lat="44.12785" lon="0.61127">
        <ele>142</ele>
        <time>2025-08-10T08:40:49.696Z</time>
      </trkpt>
      <trkpt lat="44.12785" lon="0.61127">
        <ele>142</ele>
        <time>2025-08-10T08:40:50.696Z</time>
      </trkpt>
      <trkpt lat="44.12785" lon="0.61126">
        <ele>142</ele>
        <time>2025-08-10T08:40:51.696Z</time>
      </trkpt>
      <trkpt lat="44.12785" lon="0.61126">
        <ele>141</ele>
        <time>2025-08-10T08:40:52.696Z</time>
      </trkpt>
      <trkpt lat="44.12785" lon="0.61127">
        <ele>141</ele>
        <time>2025-08-10T08:40:53.696Z</time>
      </trkpt>
      <trkpt lat="44.12785" lon="0.61127">
        <ele>140</ele>
        <time>2025-08-10T08:40:54.696Z</time>
      </trkpt>
      <trkpt lat="44.12785" lon="0.61127">
        <ele>140</ele>
        <time>2025-08-10T08:40:55.697Z</time>
      </trkpt>
      <trkpt lat="44.12785" lon="0.61126">
        <ele>140</ele>
        <time>2025-08-10T08:40:56.696Z</time>
      </trkpt>
      <trkpt lat="44.12785" lon="0.61126">
        <ele>140</ele>
        <time>2025-08-10T08:40:57.696Z</time>
      </trkpt>
      <trkpt lat="44.12786" lon="0.61126">
        <ele>140</ele>
        <time>2025-08-10T08:40:58.696Z</time>
      </trkpt>
      <trkpt lat="44.12786" lon="0.61126">
        <ele>140</ele>
        <time>2025-08-10T08:40:59.696Z</time>
      </trkpt>
      <trkpt lat="44.12786" lon="0.61125">
        <ele>140</ele>
        <time>2025-08-10T08:41:00.696Z</time>
      </trkpt>
      <trkpt lat="44.12786" lon="0.61125">
        <ele>140</ele>
        <time>2025-08-10T08:41:01.696Z</time>
      </trkpt>
      <trkpt lat="44.12786" lon="0.61126">
        <ele>140</ele>
        <time>2025-08-10T08:41:02.696Z</time>
      </trkpt>
      <trkpt lat="44.12786" lon="0.61126">
        <ele>140</ele>
        <time>2025-08-10T08:41:03.696Z</time>
      </trkpt>
      <trkpt lat="44.12786" lon="0.61126">
        <ele>140</ele>
        <time>2025-08-10T08:41:04.696Z</time>
      </trkpt>
      <trkpt lat="44.12785" lon="0.61126">
        <ele>140</ele>
        <time>2025-08-10T08:41:05.696Z</time>
      </trkpt>
      <trkpt lat="44.12785" lon="0.61126">
        <ele>140</ele>
        <time>2025-08-10T08:41:06.696Z</time>
      </trkpt>
      <trkpt lat="44.12785" lon="0.61125">
        <ele>140</ele>
        <time>2025-08-10T08:41:07.696Z</time>
      </trkpt>
      <trkpt lat="44.12786" lon="0.61125">
        <ele>140</ele>
        <time>2025-08-10T08:41:08.696Z</time>
      </trkpt>
      <trkpt lat="44.12786" lon="0.61125">
        <ele>140</ele>
        <time>2025-08-10T08:41:09.696Z</time>
      </trkpt>
      <trkpt lat="44.12786" lon="0.61125">
        <ele>140</ele>
        <time>2025-08-10T08:41:10.697Z</time>
      </trkpt>
      <trkpt lat="44.12786" lon="0.61124">
        <ele>140</ele>
        <time>2025-08-10T08:41:11.696Z</time>
      </trkpt>
      <trkpt lat="44.12786" lon="0.61124">
        <ele>140</ele>
        <time>2025-08-10T08:41:12.696Z</time>
      </trkpt>
      <trkpt lat="44.12786" lon="0.61124">
        <ele>139</ele>
        <time>2025-08-10T08:41:13.696Z</time>
      </trkpt>
      <trkpt lat="44.12786" lon="0.61124">
        <ele>139</ele>
        <time>2025-08-10T08:41:14.696Z</time>
      </trkpt>
      <trkpt lat="44.12785" lon="0.61124">
        <ele>139</ele>
        <time>2025-08-10T08:41:15.696Z</time>
      </trkpt>
      <trkpt lat="44.12785" lon="0.61124">
        <ele>140</ele>
        <time>2025-08-10T08:41:16.696Z</time>
      </trkpt>
      <trkpt lat="44.12784" lon="0.61124">
        <ele>140</ele>
        <time>2025-08-10T08:41:17.696Z</time>
      </trkpt>
      <trkpt lat="44.12784" lon="0.61125">
        <ele>141</ele>
        <time>2025-08-10T08:41:18.696Z</time>
      </trkpt>
      <trkpt lat="44.12783" lon="0.61125">
        <ele>141</ele>
        <time>2025-08-10T08:41:19.696Z</time>
      </trkpt>
      <trkpt lat="44.12783" lon="0.61125">
        <ele>141</ele>
        <time>2025-08-10T08:41:20.696Z</time>
      </trkpt>
      <trkpt lat="44.12782" lon="0.61126">
        <ele>141</ele>
        <time>2025-08-10T08:41:21.696Z</time>
      </trkpt>
      <trkpt lat="44.12781" lon="0.61126">
        <ele>141</ele>
        <time>2025-08-10T08:41:22.696Z</time>
      </trkpt>
      <trkpt lat="44.12781" lon="0.61126">
        <ele>142</ele>
        <time>2025-08-10T08:41:23.696Z</time>
      </trkpt>
      <trkpt lat="44.12781" lon="0.61126">
        <ele>142</ele>
        <time>2025-08-10T08:41:24.696Z</time>
      </trkpt>
      <trkpt lat="44.12781" lon="0.61126">
        <ele>142</ele>
        <time>2025-08-10T08:41:25.696Z</time>
      </trkpt>
      <trkpt lat="44.1278" lon="0.61126">
        <ele>143</ele>
        <time>2025-08-10T08:41:26.696Z</time>
      </trkpt>
      <trkpt lat="44.1278" lon="0.61126">
        <ele>143</ele>
        <time>2025-08-10T08:41:27.696Z</time>
      </trkpt>
      <trkpt lat="44.1278" lon="0.61126">
        <ele>143</ele>
        <time>2025-08-10T08:41:28.696Z</time>
      </trkpt>
      <trkpt lat="44.12779" lon="0.61125">
        <ele>143</ele>
        <time>2025-08-10T08:41:29.696Z</time>
      </trkpt>
      <trkpt lat="44.12778" lon="0.61124">
        <ele>143</ele>
        <time>2025-08-10T08:41:30.696Z</time>
      </trkpt>
      <trkpt lat="44.12778" lon="0.61122">
        <ele>143</ele>
        <time>2025-08-10T08:41:31.696Z</time>
      </trkpt>
      <trkpt lat="44.12778" lon="0.61121">
        <ele>143</ele>
        <time>2025-08-10T08:41:32.696Z</time>
      </trkpt>
      <trkpt lat="44.12777" lon="0.6112">
        <ele>142</ele>
        <time>2025-08-10T08:41:33.696Z</time>
      </trkpt>
      <trkpt lat="44.12777" lon="0.61119">
        <ele>142</ele>
        <time>2025-08-10T08:41:34.696Z</time>
      </trkpt>
      <trkpt lat="44.12776" lon="0.61118">
        <ele>142</ele>
        <time>2025-08-10T08:41:35.696Z</time>
      </trkpt>
      <trkpt lat="44.12775" lon="0.61117">
        <ele>142</ele>
        <time>2025-08-10T08:41:36.696Z</time>
      </trkpt>
      <trkpt lat="44.12775" lon="0.61116">
        <ele>142</ele>
        <time>2025-08-10T08:41:37.696Z</time>
      </trkpt>
      <trkpt lat="44.12774" lon="0.61115">
        <ele>142</ele>
        <time>2025-08-10T08:41:38.696Z</time>
      </trkpt>
      <trkpt lat="44.12774" lon="0.61114">
        <ele>142</ele>
        <time>2025-08-10T08:41:39.696Z</time>
      </trkpt>
      <trkpt lat="44.12774" lon="0.61113">
        <ele>142</ele>
        <time>2025-08-10T08:41:40.696Z</time>
      </trkpt>
      <trkpt lat="44.12773" lon="0.61112">
        <ele>142</ele>
        <time>2025-08-10T08:41:41.696Z</time>
      </trkpt>
      <trkpt lat="44.12773" lon="0.61111">
        <ele>143</ele>
        <time>2025-08-10T08:41:42.696Z</time>
      </trkpt>
      <trkpt lat="44.12773" lon="0.61111">
        <ele>143</ele>
        <time>2025-08-10T08:41:43.696Z</time>
      </trkpt>
      <trkpt lat="44.12772" lon="0.6111">
        <ele>143</ele>
        <time>2025-08-10T08:41:44.696Z</time>
      </trkpt>
      <trkpt lat="44.12772" lon="0.61109">
        <ele>143</ele>
        <time>2025-08-10T08:41:45.696Z</time>
      </trkpt>
      <trkpt lat="44.12772" lon="0.61109">
        <ele>143</ele>
        <time>2025-08-10T08:41:46.696Z</time>
      </trkpt>
      <trkpt lat="44.12772" lon="0.61108">
        <ele>143</ele>
        <time>2025-08-10T08:41:47.696Z</time>
      </trkpt>
      <trkpt lat="44.12772" lon="0.61107">
        <ele>143</ele>
        <time>2025-08-10T08:41:48.696Z</time>
      </trkpt>
      <trkpt lat="44.12771" lon="0.61106">
        <ele>142</ele>
        <time>2025-08-10T08:41:49.696Z</time>
      </trkpt>
      <trkpt lat="44.12771" lon="0.61106">
        <ele>142</ele>
        <time>2025-08-10T08:41:50.696Z</time>
      </trkpt>
      <trkpt lat="44.1277" lon="0.61106">
        <ele>142</ele>
        <time>2025-08-10T08:41:51.696Z</time>
      </trkpt>
      <trkpt lat="44.1277" lon="0.61105">
        <ele>143</ele>
        <time>2025-08-10T08:41:52.696Z</time>
      </trkpt>
      <trkpt lat="44.1277" lon="0.61105">
        <ele>143</ele>
        <time>2025-08-10T08:41:53.696Z</time>
      </trkpt>
      <trkpt lat="44.1277" lon="0.61105">
        <ele>143</ele>
        <time>2025-08-10T08:41:54.696Z</time>
      </trkpt>
      <trkpt lat="44.1277" lon="0.61105">
        <ele>143</ele>
        <time>2025-08-10T08:41:55.696Z</time>
      </trkpt>
      <trkpt lat="44.1277" lon="0.61105">
        <ele>143</ele>
        <time>2025-08-10T08:41:56.696Z</time>
      </trkpt>
      <trkpt lat="44.1277" lon="0.61105">
        <ele>144</ele>
        <time>2025-08-10T08:41:57.696Z</time>
      </trkpt>
      <trkpt lat="44.1277" lon="0.61105">
        <ele>144</ele>
        <time>2025-08-10T08:41:58.696Z</time>
      </trkpt>
      <trkpt lat="44.1277" lon="0.61105">
        <ele>144</ele>
        <time>2025-08-10T08:41:59.696Z</time>
      </trkpt>
      <trkpt lat="44.1277" lon="0.61105">
        <ele>145</ele>
        <time>2025-08-10T08:42:00.696Z</time>
      </trkpt>
      <trkpt lat="44.1277" lon="0.61105">
        <ele>145</ele>
        <time>2025-08-10T08:42:01.696Z</time>
      </trkpt>
      <trkpt lat="44.1277" lon="0.61105">
        <ele>144</ele>
        <time>2025-08-10T08:42:02.696Z</time>
      </trkpt>
      <trkpt lat="44.1277" lon="0.61105">
        <ele>144</ele>
        <time>2025-08-10T08:42:03.696Z</time>
      </trkpt>
      <trkpt lat="44.12769" lon="0.61106">
        <ele>143</ele>
        <time>2025-08-10T08:42:04.696Z</time>
      </trkpt>
      <trkpt lat="44.12769" lon="0.61106">
        <ele>142</ele>
        <time>2025-08-10T08:42:05.696Z</time>
      </trkpt>
      <trkpt lat="44.12769" lon="0.61106">
        <ele>141</ele>
        <time>2025-08-10T08:42:06.696Z</time>
      </trkpt>
      <trkpt lat="44.12769" lon="0.61106">
        <ele>140</ele>
        <time>2025-08-10T08:42:07.696Z</time>
      </trkpt>
      <trkpt lat="44.12769" lon="0.61106">
        <ele>140</ele>
        <time>2025-08-10T08:42:08.696Z</time>
      </trkpt>
      <trkpt lat="44.12769" lon="0.61106">
        <ele>140</ele>
        <time>2025-08-10T08:42:09.696Z</time>
      </trkpt>
      <trkpt lat="44.12769" lon="0.61106">
        <ele>139</ele>
        <time>2025-08-10T08:42:10.696Z</time>
      </trkpt>
      <trkpt lat="44.12769" lon="0.61106">
        <ele>139</ele>
        <time>2025-08-10T08:42:11.696Z</time>
      </trkpt>
      <trkpt lat="44.12769" lon="0.61106">
        <ele>138</ele>
        <time>2025-08-10T08:42:12.696Z</time>
      </trkpt>
      <trkpt lat="44.12768" lon="0.61105">
        <ele>138</ele>
        <time>2025-08-10T08:42:13.696Z</time>
      </trkpt>
      <trkpt lat="44.12768" lon="0.61105">
        <ele>138</ele>
        <time>2025-08-10T08:42:14.696Z</time>
      </trkpt>
      <trkpt lat="44.12768" lon="0.61105">
        <ele>138</ele>
        <time>2025-08-10T08:42:15.696Z</time>
      </trkpt>
      <trkpt lat="44.12769" lon="0.61105">
        <ele>139</ele>
        <time>2025-08-10T08:42:16.696Z</time>
      </trkpt>
      <trkpt lat="44.12769" lon="0.61105">
        <ele>139</ele>
        <time>2025-08-10T08:42:17.696Z</time>
      </trkpt>
      <trkpt lat="44.12769" lon="0.61105">
        <ele>139</ele>
        <time>2025-08-10T08:42:18.696Z</time>
      </trkpt>
      <trkpt lat="44.12769" lon="0.61105">
        <ele>139</ele>
        <time>2025-08-10T08:42:19.696Z</time>
      </trkpt>
      <trkpt lat="44.12769" lon="0.61105">
        <ele>139</ele>
        <time>2025-08-10T08:42:20.696Z</time>
      </trkpt>
      <trkpt lat="44.12769" lon="0.61105">
        <ele>140</ele>
        <time>2025-08-10T08:42:21.696Z</time>
      </trkpt>
      <trkpt lat="44.12769" lon="0.61105">
        <ele>140</ele>
        <time>2025-08-10T08:42:22.696Z</time>
      </trkpt>
      <trkpt lat="44.12769" lon="0.61105">
        <ele>140</ele>
        <time>2025-08-10T08:42:23.696Z</time>
      </trkpt>
      <trkpt lat="44.1277" lon="0.61105">
        <ele>140</ele>
        <time>2025-08-10T08:42:24.696Z</time>
      </trkpt>
      <trkpt lat="44.1277" lon="0.61105">
        <ele>140</ele>
        <time>2025-08-10T08:42:25.696Z</time>
      </trkpt>
      <trkpt lat="44.1277" lon="0.61105">
        <ele>139</ele>
        <time>2025-08-10T08:42:26.696Z</time>
      </trkpt>
      <trkpt lat="44.1277" lon="0.61105">
        <ele>139</ele>
        <time>2025-08-10T08:42:27.696Z</time>
      </trkpt>
      <trkpt lat="44.1277" lon="0.61104">
        <ele>139</ele>
        <time>2025-08-10T08:42:28.696Z</time>
      </trkpt>
      <trkpt lat="44.12769" lon="0.61103">
        <ele>139</ele>
        <time>2025-08-10T08:42:29.696Z</time>
      </trkpt>
      <trkpt lat="44.12769" lon="0.61102">
        <ele>139</ele>
        <time>2025-08-10T08:42:30.696Z</time>
      </trkpt>
      <trkpt lat="44.12768" lon="0.61101">
        <ele>139</ele>
        <time>2025-08-10T08:42:31.696Z</time>
      </trkpt>
      <trkpt lat="44.12768" lon="0.611">
        <ele>139</ele>
        <time>2025-08-10T08:42:32.696Z</time>
      </trkpt>
      <trkpt lat="44.12767" lon="0.61099">
        <ele>138</ele>
        <time>2025-08-10T08:42:33.696Z</time>
      </trkpt>
      <trkpt lat="44.12767" lon="0.61097">
        <ele>138</ele>
        <time>2025-08-10T08:42:34.696Z</time>
      </trkpt>
      <trkpt lat="44.12766" lon="0.61096">
        <ele>138</ele>
        <time>2025-08-10T08:42:35.696Z</time>
      </trkpt>
      <trkpt lat="44.12766" lon="0.61094">
        <ele>138</ele>
        <time>2025-08-10T08:42:36.696Z</time>
      </trkpt>
      <trkpt lat="44.12765" lon="0.61093">
        <ele>138</ele>
        <time>2025-08-10T08:42:37.696Z</time>
      </trkpt>
      <trkpt lat="44.12765" lon="0.61092">
        <ele>138</ele>
        <time>2025-08-10T08:42:38.696Z</time>
      </trkpt>
      <trkpt lat="44.12765" lon="0.61091">
        <ele>138</ele>
        <time>2025-08-10T08:42:39.696Z</time>
      </trkpt>
      <trkpt lat="44.12764" lon="0.61089">
        <ele>138</ele>
        <time>2025-08-10T08:42:40.696Z</time>
      </trkpt>
      <trkpt lat="44.12764" lon="0.61088">
        <ele>138</ele>
        <time>2025-08-10T08:42:41.696Z</time>
      </trkpt>
      <trkpt lat="44.12763" lon="0.61086">
        <ele>138</ele>
        <time>2025-08-10T08:42:42.696Z</time>
      </trkpt>
      <trkpt lat="44.12762" lon="0.61085">
        <ele>139</ele>
        <time>2025-08-10T08:42:43.696Z</time>
      </trkpt>
      <trkpt lat="44.12762" lon="0.61083">
        <ele>139</ele>
        <time>2025-08-10T08:42:44.696Z</time>
      </trkpt>
      <trkpt lat="44.12761" lon="0.61082">
        <ele>139</ele>
        <time>2025-08-10T08:42:45.696Z</time>
      </trkpt>
      <trkpt lat="44.12761" lon="0.61081">
        <ele>139</ele>
        <time>2025-08-10T08:42:46.696Z</time>
      </trkpt>
      <trkpt lat="44.1276" lon="0.61079">
        <ele>139</ele>
        <time>2025-08-10T08:42:47.696Z</time>
      </trkpt>
      <trkpt lat="44.1276" lon="0.61078">
        <ele>140</ele>
        <time>2025-08-10T08:42:48.696Z</time>
      </trkpt>
      <trkpt lat="44.1276" lon="0.61077">
        <ele>140</ele>
        <time>2025-08-10T08:42:49.696Z</time>
      </trkpt>
      <trkpt lat="44.1276" lon="0.61076">
        <ele>140</ele>
        <time>2025-08-10T08:42:50.696Z</time>
      </trkpt>
      <trkpt lat="44.12759" lon="0.61075">
        <ele>140</ele>
        <time>2025-08-10T08:42:51.696Z</time>
      </trkpt>
      <trkpt lat="44.12758" lon="0.61074">
        <ele>140</ele>
        <time>2025-08-10T08:42:52.696Z</time>
      </trkpt>
      <trkpt lat="44.12758" lon="0.61073">
        <ele>140</ele>
        <time>2025-08-10T08:42:53.696Z</time>
      </trkpt>
      <trkpt lat="44.12757" lon="0.61072">
        <ele>140</ele>
        <time>2025-08-10T08:42:54.696Z</time>
      </trkpt>
      <trkpt lat="44.12757" lon="0.61071">
        <ele>140</ele>
        <time>2025-08-10T08:42:55.696Z</time>
      </trkpt>
      <trkpt lat="44.12756" lon="0.61069">
        <ele>140</ele>
        <time>2025-08-10T08:42:56.696Z</time>
      </trkpt>
      <trkpt lat="44.12755" lon="0.61068">
        <ele>140</ele>
        <time>2025-08-10T08:42:57.696Z</time>
      </trkpt>
      <trkpt lat="44.12754" lon="0.61066">
        <ele>140</ele>
        <time>2025-08-10T08:42:58.696Z</time>
      </trkpt>
      <trkpt lat="44.12754" lon="0.61065">
        <ele>140</ele>
        <time>2025-08-10T08:42:59.696Z</time>
      </trkpt>
      <trkpt lat="44.12753" lon="0.61064">
        <ele>140</ele>
        <time>2025-08-10T08:43:00.696Z</time>
      </trkpt>
      <trkpt lat="44.12752" lon="0.61063">
        <ele>140</ele>
        <time>2025-08-10T08:43:01.696Z</time>
      </trkpt>
      <trkpt lat="44.12752" lon="0.61061">
        <ele>140</ele>
        <time>2025-08-10T08:43:02.696Z</time>
      </trkpt>
      <trkpt lat="44.12751" lon="0.6106">
        <ele>139</ele>
        <time>2025-08-10T08:43:03.696Z</time>
      </trkpt>
      <trkpt lat="44.1275" lon="0.61059">
        <ele>139</ele>
        <time>2025-08-10T08:43:04.696Z</time>
      </trkpt>
      <trkpt lat="44.1275" lon="0.61057">
        <ele>139</ele>
        <time>2025-08-10T08:43:05.696Z</time>
      </trkpt>
      <trkpt lat="44.1275" lon="0.61056">
        <ele>139</ele>
        <time>2025-08-10T08:43:06.696Z</time>
      </trkpt>
      <trkpt lat="44.12749" lon="0.61054">
        <ele>138</ele>
        <time>2025-08-10T08:43:07.696Z</time>
      </trkpt>
      <trkpt lat="44.12749" lon="0.61053">
        <ele>138</ele>
        <time>2025-08-10T08:43:08.696Z</time>
      </trkpt>
      <trkpt lat="44.12749" lon="0.61052">
        <ele>138</ele>
        <time>2025-08-10T08:43:09.696Z</time>
      </trkpt>
      <trkpt lat="44.12748" lon="0.6105">
        <ele>138</ele>
        <time>2025-08-10T08:43:10.696Z</time>
      </trkpt>
      <trkpt lat="44.12748" lon="0.61048">
        <ele>138</ele>
        <time>2025-08-10T08:43:11.696Z</time>
      </trkpt>
      <trkpt lat="44.12747" lon="0.61046">
        <ele>139</ele>
        <time>2025-08-10T08:43:12.696Z</time>
      </trkpt>
      <trkpt lat="44.12747" lon="0.61045">
        <ele>139</ele>
        <time>2025-08-10T08:43:13.696Z</time>
      </trkpt>
      <trkpt lat="44.12746" lon="0.61044">
        <ele>139</ele>
        <time>2025-08-10T08:43:14.696Z</time>
      </trkpt>
      <trkpt lat="44.12745" lon="0.61043">
        <ele>139</ele>
        <time>2025-08-10T08:43:15.696Z</time>
      </trkpt>
      <trkpt lat="44.12745" lon="0.61042">
        <ele>139</ele>
        <time>2025-08-10T08:43:16.696Z</time>
      </trkpt>
      <trkpt lat="44.12745" lon="0.6104">
        <ele>139</ele>
        <time>2025-08-10T08:43:17.696Z</time>
      </trkpt>
      <trkpt lat="44.12744" lon="0.61039">
        <ele>139</ele>
        <time>2025-08-10T08:43:18.696Z</time>
      </trkpt>
      <trkpt lat="44.12744" lon="0.61038">
        <ele>139</ele>
        <time>2025-08-10T08:43:19.696Z</time>
      </trkpt>
      <trkpt lat="44.12744" lon="0.61037">
        <ele>139</ele>
        <time>2025-08-10T08:43:20.696Z</time>
      </trkpt>
      <trkpt lat="44.12743" lon="0.61036">
        <ele>139</ele>
        <time>2025-08-10T08:43:21.696Z</time>
      </trkpt>
      <trkpt lat="44.12743" lon="0.61035">
        <ele>139</ele>
        <time>2025-08-10T08:43:22.696Z</time>
      </trkpt>
      <trkpt lat="44.12743" lon="0.61034">
        <ele>138</ele>
        <time>2025-08-10T08:43:23.696Z</time>
      </trkpt>
      <trkpt lat="44.12742" lon="0.61034">
        <ele>138</ele>
        <time>2025-08-10T08:43:24.696Z</time>
      </trkpt>
      <trkpt lat="44.12742" lon="0.61032">
        <ele>138</ele>
        <time>2025-08-10T08:43:25.696Z</time>
      </trkpt>
      <trkpt lat="44.12742" lon="0.61031">
        <ele>138</ele>
        <time>2025-08-10T08:43:26.696Z</time>
      </trkpt>
      <trkpt lat="44.12741" lon="0.6103">
        <ele>138</ele>
        <time>2025-08-10T08:43:27.696Z</time>
      </trkpt>
      <trkpt lat="44.12741" lon="0.61028">
        <ele>138</ele>
        <time>2025-08-10T08:43:28.696Z</time>
      </trkpt>
      <trkpt lat="44.12741" lon="0.61027">
        <ele>137</ele>
        <time>2025-08-10T08:43:29.696Z</time>
      </trkpt>
      <trkpt lat="44.12741" lon="0.61026">
        <ele>137</ele>
        <time>2025-08-10T08:43:30.696Z</time>
      </trkpt>
      <trkpt lat="44.1274" lon="0.61024">
        <ele>137</ele>
        <time>2025-08-10T08:43:31.696Z</time>
      </trkpt>
      <trkpt lat="44.1274" lon="0.61023">
        <ele>137</ele>
        <time>2025-08-10T08:43:32.696Z</time>
      </trkpt>
      <trkpt lat="44.1274" lon="0.61021">
        <ele>137</ele>
        <time>2025-08-10T08:43:33.696Z</time>
      </trkpt>
      <trkpt lat="44.12739" lon="0.6102">
        <ele>137</ele>
        <time>2025-08-10T08:43:34.696Z</time>
      </trkpt>
      <trkpt lat="44.12739" lon="0.61018">
        <ele>137</ele>
        <time>2025-08-10T08:43:35.696Z</time>
      </trkpt>
      <trkpt lat="44.12738" lon="0.61017">
        <ele>137</ele>
        <time>2025-08-10T08:43:36.696Z</time>
      </trkpt>
      <trkpt lat="44.12737" lon="0.61015">
        <ele>136</ele>
        <time>2025-08-10T08:43:37.696Z</time>
      </trkpt>
      <trkpt lat="44.12737" lon="0.61014">
        <ele>136</ele>
        <time>2025-08-10T08:43:38.696Z</time>
      </trkpt>
      <trkpt lat="44.12736" lon="0.61013">
        <ele>136</ele>
        <time>2025-08-10T08:43:39.696Z</time>
      </trkpt>
      <trkpt lat="44.12736" lon="0.61011">
        <ele>135</ele>
        <time>2025-08-10T08:43:40.696Z</time>
      </trkpt>
      <trkpt lat="44.12735" lon="0.6101">
        <ele>135</ele>
        <time>2025-08-10T08:43:41.696Z</time>
      </trkpt>
      <trkpt lat="44.12735" lon="0.61009">
        <ele>134</ele>
        <time>2025-08-10T08:43:42.696Z</time>
      </trkpt>
      <trkpt lat="44.12734" lon="0.61007">
        <ele>133</ele>
        <time>2025-08-10T08:43:43.696Z</time>
      </trkpt>
      <trkpt lat="44.12733" lon="0.61005">
        <ele>133</ele>
        <time>2025-08-10T08:43:44.696Z</time>
      </trkpt>
      <trkpt lat="44.12733" lon="0.61004">
        <ele>133</ele>
        <time>2025-08-10T08:43:45.696Z</time>
      </trkpt>
      <trkpt lat="44.12732" lon="0.61003">
        <ele>133</ele>
        <time>2025-08-10T08:43:46.696Z</time>
      </trkpt>
      <trkpt lat="44.12732" lon="0.61002">
        <ele>132</ele>
        <time>2025-08-10T08:43:47.696Z</time>
      </trkpt>
      <trkpt lat="44.12731" lon="0.61">
        <ele>132</ele>
        <time>2025-08-10T08:43:48.696Z</time>
      </trkpt>
      <trkpt lat="44.12731" lon="0.60999">
        <ele>131</ele>
        <time>2025-08-10T08:43:49.696Z</time>
      </trkpt>
      <trkpt lat="44.1273" lon="0.60998">
        <ele>131</ele>
        <time>2025-08-10T08:43:50.696Z</time>
      </trkpt>
      <trkpt lat="44.1273" lon="0.60997">
        <ele>131</ele>
        <time>2025-08-10T08:43:51.696Z</time>
      </trkpt>
      <trkpt lat="44.12729" lon="0.60996">
        <ele>131</ele>
        <time>2025-08-10T08:43:52.696Z</time>
      </trkpt>
      <trkpt lat="44.12728" lon="0.60995">
        <ele>130</ele>
        <time>2025-08-10T08:43:53.696Z</time>
      </trkpt>
      <trkpt lat="44.12728" lon="0.60994">
        <ele>130</ele>
        <time>2025-08-10T08:43:54.696Z</time>
      </trkpt>
      <trkpt lat="44.12728" lon="0.60993">
        <ele>130</ele>
        <time>2025-08-10T08:43:55.696Z</time>
      </trkpt>
      <trkpt lat="44.12727" lon="0.60992">
        <ele>130</ele>
        <time>2025-08-10T08:43:56.696Z</time>
      </trkpt>
      <trkpt lat="44.12726" lon="0.60991">
        <ele>130</ele>
        <time>2025-08-10T08:43:57.696Z</time>
      </trkpt>
      <trkpt lat="44.12726" lon="0.60989">
        <ele>130</ele>
        <time>2025-08-10T08:43:58.696Z</time>
      </trkpt>
      <trkpt lat="44.12725" lon="0.60988">
        <ele>129</ele>
        <time>2025-08-10T08:43:59.696Z</time>
      </trkpt>
      <trkpt lat="44.12724" lon="0.60987">
        <ele>129</ele>
        <time>2025-08-10T08:44:00.696Z</time>
      </trkpt>
      <trkpt lat="44.12722" lon="0.60985">
        <ele>130</ele>
        <time>2025-08-10T08:44:01.696Z</time>
      </trkpt>
      <trkpt lat="44.12721" lon="0.60984">
        <ele>130</ele>
        <time>2025-08-10T08:44:02.696Z</time>
      </trkpt>
      <trkpt lat="44.1272" lon="0.60983">
        <ele>130</ele>
        <time>2025-08-10T08:44:03.696Z</time>
      </trkpt>
      <trkpt lat="44.12719" lon="0.60981">
        <ele>130</ele>
        <time>2025-08-10T08:44:04.696Z</time>
      </trkpt>
      <trkpt lat="44.12718" lon="0.60979">
        <ele>131</ele>
        <time>2025-08-10T08:44:05.696Z</time>
      </trkpt>
      <trkpt lat="44.12717" lon="0.60978">
        <ele>132</ele>
        <time>2025-08-10T08:44:06.696Z</time>
      </trkpt>
      <trkpt lat="44.12717" lon="0.60977">
        <ele>132</ele>
        <time>2025-08-10T08:44:07.696Z</time>
      </trkpt>
      <trkpt lat="44.12716" lon="0.60976">
        <ele>133</ele>
        <time>2025-08-10T08:44:08.696Z</time>
      </trkpt>
      <trkpt lat="44.12715" lon="0.60975">
        <ele>133</ele>
        <time>2025-08-10T08:44:09.696Z</time>
      </trkpt>
      <trkpt lat="44.12714" lon="0.60974">
        <ele>133</ele>
        <time>2025-08-10T08:44:10.696Z</time>
      </trkpt>
      <trkpt lat="44.12713" lon="0.60972">
        <ele>133</ele>
        <time>2025-08-10T08:44:11.696Z</time>
      </trkpt>
      <trkpt lat="44.12713" lon="0.60971">
        <ele>133</ele>
        <time>2025-08-10T08:44:12.696Z</time>
      </trkpt>
      <trkpt lat="44.12711" lon="0.6097">
        <ele>133</ele>
        <time>2025-08-10T08:44:13.696Z</time>
      </trkpt>
      <trkpt lat="44.1271" lon="0.60969">
        <ele>133</ele>
        <time>2025-08-10T08:44:14.696Z</time>
      </trkpt>
      <trkpt lat="44.1271" lon="0.60968">
        <ele>133</ele>
        <time>2025-08-10T08:44:15.696Z</time>
      </trkpt>
      <trkpt lat="44.12709" lon="0.60967">
        <ele>133</ele>
        <time>2025-08-10T08:44:16.696Z</time>
      </trkpt>
      <trkpt lat="44.12708" lon="0.60966">
        <ele>133</ele>
        <time>2025-08-10T08:44:17.696Z</time>
      </trkpt>
      <trkpt lat="44.12707" lon="0.60965">
        <ele>133</ele>
        <time>2025-08-10T08:44:18.696Z</time>
      </trkpt>
      <trkpt lat="44.12705" lon="0.60965">
        <ele>133</ele>
        <time>2025-08-10T08:44:19.696Z</time>
      </trkpt>
      <trkpt lat="44.12704" lon="0.60964">
        <ele>133</ele>
        <time>2025-08-10T08:44:20.696Z</time>
      </trkpt>
      <trkpt lat="44.12702" lon="0.60963">
        <ele>133</ele>
        <time>2025-08-10T08:44:21.696Z</time>
      </trkpt>
      <trkpt lat="44.12701" lon="0.60962">
        <ele>133</ele>
        <time>2025-08-10T08:44:22.696Z</time>
      </trkpt>
      <trkpt lat="44.127" lon="0.60961">
        <ele>134</ele>
        <time>2025-08-10T08:44:23.696Z</time>
      </trkpt>
      <trkpt lat="44.12699" lon="0.60961">
        <ele>134</ele>
        <time>2025-08-10T08:44:24.696Z</time>
      </trkpt>
      <trkpt lat="44.12698" lon="0.6096">
        <ele>134</ele>
        <time>2025-08-10T08:44:25.696Z</time>
      </trkpt>
      <trkpt lat="44.12697" lon="0.60959">
        <ele>135</ele>
        <time>2025-08-10T08:44:26.696Z</time>
      </trkpt>
      <trkpt lat="44.12696" lon="0.60958">
        <ele>135</ele>
        <time>2025-08-10T08:44:27.696Z</time>
      </trkpt>
      <trkpt lat="44.12695" lon="0.60957">
        <ele>136</ele>
        <time>2025-08-10T08:44:28.696Z</time>
      </trkpt>
      <trkpt lat="44.12694" lon="0.60957">
        <ele>136</ele>
        <time>2025-08-10T08:44:29.696Z</time>
      </trkpt>
      <trkpt lat="44.12693" lon="0.60956">
        <ele>137</ele>
        <time>2025-08-10T08:44:30.696Z</time>
      </trkpt>
      <trkpt lat="44.12692" lon="0.60955">
        <ele>137</ele>
        <time>2025-08-10T08:44:31.696Z</time>
      </trkpt>
      <trkpt lat="44.12691" lon="0.60954">
        <ele>137</ele>
        <time>2025-08-10T08:44:32.696Z</time>
      </trkpt>
      <trkpt lat="44.1269" lon="0.60954">
        <ele>137</ele>
        <time>2025-08-10T08:44:33.696Z</time>
      </trkpt>
      <trkpt lat="44.12689" lon="0.60953">
        <ele>137</ele>
        <time>2025-08-10T08:44:34.696Z</time>
      </trkpt>
      <trkpt lat="44.12688" lon="0.60953">
        <ele>136</ele>
        <time>2025-08-10T08:44:35.696Z</time>
      </trkpt>
      <trkpt lat="44.12687" lon="0.60952">
        <ele>136</ele>
        <time>2025-08-10T08:44:36.696Z</time>
      </trkpt>
      <trkpt lat="44.12686" lon="0.60951">
        <ele>135</ele>
        <time>2025-08-10T08:44:37.696Z</time>
      </trkpt>
      <trkpt lat="44.12685" lon="0.6095">
        <ele>135</ele>
        <time>2025-08-10T08:44:38.696Z</time>
      </trkpt>
      <trkpt lat="44.12684" lon="0.60949">
        <ele>134</ele>
        <time>2025-08-10T08:44:39.696Z</time>
      </trkpt>
      <trkpt lat="44.12683" lon="0.60948">
        <ele>134</ele>
        <time>2025-08-10T08:44:40.696Z</time>
      </trkpt>
      <trkpt lat="44.12682" lon="0.60947">
        <ele>134</ele>
        <time>2025-08-10T08:44:41.696Z</time>
      </trkpt>
      <trkpt lat="44.12681" lon="0.60946">
        <ele>133</ele>
        <time>2025-08-10T08:44:42.696Z</time>
      </trkpt>
      <trkpt lat="44.1268" lon="0.60946">
        <ele>133</ele>
        <time>2025-08-10T08:44:43.696Z</time>
      </trkpt>
      <trkpt lat="44.12679" lon="0.60945">
        <ele>133</ele>
        <time>2025-08-10T08:44:44.696Z</time>
      </trkpt>
      <trkpt lat="44.12677" lon="0.60944">
        <ele>132</ele>
        <time>2025-08-10T08:44:45.696Z</time>
      </trkpt>
      <trkpt lat="44.12676" lon="0.60944">
        <ele>132</ele>
        <time>2025-08-10T08:44:46.696Z</time>
      </trkpt>
      <trkpt lat="44.12675" lon="0.60943">
        <ele>132</ele>
        <time>2025-08-10T08:44:47.696Z</time>
      </trkpt>
      <trkpt lat="44.12674" lon="0.60943">
        <ele>131</ele>
        <time>2025-08-10T08:44:48.696Z</time>
      </trkpt>
      <trkpt lat="44.12674" lon="0.60942">
        <ele>130</ele>
        <time>2025-08-10T08:44:49.696Z</time>
      </trkpt>
      <trkpt lat="44.12673" lon="0.60941">
        <ele>130</ele>
        <time>2025-08-10T08:44:50.696Z</time>
      </trkpt>
      <trkpt lat="44.12672" lon="0.60941">
        <ele>130</ele>
        <time>2025-08-10T08:44:51.696Z</time>
      </trkpt>
      <trkpt lat="44.12671" lon="0.60941">
        <ele>129</ele>
        <time>2025-08-10T08:44:52.696Z</time>
      </trkpt>
      <trkpt lat="44.1267" lon="0.6094">
        <ele>129</ele>
        <time>2025-08-10T08:44:53.696Z</time>
      </trkpt>
      <trkpt lat="44.12669" lon="0.60939">
        <ele>129</ele>
        <time>2025-08-10T08:44:54.696Z</time>
      </trkpt>
      <trkpt lat="44.12668" lon="0.60939">
        <ele>129</ele>
        <time>2025-08-10T08:44:55.696Z</time>
      </trkpt>
      <trkpt lat="44.12668" lon="0.60938">
        <ele>128</ele>
        <time>2025-08-10T08:44:56.696Z</time>
      </trkpt>
      <trkpt lat="44.12668" lon="0.60938">
        <ele>128</ele>
        <time>2025-08-10T08:44:57.696Z</time>
      </trkpt>
      <trkpt lat="44.12668" lon="0.60938">
        <ele>127</ele>
        <time>2025-08-10T08:44:58.697Z</time>
      </trkpt>
      <trkpt lat="44.12668" lon="0.60938">
        <ele>127</ele>
        <time>2025-08-10T08:44:59.696Z</time>
      </trkpt>
      <trkpt lat="44.12668" lon="0.60938">
        <ele>126</ele>
        <time>2025-08-10T08:45:00.696Z</time>
      </trkpt>
      <trkpt lat="44.12668" lon="0.60938">
        <ele>126</ele>
        <time>2025-08-10T08:45:01.696Z</time>
      </trkpt>
      <trkpt lat="44.12668" lon="0.60938">
        <ele>126</ele>
        <time>2025-08-10T08:45:02.696Z</time>
      </trkpt>
      <trkpt lat="44.12668" lon="0.60938">
        <ele>126</ele>
        <time>2025-08-10T08:45:03.696Z</time>
      </trkpt>
      <trkpt lat="44.12668" lon="0.60939">
        <ele>126</ele>
        <time>2025-08-10T08:45:04.696Z</time>
      </trkpt>
      <trkpt lat="44.12668" lon="0.60938">
        <ele>125</ele>
        <time>2025-08-10T08:45:05.696Z</time>
      </trkpt>
      <trkpt lat="44.12668" lon="0.60938">
        <ele>126</ele>
        <time>2025-08-10T08:45:06.696Z</time>
      </trkpt>
      <trkpt lat="44.12668" lon="0.60938">
        <ele>126</ele>
        <time>2025-08-10T08:45:07.696Z</time>
      </trkpt>
      <trkpt lat="44.12668" lon="0.60938">
        <ele>126</ele>
        <time>2025-08-10T08:45:08.696Z</time>
      </trkpt>
      <trkpt lat="44.12668" lon="0.60938">
        <ele>126</ele>
        <time>2025-08-10T08:45:09.696Z</time>
      </trkpt>
      <trkpt lat="44.12668" lon="0.60939">
        <ele>126</ele>
        <time>2025-08-10T08:45:10.696Z</time>
      </trkpt>
      <trkpt lat="44.12668" lon="0.60938">
        <ele>126</ele>
        <time>2025-08-10T08:45:11.696Z</time>
      </trkpt>
      <trkpt lat="44.12668" lon="0.60938">
        <ele>125</ele>
        <time>2025-08-10T08:45:12.696Z</time>
      </trkpt>
      <trkpt lat="44.12668" lon="0.60938">
        <ele>125</ele>
        <time>2025-08-10T08:45:13.696Z</time>
      </trkpt>
      <trkpt lat="44.12667" lon="0.60937">
        <ele>125</ele>
        <time>2025-08-10T08:45:14.696Z</time>
      </trkpt>
      <trkpt lat="44.12668" lon="0.60935">
        <ele>125</ele>
        <time>2025-08-10T08:45:15.696Z</time>
      </trkpt>
      <trkpt lat="44.12668" lon="0.60935">
        <ele>125</ele>
        <time>2025-08-10T08:45:16.696Z</time>
      </trkpt>
      <trkpt lat="44.12668" lon="0.60934">
        <ele>124</ele>
        <time>2025-08-10T08:45:17.696Z</time>
      </trkpt>
      <trkpt lat="44.12668" lon="0.60934">
        <ele>124</ele>
        <time>2025-08-10T08:45:18.696Z</time>
      </trkpt>
      <trkpt lat="44.12668" lon="0.60934">
        <ele>124</ele>
        <time>2025-08-10T08:45:19.696Z</time>
      </trkpt>
      <trkpt lat="44.12668" lon="0.60934">
        <ele>123</ele>
        <time>2025-08-10T08:45:20.696Z</time>
      </trkpt>
      <trkpt lat="44.12667" lon="0.60934">
        <ele>123</ele>
        <time>2025-08-10T08:45:21.696Z</time>
      </trkpt>
      <trkpt lat="44.12668" lon="0.60933">
        <ele>123</ele>
        <time>2025-08-10T08:45:22.696Z</time>
      </trkpt>
      <trkpt lat="44.12668" lon="0.60933">
        <ele>123</ele>
        <time>2025-08-10T08:45:23.696Z</time>
      </trkpt>
      <trkpt lat="44.12668" lon="0.60933">
        <ele>123</ele>
        <time>2025-08-10T08:45:24.696Z</time>
      </trkpt>
      <trkpt lat="44.12668" lon="0.60933">
        <ele>123</ele>
        <time>2025-08-10T08:45:25.696Z</time>
      </trkpt>
      <trkpt lat="44.12668" lon="0.60933">
        <ele>123</ele>
        <time>2025-08-10T08:45:26.696Z</time>
      </trkpt>
      <trkpt lat="44.12669" lon="0.60933">
        <ele>123</ele>
        <time>2025-08-10T08:45:27.696Z</time>
      </trkpt>
      <trkpt lat="44.12669" lon="0.60934">
        <ele>123</ele>
        <time>2025-08-10T08:45:28.696Z</time>
      </trkpt>
      <trkpt lat="44.12669" lon="0.60934">
        <ele>123</ele>
        <time>2025-08-10T08:45:29.696Z</time>
      </trkpt>
      <trkpt lat="44.12669" lon="0.60933">
        <ele>123</ele>
        <time>2025-08-10T08:45:30.696Z</time>
      </trkpt>
      <trkpt lat="44.12669" lon="0.60933">
        <ele>123</ele>
        <time>2025-08-10T08:45:31.696Z</time>
      </trkpt>
      <trkpt lat="44.12669" lon="0.60933">
        <ele>123</ele>
        <time>2025-08-10T08:45:32.696Z</time>
      </trkpt>
      <trkpt lat="44.12668" lon="0.60932">
        <ele>123</ele>
        <time>2025-08-10T08:45:33.696Z</time>
      </trkpt>
      <trkpt lat="44.12667" lon="0.60931">
        <ele>124</ele>
        <time>2025-08-10T08:45:34.696Z</time>
      </trkpt>
      <trkpt lat="44.12667" lon="0.60931">
        <ele>124</ele>
        <time>2025-08-10T08:45:35.696Z</time>
      </trkpt>
      <trkpt lat="44.12666" lon="0.60931">
        <ele>124</ele>
        <time>2025-08-10T08:45:36.696Z</time>
      </trkpt>
      <trkpt lat="44.12665" lon="0.60931">
        <ele>124</ele>
        <time>2025-08-10T08:45:37.696Z</time>
      </trkpt>
      <trkpt lat="44.12665" lon="0.6093">
        <ele>124</ele>
        <time>2025-08-10T08:45:38.696Z</time>
      </trkpt>
      <trkpt lat="44.12665" lon="0.6093">
        <ele>124</ele>
        <time>2025-08-10T08:45:39.696Z</time>
      </trkpt>
      <trkpt lat="44.12664" lon="0.6093">
        <ele>123</ele>
        <time>2025-08-10T08:45:40.696Z</time>
      </trkpt>
      <trkpt lat="44.12663" lon="0.6093">
        <ele>123</ele>
        <time>2025-08-10T08:45:41.696Z</time>
      </trkpt>
      <trkpt lat="44.12662" lon="0.6093">
        <ele>123</ele>
        <time>2025-08-10T08:45:42.696Z</time>
      </trkpt>
      <trkpt lat="44.12661" lon="0.60929">
        <ele>123</ele>
        <time>2025-08-10T08:45:43.696Z</time>
      </trkpt>
      <trkpt lat="44.1266" lon="0.60929">
        <ele>123</ele>
        <time>2025-08-10T08:45:44.696Z</time>
      </trkpt>
      <trkpt lat="44.12658" lon="0.60929">
        <ele>123</ele>
        <time>2025-08-10T08:45:45.696Z</time>
      </trkpt>
      <trkpt lat="44.12657" lon="0.60929">
        <ele>124</ele>
        <time>2025-08-10T08:45:46.696Z</time>
      </trkpt>
      <trkpt lat="44.12656" lon="0.60929">
        <ele>124</ele>
        <time>2025-08-10T08:45:47.696Z</time>
      </trkpt>
      <trkpt lat="44.12655" lon="0.60929">
        <ele>124</ele>
        <time>2025-08-10T08:45:48.696Z</time>
      </trkpt>
      <trkpt lat="44.12654" lon="0.60928">
        <ele>124</ele>
        <time>2025-08-10T08:45:49.696Z</time>
      </trkpt>
      <trkpt lat="44.12653" lon="0.60928">
        <ele>124</ele>
        <time>2025-08-10T08:45:50.696Z</time>
      </trkpt>
      <trkpt lat="44.12652" lon="0.60928">
        <ele>124</ele>
        <time>2025-08-10T08:45:51.696Z</time>
      </trkpt>
      <trkpt lat="44.12652" lon="0.60928">
        <ele>124</ele>
        <time>2025-08-10T08:45:52.696Z</time>
      </trkpt>
      <trkpt lat="44.12652" lon="0.60927">
        <ele>124</ele>
        <time>2025-08-10T08:45:53.696Z</time>
      </trkpt>
      <trkpt lat="44.12651" lon="0.60927">
        <ele>124</ele>
        <time>2025-08-10T08:45:54.696Z</time>
      </trkpt>
      <trkpt lat="44.1265" lon="0.60927">
        <ele>123</ele>
        <time>2025-08-10T08:45:55.696Z</time>
      </trkpt>
      <trkpt lat="44.12649" lon="0.60926">
        <ele>123</ele>
        <time>2025-08-10T08:45:56.696Z</time>
      </trkpt>
      <trkpt lat="44.12647" lon="0.60925">
        <ele>123</ele>
        <time>2025-08-10T08:45:57.696Z</time>
      </trkpt>
      <trkpt lat="44.12646" lon="0.60924">
        <ele>124</ele>
        <time>2025-08-10T08:45:58.696Z</time>
      </trkpt>
      <trkpt lat="44.12644" lon="0.60923">
        <ele>124</ele>
        <time>2025-08-10T08:45:59.696Z</time>
      </trkpt>
      <trkpt lat="44.12643" lon="0.60922">
        <ele>124</ele>
        <time>2025-08-10T08:46:00.696Z</time>
      </trkpt>
      <trkpt lat="44.12642" lon="0.60921">
        <ele>125</ele>
        <time>2025-08-10T08:46:01.696Z</time>
      </trkpt>
      <trkpt lat="44.12642" lon="0.6092">
        <ele>124</ele>
        <time>2025-08-10T08:46:02.696Z</time>
      </trkpt>
      <trkpt lat="44.12642" lon="0.60919">
        <ele>124</ele>
        <time>2025-08-10T08:46:03.696Z</time>
      </trkpt>
      <trkpt lat="44.12642" lon="0.60918">
        <ele>124</ele>
        <time>2025-08-10T08:46:04.696Z</time>
      </trkpt>
      <trkpt lat="44.1264" lon="0.60917">
        <ele>124</ele>
        <time>2025-08-10T08:46:05.696Z</time>
      </trkpt>
      <trkpt lat="44.1264" lon="0.60915">
        <ele>124</ele>
        <time>2025-08-10T08:46:06.696Z</time>
      </trkpt>
      <trkpt lat="44.12639" lon="0.60914">
        <ele>124</ele>
        <time>2025-08-10T08:46:07.696Z</time>
      </trkpt>
      <trkpt lat="44.12639" lon="0.60912">
        <ele>125</ele>
        <time>2025-08-10T08:46:08.696Z</time>
      </trkpt>
      <trkpt lat="44.12639" lon="0.60911">
        <ele>125</ele>
        <time>2025-08-10T08:46:09.696Z</time>
      </trkpt>
      <trkpt lat="44.12639" lon="0.6091">
        <ele>125</ele>
        <time>2025-08-10T08:46:10.696Z</time>
      </trkpt>
      <trkpt lat="44.12639" lon="0.60908">
        <ele>124</ele>
        <time>2025-08-10T08:46:11.696Z</time>
      </trkpt>
      <trkpt lat="44.12639" lon="0.60907">
        <ele>124</ele>
        <time>2025-08-10T08:46:12.696Z</time>
      </trkpt>
      <trkpt lat="44.12639" lon="0.60906">
        <ele>124</ele>
        <time>2025-08-10T08:46:13.696Z</time>
      </trkpt>
      <trkpt lat="44.12639" lon="0.60904">
        <ele>124</ele>
        <time>2025-08-10T08:46:14.696Z</time>
      </trkpt>
      <trkpt lat="44.12639" lon="0.60903">
        <ele>124</ele>
        <time>2025-08-10T08:46:15.696Z</time>
      </trkpt>
      <trkpt lat="44.1264" lon="0.60902">
        <ele>124</ele>
        <time>2025-08-10T08:46:16.696Z</time>
      </trkpt>
      <trkpt lat="44.1264" lon="0.609">
        <ele>123</ele>
        <time>2025-08-10T08:46:17.696Z</time>
      </trkpt>
      <trkpt lat="44.1264" lon="0.60899">
        <ele>123</ele>
        <time>2025-08-10T08:46:18.696Z</time>
      </trkpt>
      <trkpt lat="44.12639" lon="0.60896">
        <ele>122</ele>
        <time>2025-08-10T08:46:19.696Z</time>
      </trkpt>
      <trkpt lat="44.1264" lon="0.60894">
        <ele>122</ele>
        <time>2025-08-10T08:46:20.696Z</time>
      </trkpt>
      <trkpt lat="44.1264" lon="0.60891">
        <ele>122</ele>
        <time>2025-08-10T08:46:21.696Z</time>
      </trkpt>
      <trkpt lat="44.12641" lon="0.60889">
        <ele>121</ele>
        <time>2025-08-10T08:46:22.696Z</time>
      </trkpt>
      <trkpt lat="44.12641" lon="0.60887">
        <ele>121</ele>
        <time>2025-08-10T08:46:23.696Z</time>
      </trkpt>
      <trkpt lat="44.12641" lon="0.60886">
        <ele>121</ele>
        <time>2025-08-10T08:46:24.696Z</time>
      </trkpt>
      <trkpt lat="44.12641" lon="0.60884">
        <ele>121</ele>
        <time>2025-08-10T08:46:25.696Z</time>
      </trkpt>
      <trkpt lat="44.12641" lon="0.60884">
        <ele>121</ele>
        <time>2025-08-10T08:46:26.696Z</time>
      </trkpt>
      <trkpt lat="44.12642" lon="0.60882">
        <ele>120</ele>
        <time>2025-08-10T08:46:27.696Z</time>
      </trkpt>
      <trkpt lat="44.12642" lon="0.60881">
        <ele>120</ele>
        <time>2025-08-10T08:46:28.696Z</time>
      </trkpt>
      <trkpt lat="44.12642" lon="0.6088">
        <ele>119</ele>
        <time>2025-08-10T08:46:29.696Z</time>
      </trkpt>
      <trkpt lat="44.12643" lon="0.60878">
        <ele>118</ele>
        <time>2025-08-10T08:46:30.696Z</time>
      </trkpt>
      <trkpt lat="44.12643" lon="0.60877">
        <ele>117</ele>
        <time>2025-08-10T08:46:31.696Z</time>
      </trkpt>
      <trkpt lat="44.12643" lon="0.60875">
        <ele>117</ele>
        <time>2025-08-10T08:46:32.696Z</time>
      </trkpt>
      <trkpt lat="44.12643" lon="0.60874">
        <ele>116</ele>
        <time>2025-08-10T08:46:33.696Z</time>
      </trkpt>
      <trkpt lat="44.12643" lon="0.60873">
        <ele>116</ele>
        <time>2025-08-10T08:46:34.696Z</time>
      </trkpt>
      <trkpt lat="44.12644" lon="0.60872">
        <ele>116</ele>
        <time>2025-08-10T08:46:35.696Z</time>
      </trkpt>
      <trkpt lat="44.12644" lon="0.60871">
        <ele>115</ele>
        <time>2025-08-10T08:46:36.696Z</time>
      </trkpt>
      <trkpt lat="44.12643" lon="0.6087">
        <ele>115</ele>
        <time>2025-08-10T08:46:37.696Z</time>
      </trkpt>
      <trkpt lat="44.12643" lon="0.60869">
        <ele>115</ele>
        <time>2025-08-10T08:46:38.696Z</time>
      </trkpt>
      <trkpt lat="44.12644" lon="0.60867">
        <ele>115</ele>
        <time>2025-08-10T08:46:39.696Z</time>
      </trkpt>
      <trkpt lat="44.12644" lon="0.60866">
        <ele>115</ele>
        <time>2025-08-10T08:46:40.696Z</time>
      </trkpt>
      <trkpt lat="44.12644" lon="0.60864">
        <ele>116</ele>
        <time>2025-08-10T08:46:41.696Z</time>
      </trkpt>
      <trkpt lat="44.12645" lon="0.60863">
        <ele>116</ele>
        <time>2025-08-10T08:46:42.696Z</time>
      </trkpt>
      <trkpt lat="44.12646" lon="0.60862">
        <ele>116</ele>
        <time>2025-08-10T08:46:43.696Z</time>
      </trkpt>
      <trkpt lat="44.12646" lon="0.60861">
        <ele>116</ele>
        <time>2025-08-10T08:46:44.696Z</time>
      </trkpt>
      <trkpt lat="44.12646" lon="0.6086">
        <ele>116</ele>
        <time>2025-08-10T08:46:45.696Z</time>
      </trkpt>
      <trkpt lat="44.12646" lon="0.60858">
        <ele>116</ele>
        <time>2025-08-10T08:46:46.696Z</time>
      </trkpt>
      <trkpt lat="44.12646" lon="0.60857">
        <ele>116</ele>
        <time>2025-08-10T08:46:47.696Z</time>
      </trkpt>
      <trkpt lat="44.12646" lon="0.60855">
        <ele>116</ele>
        <time>2025-08-10T08:46:48.696Z</time>
      </trkpt>
      <trkpt lat="44.12646" lon="0.60854">
        <ele>115</ele>
        <time>2025-08-10T08:46:49.696Z</time>
      </trkpt>
      <trkpt lat="44.12646" lon="0.60853">
        <ele>115</ele>
        <time>2025-08-10T08:46:50.696Z</time>
      </trkpt>
      <trkpt lat="44.12646" lon="0.60852">
        <ele>115</ele>
        <time>2025-08-10T08:46:51.696Z</time>
      </trkpt>
      <trkpt lat="44.12646" lon="0.6085">
        <ele>115</ele>
        <time>2025-08-10T08:46:52.696Z</time>
      </trkpt>
      <trkpt lat="44.12646" lon="0.60849">
        <ele>115</ele>
        <time>2025-08-10T08:46:53.696Z</time>
      </trkpt>
      <trkpt lat="44.12645" lon="0.60847">
        <ele>115</ele>
        <time>2025-08-10T08:46:54.696Z</time>
      </trkpt>
      <trkpt lat="44.12645" lon="0.60845">
        <ele>114</ele>
        <time>2025-08-10T08:46:55.696Z</time>
      </trkpt>
      <trkpt lat="44.12645" lon="0.60843">
        <ele>114</ele>
        <time>2025-08-10T08:46:56.696Z</time>
      </trkpt>
      <trkpt lat="44.12645" lon="0.60841">
        <ele>114</ele>
        <time>2025-08-10T08:46:57.696Z</time>
      </trkpt>
      <trkpt lat="44.12646" lon="0.6084">
        <ele>114</ele>
        <time>2025-08-10T08:46:58.696Z</time>
      </trkpt>
      <trkpt lat="44.12646" lon="0.60839">
        <ele>114</ele>
        <time>2025-08-10T08:46:59.696Z</time>
      </trkpt>
      <trkpt lat="44.12646" lon="0.60837">
        <ele>114</ele>
        <time>2025-08-10T08:47:00.696Z</time>
      </trkpt>
      <trkpt lat="44.12647" lon="0.60836">
        <ele>114</ele>
        <time>2025-08-10T08:47:01.696Z</time>
      </trkpt>
      <trkpt lat="44.12647" lon="0.60835">
        <ele>115</ele>
        <time>2025-08-10T08:47:02.696Z</time>
      </trkpt>
      <trkpt lat="44.12647" lon="0.60833">
        <ele>115</ele>
        <time>2025-08-10T08:47:03.696Z</time>
      </trkpt>
      <trkpt lat="44.12647" lon="0.60831">
        <ele>115</ele>
        <time>2025-08-10T08:47:04.696Z</time>
      </trkpt>
      <trkpt lat="44.12647" lon="0.60829">
        <ele>116</ele>
        <time>2025-08-10T08:47:05.696Z</time>
      </trkpt>
      <trkpt lat="44.12647" lon="0.60828">
        <ele>116</ele>
        <time>2025-08-10T08:47:06.696Z</time>
      </trkpt>
      <trkpt lat="44.12647" lon="0.60827">
        <ele>116</ele>
        <time>2025-08-10T08:47:07.696Z</time>
      </trkpt>
      <trkpt lat="44.12646" lon="0.60826">
        <ele>117</ele>
        <time>2025-08-10T08:47:08.696Z</time>
      </trkpt>
      <trkpt lat="44.12647" lon="0.60824">
        <ele>117</ele>
        <time>2025-08-10T08:47:09.696Z</time>
      </trkpt>
      <trkpt lat="44.12647" lon="0.60822">
        <ele>117</ele>
        <time>2025-08-10T08:47:10.696Z</time>
      </trkpt>
      <trkpt lat="44.12647" lon="0.60821">
        <ele>117</ele>
        <time>2025-08-10T08:47:11.696Z</time>
      </trkpt>
      <trkpt lat="44.12647" lon="0.60819">
        <ele>117</ele>
        <time>2025-08-10T08:47:12.696Z</time>
      </trkpt>
      <trkpt lat="44.12648" lon="0.60818">
        <ele>116</ele>
        <time>2025-08-10T08:47:13.696Z</time>
      </trkpt>
      <trkpt lat="44.12648" lon="0.60817">
        <ele>116</ele>
        <time>2025-08-10T08:47:14.696Z</time>
      </trkpt>
      <trkpt lat="44.12648" lon="0.60815">
        <ele>117</ele>
        <time>2025-08-10T08:47:15.696Z</time>
      </trkpt>
      <trkpt lat="44.12649" lon="0.60814">
        <ele>117</ele>
        <time>2025-08-10T08:47:16.696Z</time>
      </trkpt>
      <trkpt lat="44.12649" lon="0.60812">
        <ele>117</ele>
        <time>2025-08-10T08:47:17.696Z</time>
      </trkpt>
      <trkpt lat="44.12649" lon="0.60812">
        <ele>117</ele>
        <time>2025-08-10T08:47:18.696Z</time>
      </trkpt>
      <trkpt lat="44.12649" lon="0.60811">
        <ele>116</ele>
        <time>2025-08-10T08:47:19.696Z</time>
      </trkpt>
      <trkpt lat="44.1265" lon="0.6081">
        <ele>116</ele>
        <time>2025-08-10T08:47:20.696Z</time>
      </trkpt>
      <trkpt lat="44.1265" lon="0.60809">
        <ele>116</ele>
        <time>2025-08-10T08:47:21.696Z</time>
      </trkpt>
      <trkpt lat="44.1265" lon="0.60807">
        <ele>115</ele>
        <time>2025-08-10T08:47:22.696Z</time>
      </trkpt>
      <trkpt lat="44.12651" lon="0.60804">
        <ele>115</ele>
        <time>2025-08-10T08:47:23.696Z</time>
      </trkpt>
      <trkpt lat="44.12651" lon="0.60801">
        <ele>115</ele>
        <time>2025-08-10T08:47:24.696Z</time>
      </trkpt>
      <trkpt lat="44.12652" lon="0.608">
        <ele>116</ele>
        <time>2025-08-10T08:47:25.696Z</time>
      </trkpt>
      <trkpt lat="44.12653" lon="0.60798">
        <ele>116</ele>
        <time>2025-08-10T08:47:26.696Z</time>
      </trkpt>
      <trkpt lat="44.12653" lon="0.60797">
        <ele>116</ele>
        <time>2025-08-10T08:47:27.696Z</time>
      </trkpt>
      <trkpt lat="44.12653" lon="0.60795">
        <ele>116</ele>
        <time>2025-08-10T08:47:28.696Z</time>
      </trkpt>
      <trkpt lat="44.12654" lon="0.60794">
        <ele>116</ele>
        <time>2025-08-10T08:47:29.696Z</time>
      </trkpt>
      <trkpt lat="44.12655" lon="0.60793">
        <ele>116</ele>
        <time>2025-08-10T08:47:30.696Z</time>
      </trkpt>
      <trkpt lat="44.12656" lon="0.6079">
        <ele>116</ele>
        <time>2025-08-10T08:47:31.696Z</time>
      </trkpt>
      <trkpt lat="44.12656" lon="0.60788">
        <ele>116</ele>
        <time>2025-08-10T08:47:32.696Z</time>
      </trkpt>
      <trkpt lat="44.12656" lon="0.60784">
        <ele>115</ele>
        <time>2025-08-10T08:47:33.696Z</time>
      </trkpt>
      <trkpt lat="44.12655" lon="0.60782">
        <ele>115</ele>
        <time>2025-08-10T08:47:34.696Z</time>
      </trkpt>
      <trkpt lat="44.12654" lon="0.6078">
        <ele>115</ele>
        <time>2025-08-10T08:47:35.696Z</time>
      </trkpt>
      <trkpt lat="44.12655" lon="0.6078">
        <ele>115</ele>
        <time>2025-08-10T08:47:36.696Z</time>
      </trkpt>
      <trkpt lat="44.12655" lon="0.6078">
        <ele>115</ele>
        <time>2025-08-10T08:47:37.696Z</time>
      </trkpt>
      <trkpt lat="44.12655" lon="0.6078">
        <ele>114</ele>
        <time>2025-08-10T08:47:38.696Z</time>
      </trkpt>
      <trkpt lat="44.12655" lon="0.60778">
        <ele>114</ele>
        <time>2025-08-10T08:47:39.696Z</time>
      </trkpt>
      <trkpt lat="44.12654" lon="0.60776">
        <ele>114</ele>
        <time>2025-08-10T08:47:40.696Z</time>
      </trkpt>
      <trkpt lat="44.12654" lon="0.60775">
        <ele>114</ele>
        <time>2025-08-10T08:47:41.696Z</time>
      </trkpt>
      <trkpt lat="44.12654" lon="0.60774">
        <ele>113</ele>
        <time>2025-08-10T08:47:42.696Z</time>
      </trkpt>
      <trkpt lat="44.12654" lon="0.60773">
        <ele>113</ele>
        <time>2025-08-10T08:47:43.696Z</time>
      </trkpt>
      <trkpt lat="44.12655" lon="0.60772">
        <ele>113</ele>
        <time>2025-08-10T08:47:44.696Z</time>
      </trkpt>
      <trkpt lat="44.12655" lon="0.60771">
        <ele>113</ele>
        <time>2025-08-10T08:47:45.696Z</time>
      </trkpt>
      <trkpt lat="44.12655" lon="0.6077">
        <ele>113</ele>
        <time>2025-08-10T08:47:46.696Z</time>
      </trkpt>
      <trkpt lat="44.12655" lon="0.60768">
        <ele>113</ele>
        <time>2025-08-10T08:47:47.696Z</time>
      </trkpt>
      <trkpt lat="44.12655" lon="0.60767">
        <ele>113</ele>
        <time>2025-08-10T08:47:48.696Z</time>
      </trkpt>
      <trkpt lat="44.12655" lon="0.60766">
        <ele>113</ele>
        <time>2025-08-10T08:47:49.696Z</time>
      </trkpt>
      <trkpt lat="44.12655" lon="0.60765">
        <ele>113</ele>
        <time>2025-08-10T08:47:50.696Z</time>
      </trkpt>
      <trkpt lat="44.12655" lon="0.60764">
        <ele>113</ele>
        <time>2025-08-10T08:47:51.697Z</time>
      </trkpt>
      <trkpt lat="44.12655" lon="0.60762">
        <ele>113</ele>
        <time>2025-08-10T08:47:52.696Z</time>
      </trkpt>
      <trkpt lat="44.12655" lon="0.6076">
        <ele>113</ele>
        <time>2025-08-10T08:47:53.696Z</time>
      </trkpt>
      <trkpt lat="44.12655" lon="0.60758">
        <ele>112</ele>
        <time>2025-08-10T08:47:54.696Z</time>
      </trkpt>
      <trkpt lat="44.12656" lon="0.60755">
        <ele>112</ele>
        <time>2025-08-10T08:47:55.696Z</time>
      </trkpt>
      <trkpt lat="44.12656" lon="0.60754">
        <ele>112</ele>
        <time>2025-08-10T08:47:56.696Z</time>
      </trkpt>
      <trkpt lat="44.12656" lon="0.60752">
        <ele>112</ele>
        <time>2025-08-10T08:47:57.696Z</time>
      </trkpt>
      <trkpt lat="44.12656" lon="0.6075">
        <ele>112</ele>
        <time>2025-08-10T08:47:58.696Z</time>
      </trkpt>
      <trkpt lat="44.12656" lon="0.60749">
        <ele>112</ele>
        <time>2025-08-10T08:47:59.696Z</time>
      </trkpt>
      <trkpt lat="44.12657" lon="0.60747">
        <ele>112</ele>
        <time>2025-08-10T08:48:00.696Z</time>
      </trkpt>
      <trkpt lat="44.12657" lon="0.60746">
        <ele>112</ele>
        <time>2025-08-10T08:48:01.696Z</time>
      </trkpt>
      <trkpt lat="44.12658" lon="0.60746">
        <ele>112</ele>
        <time>2025-08-10T08:48:02.696Z</time>
      </trkpt>
      <trkpt lat="44.12658" lon="0.60745">
        <ele>112</ele>
        <time>2025-08-10T08:48:03.696Z</time>
      </trkpt>
      <trkpt lat="44.12658" lon="0.60744">
        <ele>112</ele>
        <time>2025-08-10T08:48:04.696Z</time>
      </trkpt>
      <trkpt lat="44.12658" lon="0.60743">
        <ele>112</ele>
        <time>2025-08-10T08:48:05.696Z</time>
      </trkpt>
      <trkpt lat="44.12659" lon="0.60741">
        <ele>112</ele>
        <time>2025-08-10T08:48:06.696Z</time>
      </trkpt>
      <trkpt lat="44.12659" lon="0.60739">
        <ele>112</ele>
        <time>2025-08-10T08:48:07.696Z</time>
      </trkpt>
      <trkpt lat="44.12659" lon="0.60737">
        <ele>113</ele>
        <time>2025-08-10T08:48:08.696Z</time>
      </trkpt>
      <trkpt lat="44.12659" lon="0.60736">
        <ele>113</ele>
        <time>2025-08-10T08:48:09.696Z</time>
      </trkpt>
      <trkpt lat="44.12659" lon="0.60735">
        <ele>113</ele>
        <time>2025-08-10T08:48:10.696Z</time>
      </trkpt>
      <trkpt lat="44.12659" lon="0.60734">
        <ele>113</ele>
        <time>2025-08-10T08:48:11.696Z</time>
      </trkpt>
      <trkpt lat="44.12659" lon="0.60732">
        <ele>114</ele>
        <time>2025-08-10T08:48:12.696Z</time>
      </trkpt>
      <trkpt lat="44.12659" lon="0.60731">
        <ele>114</ele>
        <time>2025-08-10T08:48:13.696Z</time>
      </trkpt>
      <trkpt lat="44.12659" lon="0.60729">
        <ele>114</ele>
        <time>2025-08-10T08:48:14.696Z</time>
      </trkpt>
      <trkpt lat="44.12659" lon="0.60727">
        <ele>115</ele>
        <time>2025-08-10T08:48:15.696Z</time>
      </trkpt>
      <trkpt lat="44.12658" lon="0.60726">
        <ele>115</ele>
        <time>2025-08-10T08:48:16.696Z</time>
      </trkpt>
      <trkpt lat="44.12659" lon="0.60724">
        <ele>115</ele>
        <time>2025-08-10T08:48:17.696Z</time>
      </trkpt>
      <trkpt lat="44.12658" lon="0.60723">
        <ele>115</ele>
        <time>2025-08-10T08:48:18.696Z</time>
      </trkpt>
      <trkpt lat="44.12658" lon="0.60722">
        <ele>115</ele>
        <time>2025-08-10T08:48:19.696Z</time>
      </trkpt>
      <trkpt lat="44.12659" lon="0.60721">
        <ele>115</ele>
        <time>2025-08-10T08:48:20.696Z</time>
      </trkpt>
      <trkpt lat="44.12659" lon="0.6072">
        <ele>115</ele>
        <time>2025-08-10T08:48:21.696Z</time>
      </trkpt>
      <trkpt lat="44.12658" lon="0.60719">
        <ele>115</ele>
        <time>2025-08-10T08:48:22.696Z</time>
      </trkpt>
      <trkpt lat="44.12658" lon="0.60718">
        <ele>115</ele>
        <time>2025-08-10T08:48:23.696Z</time>
      </trkpt>
      <trkpt lat="44.12657" lon="0.60716">
        <ele>116</ele>
        <time>2025-08-10T08:48:24.696Z</time>
      </trkpt>
      <trkpt lat="44.12656" lon="0.60715">
        <ele>116</ele>
        <time>2025-08-10T08:48:25.696Z</time>
      </trkpt>
      <trkpt lat="44.12655" lon="0.60713">
        <ele>116</ele>
        <time>2025-08-10T08:48:26.696Z</time>
      </trkpt>
      <trkpt lat="44.12654" lon="0.60712">
        <ele>117</ele>
        <time>2025-08-10T08:48:27.696Z</time>
      </trkpt>
      <trkpt lat="44.12653" lon="0.60712">
        <ele>117</ele>
        <time>2025-08-10T08:48:28.696Z</time>
      </trkpt>
      <trkpt lat="44.12652" lon="0.60711">
        <ele>117</ele>
        <time>2025-08-10T08:48:29.696Z</time>
      </trkpt>
      <trkpt lat="44.12651" lon="0.6071">
        <ele>117</ele>
        <time>2025-08-10T08:48:30.696Z</time>
      </trkpt>
      <trkpt lat="44.1265" lon="0.60709">
        <ele>117</ele>
        <time>2025-08-10T08:48:31.696Z</time>
      </trkpt>
      <trkpt lat="44.12649" lon="0.60708">
        <ele>117</ele>
        <time>2025-08-10T08:48:32.696Z</time>
      </trkpt>
      <trkpt lat="44.12648" lon="0.60708">
        <ele>117</ele>
        <time>2025-08-10T08:48:33.696Z</time>
      </trkpt>
      <trkpt lat="44.12647" lon="0.60708">
        <ele>117</ele>
        <time>2025-08-10T08:48:34.696Z</time>
      </trkpt>
      <trkpt lat="44.12647" lon="0.60707">
        <ele>117</ele>
        <time>2025-08-10T08:48:35.696Z</time>
      </trkpt>
      <trkpt lat="44.12646" lon="0.60706">
        <ele>117</ele>
        <time>2025-08-10T08:48:36.696Z</time>
      </trkpt>
      <trkpt lat="44.12645" lon="0.60705">
        <ele>117</ele>
        <time>2025-08-10T08:48:37.696Z</time>
      </trkpt>
      <trkpt lat="44.12645" lon="0.60705">
        <ele>117</ele>
        <time>2025-08-10T08:48:38.696Z</time>
      </trkpt>
      <trkpt lat="44.12644" lon="0.60704">
        <ele>116</ele>
        <time>2025-08-10T08:48:39.696Z</time>
      </trkpt>
      <trkpt lat="44.12643" lon="0.60703">
        <ele>116</ele>
        <time>2025-08-10T08:48:40.696Z</time>
      </trkpt>
      <trkpt lat="44.12643" lon="0.60702">
        <ele>116</ele>
        <time>2025-08-10T08:48:41.696Z</time>
      </trkpt>
      <trkpt lat="44.12642" lon="0.60701">
        <ele>116</ele>
        <time>2025-08-10T08:48:42.696Z</time>
      </trkpt>
      <trkpt lat="44.12641" lon="0.60701">
        <ele>116</ele>
        <time>2025-08-10T08:48:43.696Z</time>
      </trkpt>
      <trkpt lat="44.1264" lon="0.607">
        <ele>116</ele>
        <time>2025-08-10T08:48:44.696Z</time>
      </trkpt>
      <trkpt lat="44.12639" lon="0.60699">
        <ele>116</ele>
        <time>2025-08-10T08:48:45.696Z</time>
      </trkpt>
      <trkpt lat="44.12638" lon="0.60698">
        <ele>116</ele>
        <time>2025-08-10T08:48:46.696Z</time>
      </trkpt>
      <trkpt lat="44.12638" lon="0.60697">
        <ele>116</ele>
        <time>2025-08-10T08:48:47.696Z</time>
      </trkpt>
      <trkpt lat="44.12637" lon="0.60696">
        <ele>116</ele>
        <time>2025-08-10T08:48:48.696Z</time>
      </trkpt>
      <trkpt lat="44.12637" lon="0.60696">
        <ele>116</ele>
        <time>2025-08-10T08:48:49.696Z</time>
      </trkpt>
      <trkpt lat="44.12636" lon="0.60694">
        <ele>117</ele>
        <time>2025-08-10T08:48:50.696Z</time>
      </trkpt>
      <trkpt lat="44.12635" lon="0.60693">
        <ele>117</ele>
        <time>2025-08-10T08:48:51.696Z</time>
      </trkpt>
      <trkpt lat="44.12635" lon="0.60692">
        <ele>117</ele>
        <time>2025-08-10T08:48:52.696Z</time>
      </trkpt>
      <trkpt lat="44.12634" lon="0.60691">
        <ele>117</ele>
        <time>2025-08-10T08:48:53.696Z</time>
      </trkpt>
      <trkpt lat="44.12634" lon="0.6069">
        <ele>118</ele>
        <time>2025-08-10T08:48:54.696Z</time>
      </trkpt>
      <trkpt lat="44.12633" lon="0.6069">
        <ele>118</ele>
        <time>2025-08-10T08:48:55.696Z</time>
      </trkpt>
      <trkpt lat="44.12632" lon="0.60689">
        <ele>119</ele>
        <time>2025-08-10T08:48:56.696Z</time>
      </trkpt>
      <trkpt lat="44.12632" lon="0.60689">
        <ele>119</ele>
        <time>2025-08-10T08:48:57.696Z</time>
      </trkpt>
      <trkpt lat="44.12631" lon="0.60689">
        <ele>119</ele>
        <time>2025-08-10T08:48:58.696Z</time>
      </trkpt>
      <trkpt lat="44.1263" lon="0.60688">
        <ele>120</ele>
        <time>2025-08-10T08:48:59.696Z</time>
      </trkpt>
      <trkpt lat="44.12629" lon="0.60688">
        <ele>120</ele>
        <time>2025-08-10T08:49:00.696Z</time>
      </trkpt>
      <trkpt lat="44.12627" lon="0.60687">
        <ele>121</ele>
        <time>2025-08-10T08:49:01.696Z</time>
      </trkpt>
      <trkpt lat="44.12626" lon="0.60686">
        <ele>121</ele>
        <time>2025-08-10T08:49:02.696Z</time>
      </trkpt>
      <trkpt lat="44.12625" lon="0.60685">
        <ele>121</ele>
        <time>2025-08-10T08:49:03.696Z</time>
      </trkpt>
      <trkpt lat="44.12624" lon="0.60684">
        <ele>121</ele>
        <time>2025-08-10T08:49:04.696Z</time>
      </trkpt>
      <trkpt lat="44.12623" lon="0.60683">
        <ele>121</ele>
        <time>2025-08-10T08:49:05.696Z</time>
      </trkpt>
      <trkpt lat="44.12622" lon="0.60683">
        <ele>121</ele>
        <time>2025-08-10T08:49:06.696Z</time>
      </trkpt>
      <trkpt lat="44.12621" lon="0.60682">
        <ele>121</ele>
        <time>2025-08-10T08:49:07.696Z</time>
      </trkpt>
      <trkpt lat="44.1262" lon="0.60682">
        <ele>122</ele>
        <time>2025-08-10T08:49:08.696Z</time>
      </trkpt>
      <trkpt lat="44.12619" lon="0.60681">
        <ele>122</ele>
        <time>2025-08-10T08:49:09.696Z</time>
      </trkpt>
      <trkpt lat="44.12618" lon="0.6068">
        <ele>122</ele>
        <time>2025-08-10T08:49:10.696Z</time>
      </trkpt>
      <trkpt lat="44.12617" lon="0.6068">
        <ele>122</ele>
        <time>2025-08-10T08:49:11.696Z</time>
      </trkpt>
      <trkpt lat="44.12616" lon="0.6068">
        <ele>123</ele>
        <time>2025-08-10T08:49:12.696Z</time>
      </trkpt>
      <trkpt lat="44.12615" lon="0.6068">
        <ele>123</ele>
        <time>2025-08-10T08:49:13.696Z</time>
      </trkpt>
      <trkpt lat="44.12614" lon="0.60679">
        <ele>123</ele>
        <time>2025-08-10T08:49:14.696Z</time>
      </trkpt>
      <trkpt lat="44.12613" lon="0.60678">
        <ele>123</ele>
        <time>2025-08-10T08:49:15.696Z</time>
      </trkpt>
      <trkpt lat="44.12612" lon="0.60678">
        <ele>123</ele>
        <time>2025-08-10T08:49:16.696Z</time>
      </trkpt>
      <trkpt lat="44.1261" lon="0.60677">
        <ele>122</ele>
        <time>2025-08-10T08:49:17.696Z</time>
      </trkpt>
      <trkpt lat="44.12608" lon="0.60676">
        <ele>122</ele>
        <time>2025-08-10T08:49:18.696Z</time>
      </trkpt>
      <trkpt lat="44.12607" lon="0.60676">
        <ele>122</ele>
        <time>2025-08-10T08:49:19.696Z</time>
      </trkpt>
      <trkpt lat="44.12606" lon="0.60675">
        <ele>121</ele>
        <time>2025-08-10T08:49:20.696Z</time>
      </trkpt>
      <trkpt lat="44.12605" lon="0.60674">
        <ele>121</ele>
        <time>2025-08-10T08:49:21.696Z</time>
      </trkpt>
      <trkpt lat="44.12604" lon="0.60673">
        <ele>121</ele>
        <time>2025-08-10T08:49:22.696Z</time>
      </trkpt>
      <trkpt lat="44.12604" lon="0.60673">
        <ele>121</ele>
        <time>2025-08-10T08:49:23.696Z</time>
      </trkpt>
      <trkpt lat="44.12603" lon="0.60673">
        <ele>121</ele>
        <time>2025-08-10T08:49:24.696Z</time>
      </trkpt>
      <trkpt lat="44.12603" lon="0.60674">
        <ele>121</ele>
        <time>2025-08-10T08:49:25.696Z</time>
      </trkpt>
      <trkpt lat="44.12602" lon="0.60673">
        <ele>121</ele>
        <time>2025-08-10T08:49:26.696Z</time>
      </trkpt>
      <trkpt lat="44.12601" lon="0.60672">
        <ele>121</ele>
        <time>2025-08-10T08:49:27.696Z</time>
      </trkpt>
      <trkpt lat="44.126" lon="0.60671">
        <ele>120</ele>
        <time>2025-08-10T08:49:28.696Z</time>
      </trkpt>
      <trkpt lat="44.12599" lon="0.6067">
        <ele>120</ele>
        <time>2025-08-10T08:49:29.696Z</time>
      </trkpt>
      <trkpt lat="44.12597" lon="0.60669">
        <ele>120</ele>
        <time>2025-08-10T08:49:30.696Z</time>
      </trkpt>
      <trkpt lat="44.12596" lon="0.60668">
        <ele>120</ele>
        <time>2025-08-10T08:49:31.696Z</time>
      </trkpt>
      <trkpt lat="44.12595" lon="0.60666">
        <ele>120</ele>
        <time>2025-08-10T08:49:32.696Z</time>
      </trkpt>
      <trkpt lat="44.12594" lon="0.60666">
        <ele>121</ele>
        <time>2025-08-10T08:49:33.696Z</time>
      </trkpt>
      <trkpt lat="44.12593" lon="0.60665">
        <ele>121</ele>
        <time>2025-08-10T08:49:34.696Z</time>
      </trkpt>
      <trkpt lat="44.12592" lon="0.60665">
        <ele>121</ele>
        <time>2025-08-10T08:49:35.696Z</time>
      </trkpt>
      <trkpt lat="44.12591" lon="0.60665">
        <ele>122</ele>
        <time>2025-08-10T08:49:36.696Z</time>
      </trkpt>
      <trkpt lat="44.1259" lon="0.60664">
        <ele>122</ele>
        <time>2025-08-10T08:49:37.696Z</time>
      </trkpt>
      <trkpt lat="44.12589" lon="0.60663">
        <ele>123</ele>
        <time>2025-08-10T08:49:38.696Z</time>
      </trkpt>
      <trkpt lat="44.12588" lon="0.60663">
        <ele>123</ele>
        <time>2025-08-10T08:49:39.696Z</time>
      </trkpt>
      <trkpt lat="44.12587" lon="0.60663">
        <ele>124</ele>
        <time>2025-08-10T08:49:40.696Z</time>
      </trkpt>
      <trkpt lat="44.12585" lon="0.60663">
        <ele>124</ele>
        <time>2025-08-10T08:49:41.696Z</time>
      </trkpt>
      <trkpt lat="44.12584" lon="0.60663">
        <ele>124</ele>
        <time>2025-08-10T08:49:42.696Z</time>
      </trkpt>
      <trkpt lat="44.12583" lon="0.60662">
        <ele>124</ele>
        <time>2025-08-10T08:49:43.696Z</time>
      </trkpt>
      <trkpt lat="44.12582" lon="0.60662">
        <ele>124</ele>
        <time>2025-08-10T08:49:44.696Z</time>
      </trkpt>
      <trkpt lat="44.1258" lon="0.60661">
        <ele>124</ele>
        <time>2025-08-10T08:49:45.696Z</time>
      </trkpt>
      <trkpt lat="44.12579" lon="0.60661">
        <ele>125</ele>
        <time>2025-08-10T08:49:46.696Z</time>
      </trkpt>
      <trkpt lat="44.12578" lon="0.6066">
        <ele>125</ele>
        <time>2025-08-10T08:49:47.696Z</time>
      </trkpt>
      <trkpt lat="44.12577" lon="0.6066">
        <ele>125</ele>
        <time>2025-08-10T08:49:48.696Z</time>
      </trkpt>
      <trkpt lat="44.12576" lon="0.60659">
        <ele>125</ele>
        <time>2025-08-10T08:49:49.696Z</time>
      </trkpt>
      <trkpt lat="44.12575" lon="0.60658">
        <ele>125</ele>
        <time>2025-08-10T08:49:50.696Z</time>
      </trkpt>
      <trkpt lat="44.12575" lon="0.60658">
        <ele>125</ele>
        <time>2025-08-10T08:49:51.696Z</time>
      </trkpt>
      <trkpt lat="44.12574" lon="0.60657">
        <ele>125</ele>
        <time>2025-08-10T08:49:52.696Z</time>
      </trkpt>
      <trkpt lat="44.12573" lon="0.60657">
        <ele>125</ele>
        <time>2025-08-10T08:49:53.696Z</time>
      </trkpt>
      <trkpt lat="44.12572" lon="0.60656">
        <ele>125</ele>
        <time>2025-08-10T08:49:54.696Z</time>
      </trkpt>
      <trkpt lat="44.1257" lon="0.60656">
        <ele>125</ele>
        <time>2025-08-10T08:49:55.696Z</time>
      </trkpt>
      <trkpt lat="44.12569" lon="0.60655">
        <ele>125</ele>
        <time>2025-08-10T08:49:56.696Z</time>
      </trkpt>
      <trkpt lat="44.12567" lon="0.60655">
        <ele>125</ele>
        <time>2025-08-10T08:49:57.696Z</time>
      </trkpt>
      <trkpt lat="44.12566" lon="0.60656">
        <ele>125</ele>
        <time>2025-08-10T08:49:58.696Z</time>
      </trkpt>
      <trkpt lat="44.12566" lon="0.60656">
        <ele>125</ele>
        <time>2025-08-10T08:49:59.696Z</time>
      </trkpt>
      <trkpt lat="44.12566" lon="0.60656">
        <ele>125</ele>
        <time>2025-08-10T08:50:00.696Z</time>
      </trkpt>
      <trkpt lat="44.12565" lon="0.60655">
        <ele>125</ele>
        <time>2025-08-10T08:50:01.696Z</time>
      </trkpt>
      <trkpt lat="44.12565" lon="0.60656">
        <ele>125</ele>
        <time>2025-08-10T08:50:02.696Z</time>
      </trkpt>
      <trkpt lat="44.12564" lon="0.60656">
        <ele>124</ele>
        <time>2025-08-10T08:50:03.696Z</time>
      </trkpt>
      <trkpt lat="44.12563" lon="0.60657">
        <ele>124</ele>
        <time>2025-08-10T08:50:04.696Z</time>
      </trkpt>
      <trkpt lat="44.12562" lon="0.60657">
        <ele>123</ele>
        <time>2025-08-10T08:50:05.696Z</time>
      </trkpt>
      <trkpt lat="44.1256" lon="0.60656">
        <ele>123</ele>
        <time>2025-08-10T08:50:06.696Z</time>
      </trkpt>
      <trkpt lat="44.12559" lon="0.60656">
        <ele>123</ele>
        <time>2025-08-10T08:50:07.696Z</time>
      </trkpt>
      <trkpt lat="44.12558" lon="0.60656">
        <ele>123</ele>
        <time>2025-08-10T08:50:08.696Z</time>
      </trkpt>
      <trkpt lat="44.12557" lon="0.60655">
        <ele>123</ele>
        <time>2025-08-10T08:50:09.696Z</time>
      </trkpt>
      <trkpt lat="44.12555" lon="0.60655">
        <ele>122</ele>
        <time>2025-08-10T08:50:10.696Z</time>
      </trkpt>
      <trkpt lat="44.12554" lon="0.60654">
        <ele>122</ele>
        <time>2025-08-10T08:50:11.696Z</time>
      </trkpt>
      <trkpt lat="44.12553" lon="0.60653">
        <ele>121</ele>
        <time>2025-08-10T08:50:12.696Z</time>
      </trkpt>
      <trkpt lat="44.12552" lon="0.60652">
        <ele>121</ele>
        <time>2025-08-10T08:50:13.696Z</time>
      </trkpt>
      <trkpt lat="44.12551" lon="0.60651">
        <ele>121</ele>
        <time>2025-08-10T08:50:14.696Z</time>
      </trkpt>
      <trkpt lat="44.1255" lon="0.6065">
        <ele>121</ele>
        <time>2025-08-10T08:50:15.696Z</time>
      </trkpt>
      <trkpt lat="44.12549" lon="0.60649">
        <ele>121</ele>
        <time>2025-08-10T08:50:16.696Z</time>
      </trkpt>
      <trkpt lat="44.12547" lon="0.60648">
        <ele>121</ele>
        <time>2025-08-10T08:50:17.696Z</time>
      </trkpt>
      <trkpt lat="44.12546" lon="0.60647">
        <ele>120</ele>
        <time>2025-08-10T08:50:18.696Z</time>
      </trkpt>
      <trkpt lat="44.12545" lon="0.60645">
        <ele>120</ele>
        <time>2025-08-10T08:50:19.696Z</time>
      </trkpt>
      <trkpt lat="44.12544" lon="0.60644">
        <ele>120</ele>
        <time>2025-08-10T08:50:20.696Z</time>
      </trkpt>
      <trkpt lat="44.12543" lon="0.60643">
        <ele>120</ele>
        <time>2025-08-10T08:50:21.696Z</time>
      </trkpt>
      <trkpt lat="44.12542" lon="0.60642">
        <ele>120</ele>
        <time>2025-08-10T08:50:22.696Z</time>
      </trkpt>
      <trkpt lat="44.12541" lon="0.60641">
        <ele>120</ele>
        <time>2025-08-10T08:50:23.696Z</time>
      </trkpt>
      <trkpt lat="44.12541" lon="0.6064">
        <ele>120</ele>
        <time>2025-08-10T08:50:24.696Z</time>
      </trkpt>
      <trkpt lat="44.1254" lon="0.60639">
        <ele>120</ele>
        <time>2025-08-10T08:50:25.696Z</time>
      </trkpt>
      <trkpt lat="44.12539" lon="0.60637">
        <ele>120</ele>
        <time>2025-08-10T08:50:26.696Z</time>
      </trkpt>
      <trkpt lat="44.12538" lon="0.60636">
        <ele>121</ele>
        <time>2025-08-10T08:50:27.696Z</time>
      </trkpt>
      <trkpt lat="44.12537" lon="0.60635">
        <ele>120</ele>
        <time>2025-08-10T08:50:28.696Z</time>
      </trkpt>
      <trkpt lat="44.12537" lon="0.60634">
        <ele>120</ele>
        <time>2025-08-10T08:50:29.696Z</time>
      </trkpt>
      <trkpt lat="44.12535" lon="0.60633">
        <ele>120</ele>
        <time>2025-08-10T08:50:30.696Z</time>
      </trkpt>
      <trkpt lat="44.12535" lon="0.60632">
        <ele>120</ele>
        <time>2025-08-10T08:50:31.696Z</time>
      </trkpt>
      <trkpt lat="44.12533" lon="0.60631">
        <ele>120</ele>
        <time>2025-08-10T08:50:32.696Z</time>
      </trkpt>
      <trkpt lat="44.12532" lon="0.6063">
        <ele>120</ele>
        <time>2025-08-10T08:50:33.696Z</time>
      </trkpt>
      <trkpt lat="44.12532" lon="0.6063">
        <ele>120</ele>
        <time>2025-08-10T08:50:34.696Z</time>
      </trkpt>
      <trkpt lat="44.12531" lon="0.6063">
        <ele>119</ele>
        <time>2025-08-10T08:50:35.696Z</time>
      </trkpt>
      <trkpt lat="44.1253" lon="0.60629">
        <ele>119</ele>
        <time>2025-08-10T08:50:36.696Z</time>
      </trkpt>
      <trkpt lat="44.12529" lon="0.60628">
        <ele>119</ele>
        <time>2025-08-10T08:50:37.696Z</time>
      </trkpt>
      <trkpt lat="44.12529" lon="0.60628">
        <ele>119</ele>
        <time>2025-08-10T08:50:38.696Z</time>
      </trkpt>
      <trkpt lat="44.12528" lon="0.60628">
        <ele>119</ele>
        <time>2025-08-10T08:50:39.696Z</time>
      </trkpt>
      <trkpt lat="44.12527" lon="0.60627">
        <ele>119</ele>
        <time>2025-08-10T08:50:40.696Z</time>
      </trkpt>
      <trkpt lat="44.12526" lon="0.60626">
        <ele>118</ele>
        <time>2025-08-10T08:50:41.696Z</time>
      </trkpt>
      <trkpt lat="44.12525" lon="0.60625">
        <ele>118</ele>
        <time>2025-08-10T08:50:42.696Z</time>
      </trkpt>
      <trkpt lat="44.12524" lon="0.60624">
        <ele>118</ele>
        <time>2025-08-10T08:50:43.697Z</time>
      </trkpt>
      <trkpt lat="44.12523" lon="0.60623">
        <ele>118</ele>
        <time>2025-08-10T08:50:44.696Z</time>
      </trkpt>
      <trkpt lat="44.12522" lon="0.60622">
        <ele>118</ele>
        <time>2025-08-10T08:50:45.696Z</time>
      </trkpt>
      <trkpt lat="44.1252" lon="0.6062">
        <ele>118</ele>
        <time>2025-08-10T08:50:46.696Z</time>
      </trkpt>
      <trkpt lat="44.12519" lon="0.60619">
        <ele>118</ele>
        <time>2025-08-10T08:50:47.696Z</time>
      </trkpt>
      <trkpt lat="44.12517" lon="0.60618">
        <ele>118</ele>
        <time>2025-08-10T08:50:48.696Z</time>
      </trkpt>
      <trkpt lat="44.12516" lon="0.60617">
        <ele>118</ele>
        <time>2025-08-10T08:50:49.696Z</time>
      </trkpt>
      <trkpt lat="44.12515" lon="0.60616">
        <ele>118</ele>
        <time>2025-08-10T08:50:50.696Z</time>
      </trkpt>
      <trkpt lat="44.12514" lon="0.60615">
        <ele>118</ele>
        <time>2025-08-10T08:50:51.696Z</time>
      </trkpt>
      <trkpt lat="44.12512" lon="0.60613">
        <ele>118</ele>
        <time>2025-08-10T08:50:52.696Z</time>
      </trkpt>
      <trkpt lat="44.12512" lon="0.60611">
        <ele>118</ele>
        <time>2025-08-10T08:50:53.696Z</time>
      </trkpt>
      <trkpt lat="44.12511" lon="0.60609">
        <ele>118</ele>
        <time>2025-08-10T08:50:54.696Z</time>
      </trkpt>
      <trkpt lat="44.12509" lon="0.60607">
        <ele>118</ele>
        <time>2025-08-10T08:50:55.696Z</time>
      </trkpt>
      <trkpt lat="44.12508" lon="0.60605">
        <ele>118</ele>
        <time>2025-08-10T08:50:56.696Z</time>
      </trkpt>
      <trkpt lat="44.12507" lon="0.60603">
        <ele>119</ele>
        <time>2025-08-10T08:50:57.696Z</time>
      </trkpt>
      <trkpt lat="44.12506" lon="0.60602">
        <ele>119</ele>
        <time>2025-08-10T08:50:58.696Z</time>
      </trkpt>
      <trkpt lat="44.12505" lon="0.60602">
        <ele>119</ele>
        <time>2025-08-10T08:50:59.696Z</time>
      </trkpt>
      <trkpt lat="44.12505" lon="0.60601">
        <ele>120</ele>
        <time>2025-08-10T08:51:00.696Z</time>
      </trkpt>
      <trkpt lat="44.12503" lon="0.606">
        <ele>120</ele>
        <time>2025-08-10T08:51:01.696Z</time>
      </trkpt>
      <trkpt lat="44.12502" lon="0.60598">
        <ele>120</ele>
        <time>2025-08-10T08:51:02.696Z</time>
      </trkpt>
      <trkpt lat="44.12501" lon="0.60597">
        <ele>120</ele>
        <time>2025-08-10T08:51:03.696Z</time>
      </trkpt>
      <trkpt lat="44.12501" lon="0.60596">
        <ele>120</ele>
        <time>2025-08-10T08:51:04.696Z</time>
      </trkpt>
      <trkpt lat="44.125" lon="0.60594">
        <ele>120</ele>
        <time>2025-08-10T08:51:05.696Z</time>
      </trkpt>
      <trkpt lat="44.12499" lon="0.60593">
        <ele>120</ele>
        <time>2025-08-10T08:51:06.696Z</time>
      </trkpt>
      <trkpt lat="44.12498" lon="0.60592">
        <ele>120</ele>
        <time>2025-08-10T08:51:07.696Z</time>
      </trkpt>
      <trkpt lat="44.12497" lon="0.60591">
        <ele>120</ele>
        <time>2025-08-10T08:51:08.696Z</time>
      </trkpt>
      <trkpt lat="44.12496" lon="0.6059">
        <ele>120</ele>
        <time>2025-08-10T08:51:09.696Z</time>
      </trkpt>
      <trkpt lat="44.12496" lon="0.6059">
        <ele>120</ele>
        <time>2025-08-10T08:51:10.696Z</time>
      </trkpt>
      <trkpt lat="44.12495" lon="0.60589">
        <ele>120</ele>
        <time>2025-08-10T08:51:11.696Z</time>
      </trkpt>
      <trkpt lat="44.12494" lon="0.60588">
        <ele>119</ele>
        <time>2025-08-10T08:51:12.696Z</time>
      </trkpt>
      <trkpt lat="44.12493" lon="0.60587">
        <ele>119</ele>
        <time>2025-08-10T08:51:13.696Z</time>
      </trkpt>
      <trkpt lat="44.12491" lon="0.60586">
        <ele>119</ele>
        <time>2025-08-10T08:51:14.696Z</time>
      </trkpt>
      <trkpt lat="44.12489" lon="0.60584">
        <ele>119</ele>
        <time>2025-08-10T08:51:15.696Z</time>
      </trkpt>
      <trkpt lat="44.12488" lon="0.60583">
        <ele>119</ele>
        <time>2025-08-10T08:51:16.696Z</time>
      </trkpt>
      <trkpt lat="44.12487" lon="0.60583">
        <ele>119</ele>
        <time>2025-08-10T08:51:17.696Z</time>
      </trkpt>
      <trkpt lat="44.12486" lon="0.60583">
        <ele>119</ele>
        <time>2025-08-10T08:51:18.696Z</time>
      </trkpt>
      <trkpt lat="44.12484" lon="0.60582">
        <ele>119</ele>
        <time>2025-08-10T08:51:19.696Z</time>
      </trkpt>
      <trkpt lat="44.12483" lon="0.6058">
        <ele>119</ele>
        <time>2025-08-10T08:51:20.696Z</time>
      </trkpt>
      <trkpt lat="44.12482" lon="0.60579">
        <ele>119</ele>
        <time>2025-08-10T08:51:21.696Z</time>
      </trkpt>
      <trkpt lat="44.12481" lon="0.60577">
        <ele>119</ele>
        <time>2025-08-10T08:51:22.696Z</time>
      </trkpt>
      <trkpt lat="44.12481" lon="0.60575">
        <ele>119</ele>
        <time>2025-08-10T08:51:23.696Z</time>
      </trkpt>
      <trkpt lat="44.12481" lon="0.60574">
        <ele>118</ele>
        <time>2025-08-10T08:51:24.696Z</time>
      </trkpt>
      <trkpt lat="44.12481" lon="0.60572">
        <ele>118</ele>
        <time>2025-08-10T08:51:25.696Z</time>
      </trkpt>
      <trkpt lat="44.12481" lon="0.60571">
        <ele>118</ele>
        <time>2025-08-10T08:51:26.696Z</time>
      </trkpt>
      <trkpt lat="44.12481" lon="0.60569">
        <ele>118</ele>
        <time>2025-08-10T08:51:27.696Z</time>
      </trkpt>
      <trkpt lat="44.12481" lon="0.60568">
        <ele>117</ele>
        <time>2025-08-10T08:51:28.696Z</time>
      </trkpt>
      <trkpt lat="44.12481" lon="0.60567">
        <ele>117</ele>
        <time>2025-08-10T08:51:29.696Z</time>
      </trkpt>
      <trkpt lat="44.12481" lon="0.60566">
        <ele>116</ele>
        <time>2025-08-10T08:51:30.696Z</time>
      </trkpt>
      <trkpt lat="44.12481" lon="0.60565">
        <ele>115</ele>
        <time>2025-08-10T08:51:31.696Z</time>
      </trkpt>
      <trkpt lat="44.12481" lon="0.60564">
        <ele>114</ele>
        <time>2025-08-10T08:51:32.696Z</time>
      </trkpt>
      <trkpt lat="44.12481" lon="0.60564">
        <ele>113</ele>
        <time>2025-08-10T08:51:33.696Z</time>
      </trkpt>
      <trkpt lat="44.12481" lon="0.60563">
        <ele>112</ele>
        <time>2025-08-10T08:51:34.696Z</time>
      </trkpt>
      <trkpt lat="44.12481" lon="0.60563">
        <ele>111</ele>
        <time>2025-08-10T08:51:35.696Z</time>
      </trkpt>
      <trkpt lat="44.12482" lon="0.60563">
        <ele>111</ele>
        <time>2025-08-10T08:51:36.696Z</time>
      </trkpt>
      <trkpt lat="44.12482" lon="0.60563">
        <ele>110</ele>
        <time>2025-08-10T08:51:37.696Z</time>
      </trkpt>
      <trkpt lat="44.12482" lon="0.60563">
        <ele>110</ele>
        <time>2025-08-10T08:51:38.696Z</time>
      </trkpt>
      <trkpt lat="44.12482" lon="0.60563">
        <ele>109</ele>
        <time>2025-08-10T08:51:39.696Z</time>
      </trkpt>
      <trkpt lat="44.12482" lon="0.60562">
        <ele>109</ele>
        <time>2025-08-10T08:51:40.696Z</time>
      </trkpt>
      <trkpt lat="44.12482" lon="0.60562">
        <ele>108</ele>
        <time>2025-08-10T08:51:41.696Z</time>
      </trkpt>
      <trkpt lat="44.12482" lon="0.60562">
        <ele>108</ele>
        <time>2025-08-10T08:51:42.696Z</time>
      </trkpt>
      <trkpt lat="44.12482" lon="0.60561">
        <ele>108</ele>
        <time>2025-08-10T08:51:43.696Z</time>
      </trkpt>
      <trkpt lat="44.12482" lon="0.60559">
        <ele>108</ele>
        <time>2025-08-10T08:51:44.696Z</time>
      </trkpt>
      <trkpt lat="44.12482" lon="0.60559">
        <ele>108</ele>
        <time>2025-08-10T08:51:45.696Z</time>
      </trkpt>
      <trkpt lat="44.12482" lon="0.60559">
        <ele>108</ele>
        <time>2025-08-10T08:51:46.696Z</time>
      </trkpt>
      <trkpt lat="44.12482" lon="0.60558">
        <ele>108</ele>
        <time>2025-08-10T08:51:47.696Z</time>
      </trkpt>
      <trkpt lat="44.12483" lon="0.60558">
        <ele>108</ele>
        <time>2025-08-10T08:51:48.696Z</time>
      </trkpt>
      <trkpt lat="44.12484" lon="0.60558">
        <ele>108</ele>
        <time>2025-08-10T08:51:49.696Z</time>
      </trkpt>
      <trkpt lat="44.12485" lon="0.60557">
        <ele>108</ele>
        <time>2025-08-10T08:51:50.696Z</time>
      </trkpt>
      <trkpt lat="44.12486" lon="0.60557">
        <ele>108</ele>
        <time>2025-08-10T08:51:51.696Z</time>
      </trkpt>
      <trkpt lat="44.12487" lon="0.60556">
        <ele>108</ele>
        <time>2025-08-10T08:51:52.696Z</time>
      </trkpt>
      <trkpt lat="44.12487" lon="0.60556">
        <ele>108</ele>
        <time>2025-08-10T08:51:53.696Z</time>
      </trkpt>
      <trkpt lat="44.12488" lon="0.60555">
        <ele>108</ele>
        <time>2025-08-10T08:51:54.696Z</time>
      </trkpt>
      <trkpt lat="44.12489" lon="0.60554">
        <ele>108</ele>
        <time>2025-08-10T08:51:55.696Z</time>
      </trkpt>
      <trkpt lat="44.1249" lon="0.60554">
        <ele>108</ele>
        <time>2025-08-10T08:51:56.696Z</time>
      </trkpt>
      <trkpt lat="44.12492" lon="0.60554">
        <ele>108</ele>
        <time>2025-08-10T08:51:57.696Z</time>
      </trkpt>
      <trkpt lat="44.12494" lon="0.60554">
        <ele>108</ele>
        <time>2025-08-10T08:51:58.696Z</time>
      </trkpt>
      <trkpt lat="44.12495" lon="0.60554">
        <ele>108</ele>
        <time>2025-08-10T08:51:59.696Z</time>
      </trkpt>
      <trkpt lat="44.12495" lon="0.60554">
        <ele>107</ele>
        <time>2025-08-10T08:52:00.696Z</time>
      </trkpt>
      <trkpt lat="44.12496" lon="0.60554">
        <ele>107</ele>
        <time>2025-08-10T08:52:01.696Z</time>
      </trkpt>
      <trkpt lat="44.12498" lon="0.60554">
        <ele>108</ele>
        <time>2025-08-10T08:52:02.696Z</time>
      </trkpt>
      <trkpt lat="44.12498" lon="0.60555">
        <ele>108</ele>
        <time>2025-08-10T08:52:03.696Z</time>
      </trkpt>
      <trkpt lat="44.12499" lon="0.60555">
        <ele>108</ele>
        <time>2025-08-10T08:52:04.696Z</time>
      </trkpt>
      <trkpt lat="44.125" lon="0.60556">
        <ele>107</ele>
        <time>2025-08-10T08:52:05.696Z</time>
      </trkpt>
      <trkpt lat="44.125" lon="0.60556">
        <ele>107</ele>
        <time>2025-08-10T08:52:06.696Z</time>
      </trkpt>
      <trkpt lat="44.12501" lon="0.60557">
        <ele>107</ele>
        <time>2025-08-10T08:52:07.696Z</time>
      </trkpt>
      <trkpt lat="44.12502" lon="0.60556">
        <ele>107</ele>
        <time>2025-08-10T08:52:08.696Z</time>
      </trkpt>
      <trkpt lat="44.12503" lon="0.60556">
        <ele>107</ele>
        <time>2025-08-10T08:52:09.696Z</time>
      </trkpt>
      <trkpt lat="44.12504" lon="0.60555">
        <ele>106</ele>
        <time>2025-08-10T08:52:10.696Z</time>
      </trkpt>
      <trkpt lat="44.12504" lon="0.60554">
        <ele>106</ele>
        <time>2025-08-10T08:52:11.696Z</time>
      </trkpt>
      <trkpt lat="44.12506" lon="0.60554">
        <ele>106</ele>
        <time>2025-08-10T08:52:12.696Z</time>
      </trkpt>
      <trkpt lat="44.12507" lon="0.60554">
        <ele>106</ele>
        <time>2025-08-10T08:52:13.696Z</time>
      </trkpt>
      <trkpt lat="44.12508" lon="0.60554">
        <ele>105</ele>
        <time>2025-08-10T08:52:14.696Z</time>
      </trkpt>
      <trkpt lat="44.12508" lon="0.60553">
        <ele>105</ele>
        <time>2025-08-10T08:52:15.696Z</time>
      </trkpt>
      <trkpt lat="44.12508" lon="0.60553">
        <ele>105</ele>
        <time>2025-08-10T08:52:16.696Z</time>
      </trkpt>
      <trkpt lat="44.12508" lon="0.60553">
        <ele>105</ele>
        <time>2025-08-10T08:52:17.696Z</time>
      </trkpt>
      <trkpt lat="44.12508" lon="0.60552">
        <ele>105</ele>
        <time>2025-08-10T08:52:18.696Z</time>
      </trkpt>
      <trkpt lat="44.12507" lon="0.60551">
        <ele>105</ele>
        <time>2025-08-10T08:52:19.696Z</time>
      </trkpt>
      <trkpt lat="44.12507" lon="0.6055">
        <ele>105</ele>
        <time>2025-08-10T08:52:20.696Z</time>
      </trkpt>
      <trkpt lat="44.12506" lon="0.60549">
        <ele>106</ele>
        <time>2025-08-10T08:52:21.696Z</time>
      </trkpt>
      <trkpt lat="44.12506" lon="0.60549">
        <ele>106</ele>
        <time>2025-08-10T08:52:22.696Z</time>
      </trkpt>
      <trkpt lat="44.12505" lon="0.60548">
        <ele>105</ele>
        <time>2025-08-10T08:52:23.696Z</time>
      </trkpt>
      <trkpt lat="44.12506" lon="0.60547">
        <ele>105</ele>
        <time>2025-08-10T08:52:24.696Z</time>
      </trkpt>
      <trkpt lat="44.12506" lon="0.60547">
        <ele>105</ele>
        <time>2025-08-10T08:52:25.696Z</time>
      </trkpt>
      <trkpt lat="44.12505" lon="0.60546">
        <ele>105</ele>
        <time>2025-08-10T08:52:26.696Z</time>
      </trkpt>
      <trkpt lat="44.12505" lon="0.60546">
        <ele>104</ele>
        <time>2025-08-10T08:52:27.696Z</time>
      </trkpt>
      <trkpt lat="44.12505" lon="0.60546">
        <ele>104</ele>
        <time>2025-08-10T08:52:28.696Z</time>
      </trkpt>
      <trkpt lat="44.12506" lon="0.60546">
        <ele>104</ele>
        <time>2025-08-10T08:52:29.696Z</time>
      </trkpt>
      <trkpt lat="44.12506" lon="0.60546">
        <ele>103</ele>
        <time>2025-08-10T08:52:30.696Z</time>
      </trkpt>
      <trkpt lat="44.12506" lon="0.60546">
        <ele>103</ele>
        <time>2025-08-10T08:52:31.696Z</time>
      </trkpt>
      <trkpt lat="44.12506" lon="0.60546">
        <ele>103</ele>
        <time>2025-08-10T08:52:32.696Z</time>
      </trkpt>
      <trkpt lat="44.12506" lon="0.60546">
        <ele>103</ele>
        <time>2025-08-10T08:52:33.696Z</time>
      </trkpt>
      <trkpt lat="44.12506" lon="0.60546">
        <ele>103</ele>
        <time>2025-08-10T08:52:34.696Z</time>
      </trkpt>
      <trkpt lat="44.12505" lon="0.60546">
        <ele>103</ele>
        <time>2025-08-10T08:52:35.696Z</time>
      </trkpt>
      <trkpt lat="44.12505" lon="0.60546">
        <ele>103</ele>
        <time>2025-08-10T08:52:36.696Z</time>
      </trkpt>
      <trkpt lat="44.12505" lon="0.60545">
        <ele>103</ele>
        <time>2025-08-10T08:52:37.696Z</time>
      </trkpt>
      <trkpt lat="44.12505" lon="0.60545">
        <ele>103</ele>
        <time>2025-08-10T08:52:38.696Z</time>
      </trkpt>
      <trkpt lat="44.12505" lon="0.60544">
        <ele>103</ele>
        <time>2025-08-10T08:52:39.696Z</time>
      </trkpt>
      <trkpt lat="44.12505" lon="0.60543">
        <ele>104</ele>
        <time>2025-08-10T08:52:40.696Z</time>
      </trkpt>
      <trkpt lat="44.12505" lon="0.60542">
        <ele>104</ele>
        <time>2025-08-10T08:52:41.696Z</time>
      </trkpt>
      <trkpt lat="44.12505" lon="0.60542">
        <ele>104</ele>
        <time>2025-08-10T08:52:42.696Z</time>
      </trkpt>
      <trkpt lat="44.12505" lon="0.60542">
        <ele>104</ele>
        <time>2025-08-10T08:52:43.696Z</time>
      </trkpt>
      <trkpt lat="44.12505" lon="0.60542">
        <ele>105</ele>
        <time>2025-08-10T08:52:44.696Z</time>
      </trkpt>
      <trkpt lat="44.12505" lon="0.60541">
        <ele>104</ele>
        <time>2025-08-10T08:52:45.696Z</time>
      </trkpt>
      <trkpt lat="44.12506" lon="0.60541">
        <ele>104</ele>
        <time>2025-08-10T08:52:46.696Z</time>
      </trkpt>
      <trkpt lat="44.12506" lon="0.60541">
        <ele>103</ele>
        <time>2025-08-10T08:52:47.696Z</time>
      </trkpt>
      <trkpt lat="44.12507" lon="0.60541">
        <ele>103</ele>
        <time>2025-08-10T08:52:48.696Z</time>
      </trkpt>
      <trkpt lat="44.12506" lon="0.60541">
        <ele>103</ele>
        <time>2025-08-10T08:52:49.696Z</time>
      </trkpt>
      <trkpt lat="44.12506" lon="0.60541">
        <ele>103</ele>
        <time>2025-08-10T08:52:50.696Z</time>
      </trkpt>
      <trkpt lat="44.12506" lon="0.6054">
        <ele>102</ele>
        <time>2025-08-10T08:52:51.696Z</time>
      </trkpt>
      <trkpt lat="44.12506" lon="0.6054">
        <ele>102</ele>
        <time>2025-08-10T08:52:52.696Z</time>
      </trkpt>
      <trkpt lat="44.12506" lon="0.6054">
        <ele>102</ele>
        <time>2025-08-10T08:52:53.696Z</time>
      </trkpt>
      <trkpt lat="44.12506" lon="0.6054">
        <ele>102</ele>
        <time>2025-08-10T08:52:54.696Z</time>
      </trkpt>
      <trkpt lat="44.12506" lon="0.6054">
        <ele>103</ele>
        <time>2025-08-10T08:52:55.696Z</time>
      </trkpt>
      <trkpt lat="44.12506" lon="0.6054">
        <ele>103</ele>
        <time>2025-08-10T08:52:56.696Z</time>
      </trkpt>
      <trkpt lat="44.12506" lon="0.6054">
        <ele>104</ele>
        <time>2025-08-10T08:52:57.696Z</time>
      </trkpt>
      <trkpt lat="44.12506" lon="0.60541">
        <ele>104</ele>
        <time>2025-08-10T08:52:58.696Z</time>
      </trkpt>
      <trkpt lat="44.12506" lon="0.60541">
        <ele>104</ele>
        <time>2025-08-10T08:52:59.696Z</time>
      </trkpt>
      <trkpt lat="44.12506" lon="0.60541">
        <ele>104</ele>
        <time>2025-08-10T08:53:00.696Z</time>
      </trkpt>
      <trkpt lat="44.12506" lon="0.60541">
        <ele>104</ele>
        <time>2025-08-10T08:53:01.696Z</time>
      </trkpt>
      <trkpt lat="44.12506" lon="0.60541">
        <ele>104</ele>
        <time>2025-08-10T08:53:02.696Z</time>
      </trkpt>
      <trkpt lat="44.12506" lon="0.60541">
        <ele>104</ele>
        <time>2025-08-10T08:53:03.696Z</time>
      </trkpt>
      <trkpt lat="44.12506" lon="0.60541">
        <ele>104</ele>
        <time>2025-08-10T08:53:04.696Z</time>
      </trkpt>
      <trkpt lat="44.12506" lon="0.60541">
        <ele>104</ele>
        <time>2025-08-10T08:53:05.696Z</time>
      </trkpt>
      <trkpt lat="44.12506" lon="0.60541">
        <ele>104</ele>
        <time>2025-08-10T08:53:06.696Z</time>
      </trkpt>
      <trkpt lat="44.12506" lon="0.60541">
        <ele>104</ele>
        <time>2025-08-10T08:53:07.696Z</time>
      </trkpt>
      <trkpt lat="44.12506" lon="0.60541">
        <ele>104</ele>
        <time>2025-08-10T08:53:08.696Z</time>
      </trkpt>
      <trkpt lat="44.12506" lon="0.60541">
        <ele>104</ele>
        <time>2025-08-10T08:53:09.696Z</time>
      </trkpt>
      <trkpt lat="44.12506" lon="0.60541">
        <ele>103</ele>
        <time>2025-08-10T08:53:10.696Z</time>
      </trkpt>
      <trkpt lat="44.12506" lon="0.60541">
        <ele>103</ele>
        <time>2025-08-10T08:53:11.696Z</time>
      </trkpt>
      <trkpt lat="44.12506" lon="0.6054">
        <ele>103</ele>
        <time>2025-08-10T08:53:12.696Z</time>
      </trkpt>
      <trkpt lat="44.12506" lon="0.6054">
        <ele>103</ele>
        <time>2025-08-10T08:53:13.697Z</time>
      </trkpt>
      <trkpt lat="44.12506" lon="0.6054">
        <ele>103</ele>
        <time>2025-08-10T08:53:14.696Z</time>
      </trkpt>
      <trkpt lat="44.12506" lon="0.6054">
        <ele>103</ele>
        <time>2025-08-10T08:53:15.696Z</time>
      </trkpt>
      <trkpt lat="44.12506" lon="0.6054">
        <ele>103</ele>
        <time>2025-08-10T08:53:16.696Z</time>
      </trkpt>
      <trkpt lat="44.12506" lon="0.6054">
        <ele>104</ele>
        <time>2025-08-10T08:53:17.696Z</time>
      </trkpt>
      <trkpt lat="44.12505" lon="0.6054">
        <ele>104</ele>
        <time>2025-08-10T08:53:18.696Z</time>
      </trkpt>
      <trkpt lat="44.12505" lon="0.6054">
        <ele>104</ele>
        <time>2025-08-10T08:53:19.696Z</time>
      </trkpt>
      <trkpt lat="44.12505" lon="0.6054">
        <ele>105</ele>
        <time>2025-08-10T08:53:20.696Z</time>
      </trkpt>
      <trkpt lat="44.12505" lon="0.6054">
        <ele>106</ele>
        <time>2025-08-10T08:53:21.696Z</time>
      </trkpt>
      <trkpt lat="44.12505" lon="0.6054">
        <ele>106</ele>
        <time>2025-08-10T08:53:22.696Z</time>
      </trkpt>
      <trkpt lat="44.12505" lon="0.6054">
        <ele>107</ele>
        <time>2025-08-10T08:53:23.696Z</time>
      </trkpt>
      <trkpt lat="44.12505" lon="0.60541">
        <ele>108</ele>
        <time>2025-08-10T08:53:24.696Z</time>
      </trkpt>
      <trkpt lat="44.12505" lon="0.60541">
        <ele>108</ele>
        <time>2025-08-10T08:53:25.696Z</time>
      </trkpt>
      <trkpt lat="44.12505" lon="0.6054">
        <ele>109</ele>
        <time>2025-08-10T08:53:26.696Z</time>
      </trkpt>
      <trkpt lat="44.12505" lon="0.6054">
        <ele>109</ele>
        <time>2025-08-10T08:53:27.696Z</time>
      </trkpt>
      <trkpt lat="44.12505" lon="0.60541">
        <ele>109</ele>
        <time>2025-08-10T08:53:28.696Z</time>
      </trkpt>
      <trkpt lat="44.12505" lon="0.60541">
        <ele>109</ele>
        <time>2025-08-10T08:53:29.696Z</time>
      </trkpt>
      <trkpt lat="44.12506" lon="0.60541">
        <ele>109</ele>
        <time>2025-08-10T08:53:30.696Z</time>
      </trkpt>
      <trkpt lat="44.12506" lon="0.60541">
        <ele>109</ele>
        <time>2025-08-10T08:53:31.696Z</time>
      </trkpt>
      <trkpt lat="44.12506" lon="0.60541">
        <ele>109</ele>
        <time>2025-08-10T08:53:32.696Z</time>
      </trkpt>
      <trkpt lat="44.12506" lon="0.60541">
        <ele>108</ele>
        <time>2025-08-10T08:53:33.696Z</time>
      </trkpt>
      <trkpt lat="44.12505" lon="0.60541">
        <ele>108</ele>
        <time>2025-08-10T08:53:34.696Z</time>
      </trkpt>
      <trkpt lat="44.12505" lon="0.60541">
        <ele>107</ele>
        <time>2025-08-10T08:53:35.696Z</time>
      </trkpt>
      <trkpt lat="44.12505" lon="0.60541">
        <ele>107</ele>
        <time>2025-08-10T08:53:36.696Z</time>
      </trkpt>
      <trkpt lat="44.12505" lon="0.60541">
        <ele>106</ele>
        <time>2025-08-10T08:53:37.696Z</time>
      </trkpt>
      <trkpt lat="44.12505" lon="0.60541">
        <ele>106</ele>
        <time>2025-08-10T08:53:38.696Z</time>
      </trkpt>
      <trkpt lat="44.12505" lon="0.60541">
        <ele>105</ele>
        <time>2025-08-10T08:53:39.696Z</time>
      </trkpt>
      <trkpt lat="44.12505" lon="0.60541">
        <ele>105</ele>
        <time>2025-08-10T08:53:40.696Z</time>
      </trkpt>
      <trkpt lat="44.12505" lon="0.60542">
        <ele>104</ele>
        <time>2025-08-10T08:53:41.696Z</time>
      </trkpt>
      <trkpt lat="44.12504" lon="0.60542">
        <ele>104</ele>
        <time>2025-08-10T08:53:42.696Z</time>
      </trkpt>
      <trkpt lat="44.12504" lon="0.60542">
        <ele>104</ele>
        <time>2025-08-10T08:53:43.696Z</time>
      </trkpt>
      <trkpt lat="44.12504" lon="0.60541">
        <ele>103</ele>
        <time>2025-08-10T08:53:44.696Z</time>
      </trkpt>
      <trkpt lat="44.12503" lon="0.60541">
        <ele>103</ele>
        <time>2025-08-10T08:53:45.696Z</time>
      </trkpt>
      <trkpt lat="44.12503" lon="0.6054">
        <ele>103</ele>
        <time>2025-08-10T08:53:46.696Z</time>
      </trkpt>
      <trkpt lat="44.12503" lon="0.6054">
        <ele>103</ele>
        <time>2025-08-10T08:53:47.696Z</time>
      </trkpt>
      <trkpt lat="44.12503" lon="0.60539">
        <ele>102</ele>
        <time>2025-08-10T08:53:48.696Z</time>
      </trkpt>
      <trkpt lat="44.12502" lon="0.60538">
        <ele>102</ele>
        <time>2025-08-10T08:53:49.696Z</time>
      </trkpt>
      <trkpt lat="44.12502" lon="0.60537">
        <ele>102</ele>
        <time>2025-08-10T08:53:50.696Z</time>
      </trkpt>
      <trkpt lat="44.12502" lon="0.60536">
        <ele>102</ele>
        <time>2025-08-10T08:53:51.696Z</time>
      </trkpt>
      <trkpt lat="44.12501" lon="0.60535">
        <ele>101</ele>
        <time>2025-08-10T08:53:52.696Z</time>
      </trkpt>
      <trkpt lat="44.12501" lon="0.60534">
        <ele>101</ele>
        <time>2025-08-10T08:53:53.696Z</time>
      </trkpt>
      <trkpt lat="44.12501" lon="0.60534">
        <ele>101</ele>
        <time>2025-08-10T08:53:54.696Z</time>
      </trkpt>
      <trkpt lat="44.12501" lon="0.60534">
        <ele>101</ele>
        <time>2025-08-10T08:53:55.696Z</time>
      </trkpt>
      <trkpt lat="44.12501" lon="0.60533">
        <ele>101</ele>
        <time>2025-08-10T08:53:56.696Z</time>
      </trkpt>
      <trkpt lat="44.125" lon="0.60532">
        <ele>101</ele>
        <time>2025-08-10T08:53:57.696Z</time>
      </trkpt>
      <trkpt lat="44.125" lon="0.60532">
        <ele>101</ele>
        <time>2025-08-10T08:53:58.696Z</time>
      </trkpt>
      <trkpt lat="44.125" lon="0.60531">
        <ele>101</ele>
        <time>2025-08-10T08:53:59.696Z</time>
      </trkpt>
      <trkpt lat="44.12499" lon="0.60531">
        <ele>101</ele>
        <time>2025-08-10T08:54:00.696Z</time>
      </trkpt>
      <trkpt lat="44.12499" lon="0.6053">
        <ele>101</ele>
        <time>2025-08-10T08:54:01.696Z</time>
      </trkpt>
      <trkpt lat="44.12499" lon="0.6053">
        <ele>101</ele>
        <time>2025-08-10T08:54:02.696Z</time>
      </trkpt>
      <trkpt lat="44.12499" lon="0.6053">
        <ele>102</ele>
        <time>2025-08-10T08:54:03.696Z</time>
      </trkpt>
      <trkpt lat="44.12498" lon="0.60529">
        <ele>102</ele>
        <time>2025-08-10T08:54:04.696Z</time>
      </trkpt>
      <trkpt lat="44.12498" lon="0.60529">
        <ele>102</ele>
        <time>2025-08-10T08:54:05.696Z</time>
      </trkpt>
      <trkpt lat="44.12498" lon="0.60529">
        <ele>102</ele>
        <time>2025-08-10T08:54:06.696Z</time>
      </trkpt>
      <trkpt lat="44.12498" lon="0.60528">
        <ele>102</ele>
        <time>2025-08-10T08:54:07.696Z</time>
      </trkpt>
      <trkpt lat="44.12498" lon="0.60528">
        <ele>102</ele>
        <time>2025-08-10T08:54:08.696Z</time>
      </trkpt>
      <trkpt lat="44.12498" lon="0.60528">
        <ele>102</ele>
        <time>2025-08-10T08:54:09.696Z</time>
      </trkpt>
      <trkpt lat="44.12498" lon="0.60528">
        <ele>102</ele>
        <time>2025-08-10T08:54:10.696Z</time>
      </trkpt>
      <trkpt lat="44.12498" lon="0.60528">
        <ele>102</ele>
        <time>2025-08-10T08:54:11.696Z</time>
      </trkpt>
      <trkpt lat="44.12498" lon="0.60528">
        <ele>102</ele>
        <time>2025-08-10T08:54:12.696Z</time>
      </trkpt>
      <trkpt lat="44.12497" lon="0.60527">
        <ele>102</ele>
        <time>2025-08-10T08:54:13.696Z</time>
      </trkpt>
      <trkpt lat="44.12497" lon="0.60527">
        <ele>102</ele>
        <time>2025-08-10T08:54:14.696Z</time>
      </trkpt>
      <trkpt lat="44.12497" lon="0.60526">
        <ele>102</ele>
        <time>2025-08-10T08:54:15.696Z</time>
      </trkpt>
      <trkpt lat="44.12497" lon="0.60525">
        <ele>102</ele>
        <time>2025-08-10T08:54:16.696Z</time>
      </trkpt>
      <trkpt lat="44.12496" lon="0.60524">
        <ele>102</ele>
        <time>2025-08-10T08:54:17.696Z</time>
      </trkpt>
      <trkpt lat="44.12495" lon="0.60523">
        <ele>103</ele>
        <time>2025-08-10T08:54:18.696Z</time>
      </trkpt>
      <trkpt lat="44.12495" lon="0.60522">
        <ele>103</ele>
        <time>2025-08-10T08:54:19.696Z</time>
      </trkpt>
      <trkpt lat="44.12494" lon="0.60522">
        <ele>103</ele>
        <time>2025-08-10T08:54:20.696Z</time>
      </trkpt>
      <trkpt lat="44.12494" lon="0.60521">
        <ele>102</ele>
        <time>2025-08-10T08:54:21.696Z</time>
      </trkpt>
      <trkpt lat="44.12493" lon="0.60521">
        <ele>102</ele>
        <time>2025-08-10T08:54:22.696Z</time>
      </trkpt>
      <trkpt lat="44.12492" lon="0.6052">
        <ele>102</ele>
        <time>2025-08-10T08:54:23.696Z</time>
      </trkpt>
      <trkpt lat="44.12492" lon="0.6052">
        <ele>103</ele>
        <time>2025-08-10T08:54:24.696Z</time>
      </trkpt>
      <trkpt lat="44.12491" lon="0.60519">
        <ele>103</ele>
        <time>2025-08-10T08:54:25.696Z</time>
      </trkpt>
      <trkpt lat="44.1249" lon="0.60519">
        <ele>103</ele>
        <time>2025-08-10T08:54:26.696Z</time>
      </trkpt>
      <trkpt lat="44.1249" lon="0.60518">
        <ele>103</ele>
        <time>2025-08-10T08:54:27.696Z</time>
      </trkpt>
      <trkpt lat="44.12489" lon="0.60518">
        <ele>103</ele>
        <time>2025-08-10T08:54:28.696Z</time>
      </trkpt>
      <trkpt lat="44.12489" lon="0.60518">
        <ele>103</ele>
        <time>2025-08-10T08:54:29.696Z</time>
      </trkpt>
      <trkpt lat="44.12488" lon="0.60519">
        <ele>103</ele>
        <time>2025-08-10T08:54:30.696Z</time>
      </trkpt>
      <trkpt lat="44.12487" lon="0.60519">
        <ele>103</ele>
        <time>2025-08-10T08:54:31.696Z</time>
      </trkpt>
      <trkpt lat="44.12487" lon="0.60518">
        <ele>102</ele>
        <time>2025-08-10T08:54:32.696Z</time>
      </trkpt>
      <trkpt lat="44.12486" lon="0.60518">
        <ele>102</ele>
        <time>2025-08-10T08:54:33.696Z</time>
      </trkpt>
      <trkpt lat="44.12484" lon="0.60516">
        <ele>102</ele>
        <time>2025-08-10T08:54:34.696Z</time>
      </trkpt>
      <trkpt lat="44.12484" lon="0.60516">
        <ele>102</ele>
        <time>2025-08-10T08:54:35.696Z</time>
      </trkpt>
      <trkpt lat="44.12484" lon="0.60515">
        <ele>102</ele>
        <time>2025-08-10T08:54:36.696Z</time>
      </trkpt>
      <trkpt lat="44.12483" lon="0.60514">
        <ele>102</ele>
        <time>2025-08-10T08:54:37.696Z</time>
      </trkpt>
      <trkpt lat="44.12483" lon="0.60513">
        <ele>102</ele>
        <time>2025-08-10T08:54:38.696Z</time>
      </trkpt>
      <trkpt lat="44.12483" lon="0.60513">
        <ele>102</ele>
        <time>2025-08-10T08:54:39.696Z</time>
      </trkpt>
      <trkpt lat="44.12482" lon="0.60511">
        <ele>102</ele>
        <time>2025-08-10T08:54:40.696Z</time>
      </trkpt>
      <trkpt lat="44.12482" lon="0.6051">
        <ele>102</ele>
        <time>2025-08-10T08:54:41.696Z</time>
      </trkpt>
      <trkpt lat="44.12482" lon="0.60509">
        <ele>101</ele>
        <time>2025-08-10T08:54:42.696Z</time>
      </trkpt>
      <trkpt lat="44.12482" lon="0.60508">
        <ele>101</ele>
        <time>2025-08-10T08:54:43.696Z</time>
      </trkpt>
      <trkpt lat="44.12483" lon="0.60508">
        <ele>100</ele>
        <time>2025-08-10T08:54:44.696Z</time>
      </trkpt>
      <trkpt lat="44.12483" lon="0.60507">
        <ele>99</ele>
        <time>2025-08-10T08:54:45.696Z</time>
      </trkpt>
      <trkpt lat="44.12484" lon="0.60507">
        <ele>99</ele>
        <time>2025-08-10T08:54:46.696Z</time>
      </trkpt>
      <trkpt lat="44.12484" lon="0.60507">
        <ele>99</ele>
        <time>2025-08-10T08:54:47.696Z</time>
      </trkpt>
      <trkpt lat="44.12484" lon="0.60507">
        <ele>98</ele>
        <time>2025-08-10T08:54:48.696Z</time>
      </trkpt>
      <trkpt lat="44.12484" lon="0.60507">
        <ele>98</ele>
        <time>2025-08-10T08:54:49.696Z</time>
      </trkpt>
      <trkpt lat="44.12484" lon="0.60506">
        <ele>99</ele>
        <time>2025-08-10T08:54:50.696Z</time>
      </trkpt>
      <trkpt lat="44.12484" lon="0.60506">
        <ele>99</ele>
        <time>2025-08-10T08:54:51.696Z</time>
      </trkpt>
      <trkpt lat="44.12484" lon="0.60506">
        <ele>99</ele>
        <time>2025-08-10T08:54:52.696Z</time>
      </trkpt>
      <trkpt lat="44.12484" lon="0.60506">
        <ele>99</ele>
        <time>2025-08-10T08:54:53.696Z</time>
      </trkpt>
      <trkpt lat="44.12484" lon="0.60505">
        <ele>99</ele>
        <time>2025-08-10T08:54:54.696Z</time>
      </trkpt>
      <trkpt lat="44.12484" lon="0.60505">
        <ele>99</ele>
        <time>2025-08-10T08:54:55.696Z</time>
      </trkpt>
      <trkpt lat="44.12484" lon="0.60505">
        <ele>98</ele>
        <time>2025-08-10T08:54:56.696Z</time>
      </trkpt>
      <trkpt lat="44.12483" lon="0.60505">
        <ele>98</ele>
        <time>2025-08-10T08:54:57.696Z</time>
      </trkpt>
      <trkpt lat="44.12483" lon="0.60506">
        <ele>98</ele>
        <time>2025-08-10T08:54:58.696Z</time>
      </trkpt>
      <trkpt lat="44.12483" lon="0.60506">
        <ele>97</ele>
        <time>2025-08-10T08:54:59.696Z</time>
      </trkpt>
      <trkpt lat="44.12483" lon="0.60506">
        <ele>97</ele>
        <time>2025-08-10T08:55:00.696Z</time>
      </trkpt>
      <trkpt lat="44.12483" lon="0.60505">
        <ele>97</ele>
        <time>2025-08-10T08:55:01.696Z</time>
      </trkpt>
      <trkpt lat="44.12484" lon="0.60506">
        <ele>97</ele>
        <time>2025-08-10T08:55:02.696Z</time>
      </trkpt>
      <trkpt lat="44.12484" lon="0.60506">
        <ele>97</ele>
        <time>2025-08-10T08:55:03.696Z</time>
      </trkpt>
      <trkpt lat="44.12484" lon="0.60506">
        <ele>98</ele>
        <time>2025-08-10T08:55:04.696Z</time>
      </trkpt>
      <trkpt lat="44.12484" lon="0.60506">
        <ele>98</ele>
        <time>2025-08-10T08:55:05.696Z</time>
      </trkpt>
      <trkpt lat="44.12484" lon="0.60506">
        <ele>98</ele>
        <time>2025-08-10T08:55:06.696Z</time>
      </trkpt>
      <trkpt lat="44.12485" lon="0.60506">
        <ele>98</ele>
        <time>2025-08-10T08:55:07.696Z</time>
      </trkpt>
      <trkpt lat="44.12485" lon="0.60507">
        <ele>99</ele>
        <time>2025-08-10T08:55:08.696Z</time>
      </trkpt>
      <trkpt lat="44.12485" lon="0.60507">
        <ele>99</ele>
        <time>2025-08-10T08:55:09.696Z</time>
      </trkpt>
      <trkpt lat="44.12485" lon="0.60507">
        <ele>98</ele>
        <time>2025-08-10T08:55:10.696Z</time>
      </trkpt>
      <trkpt lat="44.12485" lon="0.60508">
        <ele>98</ele>
        <time>2025-08-10T08:55:11.696Z</time>
      </trkpt>
      <trkpt lat="44.12484" lon="0.60507">
        <ele>98</ele>
        <time>2025-08-10T08:55:12.696Z</time>
      </trkpt>
      <trkpt lat="44.12484" lon="0.60508">
        <ele>98</ele>
        <time>2025-08-10T08:55:13.696Z</time>
      </trkpt>
      <trkpt lat="44.12484" lon="0.60508">
        <ele>98</ele>
        <time>2025-08-10T08:55:14.696Z</time>
      </trkpt>
      <trkpt lat="44.12483" lon="0.60507">
        <ele>98</ele>
        <time>2025-08-10T08:55:15.696Z</time>
      </trkpt>
      <trkpt lat="44.12483" lon="0.60507">
        <ele>98</ele>
        <time>2025-08-10T08:55:16.696Z</time>
      </trkpt>
      <trkpt lat="44.12484" lon="0.60507">
        <ele>98</ele>
        <time>2025-08-10T08:55:17.696Z</time>
      </trkpt>
      <trkpt lat="44.12484" lon="0.60507">
        <ele>98</ele>
        <time>2025-08-10T08:55:18.696Z</time>
      </trkpt>
      <trkpt lat="44.12484" lon="0.60507">
        <ele>98</ele>
        <time>2025-08-10T08:55:19.696Z</time>
      </trkpt>
      <trkpt lat="44.12485" lon="0.60507">
        <ele>98</ele>
        <time>2025-08-10T08:55:20.696Z</time>
      </trkpt>
      <trkpt lat="44.12485" lon="0.60508">
        <ele>99</ele>
        <time>2025-08-10T08:55:21.696Z</time>
      </trkpt>
      <trkpt lat="44.12486" lon="0.60508">
        <ele>99</ele>
        <time>2025-08-10T08:55:22.696Z</time>
      </trkpt>
      <trkpt lat="44.12486" lon="0.60508">
        <ele>99</ele>
        <time>2025-08-10T08:55:23.696Z</time>
      </trkpt>
      <trkpt lat="44.12486" lon="0.60508">
        <ele>99</ele>
        <time>2025-08-10T08:55:24.696Z</time>
      </trkpt>
      <trkpt lat="44.12486" lon="0.60508">
        <ele>99</ele>
        <time>2025-08-10T08:55:25.696Z</time>
      </trkpt>
      <trkpt lat="44.12486" lon="0.60508">
        <ele>99</ele>
        <time>2025-08-10T08:55:26.696Z</time>
      </trkpt>
      <trkpt lat="44.12486" lon="0.60508">
        <ele>98</ele>
        <time>2025-08-10T08:55:27.696Z</time>
      </trkpt>
      <trkpt lat="44.12486" lon="0.60508">
        <ele>98</ele>
        <time>2025-08-10T08:55:28.696Z</time>
      </trkpt>
      <trkpt lat="44.12486" lon="0.60509">
        <ele>98</ele>
        <time>2025-08-10T08:55:29.696Z</time>
      </trkpt>
      <trkpt lat="44.12486" lon="0.60509">
        <ele>97</ele>
        <time>2025-08-10T08:55:30.696Z</time>
      </trkpt>
      <trkpt lat="44.12486" lon="0.60509">
        <ele>97</ele>
        <time>2025-08-10T08:55:31.696Z</time>
      </trkpt>
      <trkpt lat="44.12486" lon="0.60509">
        <ele>97</ele>
        <time>2025-08-10T08:55:32.696Z</time>
      </trkpt>
      <trkpt lat="44.12486" lon="0.60509">
        <ele>97</ele>
        <time>2025-08-10T08:55:33.696Z</time>
      </trkpt>
      <trkpt lat="44.12485" lon="0.60509">
        <ele>97</ele>
        <time>2025-08-10T08:55:34.696Z</time>
      </trkpt>
      <trkpt lat="44.12485" lon="0.60509">
        <ele>97</ele>
        <time>2025-08-10T08:55:35.696Z</time>
      </trkpt>
      <trkpt lat="44.12485" lon="0.60509">
        <ele>96</ele>
        <time>2025-08-10T08:55:36.696Z</time>
      </trkpt>
      <trkpt lat="44.12485" lon="0.60509">
        <ele>96</ele>
        <time>2025-08-10T08:55:37.696Z</time>
      </trkpt>
      <trkpt lat="44.12485" lon="0.60509">
        <ele>96</ele>
        <time>2025-08-10T08:55:38.696Z</time>
      </trkpt>
      <trkpt lat="44.12485" lon="0.60509">
        <ele>96</ele>
        <time>2025-08-10T08:55:39.696Z</time>
      </trkpt>
      <trkpt lat="44.12485" lon="0.60509">
        <ele>96</ele>
        <time>2025-08-10T08:55:40.696Z</time>
      </trkpt>
      <trkpt lat="44.12484" lon="0.60509">
        <ele>96</ele>
        <time>2025-08-10T08:55:41.696Z</time>
      </trkpt>
      <trkpt lat="44.12484" lon="0.60508">
        <ele>95</ele>
        <time>2025-08-10T08:55:42.696Z</time>
      </trkpt>
      <trkpt lat="44.12484" lon="0.60508">
        <ele>95</ele>
        <time>2025-08-10T08:55:43.696Z</time>
      </trkpt>
      <trkpt lat="44.12483" lon="0.60508">
        <ele>95</ele>
        <time>2025-08-10T08:55:44.696Z</time>
      </trkpt>
      <trkpt lat="44.12483" lon="0.60507">
        <ele>95</ele>
        <time>2025-08-10T08:55:45.696Z</time>
      </trkpt>
      <trkpt lat="44.12482" lon="0.60507">
        <ele>95</ele>
        <time>2025-08-10T08:55:46.696Z</time>
      </trkpt>
      <trkpt lat="44.12482" lon="0.60506">
        <ele>95</ele>
        <time>2025-08-10T08:55:47.696Z</time>
      </trkpt>
      <trkpt lat="44.12481" lon="0.60506">
        <ele>94</ele>
        <time>2025-08-10T08:55:48.696Z</time>
      </trkpt>
      <trkpt lat="44.12481" lon="0.60506">
        <ele>94</ele>
        <time>2025-08-10T08:55:49.696Z</time>
      </trkpt>
      <trkpt lat="44.12481" lon="0.60506">
        <ele>94</ele>
        <time>2025-08-10T08:55:50.696Z</time>
      </trkpt>
      <trkpt lat="44.12481" lon="0.60506">
        <ele>94</ele>
        <time>2025-08-10T08:55:51.696Z</time>
      </trkpt>
      <trkpt lat="44.12481" lon="0.60506">
        <ele>93</ele>
        <time>2025-08-10T08:55:52.696Z</time>
      </trkpt>
      <trkpt lat="44.12481" lon="0.60506">
        <ele>93</ele>
        <time>2025-08-10T08:55:53.696Z</time>
      </trkpt>
      <trkpt lat="44.12481" lon="0.60506">
        <ele>93</ele>
        <time>2025-08-10T08:55:54.696Z</time>
      </trkpt>
      <trkpt lat="44.12481" lon="0.60506">
        <ele>93</ele>
        <time>2025-08-10T08:55:55.696Z</time>
      </trkpt>
      <trkpt lat="44.12481" lon="0.60506">
        <ele>93</ele>
        <time>2025-08-10T08:55:56.696Z</time>
      </trkpt>
      <trkpt lat="44.12481" lon="0.60506">
        <ele>93</ele>
        <time>2025-08-10T08:55:57.696Z</time>
      </trkpt>
      <trkpt lat="44.12481" lon="0.60506">
        <ele>94</ele>
        <time>2025-08-10T08:55:58.696Z</time>
      </trkpt>
      <trkpt lat="44.12481" lon="0.60506">
        <ele>94</ele>
        <time>2025-08-10T08:55:59.696Z</time>
      </trkpt>
      <trkpt lat="44.12481" lon="0.60506">
        <ele>94</ele>
        <time>2025-08-10T08:56:00.696Z</time>
      </trkpt>
      <trkpt lat="44.12481" lon="0.60506">
        <ele>94</ele>
        <time>2025-08-10T08:56:01.696Z</time>
      </trkpt>
      <trkpt lat="44.12481" lon="0.60506">
        <ele>94</ele>
        <time>2025-08-10T08:56:02.696Z</time>
      </trkpt>
      <trkpt lat="44.12481" lon="0.60506">
        <ele>95</ele>
        <time>2025-08-10T08:56:03.696Z</time>
      </trkpt>
      <trkpt lat="44.12481" lon="0.60506">
        <ele>96</ele>
        <time>2025-08-10T08:56:04.696Z</time>
      </trkpt>
      <trkpt lat="44.12482" lon="0.60506">
        <ele>96</ele>
        <time>2025-08-10T08:56:05.696Z</time>
      </trkpt>
      <trkpt lat="44.12482" lon="0.60506">
        <ele>97</ele>
        <time>2025-08-10T08:56:06.696Z</time>
      </trkpt>
      <trkpt lat="44.12482" lon="0.60506">
        <ele>97</ele>
        <time>2025-08-10T08:56:07.696Z</time>
      </trkpt>
      <trkpt lat="44.12482" lon="0.60506">
        <ele>97</ele>
        <time>2025-08-10T08:56:08.696Z</time>
      </trkpt>
      <trkpt lat="44.12482" lon="0.60506">
        <ele>97</ele>
        <time>2025-08-10T08:56:09.696Z</time>
      </trkpt>
      <trkpt lat="44.12482" lon="0.60506">
        <ele>97</ele>
        <time>2025-08-10T08:56:10.696Z</time>
      </trkpt>
      <trkpt lat="44.12482" lon="0.60506">
        <ele>97</ele>
        <time>2025-08-10T08:56:11.696Z</time>
      </trkpt>
      <trkpt lat="44.12482" lon="0.60506">
        <ele>97</ele>
        <time>2025-08-10T08:56:12.696Z</time>
      </trkpt>
      <trkpt lat="44.12482" lon="0.60506">
        <ele>96</ele>
        <time>2025-08-10T08:56:13.696Z</time>
      </trkpt>
      <trkpt lat="44.12482" lon="0.60506">
        <ele>96</ele>
        <time>2025-08-10T08:56:14.696Z</time>
      </trkpt>
      <trkpt lat="44.12482" lon="0.60506">
        <ele>96</ele>
        <time>2025-08-10T08:56:15.696Z</time>
      </trkpt>
      <trkpt lat="44.12482" lon="0.60506">
        <ele>96</ele>
        <time>2025-08-10T08:56:16.696Z</time>
      </trkpt>
      <trkpt lat="44.12482" lon="0.60506">
        <ele>96</ele>
        <time>2025-08-10T08:56:17.696Z</time>
      </trkpt>
      <trkpt lat="44.12482" lon="0.60507">
        <ele>96</ele>
        <time>2025-08-10T08:56:18.696Z</time>
      </trkpt>
      <trkpt lat="44.12483" lon="0.60507">
        <ele>96</ele>
        <time>2025-08-10T08:56:19.696Z</time>
      </trkpt>
      <trkpt lat="44.12483" lon="0.60507">
        <ele>96</ele>
        <time>2025-08-10T08:56:20.696Z</time>
      </trkpt>
      <trkpt lat="44.12482" lon="0.60507">
        <ele>97</ele>
        <time>2025-08-10T08:56:21.696Z</time>
      </trkpt>
      <trkpt lat="44.12482" lon="0.60507">
        <ele>97</ele>
        <time>2025-08-10T08:56:22.696Z</time>
      </trkpt>
      <trkpt lat="44.12483" lon="0.60507">
        <ele>97</ele>
        <time>2025-08-10T08:56:23.696Z</time>
      </trkpt>
      <trkpt lat="44.12483" lon="0.60507">
        <ele>97</ele>
        <time>2025-08-10T08:56:24.696Z</time>
      </trkpt>
      <trkpt lat="44.12483" lon="0.60507">
        <ele>97</ele>
        <time>2025-08-10T08:56:25.696Z</time>
      </trkpt>
      <trkpt lat="44.12483" lon="0.60507">
        <ele>97</ele>
        <time>2025-08-10T08:56:26.696Z</time>
      </trkpt>
      <trkpt lat="44.12483" lon="0.60507">
        <ele>97</ele>
        <time>2025-08-10T08:56:27.696Z</time>
      </trkpt>
      <trkpt lat="44.12483" lon="0.60507">
        <ele>97</ele>
        <time>2025-08-10T08:56:28.696Z</time>
      </trkpt>
      <trkpt lat="44.12483" lon="0.60506">
        <ele>97</ele>
        <time>2025-08-10T08:56:29.696Z</time>
      </trkpt>
      <trkpt lat="44.12483" lon="0.60506">
        <ele>97</ele>
        <time>2025-08-10T08:56:30.696Z</time>
      </trkpt>
      <trkpt lat="44.12483" lon="0.60506">
        <ele>97</ele>
        <time>2025-08-10T08:56:31.696Z</time>
      </trkpt>
      <trkpt lat="44.12483" lon="0.60506">
        <ele>97</ele>
        <time>2025-08-10T08:56:32.696Z</time>
      </trkpt>
      <trkpt lat="44.12483" lon="0.60506">
        <ele>97</ele>
        <time>2025-08-10T08:56:33.696Z</time>
      </trkpt>
      <trkpt lat="44.12483" lon="0.60506">
        <ele>97</ele>
        <time>2025-08-10T08:56:34.696Z</time>
      </trkpt>
      <trkpt lat="44.12483" lon="0.60505">
        <ele>97</ele>
        <time>2025-08-10T08:56:35.696Z</time>
      </trkpt>
      <trkpt lat="44.12483" lon="0.60505">
        <ele>96</ele>
        <time>2025-08-10T08:56:36.696Z</time>
      </trkpt>
      <trkpt lat="44.12483" lon="0.60505">
        <ele>96</ele>
        <time>2025-08-10T08:56:37.696Z</time>
      </trkpt>
      <trkpt lat="44.12483" lon="0.60505">
        <ele>96</ele>
        <time>2025-08-10T08:56:38.696Z</time>
      </trkpt>
      <trkpt lat="44.12484" lon="0.60505">
        <ele>95</ele>
        <time>2025-08-10T08:56:39.696Z</time>
      </trkpt>
      <trkpt lat="44.12484" lon="0.60505">
        <ele>95</ele>
        <time>2025-08-10T08:56:40.696Z</time>
      </trkpt>
      <trkpt lat="44.12485" lon="0.60505">
        <ele>96</ele>
        <time>2025-08-10T08:56:41.696Z</time>
      </trkpt>
      <trkpt lat="44.12486" lon="0.60506">
        <ele>96</ele>
        <time>2025-08-10T08:56:42.696Z</time>
      </trkpt>
      <trkpt lat="44.12487" lon="0.60506">
        <ele>96</ele>
        <time>2025-08-10T08:56:43.696Z</time>
      </trkpt>
      <trkpt lat="44.12488" lon="0.60506">
        <ele>96</ele>
        <time>2025-08-10T08:56:44.696Z</time>
      </trkpt>
      <trkpt lat="44.12489" lon="0.60507">
        <ele>97</ele>
        <time>2025-08-10T08:56:45.696Z</time>
      </trkpt>
      <trkpt lat="44.1249" lon="0.60507">
        <ele>97</ele>
        <time>2025-08-10T08:56:46.696Z</time>
      </trkpt>
      <trkpt lat="44.12491" lon="0.60506">
        <ele>98</ele>
        <time>2025-08-10T08:56:47.696Z</time>
      </trkpt>
      <trkpt lat="44.12493" lon="0.60506">
        <ele>98</ele>
        <time>2025-08-10T08:56:48.696Z</time>
      </trkpt>
      <trkpt lat="44.12495" lon="0.60506">
        <ele>99</ele>
        <time>2025-08-10T08:56:49.696Z</time>
      </trkpt>
      <trkpt lat="44.12497" lon="0.60507">
        <ele>99</ele>
        <time>2025-08-10T08:56:50.696Z</time>
      </trkpt>
      <trkpt lat="44.12498" lon="0.60508">
        <ele>99</ele>
        <time>2025-08-10T08:56:51.696Z</time>
      </trkpt>
      <trkpt lat="44.12499" lon="0.60509">
        <ele>99</ele>
        <time>2025-08-10T08:56:52.696Z</time>
      </trkpt>
      <trkpt lat="44.125" lon="0.60509">
        <ele>99</ele>
        <time>2025-08-10T08:56:53.696Z</time>
      </trkpt>
      <trkpt lat="44.12502" lon="0.6051">
        <ele>99</ele>
        <time>2025-08-10T08:56:54.696Z</time>
      </trkpt>
      <trkpt lat="44.12503" lon="0.6051">
        <ele>99</ele>
        <time>2025-08-10T08:56:55.696Z</time>
      </trkpt>
      <trkpt lat="44.12505" lon="0.60511">
        <ele>99</ele>
        <time>2025-08-10T08:56:56.696Z</time>
      </trkpt>
      <trkpt lat="44.12506" lon="0.60511">
        <ele>100</ele>
        <time>2025-08-10T08:56:57.696Z</time>
      </trkpt>
      <trkpt lat="44.12507" lon="0.60511">
        <ele>100</ele>
        <time>2025-08-10T08:56:58.696Z</time>
      </trkpt>
      <trkpt lat="44.12508" lon="0.60512">
        <ele>100</ele>
        <time>2025-08-10T08:56:59.696Z</time>
      </trkpt>
      <trkpt lat="44.12509" lon="0.60513">
        <ele>101</ele>
        <time>2025-08-10T08:57:00.696Z</time>
      </trkpt>
      <trkpt lat="44.1251" lon="0.60514">
        <ele>100</ele>
        <time>2025-08-10T08:57:01.696Z</time>
      </trkpt>
      <trkpt lat="44.12512" lon="0.60515">
        <ele>100</ele>
        <time>2025-08-10T08:57:02.696Z</time>
      </trkpt>
      <trkpt lat="44.12512" lon="0.60515">
        <ele>100</ele>
        <time>2025-08-10T08:57:03.696Z</time>
      </trkpt>
      <trkpt lat="44.12513" lon="0.60516">
        <ele>100</ele>
        <time>2025-08-10T08:57:04.696Z</time>
      </trkpt>
      <trkpt lat="44.12514" lon="0.60517">
        <ele>100</ele>
        <time>2025-08-10T08:57:05.696Z</time>
      </trkpt>
      <trkpt lat="44.12515" lon="0.60518">
        <ele>100</ele>
        <time>2025-08-10T08:57:06.696Z</time>
      </trkpt>
      <trkpt lat="44.12516" lon="0.60519">
        <ele>100</ele>
        <time>2025-08-10T08:57:07.696Z</time>
      </trkpt>
      <trkpt lat="44.12517" lon="0.60519">
        <ele>101</ele>
        <time>2025-08-10T08:57:08.696Z</time>
      </trkpt>
      <trkpt lat="44.12517" lon="0.6052">
        <ele>101</ele>
        <time>2025-08-10T08:57:09.696Z</time>
      </trkpt>
      <trkpt lat="44.12518" lon="0.60521">
        <ele>100</ele>
        <time>2025-08-10T08:57:10.696Z</time>
      </trkpt>
      <trkpt lat="44.12519" lon="0.60522">
        <ele>100</ele>
        <time>2025-08-10T08:57:11.696Z</time>
      </trkpt>
      <trkpt lat="44.1252" lon="0.60523">
        <ele>100</ele>
        <time>2025-08-10T08:57:12.696Z</time>
      </trkpt>
      <trkpt lat="44.12521" lon="0.60523">
        <ele>100</ele>
        <time>2025-08-10T08:57:13.696Z</time>
      </trkpt>
      <trkpt lat="44.12522" lon="0.60524">
        <ele>100</ele>
        <time>2025-08-10T08:57:14.696Z</time>
      </trkpt>
      <trkpt lat="44.12523" lon="0.60525">
        <ele>101</ele>
        <time>2025-08-10T08:57:15.696Z</time>
      </trkpt>
      <trkpt lat="44.12524" lon="0.60526">
        <ele>100</ele>
        <time>2025-08-10T08:57:16.696Z</time>
      </trkpt>
      <trkpt lat="44.12525" lon="0.60527">
        <ele>101</ele>
        <time>2025-08-10T08:57:17.696Z</time>
      </trkpt>
      <trkpt lat="44.12526" lon="0.60528">
        <ele>101</ele>
        <time>2025-08-10T08:57:18.696Z</time>
      </trkpt>
      <trkpt lat="44.12527" lon="0.60529">
        <ele>101</ele>
        <time>2025-08-10T08:57:19.696Z</time>
      </trkpt>
      <trkpt lat="44.12528" lon="0.6053">
        <ele>101</ele>
        <time>2025-08-10T08:57:20.696Z</time>
      </trkpt>
      <trkpt lat="44.12529" lon="0.60531">
        <ele>101</ele>
        <time>2025-08-10T08:57:21.696Z</time>
      </trkpt>
      <trkpt lat="44.1253" lon="0.60531">
        <ele>102</ele>
        <time>2025-08-10T08:57:22.696Z</time>
      </trkpt>
      <trkpt lat="44.12531" lon="0.60532">
        <ele>102</ele>
        <time>2025-08-10T08:57:23.696Z</time>
      </trkpt>
      <trkpt lat="44.12532" lon="0.60532">
        <ele>103</ele>
        <time>2025-08-10T08:57:24.696Z</time>
      </trkpt>
      <trkpt lat="44.12532" lon="0.60533">
        <ele>103</ele>
        <time>2025-08-10T08:57:25.696Z</time>
      </trkpt>
      <trkpt lat="44.12533" lon="0.60534">
        <ele>103</ele>
        <time>2025-08-10T08:57:26.696Z</time>
      </trkpt>
      <trkpt lat="44.12534" lon="0.60535">
        <ele>103</ele>
        <time>2025-08-10T08:57:27.696Z</time>
      </trkpt>
      <trkpt lat="44.12535" lon="0.60536">
        <ele>103</ele>
        <time>2025-08-10T08:57:28.696Z</time>
      </trkpt>
      <trkpt lat="44.12535" lon="0.60537">
        <ele>103</ele>
        <time>2025-08-10T08:57:29.696Z</time>
      </trkpt>
      <trkpt lat="44.12536" lon="0.60538">
        <ele>103</ele>
        <time>2025-08-10T08:57:30.696Z</time>
      </trkpt>
      <trkpt lat="44.12536" lon="0.60538">
        <ele>104</ele>
        <time>2025-08-10T08:57:31.696Z</time>
      </trkpt>
      <trkpt lat="44.12536" lon="0.60538">
        <ele>104</ele>
        <time>2025-08-10T08:57:32.696Z</time>
      </trkpt>
      <trkpt lat="44.12536" lon="0.60538">
        <ele>104</ele>
        <time>2025-08-10T08:57:33.696Z</time>
      </trkpt>
      <trkpt lat="44.12536" lon="0.60538">
        <ele>104</ele>
        <time>2025-08-10T08:57:34.696Z</time>
      </trkpt>
      <trkpt lat="44.12536" lon="0.60538">
        <ele>104</ele>
        <time>2025-08-10T08:57:35.696Z</time>
      </trkpt>
      <trkpt lat="44.12536" lon="0.60538">
        <ele>104</ele>
        <time>2025-08-10T08:57:36.696Z</time>
      </trkpt>
      <trkpt lat="44.12536" lon="0.60538">
        <ele>104</ele>
        <time>2025-08-10T08:57:37.696Z</time>
      </trkpt>
      <trkpt lat="44.12536" lon="0.60539">
        <ele>104</ele>
        <time>2025-08-10T08:57:38.696Z</time>
      </trkpt>
      <trkpt lat="44.12537" lon="0.60539">
        <ele>104</ele>
        <time>2025-08-10T08:57:39.696Z</time>
      </trkpt>
      <trkpt lat="44.12538" lon="0.60539">
        <ele>104</ele>
        <time>2025-08-10T08:57:40.696Z</time>
      </trkpt>
      <trkpt lat="44.12539" lon="0.60539">
        <ele>105</ele>
        <time>2025-08-10T08:57:41.696Z</time>
      </trkpt>
      <trkpt lat="44.1254" lon="0.6054">
        <ele>105</ele>
        <time>2025-08-10T08:57:42.696Z</time>
      </trkpt>
      <trkpt lat="44.12541" lon="0.60539">
        <ele>105</ele>
        <time>2025-08-10T08:57:43.696Z</time>
      </trkpt>
      <trkpt lat="44.12542" lon="0.60539">
        <ele>105</ele>
        <time>2025-08-10T08:57:44.696Z</time>
      </trkpt>
      <trkpt lat="44.12544" lon="0.60539">
        <ele>106</ele>
        <time>2025-08-10T08:57:45.696Z</time>
      </trkpt>
      <trkpt lat="44.12545" lon="0.60539">
        <ele>106</ele>
        <time>2025-08-10T08:57:46.696Z</time>
      </trkpt>
      <trkpt lat="44.12546" lon="0.6054">
        <ele>106</ele>
        <time>2025-08-10T08:57:47.696Z</time>
      </trkpt>
      <trkpt lat="44.12547" lon="0.6054">
        <ele>106</ele>
        <time>2025-08-10T08:57:48.696Z</time>
      </trkpt>
      <trkpt lat="44.12548" lon="0.60541">
        <ele>107</ele>
        <time>2025-08-10T08:57:49.696Z</time>
      </trkpt>
      <trkpt lat="44.12549" lon="0.60541">
        <ele>107</ele>
        <time>2025-08-10T08:57:50.696Z</time>
      </trkpt>
      <trkpt lat="44.12551" lon="0.60542">
        <ele>107</ele>
        <time>2025-08-10T08:57:51.696Z</time>
      </trkpt>
      <trkpt lat="44.12552" lon="0.60542">
        <ele>106</ele>
        <time>2025-08-10T08:57:52.696Z</time>
      </trkpt>
      <trkpt lat="44.12554" lon="0.60542">
        <ele>106</ele>
        <time>2025-08-10T08:57:53.696Z</time>
      </trkpt>
      <trkpt lat="44.12555" lon="0.60543">
        <ele>107</ele>
        <time>2025-08-10T08:57:54.696Z</time>
      </trkpt>
      <trkpt lat="44.12556" lon="0.60543">
        <ele>107</ele>
        <time>2025-08-10T08:57:55.696Z</time>
      </trkpt>
      <trkpt lat="44.12556" lon="0.60543">
        <ele>107</ele>
        <time>2025-08-10T08:57:56.696Z</time>
      </trkpt>
      <trkpt lat="44.12558" lon="0.60543">
        <ele>107</ele>
        <time>2025-08-10T08:57:57.696Z</time>
      </trkpt>
      <trkpt lat="44.12559" lon="0.60544">
        <ele>108</ele>
        <time>2025-08-10T08:57:58.696Z</time>
      </trkpt>
      <trkpt lat="44.1256" lon="0.60544">
        <ele>108</ele>
        <time>2025-08-10T08:57:59.696Z</time>
      </trkpt>
      <trkpt lat="44.12562" lon="0.60544">
        <ele>108</ele>
        <time>2025-08-10T08:58:00.696Z</time>
      </trkpt>
      <trkpt lat="44.12563" lon="0.60544">
        <ele>108</ele>
        <time>2025-08-10T08:58:01.696Z</time>
      </trkpt>
      <trkpt lat="44.12564" lon="0.60544">
        <ele>108</ele>
        <time>2025-08-10T08:58:02.696Z</time>
      </trkpt>
      <trkpt lat="44.12564" lon="0.60544">
        <ele>108</ele>
        <time>2025-08-10T08:58:03.696Z</time>
      </trkpt>
      <trkpt lat="44.12566" lon="0.60545">
        <ele>108</ele>
        <time>2025-08-10T08:58:04.696Z</time>
      </trkpt>
      <trkpt lat="44.12567" lon="0.60545">
        <ele>108</ele>
        <time>2025-08-10T08:58:05.696Z</time>
      </trkpt>
      <trkpt lat="44.12567" lon="0.60544">
        <ele>108</ele>
        <time>2025-08-10T08:58:06.696Z</time>
      </trkpt>
      <trkpt lat="44.12569" lon="0.60545">
        <ele>107</ele>
        <time>2025-08-10T08:58:07.696Z</time>
      </trkpt>
      <trkpt lat="44.1257" lon="0.60545">
        <ele>107</ele>
        <time>2025-08-10T08:58:08.696Z</time>
      </trkpt>
      <trkpt lat="44.1257" lon="0.60546">
        <ele>107</ele>
        <time>2025-08-10T08:58:09.696Z</time>
      </trkpt>
      <trkpt lat="44.12572" lon="0.60547">
        <ele>107</ele>
        <time>2025-08-10T08:58:10.696Z</time>
      </trkpt>
      <trkpt lat="44.12573" lon="0.60546">
        <ele>107</ele>
        <time>2025-08-10T08:58:11.696Z</time>
      </trkpt>
      <trkpt lat="44.12574" lon="0.60547">
        <ele>107</ele>
        <time>2025-08-10T08:58:12.696Z</time>
      </trkpt>
      <trkpt lat="44.12574" lon="0.60547">
        <ele>107</ele>
        <time>2025-08-10T08:58:13.696Z</time>
      </trkpt>
      <trkpt lat="44.12575" lon="0.60548">
        <ele>107</ele>
        <time>2025-08-10T08:58:14.696Z</time>
      </trkpt>
      <trkpt lat="44.12576" lon="0.60548">
        <ele>107</ele>
        <time>2025-08-10T08:58:15.696Z</time>
      </trkpt>
      <trkpt lat="44.12577" lon="0.60549">
        <ele>107</ele>
        <time>2025-08-10T08:58:16.696Z</time>
      </trkpt>
      <trkpt lat="44.12578" lon="0.6055">
        <ele>107</ele>
        <time>2025-08-10T08:58:17.696Z</time>
      </trkpt>
      <trkpt lat="44.12579" lon="0.6055">
        <ele>107</ele>
        <time>2025-08-10T08:58:18.696Z</time>
      </trkpt>
      <trkpt lat="44.1258" lon="0.60551">
        <ele>107</ele>
        <time>2025-08-10T08:58:19.696Z</time>
      </trkpt>
      <trkpt lat="44.12581" lon="0.60551">
        <ele>107</ele>
        <time>2025-08-10T08:58:20.696Z</time>
      </trkpt>
      <trkpt lat="44.12582" lon="0.60552">
        <ele>106</ele>
        <time>2025-08-10T08:58:21.696Z</time>
      </trkpt>
      <trkpt lat="44.12583" lon="0.60553">
        <ele>106</ele>
        <time>2025-08-10T08:58:22.696Z</time>
      </trkpt>
      <trkpt lat="44.12585" lon="0.60553">
        <ele>106</ele>
        <time>2025-08-10T08:58:23.696Z</time>
      </trkpt>
      <trkpt lat="44.12586" lon="0.60554">
        <ele>105</ele>
        <time>2025-08-10T08:58:24.696Z</time>
      </trkpt>
      <trkpt lat="44.12587" lon="0.60554">
        <ele>105</ele>
        <time>2025-08-10T08:58:25.696Z</time>
      </trkpt>
      <trkpt lat="44.12588" lon="0.60554">
        <ele>105</ele>
        <time>2025-08-10T08:58:26.696Z</time>
      </trkpt>
      <trkpt lat="44.12589" lon="0.60555">
        <ele>105</ele>
        <time>2025-08-10T08:58:27.696Z</time>
      </trkpt>
      <trkpt lat="44.1259" lon="0.60555">
        <ele>104</ele>
        <time>2025-08-10T08:58:28.697Z</time>
      </trkpt>
      <trkpt lat="44.12592" lon="0.60556">
        <ele>104</ele>
        <time>2025-08-10T08:58:29.696Z</time>
      </trkpt>
      <trkpt lat="44.12593" lon="0.60556">
        <ele>104</ele>
        <time>2025-08-10T08:58:30.696Z</time>
      </trkpt>
      <trkpt lat="44.12594" lon="0.60557">
        <ele>104</ele>
        <time>2025-08-10T08:58:31.696Z</time>
      </trkpt>
      <trkpt lat="44.12595" lon="0.60558">
        <ele>103</ele>
        <time>2025-08-10T08:58:32.696Z</time>
      </trkpt>
      <trkpt lat="44.12595" lon="0.60558">
        <ele>103</ele>
        <time>2025-08-10T08:58:33.696Z</time>
      </trkpt>
      <trkpt lat="44.12596" lon="0.60559">
        <ele>102</ele>
        <time>2025-08-10T08:58:34.696Z</time>
      </trkpt>
      <trkpt lat="44.12596" lon="0.60559">
        <ele>102</ele>
        <time>2025-08-10T08:58:35.696Z</time>
      </trkpt>
      <trkpt lat="44.12597" lon="0.6056">
        <ele>102</ele>
        <time>2025-08-10T08:58:36.696Z</time>
      </trkpt>
      <trkpt lat="44.12598" lon="0.6056">
        <ele>102</ele>
        <time>2025-08-10T08:58:37.696Z</time>
      </trkpt>
      <trkpt lat="44.126" lon="0.60561">
        <ele>101</ele>
        <time>2025-08-10T08:58:38.696Z</time>
      </trkpt>
      <trkpt lat="44.12601" lon="0.60562">
        <ele>101</ele>
        <time>2025-08-10T08:58:39.696Z</time>
      </trkpt>
      <trkpt lat="44.12602" lon="0.60563">
        <ele>101</ele>
        <time>2025-08-10T08:58:40.696Z</time>
      </trkpt>
      <trkpt lat="44.12603" lon="0.60563">
        <ele>101</ele>
        <time>2025-08-10T08:58:41.696Z</time>
      </trkpt>
      <trkpt lat="44.12604" lon="0.60564">
        <ele>101</ele>
        <time>2025-08-10T08:58:42.696Z</time>
      </trkpt>
      <trkpt lat="44.12605" lon="0.60564">
        <ele>101</ele>
        <time>2025-08-10T08:58:43.696Z</time>
      </trkpt>
      <trkpt lat="44.12606" lon="0.60565">
        <ele>101</ele>
        <time>2025-08-10T08:58:44.696Z</time>
      </trkpt>
      <trkpt lat="44.12608" lon="0.60566">
        <ele>102</ele>
        <time>2025-08-10T08:58:45.696Z</time>
      </trkpt>
      <trkpt lat="44.12609" lon="0.60566">
        <ele>102</ele>
        <time>2025-08-10T08:58:46.696Z</time>
      </trkpt>
      <trkpt lat="44.12611" lon="0.60566">
        <ele>102</ele>
        <time>2025-08-10T08:58:47.696Z</time>
      </trkpt>
      <trkpt lat="44.12612" lon="0.60566">
        <ele>103</ele>
        <time>2025-08-10T08:58:48.696Z</time>
      </trkpt>
      <trkpt lat="44.12613" lon="0.60566">
        <ele>103</ele>
        <time>2025-08-10T08:58:49.696Z</time>
      </trkpt>
      <trkpt lat="44.12614" lon="0.60567">
        <ele>104</ele>
        <time>2025-08-10T08:58:50.696Z</time>
      </trkpt>
      <trkpt lat="44.12616" lon="0.60568">
        <ele>104</ele>
        <time>2025-08-10T08:58:51.696Z</time>
      </trkpt>
      <trkpt lat="44.12617" lon="0.60568">
        <ele>104</ele>
        <time>2025-08-10T08:58:52.696Z</time>
      </trkpt>
      <trkpt lat="44.12618" lon="0.60569">
        <ele>104</ele>
        <time>2025-08-10T08:58:53.696Z</time>
      </trkpt>
      <trkpt lat="44.12619" lon="0.6057">
        <ele>104</ele>
        <time>2025-08-10T08:58:54.696Z</time>
      </trkpt>
      <trkpt lat="44.12621" lon="0.6057">
        <ele>104</ele>
        <time>2025-08-10T08:58:55.696Z</time>
      </trkpt>
      <trkpt lat="44.12622" lon="0.60571">
        <ele>104</ele>
        <time>2025-08-10T08:58:56.696Z</time>
      </trkpt>
      <trkpt lat="44.12623" lon="0.60571">
        <ele>105</ele>
        <time>2025-08-10T08:58:57.696Z</time>
      </trkpt>
      <trkpt lat="44.12624" lon="0.60572">
        <ele>105</ele>
        <time>2025-08-10T08:58:58.696Z</time>
      </trkpt>
      <trkpt lat="44.12625" lon="0.60574">
        <ele>104</ele>
        <time>2025-08-10T08:58:59.696Z</time>
      </trkpt>
      <trkpt lat="44.12626" lon="0.60574">
        <ele>104</ele>
        <time>2025-08-10T08:59:00.696Z</time>
      </trkpt>
      <trkpt lat="44.12627" lon="0.60576">
        <ele>104</ele>
        <time>2025-08-10T08:59:01.696Z</time>
      </trkpt>
      <trkpt lat="44.12628" lon="0.60577">
        <ele>103</ele>
        <time>2025-08-10T08:59:02.696Z</time>
      </trkpt>
      <trkpt lat="44.12629" lon="0.60579">
        <ele>103</ele>
        <time>2025-08-10T08:59:03.696Z</time>
      </trkpt>
      <trkpt lat="44.1263" lon="0.60581">
        <ele>102</ele>
        <time>2025-08-10T08:59:04.696Z</time>
      </trkpt>
      <trkpt lat="44.12631" lon="0.60581">
        <ele>102</ele>
        <time>2025-08-10T08:59:05.696Z</time>
      </trkpt>
      <trkpt lat="44.12632" lon="0.60583">
        <ele>101</ele>
        <time>2025-08-10T08:59:06.696Z</time>
      </trkpt>
      <trkpt lat="44.12633" lon="0.60584">
        <ele>101</ele>
        <time>2025-08-10T08:59:07.696Z</time>
      </trkpt>
      <trkpt lat="44.12633" lon="0.60585">
        <ele>100</ele>
        <time>2025-08-10T08:59:08.696Z</time>
      </trkpt>
      <trkpt lat="44.12634" lon="0.60586">
        <ele>99</ele>
        <time>2025-08-10T08:59:09.696Z</time>
      </trkpt>
      <trkpt lat="44.12635" lon="0.60588">
        <ele>99</ele>
        <time>2025-08-10T08:59:10.696Z</time>
      </trkpt>
      <trkpt lat="44.12636" lon="0.6059">
        <ele>99</ele>
        <time>2025-08-10T08:59:11.696Z</time>
      </trkpt>
      <trkpt lat="44.12637" lon="0.6059">
        <ele>99</ele>
        <time>2025-08-10T08:59:12.696Z</time>
      </trkpt>
      <trkpt lat="44.12637" lon="0.6059">
        <ele>99</ele>
        <time>2025-08-10T08:59:13.696Z</time>
      </trkpt>
      <trkpt lat="44.12638" lon="0.6059">
        <ele>99</ele>
        <time>2025-08-10T08:59:14.696Z</time>
      </trkpt>
      <trkpt lat="44.12639" lon="0.60591">
        <ele>99</ele>
        <time>2025-08-10T08:59:15.696Z</time>
      </trkpt>
      <trkpt lat="44.1264" lon="0.60591">
        <ele>99</ele>
        <time>2025-08-10T08:59:16.696Z</time>
      </trkpt>
      <trkpt lat="44.12641" lon="0.60592">
        <ele>99</ele>
        <time>2025-08-10T08:59:17.696Z</time>
      </trkpt>
      <trkpt lat="44.12641" lon="0.60593">
        <ele>99</ele>
        <time>2025-08-10T08:59:18.696Z</time>
      </trkpt>
      <trkpt lat="44.12642" lon="0.60594">
        <ele>100</ele>
        <time>2025-08-10T08:59:19.696Z</time>
      </trkpt>
      <trkpt lat="44.12643" lon="0.60595">
        <ele>100</ele>
        <time>2025-08-10T08:59:20.696Z</time>
      </trkpt>
      <trkpt lat="44.12644" lon="0.60596">
        <ele>100</ele>
        <time>2025-08-10T08:59:21.696Z</time>
      </trkpt>
      <trkpt lat="44.12645" lon="0.60598">
        <ele>100</ele>
        <time>2025-08-10T08:59:22.696Z</time>
      </trkpt>
      <trkpt lat="44.12646" lon="0.60599">
        <ele>100</ele>
        <time>2025-08-10T08:59:23.696Z</time>
      </trkpt>
      <trkpt lat="44.12647" lon="0.606">
        <ele>100</ele>
        <time>2025-08-10T08:59:24.696Z</time>
      </trkpt>
      <trkpt lat="44.12648" lon="0.60601">
        <ele>101</ele>
        <time>2025-08-10T08:59:25.696Z</time>
      </trkpt>
      <trkpt lat="44.12649" lon="0.60601">
        <ele>101</ele>
        <time>2025-08-10T08:59:26.696Z</time>
      </trkpt>
      <trkpt lat="44.1265" lon="0.60602">
        <ele>101</ele>
        <time>2025-08-10T08:59:27.696Z</time>
      </trkpt>
      <trkpt lat="44.12652" lon="0.60603">
        <ele>101</ele>
        <time>2025-08-10T08:59:28.696Z</time>
      </trkpt>
      <trkpt lat="44.12653" lon="0.60604">
        <ele>101</ele>
        <time>2025-08-10T08:59:29.696Z</time>
      </trkpt>
      <trkpt lat="44.12655" lon="0.60604">
        <ele>102</ele>
        <time>2025-08-10T08:59:30.696Z</time>
      </trkpt>
      <trkpt lat="44.12656" lon="0.60605">
        <ele>102</ele>
        <time>2025-08-10T08:59:31.696Z</time>
      </trkpt>
      <trkpt lat="44.12657" lon="0.60605">
        <ele>102</ele>
        <time>2025-08-10T08:59:32.696Z</time>
      </trkpt>
      <trkpt lat="44.12658" lon="0.60606">
        <ele>102</ele>
        <time>2025-08-10T08:59:33.696Z</time>
      </trkpt>
      <trkpt lat="44.12659" lon="0.60606">
        <ele>102</ele>
        <time>2025-08-10T08:59:34.696Z</time>
      </trkpt>
      <trkpt lat="44.1266" lon="0.60607">
        <ele>102</ele>
        <time>2025-08-10T08:59:35.696Z</time>
      </trkpt>
      <trkpt lat="44.12661" lon="0.60608">
        <ele>102</ele>
        <time>2025-08-10T08:59:36.696Z</time>
      </trkpt>
      <trkpt lat="44.12662" lon="0.60608">
        <ele>103</ele>
        <time>2025-08-10T08:59:37.696Z</time>
      </trkpt>
      <trkpt lat="44.12664" lon="0.60609">
        <ele>103</ele>
        <time>2025-08-10T08:59:38.696Z</time>
      </trkpt>
      <trkpt lat="44.12665" lon="0.60609">
        <ele>103</ele>
        <time>2025-08-10T08:59:39.696Z</time>
      </trkpt>
      <trkpt lat="44.12666" lon="0.6061">
        <ele>103</ele>
        <time>2025-08-10T08:59:40.696Z</time>
      </trkpt>
      <trkpt lat="44.12667" lon="0.6061">
        <ele>103</ele>
        <time>2025-08-10T08:59:41.696Z</time>
      </trkpt>
      <trkpt lat="44.12668" lon="0.60611">
        <ele>103</ele>
        <time>2025-08-10T08:59:42.696Z</time>
      </trkpt>
      <trkpt lat="44.12669" lon="0.60611">
        <ele>104</ele>
        <time>2025-08-10T08:59:43.696Z</time>
      </trkpt>
      <trkpt lat="44.1267" lon="0.60611">
        <ele>103</ele>
        <time>2025-08-10T08:59:44.696Z</time>
      </trkpt>
      <trkpt lat="44.12671" lon="0.6061">
        <ele>103</ele>
        <time>2025-08-10T08:59:45.696Z</time>
      </trkpt>
      <trkpt lat="44.12673" lon="0.60609">
        <ele>103</ele>
        <time>2025-08-10T08:59:46.696Z</time>
      </trkpt>
      <trkpt lat="44.12674" lon="0.60608">
        <ele>103</ele>
        <time>2025-08-10T08:59:47.696Z</time>
      </trkpt>
      <trkpt lat="44.12676" lon="0.60608">
        <ele>103</ele>
        <time>2025-08-10T08:59:48.696Z</time>
      </trkpt>
      <trkpt lat="44.12677" lon="0.60607">
        <ele>103</ele>
        <time>2025-08-10T08:59:49.696Z</time>
      </trkpt>
      <trkpt lat="44.12678" lon="0.60607">
        <ele>103</ele>
        <time>2025-08-10T08:59:50.696Z</time>
      </trkpt>
      <trkpt lat="44.12679" lon="0.60608">
        <ele>103</ele>
        <time>2025-08-10T08:59:51.696Z</time>
      </trkpt>
      <trkpt lat="44.1268" lon="0.60609">
        <ele>103</ele>
        <time>2025-08-10T08:59:52.696Z</time>
      </trkpt>
      <trkpt lat="44.12681" lon="0.60609">
        <ele>102</ele>
        <time>2025-08-10T08:59:53.696Z</time>
      </trkpt>
      <trkpt lat="44.12681" lon="0.60609">
        <ele>102</ele>
        <time>2025-08-10T08:59:54.696Z</time>
      </trkpt>
      <trkpt lat="44.12682" lon="0.60609">
        <ele>102</ele>
        <time>2025-08-10T08:59:55.696Z</time>
      </trkpt>
      <trkpt lat="44.12682" lon="0.60609">
        <ele>102</ele>
        <time>2025-08-10T08:59:56.696Z</time>
      </trkpt>
      <trkpt lat="44.12684" lon="0.60608">
        <ele>102</ele>
        <time>2025-08-10T08:59:57.696Z</time>
      </trkpt>
      <trkpt lat="44.12685" lon="0.60608">
        <ele>102</ele>
        <time>2025-08-10T08:59:58.696Z</time>
      </trkpt>
      <trkpt lat="44.12686" lon="0.60608">
        <ele>102</ele>
        <time>2025-08-10T08:59:59.696Z</time>
      </trkpt>
      <trkpt lat="44.12687" lon="0.60608">
        <ele>102</ele>
        <time>2025-08-10T09:00:00.696Z</time>
      </trkpt>
      <trkpt lat="44.12688" lon="0.60608">
        <ele>102</ele>
        <time>2025-08-10T09:00:01.696Z</time>
      </trkpt>
      <trkpt lat="44.12689" lon="0.60608">
        <ele>102</ele>
        <time>2025-08-10T09:00:02.696Z</time>
      </trkpt>
      <trkpt lat="44.12689" lon="0.60608">
        <ele>103</ele>
        <time>2025-08-10T09:00:03.696Z</time>
      </trkpt>
      <trkpt lat="44.1269" lon="0.60608">
        <ele>103</ele>
        <time>2025-08-10T09:00:04.696Z</time>
      </trkpt>
      <trkpt lat="44.1269" lon="0.60607">
        <ele>103</ele>
        <time>2025-08-10T09:00:05.696Z</time>
      </trkpt>
      <trkpt lat="44.1269" lon="0.60608">
        <ele>103</ele>
        <time>2025-08-10T09:00:06.696Z</time>
      </trkpt>
      <trkpt lat="44.12691" lon="0.60608">
        <ele>103</ele>
        <time>2025-08-10T09:00:07.696Z</time>
      </trkpt>
      <trkpt lat="44.12691" lon="0.60609">
        <ele>102</ele>
        <time>2025-08-10T09:00:08.696Z</time>
      </trkpt>
      <trkpt lat="44.12691" lon="0.60608">
        <ele>102</ele>
        <time>2025-08-10T09:00:09.696Z</time>
      </trkpt>
      <trkpt lat="44.12691" lon="0.60608">
        <ele>101</ele>
        <time>2025-08-10T09:00:10.696Z</time>
      </trkpt>
      <trkpt lat="44.12691" lon="0.60608">
        <ele>101</ele>
        <time>2025-08-10T09:00:11.696Z</time>
      </trkpt>
      <trkpt lat="44.12691" lon="0.60608">
        <ele>101</ele>
        <time>2025-08-10T09:00:12.696Z</time>
      </trkpt>
      <trkpt lat="44.12691" lon="0.60609">
        <ele>100</ele>
        <time>2025-08-10T09:00:13.696Z</time>
      </trkpt>
      <trkpt lat="44.12691" lon="0.60609">
        <ele>100</ele>
        <time>2025-08-10T09:00:14.696Z</time>
      </trkpt>
      <trkpt lat="44.12691" lon="0.60609">
        <ele>100</ele>
        <time>2025-08-10T09:00:15.696Z</time>
      </trkpt>
      <trkpt lat="44.12692" lon="0.60609">
        <ele>99</ele>
        <time>2025-08-10T09:00:16.696Z</time>
      </trkpt>
      <trkpt lat="44.12692" lon="0.60609">
        <ele>99</ele>
        <time>2025-08-10T09:00:17.696Z</time>
      </trkpt>
      <trkpt lat="44.12692" lon="0.60608">
        <ele>99</ele>
        <time>2025-08-10T09:00:18.696Z</time>
      </trkpt>
      <trkpt lat="44.12692" lon="0.60608">
        <ele>99</ele>
        <time>2025-08-10T09:00:19.696Z</time>
      </trkpt>
      <trkpt lat="44.12692" lon="0.60608">
        <ele>98</ele>
        <time>2025-08-10T09:00:20.696Z</time>
      </trkpt>
      <trkpt lat="44.12691" lon="0.60607">
        <ele>98</ele>
        <time>2025-08-10T09:00:21.696Z</time>
      </trkpt>
      <trkpt lat="44.12691" lon="0.60606">
        <ele>98</ele>
        <time>2025-08-10T09:00:22.696Z</time>
      </trkpt>
      <trkpt lat="44.1269" lon="0.60605">
        <ele>98</ele>
        <time>2025-08-10T09:00:23.696Z</time>
      </trkpt>
      <trkpt lat="44.1269" lon="0.60604">
        <ele>98</ele>
        <time>2025-08-10T09:00:24.696Z</time>
      </trkpt>
      <trkpt lat="44.12689" lon="0.60602">
        <ele>98</ele>
        <time>2025-08-10T09:00:25.696Z</time>
      </trkpt>
      <trkpt lat="44.12689" lon="0.60601">
        <ele>98</ele>
        <time>2025-08-10T09:00:26.696Z</time>
      </trkpt>
      <trkpt lat="44.12688" lon="0.60599">
        <ele>99</ele>
        <time>2025-08-10T09:00:27.696Z</time>
      </trkpt>
      <trkpt lat="44.12688" lon="0.60598">
        <ele>98</ele>
        <time>2025-08-10T09:00:28.696Z</time>
      </trkpt>
      <trkpt lat="44.12687" lon="0.60597">
        <ele>98</ele>
        <time>2025-08-10T09:00:29.696Z</time>
      </trkpt>
      <trkpt lat="44.12687" lon="0.60595">
        <ele>98</ele>
        <time>2025-08-10T09:00:30.696Z</time>
      </trkpt>
      <trkpt lat="44.12686" lon="0.60594">
        <ele>98</ele>
        <time>2025-08-10T09:00:31.696Z</time>
      </trkpt>
      <trkpt lat="44.12686" lon="0.60592">
        <ele>98</ele>
        <time>2025-08-10T09:00:32.696Z</time>
      </trkpt>
      <trkpt lat="44.12686" lon="0.60591">
        <ele>97</ele>
        <time>2025-08-10T09:00:33.696Z</time>
      </trkpt>
      <trkpt lat="44.12686" lon="0.6059">
        <ele>97</ele>
        <time>2025-08-10T09:00:34.696Z</time>
      </trkpt>
      <trkpt lat="44.12686" lon="0.6059">
        <ele>96</ele>
        <time>2025-08-10T09:00:35.696Z</time>
      </trkpt>
      <trkpt lat="44.12686" lon="0.60589">
        <ele>96</ele>
        <time>2025-08-10T09:00:36.696Z</time>
      </trkpt>
      <trkpt lat="44.12686" lon="0.60589">
        <ele>96</ele>
        <time>2025-08-10T09:00:37.696Z</time>
      </trkpt>
      <trkpt lat="44.12686" lon="0.60589">
        <ele>95</ele>
        <time>2025-08-10T09:00:38.696Z</time>
      </trkpt>
      <trkpt lat="44.12686" lon="0.60588">
        <ele>95</ele>
        <time>2025-08-10T09:00:39.696Z</time>
      </trkpt>
      <trkpt lat="44.12686" lon="0.60588">
        <ele>95</ele>
        <time>2025-08-10T09:00:40.696Z</time>
      </trkpt>
      <trkpt lat="44.12686" lon="0.60588">
        <ele>95</ele>
        <time>2025-08-10T09:00:41.696Z</time>
      </trkpt>
      <trkpt lat="44.12686" lon="0.60588">
        <ele>95</ele>
        <time>2025-08-10T09:00:42.696Z</time>
      </trkpt>
      <trkpt lat="44.12686" lon="0.60588">
        <ele>95</ele>
        <time>2025-08-10T09:00:43.696Z</time>
      </trkpt>
      <trkpt lat="44.12686" lon="0.60588">
        <ele>96</ele>
        <time>2025-08-10T09:00:44.696Z</time>
      </trkpt>
      <trkpt lat="44.12686" lon="0.60588">
        <ele>96</ele>
        <time>2025-08-10T09:00:45.696Z</time>
      </trkpt>
      <trkpt lat="44.12686" lon="0.60588">
        <ele>96</ele>
        <time>2025-08-10T09:00:46.696Z</time>
      </trkpt>
      <trkpt lat="44.12686" lon="0.60588">
        <ele>96</ele>
        <time>2025-08-10T09:00:47.696Z</time>
      </trkpt>
      <trkpt lat="44.12686" lon="0.60588">
        <ele>96</ele>
        <time>2025-08-10T09:00:48.696Z</time>
      </trkpt>
      <trkpt lat="44.12686" lon="0.60588">
        <ele>96</ele>
        <time>2025-08-10T09:00:49.696Z</time>
      </trkpt>
      <trkpt lat="44.12686" lon="0.60588">
        <ele>96</ele>
        <time>2025-08-10T09:00:50.696Z</time>
      </trkpt>
      <trkpt lat="44.12686" lon="0.60588">
        <ele>95</ele>
        <time>2025-08-10T09:00:51.696Z</time>
      </trkpt>
      <trkpt lat="44.12686" lon="0.60588">
        <ele>94</ele>
        <time>2025-08-10T09:00:52.696Z</time>
      </trkpt>
      <trkpt lat="44.12686" lon="0.60588">
        <ele>93</ele>
        <time>2025-08-10T09:00:53.696Z</time>
      </trkpt>
      <trkpt lat="44.12687" lon="0.60588">
        <ele>93</ele>
        <time>2025-08-10T09:00:54.696Z</time>
      </trkpt>
      <trkpt lat="44.12687" lon="0.60588">
        <ele>92</ele>
        <time>2025-08-10T09:00:55.696Z</time>
      </trkpt>
      <trkpt lat="44.12687" lon="0.60588">
        <ele>92</ele>
        <time>2025-08-10T09:00:56.696Z</time>
      </trkpt>
      <trkpt lat="44.12687" lon="0.60588">
        <ele>91</ele>
        <time>2025-08-10T09:00:57.696Z</time>
      </trkpt>
      <trkpt lat="44.12687" lon="0.60588">
        <ele>91</ele>
        <time>2025-08-10T09:00:58.696Z</time>
      </trkpt>
      <trkpt lat="44.12687" lon="0.60588">
        <ele>90</ele>
        <time>2025-08-10T09:00:59.696Z</time>
      </trkpt>
      <trkpt lat="44.12687" lon="0.60588">
        <ele>90</ele>
        <time>2025-08-10T09:01:00.696Z</time>
      </trkpt>
      <trkpt lat="44.12686" lon="0.60587">
        <ele>89</ele>
        <time>2025-08-10T09:01:01.696Z</time>
      </trkpt>
      <trkpt lat="44.12686" lon="0.60587">
        <ele>89</ele>
        <time>2025-08-10T09:01:02.696Z</time>
      </trkpt>
      <trkpt lat="44.12686" lon="0.60587">
        <ele>90</ele>
        <time>2025-08-10T09:01:03.696Z</time>
      </trkpt>
      <trkpt lat="44.12686" lon="0.60587">
        <ele>90</ele>
        <time>2025-08-10T09:01:04.696Z</time>
      </trkpt>
      <trkpt lat="44.12686" lon="0.60587">
        <ele>90</ele>
        <time>2025-08-10T09:01:05.696Z</time>
      </trkpt>
      <trkpt lat="44.12686" lon="0.60587">
        <ele>91</ele>
        <time>2025-08-10T09:01:06.696Z</time>
      </trkpt>
      <trkpt lat="44.12686" lon="0.60588">
        <ele>91</ele>
        <time>2025-08-10T09:01:07.696Z</time>
      </trkpt>
      <trkpt lat="44.12686" lon="0.60588">
        <ele>91</ele>
        <time>2025-08-10T09:01:08.696Z</time>
      </trkpt>
      <trkpt lat="44.12686" lon="0.60588">
        <ele>91</ele>
        <time>2025-08-10T09:01:09.696Z</time>
      </trkpt>
      <trkpt lat="44.12686" lon="0.60589">
        <ele>91</ele>
        <time>2025-08-10T09:01:10.696Z</time>
      </trkpt>
      <trkpt lat="44.12686" lon="0.60589">
        <ele>91</ele>
        <time>2025-08-10T09:01:11.696Z</time>
      </trkpt>
      <trkpt lat="44.12686" lon="0.60589">
        <ele>92</ele>
        <time>2025-08-10T09:01:12.696Z</time>
      </trkpt>
      <trkpt lat="44.12686" lon="0.60589">
        <ele>92</ele>
        <time>2025-08-10T09:01:13.696Z</time>
      </trkpt>
      <trkpt lat="44.12686" lon="0.60589">
        <ele>93</ele>
        <time>2025-08-10T09:01:14.696Z</time>
      </trkpt>
      <trkpt lat="44.12686" lon="0.6059">
        <ele>93</ele>
        <time>2025-08-10T09:01:15.696Z</time>
      </trkpt>
      <trkpt lat="44.12687" lon="0.6059">
        <ele>94</ele>
        <time>2025-08-10T09:01:16.696Z</time>
      </trkpt>
      <trkpt lat="44.12687" lon="0.60591">
        <ele>94</ele>
        <time>2025-08-10T09:01:17.696Z</time>
      </trkpt>
      <trkpt lat="44.12687" lon="0.60592">
        <ele>95</ele>
        <time>2025-08-10T09:01:18.696Z</time>
      </trkpt>
      <trkpt lat="44.12687" lon="0.60593">
        <ele>96</ele>
        <time>2025-08-10T09:01:19.696Z</time>
      </trkpt>
      <trkpt lat="44.12687" lon="0.60594">
        <ele>96</ele>
        <time>2025-08-10T09:01:20.696Z</time>
      </trkpt>
      <trkpt lat="44.12687" lon="0.60595">
        <ele>97</ele>
        <time>2025-08-10T09:01:21.696Z</time>
      </trkpt>
      <trkpt lat="44.12687" lon="0.60597">
        <ele>97</ele>
        <time>2025-08-10T09:01:22.696Z</time>
      </trkpt>
      <trkpt lat="44.12688" lon="0.60598">
        <ele>97</ele>
        <time>2025-08-10T09:01:23.696Z</time>
      </trkpt>
      <trkpt lat="44.12688" lon="0.606">
        <ele>98</ele>
        <time>2025-08-10T09:01:24.696Z</time>
      </trkpt>
      <trkpt lat="44.12688" lon="0.60602">
        <ele>98</ele>
        <time>2025-08-10T09:01:25.696Z</time>
      </trkpt>
      <trkpt lat="44.12689" lon="0.60603">
        <ele>98</ele>
        <time>2025-08-10T09:01:26.696Z</time>
      </trkpt>
      <trkpt lat="44.12689" lon="0.60604">
        <ele>98</ele>
        <time>2025-08-10T09:01:27.696Z</time>
      </trkpt>
      <trkpt lat="44.1269" lon="0.60606">
        <ele>98</ele>
        <time>2025-08-10T09:01:28.696Z</time>
      </trkpt>
      <trkpt lat="44.12691" lon="0.60607">
        <ele>97</ele>
        <time>2025-08-10T09:01:29.696Z</time>
      </trkpt>
      <trkpt lat="44.12692" lon="0.60608">
        <ele>97</ele>
        <time>2025-08-10T09:01:30.696Z</time>
      </trkpt>
      <trkpt lat="44.12692" lon="0.60609">
        <ele>97</ele>
        <time>2025-08-10T09:01:31.696Z</time>
      </trkpt>
      <trkpt lat="44.12694" lon="0.60609">
        <ele>97</ele>
        <time>2025-08-10T09:01:32.696Z</time>
      </trkpt>
      <trkpt lat="44.12694" lon="0.60609">
        <ele>97</ele>
        <time>2025-08-10T09:01:33.696Z</time>
      </trkpt>
      <trkpt lat="44.12695" lon="0.60609">
        <ele>96</ele>
        <time>2025-08-10T09:01:34.696Z</time>
      </trkpt>
      <trkpt lat="44.12696" lon="0.60609">
        <ele>96</ele>
        <time>2025-08-10T09:01:35.696Z</time>
      </trkpt>
      <trkpt lat="44.12697" lon="0.60608">
        <ele>96</ele>
        <time>2025-08-10T09:01:36.696Z</time>
      </trkpt>
      <trkpt lat="44.12698" lon="0.60608">
        <ele>95</ele>
        <time>2025-08-10T09:01:37.696Z</time>
      </trkpt>
      <trkpt lat="44.12699" lon="0.60608">
        <ele>95</ele>
        <time>2025-08-10T09:01:38.696Z</time>
      </trkpt>
      <trkpt lat="44.127" lon="0.60608">
        <ele>95</ele>
        <time>2025-08-10T09:01:39.696Z</time>
      </trkpt>
      <trkpt lat="44.12701" lon="0.6061">
        <ele>95</ele>
        <time>2025-08-10T09:01:40.696Z</time>
      </trkpt>
      <trkpt lat="44.12702" lon="0.60611">
        <ele>95</ele>
        <time>2025-08-10T09:01:41.696Z</time>
      </trkpt>
      <trkpt lat="44.12703" lon="0.60612">
        <ele>95</ele>
        <time>2025-08-10T09:01:42.696Z</time>
      </trkpt>
      <trkpt lat="44.12705" lon="0.60612">
        <ele>94</ele>
        <time>2025-08-10T09:01:43.696Z</time>
      </trkpt>
      <trkpt lat="44.12707" lon="0.60612">
        <ele>94</ele>
        <time>2025-08-10T09:01:44.696Z</time>
      </trkpt>
      <trkpt lat="44.12708" lon="0.60612">
        <ele>94</ele>
        <time>2025-08-10T09:01:45.696Z</time>
      </trkpt>
      <trkpt lat="44.12709" lon="0.60611">
        <ele>94</ele>
        <time>2025-08-10T09:01:46.696Z</time>
      </trkpt>
      <trkpt lat="44.1271" lon="0.60611">
        <ele>94</ele>
        <time>2025-08-10T09:01:47.696Z</time>
      </trkpt>
      <trkpt lat="44.12711" lon="0.60611">
        <ele>94</ele>
        <time>2025-08-10T09:01:48.696Z</time>
      </trkpt>
      <trkpt lat="44.12711" lon="0.60611">
        <ele>94</ele>
        <time>2025-08-10T09:01:49.696Z</time>
      </trkpt>
      <trkpt lat="44.12712" lon="0.60612">
        <ele>94</ele>
        <time>2025-08-10T09:01:50.696Z</time>
      </trkpt>
      <trkpt lat="44.12714" lon="0.60612">
        <ele>94</ele>
        <time>2025-08-10T09:01:51.696Z</time>
      </trkpt>
      <trkpt lat="44.12715" lon="0.60614">
        <ele>94</ele>
        <time>2025-08-10T09:01:52.696Z</time>
      </trkpt>
      <trkpt lat="44.12716" lon="0.60614">
        <ele>94</ele>
        <time>2025-08-10T09:01:53.696Z</time>
      </trkpt>
      <trkpt lat="44.12717" lon="0.60615">
        <ele>94</ele>
        <time>2025-08-10T09:01:54.696Z</time>
      </trkpt>
      <trkpt lat="44.12718" lon="0.60615">
        <ele>95</ele>
        <time>2025-08-10T09:01:55.696Z</time>
      </trkpt>
      <trkpt lat="44.12719" lon="0.60615">
        <ele>95</ele>
        <time>2025-08-10T09:01:56.696Z</time>
      </trkpt>
      <trkpt lat="44.1272" lon="0.60615">
        <ele>95</ele>
        <time>2025-08-10T09:01:57.696Z</time>
      </trkpt>
      <trkpt lat="44.12721" lon="0.60616">
        <ele>95</ele>
        <time>2025-08-10T09:01:58.696Z</time>
      </trkpt>
      <trkpt lat="44.12722" lon="0.60615">
        <ele>95</ele>
        <time>2025-08-10T09:01:59.696Z</time>
      </trkpt>
      <trkpt lat="44.12723" lon="0.60615">
        <ele>95</ele>
        <time>2025-08-10T09:02:00.696Z</time>
      </trkpt>
      <trkpt lat="44.12724" lon="0.60615">
        <ele>95</ele>
        <time>2025-08-10T09:02:01.696Z</time>
      </trkpt>
      <trkpt lat="44.12725" lon="0.60615">
        <ele>95</ele>
        <time>2025-08-10T09:02:02.696Z</time>
      </trkpt>
      <trkpt lat="44.12725" lon="0.60615">
        <ele>95</ele>
        <time>2025-08-10T09:02:03.696Z</time>
      </trkpt>
      <trkpt lat="44.12726" lon="0.60616">
        <ele>96</ele>
        <time>2025-08-10T09:02:04.696Z</time>
      </trkpt>
      <trkpt lat="44.12727" lon="0.60616">
        <ele>96</ele>
        <time>2025-08-10T09:02:05.696Z</time>
      </trkpt>
      <trkpt lat="44.12728" lon="0.60617">
        <ele>96</ele>
        <time>2025-08-10T09:02:06.696Z</time>
      </trkpt>
      <trkpt lat="44.12729" lon="0.60617">
        <ele>96</ele>
        <time>2025-08-10T09:02:07.696Z</time>
      </trkpt>
      <trkpt lat="44.12731" lon="0.60617">
        <ele>96</ele>
        <time>2025-08-10T09:02:08.696Z</time>
      </trkpt>
      <trkpt lat="44.12732" lon="0.60618">
        <ele>96</ele>
        <time>2025-08-10T09:02:09.696Z</time>
      </trkpt>
      <trkpt lat="44.12734" lon="0.60617">
        <ele>96</ele>
        <time>2025-08-10T09:02:10.696Z</time>
      </trkpt>
      <trkpt lat="44.12735" lon="0.60618">
        <ele>97</ele>
        <time>2025-08-10T09:02:11.696Z</time>
      </trkpt>
      <trkpt lat="44.12736" lon="0.60618">
        <ele>97</ele>
        <time>2025-08-10T09:02:12.696Z</time>
      </trkpt>
      <trkpt lat="44.12738" lon="0.60619">
        <ele>97</ele>
        <time>2025-08-10T09:02:13.696Z</time>
      </trkpt>
      <trkpt lat="44.1274" lon="0.60621">
        <ele>97</ele>
        <time>2025-08-10T09:02:14.696Z</time>
      </trkpt>
      <trkpt lat="44.12741" lon="0.60623">
        <ele>97</ele>
        <time>2025-08-10T09:02:15.696Z</time>
      </trkpt>
      <trkpt lat="44.12743" lon="0.60624">
        <ele>97</ele>
        <time>2025-08-10T09:02:16.696Z</time>
      </trkpt>
      <trkpt lat="44.12743" lon="0.60625">
        <ele>97</ele>
        <time>2025-08-10T09:02:17.696Z</time>
      </trkpt>
      <trkpt lat="44.12744" lon="0.60625">
        <ele>97</ele>
        <time>2025-08-10T09:02:18.696Z</time>
      </trkpt>
      <trkpt lat="44.12745" lon="0.60626">
        <ele>96</ele>
        <time>2025-08-10T09:02:19.696Z</time>
      </trkpt>
      <trkpt lat="44.12747" lon="0.60626">
        <ele>96</ele>
        <time>2025-08-10T09:02:20.696Z</time>
      </trkpt>
      <trkpt lat="44.12748" lon="0.60627">
        <ele>96</ele>
        <time>2025-08-10T09:02:21.696Z</time>
      </trkpt>
      <trkpt lat="44.12749" lon="0.60627">
        <ele>96</ele>
        <time>2025-08-10T09:02:22.696Z</time>
      </trkpt>
      <trkpt lat="44.1275" lon="0.60628">
        <ele>96</ele>
        <time>2025-08-10T09:02:23.696Z</time>
      </trkpt>
      <trkpt lat="44.1275" lon="0.60628">
        <ele>96</ele>
        <time>2025-08-10T09:02:24.696Z</time>
      </trkpt>
      <trkpt lat="44.12751" lon="0.60629">
        <ele>96</ele>
        <time>2025-08-10T09:02:25.696Z</time>
      </trkpt>
      <trkpt lat="44.12753" lon="0.60629">
        <ele>96</ele>
        <time>2025-08-10T09:02:26.696Z</time>
      </trkpt>
      <trkpt lat="44.12754" lon="0.6063">
        <ele>96</ele>
        <time>2025-08-10T09:02:27.696Z</time>
      </trkpt>
      <trkpt lat="44.12755" lon="0.60631">
        <ele>96</ele>
        <time>2025-08-10T09:02:28.696Z</time>
      </trkpt>
      <trkpt lat="44.12756" lon="0.60631">
        <ele>96</ele>
        <time>2025-08-10T09:02:29.696Z</time>
      </trkpt>
      <trkpt lat="44.12757" lon="0.60632">
        <ele>95</ele>
        <time>2025-08-10T09:02:30.696Z</time>
      </trkpt>
      <trkpt lat="44.12758" lon="0.60633">
        <ele>95</ele>
        <time>2025-08-10T09:02:31.696Z</time>
      </trkpt>
      <trkpt lat="44.12759" lon="0.60634">
        <ele>96</ele>
        <time>2025-08-10T09:02:32.696Z</time>
      </trkpt>
      <trkpt lat="44.12761" lon="0.60636">
        <ele>96</ele>
        <time>2025-08-10T09:02:33.696Z</time>
      </trkpt>
      <trkpt lat="44.12762" lon="0.60637">
        <ele>96</ele>
        <time>2025-08-10T09:02:34.696Z</time>
      </trkpt>
      <trkpt lat="44.12763" lon="0.60638">
        <ele>96</ele>
        <time>2025-08-10T09:02:35.696Z</time>
      </trkpt>
      <trkpt lat="44.12764" lon="0.60639">
        <ele>96</ele>
        <time>2025-08-10T09:02:36.696Z</time>
      </trkpt>
      <trkpt lat="44.12765" lon="0.6064">
        <ele>96</ele>
        <time>2025-08-10T09:02:37.696Z</time>
      </trkpt>
      <trkpt lat="44.12766" lon="0.6064">
        <ele>96</ele>
        <time>2025-08-10T09:02:38.696Z</time>
      </trkpt>
      <trkpt lat="44.12767" lon="0.60641">
        <ele>96</ele>
        <time>2025-08-10T09:02:39.696Z</time>
      </trkpt>
      <trkpt lat="44.12768" lon="0.60642">
        <ele>96</ele>
        <time>2025-08-10T09:02:40.696Z</time>
      </trkpt>
      <trkpt lat="44.1277" lon="0.60643">
        <ele>96</ele>
        <time>2025-08-10T09:02:41.696Z</time>
      </trkpt>
      <trkpt lat="44.12771" lon="0.60644">
        <ele>96</ele>
        <time>2025-08-10T09:02:42.696Z</time>
      </trkpt>
      <trkpt lat="44.12772" lon="0.60645">
        <ele>96</ele>
        <time>2025-08-10T09:02:43.696Z</time>
      </trkpt>
      <trkpt lat="44.12773" lon="0.60646">
        <ele>96</ele>
        <time>2025-08-10T09:02:44.696Z</time>
      </trkpt>
      <trkpt lat="44.12774" lon="0.60648">
        <ele>96</ele>
        <time>2025-08-10T09:02:45.696Z</time>
      </trkpt>
      <trkpt lat="44.12775" lon="0.60649">
        <ele>96</ele>
        <time>2025-08-10T09:02:46.696Z</time>
      </trkpt>
      <trkpt lat="44.12776" lon="0.60651">
        <ele>95</ele>
        <time>2025-08-10T09:02:47.696Z</time>
      </trkpt>
      <trkpt lat="44.12778" lon="0.60653">
        <ele>95</ele>
        <time>2025-08-10T09:02:48.696Z</time>
      </trkpt>
      <trkpt lat="44.12779" lon="0.60654">
        <ele>95</ele>
        <time>2025-08-10T09:02:49.696Z</time>
      </trkpt>
      <trkpt lat="44.12779" lon="0.60655">
        <ele>94</ele>
        <time>2025-08-10T09:02:50.696Z</time>
      </trkpt>
      <trkpt lat="44.12781" lon="0.60656">
        <ele>94</ele>
        <time>2025-08-10T09:02:51.696Z</time>
      </trkpt>
      <trkpt lat="44.12783" lon="0.60658">
        <ele>94</ele>
        <time>2025-08-10T09:02:52.696Z</time>
      </trkpt>
      <trkpt lat="44.12784" lon="0.60659">
        <ele>95</ele>
        <time>2025-08-10T09:02:53.696Z</time>
      </trkpt>
      <trkpt lat="44.12784" lon="0.60659">
        <ele>95</ele>
        <time>2025-08-10T09:02:54.696Z</time>
      </trkpt>
      <trkpt lat="44.12785" lon="0.60659">
        <ele>95</ele>
        <time>2025-08-10T09:02:55.696Z</time>
      </trkpt>
      <trkpt lat="44.12786" lon="0.6066">
        <ele>95</ele>
        <time>2025-08-10T09:02:56.696Z</time>
      </trkpt>
      <trkpt lat="44.12787" lon="0.60662">
        <ele>95</ele>
        <time>2025-08-10T09:02:57.696Z</time>
      </trkpt>
      <trkpt lat="44.12788" lon="0.60663">
        <ele>95</ele>
        <time>2025-08-10T09:02:58.696Z</time>
      </trkpt>
      <trkpt lat="44.12788" lon="0.60665">
        <ele>95</ele>
        <time>2025-08-10T09:02:59.696Z</time>
      </trkpt>
      <trkpt lat="44.12789" lon="0.60666">
        <ele>95</ele>
        <time>2025-08-10T09:03:00.696Z</time>
      </trkpt>
      <trkpt lat="44.1279" lon="0.60667">
        <ele>96</ele>
        <time>2025-08-10T09:03:01.696Z</time>
      </trkpt>
      <trkpt lat="44.12791" lon="0.60667">
        <ele>96</ele>
        <time>2025-08-10T09:03:02.696Z</time>
      </trkpt>
      <trkpt lat="44.12792" lon="0.60668">
        <ele>96</ele>
        <time>2025-08-10T09:03:03.696Z</time>
      </trkpt>
      <trkpt lat="44.12793" lon="0.60669">
        <ele>97</ele>
        <time>2025-08-10T09:03:04.696Z</time>
      </trkpt>
      <trkpt lat="44.12794" lon="0.6067">
        <ele>97</ele>
        <time>2025-08-10T09:03:05.696Z</time>
      </trkpt>
      <trkpt lat="44.12794" lon="0.60672">
        <ele>97</ele>
        <time>2025-08-10T09:03:06.696Z</time>
      </trkpt>
      <trkpt lat="44.12795" lon="0.60674">
        <ele>97</ele>
        <time>2025-08-10T09:03:07.696Z</time>
      </trkpt>
      <trkpt lat="44.12795" lon="0.60676">
        <ele>96</ele>
        <time>2025-08-10T09:03:08.696Z</time>
      </trkpt>
      <trkpt lat="44.12796" lon="0.60678">
        <ele>96</ele>
        <time>2025-08-10T09:03:09.696Z</time>
      </trkpt>
      <trkpt lat="44.12796" lon="0.60679">
        <ele>96</ele>
        <time>2025-08-10T09:03:10.696Z</time>
      </trkpt>
      <trkpt lat="44.12797" lon="0.60681">
        <ele>95</ele>
        <time>2025-08-10T09:03:11.696Z</time>
      </trkpt>
      <trkpt lat="44.12797" lon="0.60681">
        <ele>95</ele>
        <time>2025-08-10T09:03:12.696Z</time>
      </trkpt>
      <trkpt lat="44.12797" lon="0.60682">
        <ele>95</ele>
        <time>2025-08-10T09:03:13.696Z</time>
      </trkpt>
      <trkpt lat="44.12798" lon="0.60683">
        <ele>95</ele>
        <time>2025-08-10T09:03:14.696Z</time>
      </trkpt>
      <trkpt lat="44.12799" lon="0.60684">
        <ele>95</ele>
        <time>2025-08-10T09:03:15.697Z</time>
      </trkpt>
      <trkpt lat="44.12799" lon="0.60686">
        <ele>95</ele>
        <time>2025-08-10T09:03:16.696Z</time>
      </trkpt>
      <trkpt lat="44.128" lon="0.60687">
        <ele>96</ele>
        <time>2025-08-10T09:03:17.696Z</time>
      </trkpt>
      <trkpt lat="44.12801" lon="0.60688">
        <ele>96</ele>
        <time>2025-08-10T09:03:18.696Z</time>
      </trkpt>
      <trkpt lat="44.12801" lon="0.60689">
        <ele>96</ele>
        <time>2025-08-10T09:03:19.696Z</time>
      </trkpt>
      <trkpt lat="44.12802" lon="0.6069">
        <ele>96</ele>
        <time>2025-08-10T09:03:20.696Z</time>
      </trkpt>
      <trkpt lat="44.12803" lon="0.60691">
        <ele>96</ele>
        <time>2025-08-10T09:03:21.696Z</time>
      </trkpt>
      <trkpt lat="44.12803" lon="0.60693">
        <ele>96</ele>
        <time>2025-08-10T09:03:22.696Z</time>
      </trkpt>
      <trkpt lat="44.12805" lon="0.60695">
        <ele>96</ele>
        <time>2025-08-10T09:03:23.696Z</time>
      </trkpt>
      <trkpt lat="44.12806" lon="0.60696">
        <ele>96</ele>
        <time>2025-08-10T09:03:24.696Z</time>
      </trkpt>
      <trkpt lat="44.12807" lon="0.60697">
        <ele>96</ele>
        <time>2025-08-10T09:03:25.696Z</time>
      </trkpt>
      <trkpt lat="44.12808" lon="0.60698">
        <ele>96</ele>
        <time>2025-08-10T09:03:26.696Z</time>
      </trkpt>
      <trkpt lat="44.12808" lon="0.607">
        <ele>96</ele>
        <time>2025-08-10T09:03:27.696Z</time>
      </trkpt>
      <trkpt lat="44.12809" lon="0.60701">
        <ele>96</ele>
        <time>2025-08-10T09:03:28.696Z</time>
      </trkpt>
      <trkpt lat="44.1281" lon="0.60702">
        <ele>96</ele>
        <time>2025-08-10T09:03:29.696Z</time>
      </trkpt>
      <trkpt lat="44.12811" lon="0.60703">
        <ele>96</ele>
        <time>2025-08-10T09:03:30.696Z</time>
      </trkpt>
      <trkpt lat="44.12812" lon="0.60704">
        <ele>97</ele>
        <time>2025-08-10T09:03:31.696Z</time>
      </trkpt>
      <trkpt lat="44.12813" lon="0.60705">
        <ele>97</ele>
        <time>2025-08-10T09:03:32.696Z</time>
      </trkpt>
      <trkpt lat="44.12814" lon="0.60707">
        <ele>97</ele>
        <time>2025-08-10T09:03:33.696Z</time>
      </trkpt>
      <trkpt lat="44.12816" lon="0.60708">
        <ele>97</ele>
        <time>2025-08-10T09:03:34.696Z</time>
      </trkpt>
      <trkpt lat="44.12817" lon="0.60709">
        <ele>97</ele>
        <time>2025-08-10T09:03:35.696Z</time>
      </trkpt>
      <trkpt lat="44.12817" lon="0.6071">
        <ele>97</ele>
        <time>2025-08-10T09:03:36.696Z</time>
      </trkpt>
      <trkpt lat="44.12819" lon="0.60711">
        <ele>98</ele>
        <time>2025-08-10T09:03:37.696Z</time>
      </trkpt>
      <trkpt lat="44.12819" lon="0.60712">
        <ele>98</ele>
        <time>2025-08-10T09:03:38.696Z</time>
      </trkpt>
      <trkpt lat="44.1282" lon="0.60713">
        <ele>98</ele>
        <time>2025-08-10T09:03:39.696Z</time>
      </trkpt>
      <trkpt lat="44.12821" lon="0.60713">
        <ele>98</ele>
        <time>2025-08-10T09:03:40.696Z</time>
      </trkpt>
      <trkpt lat="44.12822" lon="0.60714">
        <ele>98</ele>
        <time>2025-08-10T09:03:41.696Z</time>
      </trkpt>
      <trkpt lat="44.12823" lon="0.60715">
        <ele>99</ele>
        <time>2025-08-10T09:03:42.696Z</time>
      </trkpt>
      <trkpt lat="44.12824" lon="0.60715">
        <ele>99</ele>
        <time>2025-08-10T09:03:43.696Z</time>
      </trkpt>
      <trkpt lat="44.12826" lon="0.60716">
        <ele>99</ele>
        <time>2025-08-10T09:03:44.696Z</time>
      </trkpt>
      <trkpt lat="44.12826" lon="0.60717">
        <ele>100</ele>
        <time>2025-08-10T09:03:45.696Z</time>
      </trkpt>
      <trkpt lat="44.12827" lon="0.60718">
        <ele>100</ele>
        <time>2025-08-10T09:03:46.696Z</time>
      </trkpt>
      <trkpt lat="44.12828" lon="0.60719">
        <ele>100</ele>
        <time>2025-08-10T09:03:47.696Z</time>
      </trkpt>
      <trkpt lat="44.12829" lon="0.6072">
        <ele>100</ele>
        <time>2025-08-10T09:03:48.696Z</time>
      </trkpt>
      <trkpt lat="44.1283" lon="0.60723">
        <ele>100</ele>
        <time>2025-08-10T09:03:49.696Z</time>
      </trkpt>
      <trkpt lat="44.12831" lon="0.60725">
        <ele>100</ele>
        <time>2025-08-10T09:03:50.696Z</time>
      </trkpt>
      <trkpt lat="44.12832" lon="0.60726">
        <ele>99</ele>
        <time>2025-08-10T09:03:51.696Z</time>
      </trkpt>
      <trkpt lat="44.12833" lon="0.60728">
        <ele>99</ele>
        <time>2025-08-10T09:03:52.696Z</time>
      </trkpt>
      <trkpt lat="44.12834" lon="0.60729">
        <ele>99</ele>
        <time>2025-08-10T09:03:53.696Z</time>
      </trkpt>
      <trkpt lat="44.12835" lon="0.60729">
        <ele>99</ele>
        <time>2025-08-10T09:03:54.696Z</time>
      </trkpt>
      <trkpt lat="44.12835" lon="0.6073">
        <ele>99</ele>
        <time>2025-08-10T09:03:55.696Z</time>
      </trkpt>
      <trkpt lat="44.12836" lon="0.6073">
        <ele>99</ele>
        <time>2025-08-10T09:03:56.696Z</time>
      </trkpt>
      <trkpt lat="44.12837" lon="0.60731">
        <ele>99</ele>
        <time>2025-08-10T09:03:57.696Z</time>
      </trkpt>
      <trkpt lat="44.12838" lon="0.60733">
        <ele>98</ele>
        <time>2025-08-10T09:03:58.696Z</time>
      </trkpt>
      <trkpt lat="44.1284" lon="0.60735">
        <ele>98</ele>
        <time>2025-08-10T09:03:59.696Z</time>
      </trkpt>
      <trkpt lat="44.12841" lon="0.60737">
        <ele>98</ele>
        <time>2025-08-10T09:04:00.696Z</time>
      </trkpt>
      <trkpt lat="44.12842" lon="0.60738">
        <ele>98</ele>
        <time>2025-08-10T09:04:01.696Z</time>
      </trkpt>
      <trkpt lat="44.12843" lon="0.60739">
        <ele>98</ele>
        <time>2025-08-10T09:04:02.696Z</time>
      </trkpt>
      <trkpt lat="44.12844" lon="0.60741">
        <ele>98</ele>
        <time>2025-08-10T09:04:03.696Z</time>
      </trkpt>
      <trkpt lat="44.12846" lon="0.60742">
        <ele>98</ele>
        <time>2025-08-10T09:04:04.696Z</time>
      </trkpt>
      <trkpt lat="44.12846" lon="0.60742">
        <ele>98</ele>
        <time>2025-08-10T09:04:05.696Z</time>
      </trkpt>
      <trkpt lat="44.12847" lon="0.60743">
        <ele>98</ele>
        <time>2025-08-10T09:04:06.696Z</time>
      </trkpt>
      <trkpt lat="44.12847" lon="0.60744">
        <ele>98</ele>
        <time>2025-08-10T09:04:07.696Z</time>
      </trkpt>
      <trkpt lat="44.12848" lon="0.60746">
        <ele>98</ele>
        <time>2025-08-10T09:04:08.696Z</time>
      </trkpt>
      <trkpt lat="44.12848" lon="0.60747">
        <ele>98</ele>
        <time>2025-08-10T09:04:09.696Z</time>
      </trkpt>
      <trkpt lat="44.12849" lon="0.60748">
        <ele>98</ele>
        <time>2025-08-10T09:04:10.696Z</time>
      </trkpt>
      <trkpt lat="44.1285" lon="0.60748">
        <ele>98</ele>
        <time>2025-08-10T09:04:11.696Z</time>
      </trkpt>
      <trkpt lat="44.12851" lon="0.60749">
        <ele>98</ele>
        <time>2025-08-10T09:04:12.696Z</time>
      </trkpt>
      <trkpt lat="44.12851" lon="0.6075">
        <ele>99</ele>
        <time>2025-08-10T09:04:13.696Z</time>
      </trkpt>
      <trkpt lat="44.12852" lon="0.6075">
        <ele>99</ele>
        <time>2025-08-10T09:04:14.696Z</time>
      </trkpt>
      <trkpt lat="44.12852" lon="0.60751">
        <ele>99</ele>
        <time>2025-08-10T09:04:15.696Z</time>
      </trkpt>
      <trkpt lat="44.12853" lon="0.60752">
        <ele>99</ele>
        <time>2025-08-10T09:04:16.696Z</time>
      </trkpt>
      <trkpt lat="44.12853" lon="0.60753">
        <ele>99</ele>
        <time>2025-08-10T09:04:17.696Z</time>
      </trkpt>
      <trkpt lat="44.12854" lon="0.60754">
        <ele>99</ele>
        <time>2025-08-10T09:04:18.696Z</time>
      </trkpt>
      <trkpt lat="44.12854" lon="0.60755">
        <ele>99</ele>
        <time>2025-08-10T09:04:19.696Z</time>
      </trkpt>
      <trkpt lat="44.12855" lon="0.60756">
        <ele>99</ele>
        <time>2025-08-10T09:04:20.696Z</time>
      </trkpt>
      <trkpt lat="44.12856" lon="0.60758">
        <ele>99</ele>
        <time>2025-08-10T09:04:21.696Z</time>
      </trkpt>
      <trkpt lat="44.12856" lon="0.60758">
        <ele>100</ele>
        <time>2025-08-10T09:04:22.696Z</time>
      </trkpt>
      <trkpt lat="44.12856" lon="0.60759">
        <ele>100</ele>
        <time>2025-08-10T09:04:23.696Z</time>
      </trkpt>
      <trkpt lat="44.12857" lon="0.6076">
        <ele>100</ele>
        <time>2025-08-10T09:04:24.696Z</time>
      </trkpt>
      <trkpt lat="44.12858" lon="0.6076">
        <ele>101</ele>
        <time>2025-08-10T09:04:25.696Z</time>
      </trkpt>
      <trkpt lat="44.12858" lon="0.60761">
        <ele>101</ele>
        <time>2025-08-10T09:04:26.696Z</time>
      </trkpt>
      <trkpt lat="44.12859" lon="0.60762">
        <ele>102</ele>
        <time>2025-08-10T09:04:27.696Z</time>
      </trkpt>
      <trkpt lat="44.12859" lon="0.60762">
        <ele>102</ele>
        <time>2025-08-10T09:04:28.696Z</time>
      </trkpt>
      <trkpt lat="44.12859" lon="0.60763">
        <ele>102</ele>
        <time>2025-08-10T09:04:29.696Z</time>
      </trkpt>
      <trkpt lat="44.1286" lon="0.60763">
        <ele>103</ele>
        <time>2025-08-10T09:04:30.696Z</time>
      </trkpt>
      <trkpt lat="44.12861" lon="0.60764">
        <ele>103</ele>
        <time>2025-08-10T09:04:31.696Z</time>
      </trkpt>
      <trkpt lat="44.12862" lon="0.60765">
        <ele>103</ele>
        <time>2025-08-10T09:04:32.696Z</time>
      </trkpt>
      <trkpt lat="44.12863" lon="0.60766">
        <ele>103</ele>
        <time>2025-08-10T09:04:33.696Z</time>
      </trkpt>
      <trkpt lat="44.12864" lon="0.60768">
        <ele>103</ele>
        <time>2025-08-10T09:04:34.696Z</time>
      </trkpt>
      <trkpt lat="44.12865" lon="0.60768">
        <ele>103</ele>
        <time>2025-08-10T09:04:35.696Z</time>
      </trkpt>
      <trkpt lat="44.12866" lon="0.60769">
        <ele>103</ele>
        <time>2025-08-10T09:04:36.696Z</time>
      </trkpt>
      <trkpt lat="44.12866" lon="0.6077">
        <ele>103</ele>
        <time>2025-08-10T09:04:37.696Z</time>
      </trkpt>
      <trkpt lat="44.12867" lon="0.6077">
        <ele>103</ele>
        <time>2025-08-10T09:04:38.696Z</time>
      </trkpt>
      <trkpt lat="44.12868" lon="0.60771">
        <ele>102</ele>
        <time>2025-08-10T09:04:39.696Z</time>
      </trkpt>
      <trkpt lat="44.12869" lon="0.60771">
        <ele>102</ele>
        <time>2025-08-10T09:04:40.696Z</time>
      </trkpt>
      <trkpt lat="44.1287" lon="0.60772">
        <ele>102</ele>
        <time>2025-08-10T09:04:41.696Z</time>
      </trkpt>
      <trkpt lat="44.12871" lon="0.60772">
        <ele>101</ele>
        <time>2025-08-10T09:04:42.696Z</time>
      </trkpt>
      <trkpt lat="44.12872" lon="0.60773">
        <ele>101</ele>
        <time>2025-08-10T09:04:43.696Z</time>
      </trkpt>
      <trkpt lat="44.12873" lon="0.60773">
        <ele>101</ele>
        <time>2025-08-10T09:04:44.696Z</time>
      </trkpt>
      <trkpt lat="44.12874" lon="0.60773">
        <ele>101</ele>
        <time>2025-08-10T09:04:45.696Z</time>
      </trkpt>
      <trkpt lat="44.12875" lon="0.60774">
        <ele>101</ele>
        <time>2025-08-10T09:04:46.696Z</time>
      </trkpt>
      <trkpt lat="44.12876" lon="0.60774">
        <ele>101</ele>
        <time>2025-08-10T09:04:47.696Z</time>
      </trkpt>
      <trkpt lat="44.12877" lon="0.60774">
        <ele>101</ele>
        <time>2025-08-10T09:04:48.696Z</time>
      </trkpt>
      <trkpt lat="44.12879" lon="0.60775">
        <ele>101</ele>
        <time>2025-08-10T09:04:49.696Z</time>
      </trkpt>
      <trkpt lat="44.1288" lon="0.60776">
        <ele>102</ele>
        <time>2025-08-10T09:04:50.696Z</time>
      </trkpt>
      <trkpt lat="44.12881" lon="0.60778">
        <ele>102</ele>
        <time>2025-08-10T09:04:51.696Z</time>
      </trkpt>
      <trkpt lat="44.12882" lon="0.60779">
        <ele>102</ele>
        <time>2025-08-10T09:04:52.696Z</time>
      </trkpt>
      <trkpt lat="44.12883" lon="0.60779">
        <ele>102</ele>
        <time>2025-08-10T09:04:53.696Z</time>
      </trkpt>
      <trkpt lat="44.12884" lon="0.6078">
        <ele>102</ele>
        <time>2025-08-10T09:04:54.696Z</time>
      </trkpt>
      <trkpt lat="44.12885" lon="0.6078">
        <ele>102</ele>
        <time>2025-08-10T09:04:55.696Z</time>
      </trkpt>
      <trkpt lat="44.12885" lon="0.60781">
        <ele>103</ele>
        <time>2025-08-10T09:04:56.696Z</time>
      </trkpt>
      <trkpt lat="44.12885" lon="0.60781">
        <ele>103</ele>
        <time>2025-08-10T09:04:57.696Z</time>
      </trkpt>
      <trkpt lat="44.12886" lon="0.60781">
        <ele>103</ele>
        <time>2025-08-10T09:04:58.696Z</time>
      </trkpt>
      <trkpt lat="44.12888" lon="0.60782">
        <ele>103</ele>
        <time>2025-08-10T09:04:59.696Z</time>
      </trkpt>
      <trkpt lat="44.12888" lon="0.60782">
        <ele>103</ele>
        <time>2025-08-10T09:05:00.696Z</time>
      </trkpt>
      <trkpt lat="44.12889" lon="0.60782">
        <ele>103</ele>
        <time>2025-08-10T09:05:01.696Z</time>
      </trkpt>
      <trkpt lat="44.12889" lon="0.60781">
        <ele>103</ele>
        <time>2025-08-10T09:05:02.696Z</time>
      </trkpt>
      <trkpt lat="44.1289" lon="0.60781">
        <ele>103</ele>
        <time>2025-08-10T09:05:03.696Z</time>
      </trkpt>
      <trkpt lat="44.12891" lon="0.60781">
        <ele>103</ele>
        <time>2025-08-10T09:05:04.696Z</time>
      </trkpt>
      <trkpt lat="44.12893" lon="0.60781">
        <ele>103</ele>
        <time>2025-08-10T09:05:05.696Z</time>
      </trkpt>
      <trkpt lat="44.12894" lon="0.60783">
        <ele>103</ele>
        <time>2025-08-10T09:05:06.696Z</time>
      </trkpt>
      <trkpt lat="44.12895" lon="0.60785">
        <ele>103</ele>
        <time>2025-08-10T09:05:07.696Z</time>
      </trkpt>
      <trkpt lat="44.12896" lon="0.60786">
        <ele>103</ele>
        <time>2025-08-10T09:05:08.696Z</time>
      </trkpt>
      <trkpt lat="44.12897" lon="0.60787">
        <ele>103</ele>
        <time>2025-08-10T09:05:09.696Z</time>
      </trkpt>
      <trkpt lat="44.12898" lon="0.60788">
        <ele>103</ele>
        <time>2025-08-10T09:05:10.696Z</time>
      </trkpt>
      <trkpt lat="44.12899" lon="0.60789">
        <ele>103</ele>
        <time>2025-08-10T09:05:11.696Z</time>
      </trkpt>
      <trkpt lat="44.12899" lon="0.60791">
        <ele>103</ele>
        <time>2025-08-10T09:05:12.696Z</time>
      </trkpt>
      <trkpt lat="44.12901" lon="0.60792">
        <ele>103</ele>
        <time>2025-08-10T09:05:13.696Z</time>
      </trkpt>
      <trkpt lat="44.12902" lon="0.60794">
        <ele>102</ele>
        <time>2025-08-10T09:05:14.696Z</time>
      </trkpt>
      <trkpt lat="44.12903" lon="0.60795">
        <ele>102</ele>
        <time>2025-08-10T09:05:15.696Z</time>
      </trkpt>
      <trkpt lat="44.12904" lon="0.60796">
        <ele>102</ele>
        <time>2025-08-10T09:05:16.696Z</time>
      </trkpt>
      <trkpt lat="44.12905" lon="0.60797">
        <ele>102</ele>
        <time>2025-08-10T09:05:17.696Z</time>
      </trkpt>
      <trkpt lat="44.12907" lon="0.60798">
        <ele>103</ele>
        <time>2025-08-10T09:05:18.696Z</time>
      </trkpt>
      <trkpt lat="44.12909" lon="0.60799">
        <ele>103</ele>
        <time>2025-08-10T09:05:19.696Z</time>
      </trkpt>
      <trkpt lat="44.12911" lon="0.60801">
        <ele>103</ele>
        <time>2025-08-10T09:05:20.696Z</time>
      </trkpt>
      <trkpt lat="44.12912" lon="0.60801">
        <ele>103</ele>
        <time>2025-08-10T09:05:21.696Z</time>
      </trkpt>
      <trkpt lat="44.12914" lon="0.60803">
        <ele>103</ele>
        <time>2025-08-10T09:05:22.696Z</time>
      </trkpt>
      <trkpt lat="44.12915" lon="0.60804">
        <ele>103</ele>
        <time>2025-08-10T09:05:23.696Z</time>
      </trkpt>
      <trkpt lat="44.12916" lon="0.60805">
        <ele>103</ele>
        <time>2025-08-10T09:05:24.696Z</time>
      </trkpt>
      <trkpt lat="44.12917" lon="0.60806">
        <ele>103</ele>
        <time>2025-08-10T09:05:25.696Z</time>
      </trkpt>
      <trkpt lat="44.12918" lon="0.60807">
        <ele>103</ele>
        <time>2025-08-10T09:05:26.696Z</time>
      </trkpt>
      <trkpt lat="44.12918" lon="0.60807">
        <ele>103</ele>
        <time>2025-08-10T09:05:27.696Z</time>
      </trkpt>
      <trkpt lat="44.12919" lon="0.60808">
        <ele>102</ele>
        <time>2025-08-10T09:05:28.696Z</time>
      </trkpt>
      <trkpt lat="44.12921" lon="0.60808">
        <ele>102</ele>
        <time>2025-08-10T09:05:29.696Z</time>
      </trkpt>
      <trkpt lat="44.12922" lon="0.6081">
        <ele>102</ele>
        <time>2025-08-10T09:05:30.696Z</time>
      </trkpt>
      <trkpt lat="44.12924" lon="0.60812">
        <ele>102</ele>
        <time>2025-08-10T09:05:31.696Z</time>
      </trkpt>
      <trkpt lat="44.12924" lon="0.60813">
        <ele>102</ele>
        <time>2025-08-10T09:05:32.696Z</time>
      </trkpt>
      <trkpt lat="44.12925" lon="0.60815">
        <ele>102</ele>
        <time>2025-08-10T09:05:33.696Z</time>
      </trkpt>
      <trkpt lat="44.12925" lon="0.60816">
        <ele>102</ele>
        <time>2025-08-10T09:05:34.696Z</time>
      </trkpt>
      <trkpt lat="44.12926" lon="0.60818">
        <ele>102</ele>
        <time>2025-08-10T09:05:35.696Z</time>
      </trkpt>
      <trkpt lat="44.12928" lon="0.60819">
        <ele>102</ele>
        <time>2025-08-10T09:05:36.696Z</time>
      </trkpt>
      <trkpt lat="44.12929" lon="0.6082">
        <ele>102</ele>
        <time>2025-08-10T09:05:37.696Z</time>
      </trkpt>
      <trkpt lat="44.1293" lon="0.60821">
        <ele>102</ele>
        <time>2025-08-10T09:05:38.696Z</time>
      </trkpt>
      <trkpt lat="44.12932" lon="0.60822">
        <ele>102</ele>
        <time>2025-08-10T09:05:39.696Z</time>
      </trkpt>
      <trkpt lat="44.12932" lon="0.60823">
        <ele>102</ele>
        <time>2025-08-10T09:05:40.696Z</time>
      </trkpt>
      <trkpt lat="44.12932" lon="0.60825">
        <ele>102</ele>
        <time>2025-08-10T09:05:41.696Z</time>
      </trkpt>
      <trkpt lat="44.12933" lon="0.60826">
        <ele>101</ele>
        <time>2025-08-10T09:05:42.696Z</time>
      </trkpt>
      <trkpt lat="44.12933" lon="0.60827">
        <ele>101</ele>
        <time>2025-08-10T09:05:43.696Z</time>
      </trkpt>
      <trkpt lat="44.12934" lon="0.60829">
        <ele>101</ele>
        <time>2025-08-10T09:05:44.696Z</time>
      </trkpt>
      <trkpt lat="44.12935" lon="0.6083">
        <ele>101</ele>
        <time>2025-08-10T09:05:45.696Z</time>
      </trkpt>
      <trkpt lat="44.12936" lon="0.60832">
        <ele>101</ele>
        <time>2025-08-10T09:05:46.696Z</time>
      </trkpt>
      <trkpt lat="44.12937" lon="0.60834">
        <ele>100</ele>
        <time>2025-08-10T09:05:47.696Z</time>
      </trkpt>
      <trkpt lat="44.12937" lon="0.60835">
        <ele>100</ele>
        <time>2025-08-10T09:05:48.696Z</time>
      </trkpt>
      <trkpt lat="44.12938" lon="0.60836">
        <ele>100</ele>
        <time>2025-08-10T09:05:49.696Z</time>
      </trkpt>
      <trkpt lat="44.12938" lon="0.60838">
        <ele>100</ele>
        <time>2025-08-10T09:05:50.696Z</time>
      </trkpt>
      <trkpt lat="44.12938" lon="0.60839">
        <ele>99</ele>
        <time>2025-08-10T09:05:51.696Z</time>
      </trkpt>
      <trkpt lat="44.12939" lon="0.60841">
        <ele>99</ele>
        <time>2025-08-10T09:05:52.696Z</time>
      </trkpt>
      <trkpt lat="44.12939" lon="0.60843">
        <ele>99</ele>
        <time>2025-08-10T09:05:53.696Z</time>
      </trkpt>
      <trkpt lat="44.12939" lon="0.60844">
        <ele>99</ele>
        <time>2025-08-10T09:05:54.696Z</time>
      </trkpt>
      <trkpt lat="44.12939" lon="0.60846">
        <ele>99</ele>
        <time>2025-08-10T09:05:55.696Z</time>
      </trkpt>
      <trkpt lat="44.1294" lon="0.60848">
        <ele>99</ele>
        <time>2025-08-10T09:05:56.696Z</time>
      </trkpt>
      <trkpt lat="44.1294" lon="0.60849">
        <ele>100</ele>
        <time>2025-08-10T09:05:57.696Z</time>
      </trkpt>
      <trkpt lat="44.12941" lon="0.6085">
        <ele>100</ele>
        <time>2025-08-10T09:05:58.696Z</time>
      </trkpt>
      <trkpt lat="44.12941" lon="0.60852">
        <ele>100</ele>
        <time>2025-08-10T09:05:59.696Z</time>
      </trkpt>
      <trkpt lat="44.12941" lon="0.60854">
        <ele>100</ele>
        <time>2025-08-10T09:06:00.696Z</time>
      </trkpt>
      <trkpt lat="44.12941" lon="0.60856">
        <ele>100</ele>
        <time>2025-08-10T09:06:01.696Z</time>
      </trkpt>
      <trkpt lat="44.12942" lon="0.60858">
        <ele>100</ele>
        <time>2025-08-10T09:06:02.696Z</time>
      </trkpt>
      <trkpt lat="44.12942" lon="0.60859">
        <ele>100</ele>
        <time>2025-08-10T09:06:03.696Z</time>
      </trkpt>
      <trkpt lat="44.12942" lon="0.6086">
        <ele>100</ele>
        <time>2025-08-10T09:06:04.696Z</time>
      </trkpt>
      <trkpt lat="44.12943" lon="0.60862">
        <ele>100</ele>
        <time>2025-08-10T09:06:05.696Z</time>
      </trkpt>
      <trkpt lat="44.12943" lon="0.60864">
        <ele>100</ele>
        <time>2025-08-10T09:06:06.696Z</time>
      </trkpt>
      <trkpt lat="44.12943" lon="0.60866">
        <ele>99</ele>
        <time>2025-08-10T09:06:07.696Z</time>
      </trkpt>
      <trkpt lat="44.12942" lon="0.60868">
        <ele>99</ele>
        <time>2025-08-10T09:06:08.696Z</time>
      </trkpt>
      <trkpt lat="44.12943" lon="0.6087">
        <ele>99</ele>
        <time>2025-08-10T09:06:09.696Z</time>
      </trkpt>
      <trkpt lat="44.12943" lon="0.60871">
        <ele>99</ele>
        <time>2025-08-10T09:06:10.696Z</time>
      </trkpt>
      <trkpt lat="44.12943" lon="0.60872">
        <ele>100</ele>
        <time>2025-08-10T09:06:11.696Z</time>
      </trkpt>
      <trkpt lat="44.12944" lon="0.60874">
        <ele>100</ele>
        <time>2025-08-10T09:06:12.696Z</time>
      </trkpt>
      <trkpt lat="44.12945" lon="0.60875">
        <ele>100</ele>
        <time>2025-08-10T09:06:13.696Z</time>
      </trkpt>
      <trkpt lat="44.12945" lon="0.60876">
        <ele>101</ele>
        <time>2025-08-10T09:06:14.696Z</time>
      </trkpt>
      <trkpt lat="44.12946" lon="0.60878">
        <ele>101</ele>
        <time>2025-08-10T09:06:15.696Z</time>
      </trkpt>
      <trkpt lat="44.12946" lon="0.6088">
        <ele>101</ele>
        <time>2025-08-10T09:06:16.696Z</time>
      </trkpt>
      <trkpt lat="44.12947" lon="0.60881">
        <ele>101</ele>
        <time>2025-08-10T09:06:17.696Z</time>
      </trkpt>
      <trkpt lat="44.12948" lon="0.60883">
        <ele>101</ele>
        <time>2025-08-10T09:06:18.696Z</time>
      </trkpt>
      <trkpt lat="44.12949" lon="0.60884">
        <ele>102</ele>
        <time>2025-08-10T09:06:19.696Z</time>
      </trkpt>
      <trkpt lat="44.1295" lon="0.60885">
        <ele>102</ele>
        <time>2025-08-10T09:06:20.696Z</time>
      </trkpt>
      <trkpt lat="44.1295" lon="0.60887">
        <ele>103</ele>
        <time>2025-08-10T09:06:21.696Z</time>
      </trkpt>
      <trkpt lat="44.12951" lon="0.60888">
        <ele>103</ele>
        <time>2025-08-10T09:06:22.696Z</time>
      </trkpt>
      <trkpt lat="44.12951" lon="0.60889">
        <ele>103</ele>
        <time>2025-08-10T09:06:23.696Z</time>
      </trkpt>
      <trkpt lat="44.12951" lon="0.6089">
        <ele>104</ele>
        <time>2025-08-10T09:06:24.696Z</time>
      </trkpt>
      <trkpt lat="44.12951" lon="0.60892">
        <ele>103</ele>
        <time>2025-08-10T09:06:25.696Z</time>
      </trkpt>
      <trkpt lat="44.12951" lon="0.60893">
        <ele>103</ele>
        <time>2025-08-10T09:06:26.696Z</time>
      </trkpt>
      <trkpt lat="44.12951" lon="0.60894">
        <ele>103</ele>
        <time>2025-08-10T09:06:27.696Z</time>
      </trkpt>
      <trkpt lat="44.12952" lon="0.60896">
        <ele>103</ele>
        <time>2025-08-10T09:06:28.696Z</time>
      </trkpt>
      <trkpt lat="44.12953" lon="0.60897">
        <ele>103</ele>
        <time>2025-08-10T09:06:29.696Z</time>
      </trkpt>
      <trkpt lat="44.12953" lon="0.60899">
        <ele>103</ele>
        <time>2025-08-10T09:06:30.696Z</time>
      </trkpt>
      <trkpt lat="44.12954" lon="0.60901">
        <ele>102</ele>
        <time>2025-08-10T09:06:31.696Z</time>
      </trkpt>
      <trkpt lat="44.12954" lon="0.60902">
        <ele>102</ele>
        <time>2025-08-10T09:06:32.696Z</time>
      </trkpt>
      <trkpt lat="44.12954" lon="0.60903">
        <ele>102</ele>
        <time>2025-08-10T09:06:33.696Z</time>
      </trkpt>
      <trkpt lat="44.12954" lon="0.60904">
        <ele>102</ele>
        <time>2025-08-10T09:06:34.696Z</time>
      </trkpt>
      <trkpt lat="44.12954" lon="0.60905">
        <ele>102</ele>
        <time>2025-08-10T09:06:35.696Z</time>
      </trkpt>
      <trkpt lat="44.12955" lon="0.60907">
        <ele>102</ele>
        <time>2025-08-10T09:06:36.696Z</time>
      </trkpt>
      <trkpt lat="44.12955" lon="0.60909">
        <ele>102</ele>
        <time>2025-08-10T09:06:37.696Z</time>
      </trkpt>
      <trkpt lat="44.12956" lon="0.60911">
        <ele>102</ele>
        <time>2025-08-10T09:06:38.696Z</time>
      </trkpt>
      <trkpt lat="44.12956" lon="0.60912">
        <ele>102</ele>
        <time>2025-08-10T09:06:39.696Z</time>
      </trkpt>
      <trkpt lat="44.12957" lon="0.60914">
        <ele>101</ele>
        <time>2025-08-10T09:06:40.696Z</time>
      </trkpt>
      <trkpt lat="44.12959" lon="0.60915">
        <ele>102</ele>
        <time>2025-08-10T09:06:41.696Z</time>
      </trkpt>
      <trkpt lat="44.12959" lon="0.60916">
        <ele>101</ele>
        <time>2025-08-10T09:06:42.696Z</time>
      </trkpt>
      <trkpt lat="44.1296" lon="0.60918">
        <ele>101</ele>
        <time>2025-08-10T09:06:43.696Z</time>
      </trkpt>
      <trkpt lat="44.12961" lon="0.60919">
        <ele>101</ele>
        <time>2025-08-10T09:06:44.696Z</time>
      </trkpt>
      <trkpt lat="44.12961" lon="0.6092">
        <ele>101</ele>
        <time>2025-08-10T09:06:45.696Z</time>
      </trkpt>
      <trkpt lat="44.12962" lon="0.6092">
        <ele>101</ele>
        <time>2025-08-10T09:06:46.696Z</time>
      </trkpt>
      <trkpt lat="44.12962" lon="0.60921">
        <ele>101</ele>
        <time>2025-08-10T09:06:47.696Z</time>
      </trkpt>
      <trkpt lat="44.12963" lon="0.60923">
        <ele>101</ele>
        <time>2025-08-10T09:06:48.696Z</time>
      </trkpt>
      <trkpt lat="44.12963" lon="0.60924">
        <ele>102</ele>
        <time>2025-08-10T09:06:49.696Z</time>
      </trkpt>
      <trkpt lat="44.12964" lon="0.60925">
        <ele>102</ele>
        <time>2025-08-10T09:06:50.696Z</time>
      </trkpt>
      <trkpt lat="44.12964" lon="0.60925">
        <ele>102</ele>
        <time>2025-08-10T09:06:51.696Z</time>
      </trkpt>
      <trkpt lat="44.12965" lon="0.60927">
        <ele>103</ele>
        <time>2025-08-10T09:06:52.696Z</time>
      </trkpt>
      <trkpt lat="44.12965" lon="0.60928">
        <ele>103</ele>
        <time>2025-08-10T09:06:53.696Z</time>
      </trkpt>
      <trkpt lat="44.12965" lon="0.60929">
        <ele>103</ele>
        <time>2025-08-10T09:06:54.696Z</time>
      </trkpt>
      <trkpt lat="44.12965" lon="0.6093">
        <ele>103</ele>
        <time>2025-08-10T09:06:55.696Z</time>
      </trkpt>
      <trkpt lat="44.12966" lon="0.60932">
        <ele>103</ele>
        <time>2025-08-10T09:06:56.696Z</time>
      </trkpt>
      <trkpt lat="44.12966" lon="0.60933">
        <ele>103</ele>
        <time>2025-08-10T09:06:57.696Z</time>
      </trkpt>
      <trkpt lat="44.12966" lon="0.60935">
        <ele>102</ele>
        <time>2025-08-10T09:06:58.696Z</time>
      </trkpt>
      <trkpt lat="44.12966" lon="0.60937">
        <ele>102</ele>
        <time>2025-08-10T09:06:59.696Z</time>
      </trkpt>
      <trkpt lat="44.12967" lon="0.60939">
        <ele>102</ele>
        <time>2025-08-10T09:07:00.696Z</time>
      </trkpt>
      <trkpt lat="44.12967" lon="0.6094">
        <ele>103</ele>
        <time>2025-08-10T09:07:01.696Z</time>
      </trkpt>
      <trkpt lat="44.12968" lon="0.60943">
        <ele>103</ele>
        <time>2025-08-10T09:07:02.696Z</time>
      </trkpt>
      <trkpt lat="44.12968" lon="0.60943">
        <ele>103</ele>
        <time>2025-08-10T09:07:03.696Z</time>
      </trkpt>
      <trkpt lat="44.12967" lon="0.60944">
        <ele>103</ele>
        <time>2025-08-10T09:07:04.696Z</time>
      </trkpt>
      <trkpt lat="44.12967" lon="0.60946">
        <ele>103</ele>
        <time>2025-08-10T09:07:05.696Z</time>
      </trkpt>
      <trkpt lat="44.12966" lon="0.60947">
        <ele>103</ele>
        <time>2025-08-10T09:07:06.696Z</time>
      </trkpt>
      <trkpt lat="44.12966" lon="0.60948">
        <ele>103</ele>
        <time>2025-08-10T09:07:07.696Z</time>
      </trkpt>
      <trkpt lat="44.12965" lon="0.60949">
        <ele>103</ele>
        <time>2025-08-10T09:07:08.696Z</time>
      </trkpt>
      <trkpt lat="44.12965" lon="0.60951">
        <ele>103</ele>
        <time>2025-08-10T09:07:09.696Z</time>
      </trkpt>
      <trkpt lat="44.12965" lon="0.60952">
        <ele>103</ele>
        <time>2025-08-10T09:07:10.696Z</time>
      </trkpt>
      <trkpt lat="44.12965" lon="0.60952">
        <ele>104</ele>
        <time>2025-08-10T09:07:11.696Z</time>
      </trkpt>
      <trkpt lat="44.12964" lon="0.60952">
        <ele>104</ele>
        <time>2025-08-10T09:07:12.696Z</time>
      </trkpt>
      <trkpt lat="44.12963" lon="0.60949">
        <ele>104</ele>
        <time>2025-08-10T09:07:13.696Z</time>
      </trkpt>
      <trkpt lat="44.12964" lon="0.60947">
        <ele>104</ele>
        <time>2025-08-10T09:07:14.696Z</time>
      </trkpt>
      <trkpt lat="44.12963" lon="0.60946">
        <ele>104</ele>
        <time>2025-08-10T09:07:15.696Z</time>
      </trkpt>
      <trkpt lat="44.12963" lon="0.60945">
        <ele>104</ele>
        <time>2025-08-10T09:07:16.696Z</time>
      </trkpt>
      <trkpt lat="44.12963" lon="0.60945">
        <ele>104</ele>
        <time>2025-08-10T09:07:17.696Z</time>
      </trkpt>
      <trkpt lat="44.12963" lon="0.60945">
        <ele>105</ele>
        <time>2025-08-10T09:07:18.696Z</time>
      </trkpt>
      <trkpt lat="44.12963" lon="0.60945">
        <ele>105</ele>
        <time>2025-08-10T09:07:19.696Z</time>
      </trkpt>
      <trkpt lat="44.12963" lon="0.60945">
        <ele>105</ele>
        <time>2025-08-10T09:07:20.696Z</time>
      </trkpt>
      <trkpt lat="44.12963" lon="0.60945">
        <ele>106</ele>
        <time>2025-08-10T09:07:21.696Z</time>
      </trkpt>
      <trkpt lat="44.12963" lon="0.60945">
        <ele>106</ele>
        <time>2025-08-10T09:07:22.696Z</time>
      </trkpt>
      <trkpt lat="44.12963" lon="0.60945">
        <ele>106</ele>
        <time>2025-08-10T09:07:23.696Z</time>
      </trkpt>
      <trkpt lat="44.12963" lon="0.60945">
        <ele>106</ele>
        <time>2025-08-10T09:07:24.696Z</time>
      </trkpt>
      <trkpt lat="44.12963" lon="0.60945">
        <ele>106</ele>
        <time>2025-08-10T09:07:25.696Z</time>
      </trkpt>
      <trkpt lat="44.12963" lon="0.60945">
        <ele>106</ele>
        <time>2025-08-10T09:07:26.696Z</time>
      </trkpt>
      <trkpt lat="44.12963" lon="0.60945">
        <ele>106</ele>
        <time>2025-08-10T09:07:27.696Z</time>
      </trkpt>
      <trkpt lat="44.12963" lon="0.60945">
        <ele>106</ele>
        <time>2025-08-10T09:07:28.696Z</time>
      </trkpt>
      <trkpt lat="44.12962" lon="0.60944">
        <ele>105</ele>
        <time>2025-08-10T09:07:29.696Z</time>
      </trkpt>
      <trkpt lat="44.12962" lon="0.60944">
        <ele>105</ele>
        <time>2025-08-10T09:07:30.696Z</time>
      </trkpt>
      <trkpt lat="44.12962" lon="0.60945">
        <ele>105</ele>
        <time>2025-08-10T09:07:31.696Z</time>
      </trkpt>
      <trkpt lat="44.12962" lon="0.60945">
        <ele>105</ele>
        <time>2025-08-10T09:07:32.696Z</time>
      </trkpt>
      <trkpt lat="44.12962" lon="0.60945">
        <ele>105</ele>
        <time>2025-08-10T09:07:33.696Z</time>
      </trkpt>
      <trkpt lat="44.12962" lon="0.60945">
        <ele>104</ele>
        <time>2025-08-10T09:07:34.696Z</time>
      </trkpt>
      <trkpt lat="44.12962" lon="0.60945">
        <ele>104</ele>
        <time>2025-08-10T09:07:35.696Z</time>
      </trkpt>
      <trkpt lat="44.12962" lon="0.60945">
        <ele>104</ele>
        <time>2025-08-10T09:07:36.696Z</time>
      </trkpt>
      <trkpt lat="44.12962" lon="0.60945">
        <ele>104</ele>
        <time>2025-08-10T09:07:37.696Z</time>
      </trkpt>
      <trkpt lat="44.12962" lon="0.60945">
        <ele>103</ele>
        <time>2025-08-10T09:07:38.696Z</time>
      </trkpt>
      <trkpt lat="44.12963" lon="0.60945">
        <ele>103</ele>
        <time>2025-08-10T09:07:39.696Z</time>
      </trkpt>
      <trkpt lat="44.12963" lon="0.60944">
        <ele>103</ele>
        <time>2025-08-10T09:07:40.696Z</time>
      </trkpt>
      <trkpt lat="44.12963" lon="0.60944">
        <ele>102</ele>
        <time>2025-08-10T09:07:41.696Z</time>
      </trkpt>
      <trkpt lat="44.12963" lon="0.60944">
        <ele>102</ele>
        <time>2025-08-10T09:07:42.696Z</time>
      </trkpt>
      <trkpt lat="44.12963" lon="0.60944">
        <ele>103</ele>
        <time>2025-08-10T09:07:43.696Z</time>
      </trkpt>
      <trkpt lat="44.12963" lon="0.60944">
        <ele>103</ele>
        <time>2025-08-10T09:07:44.696Z</time>
      </trkpt>
      <trkpt lat="44.12963" lon="0.60944">
        <ele>103</ele>
        <time>2025-08-10T09:07:45.696Z</time>
      </trkpt>
      <trkpt lat="44.12963" lon="0.60945">
        <ele>104</ele>
        <time>2025-08-10T09:07:46.696Z</time>
      </trkpt>
      <trkpt lat="44.12963" lon="0.60945">
        <ele>104</ele>
        <time>2025-08-10T09:07:47.696Z</time>
      </trkpt>
      <trkpt lat="44.12963" lon="0.60945">
        <ele>105</ele>
        <time>2025-08-10T09:07:48.696Z</time>
      </trkpt>
      <trkpt lat="44.12963" lon="0.60945">
        <ele>105</ele>
        <time>2025-08-10T09:07:49.696Z</time>
      </trkpt>
      <trkpt lat="44.12963" lon="0.60945">
        <ele>105</ele>
        <time>2025-08-10T09:07:50.696Z</time>
      </trkpt>
      <trkpt lat="44.12963" lon="0.60945">
        <ele>105</ele>
        <time>2025-08-10T09:07:51.696Z</time>
      </trkpt>
      <trkpt lat="44.12963" lon="0.60945">
        <ele>105</ele>
        <time>2025-08-10T09:07:52.696Z</time>
      </trkpt>
      <trkpt lat="44.12962" lon="0.60945">
        <ele>105</ele>
        <time>2025-08-10T09:07:53.696Z</time>
      </trkpt>
      <trkpt lat="44.12962" lon="0.60945">
        <ele>105</ele>
        <time>2025-08-10T09:07:54.696Z</time>
      </trkpt>
      <trkpt lat="44.12962" lon="0.60945">
        <ele>105</ele>
        <time>2025-08-10T09:07:55.696Z</time>
      </trkpt>
      <trkpt lat="44.12962" lon="0.60945">
        <ele>104</ele>
        <time>2025-08-10T09:07:56.696Z</time>
      </trkpt>
      <trkpt lat="44.12962" lon="0.60945">
        <ele>104</ele>
        <time>2025-08-10T09:07:57.696Z</time>
      </trkpt>
      <trkpt lat="44.12962" lon="0.60945">
        <ele>103</ele>
        <time>2025-08-10T09:07:58.696Z</time>
      </trkpt>
      <trkpt lat="44.12962" lon="0.60945">
        <ele>103</ele>
        <time>2025-08-10T09:07:59.696Z</time>
      </trkpt>
      <trkpt lat="44.12962" lon="0.60945">
        <ele>103</ele>
        <time>2025-08-10T09:08:00.696Z</time>
      </trkpt>
      <trkpt lat="44.12962" lon="0.60945">
        <ele>102</ele>
        <time>2025-08-10T09:08:01.696Z</time>
      </trkpt>
      <trkpt lat="44.12962" lon="0.60945">
        <ele>102</ele>
        <time>2025-08-10T09:08:02.696Z</time>
      </trkpt>
      <trkpt lat="44.12962" lon="0.60945">
        <ele>102</ele>
        <time>2025-08-10T09:08:03.696Z</time>
      </trkpt>
      <trkpt lat="44.12962" lon="0.60945">
        <ele>102</ele>
        <time>2025-08-10T09:08:04.696Z</time>
      </trkpt>
      <trkpt lat="44.12962" lon="0.60945">
        <ele>102</ele>
        <time>2025-08-10T09:08:05.696Z</time>
      </trkpt>
      <trkpt lat="44.12962" lon="0.60945">
        <ele>102</ele>
        <time>2025-08-10T09:08:06.696Z</time>
      </trkpt>
      <trkpt lat="44.12961" lon="0.60945">
        <ele>102</ele>
        <time>2025-08-10T09:08:07.696Z</time>
      </trkpt>
      <trkpt lat="44.12961" lon="0.60943">
        <ele>102</ele>
        <time>2025-08-10T09:08:08.696Z</time>
      </trkpt>
      <trkpt lat="44.12961" lon="0.60943">
        <ele>102</ele>
        <time>2025-08-10T09:08:09.696Z</time>
      </trkpt>
      <trkpt lat="44.12961" lon="0.60942">
        <ele>102</ele>
        <time>2025-08-10T09:08:10.696Z</time>
      </trkpt>
      <trkpt lat="44.12961" lon="0.60942">
        <ele>101</ele>
        <time>2025-08-10T09:08:11.696Z</time>
      </trkpt>
      <trkpt lat="44.12961" lon="0.60942">
        <ele>101</ele>
        <time>2025-08-10T09:08:12.696Z</time>
      </trkpt>
      <trkpt lat="44.12961" lon="0.60943">
        <ele>101</ele>
        <time>2025-08-10T09:08:13.696Z</time>
      </trkpt>
      <trkpt lat="44.12961" lon="0.60944">
        <ele>102</ele>
        <time>2025-08-10T09:08:14.696Z</time>
      </trkpt>
      <trkpt lat="44.12962" lon="0.60944">
        <ele>102</ele>
        <time>2025-08-10T09:08:15.696Z</time>
      </trkpt>
      <trkpt lat="44.12962" lon="0.60944">
        <ele>102</ele>
        <time>2025-08-10T09:08:16.696Z</time>
      </trkpt>
      <trkpt lat="44.12962" lon="0.60944">
        <ele>103</ele>
        <time>2025-08-10T09:08:17.696Z</time>
      </trkpt>
      <trkpt lat="44.12962" lon="0.60944">
        <ele>103</ele>
        <time>2025-08-10T09:08:18.696Z</time>
      </trkpt>
      <trkpt lat="44.12962" lon="0.60944">
        <ele>103</ele>
        <time>2025-08-10T09:08:19.696Z</time>
      </trkpt>
      <trkpt lat="44.12962" lon="0.60945">
        <ele>104</ele>
        <time>2025-08-10T09:08:20.696Z</time>
      </trkpt>
      <trkpt lat="44.12963" lon="0.60945">
        <ele>104</ele>
        <time>2025-08-10T09:08:21.696Z</time>
      </trkpt>
      <trkpt lat="44.12962" lon="0.60945">
        <ele>104</ele>
        <time>2025-08-10T09:08:22.696Z</time>
      </trkpt>
      <trkpt lat="44.12962" lon="0.60945">
        <ele>104</ele>
        <time>2025-08-10T09:08:23.696Z</time>
      </trkpt>
      <trkpt lat="44.12962" lon="0.60945">
        <ele>104</ele>
        <time>2025-08-10T09:08:24.696Z</time>
      </trkpt>
      <trkpt lat="44.12962" lon="0.60944">
        <ele>105</ele>
        <time>2025-08-10T09:08:25.696Z</time>
      </trkpt>
      <trkpt lat="44.12962" lon="0.60944">
        <ele>105</ele>
        <time>2025-08-10T09:08:26.696Z</time>
      </trkpt>
      <trkpt lat="44.12962" lon="0.60944">
        <ele>105</ele>
        <time>2025-08-10T09:08:27.696Z</time>
      </trkpt>
      <trkpt lat="44.12962" lon="0.60944">
        <ele>105</ele>
        <time>2025-08-10T09:08:28.696Z</time>
      </trkpt>
      <trkpt lat="44.12963" lon="0.60944">
        <ele>104</ele>
        <time>2025-08-10T09:08:29.696Z</time>
      </trkpt>
      <trkpt lat="44.12963" lon="0.60945">
        <ele>104</ele>
        <time>2025-08-10T09:08:30.696Z</time>
      </trkpt>
      <trkpt lat="44.12963" lon="0.60945">
        <ele>104</ele>
        <time>2025-08-10T09:08:31.696Z</time>
      </trkpt>
      <trkpt lat="44.12963" lon="0.60945">
        <ele>104</ele>
        <time>2025-08-10T09:08:32.696Z</time>
      </trkpt>
      <trkpt lat="44.12963" lon="0.60946">
        <ele>104</ele>
        <time>2025-08-10T09:08:33.696Z</time>
      </trkpt>
      <trkpt lat="44.12964" lon="0.60947">
        <ele>104</ele>
        <time>2025-08-10T09:08:34.696Z</time>
      </trkpt>
      <trkpt lat="44.12966" lon="0.60948">
        <ele>104</ele>
        <time>2025-08-10T09:08:35.696Z</time>
      </trkpt>
      <trkpt lat="44.12967" lon="0.60948">
        <ele>104</ele>
        <time>2025-08-10T09:08:36.696Z</time>
      </trkpt>
      <trkpt lat="44.12968" lon="0.60949">
        <ele>104</ele>
        <time>2025-08-10T09:08:37.696Z</time>
      </trkpt>
      <trkpt lat="44.12969" lon="0.6095">
        <ele>103</ele>
        <time>2025-08-10T09:08:38.696Z</time>
      </trkpt>
      <trkpt lat="44.1297" lon="0.60951">
        <ele>103</ele>
        <time>2025-08-10T09:08:39.696Z</time>
      </trkpt>
      <trkpt lat="44.12971" lon="0.60952">
        <ele>103</ele>
        <time>2025-08-10T09:08:40.696Z</time>
      </trkpt>
      <trkpt lat="44.12972" lon="0.60952">
        <ele>103</ele>
        <time>2025-08-10T09:08:41.696Z</time>
      </trkpt>
      <trkpt lat="44.12973" lon="0.60953">
        <ele>103</ele>
        <time>2025-08-10T09:08:42.696Z</time>
      </trkpt>
      <trkpt lat="44.12974" lon="0.60954">
        <ele>104</ele>
        <time>2025-08-10T09:08:43.696Z</time>
      </trkpt>
      <trkpt lat="44.12974" lon="0.60954">
        <ele>104</ele>
        <time>2025-08-10T09:08:44.696Z</time>
      </trkpt>
      <trkpt lat="44.12976" lon="0.60955">
        <ele>104</ele>
        <time>2025-08-10T09:08:45.696Z</time>
      </trkpt>
      <trkpt lat="44.12977" lon="0.60956">
        <ele>104</ele>
        <time>2025-08-10T09:08:46.696Z</time>
      </trkpt>
      <trkpt lat="44.12978" lon="0.60956">
        <ele>104</ele>
        <time>2025-08-10T09:08:47.696Z</time>
      </trkpt>
      <trkpt lat="44.12979" lon="0.60957">
        <ele>104</ele>
        <time>2025-08-10T09:08:48.696Z</time>
      </trkpt>
      <trkpt lat="44.12979" lon="0.60957">
        <ele>105</ele>
        <time>2025-08-10T09:08:49.696Z</time>
      </trkpt>
      <trkpt lat="44.1298" lon="0.60958">
        <ele>105</ele>
        <time>2025-08-10T09:08:50.696Z</time>
      </trkpt>
      <trkpt lat="44.12981" lon="0.60959">
        <ele>105</ele>
        <time>2025-08-10T09:08:51.696Z</time>
      </trkpt>
      <trkpt lat="44.12981" lon="0.6096">
        <ele>105</ele>
        <time>2025-08-10T09:08:52.696Z</time>
      </trkpt>
      <trkpt lat="44.12982" lon="0.60962">
        <ele>104</ele>
        <time>2025-08-10T09:08:53.696Z</time>
      </trkpt>
      <trkpt lat="44.12982" lon="0.60963">
        <ele>104</ele>
        <time>2025-08-10T09:08:54.696Z</time>
      </trkpt>
      <trkpt lat="44.12984" lon="0.60964">
        <ele>103</ele>
        <time>2025-08-10T09:08:55.696Z</time>
      </trkpt>
      <trkpt lat="44.12985" lon="0.60965">
        <ele>103</ele>
        <time>2025-08-10T09:08:56.696Z</time>
      </trkpt>
      <trkpt lat="44.12986" lon="0.60966">
        <ele>103</ele>
        <time>2025-08-10T09:08:57.696Z</time>
      </trkpt>
      <trkpt lat="44.12987" lon="0.60966">
        <ele>103</ele>
        <time>2025-08-10T09:08:58.696Z</time>
      </trkpt>
      <trkpt lat="44.12989" lon="0.60968">
        <ele>103</ele>
        <time>2025-08-10T09:08:59.696Z</time>
      </trkpt>
      <trkpt lat="44.1299" lon="0.60968">
        <ele>103</ele>
        <time>2025-08-10T09:09:00.696Z</time>
      </trkpt>
      <trkpt lat="44.12991" lon="0.60969">
        <ele>103</ele>
        <time>2025-08-10T09:09:01.696Z</time>
      </trkpt>
      <trkpt lat="44.12992" lon="0.6097">
        <ele>104</ele>
        <time>2025-08-10T09:09:02.696Z</time>
      </trkpt>
      <trkpt lat="44.12993" lon="0.6097">
        <ele>104</ele>
        <time>2025-08-10T09:09:03.696Z</time>
      </trkpt>
      <trkpt lat="44.12995" lon="0.60972">
        <ele>104</ele>
        <time>2025-08-10T09:09:04.696Z</time>
      </trkpt>
      <trkpt lat="44.12996" lon="0.60973">
        <ele>104</ele>
        <time>2025-08-10T09:09:05.696Z</time>
      </trkpt>
      <trkpt lat="44.12997" lon="0.60974">
        <ele>104</ele>
        <time>2025-08-10T09:09:06.696Z</time>
      </trkpt>
      <trkpt lat="44.12998" lon="0.60976">
        <ele>104</ele>
        <time>2025-08-10T09:09:07.696Z</time>
      </trkpt>
      <trkpt lat="44.12999" lon="0.60976">
        <ele>103</ele>
        <time>2025-08-10T09:09:08.696Z</time>
      </trkpt>
      <trkpt lat="44.13" lon="0.60977">
        <ele>103</ele>
        <time>2025-08-10T09:09:09.696Z</time>
      </trkpt>
      <trkpt lat="44.13002" lon="0.60978">
        <ele>103</ele>
        <time>2025-08-10T09:09:10.696Z</time>
      </trkpt>
      <trkpt lat="44.13003" lon="0.60979">
        <ele>103</ele>
        <time>2025-08-10T09:09:11.696Z</time>
      </trkpt>
      <trkpt lat="44.13005" lon="0.6098">
        <ele>103</ele>
        <time>2025-08-10T09:09:12.696Z</time>
      </trkpt>
      <trkpt lat="44.13006" lon="0.60981">
        <ele>103</ele>
        <time>2025-08-10T09:09:13.696Z</time>
      </trkpt>
      <trkpt lat="44.13008" lon="0.60982">
        <ele>103</ele>
        <time>2025-08-10T09:09:14.696Z</time>
      </trkpt>
      <trkpt lat="44.13008" lon="0.60983">
        <ele>103</ele>
        <time>2025-08-10T09:09:15.696Z</time>
      </trkpt>
      <trkpt lat="44.13009" lon="0.60984">
        <ele>102</ele>
        <time>2025-08-10T09:09:16.696Z</time>
      </trkpt>
      <trkpt lat="44.13009" lon="0.60984">
        <ele>102</ele>
        <time>2025-08-10T09:09:17.696Z</time>
      </trkpt>
      <trkpt lat="44.1301" lon="0.60985">
        <ele>102</ele>
        <time>2025-08-10T09:09:18.696Z</time>
      </trkpt>
      <trkpt lat="44.13011" lon="0.60986">
        <ele>102</ele>
        <time>2025-08-10T09:09:19.696Z</time>
      </trkpt>
      <trkpt lat="44.13012" lon="0.60987">
        <ele>102</ele>
        <time>2025-08-10T09:09:20.696Z</time>
      </trkpt>
      <trkpt lat="44.13013" lon="0.60987">
        <ele>102</ele>
        <time>2025-08-10T09:09:21.696Z</time>
      </trkpt>
      <trkpt lat="44.13014" lon="0.60988">
        <ele>102</ele>
        <time>2025-08-10T09:09:22.696Z</time>
      </trkpt>
      <trkpt lat="44.13015" lon="0.60988">
        <ele>102</ele>
        <time>2025-08-10T09:09:23.696Z</time>
      </trkpt>
      <trkpt lat="44.13017" lon="0.60989">
        <ele>102</ele>
        <time>2025-08-10T09:09:24.696Z</time>
      </trkpt>
      <trkpt lat="44.13018" lon="0.60989">
        <ele>102</ele>
        <time>2025-08-10T09:09:25.696Z</time>
      </trkpt>
      <trkpt lat="44.1302" lon="0.6099">
        <ele>102</ele>
        <time>2025-08-10T09:09:26.696Z</time>
      </trkpt>
      <trkpt lat="44.13021" lon="0.60991">
        <ele>103</ele>
        <time>2025-08-10T09:09:27.696Z</time>
      </trkpt>
      <trkpt lat="44.13022" lon="0.60991">
        <ele>103</ele>
        <time>2025-08-10T09:09:28.696Z</time>
      </trkpt>
      <trkpt lat="44.13022" lon="0.60992">
        <ele>102</ele>
        <time>2025-08-10T09:09:29.696Z</time>
      </trkpt>
      <trkpt lat="44.13023" lon="0.60993">
        <ele>102</ele>
        <time>2025-08-10T09:09:30.696Z</time>
      </trkpt>
      <trkpt lat="44.13024" lon="0.60993">
        <ele>102</ele>
        <time>2025-08-10T09:09:31.696Z</time>
      </trkpt>
      <trkpt lat="44.13025" lon="0.60993">
        <ele>102</ele>
        <time>2025-08-10T09:09:32.696Z</time>
      </trkpt>
      <trkpt lat="44.13025" lon="0.60993">
        <ele>102</ele>
        <time>2025-08-10T09:09:33.696Z</time>
      </trkpt>
      <trkpt lat="44.13027" lon="0.60993">
        <ele>102</ele>
        <time>2025-08-10T09:09:34.696Z</time>
      </trkpt>
      <trkpt lat="44.13029" lon="0.60994">
        <ele>102</ele>
        <time>2025-08-10T09:09:35.696Z</time>
      </trkpt>
      <trkpt lat="44.1303" lon="0.60993">
        <ele>102</ele>
        <time>2025-08-10T09:09:36.696Z</time>
      </trkpt>
      <trkpt lat="44.13031" lon="0.60993">
        <ele>101</ele>
        <time>2025-08-10T09:09:37.696Z</time>
      </trkpt>
      <trkpt lat="44.13033" lon="0.60993">
        <ele>101</ele>
        <time>2025-08-10T09:09:38.696Z</time>
      </trkpt>
      <trkpt lat="44.13034" lon="0.60993">
        <ele>101</ele>
        <time>2025-08-10T09:09:39.696Z</time>
      </trkpt>
      <trkpt lat="44.13035" lon="0.60993">
        <ele>101</ele>
        <time>2025-08-10T09:09:40.696Z</time>
      </trkpt>
      <trkpt lat="44.13035" lon="0.60994">
        <ele>101</ele>
        <time>2025-08-10T09:09:41.696Z</time>
      </trkpt>
      <trkpt lat="44.13036" lon="0.60994">
        <ele>100</ele>
        <time>2025-08-10T09:09:42.696Z</time>
      </trkpt>
      <trkpt lat="44.13037" lon="0.60995">
        <ele>99</ele>
        <time>2025-08-10T09:09:43.696Z</time>
      </trkpt>
      <trkpt lat="44.13038" lon="0.60995">
        <ele>99</ele>
        <time>2025-08-10T09:09:44.696Z</time>
      </trkpt>
      <trkpt lat="44.13039" lon="0.60996">
        <ele>99</ele>
        <time>2025-08-10T09:09:45.696Z</time>
      </trkpt>
      <trkpt lat="44.1304" lon="0.60996">
        <ele>98</ele>
        <time>2025-08-10T09:09:46.696Z</time>
      </trkpt>
      <trkpt lat="44.13041" lon="0.60996">
        <ele>98</ele>
        <time>2025-08-10T09:09:47.696Z</time>
      </trkpt>
      <trkpt lat="44.13042" lon="0.60996">
        <ele>98</ele>
        <time>2025-08-10T09:09:48.696Z</time>
      </trkpt>
      <trkpt lat="44.13043" lon="0.60997">
        <ele>97</ele>
        <time>2025-08-10T09:09:49.696Z</time>
      </trkpt>
      <trkpt lat="44.13044" lon="0.60997">
        <ele>97</ele>
        <time>2025-08-10T09:09:50.696Z</time>
      </trkpt>
      <trkpt lat="44.13045" lon="0.60997">
        <ele>96</ele>
        <time>2025-08-10T09:09:51.696Z</time>
      </trkpt>
      <trkpt lat="44.13046" lon="0.60997">
        <ele>96</ele>
        <time>2025-08-10T09:09:52.696Z</time>
      </trkpt>
      <trkpt lat="44.13047" lon="0.60997">
        <ele>96</ele>
        <time>2025-08-10T09:09:53.696Z</time>
      </trkpt>
      <trkpt lat="44.13048" lon="0.60997">
        <ele>96</ele>
        <time>2025-08-10T09:09:54.696Z</time>
      </trkpt>
      <trkpt lat="44.1305" lon="0.60997">
        <ele>95</ele>
        <time>2025-08-10T09:09:55.697Z</time>
      </trkpt>
      <trkpt lat="44.13051" lon="0.60997">
        <ele>95</ele>
        <time>2025-08-10T09:09:56.696Z</time>
      </trkpt>
      <trkpt lat="44.13052" lon="0.60997">
        <ele>95</ele>
        <time>2025-08-10T09:09:57.696Z</time>
      </trkpt>
      <trkpt lat="44.13053" lon="0.60997">
        <ele>95</ele>
        <time>2025-08-10T09:09:58.696Z</time>
      </trkpt>
      <trkpt lat="44.13055" lon="0.60998">
        <ele>95</ele>
        <time>2025-08-10T09:09:59.696Z</time>
      </trkpt>
      <trkpt lat="44.13056" lon="0.60998">
        <ele>95</ele>
        <time>2025-08-10T09:10:00.696Z</time>
      </trkpt>
      <trkpt lat="44.13057" lon="0.60999">
        <ele>95</ele>
        <time>2025-08-10T09:10:01.696Z</time>
      </trkpt>
      <trkpt lat="44.13058" lon="0.60999">
        <ele>94</ele>
        <time>2025-08-10T09:10:02.696Z</time>
      </trkpt>
      <trkpt lat="44.13059" lon="0.61">
        <ele>94</ele>
        <time>2025-08-10T09:10:03.696Z</time>
      </trkpt>
      <trkpt lat="44.1306" lon="0.61">
        <ele>93</ele>
        <time>2025-08-10T09:10:04.696Z</time>
      </trkpt>
      <trkpt lat="44.1306" lon="0.61">
        <ele>93</ele>
        <time>2025-08-10T09:10:05.696Z</time>
      </trkpt>
      <trkpt lat="44.13061" lon="0.61">
        <ele>93</ele>
        <time>2025-08-10T09:10:06.696Z</time>
      </trkpt>
      <trkpt lat="44.13062" lon="0.61">
        <ele>92</ele>
        <time>2025-08-10T09:10:07.696Z</time>
      </trkpt>
      <trkpt lat="44.13063" lon="0.61">
        <ele>91</ele>
        <time>2025-08-10T09:10:08.696Z</time>
      </trkpt>
      <trkpt lat="44.13065" lon="0.61">
        <ele>91</ele>
        <time>2025-08-10T09:10:09.696Z</time>
      </trkpt>
      <trkpt lat="44.13066" lon="0.61">
        <ele>90</ele>
        <time>2025-08-10T09:10:10.696Z</time>
      </trkpt>
      <trkpt lat="44.13067" lon="0.60999">
        <ele>89</ele>
        <time>2025-08-10T09:10:11.696Z</time>
      </trkpt>
      <trkpt lat="44.13068" lon="0.60998">
        <ele>88</ele>
        <time>2025-08-10T09:10:12.696Z</time>
      </trkpt>
      <trkpt lat="44.13069" lon="0.60998">
        <ele>88</ele>
        <time>2025-08-10T09:10:13.696Z</time>
      </trkpt>
      <trkpt lat="44.1307" lon="0.60997">
        <ele>88</ele>
        <time>2025-08-10T09:10:14.696Z</time>
      </trkpt>
      <trkpt lat="44.1307" lon="0.60996">
        <ele>87</ele>
        <time>2025-08-10T09:10:15.696Z</time>
      </trkpt>
      <trkpt lat="44.13071" lon="0.60996">
        <ele>87</ele>
        <time>2025-08-10T09:10:16.696Z</time>
      </trkpt>
      <trkpt lat="44.13072" lon="0.60995">
        <ele>87</ele>
        <time>2025-08-10T09:10:17.696Z</time>
      </trkpt>
      <trkpt lat="44.13073" lon="0.60994">
        <ele>87</ele>
        <time>2025-08-10T09:10:18.696Z</time>
      </trkpt>
      <trkpt lat="44.13074" lon="0.60994">
        <ele>86</ele>
        <time>2025-08-10T09:10:19.696Z</time>
      </trkpt>
      <trkpt lat="44.13074" lon="0.60993">
        <ele>86</ele>
        <time>2025-08-10T09:10:20.696Z</time>
      </trkpt>
      <trkpt lat="44.13075" lon="0.60992">
        <ele>86</ele>
        <time>2025-08-10T09:10:21.696Z</time>
      </trkpt>
      <trkpt lat="44.13076" lon="0.60992">
        <ele>85</ele>
        <time>2025-08-10T09:10:22.696Z</time>
      </trkpt>
      <trkpt lat="44.13077" lon="0.60992">
        <ele>85</ele>
        <time>2025-08-10T09:10:23.696Z</time>
      </trkpt>
      <trkpt lat="44.13078" lon="0.60992">
        <ele>85</ele>
        <time>2025-08-10T09:10:24.696Z</time>
      </trkpt>
      <trkpt lat="44.13079" lon="0.60992">
        <ele>84</ele>
        <time>2025-08-10T09:10:25.696Z</time>
      </trkpt>
      <trkpt lat="44.1308" lon="0.60993">
        <ele>84</ele>
        <time>2025-08-10T09:10:26.696Z</time>
      </trkpt>
      <trkpt lat="44.13081" lon="0.60993">
        <ele>84</ele>
        <time>2025-08-10T09:10:27.696Z</time>
      </trkpt>
      <trkpt lat="44.13082" lon="0.60993">
        <ele>84</ele>
        <time>2025-08-10T09:10:28.696Z</time>
      </trkpt>
      <trkpt lat="44.13083" lon="0.60994">
        <ele>84</ele>
        <time>2025-08-10T09:10:29.696Z</time>
      </trkpt>
      <trkpt lat="44.13084" lon="0.60994">
        <ele>84</ele>
        <time>2025-08-10T09:10:30.696Z</time>
      </trkpt>
      <trkpt lat="44.13085" lon="0.60995">
        <ele>85</ele>
        <time>2025-08-10T09:10:31.696Z</time>
      </trkpt>
      <trkpt lat="44.13086" lon="0.60996">
        <ele>85</ele>
        <time>2025-08-10T09:10:32.696Z</time>
      </trkpt>
      <trkpt lat="44.13088" lon="0.60997">
        <ele>85</ele>
        <time>2025-08-10T09:10:33.696Z</time>
      </trkpt>
      <trkpt lat="44.13089" lon="0.60997">
        <ele>85</ele>
        <time>2025-08-10T09:10:34.696Z</time>
      </trkpt>
      <trkpt lat="44.1309" lon="0.60998">
        <ele>85</ele>
        <time>2025-08-10T09:10:35.696Z</time>
      </trkpt>
      <trkpt lat="44.13091" lon="0.60998">
        <ele>85</ele>
        <time>2025-08-10T09:10:36.696Z</time>
      </trkpt>
      <trkpt lat="44.13092" lon="0.60999">
        <ele>85</ele>
        <time>2025-08-10T09:10:37.696Z</time>
      </trkpt>
      <trkpt lat="44.13093" lon="0.60999">
        <ele>85</ele>
        <time>2025-08-10T09:10:38.696Z</time>
      </trkpt>
      <trkpt lat="44.13095" lon="0.60999">
        <ele>85</ele>
        <time>2025-08-10T09:10:39.696Z</time>
      </trkpt>
      <trkpt lat="44.13096" lon="0.61">
        <ele>85</ele>
        <time>2025-08-10T09:10:40.696Z</time>
      </trkpt>
      <trkpt lat="44.13097" lon="0.61">
        <ele>85</ele>
        <time>2025-08-10T09:10:41.696Z</time>
      </trkpt>
      <trkpt lat="44.13098" lon="0.61">
        <ele>85</ele>
        <time>2025-08-10T09:10:42.696Z</time>
      </trkpt>
      <trkpt lat="44.13099" lon="0.61001">
        <ele>84</ele>
        <time>2025-08-10T09:10:43.696Z</time>
      </trkpt>
      <trkpt lat="44.131" lon="0.61001">
        <ele>84</ele>
        <time>2025-08-10T09:10:44.696Z</time>
      </trkpt>
      <trkpt lat="44.13101" lon="0.61002">
        <ele>83</ele>
        <time>2025-08-10T09:10:45.696Z</time>
      </trkpt>
      <trkpt lat="44.13102" lon="0.61003">
        <ele>83</ele>
        <time>2025-08-10T09:10:46.696Z</time>
      </trkpt>
      <trkpt lat="44.13103" lon="0.61003">
        <ele>82</ele>
        <time>2025-08-10T09:10:47.696Z</time>
      </trkpt>
      <trkpt lat="44.13104" lon="0.61004">
        <ele>82</ele>
        <time>2025-08-10T09:10:48.696Z</time>
      </trkpt>
      <trkpt lat="44.13105" lon="0.61004">
        <ele>82</ele>
        <time>2025-08-10T09:10:49.696Z</time>
      </trkpt>
      <trkpt lat="44.13106" lon="0.61005">
        <ele>82</ele>
        <time>2025-08-10T09:10:50.696Z</time>
      </trkpt>
      <trkpt lat="44.13107" lon="0.61006">
        <ele>82</ele>
        <time>2025-08-10T09:10:51.696Z</time>
      </trkpt>
      <trkpt lat="44.13108" lon="0.61007">
        <ele>82</ele>
        <time>2025-08-10T09:10:52.696Z</time>
      </trkpt>
      <trkpt lat="44.13109" lon="0.61008">
        <ele>81</ele>
        <time>2025-08-10T09:10:53.696Z</time>
      </trkpt>
      <trkpt lat="44.1311" lon="0.61009">
        <ele>81</ele>
        <time>2025-08-10T09:10:54.696Z</time>
      </trkpt>
      <trkpt lat="44.13111" lon="0.6101">
        <ele>81</ele>
        <time>2025-08-10T09:10:55.696Z</time>
      </trkpt>
      <trkpt lat="44.13112" lon="0.61012">
        <ele>81</ele>
        <time>2025-08-10T09:10:56.696Z</time>
      </trkpt>
      <trkpt lat="44.13113" lon="0.61013">
        <ele>81</ele>
        <time>2025-08-10T09:10:57.696Z</time>
      </trkpt>
      <trkpt lat="44.13114" lon="0.61014">
        <ele>81</ele>
        <time>2025-08-10T09:10:58.696Z</time>
      </trkpt>
      <trkpt lat="44.13115" lon="0.61015">
        <ele>81</ele>
        <time>2025-08-10T09:10:59.696Z</time>
      </trkpt>
      <trkpt lat="44.13116" lon="0.61016">
        <ele>81</ele>
        <time>2025-08-10T09:11:00.696Z</time>
      </trkpt>
      <trkpt lat="44.13117" lon="0.61017">
        <ele>81</ele>
        <time>2025-08-10T09:11:01.696Z</time>
      </trkpt>
      <trkpt lat="44.13117" lon="0.61019">
        <ele>81</ele>
        <time>2025-08-10T09:11:02.696Z</time>
      </trkpt>
      <trkpt lat="44.13118" lon="0.61019">
        <ele>81</ele>
        <time>2025-08-10T09:11:03.696Z</time>
      </trkpt>
      <trkpt lat="44.1312" lon="0.61021">
        <ele>81</ele>
        <time>2025-08-10T09:11:04.696Z</time>
      </trkpt>
      <trkpt lat="44.13121" lon="0.61022">
        <ele>81</ele>
        <time>2025-08-10T09:11:05.696Z</time>
      </trkpt>
      <trkpt lat="44.13121" lon="0.61023">
        <ele>81</ele>
        <time>2025-08-10T09:11:06.696Z</time>
      </trkpt>
      <trkpt lat="44.13122" lon="0.61024">
        <ele>81</ele>
        <time>2025-08-10T09:11:07.696Z</time>
      </trkpt>
      <trkpt lat="44.13123" lon="0.61025">
        <ele>81</ele>
        <time>2025-08-10T09:11:08.696Z</time>
      </trkpt>
      <trkpt lat="44.13124" lon="0.61026">
        <ele>81</ele>
        <time>2025-08-10T09:11:09.696Z</time>
      </trkpt>
      <trkpt lat="44.13125" lon="0.61027">
        <ele>81</ele>
        <time>2025-08-10T09:11:10.696Z</time>
      </trkpt>
      <trkpt lat="44.13126" lon="0.61028">
        <ele>81</ele>
        <time>2025-08-10T09:11:11.696Z</time>
      </trkpt>
      <trkpt lat="44.13127" lon="0.61029">
        <ele>81</ele>
        <time>2025-08-10T09:11:12.696Z</time>
      </trkpt>
      <trkpt lat="44.13129" lon="0.6103">
        <ele>81</ele>
        <time>2025-08-10T09:11:13.696Z</time>
      </trkpt>
      <trkpt lat="44.1313" lon="0.6103">
        <ele>81</ele>
        <time>2025-08-10T09:11:14.696Z</time>
      </trkpt>
      <trkpt lat="44.13131" lon="0.61031">
        <ele>81</ele>
        <time>2025-08-10T09:11:15.696Z</time>
      </trkpt>
      <trkpt lat="44.13132" lon="0.61032">
        <ele>81</ele>
        <time>2025-08-10T09:11:16.696Z</time>
      </trkpt>
      <trkpt lat="44.13133" lon="0.61032">
        <ele>81</ele>
        <time>2025-08-10T09:11:17.696Z</time>
      </trkpt>
      <trkpt lat="44.13134" lon="0.61033">
        <ele>81</ele>
        <time>2025-08-10T09:11:18.696Z</time>
      </trkpt>
      <trkpt lat="44.13135" lon="0.61034">
        <ele>81</ele>
        <time>2025-08-10T09:11:19.696Z</time>
      </trkpt>
      <trkpt lat="44.13136" lon="0.61035">
        <ele>82</ele>
        <time>2025-08-10T09:11:20.696Z</time>
      </trkpt>
      <trkpt lat="44.13137" lon="0.61036">
        <ele>82</ele>
        <time>2025-08-10T09:11:21.696Z</time>
      </trkpt>
      <trkpt lat="44.13138" lon="0.61037">
        <ele>82</ele>
        <time>2025-08-10T09:11:22.696Z</time>
      </trkpt>
      <trkpt lat="44.13139" lon="0.61038">
        <ele>82</ele>
        <time>2025-08-10T09:11:23.696Z</time>
      </trkpt>
      <trkpt lat="44.1314" lon="0.61039">
        <ele>82</ele>
        <time>2025-08-10T09:11:24.696Z</time>
      </trkpt>
      <trkpt lat="44.1314" lon="0.61041">
        <ele>82</ele>
        <time>2025-08-10T09:11:25.696Z</time>
      </trkpt>
      <trkpt lat="44.13141" lon="0.61042">
        <ele>82</ele>
        <time>2025-08-10T09:11:26.696Z</time>
      </trkpt>
      <trkpt lat="44.13141" lon="0.61043">
        <ele>81</ele>
        <time>2025-08-10T09:11:27.696Z</time>
      </trkpt>
      <trkpt lat="44.13142" lon="0.61045">
        <ele>81</ele>
        <time>2025-08-10T09:11:28.696Z</time>
      </trkpt>
      <trkpt lat="44.13142" lon="0.61047">
        <ele>81</ele>
        <time>2025-08-10T09:11:29.696Z</time>
      </trkpt>
      <trkpt lat="44.13142" lon="0.61049">
        <ele>80</ele>
        <time>2025-08-10T09:11:30.696Z</time>
      </trkpt>
      <trkpt lat="44.13143" lon="0.61051">
        <ele>80</ele>
        <time>2025-08-10T09:11:31.696Z</time>
      </trkpt>
      <trkpt lat="44.13143" lon="0.61052">
        <ele>80</ele>
        <time>2025-08-10T09:11:32.696Z</time>
      </trkpt>
      <trkpt lat="44.13144" lon="0.61054">
        <ele>80</ele>
        <time>2025-08-10T09:11:33.696Z</time>
      </trkpt>
      <trkpt lat="44.13144" lon="0.61055">
        <ele>80</ele>
        <time>2025-08-10T09:11:34.696Z</time>
      </trkpt>
      <trkpt lat="44.13145" lon="0.61057">
        <ele>80</ele>
        <time>2025-08-10T09:11:35.696Z</time>
      </trkpt>
      <trkpt lat="44.13145" lon="0.61059">
        <ele>80</ele>
        <time>2025-08-10T09:11:36.696Z</time>
      </trkpt>
      <trkpt lat="44.13146" lon="0.6106">
        <ele>80</ele>
        <time>2025-08-10T09:11:37.696Z</time>
      </trkpt>
      <trkpt lat="44.13146" lon="0.61062">
        <ele>80</ele>
        <time>2025-08-10T09:11:38.696Z</time>
      </trkpt>
      <trkpt lat="44.13146" lon="0.61064">
        <ele>80</ele>
        <time>2025-08-10T09:11:39.696Z</time>
      </trkpt>
      <trkpt lat="44.13147" lon="0.61065">
        <ele>81</ele>
        <time>2025-08-10T09:11:40.696Z</time>
      </trkpt>
      <trkpt lat="44.13147" lon="0.61067">
        <ele>81</ele>
        <time>2025-08-10T09:11:41.696Z</time>
      </trkpt>
      <trkpt lat="44.13148" lon="0.61068">
        <ele>81</ele>
        <time>2025-08-10T09:11:42.696Z</time>
      </trkpt>
      <trkpt lat="44.13148" lon="0.6107">
        <ele>81</ele>
        <time>2025-08-10T09:11:43.696Z</time>
      </trkpt>
      <trkpt lat="44.13148" lon="0.61071">
        <ele>81</ele>
        <time>2025-08-10T09:11:44.696Z</time>
      </trkpt>
      <trkpt lat="44.13149" lon="0.61072">
        <ele>81</ele>
        <time>2025-08-10T09:11:45.696Z</time>
      </trkpt>
      <trkpt lat="44.13149" lon="0.61074">
        <ele>81</ele>
        <time>2025-08-10T09:11:46.696Z</time>
      </trkpt>
      <trkpt lat="44.13149" lon="0.61076">
        <ele>81</ele>
        <time>2025-08-10T09:11:47.696Z</time>
      </trkpt>
      <trkpt lat="44.1315" lon="0.61078">
        <ele>81</ele>
        <time>2025-08-10T09:11:48.696Z</time>
      </trkpt>
      <trkpt lat="44.13151" lon="0.61079">
        <ele>81</ele>
        <time>2025-08-10T09:11:49.696Z</time>
      </trkpt>
      <trkpt lat="44.13151" lon="0.61081">
        <ele>80</ele>
        <time>2025-08-10T09:11:50.696Z</time>
      </trkpt>
      <trkpt lat="44.13151" lon="0.61082">
        <ele>80</ele>
        <time>2025-08-10T09:11:51.696Z</time>
      </trkpt>
      <trkpt lat="44.13152" lon="0.61084">
        <ele>80</ele>
        <time>2025-08-10T09:11:52.696Z</time>
      </trkpt>
      <trkpt lat="44.13152" lon="0.61085">
        <ele>80</ele>
        <time>2025-08-10T09:11:53.696Z</time>
      </trkpt>
      <trkpt lat="44.13153" lon="0.61087">
        <ele>80</ele>
        <time>2025-08-10T09:11:54.696Z</time>
      </trkpt>
      <trkpt lat="44.13153" lon="0.61088">
        <ele>80</ele>
        <time>2025-08-10T09:11:55.696Z</time>
      </trkpt>
      <trkpt lat="44.13154" lon="0.6109">
        <ele>80</ele>
        <time>2025-08-10T09:11:56.696Z</time>
      </trkpt>
      <trkpt lat="44.13154" lon="0.61091">
        <ele>80</ele>
        <time>2025-08-10T09:11:57.696Z</time>
      </trkpt>
      <trkpt lat="44.13154" lon="0.61093">
        <ele>80</ele>
        <time>2025-08-10T09:11:58.696Z</time>
      </trkpt>
      <trkpt lat="44.13155" lon="0.61094">
        <ele>79</ele>
        <time>2025-08-10T09:11:59.696Z</time>
      </trkpt>
      <trkpt lat="44.13155" lon="0.61095">
        <ele>79</ele>
        <time>2025-08-10T09:12:00.696Z</time>
      </trkpt>
      <trkpt lat="44.13155" lon="0.61097">
        <ele>78</ele>
        <time>2025-08-10T09:12:01.696Z</time>
      </trkpt>
      <trkpt lat="44.13156" lon="0.61098">
        <ele>78</ele>
        <time>2025-08-10T09:12:02.696Z</time>
      </trkpt>
      <trkpt lat="44.13157" lon="0.611">
        <ele>79</ele>
        <time>2025-08-10T09:12:03.696Z</time>
      </trkpt>
      <trkpt lat="44.13158" lon="0.61101">
        <ele>79</ele>
        <time>2025-08-10T09:12:04.696Z</time>
      </trkpt>
      <trkpt lat="44.13158" lon="0.61103">
        <ele>79</ele>
        <time>2025-08-10T09:12:05.696Z</time>
      </trkpt>
      <trkpt lat="44.13159" lon="0.61104">
        <ele>79</ele>
        <time>2025-08-10T09:12:06.696Z</time>
      </trkpt>
      <trkpt lat="44.13159" lon="0.61105">
        <ele>79</ele>
        <time>2025-08-10T09:12:07.696Z</time>
      </trkpt>
      <trkpt lat="44.1316" lon="0.61106">
        <ele>79</ele>
        <time>2025-08-10T09:12:08.696Z</time>
      </trkpt>
      <trkpt lat="44.13161" lon="0.61108">
        <ele>79</ele>
        <time>2025-08-10T09:12:09.696Z</time>
      </trkpt>
      <trkpt lat="44.13162" lon="0.61109">
        <ele>80</ele>
        <time>2025-08-10T09:12:10.696Z</time>
      </trkpt>
      <trkpt lat="44.13163" lon="0.6111">
        <ele>80</ele>
        <time>2025-08-10T09:12:11.696Z</time>
      </trkpt>
      <trkpt lat="44.13163" lon="0.61112">
        <ele>80</ele>
        <time>2025-08-10T09:12:12.696Z</time>
      </trkpt>
      <trkpt lat="44.13164" lon="0.61113">
        <ele>81</ele>
        <time>2025-08-10T09:12:13.696Z</time>
      </trkpt>
      <trkpt lat="44.13164" lon="0.61114">
        <ele>81</ele>
        <time>2025-08-10T09:12:14.696Z</time>
      </trkpt>
      <trkpt lat="44.13165" lon="0.61116">
        <ele>80</ele>
        <time>2025-08-10T09:12:15.696Z</time>
      </trkpt>
      <trkpt lat="44.13166" lon="0.61117">
        <ele>80</ele>
        <time>2025-08-10T09:12:16.696Z</time>
      </trkpt>
      <trkpt lat="44.13166" lon="0.61119">
        <ele>80</ele>
        <time>2025-08-10T09:12:17.696Z</time>
      </trkpt>
      <trkpt lat="44.13167" lon="0.6112">
        <ele>81</ele>
        <time>2025-08-10T09:12:18.696Z</time>
      </trkpt>
      <trkpt lat="44.13168" lon="0.61121">
        <ele>81</ele>
        <time>2025-08-10T09:12:19.696Z</time>
      </trkpt>
      <trkpt lat="44.13168" lon="0.61122">
        <ele>82</ele>
        <time>2025-08-10T09:12:20.696Z</time>
      </trkpt>
      <trkpt lat="44.13169" lon="0.61123">
        <ele>82</ele>
        <time>2025-08-10T09:12:21.696Z</time>
      </trkpt>
      <trkpt lat="44.13169" lon="0.61124">
        <ele>82</ele>
        <time>2025-08-10T09:12:22.696Z</time>
      </trkpt>
      <trkpt lat="44.1317" lon="0.61125">
        <ele>82</ele>
        <time>2025-08-10T09:12:23.696Z</time>
      </trkpt>
      <trkpt lat="44.13171" lon="0.61127">
        <ele>82</ele>
        <time>2025-08-10T09:12:24.696Z</time>
      </trkpt>
      <trkpt lat="44.13172" lon="0.61128">
        <ele>82</ele>
        <time>2025-08-10T09:12:25.696Z</time>
      </trkpt>
      <trkpt lat="44.13172" lon="0.61129">
        <ele>82</ele>
        <time>2025-08-10T09:12:26.696Z</time>
      </trkpt>
      <trkpt lat="44.13172" lon="0.6113">
        <ele>82</ele>
        <time>2025-08-10T09:12:27.696Z</time>
      </trkpt>
      <trkpt lat="44.13173" lon="0.61131">
        <ele>82</ele>
        <time>2025-08-10T09:12:28.696Z</time>
      </trkpt>
      <trkpt lat="44.13173" lon="0.61133">
        <ele>82</ele>
        <time>2025-08-10T09:12:29.696Z</time>
      </trkpt>
      <trkpt lat="44.13174" lon="0.61134">
        <ele>82</ele>
        <time>2025-08-10T09:12:30.696Z</time>
      </trkpt>
      <trkpt lat="44.13175" lon="0.61136">
        <ele>82</ele>
        <time>2025-08-10T09:12:31.696Z</time>
      </trkpt>
      <trkpt lat="44.13175" lon="0.61137">
        <ele>82</ele>
        <time>2025-08-10T09:12:32.696Z</time>
      </trkpt>
      <trkpt lat="44.13176" lon="0.61139">
        <ele>82</ele>
        <time>2025-08-10T09:12:33.696Z</time>
      </trkpt>
      <trkpt lat="44.13176" lon="0.6114">
        <ele>82</ele>
        <time>2025-08-10T09:12:34.696Z</time>
      </trkpt>
      <trkpt lat="44.13177" lon="0.61141">
        <ele>82</ele>
        <time>2025-08-10T09:12:35.696Z</time>
      </trkpt>
      <trkpt lat="44.13177" lon="0.61142">
        <ele>82</ele>
        <time>2025-08-10T09:12:36.696Z</time>
      </trkpt>
      <trkpt lat="44.13178" lon="0.61143">
        <ele>82</ele>
        <time>2025-08-10T09:12:37.696Z</time>
      </trkpt>
      <trkpt lat="44.13178" lon="0.61145">
        <ele>82</ele>
        <time>2025-08-10T09:12:38.696Z</time>
      </trkpt>
      <trkpt lat="44.13179" lon="0.61146">
        <ele>81</ele>
        <time>2025-08-10T09:12:39.696Z</time>
      </trkpt>
      <trkpt lat="44.13179" lon="0.61147">
        <ele>81</ele>
        <time>2025-08-10T09:12:40.696Z</time>
      </trkpt>
      <trkpt lat="44.13179" lon="0.61149">
        <ele>81</ele>
        <time>2025-08-10T09:12:41.696Z</time>
      </trkpt>
      <trkpt lat="44.1318" lon="0.6115">
        <ele>81</ele>
        <time>2025-08-10T09:12:42.696Z</time>
      </trkpt>
      <trkpt lat="44.1318" lon="0.61152">
        <ele>80</ele>
        <time>2025-08-10T09:12:43.696Z</time>
      </trkpt>
      <trkpt lat="44.13181" lon="0.61153">
        <ele>80</ele>
        <time>2025-08-10T09:12:44.696Z</time>
      </trkpt>
      <trkpt lat="44.13182" lon="0.61154">
        <ele>80</ele>
        <time>2025-08-10T09:12:45.696Z</time>
      </trkpt>
      <trkpt lat="44.13182" lon="0.61156">
        <ele>80</ele>
        <time>2025-08-10T09:12:46.696Z</time>
      </trkpt>
      <trkpt lat="44.13183" lon="0.61157">
        <ele>80</ele>
        <time>2025-08-10T09:12:47.696Z</time>
      </trkpt>
      <trkpt lat="44.13183" lon="0.61158">
        <ele>79</ele>
        <time>2025-08-10T09:12:48.696Z</time>
      </trkpt>
      <trkpt lat="44.13184" lon="0.61159">
        <ele>79</ele>
        <time>2025-08-10T09:12:49.697Z</time>
      </trkpt>
      <trkpt lat="44.13185" lon="0.6116">
        <ele>79</ele>
        <time>2025-08-10T09:12:50.696Z</time>
      </trkpt>
      <trkpt lat="44.13185" lon="0.61162">
        <ele>80</ele>
        <time>2025-08-10T09:12:51.696Z</time>
      </trkpt>
      <trkpt lat="44.13186" lon="0.61163">
        <ele>80</ele>
        <time>2025-08-10T09:12:52.696Z</time>
      </trkpt>
      <trkpt lat="44.13186" lon="0.61164">
        <ele>80</ele>
        <time>2025-08-10T09:12:53.696Z</time>
      </trkpt>
      <trkpt lat="44.13187" lon="0.61165">
        <ele>80</ele>
        <time>2025-08-10T09:12:54.696Z</time>
      </trkpt>
      <trkpt lat="44.13188" lon="0.61166">
        <ele>80</ele>
        <time>2025-08-10T09:12:55.696Z</time>
      </trkpt>
      <trkpt lat="44.13189" lon="0.61168">
        <ele>80</ele>
        <time>2025-08-10T09:12:56.696Z</time>
      </trkpt>
      <trkpt lat="44.1319" lon="0.61169">
        <ele>81</ele>
        <time>2025-08-10T09:12:57.696Z</time>
      </trkpt>
      <trkpt lat="44.13191" lon="0.6117">
        <ele>81</ele>
        <time>2025-08-10T09:12:58.696Z</time>
      </trkpt>
      <trkpt lat="44.13191" lon="0.61171">
        <ele>81</ele>
        <time>2025-08-10T09:12:59.696Z</time>
      </trkpt>
      <trkpt lat="44.13192" lon="0.61173">
        <ele>81</ele>
        <time>2025-08-10T09:13:00.696Z</time>
      </trkpt>
      <trkpt lat="44.13193" lon="0.61174">
        <ele>81</ele>
        <time>2025-08-10T09:13:01.696Z</time>
      </trkpt>
      <trkpt lat="44.13194" lon="0.61175">
        <ele>82</ele>
        <time>2025-08-10T09:13:02.696Z</time>
      </trkpt>
      <trkpt lat="44.13194" lon="0.61176">
        <ele>82</ele>
        <time>2025-08-10T09:13:03.696Z</time>
      </trkpt>
      <trkpt lat="44.13195" lon="0.61177">
        <ele>82</ele>
        <time>2025-08-10T09:13:04.696Z</time>
      </trkpt>
      <trkpt lat="44.13195" lon="0.61179">
        <ele>81</ele>
        <time>2025-08-10T09:13:05.696Z</time>
      </trkpt>
      <trkpt lat="44.13196" lon="0.6118">
        <ele>81</ele>
        <time>2025-08-10T09:13:06.696Z</time>
      </trkpt>
      <trkpt lat="44.13197" lon="0.61181">
        <ele>81</ele>
        <time>2025-08-10T09:13:07.696Z</time>
      </trkpt>
      <trkpt lat="44.13198" lon="0.61183">
        <ele>81</ele>
        <time>2025-08-10T09:13:08.696Z</time>
      </trkpt>
      <trkpt lat="44.13198" lon="0.61184">
        <ele>81</ele>
        <time>2025-08-10T09:13:09.696Z</time>
      </trkpt>
      <trkpt lat="44.13199" lon="0.61185">
        <ele>82</ele>
        <time>2025-08-10T09:13:10.696Z</time>
      </trkpt>
      <trkpt lat="44.132" lon="0.61186">
        <ele>82</ele>
        <time>2025-08-10T09:13:11.696Z</time>
      </trkpt>
      <trkpt lat="44.132" lon="0.61188">
        <ele>82</ele>
        <time>2025-08-10T09:13:12.696Z</time>
      </trkpt>
      <trkpt lat="44.13201" lon="0.61189">
        <ele>82</ele>
        <time>2025-08-10T09:13:13.696Z</time>
      </trkpt>
      <trkpt lat="44.13202" lon="0.6119">
        <ele>82</ele>
        <time>2025-08-10T09:13:14.696Z</time>
      </trkpt>
      <trkpt lat="44.13203" lon="0.61191">
        <ele>82</ele>
        <time>2025-08-10T09:13:15.696Z</time>
      </trkpt>
      <trkpt lat="44.13204" lon="0.61193">
        <ele>82</ele>
        <time>2025-08-10T09:13:16.696Z</time>
      </trkpt>
      <trkpt lat="44.13204" lon="0.61194">
        <ele>82</ele>
        <time>2025-08-10T09:13:17.696Z</time>
      </trkpt>
      <trkpt lat="44.13205" lon="0.61195">
        <ele>82</ele>
        <time>2025-08-10T09:13:18.696Z</time>
      </trkpt>
      <trkpt lat="44.13206" lon="0.61197">
        <ele>82</ele>
        <time>2025-08-10T09:13:19.696Z</time>
      </trkpt>
      <trkpt lat="44.13207" lon="0.61198">
        <ele>82</ele>
        <time>2025-08-10T09:13:20.696Z</time>
      </trkpt>
      <trkpt lat="44.13207" lon="0.61199">
        <ele>82</ele>
        <time>2025-08-10T09:13:21.696Z</time>
      </trkpt>
      <trkpt lat="44.13208" lon="0.61201">
        <ele>82</ele>
        <time>2025-08-10T09:13:22.696Z</time>
      </trkpt>
      <trkpt lat="44.13209" lon="0.61202">
        <ele>81</ele>
        <time>2025-08-10T09:13:23.696Z</time>
      </trkpt>
      <trkpt lat="44.1321" lon="0.61203">
        <ele>81</ele>
        <time>2025-08-10T09:13:24.696Z</time>
      </trkpt>
      <trkpt lat="44.13211" lon="0.61205">
        <ele>81</ele>
        <time>2025-08-10T09:13:25.696Z</time>
      </trkpt>
      <trkpt lat="44.13212" lon="0.61206">
        <ele>81</ele>
        <time>2025-08-10T09:13:26.696Z</time>
      </trkpt>
      <trkpt lat="44.13213" lon="0.61208">
        <ele>81</ele>
        <time>2025-08-10T09:13:27.696Z</time>
      </trkpt>
      <trkpt lat="44.13214" lon="0.61209">
        <ele>81</ele>
        <time>2025-08-10T09:13:28.696Z</time>
      </trkpt>
      <trkpt lat="44.13215" lon="0.6121">
        <ele>81</ele>
        <time>2025-08-10T09:13:29.696Z</time>
      </trkpt>
      <trkpt lat="44.13215" lon="0.6121">
        <ele>81</ele>
        <time>2025-08-10T09:13:30.696Z</time>
      </trkpt>
      <trkpt lat="44.13216" lon="0.61212">
        <ele>81</ele>
        <time>2025-08-10T09:13:31.696Z</time>
      </trkpt>
      <trkpt lat="44.13217" lon="0.61213">
        <ele>81</ele>
        <time>2025-08-10T09:13:32.696Z</time>
      </trkpt>
      <trkpt lat="44.13217" lon="0.61214">
        <ele>81</ele>
        <time>2025-08-10T09:13:33.696Z</time>
      </trkpt>
      <trkpt lat="44.13218" lon="0.61216">
        <ele>81</ele>
        <time>2025-08-10T09:13:34.696Z</time>
      </trkpt>
      <trkpt lat="44.13218" lon="0.61217">
        <ele>82</ele>
        <time>2025-08-10T09:13:35.696Z</time>
      </trkpt>
      <trkpt lat="44.1322" lon="0.61218">
        <ele>82</ele>
        <time>2025-08-10T09:13:36.696Z</time>
      </trkpt>
      <trkpt lat="44.13221" lon="0.61218">
        <ele>83</ele>
        <time>2025-08-10T09:13:37.696Z</time>
      </trkpt>
      <trkpt lat="44.13222" lon="0.61219">
        <ele>83</ele>
        <time>2025-08-10T09:13:38.696Z</time>
      </trkpt>
      <trkpt lat="44.13223" lon="0.6122">
        <ele>83</ele>
        <time>2025-08-10T09:13:39.696Z</time>
      </trkpt>
      <trkpt lat="44.13224" lon="0.61222">
        <ele>83</ele>
        <time>2025-08-10T09:13:40.696Z</time>
      </trkpt>
      <trkpt lat="44.13225" lon="0.61223">
        <ele>83</ele>
        <time>2025-08-10T09:13:41.696Z</time>
      </trkpt>
      <trkpt lat="44.13226" lon="0.61224">
        <ele>83</ele>
        <time>2025-08-10T09:13:42.696Z</time>
      </trkpt>
      <trkpt lat="44.13227" lon="0.61225">
        <ele>83</ele>
        <time>2025-08-10T09:13:43.696Z</time>
      </trkpt>
      <trkpt lat="44.13228" lon="0.61226">
        <ele>83</ele>
        <time>2025-08-10T09:13:44.696Z</time>
      </trkpt>
      <trkpt lat="44.13228" lon="0.61227">
        <ele>83</ele>
        <time>2025-08-10T09:13:45.696Z</time>
      </trkpt>
      <trkpt lat="44.13229" lon="0.61228">
        <ele>83</ele>
        <time>2025-08-10T09:13:46.696Z</time>
      </trkpt>
      <trkpt lat="44.13229" lon="0.61228">
        <ele>83</ele>
        <time>2025-08-10T09:13:47.696Z</time>
      </trkpt>
      <trkpt lat="44.1323" lon="0.61229">
        <ele>83</ele>
        <time>2025-08-10T09:13:48.696Z</time>
      </trkpt>
      <trkpt lat="44.13231" lon="0.6123">
        <ele>83</ele>
        <time>2025-08-10T09:13:49.696Z</time>
      </trkpt>
      <trkpt lat="44.13232" lon="0.61231">
        <ele>83</ele>
        <time>2025-08-10T09:13:50.696Z</time>
      </trkpt>
      <trkpt lat="44.13232" lon="0.61232">
        <ele>83</ele>
        <time>2025-08-10T09:13:51.696Z</time>
      </trkpt>
      <trkpt lat="44.13233" lon="0.61233">
        <ele>83</ele>
        <time>2025-08-10T09:13:52.696Z</time>
      </trkpt>
      <trkpt lat="44.13234" lon="0.61234">
        <ele>84</ele>
        <time>2025-08-10T09:13:53.696Z</time>
      </trkpt>
      <trkpt lat="44.13235" lon="0.61234">
        <ele>84</ele>
        <time>2025-08-10T09:13:54.696Z</time>
      </trkpt>
      <trkpt lat="44.13236" lon="0.61235">
        <ele>84</ele>
        <time>2025-08-10T09:13:55.696Z</time>
      </trkpt>
      <trkpt lat="44.13237" lon="0.61236">
        <ele>85</ele>
        <time>2025-08-10T09:13:56.696Z</time>
      </trkpt>
      <trkpt lat="44.13239" lon="0.61237">
        <ele>85</ele>
        <time>2025-08-10T09:13:57.696Z</time>
      </trkpt>
      <trkpt lat="44.13239" lon="0.61237">
        <ele>86</ele>
        <time>2025-08-10T09:13:58.696Z</time>
      </trkpt>
      <trkpt lat="44.1324" lon="0.61238">
        <ele>86</ele>
        <time>2025-08-10T09:13:59.696Z</time>
      </trkpt>
      <trkpt lat="44.13242" lon="0.61238">
        <ele>87</ele>
        <time>2025-08-10T09:14:00.696Z</time>
      </trkpt>
      <trkpt lat="44.13243" lon="0.61239">
        <ele>88</ele>
        <time>2025-08-10T09:14:01.696Z</time>
      </trkpt>
      <trkpt lat="44.13245" lon="0.61239">
        <ele>88</ele>
        <time>2025-08-10T09:14:02.696Z</time>
      </trkpt>
      <trkpt lat="44.13246" lon="0.6124">
        <ele>89</ele>
        <time>2025-08-10T09:14:03.696Z</time>
      </trkpt>
      <trkpt lat="44.13249" lon="0.61241">
        <ele>90</ele>
        <time>2025-08-10T09:14:04.696Z</time>
      </trkpt>
      <trkpt lat="44.1325" lon="0.61241">
        <ele>90</ele>
        <time>2025-08-10T09:14:05.696Z</time>
      </trkpt>
      <trkpt lat="44.13251" lon="0.61241">
        <ele>91</ele>
        <time>2025-08-10T09:14:06.696Z</time>
      </trkpt>
      <trkpt lat="44.13252" lon="0.61241">
        <ele>91</ele>
        <time>2025-08-10T09:14:07.696Z</time>
      </trkpt>
      <trkpt lat="44.13252" lon="0.61241">
        <ele>91</ele>
        <time>2025-08-10T09:14:08.696Z</time>
      </trkpt>
      <trkpt lat="44.13253" lon="0.61242">
        <ele>92</ele>
        <time>2025-08-10T09:14:09.696Z</time>
      </trkpt>
      <trkpt lat="44.13254" lon="0.61243">
        <ele>92</ele>
        <time>2025-08-10T09:14:10.696Z</time>
      </trkpt>
      <trkpt lat="44.13256" lon="0.61243">
        <ele>92</ele>
        <time>2025-08-10T09:14:11.696Z</time>
      </trkpt>
      <trkpt lat="44.13257" lon="0.61244">
        <ele>92</ele>
        <time>2025-08-10T09:14:12.696Z</time>
      </trkpt>
      <trkpt lat="44.13258" lon="0.61244">
        <ele>92</ele>
        <time>2025-08-10T09:14:13.696Z</time>
      </trkpt>
      <trkpt lat="44.13259" lon="0.61246">
        <ele>91</ele>
        <time>2025-08-10T09:14:14.696Z</time>
      </trkpt>
      <trkpt lat="44.1326" lon="0.61247">
        <ele>91</ele>
        <time>2025-08-10T09:14:15.696Z</time>
      </trkpt>
      <trkpt lat="44.13261" lon="0.61248">
        <ele>91</ele>
        <time>2025-08-10T09:14:16.696Z</time>
      </trkpt>
      <trkpt lat="44.13262" lon="0.61249">
        <ele>92</ele>
        <time>2025-08-10T09:14:17.696Z</time>
      </trkpt>
      <trkpt lat="44.13263" lon="0.6125">
        <ele>92</ele>
        <time>2025-08-10T09:14:18.696Z</time>
      </trkpt>
      <trkpt lat="44.13265" lon="0.61251">
        <ele>92</ele>
        <time>2025-08-10T09:14:19.696Z</time>
      </trkpt>
      <trkpt lat="44.13266" lon="0.61252">
        <ele>93</ele>
        <time>2025-08-10T09:14:20.696Z</time>
      </trkpt>
      <trkpt lat="44.13267" lon="0.61253">
        <ele>93</ele>
        <time>2025-08-10T09:14:21.696Z</time>
      </trkpt>
      <trkpt lat="44.13268" lon="0.61253">
        <ele>93</ele>
        <time>2025-08-10T09:14:22.696Z</time>
      </trkpt>
      <trkpt lat="44.13269" lon="0.61254">
        <ele>93</ele>
        <time>2025-08-10T09:14:23.696Z</time>
      </trkpt>
      <trkpt lat="44.1327" lon="0.61255">
        <ele>93</ele>
        <time>2025-08-10T09:14:24.696Z</time>
      </trkpt>
      <trkpt lat="44.13271" lon="0.61256">
        <ele>93</ele>
        <time>2025-08-10T09:14:25.696Z</time>
      </trkpt>
      <trkpt lat="44.13272" lon="0.61257">
        <ele>93</ele>
        <time>2025-08-10T09:14:26.696Z</time>
      </trkpt>
      <trkpt lat="44.13272" lon="0.61258">
        <ele>93</ele>
        <time>2025-08-10T09:14:27.696Z</time>
      </trkpt>
      <trkpt lat="44.13273" lon="0.61259">
        <ele>93</ele>
        <time>2025-08-10T09:14:28.696Z</time>
      </trkpt>
      <trkpt lat="44.13274" lon="0.6126">
        <ele>93</ele>
        <time>2025-08-10T09:14:29.696Z</time>
      </trkpt>
      <trkpt lat="44.13275" lon="0.61261">
        <ele>93</ele>
        <time>2025-08-10T09:14:30.696Z</time>
      </trkpt>
      <trkpt lat="44.13276" lon="0.61261">
        <ele>93</ele>
        <time>2025-08-10T09:14:31.696Z</time>
      </trkpt>
      <trkpt lat="44.13276" lon="0.61261">
        <ele>93</ele>
        <time>2025-08-10T09:14:32.696Z</time>
      </trkpt>
      <trkpt lat="44.13278" lon="0.61262">
        <ele>93</ele>
        <time>2025-08-10T09:14:33.696Z</time>
      </trkpt>
      <trkpt lat="44.13279" lon="0.61264">
        <ele>93</ele>
        <time>2025-08-10T09:14:34.696Z</time>
      </trkpt>
      <trkpt lat="44.1328" lon="0.61265">
        <ele>93</ele>
        <time>2025-08-10T09:14:35.696Z</time>
      </trkpt>
      <trkpt lat="44.13281" lon="0.61265">
        <ele>93</ele>
        <time>2025-08-10T09:14:36.696Z</time>
      </trkpt>
      <trkpt lat="44.13282" lon="0.61266">
        <ele>92</ele>
        <time>2025-08-10T09:14:37.696Z</time>
      </trkpt>
      <trkpt lat="44.13284" lon="0.61267">
        <ele>93</ele>
        <time>2025-08-10T09:14:38.696Z</time>
      </trkpt>
      <trkpt lat="44.13285" lon="0.61268">
        <ele>93</ele>
        <time>2025-08-10T09:14:39.696Z</time>
      </trkpt>
      <trkpt lat="44.13286" lon="0.61268">
        <ele>93</ele>
        <time>2025-08-10T09:14:40.696Z</time>
      </trkpt>
      <trkpt lat="44.13287" lon="0.61269">
        <ele>93</ele>
        <time>2025-08-10T09:14:41.697Z</time>
      </trkpt>
      <trkpt lat="44.13288" lon="0.6127">
        <ele>93</ele>
        <time>2025-08-10T09:14:42.696Z</time>
      </trkpt>
      <trkpt lat="44.13289" lon="0.61271">
        <ele>93</ele>
        <time>2025-08-10T09:14:43.696Z</time>
      </trkpt>
      <trkpt lat="44.13289" lon="0.61271">
        <ele>93</ele>
        <time>2025-08-10T09:14:44.696Z</time>
      </trkpt>
      <trkpt lat="44.1329" lon="0.61272">
        <ele>92</ele>
        <time>2025-08-10T09:14:45.696Z</time>
      </trkpt>
      <trkpt lat="44.13292" lon="0.61273">
        <ele>92</ele>
        <time>2025-08-10T09:14:46.696Z</time>
      </trkpt>
      <trkpt lat="44.13292" lon="0.61273">
        <ele>92</ele>
        <time>2025-08-10T09:14:47.696Z</time>
      </trkpt>
      <trkpt lat="44.13293" lon="0.61274">
        <ele>92</ele>
        <time>2025-08-10T09:14:48.696Z</time>
      </trkpt>
      <trkpt lat="44.13294" lon="0.61275">
        <ele>91</ele>
        <time>2025-08-10T09:14:49.696Z</time>
      </trkpt>
      <trkpt lat="44.13295" lon="0.61275">
        <ele>91</ele>
        <time>2025-08-10T09:14:50.696Z</time>
      </trkpt>
      <trkpt lat="44.13296" lon="0.61276">
        <ele>91</ele>
        <time>2025-08-10T09:14:51.696Z</time>
      </trkpt>
      <trkpt lat="44.13297" lon="0.61277">
        <ele>90</ele>
        <time>2025-08-10T09:14:52.696Z</time>
      </trkpt>
      <trkpt lat="44.13298" lon="0.61278">
        <ele>90</ele>
        <time>2025-08-10T09:14:53.696Z</time>
      </trkpt>
      <trkpt lat="44.133" lon="0.61279">
        <ele>90</ele>
        <time>2025-08-10T09:14:54.696Z</time>
      </trkpt>
      <trkpt lat="44.13301" lon="0.61279">
        <ele>91</ele>
        <time>2025-08-10T09:14:55.696Z</time>
      </trkpt>
      <trkpt lat="44.13302" lon="0.6128">
        <ele>91</ele>
        <time>2025-08-10T09:14:56.696Z</time>
      </trkpt>
      <trkpt lat="44.13303" lon="0.6128">
        <ele>91</ele>
        <time>2025-08-10T09:14:57.696Z</time>
      </trkpt>
      <trkpt lat="44.13304" lon="0.61281">
        <ele>91</ele>
        <time>2025-08-10T09:14:58.696Z</time>
      </trkpt>
      <trkpt lat="44.13305" lon="0.61282">
        <ele>91</ele>
        <time>2025-08-10T09:14:59.696Z</time>
      </trkpt>
      <trkpt lat="44.13305" lon="0.61283">
        <ele>91</ele>
        <time>2025-08-10T09:15:00.696Z</time>
      </trkpt>
      <trkpt lat="44.13306" lon="0.61283">
        <ele>91</ele>
        <time>2025-08-10T09:15:01.696Z</time>
      </trkpt>
      <trkpt lat="44.13307" lon="0.61285">
        <ele>91</ele>
        <time>2025-08-10T09:15:02.696Z</time>
      </trkpt>
      <trkpt lat="44.13308" lon="0.61286">
        <ele>91</ele>
        <time>2025-08-10T09:15:03.696Z</time>
      </trkpt>
      <trkpt lat="44.13309" lon="0.61286">
        <ele>91</ele>
        <time>2025-08-10T09:15:04.696Z</time>
      </trkpt>
      <trkpt lat="44.13309" lon="0.61287">
        <ele>91</ele>
        <time>2025-08-10T09:15:05.696Z</time>
      </trkpt>
      <trkpt lat="44.1331" lon="0.61288">
        <ele>90</ele>
        <time>2025-08-10T09:15:06.696Z</time>
      </trkpt>
      <trkpt lat="44.13311" lon="0.61289">
        <ele>90</ele>
        <time>2025-08-10T09:15:07.696Z</time>
      </trkpt>
      <trkpt lat="44.13312" lon="0.6129">
        <ele>90</ele>
        <time>2025-08-10T09:15:08.696Z</time>
      </trkpt>
      <trkpt lat="44.13313" lon="0.61291">
        <ele>89</ele>
        <time>2025-08-10T09:15:09.696Z</time>
      </trkpt>
      <trkpt lat="44.13314" lon="0.61292">
        <ele>89</ele>
        <time>2025-08-10T09:15:10.696Z</time>
      </trkpt>
      <trkpt lat="44.13315" lon="0.61293">
        <ele>89</ele>
        <time>2025-08-10T09:15:11.696Z</time>
      </trkpt>
      <trkpt lat="44.13316" lon="0.61294">
        <ele>89</ele>
        <time>2025-08-10T09:15:12.696Z</time>
      </trkpt>
      <trkpt lat="44.13317" lon="0.61295">
        <ele>89</ele>
        <time>2025-08-10T09:15:13.696Z</time>
      </trkpt>
      <trkpt lat="44.13318" lon="0.61296">
        <ele>89</ele>
        <time>2025-08-10T09:15:14.696Z</time>
      </trkpt>
      <trkpt lat="44.13319" lon="0.61297">
        <ele>90</ele>
        <time>2025-08-10T09:15:15.696Z</time>
      </trkpt>
      <trkpt lat="44.1332" lon="0.61298">
        <ele>90</ele>
        <time>2025-08-10T09:15:16.696Z</time>
      </trkpt>
      <trkpt lat="44.13321" lon="0.61299">
        <ele>90</ele>
        <time>2025-08-10T09:15:17.696Z</time>
      </trkpt>
      <trkpt lat="44.13321" lon="0.61299">
        <ele>90</ele>
        <time>2025-08-10T09:15:18.696Z</time>
      </trkpt>
      <trkpt lat="44.13322" lon="0.613">
        <ele>90</ele>
        <time>2025-08-10T09:15:19.696Z</time>
      </trkpt>
      <trkpt lat="44.13322" lon="0.61301">
        <ele>90</ele>
        <time>2025-08-10T09:15:20.696Z</time>
      </trkpt>
      <trkpt lat="44.13323" lon="0.61302">
        <ele>90</ele>
        <time>2025-08-10T09:15:21.696Z</time>
      </trkpt>
      <trkpt lat="44.13324" lon="0.61304">
        <ele>90</ele>
        <time>2025-08-10T09:15:22.696Z</time>
      </trkpt>
      <trkpt lat="44.13325" lon="0.61305">
        <ele>90</ele>
        <time>2025-08-10T09:15:23.696Z</time>
      </trkpt>
      <trkpt lat="44.13326" lon="0.61307">
        <ele>90</ele>
        <time>2025-08-10T09:15:24.696Z</time>
      </trkpt>
      <trkpt lat="44.13327" lon="0.61308">
        <ele>90</ele>
        <time>2025-08-10T09:15:25.696Z</time>
      </trkpt>
      <trkpt lat="44.13329" lon="0.61309">
        <ele>90</ele>
        <time>2025-08-10T09:15:26.696Z</time>
      </trkpt>
      <trkpt lat="44.1333" lon="0.6131">
        <ele>91</ele>
        <time>2025-08-10T09:15:27.696Z</time>
      </trkpt>
      <trkpt lat="44.13331" lon="0.61311">
        <ele>91</ele>
        <time>2025-08-10T09:15:28.696Z</time>
      </trkpt>
      <trkpt lat="44.13332" lon="0.61312">
        <ele>91</ele>
        <time>2025-08-10T09:15:29.696Z</time>
      </trkpt>
      <trkpt lat="44.13334" lon="0.61314">
        <ele>91</ele>
        <time>2025-08-10T09:15:30.696Z</time>
      </trkpt>
      <trkpt lat="44.13334" lon="0.61315">
        <ele>91</ele>
        <time>2025-08-10T09:15:31.696Z</time>
      </trkpt>
      <trkpt lat="44.13335" lon="0.61317">
        <ele>92</ele>
        <time>2025-08-10T09:15:32.696Z</time>
      </trkpt>
      <trkpt lat="44.13335" lon="0.61318">
        <ele>92</ele>
        <time>2025-08-10T09:15:33.696Z</time>
      </trkpt>
      <trkpt lat="44.13335" lon="0.6132">
        <ele>91</ele>
        <time>2025-08-10T09:15:34.696Z</time>
      </trkpt>
      <trkpt lat="44.13335" lon="0.61321">
        <ele>91</ele>
        <time>2025-08-10T09:15:35.696Z</time>
      </trkpt>
      <trkpt lat="44.13335" lon="0.61322">
        <ele>90</ele>
        <time>2025-08-10T09:15:36.696Z</time>
      </trkpt>
      <trkpt lat="44.13336" lon="0.61323">
        <ele>90</ele>
        <time>2025-08-10T09:15:37.696Z</time>
      </trkpt>
      <trkpt lat="44.13336" lon="0.61324">
        <ele>90</ele>
        <time>2025-08-10T09:15:38.696Z</time>
      </trkpt>
      <trkpt lat="44.13336" lon="0.61326">
        <ele>89</ele>
        <time>2025-08-10T09:15:39.696Z</time>
      </trkpt>
      <trkpt lat="44.13337" lon="0.61327">
        <ele>89</ele>
        <time>2025-08-10T09:15:40.696Z</time>
      </trkpt>
      <trkpt lat="44.13337" lon="0.61329">
        <ele>89</ele>
        <time>2025-08-10T09:15:41.696Z</time>
      </trkpt>
      <trkpt lat="44.13337" lon="0.61331">
        <ele>88</ele>
        <time>2025-08-10T09:15:42.696Z</time>
      </trkpt>
      <trkpt lat="44.13337" lon="0.61332">
        <ele>87</ele>
        <time>2025-08-10T09:15:43.696Z</time>
      </trkpt>
      <trkpt lat="44.13338" lon="0.61334">
        <ele>87</ele>
        <time>2025-08-10T09:15:44.696Z</time>
      </trkpt>
      <trkpt lat="44.13337" lon="0.61335">
        <ele>86</ele>
        <time>2025-08-10T09:15:45.696Z</time>
      </trkpt>
      <trkpt lat="44.13337" lon="0.61336">
        <ele>86</ele>
        <time>2025-08-10T09:15:46.696Z</time>
      </trkpt>
      <trkpt lat="44.13337" lon="0.61338">
        <ele>85</ele>
        <time>2025-08-10T09:15:47.696Z</time>
      </trkpt>
      <trkpt lat="44.13338" lon="0.61339">
        <ele>84</ele>
        <time>2025-08-10T09:15:48.696Z</time>
      </trkpt>
      <trkpt lat="44.13338" lon="0.61341">
        <ele>84</ele>
        <time>2025-08-10T09:15:49.696Z</time>
      </trkpt>
      <trkpt lat="44.13338" lon="0.61343">
        <ele>83</ele>
        <time>2025-08-10T09:15:50.696Z</time>
      </trkpt>
      <trkpt lat="44.13339" lon="0.61344">
        <ele>83</ele>
        <time>2025-08-10T09:15:51.696Z</time>
      </trkpt>
      <trkpt lat="44.13339" lon="0.61346">
        <ele>83</ele>
        <time>2025-08-10T09:15:52.696Z</time>
      </trkpt>
      <trkpt lat="44.1334" lon="0.61348">
        <ele>83</ele>
        <time>2025-08-10T09:15:53.696Z</time>
      </trkpt>
      <trkpt lat="44.1334" lon="0.61349">
        <ele>83</ele>
        <time>2025-08-10T09:15:54.696Z</time>
      </trkpt>
      <trkpt lat="44.1334" lon="0.6135">
        <ele>82</ele>
        <time>2025-08-10T09:15:55.696Z</time>
      </trkpt>
      <trkpt lat="44.1334" lon="0.61352">
        <ele>82</ele>
        <time>2025-08-10T09:15:56.696Z</time>
      </trkpt>
      <trkpt lat="44.13341" lon="0.61353">
        <ele>82</ele>
        <time>2025-08-10T09:15:57.696Z</time>
      </trkpt>
      <trkpt lat="44.13342" lon="0.61355">
        <ele>82</ele>
        <time>2025-08-10T09:15:58.696Z</time>
      </trkpt>
      <trkpt lat="44.13341" lon="0.61356">
        <ele>82</ele>
        <time>2025-08-10T09:15:59.696Z</time>
      </trkpt>
      <trkpt lat="44.13342" lon="0.61358">
        <ele>82</ele>
        <time>2025-08-10T09:16:00.696Z</time>
      </trkpt>
      <trkpt lat="44.13342" lon="0.6136">
        <ele>81</ele>
        <time>2025-08-10T09:16:01.696Z</time>
      </trkpt>
      <trkpt lat="44.13342" lon="0.61361">
        <ele>81</ele>
        <time>2025-08-10T09:16:02.696Z</time>
      </trkpt>
      <trkpt lat="44.13342" lon="0.61362">
        <ele>81</ele>
        <time>2025-08-10T09:16:03.696Z</time>
      </trkpt>
      <trkpt lat="44.13341" lon="0.61364">
        <ele>80</ele>
        <time>2025-08-10T09:16:04.696Z</time>
      </trkpt>
      <trkpt lat="44.13341" lon="0.61365">
        <ele>80</ele>
        <time>2025-08-10T09:16:05.696Z</time>
      </trkpt>
      <trkpt lat="44.1334" lon="0.61367">
        <ele>79</ele>
        <time>2025-08-10T09:16:06.696Z</time>
      </trkpt>
      <trkpt lat="44.13339" lon="0.61368">
        <ele>79</ele>
        <time>2025-08-10T09:16:07.696Z</time>
      </trkpt>
      <trkpt lat="44.13339" lon="0.6137">
        <ele>78</ele>
        <time>2025-08-10T09:16:08.696Z</time>
      </trkpt>
      <trkpt lat="44.13338" lon="0.61372">
        <ele>77</ele>
        <time>2025-08-10T09:16:09.696Z</time>
      </trkpt>
      <trkpt lat="44.13337" lon="0.61373">
        <ele>77</ele>
        <time>2025-08-10T09:16:10.696Z</time>
      </trkpt>
      <trkpt lat="44.13336" lon="0.61374">
        <ele>77</ele>
        <time>2025-08-10T09:16:11.696Z</time>
      </trkpt>
      <trkpt lat="44.13335" lon="0.61374">
        <ele>76</ele>
        <time>2025-08-10T09:16:12.696Z</time>
      </trkpt>
      <trkpt lat="44.13334" lon="0.61375">
        <ele>76</ele>
        <time>2025-08-10T09:16:13.696Z</time>
      </trkpt>
      <trkpt lat="44.13333" lon="0.61377">
        <ele>76</ele>
        <time>2025-08-10T09:16:14.696Z</time>
      </trkpt>
      <trkpt lat="44.13332" lon="0.61378">
        <ele>76</ele>
        <time>2025-08-10T09:16:15.696Z</time>
      </trkpt>
      <trkpt lat="44.13331" lon="0.61379">
        <ele>76</ele>
        <time>2025-08-10T09:16:16.696Z</time>
      </trkpt>
      <trkpt lat="44.1333" lon="0.6138">
        <ele>76</ele>
        <time>2025-08-10T09:16:17.696Z</time>
      </trkpt>
      <trkpt lat="44.13329" lon="0.6138">
        <ele>76</ele>
        <time>2025-08-10T09:16:18.696Z</time>
      </trkpt>
      <trkpt lat="44.13327" lon="0.6138">
        <ele>76</ele>
        <time>2025-08-10T09:16:19.696Z</time>
      </trkpt>
      <trkpt lat="44.13326" lon="0.61382">
        <ele>76</ele>
        <time>2025-08-10T09:16:20.696Z</time>
      </trkpt>
      <trkpt lat="44.13325" lon="0.61385">
        <ele>76</ele>
        <time>2025-08-10T09:16:21.696Z</time>
      </trkpt>
      <trkpt lat="44.13324" lon="0.61386">
        <ele>77</ele>
        <time>2025-08-10T09:16:22.696Z</time>
      </trkpt>
      <trkpt lat="44.13324" lon="0.61387">
        <ele>77</ele>
        <time>2025-08-10T09:16:23.696Z</time>
      </trkpt>
      <trkpt lat="44.13323" lon="0.61388">
        <ele>77</ele>
        <time>2025-08-10T09:16:24.696Z</time>
      </trkpt>
      <trkpt lat="44.13322" lon="0.61388">
        <ele>78</ele>
        <time>2025-08-10T09:16:25.696Z</time>
      </trkpt>
      <trkpt lat="44.13321" lon="0.61389">
        <ele>78</ele>
        <time>2025-08-10T09:16:26.696Z</time>
      </trkpt>
      <trkpt lat="44.13319" lon="0.6139">
        <ele>78</ele>
        <time>2025-08-10T09:16:27.696Z</time>
      </trkpt>
      <trkpt lat="44.13319" lon="0.61392">
        <ele>78</ele>
        <time>2025-08-10T09:16:28.696Z</time>
      </trkpt>
      <trkpt lat="44.13318" lon="0.61393">
        <ele>78</ele>
        <time>2025-08-10T09:16:29.696Z</time>
      </trkpt>
      <trkpt lat="44.13316" lon="0.61394">
        <ele>78</ele>
        <time>2025-08-10T09:16:30.696Z</time>
      </trkpt>
      <trkpt lat="44.13315" lon="0.61395">
        <ele>78</ele>
        <time>2025-08-10T09:16:31.696Z</time>
      </trkpt>
      <trkpt lat="44.13315" lon="0.61396">
        <ele>78</ele>
        <time>2025-08-10T09:16:32.696Z</time>
      </trkpt>
      <trkpt lat="44.13314" lon="0.61397">
        <ele>78</ele>
        <time>2025-08-10T09:16:33.696Z</time>
      </trkpt>
      <trkpt lat="44.13313" lon="0.61399">
        <ele>78</ele>
        <time>2025-08-10T09:16:34.696Z</time>
      </trkpt>
      <trkpt lat="44.13312" lon="0.614">
        <ele>78</ele>
        <time>2025-08-10T09:16:35.696Z</time>
      </trkpt>
      <trkpt lat="44.13311" lon="0.61401">
        <ele>78</ele>
        <time>2025-08-10T09:16:36.696Z</time>
      </trkpt>
      <trkpt lat="44.1331" lon="0.61403">
        <ele>78</ele>
        <time>2025-08-10T09:16:37.696Z</time>
      </trkpt>
      <trkpt lat="44.13309" lon="0.61404">
        <ele>77</ele>
        <time>2025-08-10T09:16:38.696Z</time>
      </trkpt>
      <trkpt lat="44.13308" lon="0.61405">
        <ele>77</ele>
        <time>2025-08-10T09:16:39.696Z</time>
      </trkpt>
      <trkpt lat="44.13308" lon="0.61407">
        <ele>77</ele>
        <time>2025-08-10T09:16:40.696Z</time>
      </trkpt>
      <trkpt lat="44.13307" lon="0.61408">
        <ele>76</ele>
        <time>2025-08-10T09:16:41.696Z</time>
      </trkpt>
      <trkpt lat="44.13306" lon="0.61409">
        <ele>76</ele>
        <time>2025-08-10T09:16:42.696Z</time>
      </trkpt>
      <trkpt lat="44.13306" lon="0.61411">
        <ele>76</ele>
        <time>2025-08-10T09:16:43.696Z</time>
      </trkpt>
      <trkpt lat="44.13306" lon="0.61412">
        <ele>76</ele>
        <time>2025-08-10T09:16:44.696Z</time>
      </trkpt>
      <trkpt lat="44.13305" lon="0.61413">
        <ele>76</ele>
        <time>2025-08-10T09:16:45.697Z</time>
      </trkpt>
      <trkpt lat="44.13304" lon="0.61415">
        <ele>76</ele>
        <time>2025-08-10T09:16:46.696Z</time>
      </trkpt>
      <trkpt lat="44.13303" lon="0.61416">
        <ele>76</ele>
        <time>2025-08-10T09:16:47.696Z</time>
      </trkpt>
      <trkpt lat="44.13302" lon="0.61418">
        <ele>76</ele>
        <time>2025-08-10T09:16:48.696Z</time>
      </trkpt>
      <trkpt lat="44.13302" lon="0.6142">
        <ele>75</ele>
        <time>2025-08-10T09:16:49.696Z</time>
      </trkpt>
      <trkpt lat="44.13301" lon="0.61421">
        <ele>75</ele>
        <time>2025-08-10T09:16:50.696Z</time>
      </trkpt>
      <trkpt lat="44.133" lon="0.61422">
        <ele>75</ele>
        <time>2025-08-10T09:16:51.696Z</time>
      </trkpt>
      <trkpt lat="44.133" lon="0.61424">
        <ele>75</ele>
        <time>2025-08-10T09:16:52.696Z</time>
      </trkpt>
      <trkpt lat="44.13299" lon="0.61426">
        <ele>75</ele>
        <time>2025-08-10T09:16:53.696Z</time>
      </trkpt>
      <trkpt lat="44.13298" lon="0.61427">
        <ele>75</ele>
        <time>2025-08-10T09:16:54.696Z</time>
      </trkpt>
      <trkpt lat="44.13298" lon="0.61429">
        <ele>75</ele>
        <time>2025-08-10T09:16:55.696Z</time>
      </trkpt>
      <trkpt lat="44.13297" lon="0.6143">
        <ele>75</ele>
        <time>2025-08-10T09:16:56.696Z</time>
      </trkpt>
      <trkpt lat="44.13296" lon="0.61432">
        <ele>75</ele>
        <time>2025-08-10T09:16:57.696Z</time>
      </trkpt>
      <trkpt lat="44.13296" lon="0.61433">
        <ele>75</ele>
        <time>2025-08-10T09:16:58.696Z</time>
      </trkpt>
      <trkpt lat="44.13295" lon="0.61435">
        <ele>75</ele>
        <time>2025-08-10T09:16:59.696Z</time>
      </trkpt>
      <trkpt lat="44.13294" lon="0.61436">
        <ele>75</ele>
        <time>2025-08-10T09:17:00.696Z</time>
      </trkpt>
      <trkpt lat="44.13294" lon="0.61437">
        <ele>75</ele>
        <time>2025-08-10T09:17:01.696Z</time>
      </trkpt>
      <trkpt lat="44.13293" lon="0.61438">
        <ele>75</ele>
        <time>2025-08-10T09:17:02.696Z</time>
      </trkpt>
      <trkpt lat="44.13293" lon="0.6144">
        <ele>75</ele>
        <time>2025-08-10T09:17:03.696Z</time>
      </trkpt>
      <trkpt lat="44.13293" lon="0.61441">
        <ele>75</ele>
        <time>2025-08-10T09:17:04.696Z</time>
      </trkpt>
      <trkpt lat="44.13292" lon="0.61443">
        <ele>75</ele>
        <time>2025-08-10T09:17:05.696Z</time>
      </trkpt>
      <trkpt lat="44.13292" lon="0.61444">
        <ele>75</ele>
        <time>2025-08-10T09:17:06.696Z</time>
      </trkpt>
      <trkpt lat="44.13291" lon="0.61446">
        <ele>76</ele>
        <time>2025-08-10T09:17:07.696Z</time>
      </trkpt>
      <trkpt lat="44.13291" lon="0.61447">
        <ele>76</ele>
        <time>2025-08-10T09:17:08.696Z</time>
      </trkpt>
      <trkpt lat="44.1329" lon="0.61449">
        <ele>76</ele>
        <time>2025-08-10T09:17:09.696Z</time>
      </trkpt>
      <trkpt lat="44.1329" lon="0.6145">
        <ele>76</ele>
        <time>2025-08-10T09:17:10.696Z</time>
      </trkpt>
      <trkpt lat="44.13289" lon="0.61452">
        <ele>76</ele>
        <time>2025-08-10T09:17:11.696Z</time>
      </trkpt>
      <trkpt lat="44.13289" lon="0.61453">
        <ele>76</ele>
        <time>2025-08-10T09:17:12.696Z</time>
      </trkpt>
      <trkpt lat="44.13289" lon="0.61455">
        <ele>75</ele>
        <time>2025-08-10T09:17:13.696Z</time>
      </trkpt>
      <trkpt lat="44.13288" lon="0.61456">
        <ele>75</ele>
        <time>2025-08-10T09:17:14.696Z</time>
      </trkpt>
      <trkpt lat="44.13288" lon="0.61458">
        <ele>75</ele>
        <time>2025-08-10T09:17:15.696Z</time>
      </trkpt>
      <trkpt lat="44.13289" lon="0.61459">
        <ele>75</ele>
        <time>2025-08-10T09:17:16.696Z</time>
      </trkpt>
      <trkpt lat="44.13288" lon="0.61461">
        <ele>75</ele>
        <time>2025-08-10T09:17:17.696Z</time>
      </trkpt>
      <trkpt lat="44.13289" lon="0.61462">
        <ele>75</ele>
        <time>2025-08-10T09:17:18.696Z</time>
      </trkpt>
      <trkpt lat="44.13289" lon="0.61463">
        <ele>75</ele>
        <time>2025-08-10T09:17:19.696Z</time>
      </trkpt>
      <trkpt lat="44.13289" lon="0.61465">
        <ele>76</ele>
        <time>2025-08-10T09:17:20.696Z</time>
      </trkpt>
      <trkpt lat="44.1329" lon="0.61466">
        <ele>76</ele>
        <time>2025-08-10T09:17:21.696Z</time>
      </trkpt>
      <trkpt lat="44.1329" lon="0.61468">
        <ele>76</ele>
        <time>2025-08-10T09:17:22.696Z</time>
      </trkpt>
      <trkpt lat="44.1329" lon="0.61469">
        <ele>76</ele>
        <time>2025-08-10T09:17:23.696Z</time>
      </trkpt>
      <trkpt lat="44.13291" lon="0.6147">
        <ele>76</ele>
        <time>2025-08-10T09:17:24.696Z</time>
      </trkpt>
      <trkpt lat="44.13291" lon="0.61471">
        <ele>76</ele>
        <time>2025-08-10T09:17:25.696Z</time>
      </trkpt>
      <trkpt lat="44.13292" lon="0.61472">
        <ele>76</ele>
        <time>2025-08-10T09:17:26.696Z</time>
      </trkpt>
      <trkpt lat="44.13292" lon="0.61473">
        <ele>76</ele>
        <time>2025-08-10T09:17:27.696Z</time>
      </trkpt>
      <trkpt lat="44.13293" lon="0.61474">
        <ele>76</ele>
        <time>2025-08-10T09:17:28.696Z</time>
      </trkpt>
      <trkpt lat="44.13294" lon="0.61475">
        <ele>76</ele>
        <time>2025-08-10T09:17:29.696Z</time>
      </trkpt>
      <trkpt lat="44.13295" lon="0.61476">
        <ele>76</ele>
        <time>2025-08-10T09:17:30.696Z</time>
      </trkpt>
      <trkpt lat="44.13296" lon="0.61477">
        <ele>76</ele>
        <time>2025-08-10T09:17:31.696Z</time>
      </trkpt>
      <trkpt lat="44.13297" lon="0.61478">
        <ele>76</ele>
        <time>2025-08-10T09:17:32.696Z</time>
      </trkpt>
      <trkpt lat="44.13297" lon="0.61478">
        <ele>76</ele>
        <time>2025-08-10T09:17:33.696Z</time>
      </trkpt>
      <trkpt lat="44.13298" lon="0.61479">
        <ele>76</ele>
        <time>2025-08-10T09:17:34.696Z</time>
      </trkpt>
      <trkpt lat="44.13299" lon="0.61481">
        <ele>77</ele>
        <time>2025-08-10T09:17:35.696Z</time>
      </trkpt>
      <trkpt lat="44.13301" lon="0.61482">
        <ele>77</ele>
        <time>2025-08-10T09:17:36.696Z</time>
      </trkpt>
      <trkpt lat="44.13302" lon="0.61483">
        <ele>77</ele>
        <time>2025-08-10T09:17:37.696Z</time>
      </trkpt>
      <trkpt lat="44.13303" lon="0.61485">
        <ele>77</ele>
        <time>2025-08-10T09:17:38.696Z</time>
      </trkpt>
      <trkpt lat="44.13304" lon="0.61486">
        <ele>77</ele>
        <time>2025-08-10T09:17:39.696Z</time>
      </trkpt>
      <trkpt lat="44.13305" lon="0.61486">
        <ele>77</ele>
        <time>2025-08-10T09:17:40.696Z</time>
      </trkpt>
      <trkpt lat="44.13306" lon="0.61487">
        <ele>77</ele>
        <time>2025-08-10T09:17:41.696Z</time>
      </trkpt>
      <trkpt lat="44.13307" lon="0.61487">
        <ele>77</ele>
        <time>2025-08-10T09:17:42.696Z</time>
      </trkpt>
      <trkpt lat="44.13308" lon="0.61489">
        <ele>77</ele>
        <time>2025-08-10T09:17:43.696Z</time>
      </trkpt>
      <trkpt lat="44.13309" lon="0.61489">
        <ele>77</ele>
        <time>2025-08-10T09:17:44.696Z</time>
      </trkpt>
      <trkpt lat="44.1331" lon="0.6149">
        <ele>77</ele>
        <time>2025-08-10T09:17:45.696Z</time>
      </trkpt>
      <trkpt lat="44.13311" lon="0.61491">
        <ele>77</ele>
        <time>2025-08-10T09:17:46.696Z</time>
      </trkpt>
      <trkpt lat="44.13312" lon="0.61492">
        <ele>77</ele>
        <time>2025-08-10T09:17:47.696Z</time>
      </trkpt>
      <trkpt lat="44.13313" lon="0.61493">
        <ele>77</ele>
        <time>2025-08-10T09:17:48.696Z</time>
      </trkpt>
      <trkpt lat="44.13314" lon="0.61495">
        <ele>77</ele>
        <time>2025-08-10T09:17:49.696Z</time>
      </trkpt>
      <trkpt lat="44.13314" lon="0.61496">
        <ele>77</ele>
        <time>2025-08-10T09:17:50.696Z</time>
      </trkpt>
      <trkpt lat="44.13315" lon="0.61497">
        <ele>77</ele>
        <time>2025-08-10T09:17:51.696Z</time>
      </trkpt>
      <trkpt lat="44.13316" lon="0.61498">
        <ele>77</ele>
        <time>2025-08-10T09:17:52.696Z</time>
      </trkpt>
      <trkpt lat="44.13318" lon="0.61499">
        <ele>77</ele>
        <time>2025-08-10T09:17:53.696Z</time>
      </trkpt>
      <trkpt lat="44.13319" lon="0.61501">
        <ele>77</ele>
        <time>2025-08-10T09:17:54.696Z</time>
      </trkpt>
      <trkpt lat="44.1332" lon="0.61502">
        <ele>78</ele>
        <time>2025-08-10T09:17:55.696Z</time>
      </trkpt>
      <trkpt lat="44.13321" lon="0.61503">
        <ele>78</ele>
        <time>2025-08-10T09:17:56.696Z</time>
      </trkpt>
      <trkpt lat="44.13322" lon="0.61503">
        <ele>78</ele>
        <time>2025-08-10T09:17:57.696Z</time>
      </trkpt>
      <trkpt lat="44.13323" lon="0.61505">
        <ele>78</ele>
        <time>2025-08-10T09:17:58.696Z</time>
      </trkpt>
      <trkpt lat="44.13324" lon="0.61506">
        <ele>78</ele>
        <time>2025-08-10T09:17:59.696Z</time>
      </trkpt>
      <trkpt lat="44.13325" lon="0.61507">
        <ele>78</ele>
        <time>2025-08-10T09:18:00.696Z</time>
      </trkpt>
      <trkpt lat="44.13325" lon="0.61508">
        <ele>78</ele>
        <time>2025-08-10T09:18:01.696Z</time>
      </trkpt>
      <trkpt lat="44.13326" lon="0.61509">
        <ele>78</ele>
        <time>2025-08-10T09:18:02.696Z</time>
      </trkpt>
      <trkpt lat="44.13327" lon="0.61511">
        <ele>78</ele>
        <time>2025-08-10T09:18:03.696Z</time>
      </trkpt>
      <trkpt lat="44.13328" lon="0.61512">
        <ele>78</ele>
        <time>2025-08-10T09:18:04.696Z</time>
      </trkpt>
      <trkpt lat="44.13329" lon="0.61513">
        <ele>78</ele>
        <time>2025-08-10T09:18:05.696Z</time>
      </trkpt>
      <trkpt lat="44.1333" lon="0.61514">
        <ele>78</ele>
        <time>2025-08-10T09:18:06.696Z</time>
      </trkpt>
      <trkpt lat="44.1333" lon="0.61516">
        <ele>78</ele>
        <time>2025-08-10T09:18:07.696Z</time>
      </trkpt>
      <trkpt lat="44.13331" lon="0.61517">
        <ele>78</ele>
        <time>2025-08-10T09:18:08.696Z</time>
      </trkpt>
      <trkpt lat="44.13331" lon="0.61518">
        <ele>78</ele>
        <time>2025-08-10T09:18:09.696Z</time>
      </trkpt>
      <trkpt lat="44.13332" lon="0.61519">
        <ele>78</ele>
        <time>2025-08-10T09:18:10.696Z</time>
      </trkpt>
      <trkpt lat="44.13333" lon="0.61521">
        <ele>78</ele>
        <time>2025-08-10T09:18:11.696Z</time>
      </trkpt>
      <trkpt lat="44.13333" lon="0.61522">
        <ele>78</ele>
        <time>2025-08-10T09:18:12.696Z</time>
      </trkpt>
      <trkpt lat="44.13334" lon="0.61523">
        <ele>78</ele>
        <time>2025-08-10T09:18:13.696Z</time>
      </trkpt>
      <trkpt lat="44.13334" lon="0.61524">
        <ele>77</ele>
        <time>2025-08-10T09:18:14.696Z</time>
      </trkpt>
      <trkpt lat="44.13335" lon="0.61525">
        <ele>77</ele>
        <time>2025-08-10T09:18:15.696Z</time>
      </trkpt>
      <trkpt lat="44.13335" lon="0.61526">
        <ele>77</ele>
        <time>2025-08-10T09:18:16.696Z</time>
      </trkpt>
      <trkpt lat="44.13336" lon="0.61527">
        <ele>76</ele>
        <time>2025-08-10T09:18:17.696Z</time>
      </trkpt>
      <trkpt lat="44.13336" lon="0.61528">
        <ele>76</ele>
        <time>2025-08-10T09:18:18.696Z</time>
      </trkpt>
      <trkpt lat="44.13337" lon="0.61529">
        <ele>76</ele>
        <time>2025-08-10T09:18:19.696Z</time>
      </trkpt>
      <trkpt lat="44.13337" lon="0.6153">
        <ele>76</ele>
        <time>2025-08-10T09:18:20.696Z</time>
      </trkpt>
      <trkpt lat="44.13337" lon="0.6153">
        <ele>75</ele>
        <time>2025-08-10T09:18:21.696Z</time>
      </trkpt>
      <trkpt lat="44.13337" lon="0.6153">
        <ele>75</ele>
        <time>2025-08-10T09:18:22.696Z</time>
      </trkpt>
      <trkpt lat="44.13337" lon="0.61531">
        <ele>75</ele>
        <time>2025-08-10T09:18:23.696Z</time>
      </trkpt>
      <trkpt lat="44.13337" lon="0.61531">
        <ele>75</ele>
        <time>2025-08-10T09:18:24.696Z</time>
      </trkpt>
      <trkpt lat="44.13337" lon="0.61531">
        <ele>75</ele>
        <time>2025-08-10T09:18:25.696Z</time>
      </trkpt>
      <trkpt lat="44.13337" lon="0.61531">
        <ele>75</ele>
        <time>2025-08-10T09:18:26.696Z</time>
      </trkpt>
      <trkpt lat="44.13337" lon="0.61531">
        <ele>75</ele>
        <time>2025-08-10T09:18:27.696Z</time>
      </trkpt>
      <trkpt lat="44.13337" lon="0.61531">
        <ele>74</ele>
        <time>2025-08-10T09:18:28.696Z</time>
      </trkpt>
      <trkpt lat="44.13337" lon="0.61531">
        <ele>74</ele>
        <time>2025-08-10T09:18:29.696Z</time>
      </trkpt>
      <trkpt lat="44.13337" lon="0.61531">
        <ele>74</ele>
        <time>2025-08-10T09:18:30.696Z</time>
      </trkpt>
      <trkpt lat="44.13337" lon="0.61531">
        <ele>74</ele>
        <time>2025-08-10T09:18:31.696Z</time>
      </trkpt>
      <trkpt lat="44.13337" lon="0.61531">
        <ele>75</ele>
        <time>2025-08-10T09:18:32.696Z</time>
      </trkpt>
      <trkpt lat="44.13337" lon="0.61531">
        <ele>75</ele>
        <time>2025-08-10T09:18:33.696Z</time>
      </trkpt>
      <trkpt lat="44.13337" lon="0.61531">
        <ele>75</ele>
        <time>2025-08-10T09:18:34.696Z</time>
      </trkpt>
      <trkpt lat="44.13338" lon="0.61531">
        <ele>75</ele>
        <time>2025-08-10T09:18:35.696Z</time>
      </trkpt>
      <trkpt lat="44.13338" lon="0.61531">
        <ele>75</ele>
        <time>2025-08-10T09:18:36.696Z</time>
      </trkpt>
      <trkpt lat="44.13338" lon="0.61531">
        <ele>75</ele>
        <time>2025-08-10T09:18:37.696Z</time>
      </trkpt>
      <trkpt lat="44.13338" lon="0.61532">
        <ele>75</ele>
        <time>2025-08-10T09:18:38.696Z</time>
      </trkpt>
      <trkpt lat="44.13338" lon="0.61533">
        <ele>75</ele>
        <time>2025-08-10T09:18:39.696Z</time>
      </trkpt>
      <trkpt lat="44.13338" lon="0.61533">
        <ele>75</ele>
        <time>2025-08-10T09:18:40.696Z</time>
      </trkpt>
      <trkpt lat="44.13339" lon="0.61533">
        <ele>75</ele>
        <time>2025-08-10T09:18:41.696Z</time>
      </trkpt>
      <trkpt lat="44.13339" lon="0.61534">
        <ele>76</ele>
        <time>2025-08-10T09:18:42.696Z</time>
      </trkpt>
      <trkpt lat="44.1334" lon="0.61535">
        <ele>76</ele>
        <time>2025-08-10T09:18:43.696Z</time>
      </trkpt>
      <trkpt lat="44.1334" lon="0.61536">
        <ele>76</ele>
        <time>2025-08-10T09:18:44.696Z</time>
      </trkpt>
      <trkpt lat="44.1334" lon="0.61537">
        <ele>76</ele>
        <time>2025-08-10T09:18:45.696Z</time>
      </trkpt>
      <trkpt lat="44.13341" lon="0.61539">
        <ele>76</ele>
        <time>2025-08-10T09:18:46.696Z</time>
      </trkpt>
      <trkpt lat="44.13341" lon="0.6154">
        <ele>76</ele>
        <time>2025-08-10T09:18:47.696Z</time>
      </trkpt>
      <trkpt lat="44.13342" lon="0.61542">
        <ele>76</ele>
        <time>2025-08-10T09:18:48.696Z</time>
      </trkpt>
      <trkpt lat="44.13342" lon="0.61544">
        <ele>76</ele>
        <time>2025-08-10T09:18:49.696Z</time>
      </trkpt>
      <trkpt lat="44.13343" lon="0.61545">
        <ele>76</ele>
        <time>2025-08-10T09:18:50.696Z</time>
      </trkpt>
      <trkpt lat="44.13343" lon="0.61547">
        <ele>76</ele>
        <time>2025-08-10T09:18:51.696Z</time>
      </trkpt>
      <trkpt lat="44.13343" lon="0.61548">
        <ele>76</ele>
        <time>2025-08-10T09:18:52.696Z</time>
      </trkpt>
      <trkpt lat="44.13343" lon="0.6155">
        <ele>76</ele>
        <time>2025-08-10T09:18:53.696Z</time>
      </trkpt>
      <trkpt lat="44.13344" lon="0.61551">
        <ele>75</ele>
        <time>2025-08-10T09:18:54.696Z</time>
      </trkpt>
      <trkpt lat="44.13344" lon="0.61553">
        <ele>75</ele>
        <time>2025-08-10T09:18:55.696Z</time>
      </trkpt>
      <trkpt lat="44.13344" lon="0.61554">
        <ele>75</ele>
        <time>2025-08-10T09:18:56.696Z</time>
      </trkpt>
      <trkpt lat="44.13344" lon="0.61556">
        <ele>75</ele>
        <time>2025-08-10T09:18:57.696Z</time>
      </trkpt>
      <trkpt lat="44.13344" lon="0.61558">
        <ele>75</ele>
        <time>2025-08-10T09:18:58.697Z</time>
      </trkpt>
      <trkpt lat="44.13344" lon="0.6156">
        <ele>75</ele>
        <time>2025-08-10T09:18:59.696Z</time>
      </trkpt>
      <trkpt lat="44.13345" lon="0.61561">
        <ele>74</ele>
        <time>2025-08-10T09:19:00.696Z</time>
      </trkpt>
      <trkpt lat="44.13345" lon="0.61563">
        <ele>74</ele>
        <time>2025-08-10T09:19:01.696Z</time>
      </trkpt>
      <trkpt lat="44.13345" lon="0.61564">
        <ele>74</ele>
        <time>2025-08-10T09:19:02.696Z</time>
      </trkpt>
      <trkpt lat="44.13345" lon="0.61566">
        <ele>74</ele>
        <time>2025-08-10T09:19:03.696Z</time>
      </trkpt>
      <trkpt lat="44.13346" lon="0.61567">
        <ele>74</ele>
        <time>2025-08-10T09:19:04.696Z</time>
      </trkpt>
      <trkpt lat="44.13346" lon="0.61569">
        <ele>74</ele>
        <time>2025-08-10T09:19:05.696Z</time>
      </trkpt>
      <trkpt lat="44.13346" lon="0.61571">
        <ele>74</ele>
        <time>2025-08-10T09:19:06.696Z</time>
      </trkpt>
      <trkpt lat="44.13346" lon="0.61572">
        <ele>75</ele>
        <time>2025-08-10T09:19:07.696Z</time>
      </trkpt>
      <trkpt lat="44.13346" lon="0.61574">
        <ele>75</ele>
        <time>2025-08-10T09:19:08.696Z</time>
      </trkpt>
      <trkpt lat="44.13347" lon="0.61576">
        <ele>75</ele>
        <time>2025-08-10T09:19:09.696Z</time>
      </trkpt>
      <trkpt lat="44.13347" lon="0.61577">
        <ele>75</ele>
        <time>2025-08-10T09:19:10.696Z</time>
      </trkpt>
      <trkpt lat="44.13347" lon="0.61579">
        <ele>75</ele>
        <time>2025-08-10T09:19:11.696Z</time>
      </trkpt>
      <trkpt lat="44.13347" lon="0.6158">
        <ele>75</ele>
        <time>2025-08-10T09:19:12.696Z</time>
      </trkpt>
      <trkpt lat="44.13347" lon="0.61582">
        <ele>75</ele>
        <time>2025-08-10T09:19:13.696Z</time>
      </trkpt>
      <trkpt lat="44.13347" lon="0.61584">
        <ele>75</ele>
        <time>2025-08-10T09:19:14.696Z</time>
      </trkpt>
      <trkpt lat="44.13347" lon="0.61585">
        <ele>76</ele>
        <time>2025-08-10T09:19:15.696Z</time>
      </trkpt>
      <trkpt lat="44.13347" lon="0.61587">
        <ele>76</ele>
        <time>2025-08-10T09:19:16.696Z</time>
      </trkpt>
      <trkpt lat="44.13347" lon="0.61589">
        <ele>76</ele>
        <time>2025-08-10T09:19:17.696Z</time>
      </trkpt>
      <trkpt lat="44.13347" lon="0.6159">
        <ele>76</ele>
        <time>2025-08-10T09:19:18.696Z</time>
      </trkpt>
      <trkpt lat="44.13347" lon="0.61592">
        <ele>76</ele>
        <time>2025-08-10T09:19:19.696Z</time>
      </trkpt>
      <trkpt lat="44.13347" lon="0.61593">
        <ele>76</ele>
        <time>2025-08-10T09:19:20.696Z</time>
      </trkpt>
      <trkpt lat="44.13347" lon="0.61595">
        <ele>76</ele>
        <time>2025-08-10T09:19:21.696Z</time>
      </trkpt>
      <trkpt lat="44.13347" lon="0.61597">
        <ele>76</ele>
        <time>2025-08-10T09:19:22.696Z</time>
      </trkpt>
      <trkpt lat="44.13347" lon="0.61599">
        <ele>76</ele>
        <time>2025-08-10T09:19:23.696Z</time>
      </trkpt>
      <trkpt lat="44.13348" lon="0.616">
        <ele>76</ele>
        <time>2025-08-10T09:19:24.696Z</time>
      </trkpt>
      <trkpt lat="44.13347" lon="0.616">
        <ele>76</ele>
        <time>2025-08-10T09:19:25.696Z</time>
      </trkpt>
      <trkpt lat="44.13347" lon="0.61601">
        <ele>75</ele>
        <time>2025-08-10T09:19:26.696Z</time>
      </trkpt>
      <trkpt lat="44.13347" lon="0.61601">
        <ele>75</ele>
        <time>2025-08-10T09:19:27.696Z</time>
      </trkpt>
      <trkpt lat="44.13348" lon="0.61602">
        <ele>75</ele>
        <time>2025-08-10T09:19:28.696Z</time>
      </trkpt>
      <trkpt lat="44.13348" lon="0.61602">
        <ele>75</ele>
        <time>2025-08-10T09:19:29.696Z</time>
      </trkpt>
      <trkpt lat="44.13348" lon="0.61603">
        <ele>75</ele>
        <time>2025-08-10T09:19:30.696Z</time>
      </trkpt>
      <trkpt lat="44.13348" lon="0.61604">
        <ele>76</ele>
        <time>2025-08-10T09:19:31.696Z</time>
      </trkpt>
      <trkpt lat="44.13348" lon="0.61606">
        <ele>76</ele>
        <time>2025-08-10T09:19:32.696Z</time>
      </trkpt>
      <trkpt lat="44.13349" lon="0.61608">
        <ele>76</ele>
        <time>2025-08-10T09:19:33.696Z</time>
      </trkpt>
      <trkpt lat="44.13349" lon="0.61609">
        <ele>76</ele>
        <time>2025-08-10T09:19:34.696Z</time>
      </trkpt>
      <trkpt lat="44.1335" lon="0.61611">
        <ele>77</ele>
        <time>2025-08-10T09:19:35.696Z</time>
      </trkpt>
      <trkpt lat="44.1335" lon="0.61612">
        <ele>77</ele>
        <time>2025-08-10T09:19:36.696Z</time>
      </trkpt>
      <trkpt lat="44.13351" lon="0.61613">
        <ele>78</ele>
        <time>2025-08-10T09:19:37.696Z</time>
      </trkpt>
      <trkpt lat="44.13351" lon="0.61615">
        <ele>78</ele>
        <time>2025-08-10T09:19:38.696Z</time>
      </trkpt>
      <trkpt lat="44.13351" lon="0.61617">
        <ele>78</ele>
        <time>2025-08-10T09:19:39.696Z</time>
      </trkpt>
      <trkpt lat="44.13351" lon="0.61618">
        <ele>78</ele>
        <time>2025-08-10T09:19:40.696Z</time>
      </trkpt>
      <trkpt lat="44.1335" lon="0.6162">
        <ele>78</ele>
        <time>2025-08-10T09:19:41.696Z</time>
      </trkpt>
      <trkpt lat="44.13351" lon="0.61622">
        <ele>78</ele>
        <time>2025-08-10T09:19:42.696Z</time>
      </trkpt>
      <trkpt lat="44.13351" lon="0.61623">
        <ele>78</ele>
        <time>2025-08-10T09:19:43.696Z</time>
      </trkpt>
      <trkpt lat="44.13352" lon="0.61625">
        <ele>78</ele>
        <time>2025-08-10T09:19:44.696Z</time>
      </trkpt>
      <trkpt lat="44.13352" lon="0.61626">
        <ele>77</ele>
        <time>2025-08-10T09:19:45.696Z</time>
      </trkpt>
      <trkpt lat="44.13352" lon="0.61627">
        <ele>77</ele>
        <time>2025-08-10T09:19:46.696Z</time>
      </trkpt>
      <trkpt lat="44.13352" lon="0.61628">
        <ele>77</ele>
        <time>2025-08-10T09:19:47.697Z</time>
      </trkpt>
      <trkpt lat="44.13353" lon="0.6163">
        <ele>77</ele>
        <time>2025-08-10T09:19:48.696Z</time>
      </trkpt>
      <trkpt lat="44.13354" lon="0.6163">
        <ele>76</ele>
        <time>2025-08-10T09:19:49.696Z</time>
      </trkpt>
      <trkpt lat="44.13354" lon="0.6163">
        <ele>76</ele>
        <time>2025-08-10T09:19:50.696Z</time>
      </trkpt>
      <trkpt lat="44.13354" lon="0.6163">
        <ele>76</ele>
        <time>2025-08-10T09:19:51.696Z</time>
      </trkpt>
      <trkpt lat="44.13354" lon="0.6163">
        <ele>76</ele>
        <time>2025-08-10T09:19:52.696Z</time>
      </trkpt>
      <trkpt lat="44.13354" lon="0.61629">
        <ele>76</ele>
        <time>2025-08-10T09:19:53.696Z</time>
      </trkpt>
      <trkpt lat="44.13354" lon="0.61629">
        <ele>76</ele>
        <time>2025-08-10T09:19:54.696Z</time>
      </trkpt>
      <trkpt lat="44.13355" lon="0.61628">
        <ele>75</ele>
        <time>2025-08-10T09:19:55.696Z</time>
      </trkpt>
      <trkpt lat="44.13356" lon="0.61628">
        <ele>75</ele>
        <time>2025-08-10T09:19:56.696Z</time>
      </trkpt>
      <trkpt lat="44.13358" lon="0.61627">
        <ele>75</ele>
        <time>2025-08-10T09:19:57.696Z</time>
      </trkpt>
      <trkpt lat="44.13359" lon="0.61627">
        <ele>75</ele>
        <time>2025-08-10T09:19:58.696Z</time>
      </trkpt>
      <trkpt lat="44.1336" lon="0.61627">
        <ele>75</ele>
        <time>2025-08-10T09:19:59.696Z</time>
      </trkpt>
      <trkpt lat="44.13361" lon="0.61627">
        <ele>75</ele>
        <time>2025-08-10T09:20:00.696Z</time>
      </trkpt>
      <trkpt lat="44.13362" lon="0.61627">
        <ele>75</ele>
        <time>2025-08-10T09:20:01.696Z</time>
      </trkpt>
      <trkpt lat="44.13363" lon="0.61626">
        <ele>75</ele>
        <time>2025-08-10T09:20:02.696Z</time>
      </trkpt>
      <trkpt lat="44.13364" lon="0.61626">
        <ele>74</ele>
        <time>2025-08-10T09:20:03.696Z</time>
      </trkpt>
      <trkpt lat="44.13366" lon="0.61626">
        <ele>74</ele>
        <time>2025-08-10T09:20:04.696Z</time>
      </trkpt>
      <trkpt lat="44.13367" lon="0.61626">
        <ele>74</ele>
        <time>2025-08-10T09:20:05.696Z</time>
      </trkpt>
      <trkpt lat="44.13368" lon="0.61626">
        <ele>74</ele>
        <time>2025-08-10T09:20:06.696Z</time>
      </trkpt>
      <trkpt lat="44.1337" lon="0.61626">
        <ele>74</ele>
        <time>2025-08-10T09:20:07.696Z</time>
      </trkpt>
      <trkpt lat="44.13371" lon="0.61626">
        <ele>74</ele>
        <time>2025-08-10T09:20:08.696Z</time>
      </trkpt>
      <trkpt lat="44.13372" lon="0.61626">
        <ele>74</ele>
        <time>2025-08-10T09:20:09.696Z</time>
      </trkpt>
      <trkpt lat="44.13373" lon="0.61626">
        <ele>74</ele>
        <time>2025-08-10T09:20:10.696Z</time>
      </trkpt>
      <trkpt lat="44.13375" lon="0.61625">
        <ele>74</ele>
        <time>2025-08-10T09:20:11.696Z</time>
      </trkpt>
      <trkpt lat="44.13376" lon="0.61625">
        <ele>74</ele>
        <time>2025-08-10T09:20:12.696Z</time>
      </trkpt>
      <trkpt lat="44.13377" lon="0.61625">
        <ele>74</ele>
        <time>2025-08-10T09:20:13.696Z</time>
      </trkpt>
      <trkpt lat="44.13378" lon="0.61625">
        <ele>74</ele>
        <time>2025-08-10T09:20:14.696Z</time>
      </trkpt>
      <trkpt lat="44.1338" lon="0.61625">
        <ele>74</ele>
        <time>2025-08-10T09:20:15.696Z</time>
      </trkpt>
      <trkpt lat="44.13381" lon="0.61625">
        <ele>75</ele>
        <time>2025-08-10T09:20:16.696Z</time>
      </trkpt>
      <trkpt lat="44.13382" lon="0.61625">
        <ele>75</ele>
        <time>2025-08-10T09:20:17.696Z</time>
      </trkpt>
      <trkpt lat="44.13383" lon="0.61624">
        <ele>75</ele>
        <time>2025-08-10T09:20:18.696Z</time>
      </trkpt>
      <trkpt lat="44.13384" lon="0.61624">
        <ele>75</ele>
        <time>2025-08-10T09:20:19.696Z</time>
      </trkpt>
      <trkpt lat="44.13385" lon="0.61624">
        <ele>75</ele>
        <time>2025-08-10T09:20:20.696Z</time>
      </trkpt>
      <trkpt lat="44.13387" lon="0.61624">
        <ele>75</ele>
        <time>2025-08-10T09:20:21.696Z</time>
      </trkpt>
      <trkpt lat="44.13388" lon="0.61624">
        <ele>75</ele>
        <time>2025-08-10T09:20:22.696Z</time>
      </trkpt>
      <trkpt lat="44.13389" lon="0.61624">
        <ele>76</ele>
        <time>2025-08-10T09:20:23.696Z</time>
      </trkpt>
      <trkpt lat="44.1339" lon="0.61624">
        <ele>76</ele>
        <time>2025-08-10T09:20:24.696Z</time>
      </trkpt>
      <trkpt lat="44.13392" lon="0.61623">
        <ele>76</ele>
        <time>2025-08-10T09:20:25.696Z</time>
      </trkpt>
      <trkpt lat="44.13393" lon="0.61623">
        <ele>76</ele>
        <time>2025-08-10T09:20:26.696Z</time>
      </trkpt>
      <trkpt lat="44.13394" lon="0.61623">
        <ele>76</ele>
        <time>2025-08-10T09:20:27.696Z</time>
      </trkpt>
      <trkpt lat="44.13395" lon="0.61623">
        <ele>76</ele>
        <time>2025-08-10T09:20:28.696Z</time>
      </trkpt>
      <trkpt lat="44.13396" lon="0.61623">
        <ele>76</ele>
        <time>2025-08-10T09:20:29.696Z</time>
      </trkpt>
      <trkpt lat="44.13397" lon="0.61623">
        <ele>76</ele>
        <time>2025-08-10T09:20:30.696Z</time>
      </trkpt>
      <trkpt lat="44.13397" lon="0.61623">
        <ele>76</ele>
        <time>2025-08-10T09:20:31.696Z</time>
      </trkpt>
      <trkpt lat="44.13398" lon="0.61624">
        <ele>76</ele>
        <time>2025-08-10T09:20:32.696Z</time>
      </trkpt>
      <trkpt lat="44.13398" lon="0.61625">
        <ele>77</ele>
        <time>2025-08-10T09:20:33.696Z</time>
      </trkpt>
      <trkpt lat="44.13399" lon="0.61625">
        <ele>77</ele>
        <time>2025-08-10T09:20:34.696Z</time>
      </trkpt>
      <trkpt lat="44.134" lon="0.61624">
        <ele>77</ele>
        <time>2025-08-10T09:20:35.696Z</time>
      </trkpt>
      <trkpt lat="44.134" lon="0.61624">
        <ele>77</ele>
        <time>2025-08-10T09:20:36.696Z</time>
      </trkpt>
      <trkpt lat="44.13401" lon="0.61623">
        <ele>77</ele>
        <time>2025-08-10T09:20:37.696Z</time>
      </trkpt>
      <trkpt lat="44.13402" lon="0.61623">
        <ele>77</ele>
        <time>2025-08-10T09:20:38.696Z</time>
      </trkpt>
      <trkpt lat="44.13403" lon="0.61623">
        <ele>78</ele>
        <time>2025-08-10T09:20:39.696Z</time>
      </trkpt>
      <trkpt lat="44.13404" lon="0.61622">
        <ele>78</ele>
        <time>2025-08-10T09:20:40.696Z</time>
      </trkpt>
      <trkpt lat="44.13405" lon="0.61622">
        <ele>78</ele>
        <time>2025-08-10T09:20:41.696Z</time>
      </trkpt>
      <trkpt lat="44.13407" lon="0.61622">
        <ele>78</ele>
        <time>2025-08-10T09:20:42.696Z</time>
      </trkpt>
      <trkpt lat="44.13408" lon="0.61622">
        <ele>78</ele>
        <time>2025-08-10T09:20:43.696Z</time>
      </trkpt>
      <trkpt lat="44.13409" lon="0.61622">
        <ele>78</ele>
        <time>2025-08-10T09:20:44.696Z</time>
      </trkpt>
      <trkpt lat="44.1341" lon="0.61623">
        <ele>78</ele>
        <time>2025-08-10T09:20:45.696Z</time>
      </trkpt>
      <trkpt lat="44.13411" lon="0.61623">
        <ele>78</ele>
        <time>2025-08-10T09:20:46.696Z</time>
      </trkpt>
      <trkpt lat="44.13412" lon="0.61623">
        <ele>78</ele>
        <time>2025-08-10T09:20:47.696Z</time>
      </trkpt>
      <trkpt lat="44.13413" lon="0.61623">
        <ele>78</ele>
        <time>2025-08-10T09:20:48.696Z</time>
      </trkpt>
      <trkpt lat="44.13414" lon="0.61623">
        <ele>78</ele>
        <time>2025-08-10T09:20:49.696Z</time>
      </trkpt>
      <trkpt lat="44.13415" lon="0.61623">
        <ele>78</ele>
        <time>2025-08-10T09:20:50.696Z</time>
      </trkpt>
      <trkpt lat="44.13416" lon="0.61623">
        <ele>78</ele>
        <time>2025-08-10T09:20:51.696Z</time>
      </trkpt>
      <trkpt lat="44.13417" lon="0.61623">
        <ele>78</ele>
        <time>2025-08-10T09:20:52.696Z</time>
      </trkpt>
      <trkpt lat="44.13418" lon="0.61623">
        <ele>78</ele>
        <time>2025-08-10T09:20:53.696Z</time>
      </trkpt>
      <trkpt lat="44.13419" lon="0.61623">
        <ele>78</ele>
        <time>2025-08-10T09:20:54.696Z</time>
      </trkpt>
      <trkpt lat="44.1342" lon="0.61623">
        <ele>78</ele>
        <time>2025-08-10T09:20:55.696Z</time>
      </trkpt>
      <trkpt lat="44.13421" lon="0.61624">
        <ele>78</ele>
        <time>2025-08-10T09:20:56.696Z</time>
      </trkpt>
      <trkpt lat="44.13422" lon="0.61624">
        <ele>78</ele>
        <time>2025-08-10T09:20:57.696Z</time>
      </trkpt>
      <trkpt lat="44.13424" lon="0.61624">
        <ele>78</ele>
        <time>2025-08-10T09:20:58.696Z</time>
      </trkpt>
      <trkpt lat="44.13425" lon="0.61625">
        <ele>78</ele>
        <time>2025-08-10T09:20:59.696Z</time>
      </trkpt>
      <trkpt lat="44.13426" lon="0.61625">
        <ele>78</ele>
        <time>2025-08-10T09:21:00.696Z</time>
      </trkpt>
      <trkpt lat="44.13427" lon="0.61625">
        <ele>78</ele>
        <time>2025-08-10T09:21:01.696Z</time>
      </trkpt>
      <trkpt lat="44.13428" lon="0.61625">
        <ele>78</ele>
        <time>2025-08-10T09:21:02.696Z</time>
      </trkpt>
      <trkpt lat="44.13429" lon="0.61625">
        <ele>79</ele>
        <time>2025-08-10T09:21:03.696Z</time>
      </trkpt>
      <trkpt lat="44.1343" lon="0.61625">
        <ele>79</ele>
        <time>2025-08-10T09:21:04.696Z</time>
      </trkpt>
      <trkpt lat="44.13431" lon="0.61625">
        <ele>80</ele>
        <time>2025-08-10T09:21:05.696Z</time>
      </trkpt>
      <trkpt lat="44.13431" lon="0.61624">
        <ele>81</ele>
        <time>2025-08-10T09:21:06.696Z</time>
      </trkpt>
      <trkpt lat="44.13432" lon="0.61623">
        <ele>81</ele>
        <time>2025-08-10T09:21:07.696Z</time>
      </trkpt>
      <trkpt lat="44.13433" lon="0.61622">
        <ele>82</ele>
        <time>2025-08-10T09:21:08.696Z</time>
      </trkpt>
      <trkpt lat="44.13434" lon="0.61622">
        <ele>82</ele>
        <time>2025-08-10T09:21:09.696Z</time>
      </trkpt>
      <trkpt lat="44.13435" lon="0.61622">
        <ele>83</ele>
        <time>2025-08-10T09:21:10.696Z</time>
      </trkpt>
      <trkpt lat="44.13436" lon="0.61622">
        <ele>83</ele>
        <time>2025-08-10T09:21:11.696Z</time>
      </trkpt>
      <trkpt lat="44.13436" lon="0.61622">
        <ele>83</ele>
        <time>2025-08-10T09:21:12.696Z</time>
      </trkpt>
      <trkpt lat="44.13437" lon="0.61622">
        <ele>83</ele>
        <time>2025-08-10T09:21:13.696Z</time>
      </trkpt>
      <trkpt lat="44.13437" lon="0.61623">
        <ele>83</ele>
        <time>2025-08-10T09:21:14.696Z</time>
      </trkpt>
      <trkpt lat="44.13438" lon="0.61623">
        <ele>83</ele>
        <time>2025-08-10T09:21:15.696Z</time>
      </trkpt>
      <trkpt lat="44.13438" lon="0.61623">
        <ele>84</ele>
        <time>2025-08-10T09:21:16.696Z</time>
      </trkpt>
      <trkpt lat="44.13438" lon="0.61623">
        <ele>84</ele>
        <time>2025-08-10T09:21:17.696Z</time>
      </trkpt>
      <trkpt lat="44.13438" lon="0.61623">
        <ele>84</ele>
        <time>2025-08-10T09:21:18.696Z</time>
      </trkpt>
      <trkpt lat="44.13438" lon="0.61623">
        <ele>84</ele>
        <time>2025-08-10T09:21:19.696Z</time>
      </trkpt>
      <trkpt lat="44.13438" lon="0.61623">
        <ele>85</ele>
        <time>2025-08-10T09:21:20.696Z</time>
      </trkpt>
      <trkpt lat="44.13437" lon="0.61623">
        <ele>85</ele>
        <time>2025-08-10T09:21:21.696Z</time>
      </trkpt>
      <trkpt lat="44.13437" lon="0.61622">
        <ele>86</ele>
        <time>2025-08-10T09:21:22.696Z</time>
      </trkpt>
      <trkpt lat="44.13438" lon="0.61622">
        <ele>86</ele>
        <time>2025-08-10T09:21:23.696Z</time>
      </trkpt>
      <trkpt lat="44.13439" lon="0.61621">
        <ele>86</ele>
        <time>2025-08-10T09:21:24.696Z</time>
      </trkpt>
      <trkpt lat="44.1344" lon="0.61621">
        <ele>87</ele>
        <time>2025-08-10T09:21:25.696Z</time>
      </trkpt>
      <trkpt lat="44.13441" lon="0.6162">
        <ele>87</ele>
        <time>2025-08-10T09:21:26.696Z</time>
      </trkpt>
      <trkpt lat="44.13442" lon="0.6162">
        <ele>87</ele>
        <time>2025-08-10T09:21:27.696Z</time>
      </trkpt>
      <trkpt lat="44.13443" lon="0.61619">
        <ele>87</ele>
        <time>2025-08-10T09:21:28.696Z</time>
      </trkpt>
      <trkpt lat="44.13443" lon="0.61619">
        <ele>88</ele>
        <time>2025-08-10T09:21:29.696Z</time>
      </trkpt>
      <trkpt lat="44.13444" lon="0.6162">
        <ele>88</ele>
        <time>2025-08-10T09:21:30.696Z</time>
      </trkpt>
      <trkpt lat="44.13445" lon="0.6162">
        <ele>89</ele>
        <time>2025-08-10T09:21:31.696Z</time>
      </trkpt>
      <trkpt lat="44.13445" lon="0.6162">
        <ele>89</ele>
        <time>2025-08-10T09:21:32.696Z</time>
      </trkpt>
      <trkpt lat="44.13446" lon="0.61619">
        <ele>89</ele>
        <time>2025-08-10T09:21:33.696Z</time>
      </trkpt>
      <trkpt lat="44.13447" lon="0.61619">
        <ele>89</ele>
        <time>2025-08-10T09:21:34.696Z</time>
      </trkpt>
      <trkpt lat="44.13448" lon="0.6162">
        <ele>89</ele>
        <time>2025-08-10T09:21:35.696Z</time>
      </trkpt>
      <trkpt lat="44.13449" lon="0.61619">
        <ele>89</ele>
        <time>2025-08-10T09:21:36.696Z</time>
      </trkpt>
      <trkpt lat="44.13449" lon="0.61619">
        <ele>89</ele>
        <time>2025-08-10T09:21:37.696Z</time>
      </trkpt>
      <trkpt lat="44.1345" lon="0.61618">
        <ele>89</ele>
        <time>2025-08-10T09:21:38.696Z</time>
      </trkpt>
      <trkpt lat="44.1345" lon="0.61618">
        <ele>88</ele>
        <time>2025-08-10T09:21:39.696Z</time>
      </trkpt>
      <trkpt lat="44.13451" lon="0.61618">
        <ele>88</ele>
        <time>2025-08-10T09:21:40.696Z</time>
      </trkpt>
      <trkpt lat="44.13452" lon="0.61618">
        <ele>88</ele>
        <time>2025-08-10T09:21:41.696Z</time>
      </trkpt>
      <trkpt lat="44.13454" lon="0.61618">
        <ele>88</ele>
        <time>2025-08-10T09:21:42.696Z</time>
      </trkpt>
      <trkpt lat="44.13455" lon="0.61618">
        <ele>88</ele>
        <time>2025-08-10T09:21:43.696Z</time>
      </trkpt>
      <trkpt lat="44.13455" lon="0.61618">
        <ele>88</ele>
        <time>2025-08-10T09:21:44.696Z</time>
      </trkpt>
      <trkpt lat="44.13456" lon="0.61617">
        <ele>89</ele>
        <time>2025-08-10T09:21:45.696Z</time>
      </trkpt>
      <trkpt lat="44.13457" lon="0.61617">
        <ele>89</ele>
        <time>2025-08-10T09:21:46.696Z</time>
      </trkpt>
      <trkpt lat="44.13458" lon="0.61616">
        <ele>89</ele>
        <time>2025-08-10T09:21:47.696Z</time>
      </trkpt>
      <trkpt lat="44.13459" lon="0.61615">
        <ele>90</ele>
        <time>2025-08-10T09:21:48.696Z</time>
      </trkpt>
      <trkpt lat="44.13459" lon="0.61615">
        <ele>90</ele>
        <time>2025-08-10T09:21:49.696Z</time>
      </trkpt>
      <trkpt lat="44.1346" lon="0.61615">
        <ele>90</ele>
        <time>2025-08-10T09:21:50.696Z</time>
      </trkpt>
      <trkpt lat="44.13461" lon="0.61615">
        <ele>90</ele>
        <time>2025-08-10T09:21:51.696Z</time>
      </trkpt>
      <trkpt lat="44.13461" lon="0.61615">
        <ele>90</ele>
        <time>2025-08-10T09:21:52.696Z</time>
      </trkpt>
      <trkpt lat="44.13462" lon="0.61616">
        <ele>90</ele>
        <time>2025-08-10T09:21:53.696Z</time>
      </trkpt>
      <trkpt lat="44.13463" lon="0.61616">
        <ele>91</ele>
        <time>2025-08-10T09:21:54.696Z</time>
      </trkpt>
      <trkpt lat="44.13464" lon="0.61616">
        <ele>91</ele>
        <time>2025-08-10T09:21:55.696Z</time>
      </trkpt>
      <trkpt lat="44.13465" lon="0.61616">
        <ele>91</ele>
        <time>2025-08-10T09:21:56.696Z</time>
      </trkpt>
      <trkpt lat="44.13466" lon="0.61616">
        <ele>91</ele>
        <time>2025-08-10T09:21:57.696Z</time>
      </trkpt>
      <trkpt lat="44.13467" lon="0.61616">
        <ele>91</ele>
        <time>2025-08-10T09:21:58.696Z</time>
      </trkpt>
      <trkpt lat="44.13467" lon="0.61615">
        <ele>91</ele>
        <time>2025-08-10T09:21:59.696Z</time>
      </trkpt>
      <trkpt lat="44.13468" lon="0.61615">
        <ele>91</ele>
        <time>2025-08-10T09:22:00.696Z</time>
      </trkpt>
      <trkpt lat="44.13469" lon="0.61615">
        <ele>91</ele>
        <time>2025-08-10T09:22:01.696Z</time>
      </trkpt>
      <trkpt lat="44.1347" lon="0.61615">
        <ele>91</ele>
        <time>2025-08-10T09:22:02.696Z</time>
      </trkpt>
      <trkpt lat="44.13471" lon="0.61614">
        <ele>91</ele>
        <time>2025-08-10T09:22:03.696Z</time>
      </trkpt>
      <trkpt lat="44.13471" lon="0.61613">
        <ele>92</ele>
        <time>2025-08-10T09:22:04.696Z</time>
      </trkpt>
      <trkpt lat="44.13473" lon="0.61613">
        <ele>92</ele>
        <time>2025-08-10T09:22:05.696Z</time>
      </trkpt>
      <trkpt lat="44.13474" lon="0.61612">
        <ele>92</ele>
        <time>2025-08-10T09:22:06.696Z</time>
      </trkpt>
      <trkpt lat="44.13474" lon="0.61612">
        <ele>92</ele>
        <time>2025-08-10T09:22:07.696Z</time>
      </trkpt>
      <trkpt lat="44.13475" lon="0.61612">
        <ele>91</ele>
        <time>2025-08-10T09:22:08.696Z</time>
      </trkpt>
      <trkpt lat="44.13476" lon="0.61612">
        <ele>91</ele>
        <time>2025-08-10T09:22:09.696Z</time>
      </trkpt>
      <trkpt lat="44.13477" lon="0.61612">
        <ele>91</ele>
        <time>2025-08-10T09:22:10.696Z</time>
      </trkpt>
      <trkpt lat="44.13478" lon="0.61613">
        <ele>91</ele>
        <time>2025-08-10T09:22:11.696Z</time>
      </trkpt>
      <trkpt lat="44.13479" lon="0.61613">
        <ele>91</ele>
        <time>2025-08-10T09:22:12.696Z</time>
      </trkpt>
      <trkpt lat="44.13481" lon="0.61613">
        <ele>91</ele>
        <time>2025-08-10T09:22:13.696Z</time>
      </trkpt>
      <trkpt lat="44.13482" lon="0.61613">
        <ele>91</ele>
        <time>2025-08-10T09:22:14.696Z</time>
      </trkpt>
      <trkpt lat="44.13483" lon="0.61613">
        <ele>91</ele>
        <time>2025-08-10T09:22:15.696Z</time>
      </trkpt>
      <trkpt lat="44.13483" lon="0.61613">
        <ele>91</ele>
        <time>2025-08-10T09:22:16.696Z</time>
      </trkpt>
      <trkpt lat="44.13484" lon="0.61613">
        <ele>91</ele>
        <time>2025-08-10T09:22:17.696Z</time>
      </trkpt>
      <trkpt lat="44.13485" lon="0.61613">
        <ele>91</ele>
        <time>2025-08-10T09:22:18.696Z</time>
      </trkpt>
      <trkpt lat="44.13486" lon="0.61613">
        <ele>91</ele>
        <time>2025-08-10T09:22:19.696Z</time>
      </trkpt>
      <trkpt lat="44.13487" lon="0.61612">
        <ele>91</ele>
        <time>2025-08-10T09:22:20.696Z</time>
      </trkpt>
      <trkpt lat="44.13488" lon="0.61612">
        <ele>91</ele>
        <time>2025-08-10T09:22:21.696Z</time>
      </trkpt>
      <trkpt lat="44.13489" lon="0.61611">
        <ele>91</ele>
        <time>2025-08-10T09:22:22.696Z</time>
      </trkpt>
      <trkpt lat="44.1349" lon="0.61611">
        <ele>91</ele>
        <time>2025-08-10T09:22:23.696Z</time>
      </trkpt>
      <trkpt lat="44.1349" lon="0.6161">
        <ele>91</ele>
        <time>2025-08-10T09:22:24.696Z</time>
      </trkpt>
      <trkpt lat="44.13491" lon="0.61609">
        <ele>91</ele>
        <time>2025-08-10T09:22:25.696Z</time>
      </trkpt>
      <trkpt lat="44.13491" lon="0.61609">
        <ele>91</ele>
        <time>2025-08-10T09:22:26.696Z</time>
      </trkpt>
      <trkpt lat="44.13492" lon="0.61609">
        <ele>92</ele>
        <time>2025-08-10T09:22:27.696Z</time>
      </trkpt>
      <trkpt lat="44.13493" lon="0.61608">
        <ele>92</ele>
        <time>2025-08-10T09:22:28.696Z</time>
      </trkpt>
      <trkpt lat="44.13494" lon="0.61608">
        <ele>92</ele>
        <time>2025-08-10T09:22:29.696Z</time>
      </trkpt>
      <trkpt lat="44.13495" lon="0.61607">
        <ele>92</ele>
        <time>2025-08-10T09:22:30.696Z</time>
      </trkpt>
      <trkpt lat="44.13496" lon="0.61607">
        <ele>93</ele>
        <time>2025-08-10T09:22:31.696Z</time>
      </trkpt>
      <trkpt lat="44.13497" lon="0.61606">
        <ele>93</ele>
        <time>2025-08-10T09:22:32.696Z</time>
      </trkpt>
      <trkpt lat="44.13497" lon="0.61605">
        <ele>93</ele>
        <time>2025-08-10T09:22:33.696Z</time>
      </trkpt>
      <trkpt lat="44.13498" lon="0.61605">
        <ele>93</ele>
        <time>2025-08-10T09:22:34.696Z</time>
      </trkpt>
      <trkpt lat="44.13499" lon="0.61604">
        <ele>94</ele>
        <time>2025-08-10T09:22:35.696Z</time>
      </trkpt>
      <trkpt lat="44.135" lon="0.61604">
        <ele>94</ele>
        <time>2025-08-10T09:22:36.696Z</time>
      </trkpt>
      <trkpt lat="44.135" lon="0.61603">
        <ele>94</ele>
        <time>2025-08-10T09:22:37.696Z</time>
      </trkpt>
      <trkpt lat="44.13501" lon="0.61602">
        <ele>94</ele>
        <time>2025-08-10T09:22:38.696Z</time>
      </trkpt>
      <trkpt lat="44.13502" lon="0.61601">
        <ele>94</ele>
        <time>2025-08-10T09:22:39.696Z</time>
      </trkpt>
      <trkpt lat="44.13503" lon="0.61601">
        <ele>94</ele>
        <time>2025-08-10T09:22:40.696Z</time>
      </trkpt>
      <trkpt lat="44.13503" lon="0.616">
        <ele>94</ele>
        <time>2025-08-10T09:22:41.696Z</time>
      </trkpt>
      <trkpt lat="44.13504" lon="0.61599">
        <ele>95</ele>
        <time>2025-08-10T09:22:42.696Z</time>
      </trkpt>
      <trkpt lat="44.13504" lon="0.61598">
        <ele>95</ele>
        <time>2025-08-10T09:22:43.696Z</time>
      </trkpt>
      <trkpt lat="44.13505" lon="0.61598">
        <ele>95</ele>
        <time>2025-08-10T09:22:44.696Z</time>
      </trkpt>
      <trkpt lat="44.13506" lon="0.61597">
        <ele>95</ele>
        <time>2025-08-10T09:22:45.696Z</time>
      </trkpt>
      <trkpt lat="44.13506" lon="0.61597">
        <ele>95</ele>
        <time>2025-08-10T09:22:46.696Z</time>
      </trkpt>
      <trkpt lat="44.13507" lon="0.61596">
        <ele>95</ele>
        <time>2025-08-10T09:22:47.696Z</time>
      </trkpt>
      <trkpt lat="44.13507" lon="0.61595">
        <ele>96</ele>
        <time>2025-08-10T09:22:48.696Z</time>
      </trkpt>
      <trkpt lat="44.13508" lon="0.61594">
        <ele>96</ele>
        <time>2025-08-10T09:22:49.696Z</time>
      </trkpt>
      <trkpt lat="44.13509" lon="0.61594">
        <ele>96</ele>
        <time>2025-08-10T09:22:50.696Z</time>
      </trkpt>
      <trkpt lat="44.13509" lon="0.61593">
        <ele>96</ele>
        <time>2025-08-10T09:22:51.696Z</time>
      </trkpt>
      <trkpt lat="44.1351" lon="0.61592">
        <ele>96</ele>
        <time>2025-08-10T09:22:52.696Z</time>
      </trkpt>
      <trkpt lat="44.13511" lon="0.61592">
        <ele>96</ele>
        <time>2025-08-10T09:22:53.696Z</time>
      </trkpt>
      <trkpt lat="44.13512" lon="0.61591">
        <ele>96</ele>
        <time>2025-08-10T09:22:54.696Z</time>
      </trkpt>
      <trkpt lat="44.13512" lon="0.61591">
        <ele>96</ele>
        <time>2025-08-10T09:22:55.696Z</time>
      </trkpt>
      <trkpt lat="44.13513" lon="0.6159">
        <ele>97</ele>
        <time>2025-08-10T09:22:56.696Z</time>
      </trkpt>
      <trkpt lat="44.13514" lon="0.6159">
        <ele>97</ele>
        <time>2025-08-10T09:22:57.696Z</time>
      </trkpt>
      <trkpt lat="44.13515" lon="0.6159">
        <ele>97</ele>
        <time>2025-08-10T09:22:58.696Z</time>
      </trkpt>
      <trkpt lat="44.13516" lon="0.6159">
        <ele>97</ele>
        <time>2025-08-10T09:22:59.696Z</time>
      </trkpt>
      <trkpt lat="44.13517" lon="0.6159">
        <ele>96</ele>
        <time>2025-08-10T09:23:00.696Z</time>
      </trkpt>
      <trkpt lat="44.13518" lon="0.61589">
        <ele>96</ele>
        <time>2025-08-10T09:23:01.696Z</time>
      </trkpt>
      <trkpt lat="44.13518" lon="0.61589">
        <ele>96</ele>
        <time>2025-08-10T09:23:02.696Z</time>
      </trkpt>
      <trkpt lat="44.13519" lon="0.61588">
        <ele>96</ele>
        <time>2025-08-10T09:23:03.696Z</time>
      </trkpt>
      <trkpt lat="44.1352" lon="0.61587">
        <ele>96</ele>
        <time>2025-08-10T09:23:04.696Z</time>
      </trkpt>
      <trkpt lat="44.13521" lon="0.61587">
        <ele>96</ele>
        <time>2025-08-10T09:23:05.696Z</time>
      </trkpt>
      <trkpt lat="44.13521" lon="0.61586">
        <ele>96</ele>
        <time>2025-08-10T09:23:06.696Z</time>
      </trkpt>
      <trkpt lat="44.13522" lon="0.61585">
        <ele>97</ele>
        <time>2025-08-10T09:23:07.696Z</time>
      </trkpt>
      <trkpt lat="44.13522" lon="0.61585">
        <ele>97</ele>
        <time>2025-08-10T09:23:08.696Z</time>
      </trkpt>
      <trkpt lat="44.13523" lon="0.61585">
        <ele>97</ele>
        <time>2025-08-10T09:23:09.696Z</time>
      </trkpt>
      <trkpt lat="44.13524" lon="0.61585">
        <ele>97</ele>
        <time>2025-08-10T09:23:10.696Z</time>
      </trkpt>
      <trkpt lat="44.13525" lon="0.61584">
        <ele>97</ele>
        <time>2025-08-10T09:23:11.696Z</time>
      </trkpt>
      <trkpt lat="44.13525" lon="0.61584">
        <ele>97</ele>
        <time>2025-08-10T09:23:12.696Z</time>
      </trkpt>
      <trkpt lat="44.13526" lon="0.61584">
        <ele>97</ele>
        <time>2025-08-10T09:23:13.696Z</time>
      </trkpt>
      <trkpt lat="44.13527" lon="0.61584">
        <ele>97</ele>
        <time>2025-08-10T09:23:14.696Z</time>
      </trkpt>
      <trkpt lat="44.13527" lon="0.61583">
        <ele>97</ele>
        <time>2025-08-10T09:23:15.696Z</time>
      </trkpt>
      <trkpt lat="44.13528" lon="0.61583">
        <ele>98</ele>
        <time>2025-08-10T09:23:16.696Z</time>
      </trkpt>
      <trkpt lat="44.13529" lon="0.61582">
        <ele>98</ele>
        <time>2025-08-10T09:23:17.696Z</time>
      </trkpt>
      <trkpt lat="44.1353" lon="0.6158">
        <ele>98</ele>
        <time>2025-08-10T09:23:18.696Z</time>
      </trkpt>
      <trkpt lat="44.1353" lon="0.6158">
        <ele>98</ele>
        <time>2025-08-10T09:23:19.696Z</time>
      </trkpt>
      <trkpt lat="44.1353" lon="0.61579">
        <ele>98</ele>
        <time>2025-08-10T09:23:20.696Z</time>
      </trkpt>
      <trkpt lat="44.13531" lon="0.61579">
        <ele>98</ele>
        <time>2025-08-10T09:23:21.696Z</time>
      </trkpt>
      <trkpt lat="44.13532" lon="0.61579">
        <ele>98</ele>
        <time>2025-08-10T09:23:22.696Z</time>
      </trkpt>
      <trkpt lat="44.13532" lon="0.61578">
        <ele>98</ele>
        <time>2025-08-10T09:23:23.696Z</time>
      </trkpt>
      <trkpt lat="44.13533" lon="0.61578">
        <ele>99</ele>
        <time>2025-08-10T09:23:24.696Z</time>
      </trkpt>
      <trkpt lat="44.13534" lon="0.61578">
        <ele>99</ele>
        <time>2025-08-10T09:23:25.696Z</time>
      </trkpt>
      <trkpt lat="44.13535" lon="0.61578">
        <ele>99</ele>
        <time>2025-08-10T09:23:26.696Z</time>
      </trkpt>
      <trkpt lat="44.13535" lon="0.61578">
        <ele>99</ele>
        <time>2025-08-10T09:23:27.696Z</time>
      </trkpt>
      <trkpt lat="44.13536" lon="0.61577">
        <ele>99</ele>
        <time>2025-08-10T09:23:28.697Z</time>
      </trkpt>
      <trkpt lat="44.13537" lon="0.61577">
        <ele>98</ele>
        <time>2025-08-10T09:23:29.696Z</time>
      </trkpt>
      <trkpt lat="44.13538" lon="0.61577">
        <ele>98</ele>
        <time>2025-08-10T09:23:30.696Z</time>
      </trkpt>
      <trkpt lat="44.13538" lon="0.61577">
        <ele>98</ele>
        <time>2025-08-10T09:23:31.696Z</time>
      </trkpt>
      <trkpt lat="44.13539" lon="0.61576">
        <ele>98</ele>
        <time>2025-08-10T09:23:32.696Z</time>
      </trkpt>
      <trkpt lat="44.13539" lon="0.61575">
        <ele>98</ele>
        <time>2025-08-10T09:23:33.696Z</time>
      </trkpt>
      <trkpt lat="44.1354" lon="0.61575">
        <ele>98</ele>
        <time>2025-08-10T09:23:34.696Z</time>
      </trkpt>
      <trkpt lat="44.13541" lon="0.61574">
        <ele>98</ele>
        <time>2025-08-10T09:23:35.696Z</time>
      </trkpt>
      <trkpt lat="44.13541" lon="0.61574">
        <ele>98</ele>
        <time>2025-08-10T09:23:36.696Z</time>
      </trkpt>
      <trkpt lat="44.13542" lon="0.61573">
        <ele>98</ele>
        <time>2025-08-10T09:23:37.696Z</time>
      </trkpt>
      <trkpt lat="44.13543" lon="0.61572">
        <ele>98</ele>
        <time>2025-08-10T09:23:38.696Z</time>
      </trkpt>
      <trkpt lat="44.13544" lon="0.61572">
        <ele>98</ele>
        <time>2025-08-10T09:23:39.696Z</time>
      </trkpt>
      <trkpt lat="44.13544" lon="0.61571">
        <ele>98</ele>
        <time>2025-08-10T09:23:40.696Z</time>
      </trkpt>
      <trkpt lat="44.13544" lon="0.6157">
        <ele>99</ele>
        <time>2025-08-10T09:23:41.696Z</time>
      </trkpt>
      <trkpt lat="44.13545" lon="0.6157">
        <ele>99</ele>
        <time>2025-08-10T09:23:42.696Z</time>
      </trkpt>
      <trkpt lat="44.13546" lon="0.61569">
        <ele>99</ele>
        <time>2025-08-10T09:23:43.696Z</time>
      </trkpt>
      <trkpt lat="44.13547" lon="0.61568">
        <ele>99</ele>
        <time>2025-08-10T09:23:44.696Z</time>
      </trkpt>
      <trkpt lat="44.13547" lon="0.61567">
        <ele>99</ele>
        <time>2025-08-10T09:23:45.696Z</time>
      </trkpt>
      <trkpt lat="44.13548" lon="0.61566">
        <ele>100</ele>
        <time>2025-08-10T09:23:46.696Z</time>
      </trkpt>
      <trkpt lat="44.13548" lon="0.61566">
        <ele>100</ele>
        <time>2025-08-10T09:23:47.696Z</time>
      </trkpt>
      <trkpt lat="44.13549" lon="0.61564">
        <ele>101</ele>
        <time>2025-08-10T09:23:48.696Z</time>
      </trkpt>
      <trkpt lat="44.13549" lon="0.61563">
        <ele>101</ele>
        <time>2025-08-10T09:23:49.696Z</time>
      </trkpt>
      <trkpt lat="44.13549" lon="0.61562">
        <ele>101</ele>
        <time>2025-08-10T09:23:50.696Z</time>
      </trkpt>
      <trkpt lat="44.1355" lon="0.61561">
        <ele>101</ele>
        <time>2025-08-10T09:23:51.696Z</time>
      </trkpt>
      <trkpt lat="44.13551" lon="0.61561">
        <ele>101</ele>
        <time>2025-08-10T09:23:52.696Z</time>
      </trkpt>
      <trkpt lat="44.13551" lon="0.6156">
        <ele>102</ele>
        <time>2025-08-10T09:23:53.696Z</time>
      </trkpt>
      <trkpt lat="44.13552" lon="0.6156">
        <ele>102</ele>
        <time>2025-08-10T09:23:54.696Z</time>
      </trkpt>
      <trkpt lat="44.13552" lon="0.61559">
        <ele>102</ele>
        <time>2025-08-10T09:23:55.696Z</time>
      </trkpt>
      <trkpt lat="44.13553" lon="0.61559">
        <ele>103</ele>
        <time>2025-08-10T09:23:56.696Z</time>
      </trkpt>
      <trkpt lat="44.13553" lon="0.61558">
        <ele>103</ele>
        <time>2025-08-10T09:23:57.696Z</time>
      </trkpt>
      <trkpt lat="44.13554" lon="0.61557">
        <ele>103</ele>
        <time>2025-08-10T09:23:58.696Z</time>
      </trkpt>
      <trkpt lat="44.13554" lon="0.61555">
        <ele>103</ele>
        <time>2025-08-10T09:23:59.696Z</time>
      </trkpt>
      <trkpt lat="44.13554" lon="0.61554">
        <ele>103</ele>
        <time>2025-08-10T09:24:00.696Z</time>
      </trkpt>
      <trkpt lat="44.13555" lon="0.61553">
        <ele>103</ele>
        <time>2025-08-10T09:24:01.696Z</time>
      </trkpt>
      <trkpt lat="44.13556" lon="0.61552">
        <ele>103</ele>
        <time>2025-08-10T09:24:02.696Z</time>
      </trkpt>
      <trkpt lat="44.13556" lon="0.61551">
        <ele>103</ele>
        <time>2025-08-10T09:24:03.696Z</time>
      </trkpt>
      <trkpt lat="44.13557" lon="0.6155">
        <ele>104</ele>
        <time>2025-08-10T09:24:04.696Z</time>
      </trkpt>
      <trkpt lat="44.13557" lon="0.61548">
        <ele>104</ele>
        <time>2025-08-10T09:24:05.696Z</time>
      </trkpt>
      <trkpt lat="44.13557" lon="0.61547">
        <ele>105</ele>
        <time>2025-08-10T09:24:06.696Z</time>
      </trkpt>
      <trkpt lat="44.13557" lon="0.61547">
        <ele>105</ele>
        <time>2025-08-10T09:24:07.696Z</time>
      </trkpt>
      <trkpt lat="44.13558" lon="0.61546">
        <ele>106</ele>
        <time>2025-08-10T09:24:08.696Z</time>
      </trkpt>
      <trkpt lat="44.13558" lon="0.61544">
        <ele>107</ele>
        <time>2025-08-10T09:24:09.696Z</time>
      </trkpt>
      <trkpt lat="44.13558" lon="0.61543">
        <ele>108</ele>
        <time>2025-08-10T09:24:10.696Z</time>
      </trkpt>
      <trkpt lat="44.13558" lon="0.61543">
        <ele>109</ele>
        <time>2025-08-10T09:24:11.697Z</time>
      </trkpt>
      <trkpt lat="44.13558" lon="0.61542">
        <ele>110</ele>
        <time>2025-08-10T09:24:12.696Z</time>
      </trkpt>
      <trkpt lat="44.13558" lon="0.61541">
        <ele>111</ele>
        <time>2025-08-10T09:24:13.696Z</time>
      </trkpt>
      <trkpt lat="44.13558" lon="0.6154">
        <ele>112</ele>
        <time>2025-08-10T09:24:14.696Z</time>
      </trkpt>
      <trkpt lat="44.13557" lon="0.61539">
        <ele>113</ele>
        <time>2025-08-10T09:24:15.696Z</time>
      </trkpt>
      <trkpt lat="44.13557" lon="0.61539">
        <ele>113</ele>
        <time>2025-08-10T09:24:16.696Z</time>
      </trkpt>
      <trkpt lat="44.13557" lon="0.61537">
        <ele>114</ele>
        <time>2025-08-10T09:24:17.696Z</time>
      </trkpt>
      <trkpt lat="44.13556" lon="0.61537">
        <ele>114</ele>
        <time>2025-08-10T09:24:18.696Z</time>
      </trkpt>
      <trkpt lat="44.13556" lon="0.61536">
        <ele>114</ele>
        <time>2025-08-10T09:24:19.696Z</time>
      </trkpt>
      <trkpt lat="44.13556" lon="0.61535">
        <ele>114</ele>
        <time>2025-08-10T09:24:20.696Z</time>
      </trkpt>
      <trkpt lat="44.13555" lon="0.61534">
        <ele>115</ele>
        <time>2025-08-10T09:24:21.696Z</time>
      </trkpt>
      <trkpt lat="44.13555" lon="0.61533">
        <ele>115</ele>
        <time>2025-08-10T09:24:22.696Z</time>
      </trkpt>
      <trkpt lat="44.13555" lon="0.61533">
        <ele>115</ele>
        <time>2025-08-10T09:24:23.696Z</time>
      </trkpt>
      <trkpt lat="44.13555" lon="0.61533">
        <ele>116</ele>
        <time>2025-08-10T09:24:24.696Z</time>
      </trkpt>
      <trkpt lat="44.13555" lon="0.61533">
        <ele>116</ele>
        <time>2025-08-10T09:24:25.696Z</time>
      </trkpt>
      <trkpt lat="44.13554" lon="0.61533">
        <ele>117</ele>
        <time>2025-08-10T09:24:26.696Z</time>
      </trkpt>
      <trkpt lat="44.13554" lon="0.61532">
        <ele>117</ele>
        <time>2025-08-10T09:24:27.696Z</time>
      </trkpt>
      <trkpt lat="44.13553" lon="0.61532">
        <ele>118</ele>
        <time>2025-08-10T09:24:28.696Z</time>
      </trkpt>
      <trkpt lat="44.13553" lon="0.61532">
        <ele>118</ele>
        <time>2025-08-10T09:24:29.696Z</time>
      </trkpt>
      <trkpt lat="44.13552" lon="0.61532">
        <ele>119</ele>
        <time>2025-08-10T09:24:30.696Z</time>
      </trkpt>
      <trkpt lat="44.13551" lon="0.61531">
        <ele>119</ele>
        <time>2025-08-10T09:24:31.696Z</time>
      </trkpt>
      <trkpt lat="44.13551" lon="0.61531">
        <ele>119</ele>
        <time>2025-08-10T09:24:32.696Z</time>
      </trkpt>
      <trkpt lat="44.13551" lon="0.6153">
        <ele>119</ele>
        <time>2025-08-10T09:24:33.696Z</time>
      </trkpt>
      <trkpt lat="44.1355" lon="0.61529">
        <ele>119</ele>
        <time>2025-08-10T09:24:34.696Z</time>
      </trkpt>
      <trkpt lat="44.13551" lon="0.6153">
        <ele>119</ele>
        <time>2025-08-10T09:24:35.696Z</time>
      </trkpt>
      <trkpt lat="44.1355" lon="0.61529">
        <ele>119</ele>
        <time>2025-08-10T09:24:36.696Z</time>
      </trkpt>
      <trkpt lat="44.1355" lon="0.61528">
        <ele>119</ele>
        <time>2025-08-10T09:24:37.696Z</time>
      </trkpt>
      <trkpt lat="44.1355" lon="0.61525">
        <ele>119</ele>
        <time>2025-08-10T09:24:38.696Z</time>
      </trkpt>
      <trkpt lat="44.1355" lon="0.61524">
        <ele>119</ele>
        <time>2025-08-10T09:24:39.696Z</time>
      </trkpt>
      <trkpt lat="44.1355" lon="0.61522">
        <ele>120</ele>
        <time>2025-08-10T09:24:40.696Z</time>
      </trkpt>
      <trkpt lat="44.1355" lon="0.6152">
        <ele>120</ele>
        <time>2025-08-10T09:24:41.696Z</time>
      </trkpt>
      <trkpt lat="44.1355" lon="0.61518">
        <ele>121</ele>
        <time>2025-08-10T09:24:42.696Z</time>
      </trkpt>
      <trkpt lat="44.1355" lon="0.61518">
        <ele>122</ele>
        <time>2025-08-10T09:24:43.696Z</time>
      </trkpt>
      <trkpt lat="44.1355" lon="0.61516">
        <ele>122</ele>
        <time>2025-08-10T09:24:44.696Z</time>
      </trkpt>
      <trkpt lat="44.1355" lon="0.61515">
        <ele>122</ele>
        <time>2025-08-10T09:24:45.696Z</time>
      </trkpt>
      <trkpt lat="44.13551" lon="0.61513">
        <ele>122</ele>
        <time>2025-08-10T09:24:46.696Z</time>
      </trkpt>
      <trkpt lat="44.13552" lon="0.61513">
        <ele>122</ele>
        <time>2025-08-10T09:24:47.696Z</time>
      </trkpt>
      <trkpt lat="44.13552" lon="0.61512">
        <ele>122</ele>
        <time>2025-08-10T09:24:48.696Z</time>
      </trkpt>
      <trkpt lat="44.13553" lon="0.6151">
        <ele>122</ele>
        <time>2025-08-10T09:24:49.696Z</time>
      </trkpt>
      <trkpt lat="44.13553" lon="0.61508">
        <ele>121</ele>
        <time>2025-08-10T09:24:50.696Z</time>
      </trkpt>
      <trkpt lat="44.13554" lon="0.61507">
        <ele>121</ele>
        <time>2025-08-10T09:24:51.696Z</time>
      </trkpt>
      <trkpt lat="44.13556" lon="0.61505">
        <ele>120</ele>
        <time>2025-08-10T09:24:52.696Z</time>
      </trkpt>
      <trkpt lat="44.13556" lon="0.61504">
        <ele>119</ele>
        <time>2025-08-10T09:24:53.696Z</time>
      </trkpt>
      <trkpt lat="44.13557" lon="0.61502">
        <ele>118</ele>
        <time>2025-08-10T09:24:54.696Z</time>
      </trkpt>
      <trkpt lat="44.13558" lon="0.61501">
        <ele>118</ele>
        <time>2025-08-10T09:24:55.696Z</time>
      </trkpt>
      <trkpt lat="44.13559" lon="0.61501">
        <ele>117</ele>
        <time>2025-08-10T09:24:56.696Z</time>
      </trkpt>
      <trkpt lat="44.1356" lon="0.615">
        <ele>116</ele>
        <time>2025-08-10T09:24:57.696Z</time>
      </trkpt>
      <trkpt lat="44.1356" lon="0.61499">
        <ele>116</ele>
        <time>2025-08-10T09:24:58.696Z</time>
      </trkpt>
      <trkpt lat="44.13561" lon="0.61498">
        <ele>115</ele>
        <time>2025-08-10T09:24:59.696Z</time>
      </trkpt>
      <trkpt lat="44.13562" lon="0.61497">
        <ele>115</ele>
        <time>2025-08-10T09:25:00.696Z</time>
      </trkpt>
      <trkpt lat="44.13563" lon="0.61497">
        <ele>115</ele>
        <time>2025-08-10T09:25:01.696Z</time>
      </trkpt>
      <trkpt lat="44.13565" lon="0.61496">
        <ele>114</ele>
        <time>2025-08-10T09:25:02.696Z</time>
      </trkpt>
      <trkpt lat="44.13565" lon="0.61495">
        <ele>114</ele>
        <time>2025-08-10T09:25:03.696Z</time>
      </trkpt>
      <trkpt lat="44.13566" lon="0.61494">
        <ele>114</ele>
        <time>2025-08-10T09:25:04.696Z</time>
      </trkpt>
      <trkpt lat="44.13567" lon="0.61493">
        <ele>114</ele>
        <time>2025-08-10T09:25:05.696Z</time>
      </trkpt>
      <trkpt lat="44.13568" lon="0.61492">
        <ele>114</ele>
        <time>2025-08-10T09:25:06.696Z</time>
      </trkpt>
      <trkpt lat="44.13569" lon="0.6149">
        <ele>114</ele>
        <time>2025-08-10T09:25:07.696Z</time>
      </trkpt>
      <trkpt lat="44.1357" lon="0.61489">
        <ele>115</ele>
        <time>2025-08-10T09:25:08.696Z</time>
      </trkpt>
      <trkpt lat="44.13571" lon="0.61488">
        <ele>115</ele>
        <time>2025-08-10T09:25:09.696Z</time>
      </trkpt>
      <trkpt lat="44.13572" lon="0.61487">
        <ele>115</ele>
        <time>2025-08-10T09:25:10.696Z</time>
      </trkpt>
      <trkpt lat="44.13573" lon="0.61486">
        <ele>115</ele>
        <time>2025-08-10T09:25:11.696Z</time>
      </trkpt>
      <trkpt lat="44.13574" lon="0.61486">
        <ele>114</ele>
        <time>2025-08-10T09:25:12.696Z</time>
      </trkpt>
      <trkpt lat="44.13576" lon="0.61485">
        <ele>114</ele>
        <time>2025-08-10T09:25:13.696Z</time>
      </trkpt>
      <trkpt lat="44.13577" lon="0.61486">
        <ele>114</ele>
        <time>2025-08-10T09:25:14.696Z</time>
      </trkpt>
      <trkpt lat="44.13578" lon="0.61485">
        <ele>114</ele>
        <time>2025-08-10T09:25:15.696Z</time>
      </trkpt>
      <trkpt lat="44.13579" lon="0.61484">
        <ele>114</ele>
        <time>2025-08-10T09:25:16.696Z</time>
      </trkpt>
      <trkpt lat="44.1358" lon="0.61483">
        <ele>114</ele>
        <time>2025-08-10T09:25:17.696Z</time>
      </trkpt>
      <trkpt lat="44.13581" lon="0.61482">
        <ele>114</ele>
        <time>2025-08-10T09:25:18.696Z</time>
      </trkpt>
      <trkpt lat="44.13582" lon="0.61482">
        <ele>115</ele>
        <time>2025-08-10T09:25:19.696Z</time>
      </trkpt>
      <trkpt lat="44.13583" lon="0.61481">
        <ele>115</ele>
        <time>2025-08-10T09:25:20.696Z</time>
      </trkpt>
      <trkpt lat="44.13584" lon="0.61479">
        <ele>115</ele>
        <time>2025-08-10T09:25:21.696Z</time>
      </trkpt>
      <trkpt lat="44.13585" lon="0.61478">
        <ele>115</ele>
        <time>2025-08-10T09:25:22.696Z</time>
      </trkpt>
      <trkpt lat="44.13586" lon="0.61477">
        <ele>115</ele>
        <time>2025-08-10T09:25:23.696Z</time>
      </trkpt>
      <trkpt lat="44.13587" lon="0.61476">
        <ele>115</ele>
        <time>2025-08-10T09:25:24.696Z</time>
      </trkpt>
      <trkpt lat="44.13588" lon="0.61476">
        <ele>116</ele>
        <time>2025-08-10T09:25:25.696Z</time>
      </trkpt>
      <trkpt lat="44.13589" lon="0.61475">
        <ele>116</ele>
        <time>2025-08-10T09:25:26.696Z</time>
      </trkpt>
      <trkpt lat="44.1359" lon="0.61475">
        <ele>116</ele>
        <time>2025-08-10T09:25:27.696Z</time>
      </trkpt>
      <trkpt lat="44.13591" lon="0.61474">
        <ele>116</ele>
        <time>2025-08-10T09:25:28.696Z</time>
      </trkpt>
      <trkpt lat="44.13592" lon="0.61473">
        <ele>116</ele>
        <time>2025-08-10T09:25:29.696Z</time>
      </trkpt>
      <trkpt lat="44.13593" lon="0.61472">
        <ele>116</ele>
        <time>2025-08-10T09:25:30.696Z</time>
      </trkpt>
      <trkpt lat="44.13594" lon="0.61472">
        <ele>115</ele>
        <time>2025-08-10T09:25:31.696Z</time>
      </trkpt>
      <trkpt lat="44.13595" lon="0.61471">
        <ele>116</ele>
        <time>2025-08-10T09:25:32.696Z</time>
      </trkpt>
      <trkpt lat="44.13596" lon="0.6147">
        <ele>116</ele>
        <time>2025-08-10T09:25:33.696Z</time>
      </trkpt>
      <trkpt lat="44.13597" lon="0.61469">
        <ele>116</ele>
        <time>2025-08-10T09:25:34.696Z</time>
      </trkpt>
      <trkpt lat="44.13597" lon="0.61468">
        <ele>116</ele>
        <time>2025-08-10T09:25:35.696Z</time>
      </trkpt>
      <trkpt lat="44.13598" lon="0.61468">
        <ele>116</ele>
        <time>2025-08-10T09:25:36.696Z</time>
      </trkpt>
      <trkpt lat="44.13599" lon="0.61467">
        <ele>116</ele>
        <time>2025-08-10T09:25:37.696Z</time>
      </trkpt>
      <trkpt lat="44.136" lon="0.61466">
        <ele>116</ele>
        <time>2025-08-10T09:25:38.696Z</time>
      </trkpt>
      <trkpt lat="44.13601" lon="0.61466">
        <ele>116</ele>
        <time>2025-08-10T09:25:39.696Z</time>
      </trkpt>
      <trkpt lat="44.13602" lon="0.61466">
        <ele>116</ele>
        <time>2025-08-10T09:25:40.696Z</time>
      </trkpt>
      <trkpt lat="44.13603" lon="0.61465">
        <ele>116</ele>
        <time>2025-08-10T09:25:41.696Z</time>
      </trkpt>
      <trkpt lat="44.13604" lon="0.61464">
        <ele>116</ele>
        <time>2025-08-10T09:25:42.696Z</time>
      </trkpt>
      <trkpt lat="44.13605" lon="0.61463">
        <ele>116</ele>
        <time>2025-08-10T09:25:43.696Z</time>
      </trkpt>
      <trkpt lat="44.13606" lon="0.61462">
        <ele>116</ele>
        <time>2025-08-10T09:25:44.696Z</time>
      </trkpt>
      <trkpt lat="44.13607" lon="0.61461">
        <ele>117</ele>
        <time>2025-08-10T09:25:45.696Z</time>
      </trkpt>
      <trkpt lat="44.13608" lon="0.61461">
        <ele>117</ele>
        <time>2025-08-10T09:25:46.696Z</time>
      </trkpt>
      <trkpt lat="44.13609" lon="0.6146">
        <ele>117</ele>
        <time>2025-08-10T09:25:47.696Z</time>
      </trkpt>
      <trkpt lat="44.1361" lon="0.6146">
        <ele>117</ele>
        <time>2025-08-10T09:25:48.696Z</time>
      </trkpt>
      <trkpt lat="44.13611" lon="0.61459">
        <ele>117</ele>
        <time>2025-08-10T09:25:49.696Z</time>
      </trkpt>
      <trkpt lat="44.13612" lon="0.61459">
        <ele>117</ele>
        <time>2025-08-10T09:25:50.696Z</time>
      </trkpt>
      <trkpt lat="44.13613" lon="0.61458">
        <ele>116</ele>
        <time>2025-08-10T09:25:51.696Z</time>
      </trkpt>
      <trkpt lat="44.13614" lon="0.61457">
        <ele>116</ele>
        <time>2025-08-10T09:25:52.696Z</time>
      </trkpt>
      <trkpt lat="44.13615" lon="0.61457">
        <ele>117</ele>
        <time>2025-08-10T09:25:53.696Z</time>
      </trkpt>
      <trkpt lat="44.13616" lon="0.61456">
        <ele>117</ele>
        <time>2025-08-10T09:25:54.696Z</time>
      </trkpt>
      <trkpt lat="44.13617" lon="0.61455">
        <ele>117</ele>
        <time>2025-08-10T09:25:55.696Z</time>
      </trkpt>
      <trkpt lat="44.13618" lon="0.61455">
        <ele>117</ele>
        <time>2025-08-10T09:25:56.696Z</time>
      </trkpt>
      <trkpt lat="44.13619" lon="0.61454">
        <ele>117</ele>
        <time>2025-08-10T09:25:57.696Z</time>
      </trkpt>
      <trkpt lat="44.1362" lon="0.61454">
        <ele>118</ele>
        <time>2025-08-10T09:25:58.696Z</time>
      </trkpt>
      <trkpt lat="44.13621" lon="0.61453">
        <ele>118</ele>
        <time>2025-08-10T09:25:59.696Z</time>
      </trkpt>
      <trkpt lat="44.13622" lon="0.61453">
        <ele>118</ele>
        <time>2025-08-10T09:26:00.696Z</time>
      </trkpt>
      <trkpt lat="44.13623" lon="0.61453">
        <ele>118</ele>
        <time>2025-08-10T09:26:01.696Z</time>
      </trkpt>
      <trkpt lat="44.13624" lon="0.61452">
        <ele>118</ele>
        <time>2025-08-10T09:26:02.696Z</time>
      </trkpt>
      <trkpt lat="44.13624" lon="0.61452">
        <ele>119</ele>
        <time>2025-08-10T09:26:03.696Z</time>
      </trkpt>
      <trkpt lat="44.13625" lon="0.61451">
        <ele>119</ele>
        <time>2025-08-10T09:26:04.696Z</time>
      </trkpt>
      <trkpt lat="44.13626" lon="0.61451">
        <ele>119</ele>
        <time>2025-08-10T09:26:05.696Z</time>
      </trkpt>
      <trkpt lat="44.13627" lon="0.61449">
        <ele>119</ele>
        <time>2025-08-10T09:26:06.696Z</time>
      </trkpt>
      <trkpt lat="44.13627" lon="0.61449">
        <ele>119</ele>
        <time>2025-08-10T09:26:07.696Z</time>
      </trkpt>
      <trkpt lat="44.13628" lon="0.61448">
        <ele>119</ele>
        <time>2025-08-10T09:26:08.696Z</time>
      </trkpt>
      <trkpt lat="44.13629" lon="0.61447">
        <ele>118</ele>
        <time>2025-08-10T09:26:09.696Z</time>
      </trkpt>
      <trkpt lat="44.1363" lon="0.61446">
        <ele>118</ele>
        <time>2025-08-10T09:26:10.696Z</time>
      </trkpt>
      <trkpt lat="44.1363" lon="0.61445">
        <ele>119</ele>
        <time>2025-08-10T09:26:11.696Z</time>
      </trkpt>
      <trkpt lat="44.13631" lon="0.61444">
        <ele>119</ele>
        <time>2025-08-10T09:26:12.696Z</time>
      </trkpt>
      <trkpt lat="44.13632" lon="0.61443">
        <ele>119</ele>
        <time>2025-08-10T09:26:13.696Z</time>
      </trkpt>
      <trkpt lat="44.13633" lon="0.61442">
        <ele>119</ele>
        <time>2025-08-10T09:26:14.696Z</time>
      </trkpt>
      <trkpt lat="44.13634" lon="0.61442">
        <ele>119</ele>
        <time>2025-08-10T09:26:15.696Z</time>
      </trkpt>
      <trkpt lat="44.13635" lon="0.61441">
        <ele>119</ele>
        <time>2025-08-10T09:26:16.696Z</time>
      </trkpt>
      <trkpt lat="44.13636" lon="0.6144">
        <ele>119</ele>
        <time>2025-08-10T09:26:17.696Z</time>
      </trkpt>
      <trkpt lat="44.13637" lon="0.61439">
        <ele>120</ele>
        <time>2025-08-10T09:26:18.696Z</time>
      </trkpt>
      <trkpt lat="44.13638" lon="0.61439">
        <ele>120</ele>
        <time>2025-08-10T09:26:19.696Z</time>
      </trkpt>
      <trkpt lat="44.13639" lon="0.61438">
        <ele>119</ele>
        <time>2025-08-10T09:26:20.696Z</time>
      </trkpt>
      <trkpt lat="44.1364" lon="0.61438">
        <ele>119</ele>
        <time>2025-08-10T09:26:21.696Z</time>
      </trkpt>
      <trkpt lat="44.13641" lon="0.61437">
        <ele>119</ele>
        <time>2025-08-10T09:26:22.696Z</time>
      </trkpt>
      <trkpt lat="44.13642" lon="0.61437">
        <ele>119</ele>
        <time>2025-08-10T09:26:23.696Z</time>
      </trkpt>
      <trkpt lat="44.13643" lon="0.61436">
        <ele>119</ele>
        <time>2025-08-10T09:26:24.696Z</time>
      </trkpt>
      <trkpt lat="44.13644" lon="0.61435">
        <ele>119</ele>
        <time>2025-08-10T09:26:25.696Z</time>
      </trkpt>
      <trkpt lat="44.13644" lon="0.61435">
        <ele>119</ele>
        <time>2025-08-10T09:26:26.696Z</time>
      </trkpt>
      <trkpt lat="44.13645" lon="0.61434">
        <ele>119</ele>
        <time>2025-08-10T09:26:27.696Z</time>
      </trkpt>
      <trkpt lat="44.13646" lon="0.61434">
        <ele>119</ele>
        <time>2025-08-10T09:26:28.696Z</time>
      </trkpt>
      <trkpt lat="44.13647" lon="0.61433">
        <ele>119</ele>
        <time>2025-08-10T09:26:29.696Z</time>
      </trkpt>
      <trkpt lat="44.13648" lon="0.61433">
        <ele>119</ele>
        <time>2025-08-10T09:26:30.696Z</time>
      </trkpt>
      <trkpt lat="44.13649" lon="0.61432">
        <ele>119</ele>
        <time>2025-08-10T09:26:31.696Z</time>
      </trkpt>
      <trkpt lat="44.1365" lon="0.61432">
        <ele>120</ele>
        <time>2025-08-10T09:26:32.696Z</time>
      </trkpt>
      <trkpt lat="44.13651" lon="0.61431">
        <ele>120</ele>
        <time>2025-08-10T09:26:33.696Z</time>
      </trkpt>
      <trkpt lat="44.13652" lon="0.6143">
        <ele>121</ele>
        <time>2025-08-10T09:26:34.696Z</time>
      </trkpt>
      <trkpt lat="44.13653" lon="0.61429">
        <ele>121</ele>
        <time>2025-08-10T09:26:35.696Z</time>
      </trkpt>
      <trkpt lat="44.13654" lon="0.61428">
        <ele>122</ele>
        <time>2025-08-10T09:26:36.696Z</time>
      </trkpt>
      <trkpt lat="44.13655" lon="0.61428">
        <ele>123</ele>
        <time>2025-08-10T09:26:37.696Z</time>
      </trkpt>
      <trkpt lat="44.13655" lon="0.61427">
        <ele>123</ele>
        <time>2025-08-10T09:26:38.696Z</time>
      </trkpt>
      <trkpt lat="44.13656" lon="0.61426">
        <ele>123</ele>
        <time>2025-08-10T09:26:39.696Z</time>
      </trkpt>
      <trkpt lat="44.13657" lon="0.61425">
        <ele>123</ele>
        <time>2025-08-10T09:26:40.696Z</time>
      </trkpt>
      <trkpt lat="44.13658" lon="0.61425">
        <ele>123</ele>
        <time>2025-08-10T09:26:41.696Z</time>
      </trkpt>
      <trkpt lat="44.13659" lon="0.61424">
        <ele>123</ele>
        <time>2025-08-10T09:26:42.696Z</time>
      </trkpt>
      <trkpt lat="44.1366" lon="0.61423">
        <ele>123</ele>
        <time>2025-08-10T09:26:43.696Z</time>
      </trkpt>
      <trkpt lat="44.1366" lon="0.61422">
        <ele>123</ele>
        <time>2025-08-10T09:26:44.696Z</time>
      </trkpt>
      <trkpt lat="44.13661" lon="0.61422">
        <ele>123</ele>
        <time>2025-08-10T09:26:45.696Z</time>
      </trkpt>
      <trkpt lat="44.13662" lon="0.61421">
        <ele>123</ele>
        <time>2025-08-10T09:26:46.696Z</time>
      </trkpt>
      <trkpt lat="44.13663" lon="0.6142">
        <ele>122</ele>
        <time>2025-08-10T09:26:47.696Z</time>
      </trkpt>
      <trkpt lat="44.13664" lon="0.61419">
        <ele>123</ele>
        <time>2025-08-10T09:26:48.696Z</time>
      </trkpt>
      <trkpt lat="44.13665" lon="0.61419">
        <ele>123</ele>
        <time>2025-08-10T09:26:49.696Z</time>
      </trkpt>
      <trkpt lat="44.13666" lon="0.61418">
        <ele>123</ele>
        <time>2025-08-10T09:26:50.696Z</time>
      </trkpt>
      <trkpt lat="44.13667" lon="0.61418">
        <ele>123</ele>
        <time>2025-08-10T09:26:51.696Z</time>
      </trkpt>
      <trkpt lat="44.13668" lon="0.61418">
        <ele>123</ele>
        <time>2025-08-10T09:26:52.696Z</time>
      </trkpt>
      <trkpt lat="44.13669" lon="0.61418">
        <ele>123</ele>
        <time>2025-08-10T09:26:53.696Z</time>
      </trkpt>
      <trkpt lat="44.1367" lon="0.61417">
        <ele>124</ele>
        <time>2025-08-10T09:26:54.696Z</time>
      </trkpt>
      <trkpt lat="44.13671" lon="0.61417">
        <ele>124</ele>
        <time>2025-08-10T09:26:55.696Z</time>
      </trkpt>
      <trkpt lat="44.13672" lon="0.61417">
        <ele>124</ele>
        <time>2025-08-10T09:26:56.696Z</time>
      </trkpt>
      <trkpt lat="44.13673" lon="0.61417">
        <ele>124</ele>
        <time>2025-08-10T09:26:57.696Z</time>
      </trkpt>
      <trkpt lat="44.13674" lon="0.61417">
        <ele>124</ele>
        <time>2025-08-10T09:26:58.696Z</time>
      </trkpt>
      <trkpt lat="44.13675" lon="0.61416">
        <ele>124</ele>
        <time>2025-08-10T09:26:59.696Z</time>
      </trkpt>
      <trkpt lat="44.13676" lon="0.61416">
        <ele>124</ele>
        <time>2025-08-10T09:27:00.696Z</time>
      </trkpt>
      <trkpt lat="44.13677" lon="0.61415">
        <ele>124</ele>
        <time>2025-08-10T09:27:01.696Z</time>
      </trkpt>
      <trkpt lat="44.13678" lon="0.61415">
        <ele>124</ele>
        <time>2025-08-10T09:27:02.696Z</time>
      </trkpt>
      <trkpt lat="44.13678" lon="0.61415">
        <ele>124</ele>
        <time>2025-08-10T09:27:03.696Z</time>
      </trkpt>
      <trkpt lat="44.13679" lon="0.61414">
        <ele>124</ele>
        <time>2025-08-10T09:27:04.696Z</time>
      </trkpt>
      <trkpt lat="44.1368" lon="0.61414">
        <ele>124</ele>
        <time>2025-08-10T09:27:05.696Z</time>
      </trkpt>
      <trkpt lat="44.13681" lon="0.61413">
        <ele>124</ele>
        <time>2025-08-10T09:27:06.696Z</time>
      </trkpt>
      <trkpt lat="44.13682" lon="0.61412">
        <ele>125</ele>
        <time>2025-08-10T09:27:07.696Z</time>
      </trkpt>
      <trkpt lat="44.13682" lon="0.61411">
        <ele>125</ele>
        <time>2025-08-10T09:27:08.696Z</time>
      </trkpt>
      <trkpt lat="44.13683" lon="0.61411">
        <ele>126</ele>
        <time>2025-08-10T09:27:09.696Z</time>
      </trkpt>
      <trkpt lat="44.13684" lon="0.6141">
        <ele>126</ele>
        <time>2025-08-10T09:27:10.696Z</time>
      </trkpt>
      <trkpt lat="44.13685" lon="0.6141">
        <ele>126</ele>
        <time>2025-08-10T09:27:11.696Z</time>
      </trkpt>
      <trkpt lat="44.13686" lon="0.61409">
        <ele>126</ele>
        <time>2025-08-10T09:27:12.696Z</time>
      </trkpt>
      <trkpt lat="44.13687" lon="0.61409">
        <ele>126</ele>
        <time>2025-08-10T09:27:13.696Z</time>
      </trkpt>
      <trkpt lat="44.13687" lon="0.61409">
        <ele>126</ele>
        <time>2025-08-10T09:27:14.696Z</time>
      </trkpt>
      <trkpt lat="44.13688" lon="0.61408">
        <ele>126</ele>
        <time>2025-08-10T09:27:15.696Z</time>
      </trkpt>
      <trkpt lat="44.13689" lon="0.61407">
        <ele>126</ele>
        <time>2025-08-10T09:27:16.696Z</time>
      </trkpt>
      <trkpt lat="44.1369" lon="0.61407">
        <ele>127</ele>
        <time>2025-08-10T09:27:17.696Z</time>
      </trkpt>
      <trkpt lat="44.1369" lon="0.61407">
        <ele>127</ele>
        <time>2025-08-10T09:27:18.696Z</time>
      </trkpt>
      <trkpt lat="44.13691" lon="0.61407">
        <ele>126</ele>
        <time>2025-08-10T09:27:19.696Z</time>
      </trkpt>
      <trkpt lat="44.13691" lon="0.61406">
        <ele>126</ele>
        <time>2025-08-10T09:27:20.696Z</time>
      </trkpt>
      <trkpt lat="44.13692" lon="0.61406">
        <ele>126</ele>
        <time>2025-08-10T09:27:21.696Z</time>
      </trkpt>
      <trkpt lat="44.13693" lon="0.61406">
        <ele>126</ele>
        <time>2025-08-10T09:27:22.696Z</time>
      </trkpt>
      <trkpt lat="44.13694" lon="0.61406">
        <ele>125</ele>
        <time>2025-08-10T09:27:23.696Z</time>
      </trkpt>
      <trkpt lat="44.13695" lon="0.61406">
        <ele>125</ele>
        <time>2025-08-10T09:27:24.696Z</time>
      </trkpt>
      <trkpt lat="44.13696" lon="0.61406">
        <ele>125</ele>
        <time>2025-08-10T09:27:25.696Z</time>
      </trkpt>
      <trkpt lat="44.13697" lon="0.61405">
        <ele>125</ele>
        <time>2025-08-10T09:27:26.696Z</time>
      </trkpt>
      <trkpt lat="44.13697" lon="0.61405">
        <ele>125</ele>
        <time>2025-08-10T09:27:27.696Z</time>
      </trkpt>
      <trkpt lat="44.13699" lon="0.61404">
        <ele>125</ele>
        <time>2025-08-10T09:27:28.696Z</time>
      </trkpt>
      <trkpt lat="44.137" lon="0.61404">
        <ele>125</ele>
        <time>2025-08-10T09:27:29.696Z</time>
      </trkpt>
      <trkpt lat="44.13701" lon="0.61404">
        <ele>125</ele>
        <time>2025-08-10T09:27:30.696Z</time>
      </trkpt>
      <trkpt lat="44.13702" lon="0.61403">
        <ele>125</ele>
        <time>2025-08-10T09:27:31.696Z</time>
      </trkpt>
      <trkpt lat="44.13703" lon="0.61403">
        <ele>125</ele>
        <time>2025-08-10T09:27:32.696Z</time>
      </trkpt>
      <trkpt lat="44.13703" lon="0.61403">
        <ele>125</ele>
        <time>2025-08-10T09:27:33.696Z</time>
      </trkpt>
      <trkpt lat="44.13704" lon="0.61402">
        <ele>125</ele>
        <time>2025-08-10T09:27:34.696Z</time>
      </trkpt>
      <trkpt lat="44.13705" lon="0.61402">
        <ele>125</ele>
        <time>2025-08-10T09:27:35.696Z</time>
      </trkpt>
      <trkpt lat="44.13706" lon="0.61401">
        <ele>125</ele>
        <time>2025-08-10T09:27:36.696Z</time>
      </trkpt>
      <trkpt lat="44.13707" lon="0.61401">
        <ele>125</ele>
        <time>2025-08-10T09:27:37.696Z</time>
      </trkpt>
      <trkpt lat="44.13709" lon="0.614">
        <ele>125</ele>
        <time>2025-08-10T09:27:38.696Z</time>
      </trkpt>
      <trkpt lat="44.1371" lon="0.61399">
        <ele>125</ele>
        <time>2025-08-10T09:27:39.696Z</time>
      </trkpt>
      <trkpt lat="44.1371" lon="0.61399">
        <ele>125</ele>
        <time>2025-08-10T09:27:40.696Z</time>
      </trkpt>
      <trkpt lat="44.13711" lon="0.61398">
        <ele>126</ele>
        <time>2025-08-10T09:27:41.696Z</time>
      </trkpt>
      <trkpt lat="44.13712" lon="0.61398">
        <ele>126</ele>
        <time>2025-08-10T09:27:42.696Z</time>
      </trkpt>
      <trkpt lat="44.13713" lon="0.61398">
        <ele>125</ele>
        <time>2025-08-10T09:27:43.696Z</time>
      </trkpt>
      <trkpt lat="44.13714" lon="0.61398">
        <ele>125</ele>
        <time>2025-08-10T09:27:44.696Z</time>
      </trkpt>
      <trkpt lat="44.13715" lon="0.61397">
        <ele>125</ele>
        <time>2025-08-10T09:27:45.696Z</time>
      </trkpt>
      <trkpt lat="44.13716" lon="0.61397">
        <ele>125</ele>
        <time>2025-08-10T09:27:46.696Z</time>
      </trkpt>
      <trkpt lat="44.13717" lon="0.61396">
        <ele>125</ele>
        <time>2025-08-10T09:27:47.696Z</time>
      </trkpt>
      <trkpt lat="44.13718" lon="0.61396">
        <ele>124</ele>
        <time>2025-08-10T09:27:48.696Z</time>
      </trkpt>
      <trkpt lat="44.1372" lon="0.61395">
        <ele>124</ele>
        <time>2025-08-10T09:27:49.696Z</time>
      </trkpt>
      <trkpt lat="44.13721" lon="0.61395">
        <ele>124</ele>
        <time>2025-08-10T09:27:50.696Z</time>
      </trkpt>
      <trkpt lat="44.13722" lon="0.61395">
        <ele>124</ele>
        <time>2025-08-10T09:27:51.696Z</time>
      </trkpt>
      <trkpt lat="44.13723" lon="0.61394">
        <ele>124</ele>
        <time>2025-08-10T09:27:52.696Z</time>
      </trkpt>
      <trkpt lat="44.13724" lon="0.61394">
        <ele>124</ele>
        <time>2025-08-10T09:27:53.696Z</time>
      </trkpt>
      <trkpt lat="44.13725" lon="0.61393">
        <ele>124</ele>
        <time>2025-08-10T09:27:54.696Z</time>
      </trkpt>
      <trkpt lat="44.13726" lon="0.61393">
        <ele>124</ele>
        <time>2025-08-10T09:27:55.696Z</time>
      </trkpt>
      <trkpt lat="44.13727" lon="0.61393">
        <ele>124</ele>
        <time>2025-08-10T09:27:56.696Z</time>
      </trkpt>
      <trkpt lat="44.13728" lon="0.61392">
        <ele>124</ele>
        <time>2025-08-10T09:27:57.696Z</time>
      </trkpt>
      <trkpt lat="44.13729" lon="0.61391">
        <ele>124</ele>
        <time>2025-08-10T09:27:58.696Z</time>
      </trkpt>
      <trkpt lat="44.13729" lon="0.61391">
        <ele>124</ele>
        <time>2025-08-10T09:27:59.696Z</time>
      </trkpt>
      <trkpt lat="44.1373" lon="0.61391">
        <ele>124</ele>
        <time>2025-08-10T09:28:00.696Z</time>
      </trkpt>
      <trkpt lat="44.13731" lon="0.6139">
        <ele>123</ele>
        <time>2025-08-10T09:28:01.696Z</time>
      </trkpt>
      <trkpt lat="44.13732" lon="0.61389">
        <ele>123</ele>
        <time>2025-08-10T09:28:02.696Z</time>
      </trkpt>
      <trkpt lat="44.13733" lon="0.61389">
        <ele>123</ele>
        <time>2025-08-10T09:28:03.696Z</time>
      </trkpt>
      <trkpt lat="44.13734" lon="0.61388">
        <ele>123</ele>
        <time>2025-08-10T09:28:04.696Z</time>
      </trkpt>
      <trkpt lat="44.13735" lon="0.61388">
        <ele>123</ele>
        <time>2025-08-10T09:28:05.696Z</time>
      </trkpt>
      <trkpt lat="44.13736" lon="0.61387">
        <ele>123</ele>
        <time>2025-08-10T09:28:06.696Z</time>
      </trkpt>
      <trkpt lat="44.13737" lon="0.61387">
        <ele>123</ele>
        <time>2025-08-10T09:28:07.696Z</time>
      </trkpt>
      <trkpt lat="44.13738" lon="0.61386">
        <ele>122</ele>
        <time>2025-08-10T09:28:08.696Z</time>
      </trkpt>
      <trkpt lat="44.13739" lon="0.61386">
        <ele>122</ele>
        <time>2025-08-10T09:28:09.696Z</time>
      </trkpt>
      <trkpt lat="44.1374" lon="0.61385">
        <ele>122</ele>
        <time>2025-08-10T09:28:10.696Z</time>
      </trkpt>
      <trkpt lat="44.13741" lon="0.61385">
        <ele>122</ele>
        <time>2025-08-10T09:28:11.696Z</time>
      </trkpt>
      <trkpt lat="44.13742" lon="0.61384">
        <ele>122</ele>
        <time>2025-08-10T09:28:12.696Z</time>
      </trkpt>
      <trkpt lat="44.13743" lon="0.61384">
        <ele>122</ele>
        <time>2025-08-10T09:28:13.696Z</time>
      </trkpt>
      <trkpt lat="44.13744" lon="0.61383">
        <ele>121</ele>
        <time>2025-08-10T09:28:14.696Z</time>
      </trkpt>
      <trkpt lat="44.13744" lon="0.61383">
        <ele>121</ele>
        <time>2025-08-10T09:28:15.696Z</time>
      </trkpt>
      <trkpt lat="44.13745" lon="0.61382">
        <ele>121</ele>
        <time>2025-08-10T09:28:16.696Z</time>
      </trkpt>
      <trkpt lat="44.13746" lon="0.61381">
        <ele>121</ele>
        <time>2025-08-10T09:28:17.696Z</time>
      </trkpt>
      <trkpt lat="44.13747" lon="0.61381">
        <ele>121</ele>
        <time>2025-08-10T09:28:18.696Z</time>
      </trkpt>
      <trkpt lat="44.13749" lon="0.61381">
        <ele>121</ele>
        <time>2025-08-10T09:28:19.696Z</time>
      </trkpt>
      <trkpt lat="44.1375" lon="0.6138">
        <ele>121</ele>
        <time>2025-08-10T09:28:20.696Z</time>
      </trkpt>
      <trkpt lat="44.13751" lon="0.61379">
        <ele>121</ele>
        <time>2025-08-10T09:28:21.696Z</time>
      </trkpt>
      <trkpt lat="44.13752" lon="0.61379">
        <ele>120</ele>
        <time>2025-08-10T09:28:22.696Z</time>
      </trkpt>
      <trkpt lat="44.13753" lon="0.61378">
        <ele>120</ele>
        <time>2025-08-10T09:28:23.696Z</time>
      </trkpt>
      <trkpt lat="44.13754" lon="0.61378">
        <ele>120</ele>
        <time>2025-08-10T09:28:24.696Z</time>
      </trkpt>
      <trkpt lat="44.13755" lon="0.61378">
        <ele>120</ele>
        <time>2025-08-10T09:28:25.696Z</time>
      </trkpt>
      <trkpt lat="44.13756" lon="0.61377">
        <ele>120</ele>
        <time>2025-08-10T09:28:26.696Z</time>
      </trkpt>
      <trkpt lat="44.13757" lon="0.61376">
        <ele>120</ele>
        <time>2025-08-10T09:28:27.696Z</time>
      </trkpt>
      <trkpt lat="44.13758" lon="0.61375">
        <ele>120</ele>
        <time>2025-08-10T09:28:28.696Z</time>
      </trkpt>
      <trkpt lat="44.13759" lon="0.61374">
        <ele>120</ele>
        <time>2025-08-10T09:28:29.696Z</time>
      </trkpt>
      <trkpt lat="44.1376" lon="0.61374">
        <ele>120</ele>
        <time>2025-08-10T09:28:30.696Z</time>
      </trkpt>
      <trkpt lat="44.13761" lon="0.61373">
        <ele>120</ele>
        <time>2025-08-10T09:28:31.696Z</time>
      </trkpt>
      <trkpt lat="44.13762" lon="0.61373">
        <ele>119</ele>
        <time>2025-08-10T09:28:32.696Z</time>
      </trkpt>
      <trkpt lat="44.13763" lon="0.61373">
        <ele>119</ele>
        <time>2025-08-10T09:28:33.696Z</time>
      </trkpt>
      <trkpt lat="44.13764" lon="0.61373">
        <ele>119</ele>
        <time>2025-08-10T09:28:34.696Z</time>
      </trkpt>
      <trkpt lat="44.13765" lon="0.61372">
        <ele>119</ele>
        <time>2025-08-10T09:28:35.696Z</time>
      </trkpt>
      <trkpt lat="44.13766" lon="0.61372">
        <ele>119</ele>
        <time>2025-08-10T09:28:36.696Z</time>
      </trkpt>
      <trkpt lat="44.13767" lon="0.61371">
        <ele>119</ele>
        <time>2025-08-10T09:28:37.696Z</time>
      </trkpt>
      <trkpt lat="44.13768" lon="0.6137">
        <ele>119</ele>
        <time>2025-08-10T09:28:38.696Z</time>
      </trkpt>
      <trkpt lat="44.13769" lon="0.61369">
        <ele>119</ele>
        <time>2025-08-10T09:28:39.696Z</time>
      </trkpt>
      <trkpt lat="44.1377" lon="0.61369">
        <ele>119</ele>
        <time>2025-08-10T09:28:40.696Z</time>
      </trkpt>
      <trkpt lat="44.13771" lon="0.61368">
        <ele>119</ele>
        <time>2025-08-10T09:28:41.696Z</time>
      </trkpt>
      <trkpt lat="44.13771" lon="0.61368">
        <ele>119</ele>
        <time>2025-08-10T09:28:42.696Z</time>
      </trkpt>
      <trkpt lat="44.13772" lon="0.61367">
        <ele>119</ele>
        <time>2025-08-10T09:28:43.696Z</time>
      </trkpt>
      <trkpt lat="44.13773" lon="0.61366">
        <ele>119</ele>
        <time>2025-08-10T09:28:44.696Z</time>
      </trkpt>
      <trkpt lat="44.13774" lon="0.61366">
        <ele>119</ele>
        <time>2025-08-10T09:28:45.696Z</time>
      </trkpt>
      <trkpt lat="44.13775" lon="0.61366">
        <ele>119</ele>
        <time>2025-08-10T09:28:46.696Z</time>
      </trkpt>
      <trkpt lat="44.13776" lon="0.61365">
        <ele>119</ele>
        <time>2025-08-10T09:28:47.696Z</time>
      </trkpt>
      <trkpt lat="44.13777" lon="0.61365">
        <ele>119</ele>
        <time>2025-08-10T09:28:48.696Z</time>
      </trkpt>
      <trkpt lat="44.13778" lon="0.61364">
        <ele>118</ele>
        <time>2025-08-10T09:28:49.696Z</time>
      </trkpt>
      <trkpt lat="44.13779" lon="0.61364">
        <ele>118</ele>
        <time>2025-08-10T09:28:50.696Z</time>
      </trkpt>
      <trkpt lat="44.1378" lon="0.61363">
        <ele>119</ele>
        <time>2025-08-10T09:28:51.696Z</time>
      </trkpt>
      <trkpt lat="44.13781" lon="0.61362">
        <ele>119</ele>
        <time>2025-08-10T09:28:52.696Z</time>
      </trkpt>
      <trkpt lat="44.13782" lon="0.61362">
        <ele>119</ele>
        <time>2025-08-10T09:28:53.696Z</time>
      </trkpt>
      <trkpt lat="44.13783" lon="0.61362">
        <ele>119</ele>
        <time>2025-08-10T09:28:54.696Z</time>
      </trkpt>
      <trkpt lat="44.13784" lon="0.61361">
        <ele>118</ele>
        <time>2025-08-10T09:28:55.696Z</time>
      </trkpt>
      <trkpt lat="44.13785" lon="0.6136">
        <ele>118</ele>
        <time>2025-08-10T09:28:56.696Z</time>
      </trkpt>
      <trkpt lat="44.13786" lon="0.6136">
        <ele>118</ele>
        <time>2025-08-10T09:28:57.696Z</time>
      </trkpt>
      <trkpt lat="44.13787" lon="0.61359">
        <ele>118</ele>
        <time>2025-08-10T09:28:58.696Z</time>
      </trkpt>
      <trkpt lat="44.13788" lon="0.61359">
        <ele>118</ele>
        <time>2025-08-10T09:28:59.696Z</time>
      </trkpt>
      <trkpt lat="44.13789" lon="0.61358">
        <ele>118</ele>
        <time>2025-08-10T09:29:00.696Z</time>
      </trkpt>
      <trkpt lat="44.1379" lon="0.61358">
        <ele>118</ele>
        <time>2025-08-10T09:29:01.696Z</time>
      </trkpt>
      <trkpt lat="44.13791" lon="0.61357">
        <ele>118</ele>
        <time>2025-08-10T09:29:02.696Z</time>
      </trkpt>
      <trkpt lat="44.13792" lon="0.61357">
        <ele>118</ele>
        <time>2025-08-10T09:29:03.696Z</time>
      </trkpt>
      <trkpt lat="44.13793" lon="0.61356">
        <ele>118</ele>
        <time>2025-08-10T09:29:04.696Z</time>
      </trkpt>
      <trkpt lat="44.13794" lon="0.61356">
        <ele>118</ele>
        <time>2025-08-10T09:29:05.696Z</time>
      </trkpt>
      <trkpt lat="44.13794" lon="0.61355">
        <ele>118</ele>
        <time>2025-08-10T09:29:06.696Z</time>
      </trkpt>
      <trkpt lat="44.13795" lon="0.61355">
        <ele>118</ele>
        <time>2025-08-10T09:29:07.696Z</time>
      </trkpt>
      <trkpt lat="44.13797" lon="0.61354">
        <ele>118</ele>
        <time>2025-08-10T09:29:08.696Z</time>
      </trkpt>
      <trkpt lat="44.13798" lon="0.61354">
        <ele>117</ele>
        <time>2025-08-10T09:29:09.696Z</time>
      </trkpt>
      <trkpt lat="44.13799" lon="0.61353">
        <ele>117</ele>
        <time>2025-08-10T09:29:10.696Z</time>
      </trkpt>
      <trkpt lat="44.138" lon="0.61352">
        <ele>117</ele>
        <time>2025-08-10T09:29:11.696Z</time>
      </trkpt>
      <trkpt lat="44.13801" lon="0.61352">
        <ele>118</ele>
        <time>2025-08-10T09:29:12.696Z</time>
      </trkpt>
      <trkpt lat="44.13802" lon="0.61351">
        <ele>118</ele>
        <time>2025-08-10T09:29:13.696Z</time>
      </trkpt>
      <trkpt lat="44.13803" lon="0.61351">
        <ele>118</ele>
        <time>2025-08-10T09:29:14.696Z</time>
      </trkpt>
      <trkpt lat="44.13804" lon="0.61351">
        <ele>117</ele>
        <time>2025-08-10T09:29:15.696Z</time>
      </trkpt>
      <trkpt lat="44.13805" lon="0.61351">
        <ele>117</ele>
        <time>2025-08-10T09:29:16.696Z</time>
      </trkpt>
      <trkpt lat="44.13806" lon="0.6135">
        <ele>117</ele>
        <time>2025-08-10T09:29:17.696Z</time>
      </trkpt>
      <trkpt lat="44.13807" lon="0.61349">
        <ele>117</ele>
        <time>2025-08-10T09:29:18.696Z</time>
      </trkpt>
      <trkpt lat="44.13808" lon="0.61349">
        <ele>117</ele>
        <time>2025-08-10T09:29:19.696Z</time>
      </trkpt>
      <trkpt lat="44.13809" lon="0.61349">
        <ele>117</ele>
        <time>2025-08-10T09:29:20.696Z</time>
      </trkpt>
      <trkpt lat="44.1381" lon="0.61349">
        <ele>117</ele>
        <time>2025-08-10T09:29:21.696Z</time>
      </trkpt>
      <trkpt lat="44.13811" lon="0.61349">
        <ele>117</ele>
        <time>2025-08-10T09:29:22.696Z</time>
      </trkpt>
      <trkpt lat="44.13812" lon="0.6135">
        <ele>117</ele>
        <time>2025-08-10T09:29:23.696Z</time>
      </trkpt>
      <trkpt lat="44.13813" lon="0.6135">
        <ele>117</ele>
        <time>2025-08-10T09:29:24.696Z</time>
      </trkpt>
      <trkpt lat="44.13814" lon="0.61349">
        <ele>117</ele>
        <time>2025-08-10T09:29:25.696Z</time>
      </trkpt>
      <trkpt lat="44.13814" lon="0.61349">
        <ele>117</ele>
        <time>2025-08-10T09:29:26.696Z</time>
      </trkpt>
      <trkpt lat="44.13815" lon="0.61349">
        <ele>117</ele>
        <time>2025-08-10T09:29:27.696Z</time>
      </trkpt>
      <trkpt lat="44.13816" lon="0.61349">
        <ele>117</ele>
        <time>2025-08-10T09:29:28.696Z</time>
      </trkpt>
      <trkpt lat="44.13817" lon="0.61349">
        <ele>117</ele>
        <time>2025-08-10T09:29:29.696Z</time>
      </trkpt>
      <trkpt lat="44.13818" lon="0.6135">
        <ele>116</ele>
        <time>2025-08-10T09:29:30.696Z</time>
      </trkpt>
      <trkpt lat="44.13819" lon="0.6135">
        <ele>117</ele>
        <time>2025-08-10T09:29:31.696Z</time>
      </trkpt>
      <trkpt lat="44.13819" lon="0.61349">
        <ele>117</ele>
        <time>2025-08-10T09:29:32.696Z</time>
      </trkpt>
      <trkpt lat="44.13819" lon="0.61349">
        <ele>117</ele>
        <time>2025-08-10T09:29:33.696Z</time>
      </trkpt>
      <trkpt lat="44.13819" lon="0.61349">
        <ele>117</ele>
        <time>2025-08-10T09:29:34.696Z</time>
      </trkpt>
      <trkpt lat="44.13819" lon="0.61349">
        <ele>117</ele>
        <time>2025-08-10T09:29:35.696Z</time>
      </trkpt>
      <trkpt lat="44.1382" lon="0.61349">
        <ele>117</ele>
        <time>2025-08-10T09:29:36.696Z</time>
      </trkpt>
      <trkpt lat="44.1382" lon="0.61349">
        <ele>117</ele>
        <time>2025-08-10T09:29:37.696Z</time>
      </trkpt>
      <trkpt lat="44.1382" lon="0.61349">
        <ele>117</ele>
        <time>2025-08-10T09:29:38.696Z</time>
      </trkpt>
      <trkpt lat="44.13821" lon="0.61349">
        <ele>117</ele>
        <time>2025-08-10T09:29:39.696Z</time>
      </trkpt>
      <trkpt lat="44.13821" lon="0.61348">
        <ele>117</ele>
        <time>2025-08-10T09:29:40.696Z</time>
      </trkpt>
      <trkpt lat="44.13822" lon="0.61348">
        <ele>117</ele>
        <time>2025-08-10T09:29:41.696Z</time>
      </trkpt>
      <trkpt lat="44.13822" lon="0.61348">
        <ele>118</ele>
        <time>2025-08-10T09:29:42.696Z</time>
      </trkpt>
      <trkpt lat="44.13822" lon="0.61348">
        <ele>118</ele>
        <time>2025-08-10T09:29:43.696Z</time>
      </trkpt>
      <trkpt lat="44.13822" lon="0.61348">
        <ele>118</ele>
        <time>2025-08-10T09:29:44.696Z</time>
      </trkpt>
      <trkpt lat="44.13822" lon="0.61348">
        <ele>118</ele>
        <time>2025-08-10T09:29:45.696Z</time>
      </trkpt>
      <trkpt lat="44.13822" lon="0.61348">
        <ele>118</ele>
        <time>2025-08-10T09:29:46.696Z</time>
      </trkpt>
      <trkpt lat="44.13822" lon="0.61348">
        <ele>118</ele>
        <time>2025-08-10T09:29:47.696Z</time>
      </trkpt>
      <trkpt lat="44.13822" lon="0.61348">
        <ele>119</ele>
        <time>2025-08-10T09:29:48.696Z</time>
      </trkpt>
      <trkpt lat="44.13822" lon="0.61348">
        <ele>119</ele>
        <time>2025-08-10T09:29:49.696Z</time>
      </trkpt>
      <trkpt lat="44.13823" lon="0.61349">
        <ele>120</ele>
        <time>2025-08-10T09:29:50.696Z</time>
      </trkpt>
      <trkpt lat="44.13823" lon="0.61349">
        <ele>121</ele>
        <time>2025-08-10T09:29:51.696Z</time>
      </trkpt>
      <trkpt lat="44.13823" lon="0.61349">
        <ele>121</ele>
        <time>2025-08-10T09:29:52.696Z</time>
      </trkpt>
      <trkpt lat="44.13823" lon="0.61349">
        <ele>121</ele>
        <time>2025-08-10T09:29:53.696Z</time>
      </trkpt>
      <trkpt lat="44.13823" lon="0.61349">
        <ele>121</ele>
        <time>2025-08-10T09:29:54.696Z</time>
      </trkpt>
      <trkpt lat="44.13823" lon="0.61348">
        <ele>121</ele>
        <time>2025-08-10T09:29:55.696Z</time>
      </trkpt>
      <trkpt lat="44.13823" lon="0.61348">
        <ele>121</ele>
        <time>2025-08-10T09:29:56.696Z</time>
      </trkpt>
      <trkpt lat="44.13823" lon="0.61348">
        <ele>120</ele>
        <time>2025-08-10T09:29:57.696Z</time>
      </trkpt>
      <trkpt lat="44.13823" lon="0.61348">
        <ele>120</ele>
        <time>2025-08-10T09:29:58.696Z</time>
      </trkpt>
      <trkpt lat="44.13823" lon="0.61349">
        <ele>119</ele>
        <time>2025-08-10T09:29:59.696Z</time>
      </trkpt>
      <trkpt lat="44.13822" lon="0.61349">
        <ele>119</ele>
        <time>2025-08-10T09:30:00.696Z</time>
      </trkpt>
      <trkpt lat="44.13822" lon="0.61348">
        <ele>119</ele>
        <time>2025-08-10T09:30:01.696Z</time>
      </trkpt>
      <trkpt lat="44.13821" lon="0.61348">
        <ele>119</ele>
        <time>2025-08-10T09:30:02.696Z</time>
      </trkpt>
      <trkpt lat="44.13821" lon="0.61348">
        <ele>119</ele>
        <time>2025-08-10T09:30:03.696Z</time>
      </trkpt>
      <trkpt lat="44.13821" lon="0.61348">
        <ele>119</ele>
        <time>2025-08-10T09:30:04.696Z</time>
      </trkpt>
      <trkpt lat="44.13821" lon="0.61348">
        <ele>119</ele>
        <time>2025-08-10T09:30:05.696Z</time>
      </trkpt>
      <trkpt lat="44.1382" lon="0.61348">
        <ele>119</ele>
        <time>2025-08-10T09:30:06.696Z</time>
      </trkpt>
      <trkpt lat="44.1382" lon="0.61348">
        <ele>119</ele>
        <time>2025-08-10T09:30:07.696Z</time>
      </trkpt>
      <trkpt lat="44.1382" lon="0.61347">
        <ele>119</ele>
        <time>2025-08-10T09:30:08.696Z</time>
      </trkpt>
      <trkpt lat="44.1382" lon="0.61347">
        <ele>119</ele>
        <time>2025-08-10T09:30:09.696Z</time>
      </trkpt>
      <trkpt lat="44.1382" lon="0.61347">
        <ele>119</ele>
        <time>2025-08-10T09:30:10.696Z</time>
      </trkpt>
      <trkpt lat="44.1382" lon="0.61347">
        <ele>119</ele>
        <time>2025-08-10T09:30:11.696Z</time>
      </trkpt>
      <trkpt lat="44.1382" lon="0.61347">
        <ele>119</ele>
        <time>2025-08-10T09:30:12.696Z</time>
      </trkpt>
      <trkpt lat="44.1382" lon="0.61347">
        <ele>119</ele>
        <time>2025-08-10T09:30:13.696Z</time>
      </trkpt>
      <trkpt lat="44.1382" lon="0.61347">
        <ele>120</ele>
        <time>2025-08-10T09:30:14.696Z</time>
      </trkpt>
      <trkpt lat="44.1382" lon="0.61347">
        <ele>120</ele>
        <time>2025-08-10T09:30:15.696Z</time>
      </trkpt>
      <trkpt lat="44.1382" lon="0.61347">
        <ele>119</ele>
        <time>2025-08-10T09:30:16.696Z</time>
      </trkpt>
      <trkpt lat="44.1382" lon="0.61347">
        <ele>119</ele>
        <time>2025-08-10T09:30:17.696Z</time>
      </trkpt>
      <trkpt lat="44.1382" lon="0.61347">
        <ele>119</ele>
        <time>2025-08-10T09:30:18.696Z</time>
      </trkpt>
      <trkpt lat="44.1382" lon="0.61347">
        <ele>119</ele>
        <time>2025-08-10T09:30:19.696Z</time>
      </trkpt>
      <trkpt lat="44.13819" lon="0.61346">
        <ele>119</ele>
        <time>2025-08-10T09:30:20.696Z</time>
      </trkpt>
      <trkpt lat="44.13819" lon="0.61346">
        <ele>119</ele>
        <time>2025-08-10T09:30:21.696Z</time>
      </trkpt>
      <trkpt lat="44.13819" lon="0.61346">
        <ele>119</ele>
        <time>2025-08-10T09:30:22.696Z</time>
      </trkpt>
      <trkpt lat="44.13819" lon="0.61346">
        <ele>119</ele>
        <time>2025-08-10T09:30:23.696Z</time>
      </trkpt>
      <trkpt lat="44.13819" lon="0.61346">
        <ele>119</ele>
        <time>2025-08-10T09:30:24.696Z</time>
      </trkpt>
      <trkpt lat="44.13819" lon="0.61346">
        <ele>119</ele>
        <time>2025-08-10T09:30:25.696Z</time>
      </trkpt>
      <trkpt lat="44.13819" lon="0.61346">
        <ele>119</ele>
        <time>2025-08-10T09:30:26.696Z</time>
      </trkpt>
      <trkpt lat="44.13819" lon="0.61346">
        <ele>118</ele>
        <time>2025-08-10T09:30:27.696Z</time>
      </trkpt>
      <trkpt lat="44.13819" lon="0.61346">
        <ele>118</ele>
        <time>2025-08-10T09:30:28.696Z</time>
      </trkpt>
      <trkpt lat="44.13819" lon="0.61346">
        <ele>118</ele>
        <time>2025-08-10T09:30:29.696Z</time>
      </trkpt>
      <trkpt lat="44.13819" lon="0.61346">
        <ele>117</ele>
        <time>2025-08-10T09:30:30.696Z</time>
      </trkpt>
      <trkpt lat="44.13819" lon="0.61346">
        <ele>117</ele>
        <time>2025-08-10T09:30:31.696Z</time>
      </trkpt>
      <trkpt lat="44.13819" lon="0.61346">
        <ele>117</ele>
        <time>2025-08-10T09:30:32.696Z</time>
      </trkpt>
      <trkpt lat="44.13819" lon="0.61346">
        <ele>117</ele>
        <time>2025-08-10T09:30:33.696Z</time>
      </trkpt>
      <trkpt lat="44.13819" lon="0.61345">
        <ele>117</ele>
        <time>2025-08-10T09:30:34.696Z</time>
      </trkpt>
      <trkpt lat="44.13819" lon="0.61345">
        <ele>117</ele>
        <time>2025-08-10T09:30:35.696Z</time>
      </trkpt>
      <trkpt lat="44.13819" lon="0.61346">
        <ele>116</ele>
        <time>2025-08-10T09:30:36.696Z</time>
      </trkpt>
      <trkpt lat="44.13819" lon="0.61346">
        <ele>116</ele>
        <time>2025-08-10T09:30:37.696Z</time>
      </trkpt>
      <trkpt lat="44.13819" lon="0.61345">
        <ele>115</ele>
        <time>2025-08-10T09:30:38.696Z</time>
      </trkpt>
      <trkpt lat="44.13819" lon="0.61345">
        <ele>115</ele>
        <time>2025-08-10T09:30:39.696Z</time>
      </trkpt>
      <trkpt lat="44.13819" lon="0.61345">
        <ele>115</ele>
        <time>2025-08-10T09:30:40.696Z</time>
      </trkpt>
      <trkpt lat="44.13819" lon="0.61345">
        <ele>114</ele>
        <time>2025-08-10T09:30:41.696Z</time>
      </trkpt>
      <trkpt lat="44.13819" lon="0.61345">
        <ele>114</ele>
        <time>2025-08-10T09:30:42.696Z</time>
      </trkpt>
      <trkpt lat="44.13819" lon="0.61345">
        <ele>114</ele>
        <time>2025-08-10T09:30:43.696Z</time>
      </trkpt>
      <trkpt lat="44.13819" lon="0.61345">
        <ele>114</ele>
        <time>2025-08-10T09:30:44.696Z</time>
      </trkpt>
      <trkpt lat="44.13819" lon="0.61345">
        <ele>113</ele>
        <time>2025-08-10T09:30:45.696Z</time>
      </trkpt>
      <trkpt lat="44.13819" lon="0.61345">
        <ele>113</ele>
        <time>2025-08-10T09:30:46.696Z</time>
      </trkpt>
      <trkpt lat="44.13819" lon="0.61345">
        <ele>113</ele>
        <time>2025-08-10T09:30:47.696Z</time>
      </trkpt>
      <trkpt lat="44.13819" lon="0.61345">
        <ele>113</ele>
        <time>2025-08-10T09:30:48.696Z</time>
      </trkpt>
      <trkpt lat="44.13819" lon="0.61345">
        <ele>113</ele>
        <time>2025-08-10T09:30:49.696Z</time>
      </trkpt>
      <trkpt lat="44.13819" lon="0.61345">
        <ele>113</ele>
        <time>2025-08-10T09:30:50.696Z</time>
      </trkpt>
      <trkpt lat="44.13819" lon="0.61345">
        <ele>114</ele>
        <time>2025-08-10T09:30:51.696Z</time>
      </trkpt>
      <trkpt lat="44.13819" lon="0.61346">
        <ele>114</ele>
        <time>2025-08-10T09:30:52.696Z</time>
      </trkpt>
      <trkpt lat="44.13819" lon="0.61346">
        <ele>114</ele>
        <time>2025-08-10T09:30:53.696Z</time>
      </trkpt>
      <trkpt lat="44.13819" lon="0.61346">
        <ele>114</ele>
        <time>2025-08-10T09:30:54.696Z</time>
      </trkpt>
      <trkpt lat="44.13819" lon="0.61346">
        <ele>114</ele>
        <time>2025-08-10T09:30:55.696Z</time>
      </trkpt>
      <trkpt lat="44.13819" lon="0.61346">
        <ele>114</ele>
        <time>2025-08-10T09:30:56.696Z</time>
      </trkpt>
      <trkpt lat="44.13819" lon="0.61346">
        <ele>114</ele>
        <time>2025-08-10T09:30:57.696Z</time>
      </trkpt>
      <trkpt lat="44.13819" lon="0.61346">
        <ele>115</ele>
        <time>2025-08-10T09:30:58.696Z</time>
      </trkpt>
      <trkpt lat="44.13819" lon="0.61346">
        <ele>115</ele>
        <time>2025-08-10T09:30:59.696Z</time>
      </trkpt>
      <trkpt lat="44.13819" lon="0.61346">
        <ele>115</ele>
        <time>2025-08-10T09:31:00.696Z</time>
      </trkpt>
      <trkpt lat="44.13819" lon="0.61346">
        <ele>116</ele>
        <time>2025-08-10T09:31:01.696Z</time>
      </trkpt>
      <trkpt lat="44.13819" lon="0.61346">
        <ele>116</ele>
        <time>2025-08-10T09:31:02.696Z</time>
      </trkpt>
      <trkpt lat="44.13819" lon="0.61346">
        <ele>116</ele>
        <time>2025-08-10T09:31:03.696Z</time>
      </trkpt>
      <trkpt lat="44.13819" lon="0.61346">
        <ele>117</ele>
        <time>2025-08-10T09:31:04.696Z</time>
      </trkpt>
      <trkpt lat="44.13819" lon="0.61346">
        <ele>117</ele>
        <time>2025-08-10T09:31:05.696Z</time>
      </trkpt>
      <trkpt lat="44.13819" lon="0.61346">
        <ele>117</ele>
        <time>2025-08-10T09:31:06.696Z</time>
      </trkpt>
      <trkpt lat="44.13819" lon="0.61346">
        <ele>117</ele>
        <time>2025-08-10T09:31:07.696Z</time>
      </trkpt>
      <trkpt lat="44.13819" lon="0.61346">
        <ele>116</ele>
        <time>2025-08-10T09:31:08.696Z</time>
      </trkpt>
      <trkpt lat="44.13819" lon="0.61346">
        <ele>116</ele>
        <time>2025-08-10T09:31:09.696Z</time>
      </trkpt>
      <trkpt lat="44.13819" lon="0.61346">
        <ele>116</ele>
        <time>2025-08-10T09:31:10.696Z</time>
      </trkpt>
      <trkpt lat="44.13819" lon="0.61347">
        <ele>116</ele>
        <time>2025-08-10T09:31:11.696Z</time>
      </trkpt>
      <trkpt lat="44.13819" lon="0.61347">
        <ele>116</ele>
        <time>2025-08-10T09:31:12.696Z</time>
      </trkpt>
      <trkpt lat="44.13819" lon="0.61347">
        <ele>116</ele>
        <time>2025-08-10T09:31:13.696Z</time>
      </trkpt>
      <trkpt lat="44.13819" lon="0.61347">
        <ele>116</ele>
        <time>2025-08-10T09:31:14.696Z</time>
      </trkpt>
      <trkpt lat="44.13819" lon="0.61347">
        <ele>116</ele>
        <time>2025-08-10T09:31:15.696Z</time>
      </trkpt>
      <trkpt lat="44.13819" lon="0.61347">
        <ele>116</ele>
        <time>2025-08-10T09:31:16.696Z</time>
      </trkpt>
      <trkpt lat="44.13819" lon="0.61347">
        <ele>116</ele>
        <time>2025-08-10T09:31:17.696Z</time>
      </trkpt>
      <trkpt lat="44.13819" lon="0.61347">
        <ele>116</ele>
        <time>2025-08-10T09:31:18.696Z</time>
      </trkpt>
      <trkpt lat="44.13819" lon="0.61347">
        <ele>116</ele>
        <time>2025-08-10T09:31:19.696Z</time>
      </trkpt>
      <trkpt lat="44.13819" lon="0.61347">
        <ele>116</ele>
        <time>2025-08-10T09:31:20.696Z</time>
      </trkpt>
      <trkpt lat="44.13819" lon="0.61347">
        <ele>116</ele>
        <time>2025-08-10T09:31:21.696Z</time>
      </trkpt>
      <trkpt lat="44.13819" lon="0.61347">
        <ele>116</ele>
        <time>2025-08-10T09:31:22.696Z</time>
      </trkpt>
      <trkpt lat="44.1382" lon="0.61347">
        <ele>116</ele>
        <time>2025-08-10T09:31:23.696Z</time>
      </trkpt>
      <trkpt lat="44.1382" lon="0.61347">
        <ele>116</ele>
        <time>2025-08-10T09:31:24.696Z</time>
      </trkpt>
      <trkpt lat="44.1382" lon="0.61347">
        <ele>115</ele>
        <time>2025-08-10T09:31:25.696Z</time>
      </trkpt>
      <trkpt lat="44.1382" lon="0.61347">
        <ele>115</ele>
        <time>2025-08-10T09:31:26.696Z</time>
      </trkpt>
      <trkpt lat="44.1382" lon="0.61347">
        <ele>115</ele>
        <time>2025-08-10T09:31:27.696Z</time>
      </trkpt>
      <trkpt lat="44.1382" lon="0.61347">
        <ele>115</ele>
        <time>2025-08-10T09:31:28.696Z</time>
      </trkpt>
      <trkpt lat="44.13821" lon="0.61348">
        <ele>115</ele>
        <time>2025-08-10T09:31:29.696Z</time>
      </trkpt>
      <trkpt lat="44.13821" lon="0.61348">
        <ele>115</ele>
        <time>2025-08-10T09:31:30.696Z</time>
      </trkpt>
      <trkpt lat="44.1382" lon="0.61348">
        <ele>114</ele>
        <time>2025-08-10T09:31:31.696Z</time>
      </trkpt>
      <trkpt lat="44.13819" lon="0.61347">
        <ele>114</ele>
        <time>2025-08-10T09:31:32.696Z</time>
      </trkpt>
      <trkpt lat="44.13819" lon="0.61347">
        <ele>114</ele>
        <time>2025-08-10T09:31:33.696Z</time>
      </trkpt>
      <trkpt lat="44.13818" lon="0.61347">
        <ele>114</ele>
        <time>2025-08-10T09:31:34.696Z</time>
      </trkpt>
      <trkpt lat="44.13818" lon="0.61347">
        <ele>114</ele>
        <time>2025-08-10T09:31:35.696Z</time>
      </trkpt>
      <trkpt lat="44.13818" lon="0.61347">
        <ele>114</ele>
        <time>2025-08-10T09:31:36.696Z</time>
      </trkpt>
      <trkpt lat="44.13818" lon="0.61346">
        <ele>114</ele>
        <time>2025-08-10T09:31:37.696Z</time>
      </trkpt>
      <trkpt lat="44.13818" lon="0.61347">
        <ele>114</ele>
        <time>2025-08-10T09:31:38.696Z</time>
      </trkpt>
      <trkpt lat="44.13819" lon="0.61347">
        <ele>114</ele>
        <time>2025-08-10T09:31:39.696Z</time>
      </trkpt>
      <trkpt lat="44.13819" lon="0.61347">
        <ele>114</ele>
        <time>2025-08-10T09:31:40.696Z</time>
      </trkpt>
      <trkpt lat="44.13819" lon="0.61347">
        <ele>114</ele>
        <time>2025-08-10T09:31:41.696Z</time>
      </trkpt>
      <trkpt lat="44.1382" lon="0.61347">
        <ele>114</ele>
        <time>2025-08-10T09:31:42.696Z</time>
      </trkpt>
      <trkpt lat="44.13819" lon="0.61347">
        <ele>114</ele>
        <time>2025-08-10T09:31:43.696Z</time>
      </trkpt>
      <trkpt lat="44.1382" lon="0.61347">
        <ele>114</ele>
        <time>2025-08-10T09:31:44.696Z</time>
      </trkpt>
      <trkpt lat="44.1382" lon="0.61347">
        <ele>114</ele>
        <time>2025-08-10T09:31:45.696Z</time>
      </trkpt>
      <trkpt lat="44.1382" lon="0.61347">
        <ele>114</ele>
        <time>2025-08-10T09:31:46.696Z</time>
      </trkpt>
      <trkpt lat="44.1382" lon="0.61347">
        <ele>114</ele>
        <time>2025-08-10T09:31:47.696Z</time>
      </trkpt>
      <trkpt lat="44.1382" lon="0.61348">
        <ele>115</ele>
        <time>2025-08-10T09:31:48.696Z</time>
      </trkpt>
      <trkpt lat="44.1382" lon="0.61348">
        <ele>115</ele>
        <time>2025-08-10T09:31:49.696Z</time>
      </trkpt>
      <trkpt lat="44.1382" lon="0.61348">
        <ele>115</ele>
        <time>2025-08-10T09:31:50.696Z</time>
      </trkpt>
      <trkpt lat="44.13819" lon="0.61347">
        <ele>115</ele>
        <time>2025-08-10T09:31:51.696Z</time>
      </trkpt>
      <trkpt lat="44.13819" lon="0.61347">
        <ele>115</ele>
        <time>2025-08-10T09:31:52.696Z</time>
      </trkpt>
      <trkpt lat="44.13819" lon="0.61347">
        <ele>115</ele>
        <time>2025-08-10T09:31:53.696Z</time>
      </trkpt>
      <trkpt lat="44.13819" lon="0.61347">
        <ele>115</ele>
        <time>2025-08-10T09:31:54.696Z</time>
      </trkpt>
      <trkpt lat="44.13819" lon="0.61348">
        <ele>115</ele>
        <time>2025-08-10T09:31:55.696Z</time>
      </trkpt>
      <trkpt lat="44.13819" lon="0.61348">
        <ele>115</ele>
        <time>2025-08-10T09:31:56.696Z</time>
      </trkpt>
      <trkpt lat="44.13819" lon="0.61348">
        <ele>115</ele>
        <time>2025-08-10T09:31:57.696Z</time>
      </trkpt>
      <trkpt lat="44.13819" lon="0.61348">
        <ele>115</ele>
        <time>2025-08-10T09:31:58.696Z</time>
      </trkpt>
      <trkpt lat="44.13819" lon="0.61348">
        <ele>115</ele>
        <time>2025-08-10T09:31:59.696Z</time>
      </trkpt>
      <trkpt lat="44.13819" lon="0.61348">
        <ele>115</ele>
        <time>2025-08-10T09:32:00.696Z</time>
      </trkpt>
      <trkpt lat="44.13819" lon="0.61348">
        <ele>115</ele>
        <time>2025-08-10T09:32:01.696Z</time>
      </trkpt>
      <trkpt lat="44.13819" lon="0.61348">
        <ele>115</ele>
        <time>2025-08-10T09:32:02.696Z</time>
      </trkpt>
      <trkpt lat="44.13819" lon="0.61348">
        <ele>115</ele>
        <time>2025-08-10T09:32:03.696Z</time>
      </trkpt>
      <trkpt lat="44.13819" lon="0.61348">
        <ele>115</ele>
        <time>2025-08-10T09:32:04.696Z</time>
      </trkpt>
      <trkpt lat="44.13819" lon="0.61348">
        <ele>116</ele>
        <time>2025-08-10T09:32:05.696Z</time>
      </trkpt>
      <trkpt lat="44.13819" lon="0.61348">
        <ele>116</ele>
        <time>2025-08-10T09:32:06.696Z</time>
      </trkpt>
      <trkpt lat="44.13819" lon="0.61348">
        <ele>116</ele>
        <time>2025-08-10T09:32:07.696Z</time>
      </trkpt>
      <trkpt lat="44.13819" lon="0.61348">
        <ele>115</ele>
        <time>2025-08-10T09:32:08.696Z</time>
      </trkpt>
      <trkpt lat="44.13819" lon="0.61348">
        <ele>115</ele>
        <time>2025-08-10T09:32:09.696Z</time>
      </trkpt>
      <trkpt lat="44.13819" lon="0.61348">
        <ele>115</ele>
        <time>2025-08-10T09:32:10.696Z</time>
      </trkpt>
      <trkpt lat="44.13819" lon="0.61348">
        <ele>115</ele>
        <time>2025-08-10T09:32:11.696Z</time>
      </trkpt>
      <trkpt lat="44.13819" lon="0.61348">
        <ele>115</ele>
        <time>2025-08-10T09:32:12.696Z</time>
      </trkpt>
      <trkpt lat="44.13819" lon="0.61348">
        <ele>115</ele>
        <time>2025-08-10T09:32:13.696Z</time>
      </trkpt>
      <trkpt lat="44.13819" lon="0.61348">
        <ele>116</ele>
        <time>2025-08-10T09:32:14.696Z</time>
      </trkpt>
      <trkpt lat="44.13819" lon="0.61348">
        <ele>116</ele>
        <time>2025-08-10T09:32:15.696Z</time>
      </trkpt>
      <trkpt lat="44.13819" lon="0.61348">
        <ele>117</ele>
        <time>2025-08-10T09:32:16.696Z</time>
      </trkpt>
      <trkpt lat="44.13819" lon="0.61348">
        <ele>117</ele>
        <time>2025-08-10T09:32:17.696Z</time>
      </trkpt>
      <trkpt lat="44.1382" lon="0.61348">
        <ele>117</ele>
        <time>2025-08-10T09:32:18.696Z</time>
      </trkpt>
      <trkpt lat="44.1382" lon="0.61348">
        <ele>117</ele>
        <time>2025-08-10T09:32:19.696Z</time>
      </trkpt>
      <trkpt lat="44.1382" lon="0.61348">
        <ele>118</ele>
        <time>2025-08-10T09:32:20.696Z</time>
      </trkpt>
      <trkpt lat="44.1382" lon="0.61348">
        <ele>118</ele>
        <time>2025-08-10T09:32:21.696Z</time>
      </trkpt>
      <trkpt lat="44.1382" lon="0.61348">
        <ele>118</ele>
        <time>2025-08-10T09:32:22.696Z</time>
      </trkpt>
      <trkpt lat="44.1382" lon="0.61348">
        <ele>118</ele>
        <time>2025-08-10T09:32:23.696Z</time>
      </trkpt>
      <trkpt lat="44.1382" lon="0.61348">
        <ele>118</ele>
        <time>2025-08-10T09:32:24.696Z</time>
      </trkpt>
      <trkpt lat="44.1382" lon="0.61348">
        <ele>118</ele>
        <time>2025-08-10T09:32:25.696Z</time>
      </trkpt>
      <trkpt lat="44.1382" lon="0.61348">
        <ele>118</ele>
        <time>2025-08-10T09:32:26.696Z</time>
      </trkpt>
      <trkpt lat="44.1382" lon="0.61348">
        <ele>118</ele>
        <time>2025-08-10T09:32:27.696Z</time>
      </trkpt>
      <trkpt lat="44.1382" lon="0.61348">
        <ele>118</ele>
        <time>2025-08-10T09:32:28.696Z</time>
      </trkpt>
      <trkpt lat="44.1382" lon="0.61348">
        <ele>118</ele>
        <time>2025-08-10T09:32:29.696Z</time>
      </trkpt>
      <trkpt lat="44.13819" lon="0.61348">
        <ele>118</ele>
        <time>2025-08-10T09:32:30.696Z</time>
      </trkpt>
      <trkpt lat="44.13819" lon="0.61348">
        <ele>118</ele>
        <time>2025-08-10T09:32:31.696Z</time>
      </trkpt>
      <trkpt lat="44.13819" lon="0.61348">
        <ele>117</ele>
        <time>2025-08-10T09:32:32.696Z</time>
      </trkpt>
      <trkpt lat="44.13819" lon="0.61348">
        <ele>117</ele>
        <time>2025-08-10T09:32:33.696Z</time>
      </trkpt>
      <trkpt lat="44.13819" lon="0.61348">
        <ele>117</ele>
        <time>2025-08-10T09:32:34.696Z</time>
      </trkpt>
      <trkpt lat="44.13819" lon="0.61348">
        <ele>117</ele>
        <time>2025-08-10T09:32:35.696Z</time>
      </trkpt>
      <trkpt lat="44.13819" lon="0.61348">
        <ele>117</ele>
        <time>2025-08-10T09:32:36.696Z</time>
      </trkpt>
      <trkpt lat="44.13819" lon="0.61348">
        <ele>117</ele>
        <time>2025-08-10T09:32:37.696Z</time>
      </trkpt>
      <trkpt lat="44.13819" lon="0.61348">
        <ele>117</ele>
        <time>2025-08-10T09:32:38.696Z</time>
      </trkpt>
      <trkpt lat="44.13819" lon="0.61348">
        <ele>117</ele>
        <time>2025-08-10T09:32:39.696Z</time>
      </trkpt>
      <trkpt lat="44.13819" lon="0.61349">
        <ele>117</ele>
        <time>2025-08-10T09:32:40.696Z</time>
      </trkpt>
      <trkpt lat="44.13819" lon="0.61349">
        <ele>117</ele>
        <time>2025-08-10T09:32:41.696Z</time>
      </trkpt>
      <trkpt lat="44.13819" lon="0.6135">
        <ele>117</ele>
        <time>2025-08-10T09:32:42.696Z</time>
      </trkpt>
      <trkpt lat="44.1382" lon="0.6135">
        <ele>117</ele>
        <time>2025-08-10T09:32:43.696Z</time>
      </trkpt>
      <trkpt lat="44.1382" lon="0.6135">
        <ele>117</ele>
        <time>2025-08-10T09:32:44.696Z</time>
      </trkpt>
      <trkpt lat="44.1382" lon="0.6135">
        <ele>117</ele>
        <time>2025-08-10T09:32:45.696Z</time>
      </trkpt>
      <trkpt lat="44.1382" lon="0.61351">
        <ele>117</ele>
        <time>2025-08-10T09:32:46.696Z</time>
      </trkpt>
      <trkpt lat="44.1382" lon="0.61351">
        <ele>116</ele>
        <time>2025-08-10T09:32:47.696Z</time>
      </trkpt>
      <trkpt lat="44.13821" lon="0.61351">
        <ele>116</ele>
        <time>2025-08-10T09:32:48.696Z</time>
      </trkpt>
      <trkpt lat="44.13821" lon="0.61351">
        <ele>116</ele>
        <time>2025-08-10T09:32:49.696Z</time>
      </trkpt>
      <trkpt lat="44.13821" lon="0.61351">
        <ele>116</ele>
        <time>2025-08-10T09:32:50.696Z</time>
      </trkpt>
      <trkpt lat="44.1382" lon="0.61351">
        <ele>116</ele>
        <time>2025-08-10T09:32:51.696Z</time>
      </trkpt>
      <trkpt lat="44.13821" lon="0.61351">
        <ele>116</ele>
        <time>2025-08-10T09:32:52.696Z</time>
      </trkpt>
      <trkpt lat="44.13821" lon="0.61351">
        <ele>115</ele>
        <time>2025-08-10T09:32:53.696Z</time>
      </trkpt>
      <trkpt lat="44.13821" lon="0.61351">
        <ele>115</ele>
        <time>2025-08-10T09:32:54.696Z</time>
      </trkpt>
      <trkpt lat="44.13821" lon="0.61351">
        <ele>115</ele>
        <time>2025-08-10T09:32:55.696Z</time>
      </trkpt>
      <trkpt lat="44.13821" lon="0.61351">
        <ele>115</ele>
        <time>2025-08-10T09:32:56.696Z</time>
      </trkpt>
      <trkpt lat="44.13821" lon="0.61351">
        <ele>115</ele>
        <time>2025-08-10T09:32:57.696Z</time>
      </trkpt>
      <trkpt lat="44.13821" lon="0.61351">
        <ele>115</ele>
        <time>2025-08-10T09:32:58.696Z</time>
      </trkpt>
      <trkpt lat="44.13821" lon="0.6135">
        <ele>115</ele>
        <time>2025-08-10T09:32:59.696Z</time>
      </trkpt>
      <trkpt lat="44.13821" lon="0.6135">
        <ele>115</ele>
        <time>2025-08-10T09:33:00.696Z</time>
      </trkpt>
      <trkpt lat="44.13821" lon="0.6135">
        <ele>115</ele>
        <time>2025-08-10T09:33:01.696Z</time>
      </trkpt>
      <trkpt lat="44.13821" lon="0.6135">
        <ele>115</ele>
        <time>2025-08-10T09:33:02.696Z</time>
      </trkpt>
      <trkpt lat="44.13821" lon="0.6135">
        <ele>115</ele>
        <time>2025-08-10T09:33:03.696Z</time>
      </trkpt>
      <trkpt lat="44.13821" lon="0.6135">
        <ele>115</ele>
        <time>2025-08-10T09:33:04.696Z</time>
      </trkpt>
      <trkpt lat="44.13821" lon="0.6135">
        <ele>115</ele>
        <time>2025-08-10T09:33:05.696Z</time>
      </trkpt>
      <trkpt lat="44.13821" lon="0.6135">
        <ele>116</ele>
        <time>2025-08-10T09:33:06.696Z</time>
      </trkpt>
      <trkpt lat="44.13821" lon="0.6135">
        <ele>116</ele>
        <time>2025-08-10T09:33:07.696Z</time>
      </trkpt>
      <trkpt lat="44.13821" lon="0.6135">
        <ele>116</ele>
        <time>2025-08-10T09:33:08.696Z</time>
      </trkpt>
      <trkpt lat="44.13821" lon="0.6135">
        <ele>116</ele>
        <time>2025-08-10T09:33:09.696Z</time>
      </trkpt>
      <trkpt lat="44.13821" lon="0.6135">
        <ele>116</ele>
        <time>2025-08-10T09:33:10.696Z</time>
      </trkpt>
      <trkpt lat="44.13821" lon="0.6135">
        <ele>116</ele>
        <time>2025-08-10T09:33:11.696Z</time>
      </trkpt>
      <trkpt lat="44.1382" lon="0.6135">
        <ele>116</ele>
        <time>2025-08-10T09:33:12.696Z</time>
      </trkpt>
      <trkpt lat="44.1382" lon="0.61351">
        <ele>116</ele>
        <time>2025-08-10T09:33:13.696Z</time>
      </trkpt>
      <trkpt lat="44.13821" lon="0.61351">
        <ele>116</ele>
        <time>2025-08-10T09:33:14.696Z</time>
      </trkpt>
      <trkpt lat="44.13821" lon="0.61351">
        <ele>116</ele>
        <time>2025-08-10T09:33:15.696Z</time>
      </trkpt>
      <trkpt lat="44.13821" lon="0.61351">
        <ele>116</ele>
        <time>2025-08-10T09:33:16.696Z</time>
      </trkpt>
      <trkpt lat="44.13822" lon="0.61351">
        <ele>116</ele>
        <time>2025-08-10T09:33:17.696Z</time>
      </trkpt>
      <trkpt lat="44.13822" lon="0.61351">
        <ele>116</ele>
        <time>2025-08-10T09:33:18.696Z</time>
      </trkpt>
      <trkpt lat="44.13822" lon="0.61351">
        <ele>116</ele>
        <time>2025-08-10T09:33:19.696Z</time>
      </trkpt>
      <trkpt lat="44.13822" lon="0.61351">
        <ele>116</ele>
        <time>2025-08-10T09:33:20.696Z</time>
      </trkpt>
      <trkpt lat="44.13823" lon="0.6135">
        <ele>117</ele>
        <time>2025-08-10T09:33:21.696Z</time>
      </trkpt>
      <trkpt lat="44.13823" lon="0.61351">
        <ele>117</ele>
        <time>2025-08-10T09:33:22.696Z</time>
      </trkpt>
      <trkpt lat="44.13824" lon="0.61352">
        <ele>117</ele>
        <time>2025-08-10T09:33:23.696Z</time>
      </trkpt>
      <trkpt lat="44.13824" lon="0.61352">
        <ele>117</ele>
        <time>2025-08-10T09:33:24.696Z</time>
      </trkpt>
      <trkpt lat="44.13824" lon="0.61353">
        <ele>116</ele>
        <time>2025-08-10T09:33:25.696Z</time>
      </trkpt>
      <trkpt lat="44.13825" lon="0.61353">
        <ele>116</ele>
        <time>2025-08-10T09:33:26.696Z</time>
      </trkpt>
      <trkpt lat="44.13825" lon="0.61353">
        <ele>117</ele>
        <time>2025-08-10T09:33:27.696Z</time>
      </trkpt>
      <trkpt lat="44.13825" lon="0.61353">
        <ele>117</ele>
        <time>2025-08-10T09:33:28.696Z</time>
      </trkpt>
      <trkpt lat="44.13825" lon="0.61352">
        <ele>117</ele>
        <time>2025-08-10T09:33:29.696Z</time>
      </trkpt>
      <trkpt lat="44.13825" lon="0.61352">
        <ele>117</ele>
        <time>2025-08-10T09:33:30.696Z</time>
      </trkpt>
      <trkpt lat="44.13825" lon="0.61352">
        <ele>117</ele>
        <time>2025-08-10T09:33:31.696Z</time>
      </trkpt>
      <trkpt lat="44.13825" lon="0.61353">
        <ele>118</ele>
        <time>2025-08-10T09:33:32.696Z</time>
      </trkpt>
      <trkpt lat="44.13825" lon="0.61353">
        <ele>118</ele>
        <time>2025-08-10T09:33:33.696Z</time>
      </trkpt>
      <trkpt lat="44.13825" lon="0.61353">
        <ele>118</ele>
        <time>2025-08-10T09:33:34.696Z</time>
      </trkpt>
      <trkpt lat="44.13825" lon="0.61353">
        <ele>117</ele>
        <time>2025-08-10T09:33:35.696Z</time>
      </trkpt>
      <trkpt lat="44.13825" lon="0.61353">
        <ele>118</ele>
        <time>2025-08-10T09:33:36.696Z</time>
      </trkpt>
      <trkpt lat="44.13825" lon="0.61353">
        <ele>117</ele>
        <time>2025-08-10T09:33:37.696Z</time>
      </trkpt>
      <trkpt lat="44.13825" lon="0.61353">
        <ele>117</ele>
        <time>2025-08-10T09:33:38.696Z</time>
      </trkpt>
      <trkpt lat="44.13825" lon="0.61353">
        <ele>117</ele>
        <time>2025-08-10T09:33:39.696Z</time>
      </trkpt>
      <trkpt lat="44.13826" lon="0.61353">
        <ele>117</ele>
        <time>2025-08-10T09:33:40.696Z</time>
      </trkpt>
      <trkpt lat="44.13826" lon="0.61353">
        <ele>117</ele>
        <time>2025-08-10T09:33:41.696Z</time>
      </trkpt>
      <trkpt lat="44.13826" lon="0.61353">
        <ele>117</ele>
        <time>2025-08-10T09:33:42.696Z</time>
      </trkpt>
      <trkpt lat="44.13826" lon="0.61353">
        <ele>118</ele>
        <time>2025-08-10T09:33:43.696Z</time>
      </trkpt>
      <trkpt lat="44.13827" lon="0.61353">
        <ele>118</ele>
        <time>2025-08-10T09:33:44.696Z</time>
      </trkpt>
      <trkpt lat="44.13827" lon="0.61353">
        <ele>118</ele>
        <time>2025-08-10T09:33:45.696Z</time>
      </trkpt>
      <trkpt lat="44.13828" lon="0.61353">
        <ele>118</ele>
        <time>2025-08-10T09:33:46.696Z</time>
      </trkpt>
      <trkpt lat="44.13829" lon="0.61352">
        <ele>118</ele>
        <time>2025-08-10T09:33:47.696Z</time>
      </trkpt>
      <trkpt lat="44.13829" lon="0.61352">
        <ele>118</ele>
        <time>2025-08-10T09:33:48.696Z</time>
      </trkpt>
      <trkpt lat="44.1383" lon="0.61351">
        <ele>118</ele>
        <time>2025-08-10T09:33:49.696Z</time>
      </trkpt>
      <trkpt lat="44.1383" lon="0.61351">
        <ele>118</ele>
        <time>2025-08-10T09:33:50.696Z</time>
      </trkpt>
      <trkpt lat="44.13831" lon="0.6135">
        <ele>118</ele>
        <time>2025-08-10T09:33:51.696Z</time>
      </trkpt>
      <trkpt lat="44.13832" lon="0.61349">
        <ele>118</ele>
        <time>2025-08-10T09:33:52.696Z</time>
      </trkpt>
      <trkpt lat="44.13832" lon="0.61349">
        <ele>118</ele>
        <time>2025-08-10T09:33:53.696Z</time>
      </trkpt>
      <trkpt lat="44.13833" lon="0.61348">
        <ele>118</ele>
        <time>2025-08-10T09:33:54.696Z</time>
      </trkpt>
      <trkpt lat="44.13834" lon="0.61348">
        <ele>118</ele>
        <time>2025-08-10T09:33:55.696Z</time>
      </trkpt>
      <trkpt lat="44.13835" lon="0.61348">
        <ele>117</ele>
        <time>2025-08-10T09:33:56.696Z</time>
      </trkpt>
      <trkpt lat="44.13836" lon="0.61348">
        <ele>117</ele>
        <time>2025-08-10T09:33:57.696Z</time>
      </trkpt>
      <trkpt lat="44.13837" lon="0.61347">
        <ele>117</ele>
        <time>2025-08-10T09:33:58.696Z</time>
      </trkpt>
      <trkpt lat="44.13837" lon="0.61347">
        <ele>116</ele>
        <time>2025-08-10T09:33:59.696Z</time>
      </trkpt>
      <trkpt lat="44.13838" lon="0.61346">
        <ele>116</ele>
        <time>2025-08-10T09:34:00.696Z</time>
      </trkpt>
      <trkpt lat="44.13839" lon="0.61345">
        <ele>116</ele>
        <time>2025-08-10T09:34:01.696Z</time>
      </trkpt>
      <trkpt lat="44.1384" lon="0.61345">
        <ele>116</ele>
        <time>2025-08-10T09:34:02.696Z</time>
      </trkpt>
      <trkpt lat="44.13841" lon="0.61344">
        <ele>116</ele>
        <time>2025-08-10T09:34:03.696Z</time>
      </trkpt>
      <trkpt lat="44.13842" lon="0.61343">
        <ele>117</ele>
        <time>2025-08-10T09:34:04.696Z</time>
      </trkpt>
      <trkpt lat="44.13843" lon="0.61341">
        <ele>117</ele>
        <time>2025-08-10T09:34:05.696Z</time>
      </trkpt>
      <trkpt lat="44.13843" lon="0.6134">
        <ele>117</ele>
        <time>2025-08-10T09:34:06.696Z</time>
      </trkpt>
      <trkpt lat="44.13844" lon="0.6134">
        <ele>117</ele>
        <time>2025-08-10T09:34:07.696Z</time>
      </trkpt>
      <trkpt lat="44.13845" lon="0.61339">
        <ele>117</ele>
        <time>2025-08-10T09:34:08.696Z</time>
      </trkpt>
      <trkpt lat="44.13846" lon="0.61339">
        <ele>118</ele>
        <time>2025-08-10T09:34:09.696Z</time>
      </trkpt>
      <trkpt lat="44.13847" lon="0.61338">
        <ele>118</ele>
        <time>2025-08-10T09:34:10.696Z</time>
      </trkpt>
      <trkpt lat="44.13848" lon="0.61338">
        <ele>118</ele>
        <time>2025-08-10T09:34:11.696Z</time>
      </trkpt>
      <trkpt lat="44.13849" lon="0.61338">
        <ele>118</ele>
        <time>2025-08-10T09:34:12.696Z</time>
      </trkpt>
      <trkpt lat="44.1385" lon="0.61338">
        <ele>118</ele>
        <time>2025-08-10T09:34:13.696Z</time>
      </trkpt>
      <trkpt lat="44.13851" lon="0.61337">
        <ele>118</ele>
        <time>2025-08-10T09:34:14.696Z</time>
      </trkpt>
      <trkpt lat="44.13852" lon="0.61336">
        <ele>118</ele>
        <time>2025-08-10T09:34:15.696Z</time>
      </trkpt>
      <trkpt lat="44.13852" lon="0.61335">
        <ele>118</ele>
        <time>2025-08-10T09:34:16.696Z</time>
      </trkpt>
      <trkpt lat="44.13853" lon="0.61334">
        <ele>118</ele>
        <time>2025-08-10T09:34:17.696Z</time>
      </trkpt>
      <trkpt lat="44.13853" lon="0.61333">
        <ele>118</ele>
        <time>2025-08-10T09:34:18.696Z</time>
      </trkpt>
      <trkpt lat="44.13854" lon="0.61333">
        <ele>118</ele>
        <time>2025-08-10T09:34:19.696Z</time>
      </trkpt>
      <trkpt lat="44.13854" lon="0.61332">
        <ele>118</ele>
        <time>2025-08-10T09:34:20.696Z</time>
      </trkpt>
      <trkpt lat="44.13854" lon="0.61332">
        <ele>118</ele>
        <time>2025-08-10T09:34:21.696Z</time>
      </trkpt>
      <trkpt lat="44.13854" lon="0.61332">
        <ele>118</ele>
        <time>2025-08-10T09:34:22.696Z</time>
      </trkpt>
      <trkpt lat="44.13855" lon="0.61332">
        <ele>118</ele>
        <time>2025-08-10T09:34:23.696Z</time>
      </trkpt>
      <trkpt lat="44.13856" lon="0.61332">
        <ele>117</ele>
        <time>2025-08-10T09:34:24.696Z</time>
      </trkpt>
      <trkpt lat="44.13856" lon="0.61331">
        <ele>117</ele>
        <time>2025-08-10T09:34:25.696Z</time>
      </trkpt>
      <trkpt lat="44.13857" lon="0.6133">
        <ele>117</ele>
        <time>2025-08-10T09:34:26.696Z</time>
      </trkpt>
      <trkpt lat="44.13857" lon="0.61329">
        <ele>116</ele>
        <time>2025-08-10T09:34:27.696Z</time>
      </trkpt>
      <trkpt lat="44.13858" lon="0.61328">
        <ele>116</ele>
        <time>2025-08-10T09:34:28.696Z</time>
      </trkpt>
      <trkpt lat="44.13858" lon="0.61327">
        <ele>116</ele>
        <time>2025-08-10T09:34:29.696Z</time>
      </trkpt>
      <trkpt lat="44.13858" lon="0.61326">
        <ele>116</ele>
        <time>2025-08-10T09:34:30.696Z</time>
      </trkpt>
      <trkpt lat="44.13859" lon="0.61325">
        <ele>116</ele>
        <time>2025-08-10T09:34:31.696Z</time>
      </trkpt>
      <trkpt lat="44.1386" lon="0.61324">
        <ele>116</ele>
        <time>2025-08-10T09:34:32.697Z</time>
      </trkpt>
      <trkpt lat="44.1386" lon="0.61322">
        <ele>116</ele>
        <time>2025-08-10T09:34:33.696Z</time>
      </trkpt>
      <trkpt lat="44.13861" lon="0.61321">
        <ele>115</ele>
        <time>2025-08-10T09:34:34.696Z</time>
      </trkpt>
      <trkpt lat="44.13861" lon="0.6132">
        <ele>116</ele>
        <time>2025-08-10T09:34:35.696Z</time>
      </trkpt>
      <trkpt lat="44.13862" lon="0.61319">
        <ele>116</ele>
        <time>2025-08-10T09:34:36.696Z</time>
      </trkpt>
      <trkpt lat="44.13863" lon="0.61318">
        <ele>116</ele>
        <time>2025-08-10T09:34:37.696Z</time>
      </trkpt>
      <trkpt lat="44.13863" lon="0.61317">
        <ele>116</ele>
        <time>2025-08-10T09:34:38.696Z</time>
      </trkpt>
      <trkpt lat="44.13864" lon="0.61315">
        <ele>116</ele>
        <time>2025-08-10T09:34:39.696Z</time>
      </trkpt>
      <trkpt lat="44.13864" lon="0.61314">
        <ele>116</ele>
        <time>2025-08-10T09:34:40.696Z</time>
      </trkpt>
      <trkpt lat="44.13865" lon="0.61313">
        <ele>116</ele>
        <time>2025-08-10T09:34:41.696Z</time>
      </trkpt>
      <trkpt lat="44.13865" lon="0.61311">
        <ele>116</ele>
        <time>2025-08-10T09:34:42.696Z</time>
      </trkpt>
      <trkpt lat="44.13866" lon="0.6131">
        <ele>117</ele>
        <time>2025-08-10T09:34:43.696Z</time>
      </trkpt>
      <trkpt lat="44.13866" lon="0.61309">
        <ele>117</ele>
        <time>2025-08-10T09:34:44.696Z</time>
      </trkpt>
      <trkpt lat="44.13867" lon="0.61308">
        <ele>117</ele>
        <time>2025-08-10T09:34:45.696Z</time>
      </trkpt>
      <trkpt lat="44.13868" lon="0.61307">
        <ele>117</ele>
        <time>2025-08-10T09:34:46.696Z</time>
      </trkpt>
      <trkpt lat="44.13868" lon="0.61305">
        <ele>117</ele>
        <time>2025-08-10T09:34:47.696Z</time>
      </trkpt>
      <trkpt lat="44.13869" lon="0.61304">
        <ele>117</ele>
        <time>2025-08-10T09:34:48.696Z</time>
      </trkpt>
      <trkpt lat="44.1387" lon="0.61303">
        <ele>118</ele>
        <time>2025-08-10T09:34:49.696Z</time>
      </trkpt>
      <trkpt lat="44.1387" lon="0.61302">
        <ele>118</ele>
        <time>2025-08-10T09:34:50.696Z</time>
      </trkpt>
      <trkpt lat="44.13871" lon="0.61301">
        <ele>119</ele>
        <time>2025-08-10T09:34:51.696Z</time>
      </trkpt>
      <trkpt lat="44.13871" lon="0.61299">
        <ele>119</ele>
        <time>2025-08-10T09:34:52.696Z</time>
      </trkpt>
      <trkpt lat="44.13872" lon="0.61298">
        <ele>119</ele>
        <time>2025-08-10T09:34:53.696Z</time>
      </trkpt>
      <trkpt lat="44.13872" lon="0.61297">
        <ele>119</ele>
        <time>2025-08-10T09:34:54.696Z</time>
      </trkpt>
      <trkpt lat="44.13873" lon="0.61296">
        <ele>119</ele>
        <time>2025-08-10T09:34:55.696Z</time>
      </trkpt>
      <trkpt lat="44.13873" lon="0.61295">
        <ele>119</ele>
        <time>2025-08-10T09:34:56.696Z</time>
      </trkpt>
      <trkpt lat="44.13874" lon="0.61294">
        <ele>119</ele>
        <time>2025-08-10T09:34:57.696Z</time>
      </trkpt>
      <trkpt lat="44.13875" lon="0.61293">
        <ele>119</ele>
        <time>2025-08-10T09:34:58.696Z</time>
      </trkpt>
      <trkpt lat="44.13876" lon="0.61292">
        <ele>119</ele>
        <time>2025-08-10T09:34:59.696Z</time>
      </trkpt>
      <trkpt lat="44.13876" lon="0.61291">
        <ele>119</ele>
        <time>2025-08-10T09:35:00.696Z</time>
      </trkpt>
      <trkpt lat="44.13877" lon="0.61289">
        <ele>120</ele>
        <time>2025-08-10T09:35:01.696Z</time>
      </trkpt>
      <trkpt lat="44.13878" lon="0.61288">
        <ele>120</ele>
        <time>2025-08-10T09:35:02.696Z</time>
      </trkpt>
      <trkpt lat="44.13878" lon="0.61287">
        <ele>120</ele>
        <time>2025-08-10T09:35:03.696Z</time>
      </trkpt>
      <trkpt lat="44.13879" lon="0.61286">
        <ele>121</ele>
        <time>2025-08-10T09:35:04.696Z</time>
      </trkpt>
      <trkpt lat="44.1388" lon="0.61284">
        <ele>121</ele>
        <time>2025-08-10T09:35:05.696Z</time>
      </trkpt>
      <trkpt lat="44.1388" lon="0.61283">
        <ele>121</ele>
        <time>2025-08-10T09:35:06.696Z</time>
      </trkpt>
      <trkpt lat="44.13881" lon="0.61282">
        <ele>121</ele>
        <time>2025-08-10T09:35:07.696Z</time>
      </trkpt>
      <trkpt lat="44.13881" lon="0.61281">
        <ele>121</ele>
        <time>2025-08-10T09:35:08.696Z</time>
      </trkpt>
      <trkpt lat="44.13882" lon="0.61279">
        <ele>122</ele>
        <time>2025-08-10T09:35:09.696Z</time>
      </trkpt>
      <trkpt lat="44.13883" lon="0.61278">
        <ele>122</ele>
        <time>2025-08-10T09:35:10.696Z</time>
      </trkpt>
      <trkpt lat="44.13883" lon="0.61277">
        <ele>122</ele>
        <time>2025-08-10T09:35:11.696Z</time>
      </trkpt>
      <trkpt lat="44.13884" lon="0.61276">
        <ele>122</ele>
        <time>2025-08-10T09:35:12.696Z</time>
      </trkpt>
      <trkpt lat="44.13884" lon="0.61274">
        <ele>122</ele>
        <time>2025-08-10T09:35:13.696Z</time>
      </trkpt>
      <trkpt lat="44.13885" lon="0.61273">
        <ele>123</ele>
        <time>2025-08-10T09:35:14.696Z</time>
      </trkpt>
      <trkpt lat="44.13886" lon="0.61272">
        <ele>123</ele>
        <time>2025-08-10T09:35:15.696Z</time>
      </trkpt>
      <trkpt lat="44.13886" lon="0.61271">
        <ele>123</ele>
        <time>2025-08-10T09:35:16.696Z</time>
      </trkpt>
      <trkpt lat="44.13887" lon="0.61269">
        <ele>124</ele>
        <time>2025-08-10T09:35:17.696Z</time>
      </trkpt>
      <trkpt lat="44.13887" lon="0.61268">
        <ele>124</ele>
        <time>2025-08-10T09:35:18.696Z</time>
      </trkpt>
      <trkpt lat="44.13888" lon="0.61266">
        <ele>125</ele>
        <time>2025-08-10T09:35:19.696Z</time>
      </trkpt>
      <trkpt lat="44.13889" lon="0.61265">
        <ele>126</ele>
        <time>2025-08-10T09:35:20.696Z</time>
      </trkpt>
      <trkpt lat="44.13889" lon="0.61264">
        <ele>126</ele>
        <time>2025-08-10T09:35:21.696Z</time>
      </trkpt>
      <trkpt lat="44.1389" lon="0.61263">
        <ele>127</ele>
        <time>2025-08-10T09:35:22.696Z</time>
      </trkpt>
      <trkpt lat="44.1389" lon="0.61262">
        <ele>127</ele>
        <time>2025-08-10T09:35:23.696Z</time>
      </trkpt>
      <trkpt lat="44.13891" lon="0.6126">
        <ele>127</ele>
        <time>2025-08-10T09:35:24.696Z</time>
      </trkpt>
      <trkpt lat="44.13892" lon="0.61259">
        <ele>128</ele>
        <time>2025-08-10T09:35:25.696Z</time>
      </trkpt>
      <trkpt lat="44.13892" lon="0.61258">
        <ele>128</ele>
        <time>2025-08-10T09:35:26.696Z</time>
      </trkpt>
      <trkpt lat="44.13893" lon="0.61256">
        <ele>128</ele>
        <time>2025-08-10T09:35:27.696Z</time>
      </trkpt>
      <trkpt lat="44.13894" lon="0.61255">
        <ele>128</ele>
        <time>2025-08-10T09:35:28.696Z</time>
      </trkpt>
      <trkpt lat="44.13895" lon="0.61254">
        <ele>128</ele>
        <time>2025-08-10T09:35:29.696Z</time>
      </trkpt>
      <trkpt lat="44.13895" lon="0.61253">
        <ele>128</ele>
        <time>2025-08-10T09:35:30.696Z</time>
      </trkpt>
      <trkpt lat="44.13896" lon="0.61252">
        <ele>128</ele>
        <time>2025-08-10T09:35:31.696Z</time>
      </trkpt>
      <trkpt lat="44.13896" lon="0.61251">
        <ele>128</ele>
        <time>2025-08-10T09:35:32.696Z</time>
      </trkpt>
      <trkpt lat="44.13897" lon="0.61249">
        <ele>127</ele>
        <time>2025-08-10T09:35:33.696Z</time>
      </trkpt>
      <trkpt lat="44.13897" lon="0.61248">
        <ele>127</ele>
        <time>2025-08-10T09:35:34.696Z</time>
      </trkpt>
      <trkpt lat="44.13898" lon="0.61247">
        <ele>127</ele>
        <time>2025-08-10T09:35:35.696Z</time>
      </trkpt>
      <trkpt lat="44.13899" lon="0.61246">
        <ele>126</ele>
        <time>2025-08-10T09:35:36.696Z</time>
      </trkpt>
      <trkpt lat="44.139" lon="0.61245">
        <ele>126</ele>
        <time>2025-08-10T09:35:37.696Z</time>
      </trkpt>
      <trkpt lat="44.139" lon="0.61244">
        <ele>126</ele>
        <time>2025-08-10T09:35:38.696Z</time>
      </trkpt>
      <trkpt lat="44.13901" lon="0.61243">
        <ele>126</ele>
        <time>2025-08-10T09:35:39.696Z</time>
      </trkpt>
      <trkpt lat="44.13902" lon="0.61242">
        <ele>125</ele>
        <time>2025-08-10T09:35:40.696Z</time>
      </trkpt>
      <trkpt lat="44.13902" lon="0.61241">
        <ele>125</ele>
        <time>2025-08-10T09:35:41.696Z</time>
      </trkpt>
      <trkpt lat="44.13903" lon="0.61239">
        <ele>124</ele>
        <time>2025-08-10T09:35:42.696Z</time>
      </trkpt>
      <trkpt lat="44.13904" lon="0.61238">
        <ele>123</ele>
        <time>2025-08-10T09:35:43.696Z</time>
      </trkpt>
      <trkpt lat="44.13904" lon="0.61237">
        <ele>123</ele>
        <time>2025-08-10T09:35:44.696Z</time>
      </trkpt>
      <trkpt lat="44.13905" lon="0.61235">
        <ele>123</ele>
        <time>2025-08-10T09:35:45.696Z</time>
      </trkpt>
      <trkpt lat="44.13906" lon="0.61234">
        <ele>122</ele>
        <time>2025-08-10T09:35:46.696Z</time>
      </trkpt>
      <trkpt lat="44.13906" lon="0.61233">
        <ele>122</ele>
        <time>2025-08-10T09:35:47.696Z</time>
      </trkpt>
      <trkpt lat="44.13907" lon="0.61232">
        <ele>122</ele>
        <time>2025-08-10T09:35:48.696Z</time>
      </trkpt>
      <trkpt lat="44.13908" lon="0.61231">
        <ele>122</ele>
        <time>2025-08-10T09:35:49.696Z</time>
      </trkpt>
      <trkpt lat="44.13908" lon="0.6123">
        <ele>122</ele>
        <time>2025-08-10T09:35:50.696Z</time>
      </trkpt>
      <trkpt lat="44.13909" lon="0.61229">
        <ele>122</ele>
        <time>2025-08-10T09:35:51.696Z</time>
      </trkpt>
      <trkpt lat="44.1391" lon="0.61228">
        <ele>122</ele>
        <time>2025-08-10T09:35:52.696Z</time>
      </trkpt>
      <trkpt lat="44.1391" lon="0.61227">
        <ele>122</ele>
        <time>2025-08-10T09:35:53.696Z</time>
      </trkpt>
      <trkpt lat="44.13911" lon="0.61226">
        <ele>123</ele>
        <time>2025-08-10T09:35:54.696Z</time>
      </trkpt>
      <trkpt lat="44.13911" lon="0.61224">
        <ele>123</ele>
        <time>2025-08-10T09:35:55.696Z</time>
      </trkpt>
      <trkpt lat="44.13912" lon="0.61223">
        <ele>124</ele>
        <time>2025-08-10T09:35:56.696Z</time>
      </trkpt>
      <trkpt lat="44.13912" lon="0.61222">
        <ele>124</ele>
        <time>2025-08-10T09:35:57.696Z</time>
      </trkpt>
      <trkpt lat="44.13913" lon="0.6122">
        <ele>124</ele>
        <time>2025-08-10T09:35:58.696Z</time>
      </trkpt>
      <trkpt lat="44.13913" lon="0.61219">
        <ele>124</ele>
        <time>2025-08-10T09:35:59.696Z</time>
      </trkpt>
      <trkpt lat="44.13914" lon="0.61218">
        <ele>125</ele>
        <time>2025-08-10T09:36:00.696Z</time>
      </trkpt>
      <trkpt lat="44.13914" lon="0.61217">
        <ele>125</ele>
        <time>2025-08-10T09:36:01.696Z</time>
      </trkpt>
      <trkpt lat="44.13915" lon="0.61216">
        <ele>125</ele>
        <time>2025-08-10T09:36:02.696Z</time>
      </trkpt>
      <trkpt lat="44.13915" lon="0.61215">
        <ele>125</ele>
        <time>2025-08-10T09:36:03.696Z</time>
      </trkpt>
      <trkpt lat="44.13916" lon="0.61213">
        <ele>126</ele>
        <time>2025-08-10T09:36:04.696Z</time>
      </trkpt>
      <trkpt lat="44.13916" lon="0.61212">
        <ele>126</ele>
        <time>2025-08-10T09:36:05.696Z</time>
      </trkpt>
      <trkpt lat="44.13916" lon="0.6121">
        <ele>126</ele>
        <time>2025-08-10T09:36:06.696Z</time>
      </trkpt>
      <trkpt lat="44.13916" lon="0.61209">
        <ele>126</ele>
        <time>2025-08-10T09:36:07.696Z</time>
      </trkpt>
      <trkpt lat="44.13916" lon="0.61207">
        <ele>127</ele>
        <time>2025-08-10T09:36:08.696Z</time>
      </trkpt>
      <trkpt lat="44.13916" lon="0.61206">
        <ele>127</ele>
        <time>2025-08-10T09:36:09.696Z</time>
      </trkpt>
      <trkpt lat="44.13916" lon="0.61205">
        <ele>127</ele>
        <time>2025-08-10T09:36:10.696Z</time>
      </trkpt>
      <trkpt lat="44.13916" lon="0.61204">
        <ele>128</ele>
        <time>2025-08-10T09:36:11.696Z</time>
      </trkpt>
      <trkpt lat="44.13916" lon="0.61203">
        <ele>128</ele>
        <time>2025-08-10T09:36:12.696Z</time>
      </trkpt>
      <trkpt lat="44.13915" lon="0.61201">
        <ele>128</ele>
        <time>2025-08-10T09:36:13.696Z</time>
      </trkpt>
      <trkpt lat="44.13915" lon="0.612">
        <ele>129</ele>
        <time>2025-08-10T09:36:14.696Z</time>
      </trkpt>
      <trkpt lat="44.13915" lon="0.61199">
        <ele>129</ele>
        <time>2025-08-10T09:36:15.696Z</time>
      </trkpt>
      <trkpt lat="44.13915" lon="0.61198">
        <ele>130</ele>
        <time>2025-08-10T09:36:16.696Z</time>
      </trkpt>
      <trkpt lat="44.13914" lon="0.61197">
        <ele>130</ele>
        <time>2025-08-10T09:36:17.696Z</time>
      </trkpt>
      <trkpt lat="44.13913" lon="0.61197">
        <ele>131</ele>
        <time>2025-08-10T09:36:18.696Z</time>
      </trkpt>
      <trkpt lat="44.13912" lon="0.61196">
        <ele>131</ele>
        <time>2025-08-10T09:36:19.696Z</time>
      </trkpt>
      <trkpt lat="44.13911" lon="0.61194">
        <ele>132</ele>
        <time>2025-08-10T09:36:20.696Z</time>
      </trkpt>
      <trkpt lat="44.1391" lon="0.61193">
        <ele>132</ele>
        <time>2025-08-10T09:36:21.696Z</time>
      </trkpt>
      <trkpt lat="44.13909" lon="0.61192">
        <ele>133</ele>
        <time>2025-08-10T09:36:22.696Z</time>
      </trkpt>
      <trkpt lat="44.13909" lon="0.61192">
        <ele>133</ele>
        <time>2025-08-10T09:36:23.696Z</time>
      </trkpt>
      <trkpt lat="44.13908" lon="0.61191">
        <ele>134</ele>
        <time>2025-08-10T09:36:24.696Z</time>
      </trkpt>
      <trkpt lat="44.13907" lon="0.6119">
        <ele>135</ele>
        <time>2025-08-10T09:36:25.696Z</time>
      </trkpt>
      <trkpt lat="44.13905" lon="0.6119">
        <ele>136</ele>
        <time>2025-08-10T09:36:26.696Z</time>
      </trkpt>
      <trkpt lat="44.13904" lon="0.6119">
        <ele>137</ele>
        <time>2025-08-10T09:36:27.696Z</time>
      </trkpt>
      <trkpt lat="44.13903" lon="0.61189">
        <ele>137</ele>
        <time>2025-08-10T09:36:28.696Z</time>
      </trkpt>
      <trkpt lat="44.13902" lon="0.61188">
        <ele>138</ele>
        <time>2025-08-10T09:36:29.696Z</time>
      </trkpt>
      <trkpt lat="44.13901" lon="0.61189">
        <ele>139</ele>
        <time>2025-08-10T09:36:30.696Z</time>
      </trkpt>
      <trkpt lat="44.139" lon="0.61189">
        <ele>139</ele>
        <time>2025-08-10T09:36:31.696Z</time>
      </trkpt>
      <trkpt lat="44.139" lon="0.61189">
        <ele>139</ele>
        <time>2025-08-10T09:36:32.696Z</time>
      </trkpt>
      <trkpt lat="44.13899" lon="0.61188">
        <ele>140</ele>
        <time>2025-08-10T09:36:33.696Z</time>
      </trkpt>
      <trkpt lat="44.13899" lon="0.61188">
        <ele>140</ele>
        <time>2025-08-10T09:36:34.696Z</time>
      </trkpt>
      <trkpt lat="44.13898" lon="0.61187">
        <ele>140</ele>
        <time>2025-08-10T09:36:35.696Z</time>
      </trkpt>
      <trkpt lat="44.13898" lon="0.61186">
        <ele>140</ele>
        <time>2025-08-10T09:36:36.696Z</time>
      </trkpt>
      <trkpt lat="44.13897" lon="0.61186">
        <ele>140</ele>
        <time>2025-08-10T09:36:37.696Z</time>
      </trkpt>
      <trkpt lat="44.13896" lon="0.61184">
        <ele>140</ele>
        <time>2025-08-10T09:36:38.696Z</time>
      </trkpt>
      <trkpt lat="44.13896" lon="0.61182">
        <ele>139</ele>
        <time>2025-08-10T09:36:39.696Z</time>
      </trkpt>
      <trkpt lat="44.13896" lon="0.61181">
        <ele>139</ele>
        <time>2025-08-10T09:36:40.696Z</time>
      </trkpt>
      <trkpt lat="44.13896" lon="0.6118">
        <ele>138</ele>
        <time>2025-08-10T09:36:41.696Z</time>
      </trkpt>
      <trkpt lat="44.13895" lon="0.61178">
        <ele>138</ele>
        <time>2025-08-10T09:36:42.696Z</time>
      </trkpt>
      <trkpt lat="44.13895" lon="0.61177">
        <ele>137</ele>
        <time>2025-08-10T09:36:43.696Z</time>
      </trkpt>
      <trkpt lat="44.13894" lon="0.61176">
        <ele>137</ele>
        <time>2025-08-10T09:36:44.696Z</time>
      </trkpt>
      <trkpt lat="44.13893" lon="0.61176">
        <ele>136</ele>
        <time>2025-08-10T09:36:45.696Z</time>
      </trkpt>
      <trkpt lat="44.13892" lon="0.61175">
        <ele>135</ele>
        <time>2025-08-10T09:36:46.696Z</time>
      </trkpt>
      <trkpt lat="44.13891" lon="0.61174">
        <ele>135</ele>
        <time>2025-08-10T09:36:47.696Z</time>
      </trkpt>
      <trkpt lat="44.13891" lon="0.61174">
        <ele>134</ele>
        <time>2025-08-10T09:36:48.696Z</time>
      </trkpt>
      <trkpt lat="44.1389" lon="0.61173">
        <ele>134</ele>
        <time>2025-08-10T09:36:49.696Z</time>
      </trkpt>
      <trkpt lat="44.13889" lon="0.61172">
        <ele>134</ele>
        <time>2025-08-10T09:36:50.696Z</time>
      </trkpt>
      <trkpt lat="44.13888" lon="0.61171">
        <ele>133</ele>
        <time>2025-08-10T09:36:51.696Z</time>
      </trkpt>
      <trkpt lat="44.13887" lon="0.6117">
        <ele>133</ele>
        <time>2025-08-10T09:36:52.696Z</time>
      </trkpt>
      <trkpt lat="44.13887" lon="0.61169">
        <ele>132</ele>
        <time>2025-08-10T09:36:53.696Z</time>
      </trkpt>
      <trkpt lat="44.13886" lon="0.61168">
        <ele>132</ele>
        <time>2025-08-10T09:36:54.696Z</time>
      </trkpt>
      <trkpt lat="44.13886" lon="0.61166">
        <ele>131</ele>
        <time>2025-08-10T09:36:55.696Z</time>
      </trkpt>
      <trkpt lat="44.13885" lon="0.61165">
        <ele>130</ele>
        <time>2025-08-10T09:36:56.696Z</time>
      </trkpt>
      <trkpt lat="44.13884" lon="0.61164">
        <ele>130</ele>
        <time>2025-08-10T09:36:57.696Z</time>
      </trkpt>
      <trkpt lat="44.13884" lon="0.61163">
        <ele>130</ele>
        <time>2025-08-10T09:36:58.696Z</time>
      </trkpt>
      <trkpt lat="44.13883" lon="0.61161">
        <ele>130</ele>
        <time>2025-08-10T09:36:59.696Z</time>
      </trkpt>
      <trkpt lat="44.13883" lon="0.61161">
        <ele>130</ele>
        <time>2025-08-10T09:37:00.696Z</time>
      </trkpt>
      <trkpt lat="44.13882" lon="0.61159">
        <ele>130</ele>
        <time>2025-08-10T09:37:01.696Z</time>
      </trkpt>
      <trkpt lat="44.13881" lon="0.61158">
        <ele>130</ele>
        <time>2025-08-10T09:37:02.696Z</time>
      </trkpt>
      <trkpt lat="44.13881" lon="0.61157">
        <ele>130</ele>
        <time>2025-08-10T09:37:03.696Z</time>
      </trkpt>
      <trkpt lat="44.1388" lon="0.61156">
        <ele>130</ele>
        <time>2025-08-10T09:37:04.696Z</time>
      </trkpt>
      <trkpt lat="44.1388" lon="0.61155">
        <ele>130</ele>
        <time>2025-08-10T09:37:05.696Z</time>
      </trkpt>
      <trkpt lat="44.1388" lon="0.61153">
        <ele>130</ele>
        <time>2025-08-10T09:37:06.696Z</time>
      </trkpt>
      <trkpt lat="44.13879" lon="0.61153">
        <ele>131</ele>
        <time>2025-08-10T09:37:07.696Z</time>
      </trkpt>
      <trkpt lat="44.13878" lon="0.61152">
        <ele>131</ele>
        <time>2025-08-10T09:37:08.696Z</time>
      </trkpt>
      <trkpt lat="44.13877" lon="0.61151">
        <ele>131</ele>
        <time>2025-08-10T09:37:09.696Z</time>
      </trkpt>
      <trkpt lat="44.13877" lon="0.6115">
        <ele>131</ele>
        <time>2025-08-10T09:37:10.696Z</time>
      </trkpt>
      <trkpt lat="44.13876" lon="0.61149">
        <ele>132</ele>
        <time>2025-08-10T09:37:11.696Z</time>
      </trkpt>
      <trkpt lat="44.13875" lon="0.61148">
        <ele>132</ele>
        <time>2025-08-10T09:37:12.696Z</time>
      </trkpt>
      <trkpt lat="44.13874" lon="0.61147">
        <ele>132</ele>
        <time>2025-08-10T09:37:13.696Z</time>
      </trkpt>
      <trkpt lat="44.13874" lon="0.61145">
        <ele>133</ele>
        <time>2025-08-10T09:37:14.696Z</time>
      </trkpt>
      <trkpt lat="44.13873" lon="0.61144">
        <ele>133</ele>
        <time>2025-08-10T09:37:15.696Z</time>
      </trkpt>
      <trkpt lat="44.13873" lon="0.61143">
        <ele>133</ele>
        <time>2025-08-10T09:37:16.696Z</time>
      </trkpt>
      <trkpt lat="44.13872" lon="0.61141">
        <ele>133</ele>
        <time>2025-08-10T09:37:17.696Z</time>
      </trkpt>
      <trkpt lat="44.13872" lon="0.6114">
        <ele>133</ele>
        <time>2025-08-10T09:37:18.696Z</time>
      </trkpt>
      <trkpt lat="44.13872" lon="0.61138">
        <ele>133</ele>
        <time>2025-08-10T09:37:19.696Z</time>
      </trkpt>
      <trkpt lat="44.13871" lon="0.61136">
        <ele>134</ele>
        <time>2025-08-10T09:37:20.696Z</time>
      </trkpt>
      <trkpt lat="44.13871" lon="0.61135">
        <ele>134</ele>
        <time>2025-08-10T09:37:21.696Z</time>
      </trkpt>
      <trkpt lat="44.1387" lon="0.61134">
        <ele>134</ele>
        <time>2025-08-10T09:37:22.696Z</time>
      </trkpt>
      <trkpt lat="44.1387" lon="0.61132">
        <ele>134</ele>
        <time>2025-08-10T09:37:23.696Z</time>
      </trkpt>
      <trkpt lat="44.13869" lon="0.61131">
        <ele>134</ele>
        <time>2025-08-10T09:37:24.696Z</time>
      </trkpt>
      <trkpt lat="44.13869" lon="0.6113">
        <ele>134</ele>
        <time>2025-08-10T09:37:25.696Z</time>
      </trkpt>
      <trkpt lat="44.13869" lon="0.61129">
        <ele>134</ele>
        <time>2025-08-10T09:37:26.696Z</time>
      </trkpt>
      <trkpt lat="44.13868" lon="0.61127">
        <ele>135</ele>
        <time>2025-08-10T09:37:27.696Z</time>
      </trkpt>
      <trkpt lat="44.13868" lon="0.61126">
        <ele>135</ele>
        <time>2025-08-10T09:37:28.696Z</time>
      </trkpt>
      <trkpt lat="44.13867" lon="0.61125">
        <ele>135</ele>
        <time>2025-08-10T09:37:29.696Z</time>
      </trkpt>
      <trkpt lat="44.13867" lon="0.61123">
        <ele>135</ele>
        <time>2025-08-10T09:37:30.696Z</time>
      </trkpt>
      <trkpt lat="44.13867" lon="0.61122">
        <ele>136</ele>
        <time>2025-08-10T09:37:31.696Z</time>
      </trkpt>
      <trkpt lat="44.13866" lon="0.61121">
        <ele>136</ele>
        <time>2025-08-10T09:37:32.696Z</time>
      </trkpt>
      <trkpt lat="44.13865" lon="0.6112">
        <ele>136</ele>
        <time>2025-08-10T09:37:33.696Z</time>
      </trkpt>
      <trkpt lat="44.13865" lon="0.61119">
        <ele>136</ele>
        <time>2025-08-10T09:37:34.696Z</time>
      </trkpt>
      <trkpt lat="44.13865" lon="0.61118">
        <ele>136</ele>
        <time>2025-08-10T09:37:35.696Z</time>
      </trkpt>
      <trkpt lat="44.13864" lon="0.61116">
        <ele>136</ele>
        <time>2025-08-10T09:37:36.696Z</time>
      </trkpt>
      <trkpt lat="44.13864" lon="0.61115">
        <ele>137</ele>
        <time>2025-08-10T09:37:37.696Z</time>
      </trkpt>
      <trkpt lat="44.13863" lon="0.61114">
        <ele>137</ele>
        <time>2025-08-10T09:37:38.696Z</time>
      </trkpt>
      <trkpt lat="44.13863" lon="0.61113">
        <ele>137</ele>
        <time>2025-08-10T09:37:39.696Z</time>
      </trkpt>
      <trkpt lat="44.13862" lon="0.61112">
        <ele>137</ele>
        <time>2025-08-10T09:37:40.696Z</time>
      </trkpt>
      <trkpt lat="44.13862" lon="0.61111">
        <ele>137</ele>
        <time>2025-08-10T09:37:41.696Z</time>
      </trkpt>
      <trkpt lat="44.13862" lon="0.61109">
        <ele>137</ele>
        <time>2025-08-10T09:37:42.697Z</time>
      </trkpt>
      <trkpt lat="44.13861" lon="0.61108">
        <ele>137</ele>
        <time>2025-08-10T09:37:43.696Z</time>
      </trkpt>
      <trkpt lat="44.13861" lon="0.61107">
        <ele>137</ele>
        <time>2025-08-10T09:37:44.696Z</time>
      </trkpt>
      <trkpt lat="44.1386" lon="0.61106">
        <ele>137</ele>
        <time>2025-08-10T09:37:45.696Z</time>
      </trkpt>
      <trkpt lat="44.1386" lon="0.61105">
        <ele>137</ele>
        <time>2025-08-10T09:37:46.696Z</time>
      </trkpt>
      <trkpt lat="44.1386" lon="0.61104">
        <ele>137</ele>
        <time>2025-08-10T09:37:47.696Z</time>
      </trkpt>
      <trkpt lat="44.13859" lon="0.61103">
        <ele>137</ele>
        <time>2025-08-10T09:37:48.696Z</time>
      </trkpt>
      <trkpt lat="44.13859" lon="0.61102">
        <ele>137</ele>
        <time>2025-08-10T09:37:49.696Z</time>
      </trkpt>
      <trkpt lat="44.13858" lon="0.61101">
        <ele>138</ele>
        <time>2025-08-10T09:37:50.696Z</time>
      </trkpt>
      <trkpt lat="44.13857" lon="0.611">
        <ele>138</ele>
        <time>2025-08-10T09:37:51.696Z</time>
      </trkpt>
      <trkpt lat="44.13857" lon="0.61099">
        <ele>139</ele>
        <time>2025-08-10T09:37:52.696Z</time>
      </trkpt>
      <trkpt lat="44.13856" lon="0.61097">
        <ele>139</ele>
        <time>2025-08-10T09:37:53.696Z</time>
      </trkpt>
      <trkpt lat="44.13856" lon="0.61096">
        <ele>139</ele>
        <time>2025-08-10T09:37:54.696Z</time>
      </trkpt>
      <trkpt lat="44.13856" lon="0.61095">
        <ele>139</ele>
        <time>2025-08-10T09:37:55.696Z</time>
      </trkpt>
      <trkpt lat="44.13856" lon="0.61093">
        <ele>139</ele>
        <time>2025-08-10T09:37:56.696Z</time>
      </trkpt>
      <trkpt lat="44.13855" lon="0.61092">
        <ele>139</ele>
        <time>2025-08-10T09:37:57.696Z</time>
      </trkpt>
      <trkpt lat="44.13855" lon="0.61091">
        <ele>139</ele>
        <time>2025-08-10T09:37:58.696Z</time>
      </trkpt>
      <trkpt lat="44.13855" lon="0.6109">
        <ele>139</ele>
        <time>2025-08-10T09:37:59.696Z</time>
      </trkpt>
      <trkpt lat="44.13854" lon="0.61089">
        <ele>139</ele>
        <time>2025-08-10T09:38:00.696Z</time>
      </trkpt>
      <trkpt lat="44.13854" lon="0.61087">
        <ele>139</ele>
        <time>2025-08-10T09:38:01.696Z</time>
      </trkpt>
      <trkpt lat="44.13853" lon="0.61086">
        <ele>140</ele>
        <time>2025-08-10T09:38:02.696Z</time>
      </trkpt>
      <trkpt lat="44.13853" lon="0.61085">
        <ele>140</ele>
        <time>2025-08-10T09:38:03.696Z</time>
      </trkpt>
      <trkpt lat="44.13853" lon="0.61083">
        <ele>140</ele>
        <time>2025-08-10T09:38:04.696Z</time>
      </trkpt>
      <trkpt lat="44.13853" lon="0.61082">
        <ele>140</ele>
        <time>2025-08-10T09:38:05.696Z</time>
      </trkpt>
      <trkpt lat="44.13852" lon="0.61081">
        <ele>140</ele>
        <time>2025-08-10T09:38:06.696Z</time>
      </trkpt>
      <trkpt lat="44.13852" lon="0.61079">
        <ele>141</ele>
        <time>2025-08-10T09:38:07.696Z</time>
      </trkpt>
      <trkpt lat="44.13851" lon="0.61078">
        <ele>141</ele>
        <time>2025-08-10T09:38:08.696Z</time>
      </trkpt>
      <trkpt lat="44.13851" lon="0.61077">
        <ele>141</ele>
        <time>2025-08-10T09:38:09.696Z</time>
      </trkpt>
      <trkpt lat="44.13851" lon="0.61076">
        <ele>141</ele>
        <time>2025-08-10T09:38:10.696Z</time>
      </trkpt>
      <trkpt lat="44.1385" lon="0.61075">
        <ele>141</ele>
        <time>2025-08-10T09:38:11.696Z</time>
      </trkpt>
      <trkpt lat="44.1385" lon="0.61073">
        <ele>141</ele>
        <time>2025-08-10T09:38:12.696Z</time>
      </trkpt>
      <trkpt lat="44.1385" lon="0.61072">
        <ele>141</ele>
        <time>2025-08-10T09:38:13.696Z</time>
      </trkpt>
      <trkpt lat="44.1385" lon="0.6107">
        <ele>141</ele>
        <time>2025-08-10T09:38:14.696Z</time>
      </trkpt>
      <trkpt lat="44.13849" lon="0.61069">
        <ele>141</ele>
        <time>2025-08-10T09:38:15.696Z</time>
      </trkpt>
      <trkpt lat="44.13849" lon="0.61067">
        <ele>141</ele>
        <time>2025-08-10T09:38:16.696Z</time>
      </trkpt>
      <trkpt lat="44.13849" lon="0.61066">
        <ele>141</ele>
        <time>2025-08-10T09:38:17.696Z</time>
      </trkpt>
      <trkpt lat="44.13849" lon="0.61065">
        <ele>141</ele>
        <time>2025-08-10T09:38:18.696Z</time>
      </trkpt>
      <trkpt lat="44.13849" lon="0.61064">
        <ele>140</ele>
        <time>2025-08-10T09:38:19.696Z</time>
      </trkpt>
      <trkpt lat="44.13848" lon="0.61062">
        <ele>140</ele>
        <time>2025-08-10T09:38:20.696Z</time>
      </trkpt>
      <trkpt lat="44.13848" lon="0.61061">
        <ele>140</ele>
        <time>2025-08-10T09:38:21.696Z</time>
      </trkpt>
      <trkpt lat="44.13848" lon="0.6106">
        <ele>140</ele>
        <time>2025-08-10T09:38:22.696Z</time>
      </trkpt>
      <trkpt lat="44.13847" lon="0.61059">
        <ele>140</ele>
        <time>2025-08-10T09:38:23.696Z</time>
      </trkpt>
      <trkpt lat="44.13847" lon="0.61058">
        <ele>140</ele>
        <time>2025-08-10T09:38:24.696Z</time>
      </trkpt>
      <trkpt lat="44.13846" lon="0.61057">
        <ele>140</ele>
        <time>2025-08-10T09:38:25.696Z</time>
      </trkpt>
      <trkpt lat="44.13846" lon="0.61056">
        <ele>140</ele>
        <time>2025-08-10T09:38:26.696Z</time>
      </trkpt>
      <trkpt lat="44.13846" lon="0.61054">
        <ele>140</ele>
        <time>2025-08-10T09:38:27.696Z</time>
      </trkpt>
      <trkpt lat="44.13846" lon="0.61053">
        <ele>141</ele>
        <time>2025-08-10T09:38:28.696Z</time>
      </trkpt>
      <trkpt lat="44.13845" lon="0.61052">
        <ele>141</ele>
        <time>2025-08-10T09:38:29.696Z</time>
      </trkpt>
      <trkpt lat="44.13845" lon="0.6105">
        <ele>141</ele>
        <time>2025-08-10T09:38:30.696Z</time>
      </trkpt>
      <trkpt lat="44.13845" lon="0.61049">
        <ele>141</ele>
        <time>2025-08-10T09:38:31.697Z</time>
      </trkpt>
      <trkpt lat="44.13844" lon="0.61048">
        <ele>141</ele>
        <time>2025-08-10T09:38:32.696Z</time>
      </trkpt>
      <trkpt lat="44.13844" lon="0.61047">
        <ele>142</ele>
        <time>2025-08-10T09:38:33.696Z</time>
      </trkpt>
      <trkpt lat="44.13843" lon="0.61046">
        <ele>141</ele>
        <time>2025-08-10T09:38:34.696Z</time>
      </trkpt>
      <trkpt lat="44.13843" lon="0.61045">
        <ele>141</ele>
        <time>2025-08-10T09:38:35.696Z</time>
      </trkpt>
      <trkpt lat="44.13843" lon="0.61044">
        <ele>141</ele>
        <time>2025-08-10T09:38:36.696Z</time>
      </trkpt>
      <trkpt lat="44.13843" lon="0.61043">
        <ele>141</ele>
        <time>2025-08-10T09:38:37.696Z</time>
      </trkpt>
      <trkpt lat="44.13843" lon="0.61042">
        <ele>141</ele>
        <time>2025-08-10T09:38:38.696Z</time>
      </trkpt>
      <trkpt lat="44.13843" lon="0.6104">
        <ele>141</ele>
        <time>2025-08-10T09:38:39.696Z</time>
      </trkpt>
      <trkpt lat="44.13843" lon="0.61039">
        <ele>142</ele>
        <time>2025-08-10T09:38:40.696Z</time>
      </trkpt>
      <trkpt lat="44.13843" lon="0.61037">
        <ele>142</ele>
        <time>2025-08-10T09:38:41.696Z</time>
      </trkpt>
      <trkpt lat="44.13843" lon="0.61036">
        <ele>142</ele>
        <time>2025-08-10T09:38:42.696Z</time>
      </trkpt>
      <trkpt lat="44.13843" lon="0.61036">
        <ele>143</ele>
        <time>2025-08-10T09:38:43.696Z</time>
      </trkpt>
      <trkpt lat="44.13844" lon="0.61035">
        <ele>143</ele>
        <time>2025-08-10T09:38:44.696Z</time>
      </trkpt>
      <trkpt lat="44.13844" lon="0.61032">
        <ele>143</ele>
        <time>2025-08-10T09:38:45.696Z</time>
      </trkpt>
      <trkpt lat="44.13844" lon="0.61031">
        <ele>143</ele>
        <time>2025-08-10T09:38:46.696Z</time>
      </trkpt>
      <trkpt lat="44.13845" lon="0.6103">
        <ele>143</ele>
        <time>2025-08-10T09:38:47.696Z</time>
      </trkpt>
      <trkpt lat="44.13845" lon="0.61029">
        <ele>143</ele>
        <time>2025-08-10T09:38:48.696Z</time>
      </trkpt>
      <trkpt lat="44.13845" lon="0.61028">
        <ele>143</ele>
        <time>2025-08-10T09:38:49.696Z</time>
      </trkpt>
      <trkpt lat="44.13845" lon="0.61027">
        <ele>143</ele>
        <time>2025-08-10T09:38:50.696Z</time>
      </trkpt>
      <trkpt lat="44.13845" lon="0.61026">
        <ele>143</ele>
        <time>2025-08-10T09:38:51.696Z</time>
      </trkpt>
      <trkpt lat="44.13846" lon="0.61025">
        <ele>143</ele>
        <time>2025-08-10T09:38:52.696Z</time>
      </trkpt>
      <trkpt lat="44.13846" lon="0.61024">
        <ele>143</ele>
        <time>2025-08-10T09:38:53.696Z</time>
      </trkpt>
      <trkpt lat="44.13847" lon="0.61023">
        <ele>143</ele>
        <time>2025-08-10T09:38:54.696Z</time>
      </trkpt>
      <trkpt lat="44.13847" lon="0.61021">
        <ele>143</ele>
        <time>2025-08-10T09:38:55.696Z</time>
      </trkpt>
      <trkpt lat="44.13848" lon="0.6102">
        <ele>143</ele>
        <time>2025-08-10T09:38:56.696Z</time>
      </trkpt>
      <trkpt lat="44.13848" lon="0.61019">
        <ele>143</ele>
        <time>2025-08-10T09:38:57.696Z</time>
      </trkpt>
      <trkpt lat="44.13849" lon="0.61018">
        <ele>143</ele>
        <time>2025-08-10T09:38:58.696Z</time>
      </trkpt>
      <trkpt lat="44.13849" lon="0.61017">
        <ele>144</ele>
        <time>2025-08-10T09:38:59.696Z</time>
      </trkpt>
      <trkpt lat="44.1385" lon="0.61017">
        <ele>144</ele>
        <time>2025-08-10T09:39:00.696Z</time>
      </trkpt>
      <trkpt lat="44.1385" lon="0.61016">
        <ele>145</ele>
        <time>2025-08-10T09:39:01.696Z</time>
      </trkpt>
      <trkpt lat="44.1385" lon="0.61016">
        <ele>146</ele>
        <time>2025-08-10T09:39:02.696Z</time>
      </trkpt>
      <trkpt lat="44.1385" lon="0.61016">
        <ele>146</ele>
        <time>2025-08-10T09:39:03.696Z</time>
      </trkpt>
      <trkpt lat="44.1385" lon="0.61016">
        <ele>147</ele>
        <time>2025-08-10T09:39:04.696Z</time>
      </trkpt>
      <trkpt lat="44.1385" lon="0.61015">
        <ele>147</ele>
        <time>2025-08-10T09:39:05.696Z</time>
      </trkpt>
      <trkpt lat="44.1385" lon="0.61015">
        <ele>148</ele>
        <time>2025-08-10T09:39:06.696Z</time>
      </trkpt>
      <trkpt lat="44.13851" lon="0.61016">
        <ele>149</ele>
        <time>2025-08-10T09:39:07.696Z</time>
      </trkpt>
      <trkpt lat="44.13852" lon="0.61016">
        <ele>149</ele>
        <time>2025-08-10T09:39:08.696Z</time>
      </trkpt>
      <trkpt lat="44.13852" lon="0.61016">
        <ele>150</ele>
        <time>2025-08-10T09:39:09.696Z</time>
      </trkpt>
      <trkpt lat="44.13852" lon="0.61016">
        <ele>150</ele>
        <time>2025-08-10T09:39:10.696Z</time>
      </trkpt>
      <trkpt lat="44.13852" lon="0.61016">
        <ele>151</ele>
        <time>2025-08-10T09:39:11.696Z</time>
      </trkpt>
      <trkpt lat="44.13852" lon="0.61016">
        <ele>151</ele>
        <time>2025-08-10T09:39:12.696Z</time>
      </trkpt>
      <trkpt lat="44.13852" lon="0.61016">
        <ele>152</ele>
        <time>2025-08-10T09:39:13.696Z</time>
      </trkpt>
      <trkpt lat="44.13852" lon="0.61016">
        <ele>152</ele>
        <time>2025-08-10T09:39:14.696Z</time>
      </trkpt>
      <trkpt lat="44.13852" lon="0.61016">
        <ele>152</ele>
        <time>2025-08-10T09:39:15.697Z</time>
      </trkpt>
      <trkpt lat="44.13852" lon="0.61016">
        <ele>152</ele>
        <time>2025-08-10T09:39:16.696Z</time>
      </trkpt>
      <trkpt lat="44.13852" lon="0.61016">
        <ele>153</ele>
        <time>2025-08-10T09:39:17.696Z</time>
      </trkpt>
      <trkpt lat="44.13852" lon="0.61016">
        <ele>153</ele>
        <time>2025-08-10T09:39:18.696Z</time>
      </trkpt>
      <trkpt lat="44.13852" lon="0.61016">
        <ele>153</ele>
        <time>2025-08-10T09:39:19.696Z</time>
      </trkpt>
      <trkpt lat="44.13852" lon="0.61016">
        <ele>154</ele>
        <time>2025-08-10T09:39:20.696Z</time>
      </trkpt>
      <trkpt lat="44.13852" lon="0.61016">
        <ele>154</ele>
        <time>2025-08-10T09:39:21.696Z</time>
      </trkpt>
      <trkpt lat="44.13852" lon="0.61016">
        <ele>155</ele>
        <time>2025-08-10T09:39:22.696Z</time>
      </trkpt>
      <trkpt lat="44.13852" lon="0.61016">
        <ele>154</ele>
        <time>2025-08-10T09:39:23.696Z</time>
      </trkpt>
      <trkpt lat="44.13852" lon="0.61016">
        <ele>154</ele>
        <time>2025-08-10T09:39:24.696Z</time>
      </trkpt>
      <trkpt lat="44.13852" lon="0.61016">
        <ele>154</ele>
        <time>2025-08-10T09:39:25.696Z</time>
      </trkpt>
      <trkpt lat="44.13853" lon="0.61016">
        <ele>154</ele>
        <time>2025-08-10T09:39:26.696Z</time>
      </trkpt>
      <trkpt lat="44.13853" lon="0.61016">
        <ele>153</ele>
        <time>2025-08-10T09:39:27.696Z</time>
      </trkpt>
      <trkpt lat="44.13853" lon="0.61016">
        <ele>153</ele>
        <time>2025-08-10T09:39:28.696Z</time>
      </trkpt>
      <trkpt lat="44.13853" lon="0.61016">
        <ele>153</ele>
        <time>2025-08-10T09:39:29.696Z</time>
      </trkpt>
      <trkpt lat="44.13853" lon="0.61016">
        <ele>153</ele>
        <time>2025-08-10T09:39:30.696Z</time>
      </trkpt>
      <trkpt lat="44.13853" lon="0.61016">
        <ele>153</ele>
        <time>2025-08-10T09:39:31.696Z</time>
      </trkpt>
      <trkpt lat="44.13853" lon="0.61016">
        <ele>153</ele>
        <time>2025-08-10T09:39:32.696Z</time>
      </trkpt>
      <trkpt lat="44.13853" lon="0.61016">
        <ele>153</ele>
        <time>2025-08-10T09:39:33.696Z</time>
      </trkpt>
      <trkpt lat="44.13853" lon="0.61016">
        <ele>153</ele>
        <time>2025-08-10T09:39:34.696Z</time>
      </trkpt>
      <trkpt lat="44.13853" lon="0.61017">
        <ele>153</ele>
        <time>2025-08-10T09:39:35.696Z</time>
      </trkpt>
      <trkpt lat="44.13853" lon="0.61017">
        <ele>152</ele>
        <time>2025-08-10T09:39:36.696Z</time>
      </trkpt>
      <trkpt lat="44.13853" lon="0.61016">
        <ele>152</ele>
        <time>2025-08-10T09:39:37.696Z</time>
      </trkpt>
      <trkpt lat="44.13853" lon="0.61016">
        <ele>152</ele>
        <time>2025-08-10T09:39:38.696Z</time>
      </trkpt>
      <trkpt lat="44.13852" lon="0.61016">
        <ele>152</ele>
        <time>2025-08-10T09:39:39.696Z</time>
      </trkpt>
      <trkpt lat="44.13852" lon="0.61016">
        <ele>152</ele>
        <time>2025-08-10T09:39:40.696Z</time>
      </trkpt>
      <trkpt lat="44.13852" lon="0.61017">
        <ele>152</ele>
        <time>2025-08-10T09:39:41.697Z</time>
      </trkpt>
      <trkpt lat="44.13852" lon="0.61017">
        <ele>152</ele>
        <time>2025-08-10T09:39:42.696Z</time>
      </trkpt>
      <trkpt lat="44.13853" lon="0.61017">
        <ele>152</ele>
        <time>2025-08-10T09:39:43.696Z</time>
      </trkpt>
      <trkpt lat="44.13853" lon="0.61017">
        <ele>152</ele>
        <time>2025-08-10T09:39:44.696Z</time>
      </trkpt>
      <trkpt lat="44.13854" lon="0.61017">
        <ele>152</ele>
        <time>2025-08-10T09:39:45.696Z</time>
      </trkpt>
      <trkpt lat="44.13854" lon="0.61017">
        <ele>151</ele>
        <time>2025-08-10T09:39:46.696Z</time>
      </trkpt>
      <trkpt lat="44.13855" lon="0.61017">
        <ele>151</ele>
        <time>2025-08-10T09:39:47.696Z</time>
      </trkpt>
      <trkpt lat="44.13855" lon="0.61017">
        <ele>151</ele>
        <time>2025-08-10T09:39:48.696Z</time>
      </trkpt>
      <trkpt lat="44.13855" lon="0.61017">
        <ele>151</ele>
        <time>2025-08-10T09:39:49.696Z</time>
      </trkpt>
      <trkpt lat="44.13855" lon="0.61017">
        <ele>151</ele>
        <time>2025-08-10T09:39:50.696Z</time>
      </trkpt>
      <trkpt lat="44.13855" lon="0.61017">
        <ele>151</ele>
        <time>2025-08-10T09:39:51.696Z</time>
      </trkpt>
      <trkpt lat="44.13855" lon="0.61017">
        <ele>151</ele>
        <time>2025-08-10T09:39:52.696Z</time>
      </trkpt>
      <trkpt lat="44.13855" lon="0.61016">
        <ele>152</ele>
        <time>2025-08-10T09:39:53.696Z</time>
      </trkpt>
      <trkpt lat="44.13855" lon="0.61014">
        <ele>152</ele>
        <time>2025-08-10T09:39:54.696Z</time>
      </trkpt>
      <trkpt lat="44.13855" lon="0.61013">
        <ele>153</ele>
        <time>2025-08-10T09:39:55.696Z</time>
      </trkpt>
      <trkpt lat="44.13856" lon="0.61012">
        <ele>153</ele>
        <time>2025-08-10T09:39:56.696Z</time>
      </trkpt>
      <trkpt lat="44.13856" lon="0.61011">
        <ele>153</ele>
        <time>2025-08-10T09:39:57.696Z</time>
      </trkpt>
      <trkpt lat="44.13857" lon="0.61011">
        <ele>154</ele>
        <time>2025-08-10T09:39:58.696Z</time>
      </trkpt>
      <trkpt lat="44.13858" lon="0.61011">
        <ele>154</ele>
        <time>2025-08-10T09:39:59.696Z</time>
      </trkpt>
      <trkpt lat="44.13859" lon="0.6101">
        <ele>154</ele>
        <time>2025-08-10T09:40:00.696Z</time>
      </trkpt>
      <trkpt lat="44.1386" lon="0.6101">
        <ele>154</ele>
        <time>2025-08-10T09:40:01.696Z</time>
      </trkpt>
      <trkpt lat="44.13861" lon="0.6101">
        <ele>153</ele>
        <time>2025-08-10T09:40:02.696Z</time>
      </trkpt>
      <trkpt lat="44.13862" lon="0.61009">
        <ele>153</ele>
        <time>2025-08-10T09:40:03.696Z</time>
      </trkpt>
      <trkpt lat="44.13862" lon="0.6101">
        <ele>153</ele>
        <time>2025-08-10T09:40:04.696Z</time>
      </trkpt>
      <trkpt lat="44.13864" lon="0.61011">
        <ele>153</ele>
        <time>2025-08-10T09:40:05.696Z</time>
      </trkpt>
      <trkpt lat="44.13865" lon="0.61011">
        <ele>154</ele>
        <time>2025-08-10T09:40:06.696Z</time>
      </trkpt>
      <trkpt lat="44.13866" lon="0.61011">
        <ele>154</ele>
        <time>2025-08-10T09:40:07.696Z</time>
      </trkpt>
      <trkpt lat="44.13867" lon="0.6101">
        <ele>154</ele>
        <time>2025-08-10T09:40:08.696Z</time>
      </trkpt>
      <trkpt lat="44.13868" lon="0.6101">
        <ele>154</ele>
        <time>2025-08-10T09:40:09.696Z</time>
      </trkpt>
      <trkpt lat="44.13869" lon="0.6101">
        <ele>154</ele>
        <time>2025-08-10T09:40:10.696Z</time>
      </trkpt>
      <trkpt lat="44.1387" lon="0.6101">
        <ele>154</ele>
        <time>2025-08-10T09:40:11.696Z</time>
      </trkpt>
      <trkpt lat="44.13871" lon="0.6101">
        <ele>154</ele>
        <time>2025-08-10T09:40:12.696Z</time>
      </trkpt>
      <trkpt lat="44.13872" lon="0.6101">
        <ele>154</ele>
        <time>2025-08-10T09:40:13.696Z</time>
      </trkpt>
      <trkpt lat="44.13873" lon="0.61009">
        <ele>154</ele>
        <time>2025-08-10T09:40:14.696Z</time>
      </trkpt>
      <trkpt lat="44.13874" lon="0.61009">
        <ele>154</ele>
        <time>2025-08-10T09:40:15.696Z</time>
      </trkpt>
      <trkpt lat="44.13875" lon="0.61009">
        <ele>154</ele>
        <time>2025-08-10T09:40:16.696Z</time>
      </trkpt>
      <trkpt lat="44.13876" lon="0.61009">
        <ele>153</ele>
        <time>2025-08-10T09:40:17.696Z</time>
      </trkpt>
      <trkpt lat="44.13877" lon="0.61009">
        <ele>153</ele>
        <time>2025-08-10T09:40:18.696Z</time>
      </trkpt>
      <trkpt lat="44.13878" lon="0.61009">
        <ele>153</ele>
        <time>2025-08-10T09:40:19.696Z</time>
      </trkpt>
      <trkpt lat="44.13879" lon="0.61009">
        <ele>153</ele>
        <time>2025-08-10T09:40:20.696Z</time>
      </trkpt>
      <trkpt lat="44.1388" lon="0.61009">
        <ele>153</ele>
        <time>2025-08-10T09:40:21.696Z</time>
      </trkpt>
      <trkpt lat="44.13881" lon="0.6101">
        <ele>153</ele>
        <time>2025-08-10T09:40:22.696Z</time>
      </trkpt>
      <trkpt lat="44.13882" lon="0.6101">
        <ele>153</ele>
        <time>2025-08-10T09:40:23.696Z</time>
      </trkpt>
      <trkpt lat="44.13883" lon="0.6101">
        <ele>153</ele>
        <time>2025-08-10T09:40:24.696Z</time>
      </trkpt>
      <trkpt lat="44.13884" lon="0.6101">
        <ele>153</ele>
        <time>2025-08-10T09:40:25.696Z</time>
      </trkpt>
      <trkpt lat="44.13885" lon="0.61009">
        <ele>153</ele>
        <time>2025-08-10T09:40:26.696Z</time>
      </trkpt>
      <trkpt lat="44.13886" lon="0.61009">
        <ele>154</ele>
        <time>2025-08-10T09:40:27.696Z</time>
      </trkpt>
      <trkpt lat="44.13886" lon="0.61009">
        <ele>154</ele>
        <time>2025-08-10T09:40:28.696Z</time>
      </trkpt>
      <trkpt lat="44.13887" lon="0.61009">
        <ele>154</ele>
        <time>2025-08-10T09:40:29.696Z</time>
      </trkpt>
      <trkpt lat="44.13888" lon="0.61009">
        <ele>154</ele>
        <time>2025-08-10T09:40:30.696Z</time>
      </trkpt>
      <trkpt lat="44.13888" lon="0.61008">
        <ele>154</ele>
        <time>2025-08-10T09:40:31.696Z</time>
      </trkpt>
      <trkpt lat="44.13889" lon="0.61008">
        <ele>155</ele>
        <time>2025-08-10T09:40:32.696Z</time>
      </trkpt>
      <trkpt lat="44.1389" lon="0.61008">
        <ele>155</ele>
        <time>2025-08-10T09:40:33.696Z</time>
      </trkpt>
      <trkpt lat="44.1389" lon="0.61008">
        <ele>155</ele>
        <time>2025-08-10T09:40:34.696Z</time>
      </trkpt>
      <trkpt lat="44.13891" lon="0.61008">
        <ele>155</ele>
        <time>2025-08-10T09:40:35.696Z</time>
      </trkpt>
      <trkpt lat="44.13892" lon="0.61007">
        <ele>155</ele>
        <time>2025-08-10T09:40:36.696Z</time>
      </trkpt>
      <trkpt lat="44.13892" lon="0.61007">
        <ele>155</ele>
        <time>2025-08-10T09:40:37.696Z</time>
      </trkpt>
      <trkpt lat="44.13893" lon="0.61007">
        <ele>156</ele>
        <time>2025-08-10T09:40:38.696Z</time>
      </trkpt>
      <trkpt lat="44.13892" lon="0.61008">
        <ele>156</ele>
        <time>2025-08-10T09:40:39.696Z</time>
      </trkpt>
      <trkpt lat="44.13892" lon="0.61008">
        <ele>156</ele>
        <time>2025-08-10T09:40:40.696Z</time>
      </trkpt>
      <trkpt lat="44.13892" lon="0.61008">
        <ele>156</ele>
        <time>2025-08-10T09:40:41.696Z</time>
      </trkpt>
      <trkpt lat="44.13892" lon="0.61008">
        <ele>156</ele>
        <time>2025-08-10T09:40:42.696Z</time>
      </trkpt>
      <trkpt lat="44.13893" lon="0.61008">
        <ele>156</ele>
        <time>2025-08-10T09:40:43.696Z</time>
      </trkpt>
      <trkpt lat="44.13893" lon="0.61009">
        <ele>156</ele>
        <time>2025-08-10T09:40:44.696Z</time>
      </trkpt>
      <trkpt lat="44.13893" lon="0.61009">
        <ele>157</ele>
        <time>2025-08-10T09:40:45.696Z</time>
      </trkpt>
      <trkpt lat="44.13893" lon="0.61009">
        <ele>157</ele>
        <time>2025-08-10T09:40:46.696Z</time>
      </trkpt>
      <trkpt lat="44.13893" lon="0.61009">
        <ele>157</ele>
        <time>2025-08-10T09:40:47.696Z</time>
      </trkpt>
      <trkpt lat="44.13893" lon="0.6101">
        <ele>158</ele>
        <time>2025-08-10T09:40:48.696Z</time>
      </trkpt>
      <trkpt lat="44.13893" lon="0.6101">
        <ele>158</ele>
        <time>2025-08-10T09:40:49.696Z</time>
      </trkpt>
      <trkpt lat="44.13893" lon="0.6101">
        <ele>158</ele>
        <time>2025-08-10T09:40:50.696Z</time>
      </trkpt>
      <trkpt lat="44.13893" lon="0.6101">
        <ele>158</ele>
        <time>2025-08-10T09:40:51.696Z</time>
      </trkpt>
      <trkpt lat="44.13893" lon="0.6101">
        <ele>158</ele>
        <time>2025-08-10T09:40:52.696Z</time>
      </trkpt>
      <trkpt lat="44.13893" lon="0.6101">
        <ele>157</ele>
        <time>2025-08-10T09:40:53.696Z</time>
      </trkpt>
      <trkpt lat="44.13893" lon="0.6101">
        <ele>157</ele>
        <time>2025-08-10T09:40:54.696Z</time>
      </trkpt>
      <trkpt lat="44.13893" lon="0.6101">
        <ele>157</ele>
        <time>2025-08-10T09:40:55.697Z</time>
      </trkpt>
      <trkpt lat="44.13893" lon="0.6101">
        <ele>157</ele>
        <time>2025-08-10T09:40:56.696Z</time>
      </trkpt>
      <trkpt lat="44.13893" lon="0.6101">
        <ele>157</ele>
        <time>2025-08-10T09:40:57.696Z</time>
      </trkpt>
      <trkpt lat="44.13893" lon="0.6101">
        <ele>156</ele>
        <time>2025-08-10T09:40:58.696Z</time>
      </trkpt>
      <trkpt lat="44.13893" lon="0.6101">
        <ele>156</ele>
        <time>2025-08-10T09:40:59.696Z</time>
      </trkpt>
      <trkpt lat="44.13893" lon="0.61011">
        <ele>156</ele>
        <time>2025-08-10T09:41:00.696Z</time>
      </trkpt>
      <trkpt lat="44.13894" lon="0.61011">
        <ele>156</ele>
        <time>2025-08-10T09:41:01.696Z</time>
      </trkpt>
      <trkpt lat="44.13894" lon="0.6101">
        <ele>156</ele>
        <time>2025-08-10T09:41:02.696Z</time>
      </trkpt>
      <trkpt lat="44.13895" lon="0.6101">
        <ele>157</ele>
        <time>2025-08-10T09:41:03.696Z</time>
      </trkpt>
      <trkpt lat="44.13895" lon="0.6101">
        <ele>157</ele>
        <time>2025-08-10T09:41:04.696Z</time>
      </trkpt>
      <trkpt lat="44.13895" lon="0.6101">
        <ele>157</ele>
        <time>2025-08-10T09:41:05.696Z</time>
      </trkpt>
      <trkpt lat="44.13895" lon="0.6101">
        <ele>157</ele>
        <time>2025-08-10T09:41:06.696Z</time>
      </trkpt>
      <trkpt lat="44.13895" lon="0.6101">
        <ele>157</ele>
        <time>2025-08-10T09:41:07.696Z</time>
      </trkpt>
      <trkpt lat="44.13895" lon="0.6101">
        <ele>157</ele>
        <time>2025-08-10T09:41:08.696Z</time>
      </trkpt>
      <trkpt lat="44.13895" lon="0.6101">
        <ele>157</ele>
        <time>2025-08-10T09:41:09.696Z</time>
      </trkpt>
      <trkpt lat="44.13895" lon="0.6101">
        <ele>156</ele>
        <time>2025-08-10T09:41:10.696Z</time>
      </trkpt>
      <trkpt lat="44.13895" lon="0.6101">
        <ele>156</ele>
        <time>2025-08-10T09:41:11.696Z</time>
      </trkpt>
      <trkpt lat="44.13895" lon="0.61011">
        <ele>156</ele>
        <time>2025-08-10T09:41:12.696Z</time>
      </trkpt>
      <trkpt lat="44.13895" lon="0.61011">
        <ele>155</ele>
        <time>2025-08-10T09:41:13.696Z</time>
      </trkpt>
      <trkpt lat="44.13895" lon="0.61011">
        <ele>155</ele>
        <time>2025-08-10T09:41:14.696Z</time>
      </trkpt>
      <trkpt lat="44.13895" lon="0.61011">
        <ele>155</ele>
        <time>2025-08-10T09:41:15.696Z</time>
      </trkpt>
      <trkpt lat="44.13896" lon="0.61011">
        <ele>155</ele>
        <time>2025-08-10T09:41:16.696Z</time>
      </trkpt>
      <trkpt lat="44.13896" lon="0.61012">
        <ele>155</ele>
        <time>2025-08-10T09:41:17.696Z</time>
      </trkpt>
      <trkpt lat="44.13896" lon="0.61012">
        <ele>156</ele>
        <time>2025-08-10T09:41:18.696Z</time>
      </trkpt>
      <trkpt lat="44.13896" lon="0.61012">
        <ele>156</ele>
        <time>2025-08-10T09:41:19.696Z</time>
      </trkpt>
      <trkpt lat="44.13896" lon="0.61013">
        <ele>157</ele>
        <time>2025-08-10T09:41:20.696Z</time>
      </trkpt>
      <trkpt lat="44.13896" lon="0.61013">
        <ele>157</ele>
        <time>2025-08-10T09:41:21.696Z</time>
      </trkpt>
      <trkpt lat="44.13896" lon="0.61012">
        <ele>157</ele>
        <time>2025-08-10T09:41:22.696Z</time>
      </trkpt>
      <trkpt lat="44.13897" lon="0.61012">
        <ele>157</ele>
        <time>2025-08-10T09:41:23.696Z</time>
      </trkpt>
      <trkpt lat="44.13898" lon="0.61012">
        <ele>158</ele>
        <time>2025-08-10T09:41:24.696Z</time>
      </trkpt>
      <trkpt lat="44.13898" lon="0.61011">
        <ele>158</ele>
        <time>2025-08-10T09:41:25.696Z</time>
      </trkpt>
      <trkpt lat="44.13899" lon="0.61011">
        <ele>158</ele>
        <time>2025-08-10T09:41:26.696Z</time>
      </trkpt>
      <trkpt lat="44.139" lon="0.61011">
        <ele>158</ele>
        <time>2025-08-10T09:41:27.696Z</time>
      </trkpt>
      <trkpt lat="44.13901" lon="0.61011">
        <ele>158</ele>
        <time>2025-08-10T09:41:28.696Z</time>
      </trkpt>
      <trkpt lat="44.13903" lon="0.61012">
        <ele>158</ele>
        <time>2025-08-10T09:41:29.697Z</time>
      </trkpt>
      <trkpt lat="44.13904" lon="0.61012">
        <ele>158</ele>
        <time>2025-08-10T09:41:30.696Z</time>
      </trkpt>
      <trkpt lat="44.13905" lon="0.61012">
        <ele>158</ele>
        <time>2025-08-10T09:41:31.696Z</time>
      </trkpt>
      <trkpt lat="44.13906" lon="0.61012">
        <ele>158</ele>
        <time>2025-08-10T09:41:32.696Z</time>
      </trkpt>
      <trkpt lat="44.13907" lon="0.61012">
        <ele>158</ele>
        <time>2025-08-10T09:41:33.696Z</time>
      </trkpt>
      <trkpt lat="44.13908" lon="0.61012">
        <ele>158</ele>
        <time>2025-08-10T09:41:34.696Z</time>
      </trkpt>
      <trkpt lat="44.13909" lon="0.61012">
        <ele>159</ele>
        <time>2025-08-10T09:41:35.696Z</time>
      </trkpt>
      <trkpt lat="44.1391" lon="0.61012">
        <ele>159</ele>
        <time>2025-08-10T09:41:36.696Z</time>
      </trkpt>
      <trkpt lat="44.13911" lon="0.61012">
        <ele>159</ele>
        <time>2025-08-10T09:41:37.696Z</time>
      </trkpt>
      <trkpt lat="44.13912" lon="0.61011">
        <ele>159</ele>
        <time>2025-08-10T09:41:38.696Z</time>
      </trkpt>
      <trkpt lat="44.13913" lon="0.61012">
        <ele>159</ele>
        <time>2025-08-10T09:41:39.696Z</time>
      </trkpt>
      <trkpt lat="44.13914" lon="0.61013">
        <ele>159</ele>
        <time>2025-08-10T09:41:40.696Z</time>
      </trkpt>
      <trkpt lat="44.13915" lon="0.61012">
        <ele>159</ele>
        <time>2025-08-10T09:41:41.696Z</time>
      </trkpt>
      <trkpt lat="44.13916" lon="0.61013">
        <ele>159</ele>
        <time>2025-08-10T09:41:42.696Z</time>
      </trkpt>
      <trkpt lat="44.13917" lon="0.61013">
        <ele>159</ele>
        <time>2025-08-10T09:41:43.696Z</time>
      </trkpt>
      <trkpt lat="44.13919" lon="0.61013">
        <ele>158</ele>
        <time>2025-08-10T09:41:44.696Z</time>
      </trkpt>
      <trkpt lat="44.1392" lon="0.61014">
        <ele>158</ele>
        <time>2025-08-10T09:41:45.696Z</time>
      </trkpt>
      <trkpt lat="44.13922" lon="0.61014">
        <ele>157</ele>
        <time>2025-08-10T09:41:46.696Z</time>
      </trkpt>
      <trkpt lat="44.13924" lon="0.61014">
        <ele>157</ele>
        <time>2025-08-10T09:41:47.696Z</time>
      </trkpt>
      <trkpt lat="44.13925" lon="0.61014">
        <ele>157</ele>
        <time>2025-08-10T09:41:48.696Z</time>
      </trkpt>
      <trkpt lat="44.13927" lon="0.61014">
        <ele>157</ele>
        <time>2025-08-10T09:41:49.696Z</time>
      </trkpt>
      <trkpt lat="44.13928" lon="0.61013">
        <ele>156</ele>
        <time>2025-08-10T09:41:50.696Z</time>
      </trkpt>
      <trkpt lat="44.13929" lon="0.61013">
        <ele>156</ele>
        <time>2025-08-10T09:41:51.696Z</time>
      </trkpt>
      <trkpt lat="44.1393" lon="0.61013">
        <ele>156</ele>
        <time>2025-08-10T09:41:52.696Z</time>
      </trkpt>
      <trkpt lat="44.13931" lon="0.61013">
        <ele>155</ele>
        <time>2025-08-10T09:41:53.696Z</time>
      </trkpt>
      <trkpt lat="44.13932" lon="0.61012">
        <ele>155</ele>
        <time>2025-08-10T09:41:54.696Z</time>
      </trkpt>
      <trkpt lat="44.13932" lon="0.61012">
        <ele>155</ele>
        <time>2025-08-10T09:41:55.696Z</time>
      </trkpt>
      <trkpt lat="44.13933" lon="0.61012">
        <ele>155</ele>
        <time>2025-08-10T09:41:56.696Z</time>
      </trkpt>
      <trkpt lat="44.13934" lon="0.61011">
        <ele>155</ele>
        <time>2025-08-10T09:41:57.696Z</time>
      </trkpt>
      <trkpt lat="44.13935" lon="0.61012">
        <ele>155</ele>
        <time>2025-08-10T09:41:58.696Z</time>
      </trkpt>
      <trkpt lat="44.13936" lon="0.61012">
        <ele>155</ele>
        <time>2025-08-10T09:41:59.696Z</time>
      </trkpt>
      <trkpt lat="44.13938" lon="0.61013">
        <ele>155</ele>
        <time>2025-08-10T09:42:00.696Z</time>
      </trkpt>
      <trkpt lat="44.13939" lon="0.61013">
        <ele>155</ele>
        <time>2025-08-10T09:42:01.696Z</time>
      </trkpt>
      <trkpt lat="44.1394" lon="0.61013">
        <ele>155</ele>
        <time>2025-08-10T09:42:02.696Z</time>
      </trkpt>
      <trkpt lat="44.13941" lon="0.61012">
        <ele>155</ele>
        <time>2025-08-10T09:42:03.696Z</time>
      </trkpt>
      <trkpt lat="44.13942" lon="0.61012">
        <ele>155</ele>
        <time>2025-08-10T09:42:04.696Z</time>
      </trkpt>
      <trkpt lat="44.13943" lon="0.61011">
        <ele>155</ele>
        <time>2025-08-10T09:42:05.696Z</time>
      </trkpt>
      <trkpt lat="44.13944" lon="0.61011">
        <ele>155</ele>
        <time>2025-08-10T09:42:06.696Z</time>
      </trkpt>
      <trkpt lat="44.13945" lon="0.6101">
        <ele>155</ele>
        <time>2025-08-10T09:42:07.696Z</time>
      </trkpt>
      <trkpt lat="44.13946" lon="0.61009">
        <ele>155</ele>
        <time>2025-08-10T09:42:08.696Z</time>
      </trkpt>
      <trkpt lat="44.13946" lon="0.61009">
        <ele>154</ele>
        <time>2025-08-10T09:42:09.696Z</time>
      </trkpt>
      <trkpt lat="44.13947" lon="0.61008">
        <ele>154</ele>
        <time>2025-08-10T09:42:10.696Z</time>
      </trkpt>
      <trkpt lat="44.13948" lon="0.61007">
        <ele>154</ele>
        <time>2025-08-10T09:42:11.696Z</time>
      </trkpt>
      <trkpt lat="44.13949" lon="0.61006">
        <ele>154</ele>
        <time>2025-08-10T09:42:12.696Z</time>
      </trkpt>
      <trkpt lat="44.1395" lon="0.61005">
        <ele>154</ele>
        <time>2025-08-10T09:42:13.696Z</time>
      </trkpt>
      <trkpt lat="44.13951" lon="0.61005">
        <ele>154</ele>
        <time>2025-08-10T09:42:14.696Z</time>
      </trkpt>
      <trkpt lat="44.13952" lon="0.61004">
        <ele>154</ele>
        <time>2025-08-10T09:42:15.696Z</time>
      </trkpt>
      <trkpt lat="44.13953" lon="0.61004">
        <ele>155</ele>
        <time>2025-08-10T09:42:16.696Z</time>
      </trkpt>
      <trkpt lat="44.13954" lon="0.61003">
        <ele>155</ele>
        <time>2025-08-10T09:42:17.696Z</time>
      </trkpt>
      <trkpt lat="44.13955" lon="0.61002">
        <ele>155</ele>
        <time>2025-08-10T09:42:18.696Z</time>
      </trkpt>
      <trkpt lat="44.13956" lon="0.61001">
        <ele>156</ele>
        <time>2025-08-10T09:42:19.696Z</time>
      </trkpt>
      <trkpt lat="44.13957" lon="0.61">
        <ele>156</ele>
        <time>2025-08-10T09:42:20.696Z</time>
      </trkpt>
      <trkpt lat="44.13958" lon="0.60999">
        <ele>156</ele>
        <time>2025-08-10T09:42:21.696Z</time>
      </trkpt>
      <trkpt lat="44.13959" lon="0.60998">
        <ele>156</ele>
        <time>2025-08-10T09:42:22.696Z</time>
      </trkpt>
      <trkpt lat="44.1396" lon="0.60997">
        <ele>156</ele>
        <time>2025-08-10T09:42:23.696Z</time>
      </trkpt>
      <trkpt lat="44.13962" lon="0.60996">
        <ele>156</ele>
        <time>2025-08-10T09:42:24.696Z</time>
      </trkpt>
      <trkpt lat="44.13963" lon="0.60995">
        <ele>156</ele>
        <time>2025-08-10T09:42:25.696Z</time>
      </trkpt>
      <trkpt lat="44.13964" lon="0.60994">
        <ele>157</ele>
        <time>2025-08-10T09:42:26.696Z</time>
      </trkpt>
      <trkpt lat="44.13965" lon="0.60993">
        <ele>157</ele>
        <time>2025-08-10T09:42:27.696Z</time>
      </trkpt>
      <trkpt lat="44.13966" lon="0.60992">
        <ele>157</ele>
        <time>2025-08-10T09:42:28.696Z</time>
      </trkpt>
      <trkpt lat="44.13967" lon="0.60992">
        <ele>157</ele>
        <time>2025-08-10T09:42:29.696Z</time>
      </trkpt>
      <trkpt lat="44.13967" lon="0.60991">
        <ele>157</ele>
        <time>2025-08-10T09:42:30.696Z</time>
      </trkpt>
      <trkpt lat="44.13968" lon="0.6099">
        <ele>157</ele>
        <time>2025-08-10T09:42:31.696Z</time>
      </trkpt>
      <trkpt lat="44.13969" lon="0.60988">
        <ele>157</ele>
        <time>2025-08-10T09:42:32.696Z</time>
      </trkpt>
      <trkpt lat="44.1397" lon="0.60987">
        <ele>157</ele>
        <time>2025-08-10T09:42:33.696Z</time>
      </trkpt>
      <trkpt lat="44.1397" lon="0.60986">
        <ele>158</ele>
        <time>2025-08-10T09:42:34.696Z</time>
      </trkpt>
      <trkpt lat="44.13971" lon="0.60986">
        <ele>158</ele>
        <time>2025-08-10T09:42:35.696Z</time>
      </trkpt>
      <trkpt lat="44.13971" lon="0.60985">
        <ele>158</ele>
        <time>2025-08-10T09:42:36.696Z</time>
      </trkpt>
      <trkpt lat="44.13972" lon="0.60985">
        <ele>159</ele>
        <time>2025-08-10T09:42:37.696Z</time>
      </trkpt>
      <trkpt lat="44.13972" lon="0.60985">
        <ele>159</ele>
        <time>2025-08-10T09:42:38.696Z</time>
      </trkpt>
      <trkpt lat="44.13972" lon="0.60984">
        <ele>159</ele>
        <time>2025-08-10T09:42:39.696Z</time>
      </trkpt>
      <trkpt lat="44.13972" lon="0.60984">
        <ele>159</ele>
        <time>2025-08-10T09:42:40.696Z</time>
      </trkpt>
      <trkpt lat="44.13972" lon="0.60984">
        <ele>159</ele>
        <time>2025-08-10T09:42:41.696Z</time>
      </trkpt>
      <trkpt lat="44.13972" lon="0.60983">
        <ele>159</ele>
        <time>2025-08-10T09:42:42.696Z</time>
      </trkpt>
      <trkpt lat="44.13973" lon="0.60982">
        <ele>158</ele>
        <time>2025-08-10T09:42:43.696Z</time>
      </trkpt>
      <trkpt lat="44.13974" lon="0.6098">
        <ele>158</ele>
        <time>2025-08-10T09:42:44.696Z</time>
      </trkpt>
      <trkpt lat="44.13974" lon="0.6098">
        <ele>158</ele>
        <time>2025-08-10T09:42:45.696Z</time>
      </trkpt>
      <trkpt lat="44.13975" lon="0.60979">
        <ele>157</ele>
        <time>2025-08-10T09:42:46.696Z</time>
      </trkpt>
      <trkpt lat="44.13976" lon="0.60977">
        <ele>157</ele>
        <time>2025-08-10T09:42:47.696Z</time>
      </trkpt>
      <trkpt lat="44.13977" lon="0.60976">
        <ele>157</ele>
        <time>2025-08-10T09:42:48.696Z</time>
      </trkpt>
      <trkpt lat="44.13978" lon="0.60975">
        <ele>157</ele>
        <time>2025-08-10T09:42:49.696Z</time>
      </trkpt>
      <trkpt lat="44.13979" lon="0.60974">
        <ele>157</ele>
        <time>2025-08-10T09:42:50.696Z</time>
      </trkpt>
      <trkpt lat="44.1398" lon="0.60973">
        <ele>157</ele>
        <time>2025-08-10T09:42:51.696Z</time>
      </trkpt>
      <trkpt lat="44.1398" lon="0.60971">
        <ele>157</ele>
        <time>2025-08-10T09:42:52.696Z</time>
      </trkpt>
      <trkpt lat="44.13981" lon="0.6097">
        <ele>157</ele>
        <time>2025-08-10T09:42:53.696Z</time>
      </trkpt>
      <trkpt lat="44.13982" lon="0.60969">
        <ele>158</ele>
        <time>2025-08-10T09:42:54.696Z</time>
      </trkpt>
      <trkpt lat="44.13983" lon="0.60968">
        <ele>158</ele>
        <time>2025-08-10T09:42:55.696Z</time>
      </trkpt>
      <trkpt lat="44.13983" lon="0.60966">
        <ele>158</ele>
        <time>2025-08-10T09:42:56.696Z</time>
      </trkpt>
      <trkpt lat="44.13984" lon="0.60964">
        <ele>158</ele>
        <time>2025-08-10T09:42:57.696Z</time>
      </trkpt>
      <trkpt lat="44.13984" lon="0.60963">
        <ele>158</ele>
        <time>2025-08-10T09:42:58.696Z</time>
      </trkpt>
      <trkpt lat="44.13985" lon="0.60962">
        <ele>158</ele>
        <time>2025-08-10T09:42:59.696Z</time>
      </trkpt>
      <trkpt lat="44.13985" lon="0.60961">
        <ele>158</ele>
        <time>2025-08-10T09:43:00.696Z</time>
      </trkpt>
      <trkpt lat="44.13986" lon="0.6096">
        <ele>158</ele>
        <time>2025-08-10T09:43:01.696Z</time>
      </trkpt>
      <trkpt lat="44.13987" lon="0.60958">
        <ele>159</ele>
        <time>2025-08-10T09:43:02.696Z</time>
      </trkpt>
      <trkpt lat="44.13987" lon="0.60956">
        <ele>159</ele>
        <time>2025-08-10T09:43:03.696Z</time>
      </trkpt>
      <trkpt lat="44.13987" lon="0.60955">
        <ele>159</ele>
        <time>2025-08-10T09:43:04.696Z</time>
      </trkpt>
      <trkpt lat="44.13988" lon="0.60954">
        <ele>160</ele>
        <time>2025-08-10T09:43:05.696Z</time>
      </trkpt>
      <trkpt lat="44.13988" lon="0.60953">
        <ele>160</ele>
        <time>2025-08-10T09:43:06.696Z</time>
      </trkpt>
      <trkpt lat="44.13989" lon="0.60951">
        <ele>160</ele>
        <time>2025-08-10T09:43:07.696Z</time>
      </trkpt>
      <trkpt lat="44.13989" lon="0.6095">
        <ele>161</ele>
        <time>2025-08-10T09:43:08.696Z</time>
      </trkpt>
      <trkpt lat="44.13989" lon="0.60948">
        <ele>161</ele>
        <time>2025-08-10T09:43:09.696Z</time>
      </trkpt>
      <trkpt lat="44.1399" lon="0.60947">
        <ele>160</ele>
        <time>2025-08-10T09:43:10.696Z</time>
      </trkpt>
      <trkpt lat="44.13991" lon="0.60945">
        <ele>160</ele>
        <time>2025-08-10T09:43:11.696Z</time>
      </trkpt>
      <trkpt lat="44.13991" lon="0.60944">
        <ele>160</ele>
        <time>2025-08-10T09:43:12.696Z</time>
      </trkpt>
      <trkpt lat="44.13992" lon="0.60943">
        <ele>160</ele>
        <time>2025-08-10T09:43:13.696Z</time>
      </trkpt>
      <trkpt lat="44.13992" lon="0.60942">
        <ele>160</ele>
        <time>2025-08-10T09:43:14.696Z</time>
      </trkpt>
      <trkpt lat="44.13993" lon="0.6094">
        <ele>160</ele>
        <time>2025-08-10T09:43:15.696Z</time>
      </trkpt>
      <trkpt lat="44.13993" lon="0.60939">
        <ele>159</ele>
        <time>2025-08-10T09:43:16.696Z</time>
      </trkpt>
      <trkpt lat="44.13994" lon="0.60937">
        <ele>159</ele>
        <time>2025-08-10T09:43:17.696Z</time>
      </trkpt>
      <trkpt lat="44.13994" lon="0.60935">
        <ele>159</ele>
        <time>2025-08-10T09:43:18.696Z</time>
      </trkpt>
      <trkpt lat="44.13995" lon="0.60934">
        <ele>159</ele>
        <time>2025-08-10T09:43:19.696Z</time>
      </trkpt>
      <trkpt lat="44.13995" lon="0.60932">
        <ele>159</ele>
        <time>2025-08-10T09:43:20.696Z</time>
      </trkpt>
      <trkpt lat="44.13996" lon="0.60931">
        <ele>159</ele>
        <time>2025-08-10T09:43:21.696Z</time>
      </trkpt>
      <trkpt lat="44.13997" lon="0.6093">
        <ele>159</ele>
        <time>2025-08-10T09:43:22.696Z</time>
      </trkpt>
      <trkpt lat="44.13997" lon="0.60928">
        <ele>159</ele>
        <time>2025-08-10T09:43:23.696Z</time>
      </trkpt>
      <trkpt lat="44.13998" lon="0.60927">
        <ele>159</ele>
        <time>2025-08-10T09:43:24.696Z</time>
      </trkpt>
      <trkpt lat="44.13998" lon="0.60926">
        <ele>159</ele>
        <time>2025-08-10T09:43:25.696Z</time>
      </trkpt>
      <trkpt lat="44.13999" lon="0.60924">
        <ele>159</ele>
        <time>2025-08-10T09:43:26.696Z</time>
      </trkpt>
      <trkpt lat="44.13999" lon="0.60923">
        <ele>159</ele>
        <time>2025-08-10T09:43:27.696Z</time>
      </trkpt>
      <trkpt lat="44.14" lon="0.60921">
        <ele>159</ele>
        <time>2025-08-10T09:43:28.696Z</time>
      </trkpt>
      <trkpt lat="44.14001" lon="0.60921">
        <ele>159</ele>
        <time>2025-08-10T09:43:29.696Z</time>
      </trkpt>
      <trkpt lat="44.14001" lon="0.6092">
        <ele>159</ele>
        <time>2025-08-10T09:43:30.696Z</time>
      </trkpt>
      <trkpt lat="44.14002" lon="0.60918">
        <ele>160</ele>
        <time>2025-08-10T09:43:31.696Z</time>
      </trkpt>
      <trkpt lat="44.14003" lon="0.60917">
        <ele>160</ele>
        <time>2025-08-10T09:43:32.696Z</time>
      </trkpt>
      <trkpt lat="44.14004" lon="0.60916">
        <ele>160</ele>
        <time>2025-08-10T09:43:33.696Z</time>
      </trkpt>
      <trkpt lat="44.14005" lon="0.60914">
        <ele>160</ele>
        <time>2025-08-10T09:43:34.696Z</time>
      </trkpt>
      <trkpt lat="44.14006" lon="0.60913">
        <ele>160</ele>
        <time>2025-08-10T09:43:35.696Z</time>
      </trkpt>
      <trkpt lat="44.14006" lon="0.60912">
        <ele>160</ele>
        <time>2025-08-10T09:43:36.696Z</time>
      </trkpt>
      <trkpt lat="44.14007" lon="0.60911">
        <ele>160</ele>
        <time>2025-08-10T09:43:37.696Z</time>
      </trkpt>
      <trkpt lat="44.14007" lon="0.6091">
        <ele>161</ele>
        <time>2025-08-10T09:43:38.696Z</time>
      </trkpt>
      <trkpt lat="44.14008" lon="0.60909">
        <ele>161</ele>
        <time>2025-08-10T09:43:39.696Z</time>
      </trkpt>
      <trkpt lat="44.14008" lon="0.60908">
        <ele>161</ele>
        <time>2025-08-10T09:43:40.696Z</time>
      </trkpt>
      <trkpt lat="44.14008" lon="0.60908">
        <ele>161</ele>
        <time>2025-08-10T09:43:41.696Z</time>
      </trkpt>
      <trkpt lat="44.14008" lon="0.60907">
        <ele>161</ele>
        <time>2025-08-10T09:43:42.696Z</time>
      </trkpt>
      <trkpt lat="44.14009" lon="0.60906">
        <ele>160</ele>
        <time>2025-08-10T09:43:43.696Z</time>
      </trkpt>
      <trkpt lat="44.14009" lon="0.60905">
        <ele>160</ele>
        <time>2025-08-10T09:43:44.696Z</time>
      </trkpt>
      <trkpt lat="44.14009" lon="0.60904">
        <ele>160</ele>
        <time>2025-08-10T09:43:45.696Z</time>
      </trkpt>
      <trkpt lat="44.1401" lon="0.60902">
        <ele>159</ele>
        <time>2025-08-10T09:43:46.696Z</time>
      </trkpt>
      <trkpt lat="44.1401" lon="0.60901">
        <ele>159</ele>
        <time>2025-08-10T09:43:47.696Z</time>
      </trkpt>
      <trkpt lat="44.1401" lon="0.609">
        <ele>159</ele>
        <time>2025-08-10T09:43:48.696Z</time>
      </trkpt>
      <trkpt lat="44.1401" lon="0.60898">
        <ele>158</ele>
        <time>2025-08-10T09:43:49.696Z</time>
      </trkpt>
      <trkpt lat="44.1401" lon="0.60897">
        <ele>158</ele>
        <time>2025-08-10T09:43:50.696Z</time>
      </trkpt>
      <trkpt lat="44.14011" lon="0.60895">
        <ele>159</ele>
        <time>2025-08-10T09:43:51.696Z</time>
      </trkpt>
      <trkpt lat="44.14011" lon="0.60894">
        <ele>159</ele>
        <time>2025-08-10T09:43:52.696Z</time>
      </trkpt>
      <trkpt lat="44.14012" lon="0.60892">
        <ele>159</ele>
        <time>2025-08-10T09:43:53.696Z</time>
      </trkpt>
      <trkpt lat="44.14012" lon="0.60891">
        <ele>159</ele>
        <time>2025-08-10T09:43:54.696Z</time>
      </trkpt>
      <trkpt lat="44.14012" lon="0.6089">
        <ele>158</ele>
        <time>2025-08-10T09:43:55.696Z</time>
      </trkpt>
      <trkpt lat="44.14012" lon="0.60889">
        <ele>158</ele>
        <time>2025-08-10T09:43:56.696Z</time>
      </trkpt>
      <trkpt lat="44.14012" lon="0.60889">
        <ele>158</ele>
        <time>2025-08-10T09:43:57.696Z</time>
      </trkpt>
      <trkpt lat="44.14012" lon="0.60888">
        <ele>158</ele>
        <time>2025-08-10T09:43:58.696Z</time>
      </trkpt>
      <trkpt lat="44.14012" lon="0.60887">
        <ele>158</ele>
        <time>2025-08-10T09:43:59.696Z</time>
      </trkpt>
      <trkpt lat="44.14012" lon="0.60886">
        <ele>157</ele>
        <time>2025-08-10T09:44:00.696Z</time>
      </trkpt>
      <trkpt lat="44.14012" lon="0.60885">
        <ele>157</ele>
        <time>2025-08-10T09:44:01.696Z</time>
      </trkpt>
      <trkpt lat="44.14012" lon="0.60883">
        <ele>157</ele>
        <time>2025-08-10T09:44:02.696Z</time>
      </trkpt>
      <trkpt lat="44.14012" lon="0.60882">
        <ele>157</ele>
        <time>2025-08-10T09:44:03.696Z</time>
      </trkpt>
      <trkpt lat="44.14012" lon="0.60881">
        <ele>157</ele>
        <time>2025-08-10T09:44:04.696Z</time>
      </trkpt>
      <trkpt lat="44.14013" lon="0.6088">
        <ele>158</ele>
        <time>2025-08-10T09:44:05.696Z</time>
      </trkpt>
      <trkpt lat="44.14013" lon="0.6088">
        <ele>158</ele>
        <time>2025-08-10T09:44:06.696Z</time>
      </trkpt>
      <trkpt lat="44.14013" lon="0.6088">
        <ele>158</ele>
        <time>2025-08-10T09:44:07.696Z</time>
      </trkpt>
      <trkpt lat="44.14013" lon="0.6088">
        <ele>159</ele>
        <time>2025-08-10T09:44:08.696Z</time>
      </trkpt>
      <trkpt lat="44.14013" lon="0.6088">
        <ele>159</ele>
        <time>2025-08-10T09:44:09.696Z</time>
      </trkpt>
      <trkpt lat="44.14013" lon="0.6088">
        <ele>159</ele>
        <time>2025-08-10T09:44:10.696Z</time>
      </trkpt>
      <trkpt lat="44.14013" lon="0.6088">
        <ele>159</ele>
        <time>2025-08-10T09:44:11.696Z</time>
      </trkpt>
      <trkpt lat="44.14013" lon="0.60879">
        <ele>160</ele>
        <time>2025-08-10T09:44:12.696Z</time>
      </trkpt>
      <trkpt lat="44.14013" lon="0.60879">
        <ele>160</ele>
        <time>2025-08-10T09:44:13.696Z</time>
      </trkpt>
      <trkpt lat="44.14013" lon="0.60879">
        <ele>160</ele>
        <time>2025-08-10T09:44:14.696Z</time>
      </trkpt>
      <trkpt lat="44.14013" lon="0.60879">
        <ele>160</ele>
        <time>2025-08-10T09:44:15.696Z</time>
      </trkpt>
      <trkpt lat="44.14013" lon="0.60879">
        <ele>160</ele>
        <time>2025-08-10T09:44:16.696Z</time>
      </trkpt>
      <trkpt lat="44.14013" lon="0.60879">
        <ele>160</ele>
        <time>2025-08-10T09:44:17.696Z</time>
      </trkpt>
      <trkpt lat="44.14013" lon="0.60879">
        <ele>160</ele>
        <time>2025-08-10T09:44:18.696Z</time>
      </trkpt>
      <trkpt lat="44.14013" lon="0.60879">
        <ele>160</ele>
        <time>2025-08-10T09:44:19.696Z</time>
      </trkpt>
      <trkpt lat="44.14013" lon="0.60879">
        <ele>160</ele>
        <time>2025-08-10T09:44:20.696Z</time>
      </trkpt>
      <trkpt lat="44.14013" lon="0.60879">
        <ele>160</ele>
        <time>2025-08-10T09:44:21.696Z</time>
      </trkpt>
      <trkpt lat="44.14013" lon="0.60878">
        <ele>160</ele>
        <time>2025-08-10T09:44:22.696Z</time>
      </trkpt>
      <trkpt lat="44.14013" lon="0.60877">
        <ele>159</ele>
        <time>2025-08-10T09:44:23.696Z</time>
      </trkpt>
      <trkpt lat="44.14013" lon="0.60875">
        <ele>159</ele>
        <time>2025-08-10T09:44:24.696Z</time>
      </trkpt>
      <trkpt lat="44.14013" lon="0.60875">
        <ele>159</ele>
        <time>2025-08-10T09:44:25.696Z</time>
      </trkpt>
      <trkpt lat="44.14014" lon="0.60874">
        <ele>159</ele>
        <time>2025-08-10T09:44:26.696Z</time>
      </trkpt>
      <trkpt lat="44.14015" lon="0.60874">
        <ele>159</ele>
        <time>2025-08-10T09:44:27.696Z</time>
      </trkpt>
      <trkpt lat="44.14016" lon="0.60873">
        <ele>159</ele>
        <time>2025-08-10T09:44:28.696Z</time>
      </trkpt>
      <trkpt lat="44.14017" lon="0.60873">
        <ele>158</ele>
        <time>2025-08-10T09:44:29.696Z</time>
      </trkpt>
      <trkpt lat="44.14018" lon="0.60874">
        <ele>158</ele>
        <time>2025-08-10T09:44:30.696Z</time>
      </trkpt>
      <trkpt lat="44.14019" lon="0.60874">
        <ele>158</ele>
        <time>2025-08-10T09:44:31.696Z</time>
      </trkpt>
      <trkpt lat="44.1402" lon="0.60874">
        <ele>158</ele>
        <time>2025-08-10T09:44:32.696Z</time>
      </trkpt>
      <trkpt lat="44.14021" lon="0.60875">
        <ele>158</ele>
        <time>2025-08-10T09:44:33.696Z</time>
      </trkpt>
      <trkpt lat="44.14021" lon="0.60875">
        <ele>158</ele>
        <time>2025-08-10T09:44:34.696Z</time>
      </trkpt>
      <trkpt lat="44.14022" lon="0.60875">
        <ele>158</ele>
        <time>2025-08-10T09:44:35.696Z</time>
      </trkpt>
      <trkpt lat="44.14023" lon="0.60876">
        <ele>158</ele>
        <time>2025-08-10T09:44:36.696Z</time>
      </trkpt>
      <trkpt lat="44.14024" lon="0.60876">
        <ele>158</ele>
        <time>2025-08-10T09:44:37.696Z</time>
      </trkpt>
      <trkpt lat="44.14024" lon="0.60877">
        <ele>159</ele>
        <time>2025-08-10T09:44:38.696Z</time>
      </trkpt>
      <trkpt lat="44.14025" lon="0.60877">
        <ele>159</ele>
        <time>2025-08-10T09:44:39.696Z</time>
      </trkpt>
      <trkpt lat="44.14025" lon="0.60878">
        <ele>159</ele>
        <time>2025-08-10T09:44:40.696Z</time>
      </trkpt>
      <trkpt lat="44.14026" lon="0.60878">
        <ele>159</ele>
        <time>2025-08-10T09:44:41.696Z</time>
      </trkpt>
      <trkpt lat="44.14027" lon="0.60878">
        <ele>159</ele>
        <time>2025-08-10T09:44:42.696Z</time>
      </trkpt>
      <trkpt lat="44.14028" lon="0.60878">
        <ele>159</ele>
        <time>2025-08-10T09:44:43.696Z</time>
      </trkpt>
      <trkpt lat="44.14029" lon="0.60878">
        <ele>159</ele>
        <time>2025-08-10T09:44:44.696Z</time>
      </trkpt>
      <trkpt lat="44.1403" lon="0.60878">
        <ele>159</ele>
        <time>2025-08-10T09:44:45.696Z</time>
      </trkpt>
      <trkpt lat="44.14031" lon="0.60879">
        <ele>159</ele>
        <time>2025-08-10T09:44:46.696Z</time>
      </trkpt>
      <trkpt lat="44.14032" lon="0.60879">
        <ele>159</ele>
        <time>2025-08-10T09:44:47.696Z</time>
      </trkpt>
      <trkpt lat="44.14033" lon="0.60879">
        <ele>159</ele>
        <time>2025-08-10T09:44:48.696Z</time>
      </trkpt>
      <trkpt lat="44.14034" lon="0.6088">
        <ele>159</ele>
        <time>2025-08-10T09:44:49.696Z</time>
      </trkpt>
      <trkpt lat="44.14034" lon="0.60881">
        <ele>160</ele>
        <time>2025-08-10T09:44:50.696Z</time>
      </trkpt>
      <trkpt lat="44.14035" lon="0.60881">
        <ele>159</ele>
        <time>2025-08-10T09:44:51.696Z</time>
      </trkpt>
      <trkpt lat="44.14036" lon="0.60881">
        <ele>159</ele>
        <time>2025-08-10T09:44:52.696Z</time>
      </trkpt>
      <trkpt lat="44.14037" lon="0.60881">
        <ele>159</ele>
        <time>2025-08-10T09:44:53.696Z</time>
      </trkpt>
      <trkpt lat="44.14038" lon="0.60882">
        <ele>159</ele>
        <time>2025-08-10T09:44:54.696Z</time>
      </trkpt>
      <trkpt lat="44.14038" lon="0.60882">
        <ele>159</ele>
        <time>2025-08-10T09:44:55.696Z</time>
      </trkpt>
      <trkpt lat="44.1404" lon="0.60883">
        <ele>160</ele>
        <time>2025-08-10T09:44:56.696Z</time>
      </trkpt>
      <trkpt lat="44.14041" lon="0.60884">
        <ele>160</ele>
        <time>2025-08-10T09:44:57.696Z</time>
      </trkpt>
      <trkpt lat="44.14042" lon="0.60884">
        <ele>160</ele>
        <time>2025-08-10T09:44:58.696Z</time>
      </trkpt>
      <trkpt lat="44.14043" lon="0.60885">
        <ele>160</ele>
        <time>2025-08-10T09:44:59.696Z</time>
      </trkpt>
      <trkpt lat="44.14044" lon="0.60887">
        <ele>161</ele>
        <time>2025-08-10T09:45:00.696Z</time>
      </trkpt>
      <trkpt lat="44.14045" lon="0.60889">
        <ele>161</ele>
        <time>2025-08-10T09:45:01.696Z</time>
      </trkpt>
      <trkpt lat="44.14045" lon="0.6089">
        <ele>161</ele>
        <time>2025-08-10T09:45:02.696Z</time>
      </trkpt>
      <trkpt lat="44.14047" lon="0.60892">
        <ele>161</ele>
        <time>2025-08-10T09:45:03.697Z</time>
      </trkpt>
      <trkpt lat="44.14048" lon="0.60894">
        <ele>161</ele>
        <time>2025-08-10T09:45:04.696Z</time>
      </trkpt>
      <trkpt lat="44.14048" lon="0.60895">
        <ele>161</ele>
        <time>2025-08-10T09:45:05.696Z</time>
      </trkpt>
      <trkpt lat="44.14048" lon="0.60897">
        <ele>161</ele>
        <time>2025-08-10T09:45:06.696Z</time>
      </trkpt>
      <trkpt lat="44.14048" lon="0.60899">
        <ele>160</ele>
        <time>2025-08-10T09:45:07.696Z</time>
      </trkpt>
      <trkpt lat="44.14046" lon="0.60899">
        <ele>160</ele>
        <time>2025-08-10T09:45:08.696Z</time>
      </trkpt>
      <trkpt lat="44.14047" lon="0.60901">
        <ele>160</ele>
        <time>2025-08-10T09:45:09.696Z</time>
      </trkpt>
      <trkpt lat="44.14046" lon="0.60902">
        <ele>160</ele>
        <time>2025-08-10T09:45:10.696Z</time>
      </trkpt>
      <trkpt lat="44.14046" lon="0.60904">
        <ele>160</ele>
        <time>2025-08-10T09:45:11.696Z</time>
      </trkpt>
      <trkpt lat="44.14046" lon="0.60906">
        <ele>159</ele>
        <time>2025-08-10T09:45:12.696Z</time>
      </trkpt>
      <trkpt lat="44.14045" lon="0.60907">
        <ele>159</ele>
        <time>2025-08-10T09:45:13.696Z</time>
      </trkpt>
      <trkpt lat="44.14044" lon="0.60908">
        <ele>159</ele>
        <time>2025-08-10T09:45:14.696Z</time>
      </trkpt>
      <trkpt lat="44.14043" lon="0.60909">
        <ele>159</ele>
        <time>2025-08-10T09:45:15.696Z</time>
      </trkpt>
      <trkpt lat="44.14042" lon="0.6091">
        <ele>159</ele>
        <time>2025-08-10T09:45:16.696Z</time>
      </trkpt>
      <trkpt lat="44.14042" lon="0.6091">
        <ele>159</ele>
        <time>2025-08-10T09:45:17.696Z</time>
      </trkpt>
      <trkpt lat="44.14041" lon="0.60911">
        <ele>159</ele>
        <time>2025-08-10T09:45:18.696Z</time>
      </trkpt>
      <trkpt lat="44.14041" lon="0.60912">
        <ele>159</ele>
        <time>2025-08-10T09:45:19.696Z</time>
      </trkpt>
      <trkpt lat="44.14041" lon="0.60914">
        <ele>159</ele>
        <time>2025-08-10T09:45:20.696Z</time>
      </trkpt>
      <trkpt lat="44.14041" lon="0.60916">
        <ele>159</ele>
        <time>2025-08-10T09:45:21.696Z</time>
      </trkpt>
      <trkpt lat="44.14041" lon="0.60917">
        <ele>159</ele>
        <time>2025-08-10T09:45:22.696Z</time>
      </trkpt>
      <trkpt lat="44.14041" lon="0.60919">
        <ele>159</ele>
        <time>2025-08-10T09:45:23.696Z</time>
      </trkpt>
      <trkpt lat="44.14041" lon="0.60921">
        <ele>159</ele>
        <time>2025-08-10T09:45:24.696Z</time>
      </trkpt>
      <trkpt lat="44.14041" lon="0.60922">
        <ele>160</ele>
        <time>2025-08-10T09:45:25.696Z</time>
      </trkpt>
      <trkpt lat="44.14042" lon="0.60923">
        <ele>160</ele>
        <time>2025-08-10T09:45:26.696Z</time>
      </trkpt>
      <trkpt lat="44.14042" lon="0.60924">
        <ele>160</ele>
        <time>2025-08-10T09:45:27.696Z</time>
      </trkpt>
      <trkpt lat="44.14043" lon="0.60926">
        <ele>160</ele>
        <time>2025-08-10T09:45:28.696Z</time>
      </trkpt>
      <trkpt lat="44.14044" lon="0.60927">
        <ele>160</ele>
        <time>2025-08-10T09:45:29.696Z</time>
      </trkpt>
      <trkpt lat="44.14045" lon="0.60928">
        <ele>160</ele>
        <time>2025-08-10T09:45:30.696Z</time>
      </trkpt>
      <trkpt lat="44.14046" lon="0.60929">
        <ele>160</ele>
        <time>2025-08-10T09:45:31.696Z</time>
      </trkpt>
      <trkpt lat="44.14047" lon="0.6093">
        <ele>161</ele>
        <time>2025-08-10T09:45:32.696Z</time>
      </trkpt>
      <trkpt lat="44.14048" lon="0.6093">
        <ele>161</ele>
        <time>2025-08-10T09:45:33.696Z</time>
      </trkpt>
      <trkpt lat="44.14049" lon="0.60931">
        <ele>161</ele>
        <time>2025-08-10T09:45:34.696Z</time>
      </trkpt>
      <trkpt lat="44.1405" lon="0.60932">
        <ele>161</ele>
        <time>2025-08-10T09:45:35.696Z</time>
      </trkpt>
      <trkpt lat="44.14051" lon="0.60932">
        <ele>161</ele>
        <time>2025-08-10T09:45:36.696Z</time>
      </trkpt>
      <trkpt lat="44.14053" lon="0.60933">
        <ele>161</ele>
        <time>2025-08-10T09:45:37.696Z</time>
      </trkpt>
      <trkpt lat="44.14054" lon="0.60934">
        <ele>162</ele>
        <time>2025-08-10T09:45:38.696Z</time>
      </trkpt>
      <trkpt lat="44.14055" lon="0.60935">
        <ele>162</ele>
        <time>2025-08-10T09:45:39.697Z</time>
      </trkpt>
      <trkpt lat="44.14055" lon="0.60935">
        <ele>163</ele>
        <time>2025-08-10T09:45:40.696Z</time>
      </trkpt>
      <trkpt lat="44.14055" lon="0.60935">
        <ele>163</ele>
        <time>2025-08-10T09:45:41.696Z</time>
      </trkpt>
      <trkpt lat="44.14056" lon="0.60935">
        <ele>163</ele>
        <time>2025-08-10T09:45:42.696Z</time>
      </trkpt>
      <trkpt lat="44.14056" lon="0.60936">
        <ele>163</ele>
        <time>2025-08-10T09:45:43.696Z</time>
      </trkpt>
      <trkpt lat="44.14056" lon="0.60936">
        <ele>164</ele>
        <time>2025-08-10T09:45:44.696Z</time>
      </trkpt>
      <trkpt lat="44.14056" lon="0.60936">
        <ele>164</ele>
        <time>2025-08-10T09:45:45.696Z</time>
      </trkpt>
      <trkpt lat="44.14056" lon="0.60936">
        <ele>165</ele>
        <time>2025-08-10T09:45:46.696Z</time>
      </trkpt>
      <trkpt lat="44.14056" lon="0.60936">
        <ele>165</ele>
        <time>2025-08-10T09:45:47.696Z</time>
      </trkpt>
      <trkpt lat="44.14056" lon="0.60935">
        <ele>165</ele>
        <time>2025-08-10T09:45:48.696Z</time>
      </trkpt>
      <trkpt lat="44.14056" lon="0.60935">
        <ele>165</ele>
        <time>2025-08-10T09:45:49.696Z</time>
      </trkpt>
      <trkpt lat="44.14056" lon="0.60935">
        <ele>166</ele>
        <time>2025-08-10T09:45:50.696Z</time>
      </trkpt>
      <trkpt lat="44.14056" lon="0.60935">
        <ele>166</ele>
        <time>2025-08-10T09:45:51.696Z</time>
      </trkpt>
      <trkpt lat="44.14056" lon="0.60936">
        <ele>166</ele>
        <time>2025-08-10T09:45:52.696Z</time>
      </trkpt>
      <trkpt lat="44.14056" lon="0.60936">
        <ele>166</ele>
        <time>2025-08-10T09:45:53.696Z</time>
      </trkpt>
      <trkpt lat="44.14056" lon="0.60936">
        <ele>166</ele>
        <time>2025-08-10T09:45:54.696Z</time>
      </trkpt>
      <trkpt lat="44.14056" lon="0.60936">
        <ele>166</ele>
        <time>2025-08-10T09:45:55.696Z</time>
      </trkpt>
      <trkpt lat="44.14056" lon="0.60936">
        <ele>167</ele>
        <time>2025-08-10T09:45:56.696Z</time>
      </trkpt>
      <trkpt lat="44.14057" lon="0.60936">
        <ele>166</ele>
        <time>2025-08-10T09:45:57.696Z</time>
      </trkpt>
      <trkpt lat="44.14058" lon="0.60937">
        <ele>166</ele>
        <time>2025-08-10T09:45:58.696Z</time>
      </trkpt>
      <trkpt lat="44.14058" lon="0.60937">
        <ele>166</ele>
        <time>2025-08-10T09:45:59.696Z</time>
      </trkpt>
      <trkpt lat="44.14059" lon="0.60937">
        <ele>166</ele>
        <time>2025-08-10T09:46:00.696Z</time>
      </trkpt>
      <trkpt lat="44.14061" lon="0.60937">
        <ele>166</ele>
        <time>2025-08-10T09:46:01.696Z</time>
      </trkpt>
      <trkpt lat="44.14062" lon="0.60937">
        <ele>166</ele>
        <time>2025-08-10T09:46:02.696Z</time>
      </trkpt>
      <trkpt lat="44.14063" lon="0.60937">
        <ele>166</ele>
        <time>2025-08-10T09:46:03.696Z</time>
      </trkpt>
      <trkpt lat="44.14064" lon="0.60937">
        <ele>166</ele>
        <time>2025-08-10T09:46:04.696Z</time>
      </trkpt>
      <trkpt lat="44.14065" lon="0.60937">
        <ele>166</ele>
        <time>2025-08-10T09:46:05.696Z</time>
      </trkpt>
      <trkpt lat="44.14066" lon="0.60938">
        <ele>167</ele>
        <time>2025-08-10T09:46:06.696Z</time>
      </trkpt>
      <trkpt lat="44.14067" lon="0.60938">
        <ele>167</ele>
        <time>2025-08-10T09:46:07.696Z</time>
      </trkpt>
      <trkpt lat="44.14068" lon="0.60939">
        <ele>167</ele>
        <time>2025-08-10T09:46:08.696Z</time>
      </trkpt>
      <trkpt lat="44.14069" lon="0.60939">
        <ele>168</ele>
        <time>2025-08-10T09:46:09.696Z</time>
      </trkpt>
      <trkpt lat="44.1407" lon="0.6094">
        <ele>168</ele>
        <time>2025-08-10T09:46:10.696Z</time>
      </trkpt>
      <trkpt lat="44.14071" lon="0.6094">
        <ele>168</ele>
        <time>2025-08-10T09:46:11.696Z</time>
      </trkpt>
      <trkpt lat="44.14071" lon="0.60941">
        <ele>168</ele>
        <time>2025-08-10T09:46:12.696Z</time>
      </trkpt>
      <trkpt lat="44.14072" lon="0.6094">
        <ele>168</ele>
        <time>2025-08-10T09:46:13.696Z</time>
      </trkpt>
      <trkpt lat="44.14073" lon="0.6094">
        <ele>168</ele>
        <time>2025-08-10T09:46:14.696Z</time>
      </trkpt>
      <trkpt lat="44.14074" lon="0.60939">
        <ele>167</ele>
        <time>2025-08-10T09:46:15.696Z</time>
      </trkpt>
      <trkpt lat="44.14075" lon="0.60939">
        <ele>167</ele>
        <time>2025-08-10T09:46:16.696Z</time>
      </trkpt>
      <trkpt lat="44.14075" lon="0.60938">
        <ele>166</ele>
        <time>2025-08-10T09:46:17.696Z</time>
      </trkpt>
      <trkpt lat="44.14076" lon="0.60938">
        <ele>166</ele>
        <time>2025-08-10T09:46:18.696Z</time>
      </trkpt>
      <trkpt lat="44.14077" lon="0.60937">
        <ele>166</ele>
        <time>2025-08-10T09:46:19.696Z</time>
      </trkpt>
      <trkpt lat="44.14079" lon="0.60937">
        <ele>165</ele>
        <time>2025-08-10T09:46:20.696Z</time>
      </trkpt>
      <trkpt lat="44.1408" lon="0.60936">
        <ele>164</ele>
        <time>2025-08-10T09:46:21.696Z</time>
      </trkpt>
      <trkpt lat="44.1408" lon="0.60936">
        <ele>164</ele>
        <time>2025-08-10T09:46:22.696Z</time>
      </trkpt>
      <trkpt lat="44.14081" lon="0.60935">
        <ele>163</ele>
        <time>2025-08-10T09:46:23.696Z</time>
      </trkpt>
      <trkpt lat="44.14082" lon="0.60935">
        <ele>163</ele>
        <time>2025-08-10T09:46:24.696Z</time>
      </trkpt>
      <trkpt lat="44.14083" lon="0.60934">
        <ele>163</ele>
        <time>2025-08-10T09:46:25.696Z</time>
      </trkpt>
      <trkpt lat="44.14084" lon="0.60933">
        <ele>163</ele>
        <time>2025-08-10T09:46:26.696Z</time>
      </trkpt>
      <trkpt lat="44.14084" lon="0.60932">
        <ele>163</ele>
        <time>2025-08-10T09:46:27.696Z</time>
      </trkpt>
      <trkpt lat="44.14085" lon="0.60931">
        <ele>163</ele>
        <time>2025-08-10T09:46:28.696Z</time>
      </trkpt>
      <trkpt lat="44.14085" lon="0.6093">
        <ele>163</ele>
        <time>2025-08-10T09:46:29.696Z</time>
      </trkpt>
      <trkpt lat="44.14085" lon="0.60929">
        <ele>163</ele>
        <time>2025-08-10T09:46:30.696Z</time>
      </trkpt>
      <trkpt lat="44.14086" lon="0.60928">
        <ele>164</ele>
        <time>2025-08-10T09:46:31.696Z</time>
      </trkpt>
      <trkpt lat="44.14086" lon="0.60927">
        <ele>164</ele>
        <time>2025-08-10T09:46:32.696Z</time>
      </trkpt>
      <trkpt lat="44.14087" lon="0.60927">
        <ele>164</ele>
        <time>2025-08-10T09:46:33.696Z</time>
      </trkpt>
      <trkpt lat="44.14087" lon="0.60927">
        <ele>164</ele>
        <time>2025-08-10T09:46:34.697Z</time>
      </trkpt>
      <trkpt lat="44.14088" lon="0.60927">
        <ele>164</ele>
        <time>2025-08-10T09:46:35.696Z</time>
      </trkpt>
      <trkpt lat="44.14089" lon="0.60928">
        <ele>164</ele>
        <time>2025-08-10T09:46:36.696Z</time>
      </trkpt>
      <trkpt lat="44.14089" lon="0.6093">
        <ele>164</ele>
        <time>2025-08-10T09:46:37.696Z</time>
      </trkpt>
      <trkpt lat="44.14089" lon="0.60931">
        <ele>164</ele>
        <time>2025-08-10T09:46:38.696Z</time>
      </trkpt>
      <trkpt lat="44.1409" lon="0.60932">
        <ele>164</ele>
        <time>2025-08-10T09:46:39.696Z</time>
      </trkpt>
      <trkpt lat="44.14091" lon="0.60933">
        <ele>163</ele>
        <time>2025-08-10T09:46:40.696Z</time>
      </trkpt>
      <trkpt lat="44.14091" lon="0.60934">
        <ele>163</ele>
        <time>2025-08-10T09:46:41.696Z</time>
      </trkpt>
      <trkpt lat="44.14092" lon="0.60935">
        <ele>163</ele>
        <time>2025-08-10T09:46:42.696Z</time>
      </trkpt>
      <trkpt lat="44.14092" lon="0.60937">
        <ele>162</ele>
        <time>2025-08-10T09:46:43.696Z</time>
      </trkpt>
      <trkpt lat="44.14092" lon="0.60938">
        <ele>162</ele>
        <time>2025-08-10T09:46:44.696Z</time>
      </trkpt>
      <trkpt lat="44.14093" lon="0.6094">
        <ele>162</ele>
        <time>2025-08-10T09:46:45.696Z</time>
      </trkpt>
      <trkpt lat="44.14094" lon="0.60941">
        <ele>162</ele>
        <time>2025-08-10T09:46:46.696Z</time>
      </trkpt>
      <trkpt lat="44.14095" lon="0.60943">
        <ele>162</ele>
        <time>2025-08-10T09:46:47.696Z</time>
      </trkpt>
      <trkpt lat="44.14095" lon="0.60945">
        <ele>162</ele>
        <time>2025-08-10T09:46:48.696Z</time>
      </trkpt>
      <trkpt lat="44.14096" lon="0.60946">
        <ele>162</ele>
        <time>2025-08-10T09:46:49.696Z</time>
      </trkpt>
      <trkpt lat="44.14097" lon="0.60947">
        <ele>162</ele>
        <time>2025-08-10T09:46:50.696Z</time>
      </trkpt>
      <trkpt lat="44.14098" lon="0.60949">
        <ele>162</ele>
        <time>2025-08-10T09:46:51.696Z</time>
      </trkpt>
      <trkpt lat="44.14099" lon="0.60951">
        <ele>162</ele>
        <time>2025-08-10T09:46:52.696Z</time>
      </trkpt>
      <trkpt lat="44.141" lon="0.60953">
        <ele>162</ele>
        <time>2025-08-10T09:46:53.696Z</time>
      </trkpt>
      <trkpt lat="44.14101" lon="0.60954">
        <ele>162</ele>
        <time>2025-08-10T09:46:54.696Z</time>
      </trkpt>
      <trkpt lat="44.14102" lon="0.60956">
        <ele>162</ele>
        <time>2025-08-10T09:46:55.696Z</time>
      </trkpt>
      <trkpt lat="44.14102" lon="0.60957">
        <ele>162</ele>
        <time>2025-08-10T09:46:56.696Z</time>
      </trkpt>
      <trkpt lat="44.14103" lon="0.60958">
        <ele>162</ele>
        <time>2025-08-10T09:46:57.696Z</time>
      </trkpt>
      <trkpt lat="44.14103" lon="0.60959">
        <ele>163</ele>
        <time>2025-08-10T09:46:58.696Z</time>
      </trkpt>
      <trkpt lat="44.14103" lon="0.60961">
        <ele>163</ele>
        <time>2025-08-10T09:46:59.696Z</time>
      </trkpt>
      <trkpt lat="44.14104" lon="0.60962">
        <ele>163</ele>
        <time>2025-08-10T09:47:00.696Z</time>
      </trkpt>
      <trkpt lat="44.14105" lon="0.60963">
        <ele>163</ele>
        <time>2025-08-10T09:47:01.696Z</time>
      </trkpt>
      <trkpt lat="44.14106" lon="0.60964">
        <ele>163</ele>
        <time>2025-08-10T09:47:02.696Z</time>
      </trkpt>
      <trkpt lat="44.14107" lon="0.60965">
        <ele>163</ele>
        <time>2025-08-10T09:47:03.696Z</time>
      </trkpt>
      <trkpt lat="44.14108" lon="0.60966">
        <ele>163</ele>
        <time>2025-08-10T09:47:04.696Z</time>
      </trkpt>
      <trkpt lat="44.14109" lon="0.60967">
        <ele>164</ele>
        <time>2025-08-10T09:47:05.696Z</time>
      </trkpt>
      <trkpt lat="44.1411" lon="0.60968">
        <ele>164</ele>
        <time>2025-08-10T09:47:06.696Z</time>
      </trkpt>
      <trkpt lat="44.1411" lon="0.60969">
        <ele>164</ele>
        <time>2025-08-10T09:47:07.696Z</time>
      </trkpt>
      <trkpt lat="44.14111" lon="0.6097">
        <ele>164</ele>
        <time>2025-08-10T09:47:08.696Z</time>
      </trkpt>
      <trkpt lat="44.14112" lon="0.6097">
        <ele>165</ele>
        <time>2025-08-10T09:47:09.696Z</time>
      </trkpt>
      <trkpt lat="44.14114" lon="0.60971">
        <ele>165</ele>
        <time>2025-08-10T09:47:10.696Z</time>
      </trkpt>
      <trkpt lat="44.14115" lon="0.60971">
        <ele>166</ele>
        <time>2025-08-10T09:47:11.696Z</time>
      </trkpt>
      <trkpt lat="44.14116" lon="0.60972">
        <ele>166</ele>
        <time>2025-08-10T09:47:12.696Z</time>
      </trkpt>
      <trkpt lat="44.14117" lon="0.60973">
        <ele>167</ele>
        <time>2025-08-10T09:47:13.696Z</time>
      </trkpt>
      <trkpt lat="44.14118" lon="0.60974">
        <ele>167</ele>
        <time>2025-08-10T09:47:14.696Z</time>
      </trkpt>
      <trkpt lat="44.14119" lon="0.60975">
        <ele>167</ele>
        <time>2025-08-10T09:47:15.696Z</time>
      </trkpt>
      <trkpt lat="44.1412" lon="0.60976">
        <ele>167</ele>
        <time>2025-08-10T09:47:16.696Z</time>
      </trkpt>
      <trkpt lat="44.14121" lon="0.60976">
        <ele>167</ele>
        <time>2025-08-10T09:47:17.696Z</time>
      </trkpt>
      <trkpt lat="44.14122" lon="0.60977">
        <ele>166</ele>
        <time>2025-08-10T09:47:18.696Z</time>
      </trkpt>
      <trkpt lat="44.14122" lon="0.60978">
        <ele>166</ele>
        <time>2025-08-10T09:47:19.696Z</time>
      </trkpt>
      <trkpt lat="44.14123" lon="0.60978">
        <ele>165</ele>
        <time>2025-08-10T09:47:20.696Z</time>
      </trkpt>
      <trkpt lat="44.14124" lon="0.60979">
        <ele>165</ele>
        <time>2025-08-10T09:47:21.696Z</time>
      </trkpt>
      <trkpt lat="44.14124" lon="0.60979">
        <ele>164</ele>
        <time>2025-08-10T09:47:22.696Z</time>
      </trkpt>
      <trkpt lat="44.14125" lon="0.60979">
        <ele>164</ele>
        <time>2025-08-10T09:47:23.696Z</time>
      </trkpt>
      <trkpt lat="44.14126" lon="0.60979">
        <ele>164</ele>
        <time>2025-08-10T09:47:24.696Z</time>
      </trkpt>
      <trkpt lat="44.14127" lon="0.60979">
        <ele>164</ele>
        <time>2025-08-10T09:47:25.696Z</time>
      </trkpt>
      <trkpt lat="44.14128" lon="0.60979">
        <ele>163</ele>
        <time>2025-08-10T09:47:26.696Z</time>
      </trkpt>
      <trkpt lat="44.14129" lon="0.60978">
        <ele>163</ele>
        <time>2025-08-10T09:47:27.696Z</time>
      </trkpt>
      <trkpt lat="44.14129" lon="0.60977">
        <ele>163</ele>
        <time>2025-08-10T09:47:28.696Z</time>
      </trkpt>
      <trkpt lat="44.1413" lon="0.60976">
        <ele>163</ele>
        <time>2025-08-10T09:47:29.696Z</time>
      </trkpt>
      <trkpt lat="44.1413" lon="0.60974">
        <ele>163</ele>
        <time>2025-08-10T09:47:30.696Z</time>
      </trkpt>
      <trkpt lat="44.1413" lon="0.60973">
        <ele>163</ele>
        <time>2025-08-10T09:47:31.696Z</time>
      </trkpt>
      <trkpt lat="44.1413" lon="0.60971">
        <ele>162</ele>
        <time>2025-08-10T09:47:32.696Z</time>
      </trkpt>
      <trkpt lat="44.1413" lon="0.60969">
        <ele>162</ele>
        <time>2025-08-10T09:47:33.696Z</time>
      </trkpt>
      <trkpt lat="44.14131" lon="0.60967">
        <ele>161</ele>
        <time>2025-08-10T09:47:34.696Z</time>
      </trkpt>
      <trkpt lat="44.14131" lon="0.60965">
        <ele>161</ele>
        <time>2025-08-10T09:47:35.696Z</time>
      </trkpt>
      <trkpt lat="44.14131" lon="0.60964">
        <ele>161</ele>
        <time>2025-08-10T09:47:36.696Z</time>
      </trkpt>
      <trkpt lat="44.14132" lon="0.60962">
        <ele>161</ele>
        <time>2025-08-10T09:47:37.696Z</time>
      </trkpt>
      <trkpt lat="44.14133" lon="0.60961">
        <ele>160</ele>
        <time>2025-08-10T09:47:38.696Z</time>
      </trkpt>
      <trkpt lat="44.14133" lon="0.60959">
        <ele>160</ele>
        <time>2025-08-10T09:47:39.696Z</time>
      </trkpt>
      <trkpt lat="44.14134" lon="0.60957">
        <ele>160</ele>
        <time>2025-08-10T09:47:40.696Z</time>
      </trkpt>
      <trkpt lat="44.14135" lon="0.60956">
        <ele>160</ele>
        <time>2025-08-10T09:47:41.696Z</time>
      </trkpt>
      <trkpt lat="44.14136" lon="0.60954">
        <ele>160</ele>
        <time>2025-08-10T09:47:42.696Z</time>
      </trkpt>
      <trkpt lat="44.14137" lon="0.60953">
        <ele>160</ele>
        <time>2025-08-10T09:47:43.696Z</time>
      </trkpt>
      <trkpt lat="44.14138" lon="0.60952">
        <ele>161</ele>
        <time>2025-08-10T09:47:44.696Z</time>
      </trkpt>
      <trkpt lat="44.14139" lon="0.60951">
        <ele>161</ele>
        <time>2025-08-10T09:47:45.696Z</time>
      </trkpt>
      <trkpt lat="44.14139" lon="0.6095">
        <ele>161</ele>
        <time>2025-08-10T09:47:46.696Z</time>
      </trkpt>
      <trkpt lat="44.1414" lon="0.60949">
        <ele>161</ele>
        <time>2025-08-10T09:47:47.696Z</time>
      </trkpt>
      <trkpt lat="44.1414" lon="0.60947">
        <ele>161</ele>
        <time>2025-08-10T09:47:48.696Z</time>
      </trkpt>
      <trkpt lat="44.14141" lon="0.60946">
        <ele>161</ele>
        <time>2025-08-10T09:47:49.696Z</time>
      </trkpt>
      <trkpt lat="44.14142" lon="0.60945">
        <ele>161</ele>
        <time>2025-08-10T09:47:50.696Z</time>
      </trkpt>
      <trkpt lat="44.14142" lon="0.60944">
        <ele>160</ele>
        <time>2025-08-10T09:47:51.696Z</time>
      </trkpt>
      <trkpt lat="44.14143" lon="0.60944">
        <ele>160</ele>
        <time>2025-08-10T09:47:52.696Z</time>
      </trkpt>
      <trkpt lat="44.14144" lon="0.60943">
        <ele>160</ele>
        <time>2025-08-10T09:47:53.696Z</time>
      </trkpt>
      <trkpt lat="44.14145" lon="0.60943">
        <ele>160</ele>
        <time>2025-08-10T09:47:54.696Z</time>
      </trkpt>
      <trkpt lat="44.14145" lon="0.60942">
        <ele>160</ele>
        <time>2025-08-10T09:47:55.696Z</time>
      </trkpt>
      <trkpt lat="44.14147" lon="0.60942">
        <ele>160</ele>
        <time>2025-08-10T09:47:56.696Z</time>
      </trkpt>
      <trkpt lat="44.14147" lon="0.60942">
        <ele>160</ele>
        <time>2025-08-10T09:47:57.696Z</time>
      </trkpt>
      <trkpt lat="44.14149" lon="0.60942">
        <ele>160</ele>
        <time>2025-08-10T09:47:58.696Z</time>
      </trkpt>
      <trkpt lat="44.1415" lon="0.60942">
        <ele>160</ele>
        <time>2025-08-10T09:47:59.696Z</time>
      </trkpt>
      <trkpt lat="44.1415" lon="0.60942">
        <ele>160</ele>
        <time>2025-08-10T09:48:00.696Z</time>
      </trkpt>
      <trkpt lat="44.14151" lon="0.60942">
        <ele>160</ele>
        <time>2025-08-10T09:48:01.696Z</time>
      </trkpt>
      <trkpt lat="44.14152" lon="0.60942">
        <ele>159</ele>
        <time>2025-08-10T09:48:02.696Z</time>
      </trkpt>
      <trkpt lat="44.14152" lon="0.60942">
        <ele>159</ele>
        <time>2025-08-10T09:48:03.696Z</time>
      </trkpt>
      <trkpt lat="44.14153" lon="0.60941">
        <ele>158</ele>
        <time>2025-08-10T09:48:04.696Z</time>
      </trkpt>
      <trkpt lat="44.14153" lon="0.6094">
        <ele>158</ele>
        <time>2025-08-10T09:48:05.696Z</time>
      </trkpt>
      <trkpt lat="44.14153" lon="0.60939">
        <ele>157</ele>
        <time>2025-08-10T09:48:06.696Z</time>
      </trkpt>
      <trkpt lat="44.14153" lon="0.60938">
        <ele>157</ele>
        <time>2025-08-10T09:48:07.696Z</time>
      </trkpt>
      <trkpt lat="44.14154" lon="0.60937">
        <ele>157</ele>
        <time>2025-08-10T09:48:08.696Z</time>
      </trkpt>
      <trkpt lat="44.14154" lon="0.60936">
        <ele>157</ele>
        <time>2025-08-10T09:48:09.696Z</time>
      </trkpt>
      <trkpt lat="44.14155" lon="0.60935">
        <ele>157</ele>
        <time>2025-08-10T09:48:10.696Z</time>
      </trkpt>
      <trkpt lat="44.14156" lon="0.60934">
        <ele>156</ele>
        <time>2025-08-10T09:48:11.696Z</time>
      </trkpt>
      <trkpt lat="44.14157" lon="0.60933">
        <ele>156</ele>
        <time>2025-08-10T09:48:12.696Z</time>
      </trkpt>
      <trkpt lat="44.14158" lon="0.60932">
        <ele>157</ele>
        <time>2025-08-10T09:48:13.696Z</time>
      </trkpt>
      <trkpt lat="44.14158" lon="0.60931">
        <ele>157</ele>
        <time>2025-08-10T09:48:14.696Z</time>
      </trkpt>
      <trkpt lat="44.14159" lon="0.6093">
        <ele>157</ele>
        <time>2025-08-10T09:48:15.696Z</time>
      </trkpt>
      <trkpt lat="44.14159" lon="0.60928">
        <ele>157</ele>
        <time>2025-08-10T09:48:16.696Z</time>
      </trkpt>
      <trkpt lat="44.1416" lon="0.60928">
        <ele>157</ele>
        <time>2025-08-10T09:48:17.696Z</time>
      </trkpt>
      <trkpt lat="44.14161" lon="0.60927">
        <ele>157</ele>
        <time>2025-08-10T09:48:18.696Z</time>
      </trkpt>
      <trkpt lat="44.14161" lon="0.60926">
        <ele>158</ele>
        <time>2025-08-10T09:48:19.696Z</time>
      </trkpt>
      <trkpt lat="44.14162" lon="0.60925">
        <ele>158</ele>
        <time>2025-08-10T09:48:20.696Z</time>
      </trkpt>
      <trkpt lat="44.14162" lon="0.60924">
        <ele>158</ele>
        <time>2025-08-10T09:48:21.696Z</time>
      </trkpt>
      <trkpt lat="44.14163" lon="0.60923">
        <ele>158</ele>
        <time>2025-08-10T09:48:22.696Z</time>
      </trkpt>
      <trkpt lat="44.14163" lon="0.60923">
        <ele>159</ele>
        <time>2025-08-10T09:48:23.696Z</time>
      </trkpt>
      <trkpt lat="44.14163" lon="0.60923">
        <ele>159</ele>
        <time>2025-08-10T09:48:24.696Z</time>
      </trkpt>
      <trkpt lat="44.14163" lon="0.60924">
        <ele>159</ele>
        <time>2025-08-10T09:48:25.696Z</time>
      </trkpt>
      <trkpt lat="44.14163" lon="0.60924">
        <ele>159</ele>
        <time>2025-08-10T09:48:26.696Z</time>
      </trkpt>
      <trkpt lat="44.14163" lon="0.60924">
        <ele>159</ele>
        <time>2025-08-10T09:48:27.696Z</time>
      </trkpt>
      <trkpt lat="44.14162" lon="0.60925">
        <ele>159</ele>
        <time>2025-08-10T09:48:28.696Z</time>
      </trkpt>
      <trkpt lat="44.14162" lon="0.60926">
        <ele>159</ele>
        <time>2025-08-10T09:48:29.696Z</time>
      </trkpt>
      <trkpt lat="44.14163" lon="0.60927">
        <ele>159</ele>
        <time>2025-08-10T09:48:30.696Z</time>
      </trkpt>
      <trkpt lat="44.14163" lon="0.60928">
        <ele>159</ele>
        <time>2025-08-10T09:48:31.696Z</time>
      </trkpt>
      <trkpt lat="44.14163" lon="0.60929">
        <ele>159</ele>
        <time>2025-08-10T09:48:32.696Z</time>
      </trkpt>
      <trkpt lat="44.14162" lon="0.6093">
        <ele>159</ele>
        <time>2025-08-10T09:48:33.696Z</time>
      </trkpt>
      <trkpt lat="44.14162" lon="0.60931">
        <ele>159</ele>
        <time>2025-08-10T09:48:34.696Z</time>
      </trkpt>
      <trkpt lat="44.14162" lon="0.60931">
        <ele>159</ele>
        <time>2025-08-10T09:48:35.696Z</time>
      </trkpt>
      <trkpt lat="44.14162" lon="0.60932">
        <ele>159</ele>
        <time>2025-08-10T09:48:36.696Z</time>
      </trkpt>
    </trkseg>
  </trk>
</gpx>